<?xml version="1.0" encoding="UTF-8"?>
<gpx version="1.1" creator="https://www.www-youtrack-es.amenigma.com" xsi:schemaLocation="http://www.topografix.com/GPX/1/1 http://www.topografix.com/GPX/1/1/gpx.xsd http://www.garmin.com/xmlschemas/GpxExtensions/v3 http://www.garmin.com/xmlschemas/GpxExtensionsv3.xsd http://www.garmin.com/xmlschemas/TrackPointExtension/v1 http://www.garmin.com/xmlschemas/TrackPointExtensionv1.xsd" xmlns:gpxtpx="http://www.garmin.com/xmlschemas/TrackPointExtension/v1" xmlns:gpxx="http://www.garmin.com/xmlschemas/GpxExtensions/v3" xmlns:xsi="http://www.w3.org/2001/XMLSchema-instance">
  <metadata>
    <link href="https://www.www-youtrack-es.amenigma.com">
      <text>YouTrack.es</text>
    </link>
    <time>2026-09-01T23:58:39Z</time>
  </metadata>
  <trk>
    <src>https://www.www-youtrack-es.amenigma.com</src>
    <link href="https://www.www-youtrack-es.amenigma.com/ruta/39287-mi-mtb">
      <text>YouTrack.es</text>
    </link>
    <trkseg>
      <trkpt lat="40.10633" lon="-3.80779">
        <ele>544</ele>
        <time>2022-12-31 08:21:38</time>
      </trkpt>
      <trkpt lat="40.10633" lon="-3.80779">
        <ele>540.2</ele>
        <time>2022-12-31 08:21:39</time>
      </trkpt>
      <trkpt lat="40.10626" lon="-3.80786">
        <ele>539.8</ele>
        <time>2022-12-31 08:21:46</time>
      </trkpt>
      <trkpt lat="40.10623" lon="-3.80789">
        <ele>540</ele>
        <time>2022-12-31 08:21:47</time>
      </trkpt>
      <trkpt lat="40.1062" lon="-3.80792">
        <ele>539.8</ele>
        <time>2022-12-31 08:21:48</time>
      </trkpt>
      <trkpt lat="40.10616" lon="-3.80796">
        <ele>539.6</ele>
        <time>2022-12-31 08:21:49</time>
      </trkpt>
      <trkpt lat="40.10613" lon="-3.80799">
        <ele>539.6</ele>
        <time>2022-12-31 08:21:50</time>
      </trkpt>
      <trkpt lat="40.10609" lon="-3.80803">
        <ele>539.6</ele>
        <time>2022-12-31 08:21:51</time>
      </trkpt>
      <trkpt lat="40.10606" lon="-3.80807">
        <ele>539.6</ele>
        <time>2022-12-31 08:21:52</time>
      </trkpt>
      <trkpt lat="40.10602" lon="-3.80812">
        <ele>539.4</ele>
        <time>2022-12-31 08:21:53</time>
      </trkpt>
      <trkpt lat="40.10598" lon="-3.80816">
        <ele>539.4</ele>
        <time>2022-12-31 08:21:54</time>
      </trkpt>
      <trkpt lat="40.10594" lon="-3.80821">
        <ele>539.2</ele>
        <time>2022-12-31 08:21:55</time>
      </trkpt>
      <trkpt lat="40.10589" lon="-3.80825">
        <ele>539.6</ele>
        <time>2022-12-31 08:21:56</time>
      </trkpt>
      <trkpt lat="40.10584" lon="-3.8083">
        <ele>539.6</ele>
        <time>2022-12-31 08:21:57</time>
      </trkpt>
      <trkpt lat="40.10579" lon="-3.80835">
        <ele>539.6</ele>
        <time>2022-12-31 08:21:58</time>
      </trkpt>
      <trkpt lat="40.10574" lon="-3.8084">
        <ele>539.6</ele>
        <time>2022-12-31 08:21:59</time>
      </trkpt>
      <trkpt lat="40.1057" lon="-3.80845">
        <ele>539.4</ele>
        <time>2022-12-31 08:22:00</time>
      </trkpt>
      <trkpt lat="40.10565" lon="-3.8085">
        <ele>539.6</ele>
        <time>2022-12-31 08:22:01</time>
      </trkpt>
      <trkpt lat="40.10561" lon="-3.80856">
        <ele>539.4</ele>
        <time>2022-12-31 08:22:02</time>
      </trkpt>
      <trkpt lat="40.10556" lon="-3.80861">
        <ele>539.4</ele>
        <time>2022-12-31 08:22:03</time>
      </trkpt>
      <trkpt lat="40.10551" lon="-3.80866">
        <ele>539.4</ele>
        <time>2022-12-31 08:22:04</time>
      </trkpt>
      <trkpt lat="40.10547" lon="-3.80871">
        <ele>539.2</ele>
        <time>2022-12-31 08:22:05</time>
      </trkpt>
      <trkpt lat="40.10542" lon="-3.80875">
        <ele>539</ele>
        <time>2022-12-31 08:22:06</time>
      </trkpt>
      <trkpt lat="40.10537" lon="-3.80878">
        <ele>538.8</ele>
        <time>2022-12-31 08:22:07</time>
      </trkpt>
      <trkpt lat="40.10532" lon="-3.80881">
        <ele>538.6</ele>
        <time>2022-12-31 08:22:08</time>
      </trkpt>
      <trkpt lat="40.10527" lon="-3.80883">
        <ele>538.6</ele>
        <time>2022-12-31 08:22:09</time>
      </trkpt>
      <trkpt lat="40.10522" lon="-3.80886">
        <ele>538.6</ele>
        <time>2022-12-31 08:22:10</time>
      </trkpt>
      <trkpt lat="40.10516" lon="-3.80889">
        <ele>538.6</ele>
        <time>2022-12-31 08:22:11</time>
      </trkpt>
      <trkpt lat="40.10511" lon="-3.80892">
        <ele>538.4</ele>
        <time>2022-12-31 08:22:12</time>
      </trkpt>
      <trkpt lat="40.10505" lon="-3.80895">
        <ele>538.6</ele>
        <time>2022-12-31 08:22:13</time>
      </trkpt>
      <trkpt lat="40.10499" lon="-3.80897">
        <ele>538.4</ele>
        <time>2022-12-31 08:22:14</time>
      </trkpt>
      <trkpt lat="40.10494" lon="-3.80899">
        <ele>538.2</ele>
        <time>2022-12-31 08:22:15</time>
      </trkpt>
      <trkpt lat="40.10488" lon="-3.809">
        <ele>538.4</ele>
        <time>2022-12-31 08:22:16</time>
      </trkpt>
      <trkpt lat="40.10482" lon="-3.80902">
        <ele>538.4</ele>
        <time>2022-12-31 08:22:17</time>
      </trkpt>
      <trkpt lat="40.10476" lon="-3.80905">
        <ele>538.2</ele>
        <time>2022-12-31 08:22:18</time>
      </trkpt>
      <trkpt lat="40.1047" lon="-3.80907">
        <ele>538.2</ele>
        <time>2022-12-31 08:22:19</time>
      </trkpt>
      <trkpt lat="40.10464" lon="-3.80909">
        <ele>538.2</ele>
        <time>2022-12-31 08:22:20</time>
      </trkpt>
      <trkpt lat="40.10458" lon="-3.80912">
        <ele>538.2</ele>
        <time>2022-12-31 08:22:21</time>
      </trkpt>
      <trkpt lat="40.10452" lon="-3.80914">
        <ele>538.2</ele>
        <time>2022-12-31 08:22:22</time>
      </trkpt>
      <trkpt lat="40.10446" lon="-3.80917">
        <ele>538.2</ele>
        <time>2022-12-31 08:22:23</time>
      </trkpt>
      <trkpt lat="40.1044" lon="-3.80919">
        <ele>538.2</ele>
        <time>2022-12-31 08:22:24</time>
      </trkpt>
      <trkpt lat="40.10434" lon="-3.80921">
        <ele>538.2</ele>
        <time>2022-12-31 08:22:25</time>
      </trkpt>
      <trkpt lat="40.10428" lon="-3.80923">
        <ele>538</ele>
        <time>2022-12-31 08:22:26</time>
      </trkpt>
      <trkpt lat="40.10422" lon="-3.80925">
        <ele>538</ele>
        <time>2022-12-31 08:22:27</time>
      </trkpt>
      <trkpt lat="40.10416" lon="-3.80926">
        <ele>538</ele>
        <time>2022-12-31 08:22:28</time>
      </trkpt>
      <trkpt lat="40.1041" lon="-3.80928">
        <ele>538</ele>
        <time>2022-12-31 08:22:29</time>
      </trkpt>
      <trkpt lat="40.10404" lon="-3.8093">
        <ele>538</ele>
        <time>2022-12-31 08:22:30</time>
      </trkpt>
      <trkpt lat="40.10398" lon="-3.80932">
        <ele>538</ele>
        <time>2022-12-31 08:22:31</time>
      </trkpt>
      <trkpt lat="40.10392" lon="-3.80934">
        <ele>537.8</ele>
        <time>2022-12-31 08:22:32</time>
      </trkpt>
      <trkpt lat="40.10386" lon="-3.80936">
        <ele>537.8</ele>
        <time>2022-12-31 08:22:33</time>
      </trkpt>
      <trkpt lat="40.1038" lon="-3.80938">
        <ele>537.8</ele>
        <time>2022-12-31 08:22:34</time>
      </trkpt>
      <trkpt lat="40.10373" lon="-3.8094">
        <ele>537.8</ele>
        <time>2022-12-31 08:22:35</time>
      </trkpt>
      <trkpt lat="40.10367" lon="-3.80941">
        <ele>537.8</ele>
        <time>2022-12-31 08:22:36</time>
      </trkpt>
      <trkpt lat="40.10361" lon="-3.80943">
        <ele>537.8</ele>
        <time>2022-12-31 08:22:37</time>
      </trkpt>
      <trkpt lat="40.10355" lon="-3.80945">
        <ele>537.8</ele>
        <time>2022-12-31 08:22:38</time>
      </trkpt>
      <trkpt lat="40.10348" lon="-3.80946">
        <ele>537.6</ele>
        <time>2022-12-31 08:22:39</time>
      </trkpt>
      <trkpt lat="40.10342" lon="-3.80947">
        <ele>537.6</ele>
        <time>2022-12-31 08:22:40</time>
      </trkpt>
      <trkpt lat="40.10336" lon="-3.80948">
        <ele>537.6</ele>
        <time>2022-12-31 08:22:41</time>
      </trkpt>
      <trkpt lat="40.10329" lon="-3.80949">
        <ele>537.6</ele>
        <time>2022-12-31 08:22:42</time>
      </trkpt>
      <trkpt lat="40.10323" lon="-3.8095">
        <ele>537.6</ele>
        <time>2022-12-31 08:22:43</time>
      </trkpt>
      <trkpt lat="40.10317" lon="-3.80952">
        <ele>537.4</ele>
        <time>2022-12-31 08:22:44</time>
      </trkpt>
      <trkpt lat="40.10311" lon="-3.80953">
        <ele>537.4</ele>
        <time>2022-12-31 08:22:45</time>
      </trkpt>
      <trkpt lat="40.10305" lon="-3.80955">
        <ele>537.4</ele>
        <time>2022-12-31 08:22:46</time>
      </trkpt>
      <trkpt lat="40.10299" lon="-3.80957">
        <ele>537.4</ele>
        <time>2022-12-31 08:22:47</time>
      </trkpt>
      <trkpt lat="40.10292" lon="-3.80959">
        <ele>537.4</ele>
        <time>2022-12-31 08:22:48</time>
      </trkpt>
      <trkpt lat="40.10286" lon="-3.80961">
        <ele>537.2</ele>
        <time>2022-12-31 08:22:49</time>
      </trkpt>
      <trkpt lat="40.1028" lon="-3.80962">
        <ele>537.2</ele>
        <time>2022-12-31 08:22:50</time>
      </trkpt>
      <trkpt lat="40.10274" lon="-3.80963">
        <ele>537.4</ele>
        <time>2022-12-31 08:22:51</time>
      </trkpt>
      <trkpt lat="40.10268" lon="-3.80964">
        <ele>537.4</ele>
        <time>2022-12-31 08:22:52</time>
      </trkpt>
      <trkpt lat="40.10262" lon="-3.80965">
        <ele>537.2</ele>
        <time>2022-12-31 08:22:53</time>
      </trkpt>
      <trkpt lat="40.10255" lon="-3.80965">
        <ele>537.4</ele>
        <time>2022-12-31 08:22:54</time>
      </trkpt>
      <trkpt lat="40.10249" lon="-3.80965">
        <ele>537.2</ele>
        <time>2022-12-31 08:22:55</time>
      </trkpt>
      <trkpt lat="40.10243" lon="-3.80965">
        <ele>537.2</ele>
        <time>2022-12-31 08:22:56</time>
      </trkpt>
      <trkpt lat="40.10236" lon="-3.80964">
        <ele>537.2</ele>
        <time>2022-12-31 08:22:57</time>
      </trkpt>
      <trkpt lat="40.1023" lon="-3.80963">
        <ele>537.2</ele>
        <time>2022-12-31 08:22:58</time>
      </trkpt>
      <trkpt lat="40.10224" lon="-3.80961">
        <ele>537.2</ele>
        <time>2022-12-31 08:22:59</time>
      </trkpt>
      <trkpt lat="40.10218" lon="-3.8096">
        <ele>537</ele>
        <time>2022-12-31 08:23:00</time>
      </trkpt>
      <trkpt lat="40.10212" lon="-3.80958">
        <ele>537.2</ele>
        <time>2022-12-31 08:23:01</time>
      </trkpt>
      <trkpt lat="40.10205" lon="-3.80956">
        <ele>537.2</ele>
        <time>2022-12-31 08:23:02</time>
      </trkpt>
      <trkpt lat="40.10199" lon="-3.80955">
        <ele>537.2</ele>
        <time>2022-12-31 08:23:03</time>
      </trkpt>
      <trkpt lat="40.10193" lon="-3.80953">
        <ele>537</ele>
        <time>2022-12-31 08:23:04</time>
      </trkpt>
      <trkpt lat="40.10186" lon="-3.80952">
        <ele>537.2</ele>
        <time>2022-12-31 08:23:05</time>
      </trkpt>
      <trkpt lat="40.1018" lon="-3.8095">
        <ele>537</ele>
        <time>2022-12-31 08:23:06</time>
      </trkpt>
      <trkpt lat="40.10174" lon="-3.80949">
        <ele>537</ele>
        <time>2022-12-31 08:23:07</time>
      </trkpt>
      <trkpt lat="40.10167" lon="-3.80947">
        <ele>537</ele>
        <time>2022-12-31 08:23:08</time>
      </trkpt>
      <trkpt lat="40.10161" lon="-3.80946">
        <ele>537</ele>
        <time>2022-12-31 08:23:09</time>
      </trkpt>
      <trkpt lat="40.10154" lon="-3.80945">
        <ele>537</ele>
        <time>2022-12-31 08:23:10</time>
      </trkpt>
      <trkpt lat="40.10148" lon="-3.80945">
        <ele>537</ele>
        <time>2022-12-31 08:23:11</time>
      </trkpt>
      <trkpt lat="40.10142" lon="-3.80945">
        <ele>537</ele>
        <time>2022-12-31 08:23:12</time>
      </trkpt>
      <trkpt lat="40.10135" lon="-3.80945">
        <ele>536.8</ele>
        <time>2022-12-31 08:23:13</time>
      </trkpt>
      <trkpt lat="40.10129" lon="-3.80946">
        <ele>536.8</ele>
        <time>2022-12-31 08:23:14</time>
      </trkpt>
      <trkpt lat="40.10122" lon="-3.80945">
        <ele>536.8</ele>
        <time>2022-12-31 08:23:15</time>
      </trkpt>
      <trkpt lat="40.10116" lon="-3.80945">
        <ele>536.8</ele>
        <time>2022-12-31 08:23:16</time>
      </trkpt>
      <trkpt lat="40.1011" lon="-3.80944">
        <ele>536.6</ele>
        <time>2022-12-31 08:23:17</time>
      </trkpt>
      <trkpt lat="40.10103" lon="-3.80944">
        <ele>536.8</ele>
        <time>2022-12-31 08:23:18</time>
      </trkpt>
      <trkpt lat="40.10097" lon="-3.80944">
        <ele>536.8</ele>
        <time>2022-12-31 08:23:19</time>
      </trkpt>
      <trkpt lat="40.10091" lon="-3.80944">
        <ele>536.6</ele>
        <time>2022-12-31 08:23:20</time>
      </trkpt>
      <trkpt lat="40.10084" lon="-3.80944">
        <ele>536.6</ele>
        <time>2022-12-31 08:23:21</time>
      </trkpt>
      <trkpt lat="40.10078" lon="-3.80944">
        <ele>536.8</ele>
        <time>2022-12-31 08:23:22</time>
      </trkpt>
      <trkpt lat="40.10072" lon="-3.80944">
        <ele>536.8</ele>
        <time>2022-12-31 08:23:23</time>
      </trkpt>
      <trkpt lat="40.10066" lon="-3.80945">
        <ele>536.8</ele>
        <time>2022-12-31 08:23:24</time>
      </trkpt>
      <trkpt lat="40.1006" lon="-3.80945">
        <ele>536.8</ele>
        <time>2022-12-31 08:23:25</time>
      </trkpt>
      <trkpt lat="40.10054" lon="-3.80945">
        <ele>537</ele>
        <time>2022-12-31 08:23:26</time>
      </trkpt>
      <trkpt lat="40.10048" lon="-3.80946">
        <ele>536.8</ele>
        <time>2022-12-31 08:23:27</time>
      </trkpt>
      <trkpt lat="40.10042" lon="-3.80945">
        <ele>536.8</ele>
        <time>2022-12-31 08:23:28</time>
      </trkpt>
      <trkpt lat="40.10035" lon="-3.80945">
        <ele>536.6</ele>
        <time>2022-12-31 08:23:29</time>
      </trkpt>
      <trkpt lat="40.10029" lon="-3.80945">
        <ele>536.8</ele>
        <time>2022-12-31 08:23:30</time>
      </trkpt>
      <trkpt lat="40.10023" lon="-3.80945">
        <ele>536.8</ele>
        <time>2022-12-31 08:23:31</time>
      </trkpt>
      <trkpt lat="40.10017" lon="-3.80946">
        <ele>536.8</ele>
        <time>2022-12-31 08:23:32</time>
      </trkpt>
      <trkpt lat="40.10011" lon="-3.80946">
        <ele>536.8</ele>
        <time>2022-12-31 08:23:33</time>
      </trkpt>
      <trkpt lat="40.10005" lon="-3.80947">
        <ele>536.8</ele>
        <time>2022-12-31 08:23:34</time>
      </trkpt>
      <trkpt lat="40.09999" lon="-3.80947">
        <ele>536.8</ele>
        <time>2022-12-31 08:23:35</time>
      </trkpt>
      <trkpt lat="40.09993" lon="-3.80948">
        <ele>536.8</ele>
        <time>2022-12-31 08:23:36</time>
      </trkpt>
      <trkpt lat="40.09986" lon="-3.80948">
        <ele>536.8</ele>
        <time>2022-12-31 08:23:37</time>
      </trkpt>
      <trkpt lat="40.0998" lon="-3.80949">
        <ele>536.8</ele>
        <time>2022-12-31 08:23:38</time>
      </trkpt>
      <trkpt lat="40.09974" lon="-3.8095">
        <ele>536.8</ele>
        <time>2022-12-31 08:23:39</time>
      </trkpt>
      <trkpt lat="40.09968" lon="-3.80951">
        <ele>536.8</ele>
        <time>2022-12-31 08:23:40</time>
      </trkpt>
      <trkpt lat="40.09962" lon="-3.80952">
        <ele>536.8</ele>
        <time>2022-12-31 08:23:41</time>
      </trkpt>
      <trkpt lat="40.09956" lon="-3.80953">
        <ele>536.6</ele>
        <time>2022-12-31 08:23:42</time>
      </trkpt>
      <trkpt lat="40.09949" lon="-3.80953">
        <ele>536.6</ele>
        <time>2022-12-31 08:23:43</time>
      </trkpt>
      <trkpt lat="40.09943" lon="-3.80954">
        <ele>536.8</ele>
        <time>2022-12-31 08:23:44</time>
      </trkpt>
      <trkpt lat="40.09937" lon="-3.80955">
        <ele>536.8</ele>
        <time>2022-12-31 08:23:45</time>
      </trkpt>
      <trkpt lat="40.09931" lon="-3.80956">
        <ele>536.8</ele>
        <time>2022-12-31 08:23:46</time>
      </trkpt>
      <trkpt lat="40.09925" lon="-3.80957">
        <ele>536.8</ele>
        <time>2022-12-31 08:23:47</time>
      </trkpt>
      <trkpt lat="40.09919" lon="-3.80959">
        <ele>536.8</ele>
        <time>2022-12-31 08:23:48</time>
      </trkpt>
      <trkpt lat="40.09913" lon="-3.8096">
        <ele>536.8</ele>
        <time>2022-12-31 08:23:49</time>
      </trkpt>
      <trkpt lat="40.09907" lon="-3.80962">
        <ele>536.8</ele>
        <time>2022-12-31 08:23:50</time>
      </trkpt>
      <trkpt lat="40.09901" lon="-3.80963">
        <ele>536.6</ele>
        <time>2022-12-31 08:23:51</time>
      </trkpt>
      <trkpt lat="40.09895" lon="-3.80965">
        <ele>537</ele>
        <time>2022-12-31 08:23:52</time>
      </trkpt>
      <trkpt lat="40.0989" lon="-3.80967">
        <ele>536.8</ele>
        <time>2022-12-31 08:23:53</time>
      </trkpt>
      <trkpt lat="40.09884" lon="-3.80969">
        <ele>536.8</ele>
        <time>2022-12-31 08:23:54</time>
      </trkpt>
      <trkpt lat="40.09879" lon="-3.80971">
        <ele>536.8</ele>
        <time>2022-12-31 08:23:55</time>
      </trkpt>
      <trkpt lat="40.09873" lon="-3.80972">
        <ele>537</ele>
        <time>2022-12-31 08:23:56</time>
      </trkpt>
      <trkpt lat="40.09868" lon="-3.80973">
        <ele>537</ele>
        <time>2022-12-31 08:23:57</time>
      </trkpt>
      <trkpt lat="40.09863" lon="-3.80974">
        <ele>537</ele>
        <time>2022-12-31 08:23:58</time>
      </trkpt>
      <trkpt lat="40.09858" lon="-3.80975">
        <ele>537</ele>
        <time>2022-12-31 08:23:59</time>
      </trkpt>
      <trkpt lat="40.09854" lon="-3.80975">
        <ele>537</ele>
        <time>2022-12-31 08:24:00</time>
      </trkpt>
      <trkpt lat="40.09849" lon="-3.80976">
        <ele>537.4</ele>
        <time>2022-12-31 08:24:01</time>
      </trkpt>
      <trkpt lat="40.09844" lon="-3.80976">
        <ele>537.4</ele>
        <time>2022-12-31 08:24:02</time>
      </trkpt>
      <trkpt lat="40.0984" lon="-3.80976">
        <ele>537.6</ele>
        <time>2022-12-31 08:24:03</time>
      </trkpt>
      <trkpt lat="40.09835" lon="-3.80977">
        <ele>537.6</ele>
        <time>2022-12-31 08:24:04</time>
      </trkpt>
      <trkpt lat="40.0983" lon="-3.80976">
        <ele>537.8</ele>
        <time>2022-12-31 08:24:05</time>
      </trkpt>
      <trkpt lat="40.09825" lon="-3.80976">
        <ele>537.6</ele>
        <time>2022-12-31 08:24:06</time>
      </trkpt>
      <trkpt lat="40.09821" lon="-3.80977">
        <ele>538</ele>
        <time>2022-12-31 08:24:07</time>
      </trkpt>
      <trkpt lat="40.09816" lon="-3.80977">
        <ele>538.2</ele>
        <time>2022-12-31 08:24:08</time>
      </trkpt>
      <trkpt lat="40.09812" lon="-3.80978">
        <ele>538.4</ele>
        <time>2022-12-31 08:24:09</time>
      </trkpt>
      <trkpt lat="40.09807" lon="-3.80979">
        <ele>538.8</ele>
        <time>2022-12-31 08:24:10</time>
      </trkpt>
      <trkpt lat="40.09803" lon="-3.8098">
        <ele>538.8</ele>
        <time>2022-12-31 08:24:11</time>
      </trkpt>
      <trkpt lat="40.09799" lon="-3.80981">
        <ele>539</ele>
        <time>2022-12-31 08:24:12</time>
      </trkpt>
      <trkpt lat="40.09795" lon="-3.80982">
        <ele>539</ele>
        <time>2022-12-31 08:24:13</time>
      </trkpt>
      <trkpt lat="40.09791" lon="-3.80984">
        <ele>539.2</ele>
        <time>2022-12-31 08:24:14</time>
      </trkpt>
      <trkpt lat="40.09787" lon="-3.80985">
        <ele>539.4</ele>
        <time>2022-12-31 08:24:15</time>
      </trkpt>
      <trkpt lat="40.09783" lon="-3.80987">
        <ele>539.6</ele>
        <time>2022-12-31 08:24:16</time>
      </trkpt>
      <trkpt lat="40.09779" lon="-3.80988">
        <ele>539.8</ele>
        <time>2022-12-31 08:24:17</time>
      </trkpt>
      <trkpt lat="40.09775" lon="-3.8099">
        <ele>540</ele>
        <time>2022-12-31 08:24:18</time>
      </trkpt>
      <trkpt lat="40.09771" lon="-3.80991">
        <ele>540.2</ele>
        <time>2022-12-31 08:24:19</time>
      </trkpt>
      <trkpt lat="40.09768" lon="-3.80992">
        <ele>540.2</ele>
        <time>2022-12-31 08:24:20</time>
      </trkpt>
      <trkpt lat="40.09764" lon="-3.80992">
        <ele>540.6</ele>
        <time>2022-12-31 08:24:21</time>
      </trkpt>
      <trkpt lat="40.0976" lon="-3.80993">
        <ele>540.6</ele>
        <time>2022-12-31 08:24:22</time>
      </trkpt>
      <trkpt lat="40.09756" lon="-3.80994">
        <ele>540.6</ele>
        <time>2022-12-31 08:24:23</time>
      </trkpt>
      <trkpt lat="40.09752" lon="-3.80995">
        <ele>540.6</ele>
        <time>2022-12-31 08:24:24</time>
      </trkpt>
      <trkpt lat="40.09749" lon="-3.80996">
        <ele>540.8</ele>
        <time>2022-12-31 08:24:25</time>
      </trkpt>
      <trkpt lat="40.09745" lon="-3.80997">
        <ele>541</ele>
        <time>2022-12-31 08:24:26</time>
      </trkpt>
      <trkpt lat="40.09743" lon="-3.80999">
        <ele>541.4</ele>
        <time>2022-12-31 08:24:27</time>
      </trkpt>
      <trkpt lat="40.09741" lon="-3.81">
        <ele>541.6</ele>
        <time>2022-12-31 08:24:28</time>
      </trkpt>
      <trkpt lat="40.09739" lon="-3.81001">
        <ele>541.8</ele>
        <time>2022-12-31 08:24:29</time>
      </trkpt>
      <trkpt lat="40.09738" lon="-3.81003">
        <ele>542</ele>
        <time>2022-12-31 08:24:30</time>
      </trkpt>
      <trkpt lat="40.09738" lon="-3.81004">
        <ele>542.2</ele>
        <time>2022-12-31 08:24:31</time>
      </trkpt>
      <trkpt lat="40.09737" lon="-3.81005">
        <ele>542.4</ele>
        <time>2022-12-31 08:24:32</time>
      </trkpt>
      <trkpt lat="40.09735" lon="-3.81006">
        <ele>542.6</ele>
        <time>2022-12-31 08:24:33</time>
      </trkpt>
      <trkpt lat="40.09733" lon="-3.81006">
        <ele>542.6</ele>
        <time>2022-12-31 08:24:34</time>
      </trkpt>
      <trkpt lat="40.09732" lon="-3.81007">
        <ele>542.8</ele>
        <time>2022-12-31 08:24:35</time>
      </trkpt>
      <trkpt lat="40.0973" lon="-3.81008">
        <ele>543.2</ele>
        <time>2022-12-31 08:24:36</time>
      </trkpt>
      <trkpt lat="40.09728" lon="-3.81009">
        <ele>543.4</ele>
        <time>2022-12-31 08:24:37</time>
      </trkpt>
      <trkpt lat="40.09726" lon="-3.8101">
        <ele>543.4</ele>
        <time>2022-12-31 08:24:38</time>
      </trkpt>
      <trkpt lat="40.09723" lon="-3.8101">
        <ele>543.4</ele>
        <time>2022-12-31 08:24:39</time>
      </trkpt>
      <trkpt lat="40.09721" lon="-3.81011">
        <ele>543.8</ele>
        <time>2022-12-31 08:24:40</time>
      </trkpt>
      <trkpt lat="40.09718" lon="-3.81011">
        <ele>543.8</ele>
        <time>2022-12-31 08:24:41</time>
      </trkpt>
      <trkpt lat="40.09716" lon="-3.81012">
        <ele>543.8</ele>
        <time>2022-12-31 08:24:42</time>
      </trkpt>
      <trkpt lat="40.09713" lon="-3.81012">
        <ele>543.8</ele>
        <time>2022-12-31 08:24:43</time>
      </trkpt>
      <trkpt lat="40.0971" lon="-3.81013">
        <ele>544</ele>
        <time>2022-12-31 08:24:44</time>
      </trkpt>
      <trkpt lat="40.09708" lon="-3.81013">
        <ele>543.8</ele>
        <time>2022-12-31 08:24:45</time>
      </trkpt>
      <trkpt lat="40.09706" lon="-3.81014">
        <ele>544</ele>
        <time>2022-12-31 08:24:46</time>
      </trkpt>
      <trkpt lat="40.09704" lon="-3.81014">
        <ele>544</ele>
        <time>2022-12-31 08:24:47</time>
      </trkpt>
      <trkpt lat="40.09701" lon="-3.81015">
        <ele>544</ele>
        <time>2022-12-31 08:24:48</time>
      </trkpt>
      <trkpt lat="40.09699" lon="-3.81015">
        <ele>544</ele>
        <time>2022-12-31 08:24:49</time>
      </trkpt>
      <trkpt lat="40.09697" lon="-3.81015">
        <ele>544</ele>
        <time>2022-12-31 08:24:50</time>
      </trkpt>
      <trkpt lat="40.09694" lon="-3.81016">
        <ele>544.2</ele>
        <time>2022-12-31 08:24:51</time>
      </trkpt>
      <trkpt lat="40.09691" lon="-3.81016">
        <ele>544.2</ele>
        <time>2022-12-31 08:24:52</time>
      </trkpt>
      <trkpt lat="40.09689" lon="-3.81016">
        <ele>544</ele>
        <time>2022-12-31 08:24:53</time>
      </trkpt>
      <trkpt lat="40.09686" lon="-3.81016">
        <ele>544.2</ele>
        <time>2022-12-31 08:24:54</time>
      </trkpt>
      <trkpt lat="40.09684" lon="-3.81015">
        <ele>544.2</ele>
        <time>2022-12-31 08:24:55</time>
      </trkpt>
      <trkpt lat="40.09681" lon="-3.81015">
        <ele>544.2</ele>
        <time>2022-12-31 08:24:56</time>
      </trkpt>
      <trkpt lat="40.09678" lon="-3.81014">
        <ele>544.2</ele>
        <time>2022-12-31 08:24:57</time>
      </trkpt>
      <trkpt lat="40.09675" lon="-3.81014">
        <ele>544</ele>
        <time>2022-12-31 08:24:58</time>
      </trkpt>
      <trkpt lat="40.09672" lon="-3.81013">
        <ele>544</ele>
        <time>2022-12-31 08:24:59</time>
      </trkpt>
      <trkpt lat="40.0967" lon="-3.81013">
        <ele>544.2</ele>
        <time>2022-12-31 08:25:00</time>
      </trkpt>
      <trkpt lat="40.09667" lon="-3.81013">
        <ele>544.2</ele>
        <time>2022-12-31 08:25:01</time>
      </trkpt>
      <trkpt lat="40.09664" lon="-3.81012">
        <ele>544.2</ele>
        <time>2022-12-31 08:25:02</time>
      </trkpt>
      <trkpt lat="40.09661" lon="-3.81012">
        <ele>544.2</ele>
        <time>2022-12-31 08:25:03</time>
      </trkpt>
      <trkpt lat="40.09658" lon="-3.81012">
        <ele>544.2</ele>
        <time>2022-12-31 08:25:04</time>
      </trkpt>
      <trkpt lat="40.09655" lon="-3.81013">
        <ele>544</ele>
        <time>2022-12-31 08:25:05</time>
      </trkpt>
      <trkpt lat="40.09651" lon="-3.81013">
        <ele>544.2</ele>
        <time>2022-12-31 08:25:06</time>
      </trkpt>
      <trkpt lat="40.09648" lon="-3.81013">
        <ele>544.2</ele>
        <time>2022-12-31 08:25:07</time>
      </trkpt>
      <trkpt lat="40.09645" lon="-3.81013">
        <ele>544.2</ele>
        <time>2022-12-31 08:25:08</time>
      </trkpt>
      <trkpt lat="40.09641" lon="-3.81014">
        <ele>544.2</ele>
        <time>2022-12-31 08:25:09</time>
      </trkpt>
      <trkpt lat="40.09638" lon="-3.81014">
        <ele>544.2</ele>
        <time>2022-12-31 08:25:10</time>
      </trkpt>
      <trkpt lat="40.09635" lon="-3.81014">
        <ele>544</ele>
        <time>2022-12-31 08:25:11</time>
      </trkpt>
      <trkpt lat="40.09632" lon="-3.81015">
        <ele>544.2</ele>
        <time>2022-12-31 08:25:12</time>
      </trkpt>
      <trkpt lat="40.09629" lon="-3.81015">
        <ele>544.2</ele>
        <time>2022-12-31 08:25:13</time>
      </trkpt>
      <trkpt lat="40.09625" lon="-3.81016">
        <ele>544.2</ele>
        <time>2022-12-31 08:25:14</time>
      </trkpt>
      <trkpt lat="40.09622" lon="-3.81018">
        <ele>544.2</ele>
        <time>2022-12-31 08:25:15</time>
      </trkpt>
      <trkpt lat="40.09619" lon="-3.81019">
        <ele>544.2</ele>
        <time>2022-12-31 08:25:16</time>
      </trkpt>
      <trkpt lat="40.09615" lon="-3.81021">
        <ele>544.2</ele>
        <time>2022-12-31 08:25:17</time>
      </trkpt>
      <trkpt lat="40.09611" lon="-3.81022">
        <ele>544.2</ele>
        <time>2022-12-31 08:25:18</time>
      </trkpt>
      <trkpt lat="40.09607" lon="-3.81023">
        <ele>544.2</ele>
        <time>2022-12-31 08:25:19</time>
      </trkpt>
      <trkpt lat="40.09603" lon="-3.81023">
        <ele>544.4</ele>
        <time>2022-12-31 08:25:20</time>
      </trkpt>
      <trkpt lat="40.09599" lon="-3.81023">
        <ele>544.2</ele>
        <time>2022-12-31 08:25:21</time>
      </trkpt>
      <trkpt lat="40.09595" lon="-3.81023">
        <ele>544.2</ele>
        <time>2022-12-31 08:25:22</time>
      </trkpt>
      <trkpt lat="40.09591" lon="-3.81022">
        <ele>544.2</ele>
        <time>2022-12-31 08:25:23</time>
      </trkpt>
      <trkpt lat="40.09587" lon="-3.81021">
        <ele>544.2</ele>
        <time>2022-12-31 08:25:24</time>
      </trkpt>
      <trkpt lat="40.09583" lon="-3.81021">
        <ele>544.4</ele>
        <time>2022-12-31 08:25:25</time>
      </trkpt>
      <trkpt lat="40.09578" lon="-3.81022">
        <ele>544.4</ele>
        <time>2022-12-31 08:25:26</time>
      </trkpt>
      <trkpt lat="40.09574" lon="-3.81024">
        <ele>544.4</ele>
        <time>2022-12-31 08:25:27</time>
      </trkpt>
      <trkpt lat="40.0957" lon="-3.81025">
        <ele>544.4</ele>
        <time>2022-12-31 08:25:28</time>
      </trkpt>
      <trkpt lat="40.09565" lon="-3.81027">
        <ele>544.4</ele>
        <time>2022-12-31 08:25:29</time>
      </trkpt>
      <trkpt lat="40.09561" lon="-3.81027">
        <ele>544.6</ele>
        <time>2022-12-31 08:25:30</time>
      </trkpt>
      <trkpt lat="40.09556" lon="-3.81028">
        <ele>544.6</ele>
        <time>2022-12-31 08:25:31</time>
      </trkpt>
      <trkpt lat="40.09551" lon="-3.81028">
        <ele>544.4</ele>
        <time>2022-12-31 08:25:32</time>
      </trkpt>
      <trkpt lat="40.09546" lon="-3.81027">
        <ele>544.6</ele>
        <time>2022-12-31 08:25:33</time>
      </trkpt>
      <trkpt lat="40.09542" lon="-3.81026">
        <ele>544.4</ele>
        <time>2022-12-31 08:25:34</time>
      </trkpt>
      <trkpt lat="40.09537" lon="-3.81025">
        <ele>544.6</ele>
        <time>2022-12-31 08:25:35</time>
      </trkpt>
      <trkpt lat="40.09533" lon="-3.81023">
        <ele>544.8</ele>
        <time>2022-12-31 08:25:36</time>
      </trkpt>
      <trkpt lat="40.09528" lon="-3.81021">
        <ele>544.6</ele>
        <time>2022-12-31 08:25:37</time>
      </trkpt>
      <trkpt lat="40.09524" lon="-3.8102">
        <ele>544.8</ele>
        <time>2022-12-31 08:25:38</time>
      </trkpt>
      <trkpt lat="40.0952" lon="-3.81019">
        <ele>544.8</ele>
        <time>2022-12-31 08:25:39</time>
      </trkpt>
      <trkpt lat="40.09516" lon="-3.81019">
        <ele>544.8</ele>
        <time>2022-12-31 08:25:40</time>
      </trkpt>
      <trkpt lat="40.09512" lon="-3.8102">
        <ele>544.8</ele>
        <time>2022-12-31 08:25:41</time>
      </trkpt>
      <trkpt lat="40.09508" lon="-3.81021">
        <ele>544.8</ele>
        <time>2022-12-31 08:25:42</time>
      </trkpt>
      <trkpt lat="40.09504" lon="-3.81021">
        <ele>544.8</ele>
        <time>2022-12-31 08:25:43</time>
      </trkpt>
      <trkpt lat="40.095" lon="-3.8102">
        <ele>544.8</ele>
        <time>2022-12-31 08:25:44</time>
      </trkpt>
      <trkpt lat="40.09497" lon="-3.8102">
        <ele>544.8</ele>
        <time>2022-12-31 08:25:45</time>
      </trkpt>
      <trkpt lat="40.09493" lon="-3.81019">
        <ele>544.8</ele>
        <time>2022-12-31 08:25:46</time>
      </trkpt>
      <trkpt lat="40.09489" lon="-3.81018">
        <ele>545</ele>
        <time>2022-12-31 08:25:47</time>
      </trkpt>
      <trkpt lat="40.09484" lon="-3.81017">
        <ele>545</ele>
        <time>2022-12-31 08:25:48</time>
      </trkpt>
      <trkpt lat="40.0948" lon="-3.81017">
        <ele>545</ele>
        <time>2022-12-31 08:25:49</time>
      </trkpt>
      <trkpt lat="40.09475" lon="-3.81016">
        <ele>545.2</ele>
        <time>2022-12-31 08:25:50</time>
      </trkpt>
      <trkpt lat="40.09471" lon="-3.81016">
        <ele>545</ele>
        <time>2022-12-31 08:25:51</time>
      </trkpt>
      <trkpt lat="40.09466" lon="-3.81015">
        <ele>545.2</ele>
        <time>2022-12-31 08:25:52</time>
      </trkpt>
      <trkpt lat="40.09462" lon="-3.81014">
        <ele>545.4</ele>
        <time>2022-12-31 08:25:53</time>
      </trkpt>
      <trkpt lat="40.09458" lon="-3.81011">
        <ele>545.4</ele>
        <time>2022-12-31 08:25:54</time>
      </trkpt>
      <trkpt lat="40.09454" lon="-3.81009">
        <ele>545.4</ele>
        <time>2022-12-31 08:25:55</time>
      </trkpt>
      <trkpt lat="40.0945" lon="-3.81008">
        <ele>545.4</ele>
        <time>2022-12-31 08:25:56</time>
      </trkpt>
      <trkpt lat="40.09446" lon="-3.81006">
        <ele>545.4</ele>
        <time>2022-12-31 08:25:57</time>
      </trkpt>
      <trkpt lat="40.09442" lon="-3.81005">
        <ele>545.6</ele>
        <time>2022-12-31 08:25:58</time>
      </trkpt>
      <trkpt lat="40.09437" lon="-3.81005">
        <ele>545.6</ele>
        <time>2022-12-31 08:25:59</time>
      </trkpt>
      <trkpt lat="40.09433" lon="-3.81004">
        <ele>545.6</ele>
        <time>2022-12-31 08:26:00</time>
      </trkpt>
      <trkpt lat="40.09429" lon="-3.81004">
        <ele>545.6</ele>
        <time>2022-12-31 08:26:01</time>
      </trkpt>
      <trkpt lat="40.09425" lon="-3.81003">
        <ele>545.6</ele>
        <time>2022-12-31 08:26:02</time>
      </trkpt>
      <trkpt lat="40.09421" lon="-3.81004">
        <ele>546</ele>
        <time>2022-12-31 08:26:03</time>
      </trkpt>
      <trkpt lat="40.09417" lon="-3.81005">
        <ele>546</ele>
        <time>2022-12-31 08:26:04</time>
      </trkpt>
      <trkpt lat="40.09414" lon="-3.81005">
        <ele>546</ele>
        <time>2022-12-31 08:26:05</time>
      </trkpt>
      <trkpt lat="40.0941" lon="-3.81006">
        <ele>546.2</ele>
        <time>2022-12-31 08:26:06</time>
      </trkpt>
      <trkpt lat="40.09406" lon="-3.81007">
        <ele>546.2</ele>
        <time>2022-12-31 08:26:07</time>
      </trkpt>
      <trkpt lat="40.09403" lon="-3.81008">
        <ele>546.4</ele>
        <time>2022-12-31 08:26:08</time>
      </trkpt>
      <trkpt lat="40.094" lon="-3.81009">
        <ele>546.4</ele>
        <time>2022-12-31 08:26:09</time>
      </trkpt>
      <trkpt lat="40.09396" lon="-3.81011">
        <ele>546.6</ele>
        <time>2022-12-31 08:26:10</time>
      </trkpt>
      <trkpt lat="40.09392" lon="-3.81012">
        <ele>546.8</ele>
        <time>2022-12-31 08:26:11</time>
      </trkpt>
      <trkpt lat="40.09389" lon="-3.81013">
        <ele>547.2</ele>
        <time>2022-12-31 08:26:12</time>
      </trkpt>
      <trkpt lat="40.09386" lon="-3.81014">
        <ele>547.4</ele>
        <time>2022-12-31 08:26:13</time>
      </trkpt>
      <trkpt lat="40.09382" lon="-3.81015">
        <ele>547.4</ele>
        <time>2022-12-31 08:26:14</time>
      </trkpt>
      <trkpt lat="40.09379" lon="-3.81015">
        <ele>547.8</ele>
        <time>2022-12-31 08:26:15</time>
      </trkpt>
      <trkpt lat="40.09375" lon="-3.81016">
        <ele>548</ele>
        <time>2022-12-31 08:26:16</time>
      </trkpt>
      <trkpt lat="40.09371" lon="-3.81017">
        <ele>548.2</ele>
        <time>2022-12-31 08:26:17</time>
      </trkpt>
      <trkpt lat="40.09368" lon="-3.81018">
        <ele>548.4</ele>
        <time>2022-12-31 08:26:18</time>
      </trkpt>
      <trkpt lat="40.09364" lon="-3.81019">
        <ele>548.6</ele>
        <time>2022-12-31 08:26:19</time>
      </trkpt>
      <trkpt lat="40.0936" lon="-3.81019">
        <ele>548.8</ele>
        <time>2022-12-31 08:26:20</time>
      </trkpt>
      <trkpt lat="40.09356" lon="-3.8102">
        <ele>548.8</ele>
        <time>2022-12-31 08:26:21</time>
      </trkpt>
      <trkpt lat="40.09353" lon="-3.81021">
        <ele>549.2</ele>
        <time>2022-12-31 08:26:22</time>
      </trkpt>
      <trkpt lat="40.09349" lon="-3.81022">
        <ele>549.6</ele>
        <time>2022-12-31 08:26:23</time>
      </trkpt>
      <trkpt lat="40.09345" lon="-3.81023">
        <ele>549.8</ele>
        <time>2022-12-31 08:26:24</time>
      </trkpt>
      <trkpt lat="40.09342" lon="-3.81023">
        <ele>550</ele>
        <time>2022-12-31 08:26:25</time>
      </trkpt>
      <trkpt lat="40.09339" lon="-3.81024">
        <ele>550.2</ele>
        <time>2022-12-31 08:26:26</time>
      </trkpt>
      <trkpt lat="40.09335" lon="-3.81025">
        <ele>550.6</ele>
        <time>2022-12-31 08:26:27</time>
      </trkpt>
      <trkpt lat="40.09332" lon="-3.81026">
        <ele>550.8</ele>
        <time>2022-12-31 08:26:28</time>
      </trkpt>
      <trkpt lat="40.09328" lon="-3.81026">
        <ele>551.2</ele>
        <time>2022-12-31 08:26:29</time>
      </trkpt>
      <trkpt lat="40.09325" lon="-3.81027">
        <ele>551.4</ele>
        <time>2022-12-31 08:26:30</time>
      </trkpt>
      <trkpt lat="40.09322" lon="-3.81028">
        <ele>551.6</ele>
        <time>2022-12-31 08:26:31</time>
      </trkpt>
      <trkpt lat="40.09318" lon="-3.81029">
        <ele>552.2</ele>
        <time>2022-12-31 08:26:32</time>
      </trkpt>
      <trkpt lat="40.09315" lon="-3.8103">
        <ele>552.2</ele>
        <time>2022-12-31 08:26:33</time>
      </trkpt>
      <trkpt lat="40.09312" lon="-3.8103">
        <ele>552.6</ele>
        <time>2022-12-31 08:26:34</time>
      </trkpt>
      <trkpt lat="40.09309" lon="-3.8103">
        <ele>552.8</ele>
        <time>2022-12-31 08:26:35</time>
      </trkpt>
      <trkpt lat="40.09305" lon="-3.8103">
        <ele>553.4</ele>
        <time>2022-12-31 08:26:36</time>
      </trkpt>
      <trkpt lat="40.09302" lon="-3.8103">
        <ele>553.6</ele>
        <time>2022-12-31 08:26:37</time>
      </trkpt>
      <trkpt lat="40.09299" lon="-3.81031">
        <ele>554</ele>
        <time>2022-12-31 08:26:38</time>
      </trkpt>
      <trkpt lat="40.09295" lon="-3.81032">
        <ele>554.4</ele>
        <time>2022-12-31 08:26:39</time>
      </trkpt>
      <trkpt lat="40.09292" lon="-3.81033">
        <ele>554.4</ele>
        <time>2022-12-31 08:26:40</time>
      </trkpt>
      <trkpt lat="40.09289" lon="-3.81034">
        <ele>554.8</ele>
        <time>2022-12-31 08:26:41</time>
      </trkpt>
      <trkpt lat="40.09286" lon="-3.81034">
        <ele>555</ele>
        <time>2022-12-31 08:26:42</time>
      </trkpt>
      <trkpt lat="40.09282" lon="-3.81035">
        <ele>555.2</ele>
        <time>2022-12-31 08:26:43</time>
      </trkpt>
      <trkpt lat="40.09278" lon="-3.81035">
        <ele>555.6</ele>
        <time>2022-12-31 08:26:44</time>
      </trkpt>
      <trkpt lat="40.09274" lon="-3.81036">
        <ele>556</ele>
        <time>2022-12-31 08:26:45</time>
      </trkpt>
      <trkpt lat="40.0927" lon="-3.81036">
        <ele>556.4</ele>
        <time>2022-12-31 08:26:46</time>
      </trkpt>
      <trkpt lat="40.09266" lon="-3.81036">
        <ele>556.4</ele>
        <time>2022-12-31 08:26:47</time>
      </trkpt>
      <trkpt lat="40.09262" lon="-3.81037">
        <ele>556.8</ele>
        <time>2022-12-31 08:26:48</time>
      </trkpt>
      <trkpt lat="40.09258" lon="-3.81037">
        <ele>557</ele>
        <time>2022-12-31 08:26:49</time>
      </trkpt>
      <trkpt lat="40.09254" lon="-3.81038">
        <ele>557.2</ele>
        <time>2022-12-31 08:26:50</time>
      </trkpt>
      <trkpt lat="40.0925" lon="-3.81038">
        <ele>557.2</ele>
        <time>2022-12-31 08:26:51</time>
      </trkpt>
      <trkpt lat="40.09246" lon="-3.81038">
        <ele>557.4</ele>
        <time>2022-12-31 08:26:52</time>
      </trkpt>
      <trkpt lat="40.09242" lon="-3.81038">
        <ele>557.6</ele>
        <time>2022-12-31 08:26:53</time>
      </trkpt>
      <trkpt lat="40.09239" lon="-3.81038">
        <ele>557.4</ele>
        <time>2022-12-31 08:26:54</time>
      </trkpt>
      <trkpt lat="40.09235" lon="-3.81039">
        <ele>557.4</ele>
        <time>2022-12-31 08:26:55</time>
      </trkpt>
      <trkpt lat="40.09231" lon="-3.81039">
        <ele>557.6</ele>
        <time>2022-12-31 08:26:56</time>
      </trkpt>
      <trkpt lat="40.09227" lon="-3.81039">
        <ele>557.6</ele>
        <time>2022-12-31 08:26:57</time>
      </trkpt>
      <trkpt lat="40.09223" lon="-3.8104">
        <ele>557.6</ele>
        <time>2022-12-31 08:26:58</time>
      </trkpt>
      <trkpt lat="40.09219" lon="-3.8104">
        <ele>557.6</ele>
        <time>2022-12-31 08:26:59</time>
      </trkpt>
      <trkpt lat="40.09215" lon="-3.81041">
        <ele>557.6</ele>
        <time>2022-12-31 08:27:00</time>
      </trkpt>
      <trkpt lat="40.0921" lon="-3.81041">
        <ele>557.8</ele>
        <time>2022-12-31 08:27:01</time>
      </trkpt>
      <trkpt lat="40.09206" lon="-3.81042">
        <ele>557.8</ele>
        <time>2022-12-31 08:27:02</time>
      </trkpt>
      <trkpt lat="40.09202" lon="-3.81042">
        <ele>558</ele>
        <time>2022-12-31 08:27:03</time>
      </trkpt>
      <trkpt lat="40.09198" lon="-3.81043">
        <ele>557.8</ele>
        <time>2022-12-31 08:27:04</time>
      </trkpt>
      <trkpt lat="40.09193" lon="-3.81043">
        <ele>557.8</ele>
        <time>2022-12-31 08:27:05</time>
      </trkpt>
      <trkpt lat="40.09188" lon="-3.81043">
        <ele>558</ele>
        <time>2022-12-31 08:27:06</time>
      </trkpt>
      <trkpt lat="40.09184" lon="-3.81043">
        <ele>558</ele>
        <time>2022-12-31 08:27:07</time>
      </trkpt>
      <trkpt lat="40.09179" lon="-3.81043">
        <ele>558</ele>
        <time>2022-12-31 08:27:08</time>
      </trkpt>
      <trkpt lat="40.09175" lon="-3.81044">
        <ele>558.2</ele>
        <time>2022-12-31 08:27:09</time>
      </trkpt>
      <trkpt lat="40.0917" lon="-3.81044">
        <ele>558.2</ele>
        <time>2022-12-31 08:27:10</time>
      </trkpt>
      <trkpt lat="40.09165" lon="-3.81044">
        <ele>558.2</ele>
        <time>2022-12-31 08:27:11</time>
      </trkpt>
      <trkpt lat="40.09161" lon="-3.81044">
        <ele>558.2</ele>
        <time>2022-12-31 08:27:12</time>
      </trkpt>
      <trkpt lat="40.09156" lon="-3.81045">
        <ele>558.2</ele>
        <time>2022-12-31 08:27:13</time>
      </trkpt>
      <trkpt lat="40.09152" lon="-3.81046">
        <ele>558.2</ele>
        <time>2022-12-31 08:27:14</time>
      </trkpt>
      <trkpt lat="40.09148" lon="-3.81046">
        <ele>558.2</ele>
        <time>2022-12-31 08:27:15</time>
      </trkpt>
      <trkpt lat="40.09143" lon="-3.81047">
        <ele>558.2</ele>
        <time>2022-12-31 08:27:16</time>
      </trkpt>
      <trkpt lat="40.09139" lon="-3.81048">
        <ele>558.2</ele>
        <time>2022-12-31 08:27:17</time>
      </trkpt>
      <trkpt lat="40.09134" lon="-3.81048">
        <ele>558.4</ele>
        <time>2022-12-31 08:27:18</time>
      </trkpt>
      <trkpt lat="40.0913" lon="-3.81049">
        <ele>558.4</ele>
        <time>2022-12-31 08:27:19</time>
      </trkpt>
      <trkpt lat="40.09125" lon="-3.8105">
        <ele>558.4</ele>
        <time>2022-12-31 08:27:20</time>
      </trkpt>
      <trkpt lat="40.09121" lon="-3.81051">
        <ele>558.4</ele>
        <time>2022-12-31 08:27:21</time>
      </trkpt>
      <trkpt lat="40.09116" lon="-3.81051">
        <ele>558.4</ele>
        <time>2022-12-31 08:27:22</time>
      </trkpt>
      <trkpt lat="40.09112" lon="-3.81052">
        <ele>558.4</ele>
        <time>2022-12-31 08:27:23</time>
      </trkpt>
      <trkpt lat="40.09107" lon="-3.81052">
        <ele>558.4</ele>
        <time>2022-12-31 08:27:24</time>
      </trkpt>
      <trkpt lat="40.09102" lon="-3.81052">
        <ele>558.6</ele>
        <time>2022-12-31 08:27:25</time>
      </trkpt>
      <trkpt lat="40.09098" lon="-3.81052">
        <ele>558.6</ele>
        <time>2022-12-31 08:27:26</time>
      </trkpt>
      <trkpt lat="40.09093" lon="-3.81053">
        <ele>558.8</ele>
        <time>2022-12-31 08:27:27</time>
      </trkpt>
      <trkpt lat="40.09089" lon="-3.81054">
        <ele>558.6</ele>
        <time>2022-12-31 08:27:28</time>
      </trkpt>
      <trkpt lat="40.09084" lon="-3.81056">
        <ele>559</ele>
        <time>2022-12-31 08:27:29</time>
      </trkpt>
      <trkpt lat="40.09079" lon="-3.81058">
        <ele>559</ele>
        <time>2022-12-31 08:27:30</time>
      </trkpt>
      <trkpt lat="40.09075" lon="-3.8106">
        <ele>559</ele>
        <time>2022-12-31 08:27:31</time>
      </trkpt>
      <trkpt lat="40.09071" lon="-3.81061">
        <ele>559.2</ele>
        <time>2022-12-31 08:27:32</time>
      </trkpt>
      <trkpt lat="40.09068" lon="-3.81062">
        <ele>559.4</ele>
        <time>2022-12-31 08:27:33</time>
      </trkpt>
      <trkpt lat="40.09065" lon="-3.81063">
        <ele>559.6</ele>
        <time>2022-12-31 08:27:34</time>
      </trkpt>
      <trkpt lat="40.09062" lon="-3.81064">
        <ele>559.6</ele>
        <time>2022-12-31 08:27:35</time>
      </trkpt>
      <trkpt lat="40.09059" lon="-3.81066">
        <ele>559.6</ele>
        <time>2022-12-31 08:27:36</time>
      </trkpt>
      <trkpt lat="40.09056" lon="-3.81068">
        <ele>559.8</ele>
        <time>2022-12-31 08:27:37</time>
      </trkpt>
      <trkpt lat="40.09053" lon="-3.81069">
        <ele>559.8</ele>
        <time>2022-12-31 08:27:38</time>
      </trkpt>
      <trkpt lat="40.0905" lon="-3.81071">
        <ele>559.8</ele>
        <time>2022-12-31 08:27:39</time>
      </trkpt>
      <trkpt lat="40.09046" lon="-3.81074">
        <ele>560.2</ele>
        <time>2022-12-31 08:27:40</time>
      </trkpt>
      <trkpt lat="40.09043" lon="-3.81076">
        <ele>560.2</ele>
        <time>2022-12-31 08:27:41</time>
      </trkpt>
      <trkpt lat="40.09039" lon="-3.81079">
        <ele>560.4</ele>
        <time>2022-12-31 08:27:42</time>
      </trkpt>
      <trkpt lat="40.09035" lon="-3.81082">
        <ele>560.4</ele>
        <time>2022-12-31 08:27:43</time>
      </trkpt>
      <trkpt lat="40.0903" lon="-3.81084">
        <ele>560.4</ele>
        <time>2022-12-31 08:27:44</time>
      </trkpt>
      <trkpt lat="40.09026" lon="-3.81087">
        <ele>560.6</ele>
        <time>2022-12-31 08:27:45</time>
      </trkpt>
      <trkpt lat="40.09021" lon="-3.81091">
        <ele>560.6</ele>
        <time>2022-12-31 08:27:46</time>
      </trkpt>
      <trkpt lat="40.09017" lon="-3.81095">
        <ele>560.6</ele>
        <time>2022-12-31 08:27:47</time>
      </trkpt>
      <trkpt lat="40.09013" lon="-3.81099">
        <ele>560.6</ele>
        <time>2022-12-31 08:27:48</time>
      </trkpt>
      <trkpt lat="40.09008" lon="-3.81103">
        <ele>560.6</ele>
        <time>2022-12-31 08:27:49</time>
      </trkpt>
      <trkpt lat="40.09004" lon="-3.81107">
        <ele>560.6</ele>
        <time>2022-12-31 08:27:50</time>
      </trkpt>
      <trkpt lat="40.08999" lon="-3.8111">
        <ele>560.4</ele>
        <time>2022-12-31 08:27:51</time>
      </trkpt>
      <trkpt lat="40.08993" lon="-3.81112">
        <ele>560.4</ele>
        <time>2022-12-31 08:27:52</time>
      </trkpt>
      <trkpt lat="40.08988" lon="-3.81114">
        <ele>560.4</ele>
        <time>2022-12-31 08:27:53</time>
      </trkpt>
      <trkpt lat="40.08982" lon="-3.81116">
        <ele>560.4</ele>
        <time>2022-12-31 08:27:54</time>
      </trkpt>
      <trkpt lat="40.08976" lon="-3.81118">
        <ele>560.4</ele>
        <time>2022-12-31 08:27:55</time>
      </trkpt>
      <trkpt lat="40.0897" lon="-3.81119">
        <ele>560.2</ele>
        <time>2022-12-31 08:27:56</time>
      </trkpt>
      <trkpt lat="40.08964" lon="-3.81121">
        <ele>560.2</ele>
        <time>2022-12-31 08:27:57</time>
      </trkpt>
      <trkpt lat="40.08958" lon="-3.81122">
        <ele>560.2</ele>
        <time>2022-12-31 08:27:58</time>
      </trkpt>
      <trkpt lat="40.08951" lon="-3.81123">
        <ele>560.2</ele>
        <time>2022-12-31 08:27:59</time>
      </trkpt>
      <trkpt lat="40.08944" lon="-3.81124">
        <ele>560</ele>
        <time>2022-12-31 08:28:00</time>
      </trkpt>
      <trkpt lat="40.08937" lon="-3.81125">
        <ele>560.2</ele>
        <time>2022-12-31 08:28:01</time>
      </trkpt>
      <trkpt lat="40.08931" lon="-3.81127">
        <ele>560</ele>
        <time>2022-12-31 08:28:02</time>
      </trkpt>
      <trkpt lat="40.08924" lon="-3.81128">
        <ele>560</ele>
        <time>2022-12-31 08:28:03</time>
      </trkpt>
      <trkpt lat="40.08917" lon="-3.8113">
        <ele>560</ele>
        <time>2022-12-31 08:28:04</time>
      </trkpt>
      <trkpt lat="40.0891" lon="-3.81132">
        <ele>560</ele>
        <time>2022-12-31 08:28:05</time>
      </trkpt>
      <trkpt lat="40.08904" lon="-3.81135">
        <ele>559.8</ele>
        <time>2022-12-31 08:28:06</time>
      </trkpt>
      <trkpt lat="40.08897" lon="-3.81137">
        <ele>559.8</ele>
        <time>2022-12-31 08:28:07</time>
      </trkpt>
      <trkpt lat="40.08891" lon="-3.81139">
        <ele>559.4</ele>
        <time>2022-12-31 08:28:08</time>
      </trkpt>
      <trkpt lat="40.08884" lon="-3.8114">
        <ele>559.2</ele>
        <time>2022-12-31 08:28:09</time>
      </trkpt>
      <trkpt lat="40.08877" lon="-3.81141">
        <ele>559</ele>
        <time>2022-12-31 08:28:10</time>
      </trkpt>
      <trkpt lat="40.08871" lon="-3.81141">
        <ele>558.8</ele>
        <time>2022-12-31 08:28:11</time>
      </trkpt>
      <trkpt lat="40.08864" lon="-3.81143">
        <ele>559</ele>
        <time>2022-12-31 08:28:12</time>
      </trkpt>
      <trkpt lat="40.08858" lon="-3.81144">
        <ele>559</ele>
        <time>2022-12-31 08:28:13</time>
      </trkpt>
      <trkpt lat="40.08852" lon="-3.81146">
        <ele>558.8</ele>
        <time>2022-12-31 08:28:14</time>
      </trkpt>
      <trkpt lat="40.08845" lon="-3.81148">
        <ele>558.8</ele>
        <time>2022-12-31 08:28:15</time>
      </trkpt>
      <trkpt lat="40.08839" lon="-3.8115">
        <ele>558.6</ele>
        <time>2022-12-31 08:28:16</time>
      </trkpt>
      <trkpt lat="40.08833" lon="-3.81151">
        <ele>558.6</ele>
        <time>2022-12-31 08:28:17</time>
      </trkpt>
      <trkpt lat="40.08827" lon="-3.81153">
        <ele>558.4</ele>
        <time>2022-12-31 08:28:18</time>
      </trkpt>
      <trkpt lat="40.08821" lon="-3.81156">
        <ele>558.4</ele>
        <time>2022-12-31 08:28:19</time>
      </trkpt>
      <trkpt lat="40.08815" lon="-3.81158">
        <ele>558.4</ele>
        <time>2022-12-31 08:28:20</time>
      </trkpt>
      <trkpt lat="40.08809" lon="-3.8116">
        <ele>558.6</ele>
        <time>2022-12-31 08:28:21</time>
      </trkpt>
      <trkpt lat="40.08802" lon="-3.81162">
        <ele>558.6</ele>
        <time>2022-12-31 08:28:22</time>
      </trkpt>
      <trkpt lat="40.08796" lon="-3.81164">
        <ele>558.4</ele>
        <time>2022-12-31 08:28:23</time>
      </trkpt>
      <trkpt lat="40.08789" lon="-3.81165">
        <ele>558.4</ele>
        <time>2022-12-31 08:28:24</time>
      </trkpt>
      <trkpt lat="40.08782" lon="-3.81166">
        <ele>558.2</ele>
        <time>2022-12-31 08:28:25</time>
      </trkpt>
      <trkpt lat="40.08776" lon="-3.81168">
        <ele>558.2</ele>
        <time>2022-12-31 08:28:26</time>
      </trkpt>
      <trkpt lat="40.08769" lon="-3.81169">
        <ele>558.2</ele>
        <time>2022-12-31 08:28:27</time>
      </trkpt>
      <trkpt lat="40.08762" lon="-3.8117">
        <ele>558.2</ele>
        <time>2022-12-31 08:28:28</time>
      </trkpt>
      <trkpt lat="40.08755" lon="-3.81171">
        <ele>558.2</ele>
        <time>2022-12-31 08:28:29</time>
      </trkpt>
      <trkpt lat="40.08748" lon="-3.81171">
        <ele>558</ele>
        <time>2022-12-31 08:28:30</time>
      </trkpt>
      <trkpt lat="40.08741" lon="-3.81171">
        <ele>558.2</ele>
        <time>2022-12-31 08:28:31</time>
      </trkpt>
      <trkpt lat="40.08734" lon="-3.81171">
        <ele>558</ele>
        <time>2022-12-31 08:28:32</time>
      </trkpt>
      <trkpt lat="40.08728" lon="-3.8117">
        <ele>558</ele>
        <time>2022-12-31 08:28:33</time>
      </trkpt>
      <trkpt lat="40.08721" lon="-3.8117">
        <ele>558.2</ele>
        <time>2022-12-31 08:28:34</time>
      </trkpt>
      <trkpt lat="40.08715" lon="-3.8117">
        <ele>558</ele>
        <time>2022-12-31 08:28:35</time>
      </trkpt>
      <trkpt lat="40.08708" lon="-3.81171">
        <ele>557.8</ele>
        <time>2022-12-31 08:28:36</time>
      </trkpt>
      <trkpt lat="40.08702" lon="-3.81172">
        <ele>558</ele>
        <time>2022-12-31 08:28:37</time>
      </trkpt>
      <trkpt lat="40.08696" lon="-3.81173">
        <ele>557.8</ele>
        <time>2022-12-31 08:28:38</time>
      </trkpt>
      <trkpt lat="40.08689" lon="-3.81174">
        <ele>557.8</ele>
        <time>2022-12-31 08:28:39</time>
      </trkpt>
      <trkpt lat="40.08682" lon="-3.81175">
        <ele>557.8</ele>
        <time>2022-12-31 08:28:40</time>
      </trkpt>
      <trkpt lat="40.08676" lon="-3.81176">
        <ele>557.8</ele>
        <time>2022-12-31 08:28:41</time>
      </trkpt>
      <trkpt lat="40.08669" lon="-3.81177">
        <ele>557.6</ele>
        <time>2022-12-31 08:28:42</time>
      </trkpt>
      <trkpt lat="40.08663" lon="-3.81178">
        <ele>557.6</ele>
        <time>2022-12-31 08:28:43</time>
      </trkpt>
      <trkpt lat="40.08656" lon="-3.81179">
        <ele>557.6</ele>
        <time>2022-12-31 08:28:44</time>
      </trkpt>
      <trkpt lat="40.0865" lon="-3.8118">
        <ele>557.4</ele>
        <time>2022-12-31 08:28:45</time>
      </trkpt>
      <trkpt lat="40.08643" lon="-3.81181">
        <ele>557.6</ele>
        <time>2022-12-31 08:28:46</time>
      </trkpt>
      <trkpt lat="40.08637" lon="-3.81182">
        <ele>557.6</ele>
        <time>2022-12-31 08:28:47</time>
      </trkpt>
      <trkpt lat="40.0863" lon="-3.81183">
        <ele>557.4</ele>
        <time>2022-12-31 08:28:48</time>
      </trkpt>
      <trkpt lat="40.08624" lon="-3.81185">
        <ele>557.6</ele>
        <time>2022-12-31 08:28:49</time>
      </trkpt>
      <trkpt lat="40.08617" lon="-3.81186">
        <ele>557.6</ele>
        <time>2022-12-31 08:28:50</time>
      </trkpt>
      <trkpt lat="40.0861" lon="-3.81187">
        <ele>557.4</ele>
        <time>2022-12-31 08:28:51</time>
      </trkpt>
      <trkpt lat="40.08604" lon="-3.81188">
        <ele>557.4</ele>
        <time>2022-12-31 08:28:52</time>
      </trkpt>
      <trkpt lat="40.08598" lon="-3.81188">
        <ele>557.4</ele>
        <time>2022-12-31 08:28:53</time>
      </trkpt>
      <trkpt lat="40.08591" lon="-3.81188">
        <ele>557.4</ele>
        <time>2022-12-31 08:28:54</time>
      </trkpt>
      <trkpt lat="40.08585" lon="-3.81187">
        <ele>557.4</ele>
        <time>2022-12-31 08:28:55</time>
      </trkpt>
      <trkpt lat="40.08579" lon="-3.81185">
        <ele>557.4</ele>
        <time>2022-12-31 08:28:56</time>
      </trkpt>
      <trkpt lat="40.08572" lon="-3.81184">
        <ele>557.4</ele>
        <time>2022-12-31 08:28:57</time>
      </trkpt>
      <trkpt lat="40.08566" lon="-3.81182">
        <ele>557.4</ele>
        <time>2022-12-31 08:28:58</time>
      </trkpt>
      <trkpt lat="40.0856" lon="-3.8118">
        <ele>557.4</ele>
        <time>2022-12-31 08:28:59</time>
      </trkpt>
      <trkpt lat="40.08554" lon="-3.81179">
        <ele>557.4</ele>
        <time>2022-12-31 08:29:00</time>
      </trkpt>
      <trkpt lat="40.08547" lon="-3.81178">
        <ele>557.4</ele>
        <time>2022-12-31 08:29:01</time>
      </trkpt>
      <trkpt lat="40.08541" lon="-3.81178">
        <ele>557.4</ele>
        <time>2022-12-31 08:29:02</time>
      </trkpt>
      <trkpt lat="40.08534" lon="-3.81178">
        <ele>557.4</ele>
        <time>2022-12-31 08:29:03</time>
      </trkpt>
      <trkpt lat="40.08528" lon="-3.81178">
        <ele>557.4</ele>
        <time>2022-12-31 08:29:04</time>
      </trkpt>
      <trkpt lat="40.08521" lon="-3.81178">
        <ele>557.4</ele>
        <time>2022-12-31 08:29:05</time>
      </trkpt>
      <trkpt lat="40.08514" lon="-3.81178">
        <ele>557.2</ele>
        <time>2022-12-31 08:29:06</time>
      </trkpt>
      <trkpt lat="40.08508" lon="-3.81179">
        <ele>557.4</ele>
        <time>2022-12-31 08:29:07</time>
      </trkpt>
      <trkpt lat="40.08501" lon="-3.81179">
        <ele>557.4</ele>
        <time>2022-12-31 08:29:08</time>
      </trkpt>
      <trkpt lat="40.08494" lon="-3.81179">
        <ele>557.2</ele>
        <time>2022-12-31 08:29:09</time>
      </trkpt>
      <trkpt lat="40.08486" lon="-3.81179">
        <ele>557.2</ele>
        <time>2022-12-31 08:29:10</time>
      </trkpt>
      <trkpt lat="40.08479" lon="-3.81178">
        <ele>557.2</ele>
        <time>2022-12-31 08:29:11</time>
      </trkpt>
      <trkpt lat="40.08472" lon="-3.81177">
        <ele>557.2</ele>
        <time>2022-12-31 08:29:12</time>
      </trkpt>
      <trkpt lat="40.08465" lon="-3.81175">
        <ele>557.2</ele>
        <time>2022-12-31 08:29:13</time>
      </trkpt>
      <trkpt lat="40.08457" lon="-3.81174">
        <ele>557</ele>
        <time>2022-12-31 08:29:14</time>
      </trkpt>
      <trkpt lat="40.0845" lon="-3.81173">
        <ele>557</ele>
        <time>2022-12-31 08:29:15</time>
      </trkpt>
      <trkpt lat="40.08443" lon="-3.81172">
        <ele>556.8</ele>
        <time>2022-12-31 08:29:16</time>
      </trkpt>
      <trkpt lat="40.08436" lon="-3.81171">
        <ele>556.8</ele>
        <time>2022-12-31 08:29:17</time>
      </trkpt>
      <trkpt lat="40.08429" lon="-3.8117">
        <ele>557</ele>
        <time>2022-12-31 08:29:18</time>
      </trkpt>
      <trkpt lat="40.08423" lon="-3.8117">
        <ele>556.6</ele>
        <time>2022-12-31 08:29:19</time>
      </trkpt>
      <trkpt lat="40.08415" lon="-3.8117">
        <ele>556.2</ele>
        <time>2022-12-31 08:29:20</time>
      </trkpt>
      <trkpt lat="40.08408" lon="-3.81171">
        <ele>556</ele>
        <time>2022-12-31 08:29:21</time>
      </trkpt>
      <trkpt lat="40.08401" lon="-3.81172">
        <ele>556</ele>
        <time>2022-12-31 08:29:22</time>
      </trkpt>
      <trkpt lat="40.08394" lon="-3.81173">
        <ele>555.8</ele>
        <time>2022-12-31 08:29:23</time>
      </trkpt>
      <trkpt lat="40.08387" lon="-3.81174">
        <ele>555.8</ele>
        <time>2022-12-31 08:29:24</time>
      </trkpt>
      <trkpt lat="40.0838" lon="-3.81175">
        <ele>555.8</ele>
        <time>2022-12-31 08:29:25</time>
      </trkpt>
      <trkpt lat="40.08373" lon="-3.81175">
        <ele>555.6</ele>
        <time>2022-12-31 08:29:26</time>
      </trkpt>
      <trkpt lat="40.08366" lon="-3.81175">
        <ele>555.6</ele>
        <time>2022-12-31 08:29:27</time>
      </trkpt>
      <trkpt lat="40.08359" lon="-3.81175">
        <ele>555.4</ele>
        <time>2022-12-31 08:29:28</time>
      </trkpt>
      <trkpt lat="40.08352" lon="-3.81174">
        <ele>555.2</ele>
        <time>2022-12-31 08:29:29</time>
      </trkpt>
      <trkpt lat="40.08346" lon="-3.81173">
        <ele>555.2</ele>
        <time>2022-12-31 08:29:30</time>
      </trkpt>
      <trkpt lat="40.08339" lon="-3.81172">
        <ele>555.2</ele>
        <time>2022-12-31 08:29:31</time>
      </trkpt>
      <trkpt lat="40.08333" lon="-3.81172">
        <ele>555</ele>
        <time>2022-12-31 08:29:32</time>
      </trkpt>
      <trkpt lat="40.08326" lon="-3.81171">
        <ele>555</ele>
        <time>2022-12-31 08:29:33</time>
      </trkpt>
      <trkpt lat="40.0832" lon="-3.81171">
        <ele>555</ele>
        <time>2022-12-31 08:29:34</time>
      </trkpt>
      <trkpt lat="40.08314" lon="-3.81171">
        <ele>554.8</ele>
        <time>2022-12-31 08:29:35</time>
      </trkpt>
      <trkpt lat="40.08307" lon="-3.81171">
        <ele>555</ele>
        <time>2022-12-31 08:29:36</time>
      </trkpt>
      <trkpt lat="40.08301" lon="-3.81171">
        <ele>555</ele>
        <time>2022-12-31 08:29:37</time>
      </trkpt>
      <trkpt lat="40.08295" lon="-3.81172">
        <ele>555</ele>
        <time>2022-12-31 08:29:38</time>
      </trkpt>
      <trkpt lat="40.08289" lon="-3.81173">
        <ele>555</ele>
        <time>2022-12-31 08:29:39</time>
      </trkpt>
      <trkpt lat="40.08283" lon="-3.81173">
        <ele>555</ele>
        <time>2022-12-31 08:29:40</time>
      </trkpt>
      <trkpt lat="40.08277" lon="-3.81174">
        <ele>555</ele>
        <time>2022-12-31 08:29:41</time>
      </trkpt>
      <trkpt lat="40.08271" lon="-3.81176">
        <ele>555</ele>
        <time>2022-12-31 08:29:42</time>
      </trkpt>
      <trkpt lat="40.08264" lon="-3.81177">
        <ele>555.2</ele>
        <time>2022-12-31 08:29:43</time>
      </trkpt>
      <trkpt lat="40.08258" lon="-3.81178">
        <ele>555.2</ele>
        <time>2022-12-31 08:29:44</time>
      </trkpt>
      <trkpt lat="40.08252" lon="-3.81179">
        <ele>555.4</ele>
        <time>2022-12-31 08:29:45</time>
      </trkpt>
      <trkpt lat="40.08246" lon="-3.8118">
        <ele>555.4</ele>
        <time>2022-12-31 08:29:46</time>
      </trkpt>
      <trkpt lat="40.0824" lon="-3.81182">
        <ele>555.6</ele>
        <time>2022-12-31 08:29:47</time>
      </trkpt>
      <trkpt lat="40.08234" lon="-3.81184">
        <ele>555.6</ele>
        <time>2022-12-31 08:29:48</time>
      </trkpt>
      <trkpt lat="40.08229" lon="-3.81186">
        <ele>555.6</ele>
        <time>2022-12-31 08:29:49</time>
      </trkpt>
      <trkpt lat="40.08223" lon="-3.81188">
        <ele>555.6</ele>
        <time>2022-12-31 08:29:50</time>
      </trkpt>
      <trkpt lat="40.08217" lon="-3.8119">
        <ele>555.6</ele>
        <time>2022-12-31 08:29:51</time>
      </trkpt>
      <trkpt lat="40.08211" lon="-3.81193">
        <ele>555.8</ele>
        <time>2022-12-31 08:29:52</time>
      </trkpt>
      <trkpt lat="40.08205" lon="-3.81195">
        <ele>555.8</ele>
        <time>2022-12-31 08:29:53</time>
      </trkpt>
      <trkpt lat="40.08199" lon="-3.81198">
        <ele>555.8</ele>
        <time>2022-12-31 08:29:54</time>
      </trkpt>
      <trkpt lat="40.08193" lon="-3.812">
        <ele>555.8</ele>
        <time>2022-12-31 08:29:55</time>
      </trkpt>
      <trkpt lat="40.08188" lon="-3.81203">
        <ele>555.8</ele>
        <time>2022-12-31 08:29:56</time>
      </trkpt>
      <trkpt lat="40.08182" lon="-3.81206">
        <ele>556</ele>
        <time>2022-12-31 08:29:57</time>
      </trkpt>
      <trkpt lat="40.08176" lon="-3.8121">
        <ele>556</ele>
        <time>2022-12-31 08:29:58</time>
      </trkpt>
      <trkpt lat="40.08171" lon="-3.81213">
        <ele>556.2</ele>
        <time>2022-12-31 08:29:59</time>
      </trkpt>
      <trkpt lat="40.08165" lon="-3.81216">
        <ele>556.2</ele>
        <time>2022-12-31 08:30:00</time>
      </trkpt>
      <trkpt lat="40.0816" lon="-3.81218">
        <ele>556.2</ele>
        <time>2022-12-31 08:30:01</time>
      </trkpt>
      <trkpt lat="40.08154" lon="-3.81221">
        <ele>556.4</ele>
        <time>2022-12-31 08:30:02</time>
      </trkpt>
      <trkpt lat="40.08149" lon="-3.81224">
        <ele>556.4</ele>
        <time>2022-12-31 08:30:03</time>
      </trkpt>
      <trkpt lat="40.08143" lon="-3.81227">
        <ele>556.4</ele>
        <time>2022-12-31 08:30:04</time>
      </trkpt>
      <trkpt lat="40.08138" lon="-3.8123">
        <ele>556.4</ele>
        <time>2022-12-31 08:30:05</time>
      </trkpt>
      <trkpt lat="40.08132" lon="-3.81233">
        <ele>556.6</ele>
        <time>2022-12-31 08:30:06</time>
      </trkpt>
      <trkpt lat="40.08127" lon="-3.81235">
        <ele>556.8</ele>
        <time>2022-12-31 08:30:07</time>
      </trkpt>
      <trkpt lat="40.08122" lon="-3.81238">
        <ele>557</ele>
        <time>2022-12-31 08:30:08</time>
      </trkpt>
      <trkpt lat="40.08116" lon="-3.8124">
        <ele>557.2</ele>
        <time>2022-12-31 08:30:09</time>
      </trkpt>
      <trkpt lat="40.08111" lon="-3.81243">
        <ele>557.4</ele>
        <time>2022-12-31 08:30:10</time>
      </trkpt>
      <trkpt lat="40.08106" lon="-3.81246">
        <ele>557.6</ele>
        <time>2022-12-31 08:30:11</time>
      </trkpt>
      <trkpt lat="40.081" lon="-3.81248">
        <ele>557.8</ele>
        <time>2022-12-31 08:30:12</time>
      </trkpt>
      <trkpt lat="40.08095" lon="-3.81249">
        <ele>557.8</ele>
        <time>2022-12-31 08:30:13</time>
      </trkpt>
      <trkpt lat="40.08089" lon="-3.81251">
        <ele>557.8</ele>
        <time>2022-12-31 08:30:14</time>
      </trkpt>
      <trkpt lat="40.08084" lon="-3.81253">
        <ele>558</ele>
        <time>2022-12-31 08:30:15</time>
      </trkpt>
      <trkpt lat="40.08078" lon="-3.81255">
        <ele>558.2</ele>
        <time>2022-12-31 08:30:16</time>
      </trkpt>
      <trkpt lat="40.08072" lon="-3.81256">
        <ele>558.2</ele>
        <time>2022-12-31 08:30:17</time>
      </trkpt>
      <trkpt lat="40.08067" lon="-3.81257">
        <ele>558.2</ele>
        <time>2022-12-31 08:30:18</time>
      </trkpt>
      <trkpt lat="40.08061" lon="-3.81258">
        <ele>558.4</ele>
        <time>2022-12-31 08:30:19</time>
      </trkpt>
      <trkpt lat="40.08055" lon="-3.8126">
        <ele>558.4</ele>
        <time>2022-12-31 08:30:20</time>
      </trkpt>
      <trkpt lat="40.08049" lon="-3.81261">
        <ele>558.4</ele>
        <time>2022-12-31 08:30:21</time>
      </trkpt>
      <trkpt lat="40.08043" lon="-3.81263">
        <ele>558.6</ele>
        <time>2022-12-31 08:30:22</time>
      </trkpt>
      <trkpt lat="40.08037" lon="-3.81264">
        <ele>558.4</ele>
        <time>2022-12-31 08:30:23</time>
      </trkpt>
      <trkpt lat="40.08031" lon="-3.81266">
        <ele>558.6</ele>
        <time>2022-12-31 08:30:24</time>
      </trkpt>
      <trkpt lat="40.08025" lon="-3.81268">
        <ele>558.4</ele>
        <time>2022-12-31 08:30:25</time>
      </trkpt>
      <trkpt lat="40.08019" lon="-3.8127">
        <ele>558.4</ele>
        <time>2022-12-31 08:30:26</time>
      </trkpt>
      <trkpt lat="40.08012" lon="-3.81272">
        <ele>558.6</ele>
        <time>2022-12-31 08:30:27</time>
      </trkpt>
      <trkpt lat="40.08006" lon="-3.81274">
        <ele>558.6</ele>
        <time>2022-12-31 08:30:28</time>
      </trkpt>
      <trkpt lat="40.08" lon="-3.81275">
        <ele>558.4</ele>
        <time>2022-12-31 08:30:29</time>
      </trkpt>
      <trkpt lat="40.07993" lon="-3.81277">
        <ele>558.6</ele>
        <time>2022-12-31 08:30:30</time>
      </trkpt>
      <trkpt lat="40.07987" lon="-3.81279">
        <ele>558.4</ele>
        <time>2022-12-31 08:30:31</time>
      </trkpt>
      <trkpt lat="40.0798" lon="-3.81281">
        <ele>558.2</ele>
        <time>2022-12-31 08:30:32</time>
      </trkpt>
      <trkpt lat="40.07974" lon="-3.81282">
        <ele>558.2</ele>
        <time>2022-12-31 08:30:33</time>
      </trkpt>
      <trkpt lat="40.07967" lon="-3.81284">
        <ele>558</ele>
        <time>2022-12-31 08:30:34</time>
      </trkpt>
      <trkpt lat="40.0796" lon="-3.81285">
        <ele>558</ele>
        <time>2022-12-31 08:30:35</time>
      </trkpt>
      <trkpt lat="40.07954" lon="-3.81288">
        <ele>558</ele>
        <time>2022-12-31 08:30:36</time>
      </trkpt>
      <trkpt lat="40.07947" lon="-3.8129">
        <ele>557.8</ele>
        <time>2022-12-31 08:30:37</time>
      </trkpt>
      <trkpt lat="40.07941" lon="-3.81292">
        <ele>557.8</ele>
        <time>2022-12-31 08:30:38</time>
      </trkpt>
      <trkpt lat="40.07934" lon="-3.81295">
        <ele>557.6</ele>
        <time>2022-12-31 08:30:39</time>
      </trkpt>
      <trkpt lat="40.07927" lon="-3.81297">
        <ele>557.4</ele>
        <time>2022-12-31 08:30:40</time>
      </trkpt>
      <trkpt lat="40.0792" lon="-3.813">
        <ele>557.4</ele>
        <time>2022-12-31 08:30:41</time>
      </trkpt>
      <trkpt lat="40.07913" lon="-3.81302">
        <ele>557.2</ele>
        <time>2022-12-31 08:30:42</time>
      </trkpt>
      <trkpt lat="40.07906" lon="-3.81304">
        <ele>557.2</ele>
        <time>2022-12-31 08:30:43</time>
      </trkpt>
      <trkpt lat="40.07899" lon="-3.81307">
        <ele>557</ele>
        <time>2022-12-31 08:30:44</time>
      </trkpt>
      <trkpt lat="40.07892" lon="-3.81309">
        <ele>557</ele>
        <time>2022-12-31 08:30:45</time>
      </trkpt>
      <trkpt lat="40.07885" lon="-3.81311">
        <ele>557</ele>
        <time>2022-12-31 08:30:46</time>
      </trkpt>
      <trkpt lat="40.07878" lon="-3.81313">
        <ele>556.8</ele>
        <time>2022-12-31 08:30:47</time>
      </trkpt>
      <trkpt lat="40.07871" lon="-3.81316">
        <ele>556.6</ele>
        <time>2022-12-31 08:30:48</time>
      </trkpt>
      <trkpt lat="40.07864" lon="-3.81318">
        <ele>556.4</ele>
        <time>2022-12-31 08:30:49</time>
      </trkpt>
      <trkpt lat="40.07857" lon="-3.8132">
        <ele>556.2</ele>
        <time>2022-12-31 08:30:50</time>
      </trkpt>
      <trkpt lat="40.0785" lon="-3.81322">
        <ele>555.8</ele>
        <time>2022-12-31 08:30:51</time>
      </trkpt>
      <trkpt lat="40.07843" lon="-3.81325">
        <ele>555.8</ele>
        <time>2022-12-31 08:30:52</time>
      </trkpt>
      <trkpt lat="40.07836" lon="-3.81327">
        <ele>555.8</ele>
        <time>2022-12-31 08:30:53</time>
      </trkpt>
      <trkpt lat="40.07829" lon="-3.81329">
        <ele>555.4</ele>
        <time>2022-12-31 08:30:54</time>
      </trkpt>
      <trkpt lat="40.07822" lon="-3.81331">
        <ele>555.4</ele>
        <time>2022-12-31 08:30:55</time>
      </trkpt>
      <trkpt lat="40.07815" lon="-3.81333">
        <ele>555.4</ele>
        <time>2022-12-31 08:30:56</time>
      </trkpt>
      <trkpt lat="40.07808" lon="-3.81335">
        <ele>555.2</ele>
        <time>2022-12-31 08:30:57</time>
      </trkpt>
      <trkpt lat="40.07801" lon="-3.81337">
        <ele>555.2</ele>
        <time>2022-12-31 08:30:58</time>
      </trkpt>
      <trkpt lat="40.07794" lon="-3.8134">
        <ele>555.2</ele>
        <time>2022-12-31 08:30:59</time>
      </trkpt>
      <trkpt lat="40.07787" lon="-3.81342">
        <ele>555</ele>
        <time>2022-12-31 08:31:00</time>
      </trkpt>
      <trkpt lat="40.0778" lon="-3.81344">
        <ele>554.8</ele>
        <time>2022-12-31 08:31:01</time>
      </trkpt>
      <trkpt lat="40.07773" lon="-3.81346">
        <ele>554.8</ele>
        <time>2022-12-31 08:31:02</time>
      </trkpt>
      <trkpt lat="40.07766" lon="-3.81348">
        <ele>554.8</ele>
        <time>2022-12-31 08:31:03</time>
      </trkpt>
      <trkpt lat="40.07758" lon="-3.8135">
        <ele>554.6</ele>
        <time>2022-12-31 08:31:04</time>
      </trkpt>
      <trkpt lat="40.07751" lon="-3.81352">
        <ele>554.6</ele>
        <time>2022-12-31 08:31:05</time>
      </trkpt>
      <trkpt lat="40.07744" lon="-3.81354">
        <ele>554.4</ele>
        <time>2022-12-31 08:31:06</time>
      </trkpt>
      <trkpt lat="40.07736" lon="-3.81356">
        <ele>554.4</ele>
        <time>2022-12-31 08:31:07</time>
      </trkpt>
      <trkpt lat="40.07729" lon="-3.81358">
        <ele>554.2</ele>
        <time>2022-12-31 08:31:08</time>
      </trkpt>
      <trkpt lat="40.07721" lon="-3.8136">
        <ele>554.2</ele>
        <time>2022-12-31 08:31:09</time>
      </trkpt>
      <trkpt lat="40.07714" lon="-3.81363">
        <ele>554</ele>
        <time>2022-12-31 08:31:10</time>
      </trkpt>
      <trkpt lat="40.07706" lon="-3.81365">
        <ele>553.8</ele>
        <time>2022-12-31 08:31:11</time>
      </trkpt>
      <trkpt lat="40.07699" lon="-3.81367">
        <ele>553.6</ele>
        <time>2022-12-31 08:31:12</time>
      </trkpt>
      <trkpt lat="40.07691" lon="-3.81369">
        <ele>553.4</ele>
        <time>2022-12-31 08:31:13</time>
      </trkpt>
      <trkpt lat="40.07684" lon="-3.81371">
        <ele>553.4</ele>
        <time>2022-12-31 08:31:14</time>
      </trkpt>
      <trkpt lat="40.07677" lon="-3.81374">
        <ele>553.2</ele>
        <time>2022-12-31 08:31:15</time>
      </trkpt>
      <trkpt lat="40.07669" lon="-3.81377">
        <ele>553.2</ele>
        <time>2022-12-31 08:31:16</time>
      </trkpt>
      <trkpt lat="40.07662" lon="-3.81379">
        <ele>553</ele>
        <time>2022-12-31 08:31:17</time>
      </trkpt>
      <trkpt lat="40.07654" lon="-3.81382">
        <ele>553</ele>
        <time>2022-12-31 08:31:18</time>
      </trkpt>
      <trkpt lat="40.07647" lon="-3.81384">
        <ele>552.6</ele>
        <time>2022-12-31 08:31:19</time>
      </trkpt>
      <trkpt lat="40.07639" lon="-3.81387">
        <ele>552.6</ele>
        <time>2022-12-31 08:31:20</time>
      </trkpt>
      <trkpt lat="40.07632" lon="-3.81389">
        <ele>552.4</ele>
        <time>2022-12-31 08:31:21</time>
      </trkpt>
      <trkpt lat="40.07625" lon="-3.81391">
        <ele>552.2</ele>
        <time>2022-12-31 08:31:22</time>
      </trkpt>
      <trkpt lat="40.07617" lon="-3.81394">
        <ele>552</ele>
        <time>2022-12-31 08:31:23</time>
      </trkpt>
      <trkpt lat="40.0761" lon="-3.81396">
        <ele>552</ele>
        <time>2022-12-31 08:31:24</time>
      </trkpt>
      <trkpt lat="40.07602" lon="-3.81398">
        <ele>551.8</ele>
        <time>2022-12-31 08:31:25</time>
      </trkpt>
      <trkpt lat="40.07595" lon="-3.814">
        <ele>551.6</ele>
        <time>2022-12-31 08:31:26</time>
      </trkpt>
      <trkpt lat="40.07587" lon="-3.81403">
        <ele>551.6</ele>
        <time>2022-12-31 08:31:27</time>
      </trkpt>
      <trkpt lat="40.0758" lon="-3.81405">
        <ele>551.2</ele>
        <time>2022-12-31 08:31:28</time>
      </trkpt>
      <trkpt lat="40.07572" lon="-3.81408">
        <ele>551.2</ele>
        <time>2022-12-31 08:31:29</time>
      </trkpt>
      <trkpt lat="40.07565" lon="-3.8141">
        <ele>551</ele>
        <time>2022-12-31 08:31:30</time>
      </trkpt>
      <trkpt lat="40.07557" lon="-3.81412">
        <ele>550.8</ele>
        <time>2022-12-31 08:31:31</time>
      </trkpt>
      <trkpt lat="40.0755" lon="-3.81415">
        <ele>550.6</ele>
        <time>2022-12-31 08:31:32</time>
      </trkpt>
      <trkpt lat="40.07542" lon="-3.81417">
        <ele>550.6</ele>
        <time>2022-12-31 08:31:33</time>
      </trkpt>
      <trkpt lat="40.07535" lon="-3.81419">
        <ele>550.2</ele>
        <time>2022-12-31 08:31:34</time>
      </trkpt>
      <trkpt lat="40.07527" lon="-3.81421">
        <ele>550.2</ele>
        <time>2022-12-31 08:31:35</time>
      </trkpt>
      <trkpt lat="40.0752" lon="-3.81424">
        <ele>550.2</ele>
        <time>2022-12-31 08:31:36</time>
      </trkpt>
      <trkpt lat="40.07512" lon="-3.81426">
        <ele>550</ele>
        <time>2022-12-31 08:31:37</time>
      </trkpt>
      <trkpt lat="40.07504" lon="-3.81428">
        <ele>549.8</ele>
        <time>2022-12-31 08:31:38</time>
      </trkpt>
      <trkpt lat="40.07497" lon="-3.81431">
        <ele>549.8</ele>
        <time>2022-12-31 08:31:39</time>
      </trkpt>
      <trkpt lat="40.07489" lon="-3.81433">
        <ele>549.6</ele>
        <time>2022-12-31 08:31:40</time>
      </trkpt>
      <trkpt lat="40.07482" lon="-3.81435">
        <ele>549.4</ele>
        <time>2022-12-31 08:31:41</time>
      </trkpt>
      <trkpt lat="40.07474" lon="-3.81437">
        <ele>549.2</ele>
        <time>2022-12-31 08:31:42</time>
      </trkpt>
      <trkpt lat="40.07466" lon="-3.8144">
        <ele>549.2</ele>
        <time>2022-12-31 08:31:43</time>
      </trkpt>
      <trkpt lat="40.07459" lon="-3.81442">
        <ele>548.8</ele>
        <time>2022-12-31 08:31:44</time>
      </trkpt>
      <trkpt lat="40.07451" lon="-3.81444">
        <ele>548.8</ele>
        <time>2022-12-31 08:31:45</time>
      </trkpt>
      <trkpt lat="40.07444" lon="-3.81446">
        <ele>548.6</ele>
        <time>2022-12-31 08:31:46</time>
      </trkpt>
      <trkpt lat="40.07436" lon="-3.81448">
        <ele>548.6</ele>
        <time>2022-12-31 08:31:47</time>
      </trkpt>
      <trkpt lat="40.07428" lon="-3.8145">
        <ele>548.4</ele>
        <time>2022-12-31 08:31:48</time>
      </trkpt>
      <trkpt lat="40.0742" lon="-3.81452">
        <ele>548.2</ele>
        <time>2022-12-31 08:31:49</time>
      </trkpt>
      <trkpt lat="40.07413" lon="-3.81454">
        <ele>548.2</ele>
        <time>2022-12-31 08:31:50</time>
      </trkpt>
      <trkpt lat="40.07405" lon="-3.81456">
        <ele>548</ele>
        <time>2022-12-31 08:31:51</time>
      </trkpt>
      <trkpt lat="40.07397" lon="-3.81458">
        <ele>547.8</ele>
        <time>2022-12-31 08:31:52</time>
      </trkpt>
      <trkpt lat="40.0739" lon="-3.81461">
        <ele>547.6</ele>
        <time>2022-12-31 08:31:53</time>
      </trkpt>
      <trkpt lat="40.07382" lon="-3.81463">
        <ele>547.6</ele>
        <time>2022-12-31 08:31:54</time>
      </trkpt>
      <trkpt lat="40.07374" lon="-3.81465">
        <ele>547.6</ele>
        <time>2022-12-31 08:31:55</time>
      </trkpt>
      <trkpt lat="40.07367" lon="-3.81468">
        <ele>547.4</ele>
        <time>2022-12-31 08:31:56</time>
      </trkpt>
      <trkpt lat="40.07359" lon="-3.8147">
        <ele>547.4</ele>
        <time>2022-12-31 08:31:57</time>
      </trkpt>
      <trkpt lat="40.07351" lon="-3.81472">
        <ele>547.2</ele>
        <time>2022-12-31 08:31:58</time>
      </trkpt>
      <trkpt lat="40.07343" lon="-3.81475">
        <ele>547</ele>
        <time>2022-12-31 08:31:59</time>
      </trkpt>
      <trkpt lat="40.07336" lon="-3.81477">
        <ele>547</ele>
        <time>2022-12-31 08:32:00</time>
      </trkpt>
      <trkpt lat="40.07328" lon="-3.81479">
        <ele>546.8</ele>
        <time>2022-12-31 08:32:01</time>
      </trkpt>
      <trkpt lat="40.07321" lon="-3.81482">
        <ele>546.6</ele>
        <time>2022-12-31 08:32:02</time>
      </trkpt>
      <trkpt lat="40.07313" lon="-3.81484">
        <ele>546.4</ele>
        <time>2022-12-31 08:32:03</time>
      </trkpt>
      <trkpt lat="40.07305" lon="-3.81486">
        <ele>546.2</ele>
        <time>2022-12-31 08:32:04</time>
      </trkpt>
      <trkpt lat="40.07298" lon="-3.81488">
        <ele>546.2</ele>
        <time>2022-12-31 08:32:05</time>
      </trkpt>
      <trkpt lat="40.0729" lon="-3.8149">
        <ele>546.2</ele>
        <time>2022-12-31 08:32:06</time>
      </trkpt>
      <trkpt lat="40.07282" lon="-3.81493">
        <ele>545.8</ele>
        <time>2022-12-31 08:32:07</time>
      </trkpt>
      <trkpt lat="40.07275" lon="-3.81495">
        <ele>545.8</ele>
        <time>2022-12-31 08:32:08</time>
      </trkpt>
      <trkpt lat="40.07267" lon="-3.81498">
        <ele>545.6</ele>
        <time>2022-12-31 08:32:09</time>
      </trkpt>
      <trkpt lat="40.0726" lon="-3.815">
        <ele>545.6</ele>
        <time>2022-12-31 08:32:10</time>
      </trkpt>
      <trkpt lat="40.07252" lon="-3.81503">
        <ele>545.4</ele>
        <time>2022-12-31 08:32:11</time>
      </trkpt>
      <trkpt lat="40.07245" lon="-3.81505">
        <ele>545.4</ele>
        <time>2022-12-31 08:32:12</time>
      </trkpt>
      <trkpt lat="40.07237" lon="-3.81507">
        <ele>545.4</ele>
        <time>2022-12-31 08:32:13</time>
      </trkpt>
      <trkpt lat="40.0723" lon="-3.81509">
        <ele>545.4</ele>
        <time>2022-12-31 08:32:14</time>
      </trkpt>
      <trkpt lat="40.07223" lon="-3.81511">
        <ele>545.4</ele>
        <time>2022-12-31 08:32:15</time>
      </trkpt>
      <trkpt lat="40.07216" lon="-3.81513">
        <ele>545.4</ele>
        <time>2022-12-31 08:32:16</time>
      </trkpt>
      <trkpt lat="40.07209" lon="-3.81515">
        <ele>545.2</ele>
        <time>2022-12-31 08:32:17</time>
      </trkpt>
      <trkpt lat="40.07202" lon="-3.81517">
        <ele>545.4</ele>
        <time>2022-12-31 08:32:18</time>
      </trkpt>
      <trkpt lat="40.07195" lon="-3.81519">
        <ele>545.2</ele>
        <time>2022-12-31 08:32:19</time>
      </trkpt>
      <trkpt lat="40.07188" lon="-3.81521">
        <ele>545.4</ele>
        <time>2022-12-31 08:32:20</time>
      </trkpt>
      <trkpt lat="40.07181" lon="-3.81523">
        <ele>545.2</ele>
        <time>2022-12-31 08:32:21</time>
      </trkpt>
      <trkpt lat="40.07175" lon="-3.81524">
        <ele>545.2</ele>
        <time>2022-12-31 08:32:22</time>
      </trkpt>
      <trkpt lat="40.07168" lon="-3.81526">
        <ele>545.4</ele>
        <time>2022-12-31 08:32:23</time>
      </trkpt>
      <trkpt lat="40.07161" lon="-3.81528">
        <ele>545.2</ele>
        <time>2022-12-31 08:32:24</time>
      </trkpt>
      <trkpt lat="40.07155" lon="-3.8153">
        <ele>545.2</ele>
        <time>2022-12-31 08:32:25</time>
      </trkpt>
      <trkpt lat="40.07148" lon="-3.81532">
        <ele>545.2</ele>
        <time>2022-12-31 08:32:26</time>
      </trkpt>
      <trkpt lat="40.07142" lon="-3.81534">
        <ele>545.2</ele>
        <time>2022-12-31 08:32:27</time>
      </trkpt>
      <trkpt lat="40.07136" lon="-3.81536">
        <ele>545.2</ele>
        <time>2022-12-31 08:32:28</time>
      </trkpt>
      <trkpt lat="40.0713" lon="-3.81538">
        <ele>545.2</ele>
        <time>2022-12-31 08:32:29</time>
      </trkpt>
      <trkpt lat="40.07124" lon="-3.8154">
        <ele>545.2</ele>
        <time>2022-12-31 08:32:30</time>
      </trkpt>
      <trkpt lat="40.07118" lon="-3.81542">
        <ele>545.2</ele>
        <time>2022-12-31 08:32:31</time>
      </trkpt>
      <trkpt lat="40.07112" lon="-3.81544">
        <ele>545.4</ele>
        <time>2022-12-31 08:32:32</time>
      </trkpt>
      <trkpt lat="40.07106" lon="-3.81545">
        <ele>545.4</ele>
        <time>2022-12-31 08:32:33</time>
      </trkpt>
      <trkpt lat="40.071" lon="-3.81546">
        <ele>545.6</ele>
        <time>2022-12-31 08:32:34</time>
      </trkpt>
      <trkpt lat="40.07094" lon="-3.81548">
        <ele>545.6</ele>
        <time>2022-12-31 08:32:35</time>
      </trkpt>
      <trkpt lat="40.07088" lon="-3.81549">
        <ele>545.6</ele>
        <time>2022-12-31 08:32:36</time>
      </trkpt>
      <trkpt lat="40.07083" lon="-3.81551">
        <ele>545.8</ele>
        <time>2022-12-31 08:32:37</time>
      </trkpt>
      <trkpt lat="40.07077" lon="-3.81553">
        <ele>545.8</ele>
        <time>2022-12-31 08:32:38</time>
      </trkpt>
      <trkpt lat="40.07071" lon="-3.81554">
        <ele>545.6</ele>
        <time>2022-12-31 08:32:39</time>
      </trkpt>
      <trkpt lat="40.07065" lon="-3.81556">
        <ele>545.8</ele>
        <time>2022-12-31 08:32:40</time>
      </trkpt>
      <trkpt lat="40.07059" lon="-3.81557">
        <ele>545.8</ele>
        <time>2022-12-31 08:32:41</time>
      </trkpt>
      <trkpt lat="40.07053" lon="-3.81559">
        <ele>546</ele>
        <time>2022-12-31 08:32:42</time>
      </trkpt>
      <trkpt lat="40.07047" lon="-3.81561">
        <ele>546.2</ele>
        <time>2022-12-31 08:32:43</time>
      </trkpt>
      <trkpt lat="40.07041" lon="-3.81563">
        <ele>546.4</ele>
        <time>2022-12-31 08:32:44</time>
      </trkpt>
      <trkpt lat="40.07034" lon="-3.81564">
        <ele>546.4</ele>
        <time>2022-12-31 08:32:45</time>
      </trkpt>
      <trkpt lat="40.07028" lon="-3.81566">
        <ele>546.4</ele>
        <time>2022-12-31 08:32:46</time>
      </trkpt>
      <trkpt lat="40.07022" lon="-3.81568">
        <ele>546.4</ele>
        <time>2022-12-31 08:32:47</time>
      </trkpt>
      <trkpt lat="40.07016" lon="-3.8157">
        <ele>546.6</ele>
        <time>2022-12-31 08:32:48</time>
      </trkpt>
      <trkpt lat="40.0701" lon="-3.81572">
        <ele>546.6</ele>
        <time>2022-12-31 08:32:49</time>
      </trkpt>
      <trkpt lat="40.07004" lon="-3.81574">
        <ele>546.4</ele>
        <time>2022-12-31 08:32:50</time>
      </trkpt>
      <trkpt lat="40.06998" lon="-3.81576">
        <ele>546.6</ele>
        <time>2022-12-31 08:32:51</time>
      </trkpt>
      <trkpt lat="40.06991" lon="-3.81578">
        <ele>546.4</ele>
        <time>2022-12-31 08:32:52</time>
      </trkpt>
      <trkpt lat="40.06985" lon="-3.8158">
        <ele>546.6</ele>
        <time>2022-12-31 08:32:53</time>
      </trkpt>
      <trkpt lat="40.06979" lon="-3.81581">
        <ele>546.4</ele>
        <time>2022-12-31 08:32:54</time>
      </trkpt>
      <trkpt lat="40.06972" lon="-3.81583">
        <ele>546.4</ele>
        <time>2022-12-31 08:32:55</time>
      </trkpt>
      <trkpt lat="40.06966" lon="-3.81585">
        <ele>546.6</ele>
        <time>2022-12-31 08:32:56</time>
      </trkpt>
      <trkpt lat="40.0696" lon="-3.81587">
        <ele>546.6</ele>
        <time>2022-12-31 08:32:57</time>
      </trkpt>
      <trkpt lat="40.06954" lon="-3.81588">
        <ele>546.4</ele>
        <time>2022-12-31 08:32:58</time>
      </trkpt>
      <trkpt lat="40.06948" lon="-3.8159">
        <ele>546.4</ele>
        <time>2022-12-31 08:32:59</time>
      </trkpt>
      <trkpt lat="40.06941" lon="-3.81592">
        <ele>546.4</ele>
        <time>2022-12-31 08:33:00</time>
      </trkpt>
      <trkpt lat="40.06935" lon="-3.81594">
        <ele>546.4</ele>
        <time>2022-12-31 08:33:01</time>
      </trkpt>
      <trkpt lat="40.06929" lon="-3.81596">
        <ele>546.4</ele>
        <time>2022-12-31 08:33:02</time>
      </trkpt>
      <trkpt lat="40.06922" lon="-3.81598">
        <ele>546.4</ele>
        <time>2022-12-31 08:33:03</time>
      </trkpt>
      <trkpt lat="40.06916" lon="-3.81599">
        <ele>546.4</ele>
        <time>2022-12-31 08:33:04</time>
      </trkpt>
      <trkpt lat="40.0691" lon="-3.81601">
        <ele>546.4</ele>
        <time>2022-12-31 08:33:05</time>
      </trkpt>
      <trkpt lat="40.06903" lon="-3.81603">
        <ele>546.4</ele>
        <time>2022-12-31 08:33:06</time>
      </trkpt>
      <trkpt lat="40.06897" lon="-3.81605">
        <ele>546.2</ele>
        <time>2022-12-31 08:33:07</time>
      </trkpt>
      <trkpt lat="40.06891" lon="-3.81607">
        <ele>546.2</ele>
        <time>2022-12-31 08:33:08</time>
      </trkpt>
      <trkpt lat="40.06885" lon="-3.81609">
        <ele>546.2</ele>
        <time>2022-12-31 08:33:09</time>
      </trkpt>
      <trkpt lat="40.06878" lon="-3.81611">
        <ele>546.2</ele>
        <time>2022-12-31 08:33:10</time>
      </trkpt>
      <trkpt lat="40.06872" lon="-3.81613">
        <ele>546.2</ele>
        <time>2022-12-31 08:33:11</time>
      </trkpt>
      <trkpt lat="40.06866" lon="-3.81615">
        <ele>546.4</ele>
        <time>2022-12-31 08:33:12</time>
      </trkpt>
      <trkpt lat="40.0686" lon="-3.81617">
        <ele>546.2</ele>
        <time>2022-12-31 08:33:13</time>
      </trkpt>
      <trkpt lat="40.06854" lon="-3.81619">
        <ele>546.4</ele>
        <time>2022-12-31 08:33:14</time>
      </trkpt>
      <trkpt lat="40.06848" lon="-3.81621">
        <ele>546.4</ele>
        <time>2022-12-31 08:33:15</time>
      </trkpt>
      <trkpt lat="40.06841" lon="-3.81623">
        <ele>546.2</ele>
        <time>2022-12-31 08:33:16</time>
      </trkpt>
      <trkpt lat="40.06835" lon="-3.81625">
        <ele>546.4</ele>
        <time>2022-12-31 08:33:17</time>
      </trkpt>
      <trkpt lat="40.06829" lon="-3.81627">
        <ele>546.4</ele>
        <time>2022-12-31 08:33:18</time>
      </trkpt>
      <trkpt lat="40.06823" lon="-3.81629">
        <ele>546.6</ele>
        <time>2022-12-31 08:33:19</time>
      </trkpt>
      <trkpt lat="40.06817" lon="-3.81631">
        <ele>546.6</ele>
        <time>2022-12-31 08:33:20</time>
      </trkpt>
      <trkpt lat="40.06811" lon="-3.81634">
        <ele>546.8</ele>
        <time>2022-12-31 08:33:21</time>
      </trkpt>
      <trkpt lat="40.06805" lon="-3.81637">
        <ele>546.8</ele>
        <time>2022-12-31 08:33:22</time>
      </trkpt>
      <trkpt lat="40.06799" lon="-3.8164">
        <ele>547</ele>
        <time>2022-12-31 08:33:23</time>
      </trkpt>
      <trkpt lat="40.06793" lon="-3.81643">
        <ele>546.8</ele>
        <time>2022-12-31 08:33:24</time>
      </trkpt>
      <trkpt lat="40.06788" lon="-3.81646">
        <ele>546.8</ele>
        <time>2022-12-31 08:33:25</time>
      </trkpt>
      <trkpt lat="40.06782" lon="-3.8165">
        <ele>547</ele>
        <time>2022-12-31 08:33:26</time>
      </trkpt>
      <trkpt lat="40.06776" lon="-3.81653">
        <ele>547</ele>
        <time>2022-12-31 08:33:27</time>
      </trkpt>
      <trkpt lat="40.06771" lon="-3.81657">
        <ele>547</ele>
        <time>2022-12-31 08:33:28</time>
      </trkpt>
      <trkpt lat="40.06765" lon="-3.81661">
        <ele>547</ele>
        <time>2022-12-31 08:33:29</time>
      </trkpt>
      <trkpt lat="40.0676" lon="-3.81665">
        <ele>547</ele>
        <time>2022-12-31 08:33:30</time>
      </trkpt>
      <trkpt lat="40.06755" lon="-3.8167">
        <ele>547</ele>
        <time>2022-12-31 08:33:31</time>
      </trkpt>
      <trkpt lat="40.0675" lon="-3.81674">
        <ele>547.2</ele>
        <time>2022-12-31 08:33:32</time>
      </trkpt>
      <trkpt lat="40.06744" lon="-3.81678">
        <ele>547.2</ele>
        <time>2022-12-31 08:33:33</time>
      </trkpt>
      <trkpt lat="40.06739" lon="-3.81683">
        <ele>547.2</ele>
        <time>2022-12-31 08:33:34</time>
      </trkpt>
      <trkpt lat="40.06734" lon="-3.81687">
        <ele>547.2</ele>
        <time>2022-12-31 08:33:35</time>
      </trkpt>
      <trkpt lat="40.06729" lon="-3.81692">
        <ele>547</ele>
        <time>2022-12-31 08:33:36</time>
      </trkpt>
      <trkpt lat="40.06724" lon="-3.81697">
        <ele>547</ele>
        <time>2022-12-31 08:33:37</time>
      </trkpt>
      <trkpt lat="40.06719" lon="-3.81701">
        <ele>547.2</ele>
        <time>2022-12-31 08:33:38</time>
      </trkpt>
      <trkpt lat="40.06713" lon="-3.81706">
        <ele>547.2</ele>
        <time>2022-12-31 08:33:39</time>
      </trkpt>
      <trkpt lat="40.06708" lon="-3.8171">
        <ele>547</ele>
        <time>2022-12-31 08:33:40</time>
      </trkpt>
      <trkpt lat="40.06703" lon="-3.81715">
        <ele>547</ele>
        <time>2022-12-31 08:33:41</time>
      </trkpt>
      <trkpt lat="40.06698" lon="-3.81719">
        <ele>547</ele>
        <time>2022-12-31 08:33:42</time>
      </trkpt>
      <trkpt lat="40.06692" lon="-3.81723">
        <ele>546.8</ele>
        <time>2022-12-31 08:33:43</time>
      </trkpt>
      <trkpt lat="40.06687" lon="-3.81727">
        <ele>547</ele>
        <time>2022-12-31 08:33:44</time>
      </trkpt>
      <trkpt lat="40.06681" lon="-3.81731">
        <ele>547</ele>
        <time>2022-12-31 08:33:45</time>
      </trkpt>
      <trkpt lat="40.06675" lon="-3.81735">
        <ele>547</ele>
        <time>2022-12-31 08:33:46</time>
      </trkpt>
      <trkpt lat="40.0667" lon="-3.81738">
        <ele>547</ele>
        <time>2022-12-31 08:33:47</time>
      </trkpt>
      <trkpt lat="40.06664" lon="-3.81741">
        <ele>547</ele>
        <time>2022-12-31 08:33:48</time>
      </trkpt>
      <trkpt lat="40.06658" lon="-3.81745">
        <ele>546.8</ele>
        <time>2022-12-31 08:33:49</time>
      </trkpt>
      <trkpt lat="40.06652" lon="-3.81748">
        <ele>547</ele>
        <time>2022-12-31 08:33:50</time>
      </trkpt>
      <trkpt lat="40.06646" lon="-3.81751">
        <ele>547</ele>
        <time>2022-12-31 08:33:51</time>
      </trkpt>
      <trkpt lat="40.0664" lon="-3.81754">
        <ele>547</ele>
        <time>2022-12-31 08:33:52</time>
      </trkpt>
      <trkpt lat="40.06635" lon="-3.81757">
        <ele>547</ele>
        <time>2022-12-31 08:33:53</time>
      </trkpt>
      <trkpt lat="40.06629" lon="-3.81759">
        <ele>547</ele>
        <time>2022-12-31 08:33:54</time>
      </trkpt>
      <trkpt lat="40.06623" lon="-3.81762">
        <ele>547</ele>
        <time>2022-12-31 08:33:55</time>
      </trkpt>
      <trkpt lat="40.06617" lon="-3.81765">
        <ele>546.8</ele>
        <time>2022-12-31 08:33:56</time>
      </trkpt>
      <trkpt lat="40.06611" lon="-3.81768">
        <ele>546.8</ele>
        <time>2022-12-31 08:33:57</time>
      </trkpt>
      <trkpt lat="40.06605" lon="-3.81772">
        <ele>546.8</ele>
        <time>2022-12-31 08:33:58</time>
      </trkpt>
      <trkpt lat="40.066" lon="-3.81776">
        <ele>546.6</ele>
        <time>2022-12-31 08:33:59</time>
      </trkpt>
      <trkpt lat="40.06594" lon="-3.81779">
        <ele>546.6</ele>
        <time>2022-12-31 08:34:00</time>
      </trkpt>
      <trkpt lat="40.06588" lon="-3.81783">
        <ele>546.6</ele>
        <time>2022-12-31 08:34:01</time>
      </trkpt>
      <trkpt lat="40.06583" lon="-3.81786">
        <ele>546.6</ele>
        <time>2022-12-31 08:34:02</time>
      </trkpt>
      <trkpt lat="40.06577" lon="-3.81789">
        <ele>546.6</ele>
        <time>2022-12-31 08:34:03</time>
      </trkpt>
      <trkpt lat="40.06571" lon="-3.81793">
        <ele>546.6</ele>
        <time>2022-12-31 08:34:04</time>
      </trkpt>
      <trkpt lat="40.06565" lon="-3.81796">
        <ele>546.6</ele>
        <time>2022-12-31 08:34:05</time>
      </trkpt>
      <trkpt lat="40.0656" lon="-3.818">
        <ele>546.4</ele>
        <time>2022-12-31 08:34:06</time>
      </trkpt>
      <trkpt lat="40.06554" lon="-3.81803">
        <ele>546.6</ele>
        <time>2022-12-31 08:34:07</time>
      </trkpt>
      <trkpt lat="40.06549" lon="-3.81806">
        <ele>546.4</ele>
        <time>2022-12-31 08:34:08</time>
      </trkpt>
      <trkpt lat="40.06543" lon="-3.8181">
        <ele>546.4</ele>
        <time>2022-12-31 08:34:09</time>
      </trkpt>
      <trkpt lat="40.06537" lon="-3.81814">
        <ele>546.4</ele>
        <time>2022-12-31 08:34:10</time>
      </trkpt>
      <trkpt lat="40.06531" lon="-3.81818">
        <ele>546.4</ele>
        <time>2022-12-31 08:34:11</time>
      </trkpt>
      <trkpt lat="40.06526" lon="-3.81822">
        <ele>546.2</ele>
        <time>2022-12-31 08:34:12</time>
      </trkpt>
      <trkpt lat="40.0652" lon="-3.81826">
        <ele>546.2</ele>
        <time>2022-12-31 08:34:13</time>
      </trkpt>
      <trkpt lat="40.06514" lon="-3.8183">
        <ele>546.4</ele>
        <time>2022-12-31 08:34:14</time>
      </trkpt>
      <trkpt lat="40.06509" lon="-3.81834">
        <ele>546.2</ele>
        <time>2022-12-31 08:34:15</time>
      </trkpt>
      <trkpt lat="40.06503" lon="-3.81838">
        <ele>546.2</ele>
        <time>2022-12-31 08:34:16</time>
      </trkpt>
      <trkpt lat="40.06497" lon="-3.81841">
        <ele>546.2</ele>
        <time>2022-12-31 08:34:17</time>
      </trkpt>
      <trkpt lat="40.0649" lon="-3.81845">
        <ele>546.2</ele>
        <time>2022-12-31 08:34:18</time>
      </trkpt>
      <trkpt lat="40.06484" lon="-3.8185">
        <ele>546.2</ele>
        <time>2022-12-31 08:34:19</time>
      </trkpt>
      <trkpt lat="40.06478" lon="-3.81853">
        <ele>546</ele>
        <time>2022-12-31 08:34:20</time>
      </trkpt>
      <trkpt lat="40.06472" lon="-3.81857">
        <ele>546</ele>
        <time>2022-12-31 08:34:21</time>
      </trkpt>
      <trkpt lat="40.06465" lon="-3.81861">
        <ele>545.8</ele>
        <time>2022-12-31 08:34:22</time>
      </trkpt>
      <trkpt lat="40.06459" lon="-3.81865">
        <ele>545.6</ele>
        <time>2022-12-31 08:34:23</time>
      </trkpt>
      <trkpt lat="40.06453" lon="-3.8187">
        <ele>545.6</ele>
        <time>2022-12-31 08:34:24</time>
      </trkpt>
      <trkpt lat="40.06447" lon="-3.81874">
        <ele>545.4</ele>
        <time>2022-12-31 08:34:25</time>
      </trkpt>
      <trkpt lat="40.06441" lon="-3.81878">
        <ele>545.2</ele>
        <time>2022-12-31 08:34:26</time>
      </trkpt>
      <trkpt lat="40.06435" lon="-3.81883">
        <ele>545.2</ele>
        <time>2022-12-31 08:34:27</time>
      </trkpt>
      <trkpt lat="40.06429" lon="-3.81888">
        <ele>545</ele>
        <time>2022-12-31 08:34:28</time>
      </trkpt>
      <trkpt lat="40.06423" lon="-3.81892">
        <ele>545</ele>
        <time>2022-12-31 08:34:29</time>
      </trkpt>
      <trkpt lat="40.06417" lon="-3.81896">
        <ele>545</ele>
        <time>2022-12-31 08:34:30</time>
      </trkpt>
      <trkpt lat="40.06411" lon="-3.819">
        <ele>544.8</ele>
        <time>2022-12-31 08:34:31</time>
      </trkpt>
      <trkpt lat="40.06404" lon="-3.81904">
        <ele>544.8</ele>
        <time>2022-12-31 08:34:32</time>
      </trkpt>
      <trkpt lat="40.06398" lon="-3.81908">
        <ele>544.8</ele>
        <time>2022-12-31 08:34:33</time>
      </trkpt>
      <trkpt lat="40.06392" lon="-3.81913">
        <ele>544.6</ele>
        <time>2022-12-31 08:34:34</time>
      </trkpt>
      <trkpt lat="40.06386" lon="-3.81917">
        <ele>544.6</ele>
        <time>2022-12-31 08:34:35</time>
      </trkpt>
      <trkpt lat="40.0638" lon="-3.81921">
        <ele>544.6</ele>
        <time>2022-12-31 08:34:36</time>
      </trkpt>
      <trkpt lat="40.06374" lon="-3.81925">
        <ele>544.4</ele>
        <time>2022-12-31 08:34:37</time>
      </trkpt>
      <trkpt lat="40.06368" lon="-3.8193">
        <ele>544.4</ele>
        <time>2022-12-31 08:34:38</time>
      </trkpt>
      <trkpt lat="40.06363" lon="-3.81934">
        <ele>544.4</ele>
        <time>2022-12-31 08:34:39</time>
      </trkpt>
      <trkpt lat="40.06357" lon="-3.81939">
        <ele>544.4</ele>
        <time>2022-12-31 08:34:40</time>
      </trkpt>
      <trkpt lat="40.06351" lon="-3.81943">
        <ele>544.4</ele>
        <time>2022-12-31 08:34:41</time>
      </trkpt>
      <trkpt lat="40.06345" lon="-3.81947">
        <ele>544.2</ele>
        <time>2022-12-31 08:34:42</time>
      </trkpt>
      <trkpt lat="40.06339" lon="-3.81951">
        <ele>544.2</ele>
        <time>2022-12-31 08:34:43</time>
      </trkpt>
      <trkpt lat="40.06332" lon="-3.81955">
        <ele>544.4</ele>
        <time>2022-12-31 08:34:44</time>
      </trkpt>
      <trkpt lat="40.06326" lon="-3.81959">
        <ele>544.2</ele>
        <time>2022-12-31 08:34:45</time>
      </trkpt>
      <trkpt lat="40.0632" lon="-3.81963">
        <ele>544.2</ele>
        <time>2022-12-31 08:34:46</time>
      </trkpt>
      <trkpt lat="40.06313" lon="-3.81966">
        <ele>544.2</ele>
        <time>2022-12-31 08:34:47</time>
      </trkpt>
      <trkpt lat="40.06307" lon="-3.8197">
        <ele>544.2</ele>
        <time>2022-12-31 08:34:48</time>
      </trkpt>
      <trkpt lat="40.06301" lon="-3.81974">
        <ele>544.2</ele>
        <time>2022-12-31 08:34:49</time>
      </trkpt>
      <trkpt lat="40.06295" lon="-3.81977">
        <ele>544.2</ele>
        <time>2022-12-31 08:34:50</time>
      </trkpt>
      <trkpt lat="40.06288" lon="-3.8198">
        <ele>544.4</ele>
        <time>2022-12-31 08:34:51</time>
      </trkpt>
      <trkpt lat="40.06282" lon="-3.81983">
        <ele>544.4</ele>
        <time>2022-12-31 08:34:52</time>
      </trkpt>
      <trkpt lat="40.06276" lon="-3.81986">
        <ele>544.2</ele>
        <time>2022-12-31 08:34:53</time>
      </trkpt>
      <trkpt lat="40.06269" lon="-3.81988">
        <ele>544.4</ele>
        <time>2022-12-31 08:34:54</time>
      </trkpt>
      <trkpt lat="40.06262" lon="-3.81991">
        <ele>544.4</ele>
        <time>2022-12-31 08:34:55</time>
      </trkpt>
      <trkpt lat="40.06255" lon="-3.81994">
        <ele>544.4</ele>
        <time>2022-12-31 08:34:56</time>
      </trkpt>
      <trkpt lat="40.06248" lon="-3.81997">
        <ele>544.2</ele>
        <time>2022-12-31 08:34:57</time>
      </trkpt>
      <trkpt lat="40.06241" lon="-3.82">
        <ele>544.4</ele>
        <time>2022-12-31 08:34:58</time>
      </trkpt>
      <trkpt lat="40.06235" lon="-3.82004">
        <ele>544.4</ele>
        <time>2022-12-31 08:34:59</time>
      </trkpt>
      <trkpt lat="40.06228" lon="-3.82008">
        <ele>544.4</ele>
        <time>2022-12-31 08:35:00</time>
      </trkpt>
      <trkpt lat="40.0622" lon="-3.82012">
        <ele>544.2</ele>
        <time>2022-12-31 08:35:01</time>
      </trkpt>
      <trkpt lat="40.06214" lon="-3.82016">
        <ele>544.2</ele>
        <time>2022-12-31 08:35:02</time>
      </trkpt>
      <trkpt lat="40.06206" lon="-3.82021">
        <ele>544.2</ele>
        <time>2022-12-31 08:35:03</time>
      </trkpt>
      <trkpt lat="40.06199" lon="-3.82025">
        <ele>544</ele>
        <time>2022-12-31 08:35:04</time>
      </trkpt>
      <trkpt lat="40.06193" lon="-3.82029">
        <ele>544</ele>
        <time>2022-12-31 08:35:05</time>
      </trkpt>
      <trkpt lat="40.06186" lon="-3.82034">
        <ele>543.6</ele>
        <time>2022-12-31 08:35:06</time>
      </trkpt>
      <trkpt lat="40.06179" lon="-3.82039">
        <ele>543.2</ele>
        <time>2022-12-31 08:35:07</time>
      </trkpt>
      <trkpt lat="40.06172" lon="-3.82043">
        <ele>543</ele>
        <time>2022-12-31 08:35:08</time>
      </trkpt>
      <trkpt lat="40.06166" lon="-3.82049">
        <ele>542.8</ele>
        <time>2022-12-31 08:35:09</time>
      </trkpt>
      <trkpt lat="40.0616" lon="-3.82054">
        <ele>542.6</ele>
        <time>2022-12-31 08:35:10</time>
      </trkpt>
      <trkpt lat="40.06154" lon="-3.82059">
        <ele>542.6</ele>
        <time>2022-12-31 08:35:11</time>
      </trkpt>
      <trkpt lat="40.06148" lon="-3.82065">
        <ele>542.2</ele>
        <time>2022-12-31 08:35:12</time>
      </trkpt>
      <trkpt lat="40.06142" lon="-3.8207">
        <ele>541.6</ele>
        <time>2022-12-31 08:35:13</time>
      </trkpt>
      <trkpt lat="40.06136" lon="-3.82076">
        <ele>541.4</ele>
        <time>2022-12-31 08:35:14</time>
      </trkpt>
      <trkpt lat="40.06129" lon="-3.82082">
        <ele>541.2</ele>
        <time>2022-12-31 08:35:15</time>
      </trkpt>
      <trkpt lat="40.06122" lon="-3.82087">
        <ele>541</ele>
        <time>2022-12-31 08:35:16</time>
      </trkpt>
      <trkpt lat="40.06116" lon="-3.82093">
        <ele>540.8</ele>
        <time>2022-12-31 08:35:17</time>
      </trkpt>
      <trkpt lat="40.06109" lon="-3.82099">
        <ele>540.8</ele>
        <time>2022-12-31 08:35:18</time>
      </trkpt>
      <trkpt lat="40.06102" lon="-3.82105">
        <ele>540.8</ele>
        <time>2022-12-31 08:35:19</time>
      </trkpt>
      <trkpt lat="40.06096" lon="-3.82111">
        <ele>540.4</ele>
        <time>2022-12-31 08:35:20</time>
      </trkpt>
      <trkpt lat="40.06089" lon="-3.82117">
        <ele>540.2</ele>
        <time>2022-12-31 08:35:21</time>
      </trkpt>
      <trkpt lat="40.06082" lon="-3.82123">
        <ele>540</ele>
        <time>2022-12-31 08:35:22</time>
      </trkpt>
      <trkpt lat="40.06076" lon="-3.82129">
        <ele>539.6</ele>
        <time>2022-12-31 08:35:23</time>
      </trkpt>
      <trkpt lat="40.06069" lon="-3.82134">
        <ele>539.6</ele>
        <time>2022-12-31 08:35:24</time>
      </trkpt>
      <trkpt lat="40.06062" lon="-3.82139">
        <ele>539.2</ele>
        <time>2022-12-31 08:35:25</time>
      </trkpt>
      <trkpt lat="40.06055" lon="-3.82144">
        <ele>539</ele>
        <time>2022-12-31 08:35:26</time>
      </trkpt>
      <trkpt lat="40.06048" lon="-3.82149">
        <ele>538.8</ele>
        <time>2022-12-31 08:35:27</time>
      </trkpt>
      <trkpt lat="40.0604" lon="-3.82153">
        <ele>538.8</ele>
        <time>2022-12-31 08:35:28</time>
      </trkpt>
      <trkpt lat="40.06033" lon="-3.82156">
        <ele>538.8</ele>
        <time>2022-12-31 08:35:29</time>
      </trkpt>
      <trkpt lat="40.06025" lon="-3.82159">
        <ele>538.8</ele>
        <time>2022-12-31 08:35:30</time>
      </trkpt>
      <trkpt lat="40.06018" lon="-3.82162">
        <ele>538.4</ele>
        <time>2022-12-31 08:35:31</time>
      </trkpt>
      <trkpt lat="40.06011" lon="-3.82166">
        <ele>538.4</ele>
        <time>2022-12-31 08:35:32</time>
      </trkpt>
      <trkpt lat="40.06003" lon="-3.82169">
        <ele>538.2</ele>
        <time>2022-12-31 08:35:33</time>
      </trkpt>
      <trkpt lat="40.05996" lon="-3.82174">
        <ele>538</ele>
        <time>2022-12-31 08:35:34</time>
      </trkpt>
      <trkpt lat="40.0599" lon="-3.82179">
        <ele>538</ele>
        <time>2022-12-31 08:35:35</time>
      </trkpt>
      <trkpt lat="40.05983" lon="-3.82184">
        <ele>538</ele>
        <time>2022-12-31 08:35:36</time>
      </trkpt>
      <trkpt lat="40.05977" lon="-3.8219">
        <ele>537.8</ele>
        <time>2022-12-31 08:35:37</time>
      </trkpt>
      <trkpt lat="40.05971" lon="-3.82197">
        <ele>537.6</ele>
        <time>2022-12-31 08:35:38</time>
      </trkpt>
      <trkpt lat="40.05966" lon="-3.82203">
        <ele>537.6</ele>
        <time>2022-12-31 08:35:39</time>
      </trkpt>
      <trkpt lat="40.0596" lon="-3.8221">
        <ele>537.6</ele>
        <time>2022-12-31 08:35:40</time>
      </trkpt>
      <trkpt lat="40.05955" lon="-3.82216">
        <ele>537.6</ele>
        <time>2022-12-31 08:35:41</time>
      </trkpt>
      <trkpt lat="40.05949" lon="-3.82222">
        <ele>537.4</ele>
        <time>2022-12-31 08:35:42</time>
      </trkpt>
      <trkpt lat="40.05943" lon="-3.82228">
        <ele>537.4</ele>
        <time>2022-12-31 08:35:43</time>
      </trkpt>
      <trkpt lat="40.05937" lon="-3.82235">
        <ele>537.4</ele>
        <time>2022-12-31 08:35:44</time>
      </trkpt>
      <trkpt lat="40.0593" lon="-3.82241">
        <ele>537.4</ele>
        <time>2022-12-31 08:35:45</time>
      </trkpt>
      <trkpt lat="40.05924" lon="-3.82248">
        <ele>537.4</ele>
        <time>2022-12-31 08:35:46</time>
      </trkpt>
      <trkpt lat="40.05917" lon="-3.82254">
        <ele>537.4</ele>
        <time>2022-12-31 08:35:47</time>
      </trkpt>
      <trkpt lat="40.05911" lon="-3.8226">
        <ele>537.4</ele>
        <time>2022-12-31 08:35:48</time>
      </trkpt>
      <trkpt lat="40.05904" lon="-3.82267">
        <ele>537.2</ele>
        <time>2022-12-31 08:35:49</time>
      </trkpt>
      <trkpt lat="40.05898" lon="-3.82273">
        <ele>537.2</ele>
        <time>2022-12-31 08:35:50</time>
      </trkpt>
      <trkpt lat="40.05891" lon="-3.82279">
        <ele>537</ele>
        <time>2022-12-31 08:35:51</time>
      </trkpt>
      <trkpt lat="40.05885" lon="-3.82285">
        <ele>536.6</ele>
        <time>2022-12-31 08:35:52</time>
      </trkpt>
      <trkpt lat="40.05878" lon="-3.82291">
        <ele>536.4</ele>
        <time>2022-12-31 08:35:53</time>
      </trkpt>
      <trkpt lat="40.05871" lon="-3.82297">
        <ele>536</ele>
        <time>2022-12-31 08:35:54</time>
      </trkpt>
      <trkpt lat="40.05864" lon="-3.82303">
        <ele>535.8</ele>
        <time>2022-12-31 08:35:55</time>
      </trkpt>
      <trkpt lat="40.05857" lon="-3.82308">
        <ele>535.4</ele>
        <time>2022-12-31 08:35:56</time>
      </trkpt>
      <trkpt lat="40.0585" lon="-3.82313">
        <ele>535</ele>
        <time>2022-12-31 08:35:57</time>
      </trkpt>
      <trkpt lat="40.05843" lon="-3.82317">
        <ele>534.8</ele>
        <time>2022-12-31 08:35:58</time>
      </trkpt>
      <trkpt lat="40.05836" lon="-3.82322">
        <ele>534.4</ele>
        <time>2022-12-31 08:35:59</time>
      </trkpt>
      <trkpt lat="40.05829" lon="-3.82326">
        <ele>534.4</ele>
        <time>2022-12-31 08:36:00</time>
      </trkpt>
      <trkpt lat="40.05822" lon="-3.82331">
        <ele>534.2</ele>
        <time>2022-12-31 08:36:01</time>
      </trkpt>
      <trkpt lat="40.05815" lon="-3.82335">
        <ele>534.2</ele>
        <time>2022-12-31 08:36:02</time>
      </trkpt>
      <trkpt lat="40.05808" lon="-3.82339">
        <ele>534</ele>
        <time>2022-12-31 08:36:03</time>
      </trkpt>
      <trkpt lat="40.05801" lon="-3.82343">
        <ele>534</ele>
        <time>2022-12-31 08:36:04</time>
      </trkpt>
      <trkpt lat="40.05794" lon="-3.82346">
        <ele>533.6</ele>
        <time>2022-12-31 08:36:05</time>
      </trkpt>
      <trkpt lat="40.05787" lon="-3.8235">
        <ele>533.6</ele>
        <time>2022-12-31 08:36:06</time>
      </trkpt>
      <trkpt lat="40.0578" lon="-3.82354">
        <ele>533.4</ele>
        <time>2022-12-31 08:36:07</time>
      </trkpt>
      <trkpt lat="40.05773" lon="-3.82358">
        <ele>533</ele>
        <time>2022-12-31 08:36:08</time>
      </trkpt>
      <trkpt lat="40.05766" lon="-3.82362">
        <ele>533</ele>
        <time>2022-12-31 08:36:09</time>
      </trkpt>
      <trkpt lat="40.0576" lon="-3.82366">
        <ele>533</ele>
        <time>2022-12-31 08:36:10</time>
      </trkpt>
      <trkpt lat="40.05753" lon="-3.8237">
        <ele>533</ele>
        <time>2022-12-31 08:36:11</time>
      </trkpt>
      <trkpt lat="40.05747" lon="-3.82375">
        <ele>532.8</ele>
        <time>2022-12-31 08:36:12</time>
      </trkpt>
      <trkpt lat="40.05741" lon="-3.8238">
        <ele>532.8</ele>
        <time>2022-12-31 08:36:13</time>
      </trkpt>
      <trkpt lat="40.05734" lon="-3.82385">
        <ele>532.8</ele>
        <time>2022-12-31 08:36:14</time>
      </trkpt>
      <trkpt lat="40.05728" lon="-3.82391">
        <ele>532.6</ele>
        <time>2022-12-31 08:36:15</time>
      </trkpt>
      <trkpt lat="40.05723" lon="-3.82397">
        <ele>532.4</ele>
        <time>2022-12-31 08:36:16</time>
      </trkpt>
      <trkpt lat="40.05717" lon="-3.82403">
        <ele>532.2</ele>
        <time>2022-12-31 08:36:17</time>
      </trkpt>
      <trkpt lat="40.05711" lon="-3.82409">
        <ele>532.2</ele>
        <time>2022-12-31 08:36:18</time>
      </trkpt>
      <trkpt lat="40.05705" lon="-3.82414">
        <ele>532</ele>
        <time>2022-12-31 08:36:19</time>
      </trkpt>
      <trkpt lat="40.05699" lon="-3.82419">
        <ele>532</ele>
        <time>2022-12-31 08:36:20</time>
      </trkpt>
      <trkpt lat="40.05693" lon="-3.82424">
        <ele>531.8</ele>
        <time>2022-12-31 08:36:21</time>
      </trkpt>
      <trkpt lat="40.05687" lon="-3.82429">
        <ele>531.4</ele>
        <time>2022-12-31 08:36:22</time>
      </trkpt>
      <trkpt lat="40.05681" lon="-3.82433">
        <ele>531.2</ele>
        <time>2022-12-31 08:36:23</time>
      </trkpt>
      <trkpt lat="40.05675" lon="-3.82437">
        <ele>531.4</ele>
        <time>2022-12-31 08:36:24</time>
      </trkpt>
      <trkpt lat="40.0567" lon="-3.82441">
        <ele>531.2</ele>
        <time>2022-12-31 08:36:25</time>
      </trkpt>
      <trkpt lat="40.05664" lon="-3.82445">
        <ele>531</ele>
        <time>2022-12-31 08:36:26</time>
      </trkpt>
      <trkpt lat="40.05659" lon="-3.8245">
        <ele>530.8</ele>
        <time>2022-12-31 08:36:27</time>
      </trkpt>
      <trkpt lat="40.05654" lon="-3.82454">
        <ele>530.6</ele>
        <time>2022-12-31 08:36:28</time>
      </trkpt>
      <trkpt lat="40.05648" lon="-3.82459">
        <ele>530.4</ele>
        <time>2022-12-31 08:36:29</time>
      </trkpt>
      <trkpt lat="40.05643" lon="-3.82463">
        <ele>530.4</ele>
        <time>2022-12-31 08:36:30</time>
      </trkpt>
      <trkpt lat="40.05638" lon="-3.82468">
        <ele>530.4</ele>
        <time>2022-12-31 08:36:31</time>
      </trkpt>
      <trkpt lat="40.05633" lon="-3.82473">
        <ele>530.6</ele>
        <time>2022-12-31 08:36:32</time>
      </trkpt>
      <trkpt lat="40.05628" lon="-3.82478">
        <ele>530.4</ele>
        <time>2022-12-31 08:36:33</time>
      </trkpt>
      <trkpt lat="40.05623" lon="-3.82483">
        <ele>530.4</ele>
        <time>2022-12-31 08:36:34</time>
      </trkpt>
      <trkpt lat="40.05619" lon="-3.82489">
        <ele>530.4</ele>
        <time>2022-12-31 08:36:35</time>
      </trkpt>
      <trkpt lat="40.05615" lon="-3.82495">
        <ele>530.2</ele>
        <time>2022-12-31 08:36:36</time>
      </trkpt>
      <trkpt lat="40.05611" lon="-3.82501">
        <ele>530.2</ele>
        <time>2022-12-31 08:36:37</time>
      </trkpt>
      <trkpt lat="40.05607" lon="-3.82506">
        <ele>530.4</ele>
        <time>2022-12-31 08:36:38</time>
      </trkpt>
      <trkpt lat="40.05603" lon="-3.82512">
        <ele>530.2</ele>
        <time>2022-12-31 08:36:39</time>
      </trkpt>
      <trkpt lat="40.05599" lon="-3.82517">
        <ele>530.2</ele>
        <time>2022-12-31 08:36:40</time>
      </trkpt>
      <trkpt lat="40.05595" lon="-3.82522">
        <ele>530</ele>
        <time>2022-12-31 08:36:41</time>
      </trkpt>
      <trkpt lat="40.05591" lon="-3.82527">
        <ele>530.2</ele>
        <time>2022-12-31 08:36:42</time>
      </trkpt>
      <trkpt lat="40.05587" lon="-3.82533">
        <ele>530.2</ele>
        <time>2022-12-31 08:36:43</time>
      </trkpt>
      <trkpt lat="40.05583" lon="-3.82538">
        <ele>530.2</ele>
        <time>2022-12-31 08:36:44</time>
      </trkpt>
      <trkpt lat="40.05579" lon="-3.82543">
        <ele>530.2</ele>
        <time>2022-12-31 08:36:45</time>
      </trkpt>
      <trkpt lat="40.05575" lon="-3.82548">
        <ele>530.4</ele>
        <time>2022-12-31 08:36:46</time>
      </trkpt>
      <trkpt lat="40.0557" lon="-3.82553">
        <ele>530.4</ele>
        <time>2022-12-31 08:36:47</time>
      </trkpt>
      <trkpt lat="40.05566" lon="-3.82558">
        <ele>530.4</ele>
        <time>2022-12-31 08:36:48</time>
      </trkpt>
      <trkpt lat="40.05562" lon="-3.82562">
        <ele>530.4</ele>
        <time>2022-12-31 08:36:49</time>
      </trkpt>
      <trkpt lat="40.05557" lon="-3.82567">
        <ele>530.4</ele>
        <time>2022-12-31 08:36:50</time>
      </trkpt>
      <trkpt lat="40.05553" lon="-3.82572">
        <ele>530.4</ele>
        <time>2022-12-31 08:36:51</time>
      </trkpt>
      <trkpt lat="40.05548" lon="-3.82577">
        <ele>530.4</ele>
        <time>2022-12-31 08:36:52</time>
      </trkpt>
      <trkpt lat="40.05544" lon="-3.82582">
        <ele>530.4</ele>
        <time>2022-12-31 08:36:53</time>
      </trkpt>
      <trkpt lat="40.05539" lon="-3.82586">
        <ele>530.6</ele>
        <time>2022-12-31 08:36:54</time>
      </trkpt>
      <trkpt lat="40.05535" lon="-3.82591">
        <ele>530.6</ele>
        <time>2022-12-31 08:36:55</time>
      </trkpt>
      <trkpt lat="40.05531" lon="-3.82597">
        <ele>530.8</ele>
        <time>2022-12-31 08:36:56</time>
      </trkpt>
      <trkpt lat="40.05528" lon="-3.82602">
        <ele>530.8</ele>
        <time>2022-12-31 08:36:57</time>
      </trkpt>
      <trkpt lat="40.05524" lon="-3.82608">
        <ele>531</ele>
        <time>2022-12-31 08:36:58</time>
      </trkpt>
      <trkpt lat="40.05522" lon="-3.82614">
        <ele>531.2</ele>
        <time>2022-12-31 08:36:59</time>
      </trkpt>
      <trkpt lat="40.05519" lon="-3.8262">
        <ele>531.4</ele>
        <time>2022-12-31 08:37:00</time>
      </trkpt>
      <trkpt lat="40.05516" lon="-3.82626">
        <ele>531.4</ele>
        <time>2022-12-31 08:37:01</time>
      </trkpt>
      <trkpt lat="40.05513" lon="-3.82633">
        <ele>531.6</ele>
        <time>2022-12-31 08:37:02</time>
      </trkpt>
      <trkpt lat="40.0551" lon="-3.82639">
        <ele>531.8</ele>
        <time>2022-12-31 08:37:03</time>
      </trkpt>
      <trkpt lat="40.05507" lon="-3.82646">
        <ele>532</ele>
        <time>2022-12-31 08:37:04</time>
      </trkpt>
      <trkpt lat="40.05504" lon="-3.82653">
        <ele>532</ele>
        <time>2022-12-31 08:37:05</time>
      </trkpt>
      <trkpt lat="40.055" lon="-3.82659">
        <ele>532</ele>
        <time>2022-12-31 08:37:06</time>
      </trkpt>
      <trkpt lat="40.05496" lon="-3.82666">
        <ele>532.2</ele>
        <time>2022-12-31 08:37:07</time>
      </trkpt>
      <trkpt lat="40.05492" lon="-3.82672">
        <ele>532.2</ele>
        <time>2022-12-31 08:37:08</time>
      </trkpt>
      <trkpt lat="40.05487" lon="-3.82679">
        <ele>532.2</ele>
        <time>2022-12-31 08:37:09</time>
      </trkpt>
      <trkpt lat="40.05482" lon="-3.82685">
        <ele>532.2</ele>
        <time>2022-12-31 08:37:10</time>
      </trkpt>
      <trkpt lat="40.05476" lon="-3.82691">
        <ele>532.2</ele>
        <time>2022-12-31 08:37:11</time>
      </trkpt>
      <trkpt lat="40.0547" lon="-3.82696">
        <ele>532.2</ele>
        <time>2022-12-31 08:37:12</time>
      </trkpt>
      <trkpt lat="40.05464" lon="-3.82702">
        <ele>532.2</ele>
        <time>2022-12-31 08:37:13</time>
      </trkpt>
      <trkpt lat="40.05458" lon="-3.82708">
        <ele>532</ele>
        <time>2022-12-31 08:37:14</time>
      </trkpt>
      <trkpt lat="40.05452" lon="-3.82713">
        <ele>531.8</ele>
        <time>2022-12-31 08:37:15</time>
      </trkpt>
      <trkpt lat="40.05446" lon="-3.82719">
        <ele>531.8</ele>
        <time>2022-12-31 08:37:16</time>
      </trkpt>
      <trkpt lat="40.05439" lon="-3.82724">
        <ele>531.2</ele>
        <time>2022-12-31 08:37:17</time>
      </trkpt>
      <trkpt lat="40.05433" lon="-3.8273">
        <ele>530.8</ele>
        <time>2022-12-31 08:37:18</time>
      </trkpt>
      <trkpt lat="40.05427" lon="-3.82735">
        <ele>530.2</ele>
        <time>2022-12-31 08:37:19</time>
      </trkpt>
      <trkpt lat="40.0542" lon="-3.8274">
        <ele>530</ele>
        <time>2022-12-31 08:37:20</time>
      </trkpt>
      <trkpt lat="40.05413" lon="-3.82746">
        <ele>529.6</ele>
        <time>2022-12-31 08:37:21</time>
      </trkpt>
      <trkpt lat="40.05406" lon="-3.82752">
        <ele>528.8</ele>
        <time>2022-12-31 08:37:22</time>
      </trkpt>
      <trkpt lat="40.054" lon="-3.82758">
        <ele>528.6</ele>
        <time>2022-12-31 08:37:23</time>
      </trkpt>
      <trkpt lat="40.05394" lon="-3.82765">
        <ele>528.4</ele>
        <time>2022-12-31 08:37:24</time>
      </trkpt>
      <trkpt lat="40.05388" lon="-3.82773">
        <ele>528.2</ele>
        <time>2022-12-31 08:37:25</time>
      </trkpt>
      <trkpt lat="40.05383" lon="-3.8278">
        <ele>527.8</ele>
        <time>2022-12-31 08:37:26</time>
      </trkpt>
      <trkpt lat="40.05377" lon="-3.82787">
        <ele>527.4</ele>
        <time>2022-12-31 08:37:27</time>
      </trkpt>
      <trkpt lat="40.0537" lon="-3.82793">
        <ele>527.2</ele>
        <time>2022-12-31 08:37:28</time>
      </trkpt>
      <trkpt lat="40.05364" lon="-3.828">
        <ele>527.2</ele>
        <time>2022-12-31 08:37:29</time>
      </trkpt>
      <trkpt lat="40.05358" lon="-3.82806">
        <ele>526.4</ele>
        <time>2022-12-31 08:37:30</time>
      </trkpt>
      <trkpt lat="40.05351" lon="-3.82813">
        <ele>526.2</ele>
        <time>2022-12-31 08:37:31</time>
      </trkpt>
      <trkpt lat="40.05345" lon="-3.82819">
        <ele>525.8</ele>
        <time>2022-12-31 08:37:32</time>
      </trkpt>
      <trkpt lat="40.05339" lon="-3.82826">
        <ele>525.8</ele>
        <time>2022-12-31 08:37:33</time>
      </trkpt>
      <trkpt lat="40.05332" lon="-3.82832">
        <ele>525.4</ele>
        <time>2022-12-31 08:37:34</time>
      </trkpt>
      <trkpt lat="40.05326" lon="-3.82838">
        <ele>525</ele>
        <time>2022-12-31 08:37:35</time>
      </trkpt>
      <trkpt lat="40.0532" lon="-3.82845">
        <ele>524.6</ele>
        <time>2022-12-31 08:37:36</time>
      </trkpt>
      <trkpt lat="40.05314" lon="-3.82851">
        <ele>524.4</ele>
        <time>2022-12-31 08:37:37</time>
      </trkpt>
      <trkpt lat="40.05308" lon="-3.82858">
        <ele>524.4</ele>
        <time>2022-12-31 08:37:38</time>
      </trkpt>
      <trkpt lat="40.05302" lon="-3.82864">
        <ele>524</ele>
        <time>2022-12-31 08:37:39</time>
      </trkpt>
      <trkpt lat="40.05296" lon="-3.82871">
        <ele>523.8</ele>
        <time>2022-12-31 08:37:40</time>
      </trkpt>
      <trkpt lat="40.05291" lon="-3.82879">
        <ele>523.6</ele>
        <time>2022-12-31 08:37:41</time>
      </trkpt>
      <trkpt lat="40.05285" lon="-3.82886">
        <ele>523.4</ele>
        <time>2022-12-31 08:37:42</time>
      </trkpt>
      <trkpt lat="40.0528" lon="-3.82894">
        <ele>523.4</ele>
        <time>2022-12-31 08:37:43</time>
      </trkpt>
      <trkpt lat="40.05275" lon="-3.82901">
        <ele>523.2</ele>
        <time>2022-12-31 08:37:44</time>
      </trkpt>
      <trkpt lat="40.05269" lon="-3.82908">
        <ele>523.2</ele>
        <time>2022-12-31 08:37:45</time>
      </trkpt>
      <trkpt lat="40.05264" lon="-3.82915">
        <ele>522.8</ele>
        <time>2022-12-31 08:37:46</time>
      </trkpt>
      <trkpt lat="40.05258" lon="-3.82921">
        <ele>522.4</ele>
        <time>2022-12-31 08:37:47</time>
      </trkpt>
      <trkpt lat="40.05252" lon="-3.82928">
        <ele>522.4</ele>
        <time>2022-12-31 08:37:48</time>
      </trkpt>
      <trkpt lat="40.05246" lon="-3.82933">
        <ele>522.2</ele>
        <time>2022-12-31 08:37:49</time>
      </trkpt>
      <trkpt lat="40.0524" lon="-3.82939">
        <ele>522</ele>
        <time>2022-12-31 08:37:50</time>
      </trkpt>
      <trkpt lat="40.05234" lon="-3.82945">
        <ele>521.8</ele>
        <time>2022-12-31 08:37:51</time>
      </trkpt>
      <trkpt lat="40.05228" lon="-3.82951">
        <ele>521.8</ele>
        <time>2022-12-31 08:37:52</time>
      </trkpt>
      <trkpt lat="40.05222" lon="-3.82956">
        <ele>521.6</ele>
        <time>2022-12-31 08:37:53</time>
      </trkpt>
      <trkpt lat="40.05217" lon="-3.82962">
        <ele>521.4</ele>
        <time>2022-12-31 08:37:54</time>
      </trkpt>
      <trkpt lat="40.05211" lon="-3.82967">
        <ele>521.4</ele>
        <time>2022-12-31 08:37:55</time>
      </trkpt>
      <trkpt lat="40.05206" lon="-3.82973">
        <ele>521.4</ele>
        <time>2022-12-31 08:37:56</time>
      </trkpt>
      <trkpt lat="40.05201" lon="-3.82978">
        <ele>521.4</ele>
        <time>2022-12-31 08:37:57</time>
      </trkpt>
      <trkpt lat="40.05195" lon="-3.82983">
        <ele>521.4</ele>
        <time>2022-12-31 08:37:58</time>
      </trkpt>
      <trkpt lat="40.05191" lon="-3.82989">
        <ele>521.4</ele>
        <time>2022-12-31 08:37:59</time>
      </trkpt>
      <trkpt lat="40.05185" lon="-3.82993">
        <ele>521.2</ele>
        <time>2022-12-31 08:38:00</time>
      </trkpt>
      <trkpt lat="40.0518" lon="-3.82998">
        <ele>521.4</ele>
        <time>2022-12-31 08:38:01</time>
      </trkpt>
      <trkpt lat="40.05174" lon="-3.83002">
        <ele>521.4</ele>
        <time>2022-12-31 08:38:02</time>
      </trkpt>
      <trkpt lat="40.05169" lon="-3.83007">
        <ele>521.2</ele>
        <time>2022-12-31 08:38:03</time>
      </trkpt>
      <trkpt lat="40.05164" lon="-3.83011">
        <ele>521.4</ele>
        <time>2022-12-31 08:38:04</time>
      </trkpt>
      <trkpt lat="40.0516" lon="-3.83015">
        <ele>521.4</ele>
        <time>2022-12-31 08:38:05</time>
      </trkpt>
      <trkpt lat="40.05155" lon="-3.8302">
        <ele>521.6</ele>
        <time>2022-12-31 08:38:06</time>
      </trkpt>
      <trkpt lat="40.0515" lon="-3.83025">
        <ele>521.6</ele>
        <time>2022-12-31 08:38:07</time>
      </trkpt>
      <trkpt lat="40.05146" lon="-3.8303">
        <ele>521.6</ele>
        <time>2022-12-31 08:38:08</time>
      </trkpt>
      <trkpt lat="40.05141" lon="-3.83035">
        <ele>521.8</ele>
        <time>2022-12-31 08:38:09</time>
      </trkpt>
      <trkpt lat="40.05136" lon="-3.8304">
        <ele>521.6</ele>
        <time>2022-12-31 08:38:10</time>
      </trkpt>
      <trkpt lat="40.05131" lon="-3.83044">
        <ele>521.8</ele>
        <time>2022-12-31 08:38:11</time>
      </trkpt>
      <trkpt lat="40.05126" lon="-3.83049">
        <ele>521.8</ele>
        <time>2022-12-31 08:38:12</time>
      </trkpt>
      <trkpt lat="40.05122" lon="-3.83054">
        <ele>521.8</ele>
        <time>2022-12-31 08:38:13</time>
      </trkpt>
      <trkpt lat="40.05117" lon="-3.83059">
        <ele>522</ele>
        <time>2022-12-31 08:38:14</time>
      </trkpt>
      <trkpt lat="40.05112" lon="-3.83064">
        <ele>522</ele>
        <time>2022-12-31 08:38:15</time>
      </trkpt>
      <trkpt lat="40.05108" lon="-3.83069">
        <ele>522</ele>
        <time>2022-12-31 08:38:16</time>
      </trkpt>
      <trkpt lat="40.05103" lon="-3.83075">
        <ele>522.2</ele>
        <time>2022-12-31 08:38:17</time>
      </trkpt>
      <trkpt lat="40.05098" lon="-3.8308">
        <ele>522.2</ele>
        <time>2022-12-31 08:38:18</time>
      </trkpt>
      <trkpt lat="40.05094" lon="-3.83086">
        <ele>522.2</ele>
        <time>2022-12-31 08:38:19</time>
      </trkpt>
      <trkpt lat="40.0509" lon="-3.83091">
        <ele>522.4</ele>
        <time>2022-12-31 08:38:20</time>
      </trkpt>
      <trkpt lat="40.05086" lon="-3.83097">
        <ele>522.6</ele>
        <time>2022-12-31 08:38:21</time>
      </trkpt>
      <trkpt lat="40.05082" lon="-3.83102">
        <ele>522.6</ele>
        <time>2022-12-31 08:38:22</time>
      </trkpt>
      <trkpt lat="40.05078" lon="-3.83108">
        <ele>522.8</ele>
        <time>2022-12-31 08:38:23</time>
      </trkpt>
      <trkpt lat="40.05074" lon="-3.83113">
        <ele>522.8</ele>
        <time>2022-12-31 08:38:24</time>
      </trkpt>
      <trkpt lat="40.0507" lon="-3.83119">
        <ele>523</ele>
        <time>2022-12-31 08:38:25</time>
      </trkpt>
      <trkpt lat="40.05066" lon="-3.83124">
        <ele>523.2</ele>
        <time>2022-12-31 08:38:26</time>
      </trkpt>
      <trkpt lat="40.05062" lon="-3.8313">
        <ele>523.2</ele>
        <time>2022-12-31 08:38:27</time>
      </trkpt>
      <trkpt lat="40.05058" lon="-3.83135">
        <ele>523.2</ele>
        <time>2022-12-31 08:38:28</time>
      </trkpt>
      <trkpt lat="40.05054" lon="-3.83141">
        <ele>523.4</ele>
        <time>2022-12-31 08:38:29</time>
      </trkpt>
      <trkpt lat="40.0505" lon="-3.83147">
        <ele>523.6</ele>
        <time>2022-12-31 08:38:30</time>
      </trkpt>
      <trkpt lat="40.05047" lon="-3.83152">
        <ele>523.8</ele>
        <time>2022-12-31 08:38:31</time>
      </trkpt>
      <trkpt lat="40.05043" lon="-3.83158">
        <ele>523.8</ele>
        <time>2022-12-31 08:38:32</time>
      </trkpt>
      <trkpt lat="40.05039" lon="-3.83163">
        <ele>524</ele>
        <time>2022-12-31 08:38:33</time>
      </trkpt>
      <trkpt lat="40.05035" lon="-3.83169">
        <ele>524.2</ele>
        <time>2022-12-31 08:38:34</time>
      </trkpt>
      <trkpt lat="40.05031" lon="-3.83175">
        <ele>524.2</ele>
        <time>2022-12-31 08:38:35</time>
      </trkpt>
      <trkpt lat="40.05028" lon="-3.83181">
        <ele>524.4</ele>
        <time>2022-12-31 08:38:36</time>
      </trkpt>
      <trkpt lat="40.05024" lon="-3.83186">
        <ele>524.4</ele>
        <time>2022-12-31 08:38:37</time>
      </trkpt>
      <trkpt lat="40.0502" lon="-3.83191">
        <ele>524.6</ele>
        <time>2022-12-31 08:38:38</time>
      </trkpt>
      <trkpt lat="40.05017" lon="-3.83196">
        <ele>524.6</ele>
        <time>2022-12-31 08:38:39</time>
      </trkpt>
      <trkpt lat="40.05013" lon="-3.83201">
        <ele>524.6</ele>
        <time>2022-12-31 08:38:40</time>
      </trkpt>
      <trkpt lat="40.05009" lon="-3.83206">
        <ele>524.6</ele>
        <time>2022-12-31 08:38:41</time>
      </trkpt>
      <trkpt lat="40.05006" lon="-3.83211">
        <ele>524.8</ele>
        <time>2022-12-31 08:38:42</time>
      </trkpt>
      <trkpt lat="40.05002" lon="-3.83216">
        <ele>525</ele>
        <time>2022-12-31 08:38:43</time>
      </trkpt>
      <trkpt lat="40.04998" lon="-3.8322">
        <ele>525.2</ele>
        <time>2022-12-31 08:38:44</time>
      </trkpt>
      <trkpt lat="40.04993" lon="-3.83225">
        <ele>525.4</ele>
        <time>2022-12-31 08:38:45</time>
      </trkpt>
      <trkpt lat="40.04988" lon="-3.83229">
        <ele>525.8</ele>
        <time>2022-12-31 08:38:46</time>
      </trkpt>
      <trkpt lat="40.04984" lon="-3.83232">
        <ele>525.8</ele>
        <time>2022-12-31 08:38:47</time>
      </trkpt>
      <trkpt lat="40.04979" lon="-3.83236">
        <ele>525.8</ele>
        <time>2022-12-31 08:38:48</time>
      </trkpt>
      <trkpt lat="40.04974" lon="-3.8324">
        <ele>526</ele>
        <time>2022-12-31 08:38:49</time>
      </trkpt>
      <trkpt lat="40.0497" lon="-3.83245">
        <ele>526.2</ele>
        <time>2022-12-31 08:38:50</time>
      </trkpt>
      <trkpt lat="40.04965" lon="-3.8325">
        <ele>526.2</ele>
        <time>2022-12-31 08:38:51</time>
      </trkpt>
      <trkpt lat="40.04961" lon="-3.83255">
        <ele>526.4</ele>
        <time>2022-12-31 08:38:52</time>
      </trkpt>
      <trkpt lat="40.04956" lon="-3.83259">
        <ele>526.2</ele>
        <time>2022-12-31 08:38:53</time>
      </trkpt>
      <trkpt lat="40.04951" lon="-3.83265">
        <ele>526.4</ele>
        <time>2022-12-31 08:38:54</time>
      </trkpt>
      <trkpt lat="40.04947" lon="-3.83269">
        <ele>526.4</ele>
        <time>2022-12-31 08:38:55</time>
      </trkpt>
      <trkpt lat="40.04942" lon="-3.83274">
        <ele>526.2</ele>
        <time>2022-12-31 08:38:56</time>
      </trkpt>
      <trkpt lat="40.04937" lon="-3.83278">
        <ele>526.4</ele>
        <time>2022-12-31 08:38:57</time>
      </trkpt>
      <trkpt lat="40.04933" lon="-3.83282">
        <ele>526.4</ele>
        <time>2022-12-31 08:38:58</time>
      </trkpt>
      <trkpt lat="40.04928" lon="-3.83287">
        <ele>526.2</ele>
        <time>2022-12-31 08:38:59</time>
      </trkpt>
      <trkpt lat="40.04923" lon="-3.83292">
        <ele>526.2</ele>
        <time>2022-12-31 08:39:00</time>
      </trkpt>
      <trkpt lat="40.04919" lon="-3.83296">
        <ele>526.2</ele>
        <time>2022-12-31 08:39:01</time>
      </trkpt>
      <trkpt lat="40.04914" lon="-3.833">
        <ele>526.2</ele>
        <time>2022-12-31 08:39:02</time>
      </trkpt>
      <trkpt lat="40.04909" lon="-3.83304">
        <ele>526.2</ele>
        <time>2022-12-31 08:39:03</time>
      </trkpt>
      <trkpt lat="40.04904" lon="-3.83309">
        <ele>526.2</ele>
        <time>2022-12-31 08:39:04</time>
      </trkpt>
      <trkpt lat="40.04899" lon="-3.83313">
        <ele>526.2</ele>
        <time>2022-12-31 08:39:05</time>
      </trkpt>
      <trkpt lat="40.04895" lon="-3.83317">
        <ele>526.2</ele>
        <time>2022-12-31 08:39:06</time>
      </trkpt>
      <trkpt lat="40.0489" lon="-3.83321">
        <ele>526.2</ele>
        <time>2022-12-31 08:39:07</time>
      </trkpt>
      <trkpt lat="40.04886" lon="-3.83325">
        <ele>526.2</ele>
        <time>2022-12-31 08:39:08</time>
      </trkpt>
      <trkpt lat="40.04881" lon="-3.83329">
        <ele>526</ele>
        <time>2022-12-31 08:39:09</time>
      </trkpt>
      <trkpt lat="40.04876" lon="-3.83333">
        <ele>526.2</ele>
        <time>2022-12-31 08:39:10</time>
      </trkpt>
      <trkpt lat="40.04871" lon="-3.83337">
        <ele>526.2</ele>
        <time>2022-12-31 08:39:11</time>
      </trkpt>
      <trkpt lat="40.04866" lon="-3.83341">
        <ele>526.2</ele>
        <time>2022-12-31 08:39:12</time>
      </trkpt>
      <trkpt lat="40.0486" lon="-3.83345">
        <ele>526.2</ele>
        <time>2022-12-31 08:39:13</time>
      </trkpt>
      <trkpt lat="40.04855" lon="-3.83349">
        <ele>526</ele>
        <time>2022-12-31 08:39:14</time>
      </trkpt>
      <trkpt lat="40.04851" lon="-3.83352">
        <ele>526</ele>
        <time>2022-12-31 08:39:15</time>
      </trkpt>
      <trkpt lat="40.04846" lon="-3.83355">
        <ele>526</ele>
        <time>2022-12-31 08:39:16</time>
      </trkpt>
      <trkpt lat="40.04842" lon="-3.83359">
        <ele>526</ele>
        <time>2022-12-31 08:39:17</time>
      </trkpt>
      <trkpt lat="40.04837" lon="-3.83362">
        <ele>526</ele>
        <time>2022-12-31 08:39:18</time>
      </trkpt>
      <trkpt lat="40.04832" lon="-3.83365">
        <ele>526</ele>
        <time>2022-12-31 08:39:19</time>
      </trkpt>
      <trkpt lat="40.04827" lon="-3.83369">
        <ele>526.2</ele>
        <time>2022-12-31 08:39:20</time>
      </trkpt>
      <trkpt lat="40.04822" lon="-3.83372">
        <ele>526</ele>
        <time>2022-12-31 08:39:21</time>
      </trkpt>
      <trkpt lat="40.04817" lon="-3.83376">
        <ele>526</ele>
        <time>2022-12-31 08:39:22</time>
      </trkpt>
      <trkpt lat="40.04811" lon="-3.8338">
        <ele>526</ele>
        <time>2022-12-31 08:39:23</time>
      </trkpt>
      <trkpt lat="40.04806" lon="-3.83384">
        <ele>525.8</ele>
        <time>2022-12-31 08:39:24</time>
      </trkpt>
      <trkpt lat="40.04801" lon="-3.83388">
        <ele>525.8</ele>
        <time>2022-12-31 08:39:25</time>
      </trkpt>
      <trkpt lat="40.04795" lon="-3.83392">
        <ele>525.8</ele>
        <time>2022-12-31 08:39:26</time>
      </trkpt>
      <trkpt lat="40.0479" lon="-3.83396">
        <ele>525.8</ele>
        <time>2022-12-31 08:39:27</time>
      </trkpt>
      <trkpt lat="40.04785" lon="-3.834">
        <ele>525.8</ele>
        <time>2022-12-31 08:39:28</time>
      </trkpt>
      <trkpt lat="40.04779" lon="-3.83405">
        <ele>525.8</ele>
        <time>2022-12-31 08:39:29</time>
      </trkpt>
      <trkpt lat="40.04774" lon="-3.83409">
        <ele>525.8</ele>
        <time>2022-12-31 08:39:30</time>
      </trkpt>
      <trkpt lat="40.04769" lon="-3.83414">
        <ele>525.8</ele>
        <time>2022-12-31 08:39:31</time>
      </trkpt>
      <trkpt lat="40.04763" lon="-3.83418">
        <ele>525.8</ele>
        <time>2022-12-31 08:39:32</time>
      </trkpt>
      <trkpt lat="40.04757" lon="-3.83423">
        <ele>525.6</ele>
        <time>2022-12-31 08:39:33</time>
      </trkpt>
      <trkpt lat="40.04752" lon="-3.83427">
        <ele>525.4</ele>
        <time>2022-12-31 08:39:34</time>
      </trkpt>
      <trkpt lat="40.04746" lon="-3.83432">
        <ele>525.4</ele>
        <time>2022-12-31 08:39:35</time>
      </trkpt>
      <trkpt lat="40.0474" lon="-3.83436">
        <ele>525.4</ele>
        <time>2022-12-31 08:39:36</time>
      </trkpt>
      <trkpt lat="40.04734" lon="-3.8344">
        <ele>525.2</ele>
        <time>2022-12-31 08:39:37</time>
      </trkpt>
      <trkpt lat="40.04728" lon="-3.83443">
        <ele>525</ele>
        <time>2022-12-31 08:39:38</time>
      </trkpt>
      <trkpt lat="40.04722" lon="-3.83447">
        <ele>524.8</ele>
        <time>2022-12-31 08:39:39</time>
      </trkpt>
      <trkpt lat="40.04716" lon="-3.8345">
        <ele>524.8</ele>
        <time>2022-12-31 08:39:40</time>
      </trkpt>
      <trkpt lat="40.0471" lon="-3.83454">
        <ele>524.8</ele>
        <time>2022-12-31 08:39:41</time>
      </trkpt>
      <trkpt lat="40.04704" lon="-3.83457">
        <ele>524.6</ele>
        <time>2022-12-31 08:39:42</time>
      </trkpt>
      <trkpt lat="40.04698" lon="-3.83461">
        <ele>524.4</ele>
        <time>2022-12-31 08:39:43</time>
      </trkpt>
      <trkpt lat="40.04693" lon="-3.83465">
        <ele>524.4</ele>
        <time>2022-12-31 08:39:44</time>
      </trkpt>
      <trkpt lat="40.04687" lon="-3.83469">
        <ele>524.2</ele>
        <time>2022-12-31 08:39:45</time>
      </trkpt>
      <trkpt lat="40.04682" lon="-3.83474">
        <ele>524.2</ele>
        <time>2022-12-31 08:39:46</time>
      </trkpt>
      <trkpt lat="40.04678" lon="-3.83479">
        <ele>524.2</ele>
        <time>2022-12-31 08:39:47</time>
      </trkpt>
      <trkpt lat="40.04673" lon="-3.83484">
        <ele>524.2</ele>
        <time>2022-12-31 08:39:48</time>
      </trkpt>
      <trkpt lat="40.04668" lon="-3.83489">
        <ele>524</ele>
        <time>2022-12-31 08:39:49</time>
      </trkpt>
      <trkpt lat="40.04663" lon="-3.83494">
        <ele>523.8</ele>
        <time>2022-12-31 08:39:50</time>
      </trkpt>
      <trkpt lat="40.04658" lon="-3.83499">
        <ele>523.8</ele>
        <time>2022-12-31 08:39:51</time>
      </trkpt>
      <trkpt lat="40.04654" lon="-3.83504">
        <ele>523.6</ele>
        <time>2022-12-31 08:39:52</time>
      </trkpt>
      <trkpt lat="40.0465" lon="-3.83509">
        <ele>523.6</ele>
        <time>2022-12-31 08:39:53</time>
      </trkpt>
      <trkpt lat="40.04648" lon="-3.83513">
        <ele>523.6</ele>
        <time>2022-12-31 08:39:54</time>
      </trkpt>
      <trkpt lat="40.04646" lon="-3.83516">
        <ele>523.4</ele>
        <time>2022-12-31 08:39:55</time>
      </trkpt>
      <trkpt lat="40.04646" lon="-3.83518">
        <ele>523.4</ele>
        <time>2022-12-31 08:39:56</time>
      </trkpt>
      <trkpt lat="40.04646" lon="-3.8352">
        <ele>523.4</ele>
        <time>2022-12-31 08:39:57</time>
      </trkpt>
      <trkpt lat="40.04646" lon="-3.83522">
        <ele>523.6</ele>
        <time>2022-12-31 08:39:58</time>
      </trkpt>
      <trkpt lat="40.04645" lon="-3.83524">
        <ele>523.6</ele>
        <time>2022-12-31 08:39:59</time>
      </trkpt>
      <trkpt lat="40.04643" lon="-3.83526">
        <ele>523.4</ele>
        <time>2022-12-31 08:40:00</time>
      </trkpt>
      <trkpt lat="40.0464" lon="-3.83528">
        <ele>523.4</ele>
        <time>2022-12-31 08:40:01</time>
      </trkpt>
      <trkpt lat="40.04637" lon="-3.8353">
        <ele>523.4</ele>
        <time>2022-12-31 08:40:02</time>
      </trkpt>
      <trkpt lat="40.04634" lon="-3.83532">
        <ele>523.4</ele>
        <time>2022-12-31 08:40:03</time>
      </trkpt>
      <trkpt lat="40.0463" lon="-3.83535">
        <ele>523.6</ele>
        <time>2022-12-31 08:40:04</time>
      </trkpt>
      <trkpt lat="40.04626" lon="-3.83537">
        <ele>523.6</ele>
        <time>2022-12-31 08:40:05</time>
      </trkpt>
      <trkpt lat="40.04622" lon="-3.8354">
        <ele>523.6</ele>
        <time>2022-12-31 08:40:06</time>
      </trkpt>
      <trkpt lat="40.04619" lon="-3.83543">
        <ele>523.8</ele>
        <time>2022-12-31 08:40:07</time>
      </trkpt>
      <trkpt lat="40.04615" lon="-3.83547">
        <ele>523.8</ele>
        <time>2022-12-31 08:40:08</time>
      </trkpt>
      <trkpt lat="40.04612" lon="-3.8355">
        <ele>523.8</ele>
        <time>2022-12-31 08:40:09</time>
      </trkpt>
      <trkpt lat="40.04608" lon="-3.83553">
        <ele>524</ele>
        <time>2022-12-31 08:40:10</time>
      </trkpt>
      <trkpt lat="40.04604" lon="-3.83556">
        <ele>524</ele>
        <time>2022-12-31 08:40:11</time>
      </trkpt>
      <trkpt lat="40.046" lon="-3.8356">
        <ele>524</ele>
        <time>2022-12-31 08:40:12</time>
      </trkpt>
      <trkpt lat="40.04596" lon="-3.83564">
        <ele>524</ele>
        <time>2022-12-31 08:40:13</time>
      </trkpt>
      <trkpt lat="40.04592" lon="-3.83568">
        <ele>524</ele>
        <time>2022-12-31 08:40:14</time>
      </trkpt>
      <trkpt lat="40.04588" lon="-3.83572">
        <ele>524</ele>
        <time>2022-12-31 08:40:15</time>
      </trkpt>
      <trkpt lat="40.04584" lon="-3.83576">
        <ele>524</ele>
        <time>2022-12-31 08:40:16</time>
      </trkpt>
      <trkpt lat="40.04579" lon="-3.83581">
        <ele>523.8</ele>
        <time>2022-12-31 08:40:17</time>
      </trkpt>
      <trkpt lat="40.04575" lon="-3.83585">
        <ele>524</ele>
        <time>2022-12-31 08:40:18</time>
      </trkpt>
      <trkpt lat="40.04572" lon="-3.8359">
        <ele>523.8</ele>
        <time>2022-12-31 08:40:19</time>
      </trkpt>
      <trkpt lat="40.04568" lon="-3.83595">
        <ele>523.8</ele>
        <time>2022-12-31 08:40:20</time>
      </trkpt>
      <trkpt lat="40.04566" lon="-3.83601">
        <ele>523.8</ele>
        <time>2022-12-31 08:40:21</time>
      </trkpt>
      <trkpt lat="40.04563" lon="-3.83608">
        <ele>523.6</ele>
        <time>2022-12-31 08:40:22</time>
      </trkpt>
      <trkpt lat="40.04561" lon="-3.83615">
        <ele>523.6</ele>
        <time>2022-12-31 08:40:23</time>
      </trkpt>
      <trkpt lat="40.04559" lon="-3.83624">
        <ele>523.4</ele>
        <time>2022-12-31 08:40:24</time>
      </trkpt>
      <trkpt lat="40.04557" lon="-3.83632">
        <ele>523.4</ele>
        <time>2022-12-31 08:40:25</time>
      </trkpt>
      <trkpt lat="40.04555" lon="-3.83641">
        <ele>523.4</ele>
        <time>2022-12-31 08:40:26</time>
      </trkpt>
      <trkpt lat="40.04553" lon="-3.83649">
        <ele>523.2</ele>
        <time>2022-12-31 08:40:27</time>
      </trkpt>
      <trkpt lat="40.04551" lon="-3.83657">
        <ele>523.2</ele>
        <time>2022-12-31 08:40:28</time>
      </trkpt>
      <trkpt lat="40.04549" lon="-3.83665">
        <ele>523.2</ele>
        <time>2022-12-31 08:40:29</time>
      </trkpt>
      <trkpt lat="40.04546" lon="-3.83674">
        <ele>522.8</ele>
        <time>2022-12-31 08:40:30</time>
      </trkpt>
      <trkpt lat="40.04544" lon="-3.83682">
        <ele>522.6</ele>
        <time>2022-12-31 08:40:31</time>
      </trkpt>
      <trkpt lat="40.04541" lon="-3.8369">
        <ele>522.4</ele>
        <time>2022-12-31 08:40:32</time>
      </trkpt>
      <trkpt lat="40.04538" lon="-3.83699">
        <ele>522</ele>
        <time>2022-12-31 08:40:33</time>
      </trkpt>
      <trkpt lat="40.04536" lon="-3.83707">
        <ele>521.4</ele>
        <time>2022-12-31 08:40:34</time>
      </trkpt>
      <trkpt lat="40.04534" lon="-3.83715">
        <ele>521.2</ele>
        <time>2022-12-31 08:40:35</time>
      </trkpt>
      <trkpt lat="40.04531" lon="-3.83723">
        <ele>520.8</ele>
        <time>2022-12-31 08:40:36</time>
      </trkpt>
      <trkpt lat="40.04529" lon="-3.83731">
        <ele>520.4</ele>
        <time>2022-12-31 08:40:37</time>
      </trkpt>
      <trkpt lat="40.04527" lon="-3.8374">
        <ele>520.4</ele>
        <time>2022-12-31 08:40:38</time>
      </trkpt>
      <trkpt lat="40.04525" lon="-3.83748">
        <ele>520</ele>
        <time>2022-12-31 08:40:39</time>
      </trkpt>
      <trkpt lat="40.04522" lon="-3.83757">
        <ele>519.8</ele>
        <time>2022-12-31 08:40:40</time>
      </trkpt>
      <trkpt lat="40.0452" lon="-3.83766">
        <ele>519.6</ele>
        <time>2022-12-31 08:40:41</time>
      </trkpt>
      <trkpt lat="40.04517" lon="-3.83774">
        <ele>519.4</ele>
        <time>2022-12-31 08:40:42</time>
      </trkpt>
      <trkpt lat="40.04514" lon="-3.83782">
        <ele>519.4</ele>
        <time>2022-12-31 08:40:43</time>
      </trkpt>
      <trkpt lat="40.04509" lon="-3.83789">
        <ele>519</ele>
        <time>2022-12-31 08:40:44</time>
      </trkpt>
      <trkpt lat="40.04505" lon="-3.83797">
        <ele>518.6</ele>
        <time>2022-12-31 08:40:45</time>
      </trkpt>
      <trkpt lat="40.04501" lon="-3.83804">
        <ele>518.6</ele>
        <time>2022-12-31 08:40:46</time>
      </trkpt>
      <trkpt lat="40.04495" lon="-3.8381">
        <ele>518.4</ele>
        <time>2022-12-31 08:40:47</time>
      </trkpt>
      <trkpt lat="40.04489" lon="-3.83816">
        <ele>518</ele>
        <time>2022-12-31 08:40:48</time>
      </trkpt>
      <trkpt lat="40.04483" lon="-3.83821">
        <ele>517.8</ele>
        <time>2022-12-31 08:40:49</time>
      </trkpt>
      <trkpt lat="40.04477" lon="-3.83828">
        <ele>517.6</ele>
        <time>2022-12-31 08:40:50</time>
      </trkpt>
      <trkpt lat="40.04471" lon="-3.83833">
        <ele>517.4</ele>
        <time>2022-12-31 08:40:51</time>
      </trkpt>
      <trkpt lat="40.04464" lon="-3.83839">
        <ele>517.2</ele>
        <time>2022-12-31 08:40:52</time>
      </trkpt>
      <trkpt lat="40.04457" lon="-3.83843">
        <ele>516.8</ele>
        <time>2022-12-31 08:40:53</time>
      </trkpt>
      <trkpt lat="40.0445" lon="-3.83847">
        <ele>516.8</ele>
        <time>2022-12-31 08:40:54</time>
      </trkpt>
      <trkpt lat="40.04444" lon="-3.83851">
        <ele>516.6</ele>
        <time>2022-12-31 08:40:55</time>
      </trkpt>
      <trkpt lat="40.04437" lon="-3.83855">
        <ele>516.4</ele>
        <time>2022-12-31 08:40:56</time>
      </trkpt>
      <trkpt lat="40.0443" lon="-3.83858">
        <ele>516.2</ele>
        <time>2022-12-31 08:40:57</time>
      </trkpt>
      <trkpt lat="40.04424" lon="-3.83862">
        <ele>516</ele>
        <time>2022-12-31 08:40:58</time>
      </trkpt>
      <trkpt lat="40.04417" lon="-3.83866">
        <ele>515.8</ele>
        <time>2022-12-31 08:40:59</time>
      </trkpt>
      <trkpt lat="40.0441" lon="-3.8387">
        <ele>515.8</ele>
        <time>2022-12-31 08:41:00</time>
      </trkpt>
      <trkpt lat="40.04403" lon="-3.83873">
        <ele>515.6</ele>
        <time>2022-12-31 08:41:01</time>
      </trkpt>
      <trkpt lat="40.04396" lon="-3.83876">
        <ele>515.4</ele>
        <time>2022-12-31 08:41:02</time>
      </trkpt>
      <trkpt lat="40.04388" lon="-3.8388">
        <ele>515</ele>
        <time>2022-12-31 08:41:03</time>
      </trkpt>
      <trkpt lat="40.04381" lon="-3.83883">
        <ele>514.6</ele>
        <time>2022-12-31 08:41:04</time>
      </trkpt>
      <trkpt lat="40.04373" lon="-3.83887">
        <ele>514.4</ele>
        <time>2022-12-31 08:41:05</time>
      </trkpt>
      <trkpt lat="40.04365" lon="-3.83891">
        <ele>514.4</ele>
        <time>2022-12-31 08:41:06</time>
      </trkpt>
      <trkpt lat="40.04357" lon="-3.83895">
        <ele>514.2</ele>
        <time>2022-12-31 08:41:07</time>
      </trkpt>
      <trkpt lat="40.04349" lon="-3.83899">
        <ele>513.6</ele>
        <time>2022-12-31 08:41:08</time>
      </trkpt>
      <trkpt lat="40.0434" lon="-3.83904">
        <ele>513.2</ele>
        <time>2022-12-31 08:41:09</time>
      </trkpt>
      <trkpt lat="40.04332" lon="-3.83908">
        <ele>512.6</ele>
        <time>2022-12-31 08:41:10</time>
      </trkpt>
      <trkpt lat="40.04323" lon="-3.83911">
        <ele>512.2</ele>
        <time>2022-12-31 08:41:11</time>
      </trkpt>
      <trkpt lat="40.04314" lon="-3.83916">
        <ele>511.8</ele>
        <time>2022-12-31 08:41:12</time>
      </trkpt>
      <trkpt lat="40.04306" lon="-3.8392">
        <ele>511.2</ele>
        <time>2022-12-31 08:41:13</time>
      </trkpt>
      <trkpt lat="40.04297" lon="-3.83924">
        <ele>510.6</ele>
        <time>2022-12-31 08:41:14</time>
      </trkpt>
      <trkpt lat="40.04288" lon="-3.83929">
        <ele>510</ele>
        <time>2022-12-31 08:41:15</time>
      </trkpt>
      <trkpt lat="40.0428" lon="-3.83933">
        <ele>509.6</ele>
        <time>2022-12-31 08:41:16</time>
      </trkpt>
      <trkpt lat="40.04272" lon="-3.83938">
        <ele>509</ele>
        <time>2022-12-31 08:41:17</time>
      </trkpt>
      <trkpt lat="40.04265" lon="-3.83943">
        <ele>508.4</ele>
        <time>2022-12-31 08:41:18</time>
      </trkpt>
      <trkpt lat="40.04258" lon="-3.83948">
        <ele>507.8</ele>
        <time>2022-12-31 08:41:19</time>
      </trkpt>
      <trkpt lat="40.04251" lon="-3.83953">
        <ele>507.4</ele>
        <time>2022-12-31 08:41:20</time>
      </trkpt>
      <trkpt lat="40.04245" lon="-3.8396">
        <ele>506.8</ele>
        <time>2022-12-31 08:41:21</time>
      </trkpt>
      <trkpt lat="40.04239" lon="-3.83966">
        <ele>506.2</ele>
        <time>2022-12-31 08:41:22</time>
      </trkpt>
      <trkpt lat="40.04232" lon="-3.83972">
        <ele>506</ele>
        <time>2022-12-31 08:41:23</time>
      </trkpt>
      <trkpt lat="40.04225" lon="-3.83977">
        <ele>505.6</ele>
        <time>2022-12-31 08:41:24</time>
      </trkpt>
      <trkpt lat="40.04219" lon="-3.83982">
        <ele>505.4</ele>
        <time>2022-12-31 08:41:25</time>
      </trkpt>
      <trkpt lat="40.04212" lon="-3.83987">
        <ele>505.2</ele>
        <time>2022-12-31 08:41:26</time>
      </trkpt>
      <trkpt lat="40.04205" lon="-3.83992">
        <ele>505.2</ele>
        <time>2022-12-31 08:41:27</time>
      </trkpt>
      <trkpt lat="40.04199" lon="-3.83997">
        <ele>505.2</ele>
        <time>2022-12-31 08:41:28</time>
      </trkpt>
      <trkpt lat="40.04193" lon="-3.84003">
        <ele>505.2</ele>
        <time>2022-12-31 08:41:29</time>
      </trkpt>
      <trkpt lat="40.04187" lon="-3.84009">
        <ele>505.2</ele>
        <time>2022-12-31 08:41:30</time>
      </trkpt>
      <trkpt lat="40.0418" lon="-3.84015">
        <ele>505.2</ele>
        <time>2022-12-31 08:41:31</time>
      </trkpt>
      <trkpt lat="40.04174" lon="-3.8402">
        <ele>505</ele>
        <time>2022-12-31 08:41:32</time>
      </trkpt>
      <trkpt lat="40.04167" lon="-3.84025">
        <ele>505</ele>
        <time>2022-12-31 08:41:33</time>
      </trkpt>
      <trkpt lat="40.04161" lon="-3.84031">
        <ele>505</ele>
        <time>2022-12-31 08:41:34</time>
      </trkpt>
      <trkpt lat="40.04155" lon="-3.84037">
        <ele>504.8</ele>
        <time>2022-12-31 08:41:35</time>
      </trkpt>
      <trkpt lat="40.04149" lon="-3.84042">
        <ele>504.8</ele>
        <time>2022-12-31 08:41:36</time>
      </trkpt>
      <trkpt lat="40.04143" lon="-3.84047">
        <ele>504.8</ele>
        <time>2022-12-31 08:41:37</time>
      </trkpt>
      <trkpt lat="40.04137" lon="-3.84052">
        <ele>504.4</ele>
        <time>2022-12-31 08:41:38</time>
      </trkpt>
      <trkpt lat="40.0413" lon="-3.84057">
        <ele>504.4</ele>
        <time>2022-12-31 08:41:39</time>
      </trkpt>
      <trkpt lat="40.04124" lon="-3.84061">
        <ele>504</ele>
        <time>2022-12-31 08:41:40</time>
      </trkpt>
      <trkpt lat="40.04117" lon="-3.84065">
        <ele>504</ele>
        <time>2022-12-31 08:41:41</time>
      </trkpt>
      <trkpt lat="40.04111" lon="-3.84069">
        <ele>503.8</ele>
        <time>2022-12-31 08:41:42</time>
      </trkpt>
      <trkpt lat="40.04104" lon="-3.84074">
        <ele>503.8</ele>
        <time>2022-12-31 08:41:43</time>
      </trkpt>
      <trkpt lat="40.04098" lon="-3.84078">
        <ele>503.6</ele>
        <time>2022-12-31 08:41:44</time>
      </trkpt>
      <trkpt lat="40.04092" lon="-3.84083">
        <ele>503.6</ele>
        <time>2022-12-31 08:41:45</time>
      </trkpt>
      <trkpt lat="40.04086" lon="-3.84088">
        <ele>503.6</ele>
        <time>2022-12-31 08:41:46</time>
      </trkpt>
      <trkpt lat="40.0408" lon="-3.84094">
        <ele>503.6</ele>
        <time>2022-12-31 08:41:47</time>
      </trkpt>
      <trkpt lat="40.04074" lon="-3.84099">
        <ele>503.6</ele>
        <time>2022-12-31 08:41:48</time>
      </trkpt>
      <trkpt lat="40.04068" lon="-3.84103">
        <ele>503.4</ele>
        <time>2022-12-31 08:41:49</time>
      </trkpt>
      <trkpt lat="40.04061" lon="-3.84109">
        <ele>503.2</ele>
        <time>2022-12-31 08:41:50</time>
      </trkpt>
      <trkpt lat="40.04055" lon="-3.84114">
        <ele>502.6</ele>
        <time>2022-12-31 08:41:51</time>
      </trkpt>
      <trkpt lat="40.04049" lon="-3.8412">
        <ele>502.6</ele>
        <time>2022-12-31 08:41:52</time>
      </trkpt>
      <trkpt lat="40.04043" lon="-3.84125">
        <ele>502.4</ele>
        <time>2022-12-31 08:41:53</time>
      </trkpt>
      <trkpt lat="40.04036" lon="-3.8413">
        <ele>502.4</ele>
        <time>2022-12-31 08:41:54</time>
      </trkpt>
      <trkpt lat="40.0403" lon="-3.84135">
        <ele>502.2</ele>
        <time>2022-12-31 08:41:55</time>
      </trkpt>
      <trkpt lat="40.04024" lon="-3.8414">
        <ele>502</ele>
        <time>2022-12-31 08:41:56</time>
      </trkpt>
      <trkpt lat="40.04017" lon="-3.84145">
        <ele>502</ele>
        <time>2022-12-31 08:41:57</time>
      </trkpt>
      <trkpt lat="40.04011" lon="-3.84149">
        <ele>502</ele>
        <time>2022-12-31 08:41:58</time>
      </trkpt>
      <trkpt lat="40.04004" lon="-3.84153">
        <ele>502</ele>
        <time>2022-12-31 08:41:59</time>
      </trkpt>
      <trkpt lat="40.03997" lon="-3.84157">
        <ele>501.6</ele>
        <time>2022-12-31 08:42:00</time>
      </trkpt>
      <trkpt lat="40.03991" lon="-3.84162">
        <ele>501.6</ele>
        <time>2022-12-31 08:42:01</time>
      </trkpt>
      <trkpt lat="40.03984" lon="-3.84167">
        <ele>501.4</ele>
        <time>2022-12-31 08:42:02</time>
      </trkpt>
      <trkpt lat="40.03978" lon="-3.84173">
        <ele>501.4</ele>
        <time>2022-12-31 08:42:03</time>
      </trkpt>
      <trkpt lat="40.03971" lon="-3.84179">
        <ele>501.2</ele>
        <time>2022-12-31 08:42:04</time>
      </trkpt>
      <trkpt lat="40.03965" lon="-3.84185">
        <ele>501</ele>
        <time>2022-12-31 08:42:05</time>
      </trkpt>
      <trkpt lat="40.03959" lon="-3.84191">
        <ele>501</ele>
        <time>2022-12-31 08:42:06</time>
      </trkpt>
      <trkpt lat="40.03953" lon="-3.84198">
        <ele>501</ele>
        <time>2022-12-31 08:42:07</time>
      </trkpt>
      <trkpt lat="40.03948" lon="-3.84204">
        <ele>500.8</ele>
        <time>2022-12-31 08:42:08</time>
      </trkpt>
      <trkpt lat="40.03942" lon="-3.8421">
        <ele>500.8</ele>
        <time>2022-12-31 08:42:09</time>
      </trkpt>
      <trkpt lat="40.03935" lon="-3.84216">
        <ele>500.8</ele>
        <time>2022-12-31 08:42:10</time>
      </trkpt>
      <trkpt lat="40.03929" lon="-3.84222">
        <ele>500.4</ele>
        <time>2022-12-31 08:42:11</time>
      </trkpt>
      <trkpt lat="40.03922" lon="-3.84228">
        <ele>500.2</ele>
        <time>2022-12-31 08:42:12</time>
      </trkpt>
      <trkpt lat="40.03916" lon="-3.84234">
        <ele>500</ele>
        <time>2022-12-31 08:42:13</time>
      </trkpt>
      <trkpt lat="40.0391" lon="-3.84239">
        <ele>499.8</ele>
        <time>2022-12-31 08:42:14</time>
      </trkpt>
      <trkpt lat="40.03903" lon="-3.84245">
        <ele>499.8</ele>
        <time>2022-12-31 08:42:15</time>
      </trkpt>
      <trkpt lat="40.03897" lon="-3.8425">
        <ele>499.6</ele>
        <time>2022-12-31 08:42:16</time>
      </trkpt>
      <trkpt lat="40.03891" lon="-3.84255">
        <ele>499.2</ele>
        <time>2022-12-31 08:42:17</time>
      </trkpt>
      <trkpt lat="40.03885" lon="-3.84261">
        <ele>498.8</ele>
        <time>2022-12-31 08:42:18</time>
      </trkpt>
      <trkpt lat="40.03879" lon="-3.84266">
        <ele>498.8</ele>
        <time>2022-12-31 08:42:19</time>
      </trkpt>
      <trkpt lat="40.03872" lon="-3.84271">
        <ele>498.4</ele>
        <time>2022-12-31 08:42:20</time>
      </trkpt>
      <trkpt lat="40.03866" lon="-3.84276">
        <ele>498.4</ele>
        <time>2022-12-31 08:42:21</time>
      </trkpt>
      <trkpt lat="40.0386" lon="-3.84281">
        <ele>498</ele>
        <time>2022-12-31 08:42:22</time>
      </trkpt>
      <trkpt lat="40.03854" lon="-3.84286">
        <ele>498</ele>
        <time>2022-12-31 08:42:23</time>
      </trkpt>
      <trkpt lat="40.03848" lon="-3.84291">
        <ele>498</ele>
        <time>2022-12-31 08:42:24</time>
      </trkpt>
      <trkpt lat="40.03842" lon="-3.84296">
        <ele>497.8</ele>
        <time>2022-12-31 08:42:25</time>
      </trkpt>
      <trkpt lat="40.03836" lon="-3.84302">
        <ele>497.8</ele>
        <time>2022-12-31 08:42:26</time>
      </trkpt>
      <trkpt lat="40.0383" lon="-3.84307">
        <ele>497.6</ele>
        <time>2022-12-31 08:42:27</time>
      </trkpt>
      <trkpt lat="40.03824" lon="-3.84313">
        <ele>497.6</ele>
        <time>2022-12-31 08:42:28</time>
      </trkpt>
      <trkpt lat="40.03818" lon="-3.84318">
        <ele>497.4</ele>
        <time>2022-12-31 08:42:29</time>
      </trkpt>
      <trkpt lat="40.03812" lon="-3.84324">
        <ele>497.4</ele>
        <time>2022-12-31 08:42:30</time>
      </trkpt>
      <trkpt lat="40.03806" lon="-3.8433">
        <ele>497.4</ele>
        <time>2022-12-31 08:42:31</time>
      </trkpt>
      <trkpt lat="40.038" lon="-3.84335">
        <ele>497.4</ele>
        <time>2022-12-31 08:42:32</time>
      </trkpt>
      <trkpt lat="40.03794" lon="-3.84341">
        <ele>497</ele>
        <time>2022-12-31 08:42:33</time>
      </trkpt>
      <trkpt lat="40.03788" lon="-3.84346">
        <ele>496.8</ele>
        <time>2022-12-31 08:42:34</time>
      </trkpt>
      <trkpt lat="40.03782" lon="-3.84351">
        <ele>496.8</ele>
        <time>2022-12-31 08:42:35</time>
      </trkpt>
      <trkpt lat="40.03776" lon="-3.84357">
        <ele>496.8</ele>
        <time>2022-12-31 08:42:36</time>
      </trkpt>
      <trkpt lat="40.03771" lon="-3.84362">
        <ele>496.6</ele>
        <time>2022-12-31 08:42:37</time>
      </trkpt>
      <trkpt lat="40.03766" lon="-3.84369">
        <ele>496.6</ele>
        <time>2022-12-31 08:42:38</time>
      </trkpt>
      <trkpt lat="40.03761" lon="-3.84376">
        <ele>496.6</ele>
        <time>2022-12-31 08:42:39</time>
      </trkpt>
      <trkpt lat="40.03756" lon="-3.84383">
        <ele>496.4</ele>
        <time>2022-12-31 08:42:40</time>
      </trkpt>
      <trkpt lat="40.03752" lon="-3.84389">
        <ele>496.4</ele>
        <time>2022-12-31 08:42:41</time>
      </trkpt>
      <trkpt lat="40.03747" lon="-3.84395">
        <ele>496.2</ele>
        <time>2022-12-31 08:42:42</time>
      </trkpt>
      <trkpt lat="40.03742" lon="-3.84402">
        <ele>496</ele>
        <time>2022-12-31 08:42:43</time>
      </trkpt>
      <trkpt lat="40.03737" lon="-3.84408">
        <ele>496</ele>
        <time>2022-12-31 08:42:44</time>
      </trkpt>
      <trkpt lat="40.03733" lon="-3.84415">
        <ele>496</ele>
        <time>2022-12-31 08:42:45</time>
      </trkpt>
      <trkpt lat="40.03728" lon="-3.84422">
        <ele>496</ele>
        <time>2022-12-31 08:42:46</time>
      </trkpt>
      <trkpt lat="40.03724" lon="-3.84428">
        <ele>496</ele>
        <time>2022-12-31 08:42:47</time>
      </trkpt>
      <trkpt lat="40.03719" lon="-3.84434">
        <ele>496</ele>
        <time>2022-12-31 08:42:48</time>
      </trkpt>
      <trkpt lat="40.03715" lon="-3.84441">
        <ele>496</ele>
        <time>2022-12-31 08:42:49</time>
      </trkpt>
      <trkpt lat="40.03711" lon="-3.84448">
        <ele>496</ele>
        <time>2022-12-31 08:42:50</time>
      </trkpt>
      <trkpt lat="40.03707" lon="-3.84454">
        <ele>495.8</ele>
        <time>2022-12-31 08:42:51</time>
      </trkpt>
      <trkpt lat="40.03703" lon="-3.84461">
        <ele>495.8</ele>
        <time>2022-12-31 08:42:52</time>
      </trkpt>
      <trkpt lat="40.03699" lon="-3.84469">
        <ele>496</ele>
        <time>2022-12-31 08:42:53</time>
      </trkpt>
      <trkpt lat="40.03696" lon="-3.84476">
        <ele>496</ele>
        <time>2022-12-31 08:42:54</time>
      </trkpt>
      <trkpt lat="40.03692" lon="-3.84484">
        <ele>495.8</ele>
        <time>2022-12-31 08:42:55</time>
      </trkpt>
      <trkpt lat="40.03688" lon="-3.84492">
        <ele>495.6</ele>
        <time>2022-12-31 08:42:56</time>
      </trkpt>
      <trkpt lat="40.03684" lon="-3.84499">
        <ele>495.8</ele>
        <time>2022-12-31 08:42:57</time>
      </trkpt>
      <trkpt lat="40.0368" lon="-3.84507">
        <ele>495.6</ele>
        <time>2022-12-31 08:42:58</time>
      </trkpt>
      <trkpt lat="40.03676" lon="-3.84514">
        <ele>495.6</ele>
        <time>2022-12-31 08:42:59</time>
      </trkpt>
      <trkpt lat="40.03672" lon="-3.84522">
        <ele>495.6</ele>
        <time>2022-12-31 08:43:00</time>
      </trkpt>
      <trkpt lat="40.03668" lon="-3.8453">
        <ele>495.6</ele>
        <time>2022-12-31 08:43:01</time>
      </trkpt>
      <trkpt lat="40.03665" lon="-3.84538">
        <ele>495.4</ele>
        <time>2022-12-31 08:43:02</time>
      </trkpt>
      <trkpt lat="40.03661" lon="-3.84545">
        <ele>495.4</ele>
        <time>2022-12-31 08:43:03</time>
      </trkpt>
      <trkpt lat="40.03657" lon="-3.84553">
        <ele>495.2</ele>
        <time>2022-12-31 08:43:04</time>
      </trkpt>
      <trkpt lat="40.03654" lon="-3.84561">
        <ele>495</ele>
        <time>2022-12-31 08:43:05</time>
      </trkpt>
      <trkpt lat="40.0365" lon="-3.84568">
        <ele>495</ele>
        <time>2022-12-31 08:43:06</time>
      </trkpt>
      <trkpt lat="40.03647" lon="-3.84576">
        <ele>495</ele>
        <time>2022-12-31 08:43:07</time>
      </trkpt>
      <trkpt lat="40.03643" lon="-3.84584">
        <ele>494.8</ele>
        <time>2022-12-31 08:43:08</time>
      </trkpt>
      <trkpt lat="40.0364" lon="-3.84591">
        <ele>494.8</ele>
        <time>2022-12-31 08:43:09</time>
      </trkpt>
      <trkpt lat="40.03636" lon="-3.84599">
        <ele>494.8</ele>
        <time>2022-12-31 08:43:10</time>
      </trkpt>
      <trkpt lat="40.03632" lon="-3.84606">
        <ele>494.6</ele>
        <time>2022-12-31 08:43:11</time>
      </trkpt>
      <trkpt lat="40.03628" lon="-3.84612">
        <ele>494.6</ele>
        <time>2022-12-31 08:43:12</time>
      </trkpt>
      <trkpt lat="40.03623" lon="-3.84619">
        <ele>494.6</ele>
        <time>2022-12-31 08:43:13</time>
      </trkpt>
      <trkpt lat="40.03618" lon="-3.84625">
        <ele>494.6</ele>
        <time>2022-12-31 08:43:14</time>
      </trkpt>
      <trkpt lat="40.03613" lon="-3.8463">
        <ele>494.6</ele>
        <time>2022-12-31 08:43:15</time>
      </trkpt>
      <trkpt lat="40.03609" lon="-3.84636">
        <ele>494.8</ele>
        <time>2022-12-31 08:43:16</time>
      </trkpt>
      <trkpt lat="40.03604" lon="-3.84642">
        <ele>494.6</ele>
        <time>2022-12-31 08:43:17</time>
      </trkpt>
      <trkpt lat="40.03599" lon="-3.84648">
        <ele>494.8</ele>
        <time>2022-12-31 08:43:18</time>
      </trkpt>
      <trkpt lat="40.03595" lon="-3.84654">
        <ele>494.8</ele>
        <time>2022-12-31 08:43:19</time>
      </trkpt>
      <trkpt lat="40.03591" lon="-3.84661">
        <ele>494.6</ele>
        <time>2022-12-31 08:43:20</time>
      </trkpt>
      <trkpt lat="40.03589" lon="-3.84668">
        <ele>494.8</ele>
        <time>2022-12-31 08:43:21</time>
      </trkpt>
      <trkpt lat="40.03588" lon="-3.84675">
        <ele>494.8</ele>
        <time>2022-12-31 08:43:22</time>
      </trkpt>
      <trkpt lat="40.03588" lon="-3.84682">
        <ele>494.8</ele>
        <time>2022-12-31 08:43:23</time>
      </trkpt>
      <trkpt lat="40.03588" lon="-3.84688">
        <ele>494.8</ele>
        <time>2022-12-31 08:43:24</time>
      </trkpt>
      <trkpt lat="40.03588" lon="-3.84694">
        <ele>495</ele>
        <time>2022-12-31 08:43:25</time>
      </trkpt>
      <trkpt lat="40.03586" lon="-3.84701">
        <ele>495</ele>
        <time>2022-12-31 08:43:26</time>
      </trkpt>
      <trkpt lat="40.03583" lon="-3.84706">
        <ele>495</ele>
        <time>2022-12-31 08:43:27</time>
      </trkpt>
      <trkpt lat="40.0358" lon="-3.8471">
        <ele>495.2</ele>
        <time>2022-12-31 08:43:28</time>
      </trkpt>
      <trkpt lat="40.03576" lon="-3.84714">
        <ele>495.2</ele>
        <time>2022-12-31 08:43:29</time>
      </trkpt>
      <trkpt lat="40.03571" lon="-3.84718">
        <ele>495.2</ele>
        <time>2022-12-31 08:43:30</time>
      </trkpt>
      <trkpt lat="40.03566" lon="-3.84722">
        <ele>495.2</ele>
        <time>2022-12-31 08:43:31</time>
      </trkpt>
      <trkpt lat="40.0356" lon="-3.84725">
        <ele>495.2</ele>
        <time>2022-12-31 08:43:32</time>
      </trkpt>
      <trkpt lat="40.03555" lon="-3.84729">
        <ele>495.2</ele>
        <time>2022-12-31 08:43:33</time>
      </trkpt>
      <trkpt lat="40.0355" lon="-3.84733">
        <ele>495.2</ele>
        <time>2022-12-31 08:43:34</time>
      </trkpt>
      <trkpt lat="40.03546" lon="-3.84738">
        <ele>495.2</ele>
        <time>2022-12-31 08:43:35</time>
      </trkpt>
      <trkpt lat="40.03541" lon="-3.84743">
        <ele>495.2</ele>
        <time>2022-12-31 08:43:36</time>
      </trkpt>
      <trkpt lat="40.03536" lon="-3.84748">
        <ele>495.2</ele>
        <time>2022-12-31 08:43:37</time>
      </trkpt>
      <trkpt lat="40.0353" lon="-3.84753">
        <ele>495.2</ele>
        <time>2022-12-31 08:43:38</time>
      </trkpt>
      <trkpt lat="40.03525" lon="-3.84758">
        <ele>495.2</ele>
        <time>2022-12-31 08:43:39</time>
      </trkpt>
      <trkpt lat="40.0352" lon="-3.84762">
        <ele>495</ele>
        <time>2022-12-31 08:43:40</time>
      </trkpt>
      <trkpt lat="40.03514" lon="-3.84766">
        <ele>495.2</ele>
        <time>2022-12-31 08:43:41</time>
      </trkpt>
      <trkpt lat="40.03509" lon="-3.8477">
        <ele>495</ele>
        <time>2022-12-31 08:43:42</time>
      </trkpt>
      <trkpt lat="40.03503" lon="-3.84773">
        <ele>495.2</ele>
        <time>2022-12-31 08:43:43</time>
      </trkpt>
      <trkpt lat="40.03497" lon="-3.84776">
        <ele>495</ele>
        <time>2022-12-31 08:43:44</time>
      </trkpt>
      <trkpt lat="40.03491" lon="-3.84779">
        <ele>495</ele>
        <time>2022-12-31 08:43:45</time>
      </trkpt>
      <trkpt lat="40.03485" lon="-3.84782">
        <ele>495</ele>
        <time>2022-12-31 08:43:46</time>
      </trkpt>
      <trkpt lat="40.03479" lon="-3.84785">
        <ele>495</ele>
        <time>2022-12-31 08:43:47</time>
      </trkpt>
      <trkpt lat="40.03473" lon="-3.84788">
        <ele>495</ele>
        <time>2022-12-31 08:43:48</time>
      </trkpt>
      <trkpt lat="40.03467" lon="-3.8479">
        <ele>495</ele>
        <time>2022-12-31 08:43:49</time>
      </trkpt>
      <trkpt lat="40.03461" lon="-3.84791">
        <ele>494.8</ele>
        <time>2022-12-31 08:43:50</time>
      </trkpt>
      <trkpt lat="40.03454" lon="-3.84792">
        <ele>494.8</ele>
        <time>2022-12-31 08:43:51</time>
      </trkpt>
      <trkpt lat="40.03448" lon="-3.84792">
        <ele>494.8</ele>
        <time>2022-12-31 08:43:52</time>
      </trkpt>
      <trkpt lat="40.03442" lon="-3.84792">
        <ele>495</ele>
        <time>2022-12-31 08:43:53</time>
      </trkpt>
      <trkpt lat="40.03436" lon="-3.84791">
        <ele>494.8</ele>
        <time>2022-12-31 08:43:54</time>
      </trkpt>
      <trkpt lat="40.0343" lon="-3.8479">
        <ele>494.8</ele>
        <time>2022-12-31 08:43:55</time>
      </trkpt>
      <trkpt lat="40.03424" lon="-3.84789">
        <ele>494.8</ele>
        <time>2022-12-31 08:43:56</time>
      </trkpt>
      <trkpt lat="40.03418" lon="-3.8479">
        <ele>494.8</ele>
        <time>2022-12-31 08:43:57</time>
      </trkpt>
      <trkpt lat="40.03412" lon="-3.84791">
        <ele>494.8</ele>
        <time>2022-12-31 08:43:58</time>
      </trkpt>
      <trkpt lat="40.03406" lon="-3.84792">
        <ele>494.8</ele>
        <time>2022-12-31 08:43:59</time>
      </trkpt>
      <trkpt lat="40.034" lon="-3.84793">
        <ele>494.8</ele>
        <time>2022-12-31 08:44:00</time>
      </trkpt>
      <trkpt lat="40.03394" lon="-3.84795">
        <ele>494.8</ele>
        <time>2022-12-31 08:44:01</time>
      </trkpt>
      <trkpt lat="40.03388" lon="-3.84797">
        <ele>494.8</ele>
        <time>2022-12-31 08:44:02</time>
      </trkpt>
      <trkpt lat="40.03383" lon="-3.84801">
        <ele>494.6</ele>
        <time>2022-12-31 08:44:03</time>
      </trkpt>
      <trkpt lat="40.03377" lon="-3.84805">
        <ele>494.6</ele>
        <time>2022-12-31 08:44:04</time>
      </trkpt>
      <trkpt lat="40.03372" lon="-3.84809">
        <ele>494.8</ele>
        <time>2022-12-31 08:44:05</time>
      </trkpt>
      <trkpt lat="40.03367" lon="-3.84813">
        <ele>494.8</ele>
        <time>2022-12-31 08:44:06</time>
      </trkpt>
      <trkpt lat="40.03361" lon="-3.84817">
        <ele>494.8</ele>
        <time>2022-12-31 08:44:07</time>
      </trkpt>
      <trkpt lat="40.03356" lon="-3.84821">
        <ele>494.8</ele>
        <time>2022-12-31 08:44:08</time>
      </trkpt>
      <trkpt lat="40.0335" lon="-3.84825">
        <ele>494.8</ele>
        <time>2022-12-31 08:44:09</time>
      </trkpt>
      <trkpt lat="40.03344" lon="-3.84829">
        <ele>494.8</ele>
        <time>2022-12-31 08:44:10</time>
      </trkpt>
      <trkpt lat="40.03338" lon="-3.84833">
        <ele>494.8</ele>
        <time>2022-12-31 08:44:11</time>
      </trkpt>
      <trkpt lat="40.03333" lon="-3.84836">
        <ele>494.8</ele>
        <time>2022-12-31 08:44:12</time>
      </trkpt>
      <trkpt lat="40.03327" lon="-3.84839">
        <ele>494.8</ele>
        <time>2022-12-31 08:44:13</time>
      </trkpt>
      <trkpt lat="40.03321" lon="-3.84842">
        <ele>494.8</ele>
        <time>2022-12-31 08:44:14</time>
      </trkpt>
      <trkpt lat="40.03315" lon="-3.84844">
        <ele>494.8</ele>
        <time>2022-12-31 08:44:15</time>
      </trkpt>
      <trkpt lat="40.03308" lon="-3.84847">
        <ele>494.8</ele>
        <time>2022-12-31 08:44:16</time>
      </trkpt>
      <trkpt lat="40.03302" lon="-3.84849">
        <ele>494.8</ele>
        <time>2022-12-31 08:44:17</time>
      </trkpt>
      <trkpt lat="40.03296" lon="-3.84852">
        <ele>494.8</ele>
        <time>2022-12-31 08:44:18</time>
      </trkpt>
      <trkpt lat="40.0329" lon="-3.84855">
        <ele>494.6</ele>
        <time>2022-12-31 08:44:19</time>
      </trkpt>
      <trkpt lat="40.03284" lon="-3.84858">
        <ele>494.8</ele>
        <time>2022-12-31 08:44:20</time>
      </trkpt>
      <trkpt lat="40.03278" lon="-3.8486">
        <ele>494.8</ele>
        <time>2022-12-31 08:44:21</time>
      </trkpt>
      <trkpt lat="40.03272" lon="-3.84862">
        <ele>494.8</ele>
        <time>2022-12-31 08:44:22</time>
      </trkpt>
      <trkpt lat="40.03266" lon="-3.84864">
        <ele>494.8</ele>
        <time>2022-12-31 08:44:23</time>
      </trkpt>
      <trkpt lat="40.0326" lon="-3.84866">
        <ele>494.8</ele>
        <time>2022-12-31 08:44:24</time>
      </trkpt>
      <trkpt lat="40.03254" lon="-3.84868">
        <ele>494.8</ele>
        <time>2022-12-31 08:44:25</time>
      </trkpt>
      <trkpt lat="40.03248" lon="-3.8487">
        <ele>494.8</ele>
        <time>2022-12-31 08:44:26</time>
      </trkpt>
      <trkpt lat="40.03242" lon="-3.84873">
        <ele>494.8</ele>
        <time>2022-12-31 08:44:27</time>
      </trkpt>
      <trkpt lat="40.03236" lon="-3.84876">
        <ele>494.8</ele>
        <time>2022-12-31 08:44:28</time>
      </trkpt>
      <trkpt lat="40.0323" lon="-3.84879">
        <ele>494.8</ele>
        <time>2022-12-31 08:44:29</time>
      </trkpt>
      <trkpt lat="40.03225" lon="-3.84881">
        <ele>494.8</ele>
        <time>2022-12-31 08:44:30</time>
      </trkpt>
      <trkpt lat="40.0322" lon="-3.84885">
        <ele>494.8</ele>
        <time>2022-12-31 08:44:31</time>
      </trkpt>
      <trkpt lat="40.03215" lon="-3.8489">
        <ele>494.8</ele>
        <time>2022-12-31 08:44:32</time>
      </trkpt>
      <trkpt lat="40.0321" lon="-3.84895">
        <ele>494.6</ele>
        <time>2022-12-31 08:44:33</time>
      </trkpt>
      <trkpt lat="40.03204" lon="-3.84899">
        <ele>494.6</ele>
        <time>2022-12-31 08:44:34</time>
      </trkpt>
      <trkpt lat="40.03199" lon="-3.84903">
        <ele>494.8</ele>
        <time>2022-12-31 08:44:35</time>
      </trkpt>
      <trkpt lat="40.03194" lon="-3.84908">
        <ele>494.8</ele>
        <time>2022-12-31 08:44:36</time>
      </trkpt>
      <trkpt lat="40.03189" lon="-3.84912">
        <ele>494.6</ele>
        <time>2022-12-31 08:44:37</time>
      </trkpt>
      <trkpt lat="40.03183" lon="-3.84916">
        <ele>494.8</ele>
        <time>2022-12-31 08:44:38</time>
      </trkpt>
      <trkpt lat="40.03178" lon="-3.84919">
        <ele>494.8</ele>
        <time>2022-12-31 08:44:39</time>
      </trkpt>
      <trkpt lat="40.03172" lon="-3.84922">
        <ele>495</ele>
        <time>2022-12-31 08:44:40</time>
      </trkpt>
      <trkpt lat="40.03166" lon="-3.84926">
        <ele>494.8</ele>
        <time>2022-12-31 08:44:41</time>
      </trkpt>
      <trkpt lat="40.0316" lon="-3.84929">
        <ele>494.8</ele>
        <time>2022-12-31 08:44:42</time>
      </trkpt>
      <trkpt lat="40.03155" lon="-3.84932">
        <ele>495</ele>
        <time>2022-12-31 08:44:43</time>
      </trkpt>
      <trkpt lat="40.03149" lon="-3.84936">
        <ele>494.8</ele>
        <time>2022-12-31 08:44:44</time>
      </trkpt>
      <trkpt lat="40.03144" lon="-3.8494">
        <ele>494.8</ele>
        <time>2022-12-31 08:44:45</time>
      </trkpt>
      <trkpt lat="40.03139" lon="-3.84945">
        <ele>494.8</ele>
        <time>2022-12-31 08:44:46</time>
      </trkpt>
      <trkpt lat="40.03134" lon="-3.8495">
        <ele>495</ele>
        <time>2022-12-31 08:44:47</time>
      </trkpt>
      <trkpt lat="40.03129" lon="-3.84955">
        <ele>495</ele>
        <time>2022-12-31 08:44:48</time>
      </trkpt>
      <trkpt lat="40.03124" lon="-3.84959">
        <ele>495.2</ele>
        <time>2022-12-31 08:44:49</time>
      </trkpt>
      <trkpt lat="40.03119" lon="-3.84964">
        <ele>495</ele>
        <time>2022-12-31 08:44:50</time>
      </trkpt>
      <trkpt lat="40.03114" lon="-3.84969">
        <ele>495.2</ele>
        <time>2022-12-31 08:44:51</time>
      </trkpt>
      <trkpt lat="40.0311" lon="-3.84974">
        <ele>495.2</ele>
        <time>2022-12-31 08:44:52</time>
      </trkpt>
      <trkpt lat="40.03105" lon="-3.84978">
        <ele>495.2</ele>
        <time>2022-12-31 08:44:53</time>
      </trkpt>
      <trkpt lat="40.031" lon="-3.84983">
        <ele>495.2</ele>
        <time>2022-12-31 08:44:54</time>
      </trkpt>
      <trkpt lat="40.03095" lon="-3.84988">
        <ele>495.2</ele>
        <time>2022-12-31 08:44:55</time>
      </trkpt>
      <trkpt lat="40.0309" lon="-3.84992">
        <ele>495.2</ele>
        <time>2022-12-31 08:44:56</time>
      </trkpt>
      <trkpt lat="40.03086" lon="-3.84996">
        <ele>495.2</ele>
        <time>2022-12-31 08:44:57</time>
      </trkpt>
      <trkpt lat="40.03081" lon="-3.85001">
        <ele>495.2</ele>
        <time>2022-12-31 08:44:58</time>
      </trkpt>
      <trkpt lat="40.03076" lon="-3.85005">
        <ele>495.4</ele>
        <time>2022-12-31 08:44:59</time>
      </trkpt>
      <trkpt lat="40.03071" lon="-3.8501">
        <ele>495.4</ele>
        <time>2022-12-31 08:45:00</time>
      </trkpt>
      <trkpt lat="40.03066" lon="-3.85014">
        <ele>495.6</ele>
        <time>2022-12-31 08:45:01</time>
      </trkpt>
      <trkpt lat="40.03061" lon="-3.85019">
        <ele>495.4</ele>
        <time>2022-12-31 08:45:02</time>
      </trkpt>
      <trkpt lat="40.03057" lon="-3.85023">
        <ele>495.6</ele>
        <time>2022-12-31 08:45:03</time>
      </trkpt>
      <trkpt lat="40.03052" lon="-3.85028">
        <ele>495.6</ele>
        <time>2022-12-31 08:45:04</time>
      </trkpt>
      <trkpt lat="40.03047" lon="-3.85032">
        <ele>495.6</ele>
        <time>2022-12-31 08:45:05</time>
      </trkpt>
      <trkpt lat="40.03042" lon="-3.85037">
        <ele>495.6</ele>
        <time>2022-12-31 08:45:06</time>
      </trkpt>
      <trkpt lat="40.03037" lon="-3.85041">
        <ele>495.6</ele>
        <time>2022-12-31 08:45:07</time>
      </trkpt>
      <trkpt lat="40.03033" lon="-3.85046">
        <ele>495.8</ele>
        <time>2022-12-31 08:45:08</time>
      </trkpt>
      <trkpt lat="40.03028" lon="-3.8505">
        <ele>495.8</ele>
        <time>2022-12-31 08:45:09</time>
      </trkpt>
      <trkpt lat="40.03023" lon="-3.85055">
        <ele>496</ele>
        <time>2022-12-31 08:45:10</time>
      </trkpt>
      <trkpt lat="40.03018" lon="-3.85059">
        <ele>496.2</ele>
        <time>2022-12-31 08:45:11</time>
      </trkpt>
      <trkpt lat="40.03013" lon="-3.85064">
        <ele>496.2</ele>
        <time>2022-12-31 08:45:12</time>
      </trkpt>
      <trkpt lat="40.03008" lon="-3.85069">
        <ele>496.4</ele>
        <time>2022-12-31 08:45:13</time>
      </trkpt>
      <trkpt lat="40.03003" lon="-3.85073">
        <ele>496.6</ele>
        <time>2022-12-31 08:45:14</time>
      </trkpt>
      <trkpt lat="40.02998" lon="-3.85078">
        <ele>496.6</ele>
        <time>2022-12-31 08:45:15</time>
      </trkpt>
      <trkpt lat="40.02993" lon="-3.85083">
        <ele>496.6</ele>
        <time>2022-12-31 08:45:16</time>
      </trkpt>
      <trkpt lat="40.02988" lon="-3.85088">
        <ele>496.6</ele>
        <time>2022-12-31 08:45:17</time>
      </trkpt>
      <trkpt lat="40.02984" lon="-3.85093">
        <ele>496.8</ele>
        <time>2022-12-31 08:45:18</time>
      </trkpt>
      <trkpt lat="40.02979" lon="-3.85098">
        <ele>496.8</ele>
        <time>2022-12-31 08:45:19</time>
      </trkpt>
      <trkpt lat="40.02974" lon="-3.85102">
        <ele>497</ele>
        <time>2022-12-31 08:45:20</time>
      </trkpt>
      <trkpt lat="40.02969" lon="-3.85107">
        <ele>497</ele>
        <time>2022-12-31 08:45:21</time>
      </trkpt>
      <trkpt lat="40.02964" lon="-3.85112">
        <ele>497</ele>
        <time>2022-12-31 08:45:22</time>
      </trkpt>
      <trkpt lat="40.02959" lon="-3.85116">
        <ele>497</ele>
        <time>2022-12-31 08:45:23</time>
      </trkpt>
      <trkpt lat="40.02954" lon="-3.8512">
        <ele>497</ele>
        <time>2022-12-31 08:45:24</time>
      </trkpt>
      <trkpt lat="40.0295" lon="-3.85125">
        <ele>497.2</ele>
        <time>2022-12-31 08:45:25</time>
      </trkpt>
      <trkpt lat="40.02945" lon="-3.8513">
        <ele>497.2</ele>
        <time>2022-12-31 08:45:26</time>
      </trkpt>
      <trkpt lat="40.0294" lon="-3.85135">
        <ele>497.2</ele>
        <time>2022-12-31 08:45:27</time>
      </trkpt>
      <trkpt lat="40.02935" lon="-3.8514">
        <ele>497.2</ele>
        <time>2022-12-31 08:45:28</time>
      </trkpt>
      <trkpt lat="40.02931" lon="-3.85145">
        <ele>497.2</ele>
        <time>2022-12-31 08:45:29</time>
      </trkpt>
      <trkpt lat="40.02926" lon="-3.8515">
        <ele>497.2</ele>
        <time>2022-12-31 08:45:30</time>
      </trkpt>
      <trkpt lat="40.02921" lon="-3.85155">
        <ele>497.4</ele>
        <time>2022-12-31 08:45:31</time>
      </trkpt>
      <trkpt lat="40.02916" lon="-3.85159">
        <ele>497.4</ele>
        <time>2022-12-31 08:45:32</time>
      </trkpt>
      <trkpt lat="40.02911" lon="-3.85163">
        <ele>497.6</ele>
        <time>2022-12-31 08:45:33</time>
      </trkpt>
      <trkpt lat="40.02906" lon="-3.85168">
        <ele>497.6</ele>
        <time>2022-12-31 08:45:34</time>
      </trkpt>
      <trkpt lat="40.02901" lon="-3.85173">
        <ele>497.6</ele>
        <time>2022-12-31 08:45:35</time>
      </trkpt>
      <trkpt lat="40.02897" lon="-3.85178">
        <ele>497.6</ele>
        <time>2022-12-31 08:45:36</time>
      </trkpt>
      <trkpt lat="40.02892" lon="-3.85183">
        <ele>497.8</ele>
        <time>2022-12-31 08:45:37</time>
      </trkpt>
      <trkpt lat="40.02887" lon="-3.85188">
        <ele>497.8</ele>
        <time>2022-12-31 08:45:38</time>
      </trkpt>
      <trkpt lat="40.02883" lon="-3.85192">
        <ele>497.8</ele>
        <time>2022-12-31 08:45:39</time>
      </trkpt>
      <trkpt lat="40.02878" lon="-3.85196">
        <ele>498</ele>
        <time>2022-12-31 08:45:40</time>
      </trkpt>
      <trkpt lat="40.02873" lon="-3.852">
        <ele>498</ele>
        <time>2022-12-31 08:45:41</time>
      </trkpt>
      <trkpt lat="40.02868" lon="-3.85204">
        <ele>498.2</ele>
        <time>2022-12-31 08:45:42</time>
      </trkpt>
      <trkpt lat="40.02863" lon="-3.85208">
        <ele>498.2</ele>
        <time>2022-12-31 08:45:43</time>
      </trkpt>
      <trkpt lat="40.02858" lon="-3.85212">
        <ele>498.2</ele>
        <time>2022-12-31 08:45:44</time>
      </trkpt>
      <trkpt lat="40.02853" lon="-3.85216">
        <ele>498.2</ele>
        <time>2022-12-31 08:45:45</time>
      </trkpt>
      <trkpt lat="40.02848" lon="-3.8522">
        <ele>498.2</ele>
        <time>2022-12-31 08:45:46</time>
      </trkpt>
      <trkpt lat="40.02843" lon="-3.85224">
        <ele>498.4</ele>
        <time>2022-12-31 08:45:47</time>
      </trkpt>
      <trkpt lat="40.02838" lon="-3.85228">
        <ele>498.2</ele>
        <time>2022-12-31 08:45:48</time>
      </trkpt>
      <trkpt lat="40.02833" lon="-3.85232">
        <ele>498.2</ele>
        <time>2022-12-31 08:45:49</time>
      </trkpt>
      <trkpt lat="40.02829" lon="-3.85236">
        <ele>498.2</ele>
        <time>2022-12-31 08:45:50</time>
      </trkpt>
      <trkpt lat="40.02824" lon="-3.85241">
        <ele>498.4</ele>
        <time>2022-12-31 08:45:51</time>
      </trkpt>
      <trkpt lat="40.0282" lon="-3.85245">
        <ele>498.4</ele>
        <time>2022-12-31 08:45:52</time>
      </trkpt>
      <trkpt lat="40.02815" lon="-3.85249">
        <ele>498.6</ele>
        <time>2022-12-31 08:45:53</time>
      </trkpt>
      <trkpt lat="40.0281" lon="-3.85253">
        <ele>498.8</ele>
        <time>2022-12-31 08:45:54</time>
      </trkpt>
      <trkpt lat="40.02806" lon="-3.85257">
        <ele>498.8</ele>
        <time>2022-12-31 08:45:55</time>
      </trkpt>
      <trkpt lat="40.02802" lon="-3.85261">
        <ele>498.8</ele>
        <time>2022-12-31 08:45:56</time>
      </trkpt>
      <trkpt lat="40.02797" lon="-3.85265">
        <ele>498.8</ele>
        <time>2022-12-31 08:45:57</time>
      </trkpt>
      <trkpt lat="40.02793" lon="-3.85269">
        <ele>498.8</ele>
        <time>2022-12-31 08:45:58</time>
      </trkpt>
      <trkpt lat="40.02789" lon="-3.85274">
        <ele>499</ele>
        <time>2022-12-31 08:45:59</time>
      </trkpt>
      <trkpt lat="40.02784" lon="-3.85278">
        <ele>499.2</ele>
        <time>2022-12-31 08:46:00</time>
      </trkpt>
      <trkpt lat="40.0278" lon="-3.85282">
        <ele>499.2</ele>
        <time>2022-12-31 08:46:01</time>
      </trkpt>
      <trkpt lat="40.02775" lon="-3.85286">
        <ele>499.2</ele>
        <time>2022-12-31 08:46:02</time>
      </trkpt>
      <trkpt lat="40.02771" lon="-3.85291">
        <ele>499.4</ele>
        <time>2022-12-31 08:46:03</time>
      </trkpt>
      <trkpt lat="40.02767" lon="-3.85295">
        <ele>499.4</ele>
        <time>2022-12-31 08:46:04</time>
      </trkpt>
      <trkpt lat="40.02762" lon="-3.85299">
        <ele>499.6</ele>
        <time>2022-12-31 08:46:05</time>
      </trkpt>
      <trkpt lat="40.02758" lon="-3.85304">
        <ele>499.6</ele>
        <time>2022-12-31 08:46:06</time>
      </trkpt>
      <trkpt lat="40.02754" lon="-3.85308">
        <ele>499.8</ele>
        <time>2022-12-31 08:46:07</time>
      </trkpt>
      <trkpt lat="40.02749" lon="-3.85312">
        <ele>500</ele>
        <time>2022-12-31 08:46:08</time>
      </trkpt>
      <trkpt lat="40.02745" lon="-3.85317">
        <ele>499.8</ele>
        <time>2022-12-31 08:46:09</time>
      </trkpt>
      <trkpt lat="40.02741" lon="-3.85321">
        <ele>499.8</ele>
        <time>2022-12-31 08:46:10</time>
      </trkpt>
      <trkpt lat="40.02737" lon="-3.85325">
        <ele>500</ele>
        <time>2022-12-31 08:46:11</time>
      </trkpt>
      <trkpt lat="40.02733" lon="-3.85328">
        <ele>500.2</ele>
        <time>2022-12-31 08:46:12</time>
      </trkpt>
      <trkpt lat="40.02729" lon="-3.85332">
        <ele>500.2</ele>
        <time>2022-12-31 08:46:13</time>
      </trkpt>
      <trkpt lat="40.02725" lon="-3.85337">
        <ele>500.2</ele>
        <time>2022-12-31 08:46:14</time>
      </trkpt>
      <trkpt lat="40.02722" lon="-3.85341">
        <ele>500.4</ele>
        <time>2022-12-31 08:46:15</time>
      </trkpt>
      <trkpt lat="40.02718" lon="-3.85345">
        <ele>500.4</ele>
        <time>2022-12-31 08:46:16</time>
      </trkpt>
      <trkpt lat="40.02715" lon="-3.85349">
        <ele>500.4</ele>
        <time>2022-12-31 08:46:17</time>
      </trkpt>
      <trkpt lat="40.02711" lon="-3.85354">
        <ele>501</ele>
        <time>2022-12-31 08:46:18</time>
      </trkpt>
      <trkpt lat="40.02706" lon="-3.85358">
        <ele>501</ele>
        <time>2022-12-31 08:46:19</time>
      </trkpt>
      <trkpt lat="40.02702" lon="-3.85362">
        <ele>501.4</ele>
        <time>2022-12-31 08:46:20</time>
      </trkpt>
      <trkpt lat="40.02698" lon="-3.85365">
        <ele>501.4</ele>
        <time>2022-12-31 08:46:21</time>
      </trkpt>
      <trkpt lat="40.02694" lon="-3.8537">
        <ele>501.8</ele>
        <time>2022-12-31 08:46:22</time>
      </trkpt>
      <trkpt lat="40.0269" lon="-3.85374">
        <ele>502</ele>
        <time>2022-12-31 08:46:23</time>
      </trkpt>
      <trkpt lat="40.02687" lon="-3.85378">
        <ele>502</ele>
        <time>2022-12-31 08:46:24</time>
      </trkpt>
      <trkpt lat="40.02682" lon="-3.85382">
        <ele>502.2</ele>
        <time>2022-12-31 08:46:25</time>
      </trkpt>
      <trkpt lat="40.02678" lon="-3.85386">
        <ele>502</ele>
        <time>2022-12-31 08:46:26</time>
      </trkpt>
      <trkpt lat="40.02673" lon="-3.85389">
        <ele>502.2</ele>
        <time>2022-12-31 08:46:27</time>
      </trkpt>
      <trkpt lat="40.02669" lon="-3.85393">
        <ele>502.2</ele>
        <time>2022-12-31 08:46:28</time>
      </trkpt>
      <trkpt lat="40.02664" lon="-3.85398">
        <ele>502.2</ele>
        <time>2022-12-31 08:46:29</time>
      </trkpt>
      <trkpt lat="40.02659" lon="-3.85402">
        <ele>502.2</ele>
        <time>2022-12-31 08:46:30</time>
      </trkpt>
      <trkpt lat="40.02654" lon="-3.85406">
        <ele>502.2</ele>
        <time>2022-12-31 08:46:31</time>
      </trkpt>
      <trkpt lat="40.02649" lon="-3.8541">
        <ele>502.2</ele>
        <time>2022-12-31 08:46:32</time>
      </trkpt>
      <trkpt lat="40.02644" lon="-3.85414">
        <ele>502.2</ele>
        <time>2022-12-31 08:46:33</time>
      </trkpt>
      <trkpt lat="40.02639" lon="-3.85419">
        <ele>502.2</ele>
        <time>2022-12-31 08:46:34</time>
      </trkpt>
      <trkpt lat="40.02633" lon="-3.85422">
        <ele>502.2</ele>
        <time>2022-12-31 08:46:35</time>
      </trkpt>
      <trkpt lat="40.02628" lon="-3.85426">
        <ele>502.2</ele>
        <time>2022-12-31 08:46:36</time>
      </trkpt>
      <trkpt lat="40.02622" lon="-3.8543">
        <ele>502</ele>
        <time>2022-12-31 08:46:37</time>
      </trkpt>
      <trkpt lat="40.02617" lon="-3.85435">
        <ele>502</ele>
        <time>2022-12-31 08:46:38</time>
      </trkpt>
      <trkpt lat="40.02612" lon="-3.8544">
        <ele>502</ele>
        <time>2022-12-31 08:46:39</time>
      </trkpt>
      <trkpt lat="40.02607" lon="-3.85445">
        <ele>502</ele>
        <time>2022-12-31 08:46:40</time>
      </trkpt>
      <trkpt lat="40.02603" lon="-3.8545">
        <ele>502</ele>
        <time>2022-12-31 08:46:41</time>
      </trkpt>
      <trkpt lat="40.02598" lon="-3.85456">
        <ele>502</ele>
        <time>2022-12-31 08:46:42</time>
      </trkpt>
      <trkpt lat="40.02593" lon="-3.85461">
        <ele>502</ele>
        <time>2022-12-31 08:46:43</time>
      </trkpt>
      <trkpt lat="40.02589" lon="-3.85466">
        <ele>501.8</ele>
        <time>2022-12-31 08:46:44</time>
      </trkpt>
      <trkpt lat="40.02584" lon="-3.85471">
        <ele>501.6</ele>
        <time>2022-12-31 08:46:45</time>
      </trkpt>
      <trkpt lat="40.02579" lon="-3.85476">
        <ele>501.6</ele>
        <time>2022-12-31 08:46:46</time>
      </trkpt>
      <trkpt lat="40.02574" lon="-3.85481">
        <ele>501.4</ele>
        <time>2022-12-31 08:46:47</time>
      </trkpt>
      <trkpt lat="40.02568" lon="-3.85486">
        <ele>501.2</ele>
        <time>2022-12-31 08:46:48</time>
      </trkpt>
      <trkpt lat="40.02563" lon="-3.85491">
        <ele>501</ele>
        <time>2022-12-31 08:46:49</time>
      </trkpt>
      <trkpt lat="40.02558" lon="-3.85495">
        <ele>500.8</ele>
        <time>2022-12-31 08:46:50</time>
      </trkpt>
      <trkpt lat="40.02552" lon="-3.85499">
        <ele>500.8</ele>
        <time>2022-12-31 08:46:51</time>
      </trkpt>
      <trkpt lat="40.02547" lon="-3.85503">
        <ele>500.8</ele>
        <time>2022-12-31 08:46:52</time>
      </trkpt>
      <trkpt lat="40.02541" lon="-3.85507">
        <ele>500.8</ele>
        <time>2022-12-31 08:46:53</time>
      </trkpt>
      <trkpt lat="40.02536" lon="-3.85511">
        <ele>500.6</ele>
        <time>2022-12-31 08:46:54</time>
      </trkpt>
      <trkpt lat="40.02531" lon="-3.85516">
        <ele>500.6</ele>
        <time>2022-12-31 08:46:55</time>
      </trkpt>
      <trkpt lat="40.02526" lon="-3.8552">
        <ele>500.4</ele>
        <time>2022-12-31 08:46:56</time>
      </trkpt>
      <trkpt lat="40.0252" lon="-3.85523">
        <ele>500.2</ele>
        <time>2022-12-31 08:46:57</time>
      </trkpt>
      <trkpt lat="40.02515" lon="-3.85527">
        <ele>500</ele>
        <time>2022-12-31 08:46:58</time>
      </trkpt>
      <trkpt lat="40.0251" lon="-3.85531">
        <ele>500</ele>
        <time>2022-12-31 08:46:59</time>
      </trkpt>
      <trkpt lat="40.02505" lon="-3.85534">
        <ele>500</ele>
        <time>2022-12-31 08:47:00</time>
      </trkpt>
      <trkpt lat="40.02501" lon="-3.85538">
        <ele>499.8</ele>
        <time>2022-12-31 08:47:01</time>
      </trkpt>
      <trkpt lat="40.02496" lon="-3.85541">
        <ele>499.8</ele>
        <time>2022-12-31 08:47:02</time>
      </trkpt>
      <trkpt lat="40.02492" lon="-3.85545">
        <ele>500</ele>
        <time>2022-12-31 08:47:03</time>
      </trkpt>
      <trkpt lat="40.02488" lon="-3.85549">
        <ele>499.8</ele>
        <time>2022-12-31 08:47:04</time>
      </trkpt>
      <trkpt lat="40.02484" lon="-3.85553">
        <ele>500</ele>
        <time>2022-12-31 08:47:05</time>
      </trkpt>
      <trkpt lat="40.0248" lon="-3.85557">
        <ele>499.8</ele>
        <time>2022-12-31 08:47:06</time>
      </trkpt>
      <trkpt lat="40.02477" lon="-3.8556">
        <ele>500</ele>
        <time>2022-12-31 08:47:07</time>
      </trkpt>
      <trkpt lat="40.02473" lon="-3.85564">
        <ele>500</ele>
        <time>2022-12-31 08:47:08</time>
      </trkpt>
      <trkpt lat="40.02471" lon="-3.85569">
        <ele>500</ele>
        <time>2022-12-31 08:47:09</time>
      </trkpt>
      <trkpt lat="40.02469" lon="-3.85574">
        <ele>500</ele>
        <time>2022-12-31 08:47:10</time>
      </trkpt>
      <trkpt lat="40.02468" lon="-3.8558">
        <ele>500</ele>
        <time>2022-12-31 08:47:11</time>
      </trkpt>
      <trkpt lat="40.02467" lon="-3.85586">
        <ele>500</ele>
        <time>2022-12-31 08:47:12</time>
      </trkpt>
      <trkpt lat="40.02466" lon="-3.85593">
        <ele>500</ele>
        <time>2022-12-31 08:47:13</time>
      </trkpt>
      <trkpt lat="40.02465" lon="-3.85598">
        <ele>500</ele>
        <time>2022-12-31 08:47:14</time>
      </trkpt>
      <trkpt lat="40.02461" lon="-3.85602">
        <ele>500</ele>
        <time>2022-12-31 08:47:15</time>
      </trkpt>
      <trkpt lat="40.02457" lon="-3.85604">
        <ele>500</ele>
        <time>2022-12-31 08:47:16</time>
      </trkpt>
      <trkpt lat="40.02452" lon="-3.85605">
        <ele>500</ele>
        <time>2022-12-31 08:47:17</time>
      </trkpt>
      <trkpt lat="40.02447" lon="-3.85604">
        <ele>500</ele>
        <time>2022-12-31 08:47:18</time>
      </trkpt>
      <trkpt lat="40.02442" lon="-3.85605">
        <ele>500</ele>
        <time>2022-12-31 08:47:19</time>
      </trkpt>
      <trkpt lat="40.02436" lon="-3.85607">
        <ele>499.8</ele>
        <time>2022-12-31 08:47:20</time>
      </trkpt>
      <trkpt lat="40.0243" lon="-3.85609">
        <ele>500</ele>
        <time>2022-12-31 08:47:21</time>
      </trkpt>
      <trkpt lat="40.02424" lon="-3.85613">
        <ele>500</ele>
        <time>2022-12-31 08:47:22</time>
      </trkpt>
      <trkpt lat="40.02418" lon="-3.85617">
        <ele>500</ele>
        <time>2022-12-31 08:47:23</time>
      </trkpt>
      <trkpt lat="40.02412" lon="-3.85621">
        <ele>499.8</ele>
        <time>2022-12-31 08:47:24</time>
      </trkpt>
      <trkpt lat="40.02406" lon="-3.85625">
        <ele>499.8</ele>
        <time>2022-12-31 08:47:25</time>
      </trkpt>
      <trkpt lat="40.02399" lon="-3.8563">
        <ele>499.6</ele>
        <time>2022-12-31 08:47:26</time>
      </trkpt>
      <trkpt lat="40.02392" lon="-3.85634">
        <ele>499.4</ele>
        <time>2022-12-31 08:47:27</time>
      </trkpt>
      <trkpt lat="40.02386" lon="-3.85638">
        <ele>499.2</ele>
        <time>2022-12-31 08:47:28</time>
      </trkpt>
      <trkpt lat="40.02379" lon="-3.85642">
        <ele>499</ele>
        <time>2022-12-31 08:47:29</time>
      </trkpt>
      <trkpt lat="40.02372" lon="-3.85646">
        <ele>498.6</ele>
        <time>2022-12-31 08:47:30</time>
      </trkpt>
      <trkpt lat="40.02365" lon="-3.85651">
        <ele>498.4</ele>
        <time>2022-12-31 08:47:31</time>
      </trkpt>
      <trkpt lat="40.02359" lon="-3.85656">
        <ele>498.2</ele>
        <time>2022-12-31 08:47:32</time>
      </trkpt>
      <trkpt lat="40.02352" lon="-3.85661">
        <ele>497.6</ele>
        <time>2022-12-31 08:47:33</time>
      </trkpt>
      <trkpt lat="40.02346" lon="-3.85666">
        <ele>497</ele>
        <time>2022-12-31 08:47:34</time>
      </trkpt>
      <trkpt lat="40.02339" lon="-3.85671">
        <ele>496.6</ele>
        <time>2022-12-31 08:47:35</time>
      </trkpt>
      <trkpt lat="40.02333" lon="-3.85676">
        <ele>496.4</ele>
        <time>2022-12-31 08:47:36</time>
      </trkpt>
      <trkpt lat="40.02326" lon="-3.85681">
        <ele>496.2</ele>
        <time>2022-12-31 08:47:37</time>
      </trkpt>
      <trkpt lat="40.02319" lon="-3.85686">
        <ele>495.8</ele>
        <time>2022-12-31 08:47:38</time>
      </trkpt>
      <trkpt lat="40.02312" lon="-3.85691">
        <ele>495.6</ele>
        <time>2022-12-31 08:47:39</time>
      </trkpt>
      <trkpt lat="40.02305" lon="-3.85696">
        <ele>495.4</ele>
        <time>2022-12-31 08:47:40</time>
      </trkpt>
      <trkpt lat="40.02298" lon="-3.857">
        <ele>495.2</ele>
        <time>2022-12-31 08:47:41</time>
      </trkpt>
      <trkpt lat="40.02291" lon="-3.85705">
        <ele>495.2</ele>
        <time>2022-12-31 08:47:42</time>
      </trkpt>
      <trkpt lat="40.02284" lon="-3.8571">
        <ele>495</ele>
        <time>2022-12-31 08:47:43</time>
      </trkpt>
      <trkpt lat="40.02278" lon="-3.85715">
        <ele>494.6</ele>
        <time>2022-12-31 08:47:44</time>
      </trkpt>
      <trkpt lat="40.02271" lon="-3.8572">
        <ele>494.4</ele>
        <time>2022-12-31 08:47:45</time>
      </trkpt>
      <trkpt lat="40.02264" lon="-3.85725">
        <ele>494</ele>
        <time>2022-12-31 08:47:46</time>
      </trkpt>
      <trkpt lat="40.02257" lon="-3.8573">
        <ele>493.8</ele>
        <time>2022-12-31 08:47:47</time>
      </trkpt>
      <trkpt lat="40.02251" lon="-3.85735">
        <ele>493.8</ele>
        <time>2022-12-31 08:47:48</time>
      </trkpt>
      <trkpt lat="40.02244" lon="-3.85739">
        <ele>493.6</ele>
        <time>2022-12-31 08:47:49</time>
      </trkpt>
      <trkpt lat="40.02237" lon="-3.85744">
        <ele>493.4</ele>
        <time>2022-12-31 08:47:50</time>
      </trkpt>
      <trkpt lat="40.02231" lon="-3.85748">
        <ele>493</ele>
        <time>2022-12-31 08:47:51</time>
      </trkpt>
      <trkpt lat="40.02224" lon="-3.85753">
        <ele>492.8</ele>
        <time>2022-12-31 08:47:52</time>
      </trkpt>
      <trkpt lat="40.02218" lon="-3.85758">
        <ele>492.4</ele>
        <time>2022-12-31 08:47:53</time>
      </trkpt>
      <trkpt lat="40.02213" lon="-3.85764">
        <ele>492.2</ele>
        <time>2022-12-31 08:47:54</time>
      </trkpt>
      <trkpt lat="40.02207" lon="-3.8577">
        <ele>492.2</ele>
        <time>2022-12-31 08:47:55</time>
      </trkpt>
      <trkpt lat="40.02202" lon="-3.85777">
        <ele>492</ele>
        <time>2022-12-31 08:47:56</time>
      </trkpt>
      <trkpt lat="40.02197" lon="-3.85783">
        <ele>491.8</ele>
        <time>2022-12-31 08:47:57</time>
      </trkpt>
      <trkpt lat="40.02191" lon="-3.85789">
        <ele>491.8</ele>
        <time>2022-12-31 08:47:58</time>
      </trkpt>
      <trkpt lat="40.02186" lon="-3.85795">
        <ele>491.6</ele>
        <time>2022-12-31 08:47:59</time>
      </trkpt>
      <trkpt lat="40.02181" lon="-3.858">
        <ele>491.4</ele>
        <time>2022-12-31 08:48:00</time>
      </trkpt>
      <trkpt lat="40.02175" lon="-3.85806">
        <ele>491.4</ele>
        <time>2022-12-31 08:48:01</time>
      </trkpt>
      <trkpt lat="40.0217" lon="-3.85812">
        <ele>491.4</ele>
        <time>2022-12-31 08:48:02</time>
      </trkpt>
      <trkpt lat="40.02165" lon="-3.85817">
        <ele>491.2</ele>
        <time>2022-12-31 08:48:03</time>
      </trkpt>
      <trkpt lat="40.02159" lon="-3.85821">
        <ele>491.2</ele>
        <time>2022-12-31 08:48:04</time>
      </trkpt>
      <trkpt lat="40.02154" lon="-3.85825">
        <ele>491</ele>
        <time>2022-12-31 08:48:05</time>
      </trkpt>
      <trkpt lat="40.02148" lon="-3.85829">
        <ele>491</ele>
        <time>2022-12-31 08:48:06</time>
      </trkpt>
      <trkpt lat="40.02142" lon="-3.85832">
        <ele>491</ele>
        <time>2022-12-31 08:48:07</time>
      </trkpt>
      <trkpt lat="40.02136" lon="-3.85834">
        <ele>491</ele>
        <time>2022-12-31 08:48:08</time>
      </trkpt>
      <trkpt lat="40.02129" lon="-3.85835">
        <ele>491</ele>
        <time>2022-12-31 08:48:09</time>
      </trkpt>
      <trkpt lat="40.02123" lon="-3.85836">
        <ele>491</ele>
        <time>2022-12-31 08:48:10</time>
      </trkpt>
      <trkpt lat="40.02117" lon="-3.85837">
        <ele>491</ele>
        <time>2022-12-31 08:48:11</time>
      </trkpt>
      <trkpt lat="40.0211" lon="-3.85837">
        <ele>491</ele>
        <time>2022-12-31 08:48:12</time>
      </trkpt>
      <trkpt lat="40.02104" lon="-3.85838">
        <ele>490.8</ele>
        <time>2022-12-31 08:48:13</time>
      </trkpt>
      <trkpt lat="40.02098" lon="-3.85839">
        <ele>491</ele>
        <time>2022-12-31 08:48:14</time>
      </trkpt>
      <trkpt lat="40.02091" lon="-3.8584">
        <ele>490.8</ele>
        <time>2022-12-31 08:48:15</time>
      </trkpt>
      <trkpt lat="40.02085" lon="-3.8584">
        <ele>491</ele>
        <time>2022-12-31 08:48:16</time>
      </trkpt>
      <trkpt lat="40.02079" lon="-3.85841">
        <ele>490.8</ele>
        <time>2022-12-31 08:48:17</time>
      </trkpt>
      <trkpt lat="40.02072" lon="-3.85841">
        <ele>491</ele>
        <time>2022-12-31 08:48:18</time>
      </trkpt>
      <trkpt lat="40.02066" lon="-3.85842">
        <ele>491</ele>
        <time>2022-12-31 08:48:19</time>
      </trkpt>
      <trkpt lat="40.0206" lon="-3.85842">
        <ele>490.8</ele>
        <time>2022-12-31 08:48:20</time>
      </trkpt>
      <trkpt lat="40.02054" lon="-3.85842">
        <ele>490.8</ele>
        <time>2022-12-31 08:48:21</time>
      </trkpt>
      <trkpt lat="40.02047" lon="-3.85842">
        <ele>490.8</ele>
        <time>2022-12-31 08:48:22</time>
      </trkpt>
      <trkpt lat="40.02041" lon="-3.85842">
        <ele>490.8</ele>
        <time>2022-12-31 08:48:23</time>
      </trkpt>
      <trkpt lat="40.02035" lon="-3.85843">
        <ele>490.8</ele>
        <time>2022-12-31 08:48:24</time>
      </trkpt>
      <trkpt lat="40.02029" lon="-3.85844">
        <ele>490.8</ele>
        <time>2022-12-31 08:48:25</time>
      </trkpt>
      <trkpt lat="40.02023" lon="-3.85844">
        <ele>490.8</ele>
        <time>2022-12-31 08:48:26</time>
      </trkpt>
      <trkpt lat="40.02017" lon="-3.85845">
        <ele>490.8</ele>
        <time>2022-12-31 08:48:27</time>
      </trkpt>
      <trkpt lat="40.02011" lon="-3.85845">
        <ele>490.8</ele>
        <time>2022-12-31 08:48:28</time>
      </trkpt>
      <trkpt lat="40.02005" lon="-3.85846">
        <ele>490.8</ele>
        <time>2022-12-31 08:48:29</time>
      </trkpt>
      <trkpt lat="40.01999" lon="-3.85846">
        <ele>490.8</ele>
        <time>2022-12-31 08:48:30</time>
      </trkpt>
      <trkpt lat="40.01993" lon="-3.85847">
        <ele>490.8</ele>
        <time>2022-12-31 08:48:31</time>
      </trkpt>
      <trkpt lat="40.01988" lon="-3.85848">
        <ele>490.8</ele>
        <time>2022-12-31 08:48:32</time>
      </trkpt>
      <trkpt lat="40.01982" lon="-3.8585">
        <ele>490.8</ele>
        <time>2022-12-31 08:48:33</time>
      </trkpt>
      <trkpt lat="40.01977" lon="-3.85852">
        <ele>490.8</ele>
        <time>2022-12-31 08:48:34</time>
      </trkpt>
      <trkpt lat="40.01973" lon="-3.85856">
        <ele>490.8</ele>
        <time>2022-12-31 08:48:35</time>
      </trkpt>
      <trkpt lat="40.0197" lon="-3.85861">
        <ele>490.8</ele>
        <time>2022-12-31 08:48:36</time>
      </trkpt>
      <trkpt lat="40.01968" lon="-3.85867">
        <ele>490.8</ele>
        <time>2022-12-31 08:48:37</time>
      </trkpt>
      <trkpt lat="40.01968" lon="-3.85874">
        <ele>490.8</ele>
        <time>2022-12-31 08:48:38</time>
      </trkpt>
      <trkpt lat="40.01969" lon="-3.8588">
        <ele>490.8</ele>
        <time>2022-12-31 08:48:39</time>
      </trkpt>
      <trkpt lat="40.01971" lon="-3.85887">
        <ele>490.8</ele>
        <time>2022-12-31 08:48:40</time>
      </trkpt>
      <trkpt lat="40.01972" lon="-3.85894">
        <ele>491</ele>
        <time>2022-12-31 08:48:41</time>
      </trkpt>
      <trkpt lat="40.01973" lon="-3.85901">
        <ele>491</ele>
        <time>2022-12-31 08:48:42</time>
      </trkpt>
      <trkpt lat="40.01973" lon="-3.85909">
        <ele>491.2</ele>
        <time>2022-12-31 08:48:43</time>
      </trkpt>
      <trkpt lat="40.01973" lon="-3.85916">
        <ele>491.4</ele>
        <time>2022-12-31 08:48:44</time>
      </trkpt>
      <trkpt lat="40.01972" lon="-3.85924">
        <ele>491.4</ele>
        <time>2022-12-31 08:48:45</time>
      </trkpt>
      <trkpt lat="40.0197" lon="-3.85931">
        <ele>491.4</ele>
        <time>2022-12-31 08:48:46</time>
      </trkpt>
      <trkpt lat="40.01969" lon="-3.85938">
        <ele>491.4</ele>
        <time>2022-12-31 08:48:47</time>
      </trkpt>
      <trkpt lat="40.01967" lon="-3.85945">
        <ele>491.6</ele>
        <time>2022-12-31 08:48:48</time>
      </trkpt>
      <trkpt lat="40.01965" lon="-3.85953">
        <ele>491.6</ele>
        <time>2022-12-31 08:48:49</time>
      </trkpt>
      <trkpt lat="40.01963" lon="-3.8596">
        <ele>491.6</ele>
        <time>2022-12-31 08:48:50</time>
      </trkpt>
      <trkpt lat="40.01961" lon="-3.85967">
        <ele>491.6</ele>
        <time>2022-12-31 08:48:51</time>
      </trkpt>
      <trkpt lat="40.01959" lon="-3.85974">
        <ele>491.6</ele>
        <time>2022-12-31 08:48:52</time>
      </trkpt>
      <trkpt lat="40.01957" lon="-3.85982">
        <ele>491.6</ele>
        <time>2022-12-31 08:48:53</time>
      </trkpt>
      <trkpt lat="40.01954" lon="-3.85989">
        <ele>491.6</ele>
        <time>2022-12-31 08:48:54</time>
      </trkpt>
      <trkpt lat="40.01952" lon="-3.85996">
        <ele>491.8</ele>
        <time>2022-12-31 08:48:55</time>
      </trkpt>
      <trkpt lat="40.0195" lon="-3.86004">
        <ele>491.6</ele>
        <time>2022-12-31 08:48:56</time>
      </trkpt>
      <trkpt lat="40.01948" lon="-3.86011">
        <ele>491.6</ele>
        <time>2022-12-31 08:48:57</time>
      </trkpt>
      <trkpt lat="40.01946" lon="-3.86019">
        <ele>491.6</ele>
        <time>2022-12-31 08:48:58</time>
      </trkpt>
      <trkpt lat="40.01944" lon="-3.86026">
        <ele>491.4</ele>
        <time>2022-12-31 08:48:59</time>
      </trkpt>
      <trkpt lat="40.01942" lon="-3.86034">
        <ele>491.6</ele>
        <time>2022-12-31 08:49:00</time>
      </trkpt>
      <trkpt lat="40.0194" lon="-3.86041">
        <ele>491.6</ele>
        <time>2022-12-31 08:49:01</time>
      </trkpt>
      <trkpt lat="40.01938" lon="-3.86049">
        <ele>491.4</ele>
        <time>2022-12-31 08:49:02</time>
      </trkpt>
      <trkpt lat="40.01935" lon="-3.86056">
        <ele>491.6</ele>
        <time>2022-12-31 08:49:03</time>
      </trkpt>
      <trkpt lat="40.01933" lon="-3.86064">
        <ele>491.6</ele>
        <time>2022-12-31 08:49:04</time>
      </trkpt>
      <trkpt lat="40.01931" lon="-3.86071">
        <ele>491.6</ele>
        <time>2022-12-31 08:49:05</time>
      </trkpt>
      <trkpt lat="40.0193" lon="-3.86078">
        <ele>491.6</ele>
        <time>2022-12-31 08:49:06</time>
      </trkpt>
      <trkpt lat="40.01928" lon="-3.86086">
        <ele>491.6</ele>
        <time>2022-12-31 08:49:07</time>
      </trkpt>
      <trkpt lat="40.01926" lon="-3.86093">
        <ele>491.6</ele>
        <time>2022-12-31 08:49:08</time>
      </trkpt>
      <trkpt lat="40.01924" lon="-3.86101">
        <ele>491.4</ele>
        <time>2022-12-31 08:49:09</time>
      </trkpt>
      <trkpt lat="40.01922" lon="-3.86108">
        <ele>491.6</ele>
        <time>2022-12-31 08:49:10</time>
      </trkpt>
      <trkpt lat="40.01919" lon="-3.86115">
        <ele>491.6</ele>
        <time>2022-12-31 08:49:11</time>
      </trkpt>
      <trkpt lat="40.01917" lon="-3.86122">
        <ele>491.6</ele>
        <time>2022-12-31 08:49:12</time>
      </trkpt>
      <trkpt lat="40.01915" lon="-3.8613">
        <ele>491.6</ele>
        <time>2022-12-31 08:49:13</time>
      </trkpt>
      <trkpt lat="40.01912" lon="-3.86137">
        <ele>491.6</ele>
        <time>2022-12-31 08:49:14</time>
      </trkpt>
      <trkpt lat="40.01909" lon="-3.86145">
        <ele>491.8</ele>
        <time>2022-12-31 08:49:15</time>
      </trkpt>
      <trkpt lat="40.01907" lon="-3.86152">
        <ele>491.8</ele>
        <time>2022-12-31 08:49:16</time>
      </trkpt>
      <trkpt lat="40.01904" lon="-3.86158">
        <ele>491.8</ele>
        <time>2022-12-31 08:49:17</time>
      </trkpt>
      <trkpt lat="40.01901" lon="-3.86164">
        <ele>491.6</ele>
        <time>2022-12-31 08:49:18</time>
      </trkpt>
      <trkpt lat="40.01898" lon="-3.86171">
        <ele>491.8</ele>
        <time>2022-12-31 08:49:19</time>
      </trkpt>
      <trkpt lat="40.01895" lon="-3.86178">
        <ele>491.8</ele>
        <time>2022-12-31 08:49:20</time>
      </trkpt>
      <trkpt lat="40.01891" lon="-3.86184">
        <ele>491.8</ele>
        <time>2022-12-31 08:49:21</time>
      </trkpt>
      <trkpt lat="40.01888" lon="-3.86191">
        <ele>491.8</ele>
        <time>2022-12-31 08:49:22</time>
      </trkpt>
      <trkpt lat="40.01884" lon="-3.86197">
        <ele>492</ele>
        <time>2022-12-31 08:49:23</time>
      </trkpt>
      <trkpt lat="40.01881" lon="-3.86204">
        <ele>492</ele>
        <time>2022-12-31 08:49:24</time>
      </trkpt>
      <trkpt lat="40.01877" lon="-3.8621">
        <ele>492.2</ele>
        <time>2022-12-31 08:49:25</time>
      </trkpt>
      <trkpt lat="40.01874" lon="-3.86216">
        <ele>492.2</ele>
        <time>2022-12-31 08:49:26</time>
      </trkpt>
      <trkpt lat="40.0187" lon="-3.86222">
        <ele>492.2</ele>
        <time>2022-12-31 08:49:27</time>
      </trkpt>
      <trkpt lat="40.01866" lon="-3.86227">
        <ele>492.2</ele>
        <time>2022-12-31 08:49:28</time>
      </trkpt>
      <trkpt lat="40.01863" lon="-3.86233">
        <ele>492.4</ele>
        <time>2022-12-31 08:49:29</time>
      </trkpt>
      <trkpt lat="40.01859" lon="-3.86239">
        <ele>492.4</ele>
        <time>2022-12-31 08:49:30</time>
      </trkpt>
      <trkpt lat="40.01855" lon="-3.86245">
        <ele>492.4</ele>
        <time>2022-12-31 08:49:31</time>
      </trkpt>
      <trkpt lat="40.01851" lon="-3.8625">
        <ele>492.4</ele>
        <time>2022-12-31 08:49:32</time>
      </trkpt>
      <trkpt lat="40.01847" lon="-3.86256">
        <ele>492.4</ele>
        <time>2022-12-31 08:49:33</time>
      </trkpt>
      <trkpt lat="40.01843" lon="-3.86262">
        <ele>492.6</ele>
        <time>2022-12-31 08:49:34</time>
      </trkpt>
      <trkpt lat="40.01839" lon="-3.86268">
        <ele>492.6</ele>
        <time>2022-12-31 08:49:35</time>
      </trkpt>
      <trkpt lat="40.01836" lon="-3.86274">
        <ele>492.6</ele>
        <time>2022-12-31 08:49:36</time>
      </trkpt>
      <trkpt lat="40.01833" lon="-3.86281">
        <ele>492.6</ele>
        <time>2022-12-31 08:49:37</time>
      </trkpt>
      <trkpt lat="40.0183" lon="-3.86287">
        <ele>492.6</ele>
        <time>2022-12-31 08:49:38</time>
      </trkpt>
      <trkpt lat="40.01826" lon="-3.86293">
        <ele>492.8</ele>
        <time>2022-12-31 08:49:39</time>
      </trkpt>
      <trkpt lat="40.01823" lon="-3.86299">
        <ele>492.6</ele>
        <time>2022-12-31 08:49:40</time>
      </trkpt>
      <trkpt lat="40.0182" lon="-3.86305">
        <ele>492.6</ele>
        <time>2022-12-31 08:49:41</time>
      </trkpt>
      <trkpt lat="40.01816" lon="-3.8631">
        <ele>492.6</ele>
        <time>2022-12-31 08:49:42</time>
      </trkpt>
      <trkpt lat="40.01813" lon="-3.86315">
        <ele>492.6</ele>
        <time>2022-12-31 08:49:43</time>
      </trkpt>
      <trkpt lat="40.0181" lon="-3.86321">
        <ele>492.8</ele>
        <time>2022-12-31 08:49:44</time>
      </trkpt>
      <trkpt lat="40.01807" lon="-3.86327">
        <ele>492.8</ele>
        <time>2022-12-31 08:49:45</time>
      </trkpt>
      <trkpt lat="40.01804" lon="-3.86332">
        <ele>493</ele>
        <time>2022-12-31 08:49:46</time>
      </trkpt>
      <trkpt lat="40.01801" lon="-3.86338">
        <ele>493</ele>
        <time>2022-12-31 08:49:47</time>
      </trkpt>
      <trkpt lat="40.01798" lon="-3.86343">
        <ele>493</ele>
        <time>2022-12-31 08:49:48</time>
      </trkpt>
      <trkpt lat="40.01794" lon="-3.86349">
        <ele>492.8</ele>
        <time>2022-12-31 08:49:49</time>
      </trkpt>
      <trkpt lat="40.01791" lon="-3.86355">
        <ele>492.8</ele>
        <time>2022-12-31 08:49:50</time>
      </trkpt>
      <trkpt lat="40.01788" lon="-3.86361">
        <ele>493</ele>
        <time>2022-12-31 08:49:51</time>
      </trkpt>
      <trkpt lat="40.01785" lon="-3.86366">
        <ele>493</ele>
        <time>2022-12-31 08:49:52</time>
      </trkpt>
      <trkpt lat="40.01782" lon="-3.86372">
        <ele>493.2</ele>
        <time>2022-12-31 08:49:53</time>
      </trkpt>
      <trkpt lat="40.01779" lon="-3.86378">
        <ele>493.2</ele>
        <time>2022-12-31 08:49:54</time>
      </trkpt>
      <trkpt lat="40.01777" lon="-3.86384">
        <ele>493.4</ele>
        <time>2022-12-31 08:49:55</time>
      </trkpt>
      <trkpt lat="40.01774" lon="-3.8639">
        <ele>493.4</ele>
        <time>2022-12-31 08:49:56</time>
      </trkpt>
      <trkpt lat="40.0177" lon="-3.86396">
        <ele>493.6</ele>
        <time>2022-12-31 08:49:57</time>
      </trkpt>
      <trkpt lat="40.01767" lon="-3.86401">
        <ele>493.4</ele>
        <time>2022-12-31 08:49:58</time>
      </trkpt>
      <trkpt lat="40.01764" lon="-3.86406">
        <ele>493.6</ele>
        <time>2022-12-31 08:49:59</time>
      </trkpt>
      <trkpt lat="40.01761" lon="-3.86412">
        <ele>493.6</ele>
        <time>2022-12-31 08:50:00</time>
      </trkpt>
      <trkpt lat="40.01758" lon="-3.86417">
        <ele>493.8</ele>
        <time>2022-12-31 08:50:01</time>
      </trkpt>
      <trkpt lat="40.01755" lon="-3.86423">
        <ele>493.8</ele>
        <time>2022-12-31 08:50:02</time>
      </trkpt>
      <trkpt lat="40.01752" lon="-3.86428">
        <ele>493.8</ele>
        <time>2022-12-31 08:50:03</time>
      </trkpt>
      <trkpt lat="40.01749" lon="-3.86434">
        <ele>493.8</ele>
        <time>2022-12-31 08:50:04</time>
      </trkpt>
      <trkpt lat="40.01746" lon="-3.86439">
        <ele>494.2</ele>
        <time>2022-12-31 08:50:05</time>
      </trkpt>
      <trkpt lat="40.01743" lon="-3.86445">
        <ele>494.4</ele>
        <time>2022-12-31 08:50:06</time>
      </trkpt>
      <trkpt lat="40.0174" lon="-3.8645">
        <ele>494.4</ele>
        <time>2022-12-31 08:50:07</time>
      </trkpt>
      <trkpt lat="40.01737" lon="-3.86455">
        <ele>494.4</ele>
        <time>2022-12-31 08:50:08</time>
      </trkpt>
      <trkpt lat="40.01734" lon="-3.86461">
        <ele>494.6</ele>
        <time>2022-12-31 08:50:09</time>
      </trkpt>
      <trkpt lat="40.01732" lon="-3.86466">
        <ele>494.6</ele>
        <time>2022-12-31 08:50:10</time>
      </trkpt>
      <trkpt lat="40.01729" lon="-3.86471">
        <ele>494.6</ele>
        <time>2022-12-31 08:50:11</time>
      </trkpt>
      <trkpt lat="40.01726" lon="-3.86476">
        <ele>495</ele>
        <time>2022-12-31 08:50:12</time>
      </trkpt>
      <trkpt lat="40.01723" lon="-3.86481">
        <ele>495.2</ele>
        <time>2022-12-31 08:50:13</time>
      </trkpt>
      <trkpt lat="40.01721" lon="-3.86486">
        <ele>495.2</ele>
        <time>2022-12-31 08:50:14</time>
      </trkpt>
      <trkpt lat="40.01718" lon="-3.86491">
        <ele>495.4</ele>
        <time>2022-12-31 08:50:15</time>
      </trkpt>
      <trkpt lat="40.01715" lon="-3.86496">
        <ele>495.6</ele>
        <time>2022-12-31 08:50:16</time>
      </trkpt>
      <trkpt lat="40.01712" lon="-3.86501">
        <ele>495.8</ele>
        <time>2022-12-31 08:50:17</time>
      </trkpt>
      <trkpt lat="40.0171" lon="-3.86506">
        <ele>496</ele>
        <time>2022-12-31 08:50:18</time>
      </trkpt>
      <trkpt lat="40.01707" lon="-3.86511">
        <ele>496.2</ele>
        <time>2022-12-31 08:50:19</time>
      </trkpt>
      <trkpt lat="40.01704" lon="-3.86516">
        <ele>496.4</ele>
        <time>2022-12-31 08:50:20</time>
      </trkpt>
      <trkpt lat="40.01702" lon="-3.86521">
        <ele>496.6</ele>
        <time>2022-12-31 08:50:21</time>
      </trkpt>
      <trkpt lat="40.01699" lon="-3.86526">
        <ele>496.8</ele>
        <time>2022-12-31 08:50:22</time>
      </trkpt>
      <trkpt lat="40.01696" lon="-3.86531">
        <ele>496.8</ele>
        <time>2022-12-31 08:50:23</time>
      </trkpt>
      <trkpt lat="40.01693" lon="-3.86536">
        <ele>497</ele>
        <time>2022-12-31 08:50:24</time>
      </trkpt>
      <trkpt lat="40.01691" lon="-3.8654">
        <ele>497.2</ele>
        <time>2022-12-31 08:50:25</time>
      </trkpt>
      <trkpt lat="40.01688" lon="-3.86545">
        <ele>497</ele>
        <time>2022-12-31 08:50:26</time>
      </trkpt>
      <trkpt lat="40.01685" lon="-3.8655">
        <ele>497.4</ele>
        <time>2022-12-31 08:50:27</time>
      </trkpt>
      <trkpt lat="40.01683" lon="-3.86554">
        <ele>497.6</ele>
        <time>2022-12-31 08:50:28</time>
      </trkpt>
      <trkpt lat="40.0168" lon="-3.86559">
        <ele>497.6</ele>
        <time>2022-12-31 08:50:29</time>
      </trkpt>
      <trkpt lat="40.01678" lon="-3.86564">
        <ele>498</ele>
        <time>2022-12-31 08:50:30</time>
      </trkpt>
      <trkpt lat="40.01675" lon="-3.86568">
        <ele>498</ele>
        <time>2022-12-31 08:50:31</time>
      </trkpt>
      <trkpt lat="40.01672" lon="-3.86573">
        <ele>498.2</ele>
        <time>2022-12-31 08:50:32</time>
      </trkpt>
      <trkpt lat="40.0167" lon="-3.86578">
        <ele>498.4</ele>
        <time>2022-12-31 08:50:33</time>
      </trkpt>
      <trkpt lat="40.01667" lon="-3.86582">
        <ele>498.6</ele>
        <time>2022-12-31 08:50:34</time>
      </trkpt>
      <trkpt lat="40.01665" lon="-3.86587">
        <ele>498.6</ele>
        <time>2022-12-31 08:50:35</time>
      </trkpt>
      <trkpt lat="40.01662" lon="-3.86592">
        <ele>498.8</ele>
        <time>2022-12-31 08:50:36</time>
      </trkpt>
      <trkpt lat="40.0166" lon="-3.86596">
        <ele>499</ele>
        <time>2022-12-31 08:50:37</time>
      </trkpt>
      <trkpt lat="40.01657" lon="-3.86601">
        <ele>499.2</ele>
        <time>2022-12-31 08:50:38</time>
      </trkpt>
      <trkpt lat="40.01655" lon="-3.86606">
        <ele>499.2</ele>
        <time>2022-12-31 08:50:39</time>
      </trkpt>
      <trkpt lat="40.01652" lon="-3.8661">
        <ele>499.2</ele>
        <time>2022-12-31 08:50:40</time>
      </trkpt>
      <trkpt lat="40.0165" lon="-3.86615">
        <ele>499.6</ele>
        <time>2022-12-31 08:50:41</time>
      </trkpt>
      <trkpt lat="40.01647" lon="-3.8662">
        <ele>499.6</ele>
        <time>2022-12-31 08:50:42</time>
      </trkpt>
      <trkpt lat="40.01645" lon="-3.86624">
        <ele>499.6</ele>
        <time>2022-12-31 08:50:43</time>
      </trkpt>
      <trkpt lat="40.01642" lon="-3.86628">
        <ele>499.8</ele>
        <time>2022-12-31 08:50:44</time>
      </trkpt>
      <trkpt lat="40.0164" lon="-3.86633">
        <ele>500</ele>
        <time>2022-12-31 08:50:45</time>
      </trkpt>
      <trkpt lat="40.01637" lon="-3.86638">
        <ele>499.8</ele>
        <time>2022-12-31 08:50:46</time>
      </trkpt>
      <trkpt lat="40.01635" lon="-3.86642">
        <ele>500.2</ele>
        <time>2022-12-31 08:50:47</time>
      </trkpt>
      <trkpt lat="40.01632" lon="-3.86647">
        <ele>500.2</ele>
        <time>2022-12-31 08:50:48</time>
      </trkpt>
      <trkpt lat="40.0163" lon="-3.86652">
        <ele>500.4</ele>
        <time>2022-12-31 08:50:49</time>
      </trkpt>
      <trkpt lat="40.01627" lon="-3.86656">
        <ele>500.4</ele>
        <time>2022-12-31 08:50:50</time>
      </trkpt>
      <trkpt lat="40.01625" lon="-3.8666">
        <ele>500.8</ele>
        <time>2022-12-31 08:50:51</time>
      </trkpt>
      <trkpt lat="40.01622" lon="-3.86665">
        <ele>500.8</ele>
        <time>2022-12-31 08:50:52</time>
      </trkpt>
      <trkpt lat="40.0162" lon="-3.8667">
        <ele>500.8</ele>
        <time>2022-12-31 08:50:53</time>
      </trkpt>
      <trkpt lat="40.01617" lon="-3.86674">
        <ele>501</ele>
        <time>2022-12-31 08:50:54</time>
      </trkpt>
      <trkpt lat="40.01615" lon="-3.86679">
        <ele>501</ele>
        <time>2022-12-31 08:50:55</time>
      </trkpt>
      <trkpt lat="40.01612" lon="-3.86683">
        <ele>501.2</ele>
        <time>2022-12-31 08:50:56</time>
      </trkpt>
      <trkpt lat="40.01609" lon="-3.86688">
        <ele>501.2</ele>
        <time>2022-12-31 08:50:57</time>
      </trkpt>
      <trkpt lat="40.01607" lon="-3.86693">
        <ele>501.4</ele>
        <time>2022-12-31 08:50:58</time>
      </trkpt>
      <trkpt lat="40.01605" lon="-3.86698">
        <ele>501.4</ele>
        <time>2022-12-31 08:50:59</time>
      </trkpt>
      <trkpt lat="40.01602" lon="-3.86702">
        <ele>501.6</ele>
        <time>2022-12-31 08:51:00</time>
      </trkpt>
      <trkpt lat="40.016" lon="-3.86707">
        <ele>501.8</ele>
        <time>2022-12-31 08:51:01</time>
      </trkpt>
      <trkpt lat="40.01597" lon="-3.86711">
        <ele>501.8</ele>
        <time>2022-12-31 08:51:02</time>
      </trkpt>
      <trkpt lat="40.01595" lon="-3.86716">
        <ele>501.8</ele>
        <time>2022-12-31 08:51:03</time>
      </trkpt>
      <trkpt lat="40.01592" lon="-3.8672">
        <ele>502</ele>
        <time>2022-12-31 08:51:04</time>
      </trkpt>
      <trkpt lat="40.0159" lon="-3.86725">
        <ele>502</ele>
        <time>2022-12-31 08:51:05</time>
      </trkpt>
      <trkpt lat="40.01587" lon="-3.8673">
        <ele>502</ele>
        <time>2022-12-31 08:51:06</time>
      </trkpt>
      <trkpt lat="40.01585" lon="-3.86735">
        <ele>502.2</ele>
        <time>2022-12-31 08:51:07</time>
      </trkpt>
      <trkpt lat="40.01582" lon="-3.86739">
        <ele>502.4</ele>
        <time>2022-12-31 08:51:08</time>
      </trkpt>
      <trkpt lat="40.01579" lon="-3.86744">
        <ele>502.6</ele>
        <time>2022-12-31 08:51:09</time>
      </trkpt>
      <trkpt lat="40.01577" lon="-3.86748">
        <ele>502.6</ele>
        <time>2022-12-31 08:51:10</time>
      </trkpt>
      <trkpt lat="40.01574" lon="-3.86753">
        <ele>502.8</ele>
        <time>2022-12-31 08:51:11</time>
      </trkpt>
      <trkpt lat="40.01572" lon="-3.86758">
        <ele>502.6</ele>
        <time>2022-12-31 08:51:12</time>
      </trkpt>
      <trkpt lat="40.01569" lon="-3.86762">
        <ele>502.8</ele>
        <time>2022-12-31 08:51:13</time>
      </trkpt>
      <trkpt lat="40.01566" lon="-3.86767">
        <ele>503</ele>
        <time>2022-12-31 08:51:14</time>
      </trkpt>
      <trkpt lat="40.01563" lon="-3.86772">
        <ele>503</ele>
        <time>2022-12-31 08:51:15</time>
      </trkpt>
      <trkpt lat="40.01561" lon="-3.86777">
        <ele>503</ele>
        <time>2022-12-31 08:51:16</time>
      </trkpt>
      <trkpt lat="40.01558" lon="-3.86782">
        <ele>503.2</ele>
        <time>2022-12-31 08:51:17</time>
      </trkpt>
      <trkpt lat="40.01555" lon="-3.86786">
        <ele>503.2</ele>
        <time>2022-12-31 08:51:18</time>
      </trkpt>
      <trkpt lat="40.01553" lon="-3.86791">
        <ele>503.2</ele>
        <time>2022-12-31 08:51:19</time>
      </trkpt>
      <trkpt lat="40.0155" lon="-3.86796">
        <ele>503.4</ele>
        <time>2022-12-31 08:51:20</time>
      </trkpt>
      <trkpt lat="40.01548" lon="-3.86801">
        <ele>503.4</ele>
        <time>2022-12-31 08:51:21</time>
      </trkpt>
      <trkpt lat="40.01545" lon="-3.86806">
        <ele>503.4</ele>
        <time>2022-12-31 08:51:22</time>
      </trkpt>
      <trkpt lat="40.01542" lon="-3.8681">
        <ele>503.4</ele>
        <time>2022-12-31 08:51:23</time>
      </trkpt>
      <trkpt lat="40.0154" lon="-3.86815">
        <ele>503.6</ele>
        <time>2022-12-31 08:51:24</time>
      </trkpt>
      <trkpt lat="40.01537" lon="-3.8682">
        <ele>503.8</ele>
        <time>2022-12-31 08:51:25</time>
      </trkpt>
      <trkpt lat="40.01535" lon="-3.86825">
        <ele>503.8</ele>
        <time>2022-12-31 08:51:26</time>
      </trkpt>
      <trkpt lat="40.01532" lon="-3.8683">
        <ele>504</ele>
        <time>2022-12-31 08:51:27</time>
      </trkpt>
      <trkpt lat="40.01529" lon="-3.86835">
        <ele>504</ele>
        <time>2022-12-31 08:51:28</time>
      </trkpt>
      <trkpt lat="40.01526" lon="-3.8684">
        <ele>504</ele>
        <time>2022-12-31 08:51:29</time>
      </trkpt>
      <trkpt lat="40.01523" lon="-3.86845">
        <ele>504</ele>
        <time>2022-12-31 08:51:30</time>
      </trkpt>
      <trkpt lat="40.0152" lon="-3.8685">
        <ele>504.2</ele>
        <time>2022-12-31 08:51:31</time>
      </trkpt>
      <trkpt lat="40.01517" lon="-3.86856">
        <ele>504.2</ele>
        <time>2022-12-31 08:51:32</time>
      </trkpt>
      <trkpt lat="40.01514" lon="-3.86861">
        <ele>504.4</ele>
        <time>2022-12-31 08:51:33</time>
      </trkpt>
      <trkpt lat="40.01511" lon="-3.86867">
        <ele>504.4</ele>
        <time>2022-12-31 08:51:34</time>
      </trkpt>
      <trkpt lat="40.01508" lon="-3.86872">
        <ele>504.4</ele>
        <time>2022-12-31 08:51:35</time>
      </trkpt>
      <trkpt lat="40.01505" lon="-3.86877">
        <ele>504.4</ele>
        <time>2022-12-31 08:51:36</time>
      </trkpt>
      <trkpt lat="40.01502" lon="-3.86882">
        <ele>504.4</ele>
        <time>2022-12-31 08:51:37</time>
      </trkpt>
      <trkpt lat="40.01499" lon="-3.86887">
        <ele>504.6</ele>
        <time>2022-12-31 08:51:38</time>
      </trkpt>
      <trkpt lat="40.01495" lon="-3.86893">
        <ele>504.4</ele>
        <time>2022-12-31 08:51:39</time>
      </trkpt>
      <trkpt lat="40.01492" lon="-3.86898">
        <ele>504.4</ele>
        <time>2022-12-31 08:51:40</time>
      </trkpt>
      <trkpt lat="40.01489" lon="-3.86904">
        <ele>504.6</ele>
        <time>2022-12-31 08:51:41</time>
      </trkpt>
      <trkpt lat="40.01486" lon="-3.8691">
        <ele>504.6</ele>
        <time>2022-12-31 08:51:42</time>
      </trkpt>
      <trkpt lat="40.01484" lon="-3.86916">
        <ele>504.4</ele>
        <time>2022-12-31 08:51:43</time>
      </trkpt>
      <trkpt lat="40.01481" lon="-3.86922">
        <ele>504.4</ele>
        <time>2022-12-31 08:51:44</time>
      </trkpt>
      <trkpt lat="40.01478" lon="-3.86928">
        <ele>504.4</ele>
        <time>2022-12-31 08:51:45</time>
      </trkpt>
      <trkpt lat="40.01475" lon="-3.86933">
        <ele>504.4</ele>
        <time>2022-12-31 08:51:46</time>
      </trkpt>
      <trkpt lat="40.01471" lon="-3.86939">
        <ele>504.4</ele>
        <time>2022-12-31 08:51:47</time>
      </trkpt>
      <trkpt lat="40.01468" lon="-3.86945">
        <ele>504.4</ele>
        <time>2022-12-31 08:51:48</time>
      </trkpt>
      <trkpt lat="40.01465" lon="-3.8695">
        <ele>504.2</ele>
        <time>2022-12-31 08:51:49</time>
      </trkpt>
      <trkpt lat="40.01461" lon="-3.86956">
        <ele>504.2</ele>
        <time>2022-12-31 08:51:50</time>
      </trkpt>
      <trkpt lat="40.01458" lon="-3.86961">
        <ele>504.4</ele>
        <time>2022-12-31 08:51:51</time>
      </trkpt>
      <trkpt lat="40.01455" lon="-3.86967">
        <ele>504.4</ele>
        <time>2022-12-31 08:51:52</time>
      </trkpt>
      <trkpt lat="40.01452" lon="-3.86972">
        <ele>504.2</ele>
        <time>2022-12-31 08:51:53</time>
      </trkpt>
      <trkpt lat="40.01449" lon="-3.86978">
        <ele>504.2</ele>
        <time>2022-12-31 08:51:54</time>
      </trkpt>
      <trkpt lat="40.01446" lon="-3.86983">
        <ele>504.2</ele>
        <time>2022-12-31 08:51:55</time>
      </trkpt>
      <trkpt lat="40.01443" lon="-3.86989">
        <ele>504.4</ele>
        <time>2022-12-31 08:51:56</time>
      </trkpt>
      <trkpt lat="40.0144" lon="-3.86995">
        <ele>504.4</ele>
        <time>2022-12-31 08:51:57</time>
      </trkpt>
      <trkpt lat="40.01437" lon="-3.87001">
        <ele>504.4</ele>
        <time>2022-12-31 08:51:58</time>
      </trkpt>
      <trkpt lat="40.01433" lon="-3.87006">
        <ele>504.2</ele>
        <time>2022-12-31 08:51:59</time>
      </trkpt>
      <trkpt lat="40.0143" lon="-3.87012">
        <ele>504.4</ele>
        <time>2022-12-31 08:52:00</time>
      </trkpt>
      <trkpt lat="40.01427" lon="-3.87018">
        <ele>504.4</ele>
        <time>2022-12-31 08:52:01</time>
      </trkpt>
      <trkpt lat="40.01423" lon="-3.87025">
        <ele>504.4</ele>
        <time>2022-12-31 08:52:02</time>
      </trkpt>
      <trkpt lat="40.0142" lon="-3.87031">
        <ele>504.2</ele>
        <time>2022-12-31 08:52:03</time>
      </trkpt>
      <trkpt lat="40.01416" lon="-3.87038">
        <ele>504.2</ele>
        <time>2022-12-31 08:52:04</time>
      </trkpt>
      <trkpt lat="40.01412" lon="-3.87044">
        <ele>504.2</ele>
        <time>2022-12-31 08:52:05</time>
      </trkpt>
      <trkpt lat="40.01408" lon="-3.87051">
        <ele>504.4</ele>
        <time>2022-12-31 08:52:06</time>
      </trkpt>
      <trkpt lat="40.01404" lon="-3.87057">
        <ele>504.4</ele>
        <time>2022-12-31 08:52:07</time>
      </trkpt>
      <trkpt lat="40.014" lon="-3.87064">
        <ele>504.2</ele>
        <time>2022-12-31 08:52:08</time>
      </trkpt>
      <trkpt lat="40.01396" lon="-3.8707">
        <ele>504.2</ele>
        <time>2022-12-31 08:52:09</time>
      </trkpt>
      <trkpt lat="40.01392" lon="-3.87077">
        <ele>504.2</ele>
        <time>2022-12-31 08:52:10</time>
      </trkpt>
      <trkpt lat="40.01387" lon="-3.87084">
        <ele>504.2</ele>
        <time>2022-12-31 08:52:11</time>
      </trkpt>
      <trkpt lat="40.01383" lon="-3.87091">
        <ele>503.8</ele>
        <time>2022-12-31 08:52:12</time>
      </trkpt>
      <trkpt lat="40.01379" lon="-3.87098">
        <ele>503.8</ele>
        <time>2022-12-31 08:52:13</time>
      </trkpt>
      <trkpt lat="40.01375" lon="-3.87105">
        <ele>503.8</ele>
        <time>2022-12-31 08:52:14</time>
      </trkpt>
      <trkpt lat="40.01371" lon="-3.87112">
        <ele>503.8</ele>
        <time>2022-12-31 08:52:15</time>
      </trkpt>
      <trkpt lat="40.01368" lon="-3.8712">
        <ele>503.2</ele>
        <time>2022-12-31 08:52:16</time>
      </trkpt>
      <trkpt lat="40.01364" lon="-3.87127">
        <ele>502.8</ele>
        <time>2022-12-31 08:52:17</time>
      </trkpt>
      <trkpt lat="40.0136" lon="-3.87134">
        <ele>502.6</ele>
        <time>2022-12-31 08:52:18</time>
      </trkpt>
      <trkpt lat="40.01356" lon="-3.87141">
        <ele>502.4</ele>
        <time>2022-12-31 08:52:19</time>
      </trkpt>
      <trkpt lat="40.01352" lon="-3.87148">
        <ele>502.4</ele>
        <time>2022-12-31 08:52:20</time>
      </trkpt>
      <trkpt lat="40.01348" lon="-3.87155">
        <ele>502.2</ele>
        <time>2022-12-31 08:52:21</time>
      </trkpt>
      <trkpt lat="40.01345" lon="-3.87163">
        <ele>502.2</ele>
        <time>2022-12-31 08:52:22</time>
      </trkpt>
      <trkpt lat="40.01341" lon="-3.8717">
        <ele>502</ele>
        <time>2022-12-31 08:52:23</time>
      </trkpt>
      <trkpt lat="40.01338" lon="-3.87176">
        <ele>501.8</ele>
        <time>2022-12-31 08:52:24</time>
      </trkpt>
      <trkpt lat="40.01334" lon="-3.87183">
        <ele>501.8</ele>
        <time>2022-12-31 08:52:25</time>
      </trkpt>
      <trkpt lat="40.0133" lon="-3.87189">
        <ele>501.8</ele>
        <time>2022-12-31 08:52:26</time>
      </trkpt>
      <trkpt lat="40.01327" lon="-3.87195">
        <ele>501.8</ele>
        <time>2022-12-31 08:52:27</time>
      </trkpt>
      <trkpt lat="40.01323" lon="-3.87201">
        <ele>501.8</ele>
        <time>2022-12-31 08:52:28</time>
      </trkpt>
      <trkpt lat="40.01319" lon="-3.87206">
        <ele>501.6</ele>
        <time>2022-12-31 08:52:29</time>
      </trkpt>
      <trkpt lat="40.01316" lon="-3.87212">
        <ele>501.6</ele>
        <time>2022-12-31 08:52:30</time>
      </trkpt>
      <trkpt lat="40.01313" lon="-3.87218">
        <ele>501.6</ele>
        <time>2022-12-31 08:52:31</time>
      </trkpt>
      <trkpt lat="40.0131" lon="-3.87223">
        <ele>501.8</ele>
        <time>2022-12-31 08:52:32</time>
      </trkpt>
      <trkpt lat="40.01308" lon="-3.87228">
        <ele>501.8</ele>
        <time>2022-12-31 08:52:33</time>
      </trkpt>
      <trkpt lat="40.01305" lon="-3.87234">
        <ele>501.8</ele>
        <time>2022-12-31 08:52:34</time>
      </trkpt>
      <trkpt lat="40.01302" lon="-3.87239">
        <ele>501.8</ele>
        <time>2022-12-31 08:52:35</time>
      </trkpt>
      <trkpt lat="40.013" lon="-3.87244">
        <ele>501.8</ele>
        <time>2022-12-31 08:52:36</time>
      </trkpt>
      <trkpt lat="40.01297" lon="-3.8725">
        <ele>502</ele>
        <time>2022-12-31 08:52:37</time>
      </trkpt>
      <trkpt lat="40.01293" lon="-3.87255">
        <ele>502</ele>
        <time>2022-12-31 08:52:38</time>
      </trkpt>
      <trkpt lat="40.0129" lon="-3.8726">
        <ele>502.2</ele>
        <time>2022-12-31 08:52:39</time>
      </trkpt>
      <trkpt lat="40.01287" lon="-3.87265">
        <ele>502.2</ele>
        <time>2022-12-31 08:52:40</time>
      </trkpt>
      <trkpt lat="40.01284" lon="-3.8727">
        <ele>502.4</ele>
        <time>2022-12-31 08:52:41</time>
      </trkpt>
      <trkpt lat="40.01281" lon="-3.87275">
        <ele>502.4</ele>
        <time>2022-12-31 08:52:42</time>
      </trkpt>
      <trkpt lat="40.01278" lon="-3.87281">
        <ele>502.6</ele>
        <time>2022-12-31 08:52:43</time>
      </trkpt>
      <trkpt lat="40.01275" lon="-3.87286">
        <ele>502.6</ele>
        <time>2022-12-31 08:52:44</time>
      </trkpt>
      <trkpt lat="40.01272" lon="-3.87291">
        <ele>502.6</ele>
        <time>2022-12-31 08:52:45</time>
      </trkpt>
      <trkpt lat="40.01269" lon="-3.87297">
        <ele>502.8</ele>
        <time>2022-12-31 08:52:46</time>
      </trkpt>
      <trkpt lat="40.01266" lon="-3.87302">
        <ele>503</ele>
        <time>2022-12-31 08:52:47</time>
      </trkpt>
      <trkpt lat="40.01263" lon="-3.87307">
        <ele>503.2</ele>
        <time>2022-12-31 08:52:48</time>
      </trkpt>
      <trkpt lat="40.01261" lon="-3.87312">
        <ele>503</ele>
        <time>2022-12-31 08:52:49</time>
      </trkpt>
      <trkpt lat="40.01258" lon="-3.87318">
        <ele>503.2</ele>
        <time>2022-12-31 08:52:50</time>
      </trkpt>
      <trkpt lat="40.01255" lon="-3.87323">
        <ele>503.2</ele>
        <time>2022-12-31 08:52:51</time>
      </trkpt>
      <trkpt lat="40.01252" lon="-3.87328">
        <ele>503.4</ele>
        <time>2022-12-31 08:52:52</time>
      </trkpt>
      <trkpt lat="40.01249" lon="-3.87334">
        <ele>503.4</ele>
        <time>2022-12-31 08:52:53</time>
      </trkpt>
      <trkpt lat="40.01246" lon="-3.87339">
        <ele>503.4</ele>
        <time>2022-12-31 08:52:54</time>
      </trkpt>
      <trkpt lat="40.01243" lon="-3.87344">
        <ele>503.4</ele>
        <time>2022-12-31 08:52:55</time>
      </trkpt>
      <trkpt lat="40.0124" lon="-3.8735">
        <ele>503.4</ele>
        <time>2022-12-31 08:52:56</time>
      </trkpt>
      <trkpt lat="40.01237" lon="-3.87355">
        <ele>503.4</ele>
        <time>2022-12-31 08:52:57</time>
      </trkpt>
      <trkpt lat="40.01234" lon="-3.8736">
        <ele>503.4</ele>
        <time>2022-12-31 08:52:58</time>
      </trkpt>
      <trkpt lat="40.01231" lon="-3.87365">
        <ele>503.6</ele>
        <time>2022-12-31 08:52:59</time>
      </trkpt>
      <trkpt lat="40.01228" lon="-3.8737">
        <ele>503.6</ele>
        <time>2022-12-31 08:53:00</time>
      </trkpt>
      <trkpt lat="40.01225" lon="-3.87374">
        <ele>503.6</ele>
        <time>2022-12-31 08:53:01</time>
      </trkpt>
      <trkpt lat="40.01222" lon="-3.87379">
        <ele>503.8</ele>
        <time>2022-12-31 08:53:02</time>
      </trkpt>
      <trkpt lat="40.0122" lon="-3.87384">
        <ele>503.8</ele>
        <time>2022-12-31 08:53:03</time>
      </trkpt>
      <trkpt lat="40.01217" lon="-3.87389">
        <ele>503.8</ele>
        <time>2022-12-31 08:53:04</time>
      </trkpt>
      <trkpt lat="40.01214" lon="-3.87394">
        <ele>504</ele>
        <time>2022-12-31 08:53:05</time>
      </trkpt>
      <trkpt lat="40.01211" lon="-3.87399">
        <ele>504</ele>
        <time>2022-12-31 08:53:06</time>
      </trkpt>
      <trkpt lat="40.01209" lon="-3.87404">
        <ele>504.2</ele>
        <time>2022-12-31 08:53:07</time>
      </trkpt>
      <trkpt lat="40.01205" lon="-3.87409">
        <ele>504.4</ele>
        <time>2022-12-31 08:53:08</time>
      </trkpt>
      <trkpt lat="40.01203" lon="-3.87413">
        <ele>504.6</ele>
        <time>2022-12-31 08:53:09</time>
      </trkpt>
      <trkpt lat="40.012" lon="-3.87418">
        <ele>504.8</ele>
        <time>2022-12-31 08:53:10</time>
      </trkpt>
      <trkpt lat="40.01197" lon="-3.87423">
        <ele>504.8</ele>
        <time>2022-12-31 08:53:11</time>
      </trkpt>
      <trkpt lat="40.01194" lon="-3.87429">
        <ele>505.2</ele>
        <time>2022-12-31 08:53:12</time>
      </trkpt>
      <trkpt lat="40.01191" lon="-3.87434">
        <ele>505.2</ele>
        <time>2022-12-31 08:53:13</time>
      </trkpt>
      <trkpt lat="40.01188" lon="-3.87439">
        <ele>505.2</ele>
        <time>2022-12-31 08:53:14</time>
      </trkpt>
      <trkpt lat="40.01186" lon="-3.87445">
        <ele>505.2</ele>
        <time>2022-12-31 08:53:15</time>
      </trkpt>
      <trkpt lat="40.01183" lon="-3.8745">
        <ele>505.4</ele>
        <time>2022-12-31 08:53:16</time>
      </trkpt>
      <trkpt lat="40.0118" lon="-3.87456">
        <ele>505.4</ele>
        <time>2022-12-31 08:53:17</time>
      </trkpt>
      <trkpt lat="40.01178" lon="-3.87461">
        <ele>505.4</ele>
        <time>2022-12-31 08:53:18</time>
      </trkpt>
      <trkpt lat="40.01175" lon="-3.87466">
        <ele>505.4</ele>
        <time>2022-12-31 08:53:19</time>
      </trkpt>
      <trkpt lat="40.01171" lon="-3.87472">
        <ele>505.4</ele>
        <time>2022-12-31 08:53:20</time>
      </trkpt>
      <trkpt lat="40.01168" lon="-3.87477">
        <ele>505.4</ele>
        <time>2022-12-31 08:53:21</time>
      </trkpt>
      <trkpt lat="40.01165" lon="-3.87482">
        <ele>505.6</ele>
        <time>2022-12-31 08:53:22</time>
      </trkpt>
      <trkpt lat="40.01162" lon="-3.87487">
        <ele>505.6</ele>
        <time>2022-12-31 08:53:23</time>
      </trkpt>
      <trkpt lat="40.01159" lon="-3.87492">
        <ele>505.8</ele>
        <time>2022-12-31 08:53:24</time>
      </trkpt>
      <trkpt lat="40.01156" lon="-3.87497">
        <ele>506</ele>
        <time>2022-12-31 08:53:25</time>
      </trkpt>
      <trkpt lat="40.01153" lon="-3.87502">
        <ele>506</ele>
        <time>2022-12-31 08:53:26</time>
      </trkpt>
      <trkpt lat="40.0115" lon="-3.87507">
        <ele>506</ele>
        <time>2022-12-31 08:53:27</time>
      </trkpt>
      <trkpt lat="40.01147" lon="-3.87512">
        <ele>506.2</ele>
        <time>2022-12-31 08:53:28</time>
      </trkpt>
      <trkpt lat="40.01144" lon="-3.87518">
        <ele>506.2</ele>
        <time>2022-12-31 08:53:29</time>
      </trkpt>
      <trkpt lat="40.01141" lon="-3.87523">
        <ele>506.2</ele>
        <time>2022-12-31 08:53:30</time>
      </trkpt>
      <trkpt lat="40.01138" lon="-3.87528">
        <ele>506.2</ele>
        <time>2022-12-31 08:53:31</time>
      </trkpt>
      <trkpt lat="40.01136" lon="-3.87532">
        <ele>506.4</ele>
        <time>2022-12-31 08:53:32</time>
      </trkpt>
      <trkpt lat="40.01133" lon="-3.87538">
        <ele>506.4</ele>
        <time>2022-12-31 08:53:33</time>
      </trkpt>
      <trkpt lat="40.0113" lon="-3.87543">
        <ele>506.6</ele>
        <time>2022-12-31 08:53:34</time>
      </trkpt>
      <trkpt lat="40.01127" lon="-3.87548">
        <ele>506.6</ele>
        <time>2022-12-31 08:53:35</time>
      </trkpt>
      <trkpt lat="40.01125" lon="-3.87553">
        <ele>506.8</ele>
        <time>2022-12-31 08:53:36</time>
      </trkpt>
      <trkpt lat="40.01122" lon="-3.87558">
        <ele>506.8</ele>
        <time>2022-12-31 08:53:37</time>
      </trkpt>
      <trkpt lat="40.01119" lon="-3.87563">
        <ele>506.8</ele>
        <time>2022-12-31 08:53:38</time>
      </trkpt>
      <trkpt lat="40.01116" lon="-3.87568">
        <ele>507</ele>
        <time>2022-12-31 08:53:39</time>
      </trkpt>
      <trkpt lat="40.01113" lon="-3.87573">
        <ele>507</ele>
        <time>2022-12-31 08:53:40</time>
      </trkpt>
      <trkpt lat="40.01111" lon="-3.87578">
        <ele>507</ele>
        <time>2022-12-31 08:53:41</time>
      </trkpt>
      <trkpt lat="40.01108" lon="-3.87583">
        <ele>507.2</ele>
        <time>2022-12-31 08:53:42</time>
      </trkpt>
      <trkpt lat="40.01105" lon="-3.87588">
        <ele>507.2</ele>
        <time>2022-12-31 08:53:43</time>
      </trkpt>
      <trkpt lat="40.01102" lon="-3.87592">
        <ele>507.2</ele>
        <time>2022-12-31 08:53:44</time>
      </trkpt>
      <trkpt lat="40.01099" lon="-3.87597">
        <ele>507.4</ele>
        <time>2022-12-31 08:53:45</time>
      </trkpt>
      <trkpt lat="40.01097" lon="-3.87602">
        <ele>507.6</ele>
        <time>2022-12-31 08:53:46</time>
      </trkpt>
      <trkpt lat="40.01095" lon="-3.87606">
        <ele>507.6</ele>
        <time>2022-12-31 08:53:47</time>
      </trkpt>
      <trkpt lat="40.01092" lon="-3.87611">
        <ele>507.8</ele>
        <time>2022-12-31 08:53:48</time>
      </trkpt>
      <trkpt lat="40.01089" lon="-3.87616">
        <ele>507.8</ele>
        <time>2022-12-31 08:53:49</time>
      </trkpt>
      <trkpt lat="40.01087" lon="-3.87621">
        <ele>508</ele>
        <time>2022-12-31 08:53:50</time>
      </trkpt>
      <trkpt lat="40.01084" lon="-3.87625">
        <ele>508.2</ele>
        <time>2022-12-31 08:53:51</time>
      </trkpt>
      <trkpt lat="40.01082" lon="-3.8763">
        <ele>508.2</ele>
        <time>2022-12-31 08:53:52</time>
      </trkpt>
      <trkpt lat="40.01079" lon="-3.87634">
        <ele>508.4</ele>
        <time>2022-12-31 08:53:53</time>
      </trkpt>
      <trkpt lat="40.01076" lon="-3.87639">
        <ele>508.4</ele>
        <time>2022-12-31 08:53:54</time>
      </trkpt>
      <trkpt lat="40.01074" lon="-3.87643">
        <ele>508.4</ele>
        <time>2022-12-31 08:53:55</time>
      </trkpt>
      <trkpt lat="40.01071" lon="-3.87648">
        <ele>508.6</ele>
        <time>2022-12-31 08:53:56</time>
      </trkpt>
      <trkpt lat="40.01069" lon="-3.87652">
        <ele>508.6</ele>
        <time>2022-12-31 08:53:57</time>
      </trkpt>
      <trkpt lat="40.01066" lon="-3.87657">
        <ele>508.6</ele>
        <time>2022-12-31 08:53:58</time>
      </trkpt>
      <trkpt lat="40.01063" lon="-3.87661">
        <ele>508.6</ele>
        <time>2022-12-31 08:53:59</time>
      </trkpt>
      <trkpt lat="40.01061" lon="-3.87666">
        <ele>508.8</ele>
        <time>2022-12-31 08:54:00</time>
      </trkpt>
      <trkpt lat="40.01058" lon="-3.8767">
        <ele>509</ele>
        <time>2022-12-31 08:54:01</time>
      </trkpt>
      <trkpt lat="40.01055" lon="-3.87675">
        <ele>509.4</ele>
        <time>2022-12-31 08:54:02</time>
      </trkpt>
      <trkpt lat="40.01053" lon="-3.87679">
        <ele>509.4</ele>
        <time>2022-12-31 08:54:03</time>
      </trkpt>
      <trkpt lat="40.0105" lon="-3.87684">
        <ele>509.8</ele>
        <time>2022-12-31 08:54:04</time>
      </trkpt>
      <trkpt lat="40.01047" lon="-3.87688">
        <ele>510</ele>
        <time>2022-12-31 08:54:05</time>
      </trkpt>
      <trkpt lat="40.01044" lon="-3.87693">
        <ele>510</ele>
        <time>2022-12-31 08:54:06</time>
      </trkpt>
      <trkpt lat="40.01042" lon="-3.87698">
        <ele>510.2</ele>
        <time>2022-12-31 08:54:07</time>
      </trkpt>
      <trkpt lat="40.01039" lon="-3.87702">
        <ele>510.4</ele>
        <time>2022-12-31 08:54:08</time>
      </trkpt>
      <trkpt lat="40.01036" lon="-3.87707">
        <ele>510.6</ele>
        <time>2022-12-31 08:54:09</time>
      </trkpt>
      <trkpt lat="40.01034" lon="-3.87712">
        <ele>510.6</ele>
        <time>2022-12-31 08:54:10</time>
      </trkpt>
      <trkpt lat="40.01031" lon="-3.87717">
        <ele>510.8</ele>
        <time>2022-12-31 08:54:11</time>
      </trkpt>
      <trkpt lat="40.01028" lon="-3.87721">
        <ele>510.8</ele>
        <time>2022-12-31 08:54:12</time>
      </trkpt>
      <trkpt lat="40.01026" lon="-3.87726">
        <ele>510.8</ele>
        <time>2022-12-31 08:54:13</time>
      </trkpt>
      <trkpt lat="40.01024" lon="-3.87731">
        <ele>511.2</ele>
        <time>2022-12-31 08:54:14</time>
      </trkpt>
      <trkpt lat="40.01021" lon="-3.87735">
        <ele>511</ele>
        <time>2022-12-31 08:54:15</time>
      </trkpt>
      <trkpt lat="40.01018" lon="-3.8774">
        <ele>511.4</ele>
        <time>2022-12-31 08:54:16</time>
      </trkpt>
      <trkpt lat="40.01015" lon="-3.87744">
        <ele>511.4</ele>
        <time>2022-12-31 08:54:17</time>
      </trkpt>
      <trkpt lat="40.01013" lon="-3.87749">
        <ele>511.4</ele>
        <time>2022-12-31 08:54:18</time>
      </trkpt>
      <trkpt lat="40.0101" lon="-3.87753">
        <ele>511.4</ele>
        <time>2022-12-31 08:54:19</time>
      </trkpt>
      <trkpt lat="40.01007" lon="-3.87758">
        <ele>511.8</ele>
        <time>2022-12-31 08:54:20</time>
      </trkpt>
      <trkpt lat="40.01004" lon="-3.87763">
        <ele>511.8</ele>
        <time>2022-12-31 08:54:21</time>
      </trkpt>
      <trkpt lat="40.01002" lon="-3.87767">
        <ele>512</ele>
        <time>2022-12-31 08:54:22</time>
      </trkpt>
      <trkpt lat="40.00999" lon="-3.87771">
        <ele>511.8</ele>
        <time>2022-12-31 08:54:23</time>
      </trkpt>
      <trkpt lat="40.00996" lon="-3.87776">
        <ele>512</ele>
        <time>2022-12-31 08:54:24</time>
      </trkpt>
      <trkpt lat="40.00993" lon="-3.8778">
        <ele>512.2</ele>
        <time>2022-12-31 08:54:25</time>
      </trkpt>
      <trkpt lat="40.0099" lon="-3.87785">
        <ele>512.4</ele>
        <time>2022-12-31 08:54:26</time>
      </trkpt>
      <trkpt lat="40.00988" lon="-3.8779">
        <ele>512.8</ele>
        <time>2022-12-31 08:54:27</time>
      </trkpt>
      <trkpt lat="40.00985" lon="-3.87795">
        <ele>512.8</ele>
        <time>2022-12-31 08:54:28</time>
      </trkpt>
      <trkpt lat="40.00983" lon="-3.878">
        <ele>513</ele>
        <time>2022-12-31 08:54:29</time>
      </trkpt>
      <trkpt lat="40.0098" lon="-3.87805">
        <ele>513.2</ele>
        <time>2022-12-31 08:54:30</time>
      </trkpt>
      <trkpt lat="40.00978" lon="-3.8781">
        <ele>513.4</ele>
        <time>2022-12-31 08:54:31</time>
      </trkpt>
      <trkpt lat="40.00975" lon="-3.87814">
        <ele>513.4</ele>
        <time>2022-12-31 08:54:32</time>
      </trkpt>
      <trkpt lat="40.00973" lon="-3.87819">
        <ele>513.6</ele>
        <time>2022-12-31 08:54:33</time>
      </trkpt>
      <trkpt lat="40.0097" lon="-3.87824">
        <ele>513.6</ele>
        <time>2022-12-31 08:54:34</time>
      </trkpt>
      <trkpt lat="40.00968" lon="-3.87829">
        <ele>513.8</ele>
        <time>2022-12-31 08:54:35</time>
      </trkpt>
      <trkpt lat="40.00965" lon="-3.87834">
        <ele>513.8</ele>
        <time>2022-12-31 08:54:36</time>
      </trkpt>
      <trkpt lat="40.00962" lon="-3.87838">
        <ele>514.2</ele>
        <time>2022-12-31 08:54:37</time>
      </trkpt>
      <trkpt lat="40.0096" lon="-3.87843">
        <ele>514.2</ele>
        <time>2022-12-31 08:54:38</time>
      </trkpt>
      <trkpt lat="40.00957" lon="-3.87847">
        <ele>514.4</ele>
        <time>2022-12-31 08:54:39</time>
      </trkpt>
      <trkpt lat="40.00955" lon="-3.87852">
        <ele>514.6</ele>
        <time>2022-12-31 08:54:40</time>
      </trkpt>
      <trkpt lat="40.00952" lon="-3.87856">
        <ele>514.8</ele>
        <time>2022-12-31 08:54:41</time>
      </trkpt>
      <trkpt lat="40.0095" lon="-3.87861">
        <ele>515</ele>
        <time>2022-12-31 08:54:42</time>
      </trkpt>
      <trkpt lat="40.00947" lon="-3.87865">
        <ele>515.2</ele>
        <time>2022-12-31 08:54:43</time>
      </trkpt>
      <trkpt lat="40.00945" lon="-3.87869">
        <ele>515.4</ele>
        <time>2022-12-31 08:54:44</time>
      </trkpt>
      <trkpt lat="40.00942" lon="-3.87874">
        <ele>515.4</ele>
        <time>2022-12-31 08:54:45</time>
      </trkpt>
      <trkpt lat="40.0094" lon="-3.87879">
        <ele>516</ele>
        <time>2022-12-31 08:54:46</time>
      </trkpt>
      <trkpt lat="40.00937" lon="-3.87884">
        <ele>516.2</ele>
        <time>2022-12-31 08:54:47</time>
      </trkpt>
      <trkpt lat="40.00935" lon="-3.87888">
        <ele>516.6</ele>
        <time>2022-12-31 08:54:48</time>
      </trkpt>
      <trkpt lat="40.00932" lon="-3.87893">
        <ele>516.8</ele>
        <time>2022-12-31 08:54:49</time>
      </trkpt>
      <trkpt lat="40.0093" lon="-3.87899">
        <ele>516.8</ele>
        <time>2022-12-31 08:54:50</time>
      </trkpt>
      <trkpt lat="40.00927" lon="-3.87903">
        <ele>517</ele>
        <time>2022-12-31 08:54:51</time>
      </trkpt>
      <trkpt lat="40.00925" lon="-3.87908">
        <ele>517.2</ele>
        <time>2022-12-31 08:54:52</time>
      </trkpt>
      <trkpt lat="40.00922" lon="-3.87913">
        <ele>517.4</ele>
        <time>2022-12-31 08:54:53</time>
      </trkpt>
      <trkpt lat="40.00919" lon="-3.87918">
        <ele>517.6</ele>
        <time>2022-12-31 08:54:54</time>
      </trkpt>
      <trkpt lat="40.00917" lon="-3.87923">
        <ele>517.6</ele>
        <time>2022-12-31 08:54:55</time>
      </trkpt>
      <trkpt lat="40.00914" lon="-3.87928">
        <ele>518</ele>
        <time>2022-12-31 08:54:56</time>
      </trkpt>
      <trkpt lat="40.00911" lon="-3.87933">
        <ele>518</ele>
        <time>2022-12-31 08:54:57</time>
      </trkpt>
      <trkpt lat="40.00908" lon="-3.87938">
        <ele>518</ele>
        <time>2022-12-31 08:54:58</time>
      </trkpt>
      <trkpt lat="40.00906" lon="-3.87944">
        <ele>518.2</ele>
        <time>2022-12-31 08:54:59</time>
      </trkpt>
      <trkpt lat="40.00903" lon="-3.87949">
        <ele>518.4</ele>
        <time>2022-12-31 08:55:00</time>
      </trkpt>
      <trkpt lat="40.009" lon="-3.87954">
        <ele>518.6</ele>
        <time>2022-12-31 08:55:01</time>
      </trkpt>
      <trkpt lat="40.00897" lon="-3.8796">
        <ele>518.8</ele>
        <time>2022-12-31 08:55:02</time>
      </trkpt>
      <trkpt lat="40.00894" lon="-3.87965">
        <ele>518.8</ele>
        <time>2022-12-31 08:55:03</time>
      </trkpt>
      <trkpt lat="40.00891" lon="-3.87971">
        <ele>519</ele>
        <time>2022-12-31 08:55:04</time>
      </trkpt>
      <trkpt lat="40.00889" lon="-3.87977">
        <ele>519</ele>
        <time>2022-12-31 08:55:05</time>
      </trkpt>
      <trkpt lat="40.00885" lon="-3.87982">
        <ele>519.4</ele>
        <time>2022-12-31 08:55:06</time>
      </trkpt>
      <trkpt lat="40.00883" lon="-3.87987">
        <ele>519.6</ele>
        <time>2022-12-31 08:55:07</time>
      </trkpt>
      <trkpt lat="40.0088" lon="-3.87993">
        <ele>519.6</ele>
        <time>2022-12-31 08:55:08</time>
      </trkpt>
      <trkpt lat="40.00877" lon="-3.87998">
        <ele>519.6</ele>
        <time>2022-12-31 08:55:09</time>
      </trkpt>
      <trkpt lat="40.00875" lon="-3.88003">
        <ele>519.6</ele>
        <time>2022-12-31 08:55:10</time>
      </trkpt>
      <trkpt lat="40.00872" lon="-3.88007">
        <ele>519.6</ele>
        <time>2022-12-31 08:55:11</time>
      </trkpt>
      <trkpt lat="40.0087" lon="-3.88012">
        <ele>519.8</ele>
        <time>2022-12-31 08:55:12</time>
      </trkpt>
      <trkpt lat="40.00868" lon="-3.88016">
        <ele>520</ele>
        <time>2022-12-31 08:55:13</time>
      </trkpt>
      <trkpt lat="40.00866" lon="-3.8802">
        <ele>520</ele>
        <time>2022-12-31 08:55:14</time>
      </trkpt>
      <trkpt lat="40.00864" lon="-3.88023">
        <ele>520</ele>
        <time>2022-12-31 08:55:15</time>
      </trkpt>
      <trkpt lat="40.00862" lon="-3.88026">
        <ele>520.2</ele>
        <time>2022-12-31 08:55:16</time>
      </trkpt>
      <trkpt lat="40.0086" lon="-3.8803">
        <ele>520.4</ele>
        <time>2022-12-31 08:55:17</time>
      </trkpt>
      <trkpt lat="40.00858" lon="-3.88033">
        <ele>520.4</ele>
        <time>2022-12-31 08:55:18</time>
      </trkpt>
      <trkpt lat="40.00856" lon="-3.88036">
        <ele>520.6</ele>
        <time>2022-12-31 08:55:19</time>
      </trkpt>
      <trkpt lat="40.00853" lon="-3.88039">
        <ele>520.8</ele>
        <time>2022-12-31 08:55:20</time>
      </trkpt>
      <trkpt lat="40.00851" lon="-3.88042">
        <ele>521.2</ele>
        <time>2022-12-31 08:55:21</time>
      </trkpt>
      <trkpt lat="40.00849" lon="-3.88044">
        <ele>521.6</ele>
        <time>2022-12-31 08:55:22</time>
      </trkpt>
      <trkpt lat="40.00847" lon="-3.88047">
        <ele>522.2</ele>
        <time>2022-12-31 08:55:23</time>
      </trkpt>
      <trkpt lat="40.00844" lon="-3.88049">
        <ele>522.6</ele>
        <time>2022-12-31 08:55:24</time>
      </trkpt>
      <trkpt lat="40.00842" lon="-3.88052">
        <ele>523.2</ele>
        <time>2022-12-31 08:55:25</time>
      </trkpt>
      <trkpt lat="40.00839" lon="-3.88054">
        <ele>523.4</ele>
        <time>2022-12-31 08:55:26</time>
      </trkpt>
      <trkpt lat="40.00837" lon="-3.88056">
        <ele>524</ele>
        <time>2022-12-31 08:55:27</time>
      </trkpt>
      <trkpt lat="40.00834" lon="-3.88057">
        <ele>524.4</ele>
        <time>2022-12-31 08:55:28</time>
      </trkpt>
      <trkpt lat="40.00831" lon="-3.88058">
        <ele>524.6</ele>
        <time>2022-12-31 08:55:29</time>
      </trkpt>
      <trkpt lat="40.00829" lon="-3.8806">
        <ele>525.2</ele>
        <time>2022-12-31 08:55:30</time>
      </trkpt>
      <trkpt lat="40.00825" lon="-3.88061">
        <ele>525.6</ele>
        <time>2022-12-31 08:55:31</time>
      </trkpt>
      <trkpt lat="40.00822" lon="-3.88061">
        <ele>525.6</ele>
        <time>2022-12-31 08:55:32</time>
      </trkpt>
      <trkpt lat="40.00819" lon="-3.88062">
        <ele>526</ele>
        <time>2022-12-31 08:55:33</time>
      </trkpt>
      <trkpt lat="40.00816" lon="-3.88062">
        <ele>526.6</ele>
        <time>2022-12-31 08:55:34</time>
      </trkpt>
      <trkpt lat="40.00813" lon="-3.88062">
        <ele>526.8</ele>
        <time>2022-12-31 08:55:35</time>
      </trkpt>
      <trkpt lat="40.00809" lon="-3.88062">
        <ele>527.4</ele>
        <time>2022-12-31 08:55:36</time>
      </trkpt>
      <trkpt lat="40.00806" lon="-3.88062">
        <ele>527.4</ele>
        <time>2022-12-31 08:55:37</time>
      </trkpt>
      <trkpt lat="40.00803" lon="-3.88062">
        <ele>527.8</ele>
        <time>2022-12-31 08:55:38</time>
      </trkpt>
      <trkpt lat="40.00799" lon="-3.88062">
        <ele>528.2</ele>
        <time>2022-12-31 08:55:39</time>
      </trkpt>
      <trkpt lat="40.00796" lon="-3.88063">
        <ele>528.4</ele>
        <time>2022-12-31 08:55:40</time>
      </trkpt>
      <trkpt lat="40.00792" lon="-3.88063">
        <ele>528.8</ele>
        <time>2022-12-31 08:55:41</time>
      </trkpt>
      <trkpt lat="40.00789" lon="-3.88063">
        <ele>529</ele>
        <time>2022-12-31 08:55:42</time>
      </trkpt>
      <trkpt lat="40.00785" lon="-3.88063">
        <ele>529.4</ele>
        <time>2022-12-31 08:55:43</time>
      </trkpt>
      <trkpt lat="40.00782" lon="-3.88063">
        <ele>529.8</ele>
        <time>2022-12-31 08:55:44</time>
      </trkpt>
      <trkpt lat="40.00778" lon="-3.88063">
        <ele>529.8</ele>
        <time>2022-12-31 08:55:45</time>
      </trkpt>
      <trkpt lat="40.00775" lon="-3.88064">
        <ele>530.4</ele>
        <time>2022-12-31 08:55:46</time>
      </trkpt>
      <trkpt lat="40.00771" lon="-3.88065">
        <ele>530.4</ele>
        <time>2022-12-31 08:55:47</time>
      </trkpt>
      <trkpt lat="40.00769" lon="-3.88067">
        <ele>530.8</ele>
        <time>2022-12-31 08:55:48</time>
      </trkpt>
      <trkpt lat="40.00766" lon="-3.88069">
        <ele>531.2</ele>
        <time>2022-12-31 08:55:49</time>
      </trkpt>
      <trkpt lat="40.00763" lon="-3.88071">
        <ele>531.2</ele>
        <time>2022-12-31 08:55:50</time>
      </trkpt>
      <trkpt lat="40.00761" lon="-3.88073">
        <ele>531.6</ele>
        <time>2022-12-31 08:55:51</time>
      </trkpt>
      <trkpt lat="40.00758" lon="-3.88075">
        <ele>532.2</ele>
        <time>2022-12-31 08:55:52</time>
      </trkpt>
      <trkpt lat="40.00756" lon="-3.88077">
        <ele>532.4</ele>
        <time>2022-12-31 08:55:53</time>
      </trkpt>
      <trkpt lat="40.00754" lon="-3.8808">
        <ele>532.4</ele>
        <time>2022-12-31 08:55:54</time>
      </trkpt>
      <trkpt lat="40.00752" lon="-3.88083">
        <ele>532.6</ele>
        <time>2022-12-31 08:55:55</time>
      </trkpt>
      <trkpt lat="40.00751" lon="-3.88087">
        <ele>532.6</ele>
        <time>2022-12-31 08:55:56</time>
      </trkpt>
      <trkpt lat="40.00749" lon="-3.88091">
        <ele>533</ele>
        <time>2022-12-31 08:55:57</time>
      </trkpt>
      <trkpt lat="40.00748" lon="-3.88094">
        <ele>533.2</ele>
        <time>2022-12-31 08:55:58</time>
      </trkpt>
      <trkpt lat="40.00748" lon="-3.88098">
        <ele>533.8</ele>
        <time>2022-12-31 08:55:59</time>
      </trkpt>
      <trkpt lat="40.00747" lon="-3.88103">
        <ele>534</ele>
        <time>2022-12-31 08:56:00</time>
      </trkpt>
      <trkpt lat="40.00747" lon="-3.88107">
        <ele>534.2</ele>
        <time>2022-12-31 08:56:01</time>
      </trkpt>
      <trkpt lat="40.00747" lon="-3.88111">
        <ele>534.4</ele>
        <time>2022-12-31 08:56:02</time>
      </trkpt>
      <trkpt lat="40.00747" lon="-3.88115">
        <ele>534.4</ele>
        <time>2022-12-31 08:56:03</time>
      </trkpt>
      <trkpt lat="40.00747" lon="-3.88119">
        <ele>534.6</ele>
        <time>2022-12-31 08:56:04</time>
      </trkpt>
      <trkpt lat="40.00747" lon="-3.88123">
        <ele>534.6</ele>
        <time>2022-12-31 08:56:05</time>
      </trkpt>
      <trkpt lat="40.00747" lon="-3.88128">
        <ele>534.6</ele>
        <time>2022-12-31 08:56:06</time>
      </trkpt>
      <trkpt lat="40.00746" lon="-3.88132">
        <ele>534.6</ele>
        <time>2022-12-31 08:56:07</time>
      </trkpt>
      <trkpt lat="40.00746" lon="-3.88137">
        <ele>534.8</ele>
        <time>2022-12-31 08:56:08</time>
      </trkpt>
      <trkpt lat="40.00745" lon="-3.88142">
        <ele>534.8</ele>
        <time>2022-12-31 08:56:09</time>
      </trkpt>
      <trkpt lat="40.00745" lon="-3.88147">
        <ele>534.8</ele>
        <time>2022-12-31 08:56:10</time>
      </trkpt>
      <trkpt lat="40.00744" lon="-3.88152">
        <ele>534.8</ele>
        <time>2022-12-31 08:56:11</time>
      </trkpt>
      <trkpt lat="40.00744" lon="-3.88158">
        <ele>534.8</ele>
        <time>2022-12-31 08:56:12</time>
      </trkpt>
      <trkpt lat="40.00744" lon="-3.88163">
        <ele>534.8</ele>
        <time>2022-12-31 08:56:13</time>
      </trkpt>
      <trkpt lat="40.00744" lon="-3.88169">
        <ele>534.8</ele>
        <time>2022-12-31 08:56:14</time>
      </trkpt>
      <trkpt lat="40.00743" lon="-3.88176">
        <ele>534.6</ele>
        <time>2022-12-31 08:56:15</time>
      </trkpt>
      <trkpt lat="40.00743" lon="-3.88182">
        <ele>534.6</ele>
        <time>2022-12-31 08:56:16</time>
      </trkpt>
      <trkpt lat="40.00742" lon="-3.88189">
        <ele>534.8</ele>
        <time>2022-12-31 08:56:17</time>
      </trkpt>
      <trkpt lat="40.00742" lon="-3.88195">
        <ele>534.6</ele>
        <time>2022-12-31 08:56:18</time>
      </trkpt>
      <trkpt lat="40.00741" lon="-3.88202">
        <ele>534.8</ele>
        <time>2022-12-31 08:56:19</time>
      </trkpt>
      <trkpt lat="40.0074" lon="-3.8821">
        <ele>534.8</ele>
        <time>2022-12-31 08:56:20</time>
      </trkpt>
      <trkpt lat="40.00739" lon="-3.88218">
        <ele>534.8</ele>
        <time>2022-12-31 08:56:21</time>
      </trkpt>
      <trkpt lat="40.00737" lon="-3.88227">
        <ele>534.4</ele>
        <time>2022-12-31 08:56:22</time>
      </trkpt>
      <trkpt lat="40.00735" lon="-3.88235">
        <ele>534.4</ele>
        <time>2022-12-31 08:56:23</time>
      </trkpt>
      <trkpt lat="40.00733" lon="-3.88244">
        <ele>534</ele>
        <time>2022-12-31 08:56:24</time>
      </trkpt>
      <trkpt lat="40.0073" lon="-3.88253">
        <ele>533.6</ele>
        <time>2022-12-31 08:56:25</time>
      </trkpt>
      <trkpt lat="40.00726" lon="-3.88262">
        <ele>533.6</ele>
        <time>2022-12-31 08:56:26</time>
      </trkpt>
      <trkpt lat="40.00722" lon="-3.88271">
        <ele>533</ele>
        <time>2022-12-31 08:56:27</time>
      </trkpt>
      <trkpt lat="40.00717" lon="-3.88279">
        <ele>532.4</ele>
        <time>2022-12-31 08:56:28</time>
      </trkpt>
      <trkpt lat="40.00713" lon="-3.88287">
        <ele>532</ele>
        <time>2022-12-31 08:56:29</time>
      </trkpt>
      <trkpt lat="40.00708" lon="-3.88296">
        <ele>531.4</ele>
        <time>2022-12-31 08:56:30</time>
      </trkpt>
      <trkpt lat="40.00704" lon="-3.88304">
        <ele>530.8</ele>
        <time>2022-12-31 08:56:31</time>
      </trkpt>
      <trkpt lat="40.007" lon="-3.88312">
        <ele>530.2</ele>
        <time>2022-12-31 08:56:32</time>
      </trkpt>
      <trkpt lat="40.00696" lon="-3.88319">
        <ele>529.4</ele>
        <time>2022-12-31 08:56:33</time>
      </trkpt>
      <trkpt lat="40.00693" lon="-3.88327">
        <ele>528.6</ele>
        <time>2022-12-31 08:56:34</time>
      </trkpt>
      <trkpt lat="40.00689" lon="-3.88334">
        <ele>528.6</ele>
        <time>2022-12-31 08:56:35</time>
      </trkpt>
      <trkpt lat="40.00685" lon="-3.8834">
        <ele>528</ele>
        <time>2022-12-31 08:56:36</time>
      </trkpt>
      <trkpt lat="40.00682" lon="-3.88347">
        <ele>527.8</ele>
        <time>2022-12-31 08:56:37</time>
      </trkpt>
      <trkpt lat="40.00679" lon="-3.88353">
        <ele>527.6</ele>
        <time>2022-12-31 08:56:38</time>
      </trkpt>
      <trkpt lat="40.00675" lon="-3.88359">
        <ele>527.6</ele>
        <time>2022-12-31 08:56:39</time>
      </trkpt>
      <trkpt lat="40.00672" lon="-3.88365">
        <ele>527.6</ele>
        <time>2022-12-31 08:56:40</time>
      </trkpt>
      <trkpt lat="40.00668" lon="-3.8837">
        <ele>527.6</ele>
        <time>2022-12-31 08:56:41</time>
      </trkpt>
      <trkpt lat="40.00665" lon="-3.88376">
        <ele>527.6</ele>
        <time>2022-12-31 08:56:42</time>
      </trkpt>
      <trkpt lat="40.00662" lon="-3.88381">
        <ele>527.6</ele>
        <time>2022-12-31 08:56:43</time>
      </trkpt>
      <trkpt lat="40.00659" lon="-3.88387">
        <ele>527.6</ele>
        <time>2022-12-31 08:56:44</time>
      </trkpt>
      <trkpt lat="40.00655" lon="-3.88393">
        <ele>527.6</ele>
        <time>2022-12-31 08:56:45</time>
      </trkpt>
      <trkpt lat="40.00652" lon="-3.88398">
        <ele>527.8</ele>
        <time>2022-12-31 08:56:46</time>
      </trkpt>
      <trkpt lat="40.00649" lon="-3.88404">
        <ele>527.8</ele>
        <time>2022-12-31 08:56:47</time>
      </trkpt>
      <trkpt lat="40.00646" lon="-3.8841">
        <ele>528</ele>
        <time>2022-12-31 08:56:48</time>
      </trkpt>
      <trkpt lat="40.00644" lon="-3.88415">
        <ele>528.2</ele>
        <time>2022-12-31 08:56:49</time>
      </trkpt>
      <trkpt lat="40.0064" lon="-3.88421">
        <ele>528.4</ele>
        <time>2022-12-31 08:56:50</time>
      </trkpt>
      <trkpt lat="40.00637" lon="-3.88426">
        <ele>528.4</ele>
        <time>2022-12-31 08:56:51</time>
      </trkpt>
      <trkpt lat="40.00634" lon="-3.88432">
        <ele>528.4</ele>
        <time>2022-12-31 08:56:52</time>
      </trkpt>
      <trkpt lat="40.00631" lon="-3.88437">
        <ele>528.8</ele>
        <time>2022-12-31 08:56:53</time>
      </trkpt>
      <trkpt lat="40.00628" lon="-3.88442">
        <ele>528.8</ele>
        <time>2022-12-31 08:56:54</time>
      </trkpt>
      <trkpt lat="40.00624" lon="-3.88448">
        <ele>528.8</ele>
        <time>2022-12-31 08:56:55</time>
      </trkpt>
      <trkpt lat="40.00621" lon="-3.88453">
        <ele>528.6</ele>
        <time>2022-12-31 08:56:56</time>
      </trkpt>
      <trkpt lat="40.00619" lon="-3.88458">
        <ele>528.8</ele>
        <time>2022-12-31 08:56:57</time>
      </trkpt>
      <trkpt lat="40.00616" lon="-3.88463">
        <ele>528.8</ele>
        <time>2022-12-31 08:56:58</time>
      </trkpt>
      <trkpt lat="40.00613" lon="-3.88469">
        <ele>529</ele>
        <time>2022-12-31 08:56:59</time>
      </trkpt>
      <trkpt lat="40.00611" lon="-3.88474">
        <ele>528.8</ele>
        <time>2022-12-31 08:57:00</time>
      </trkpt>
      <trkpt lat="40.00608" lon="-3.88479">
        <ele>529</ele>
        <time>2022-12-31 08:57:01</time>
      </trkpt>
      <trkpt lat="40.00605" lon="-3.88484">
        <ele>529</ele>
        <time>2022-12-31 08:57:02</time>
      </trkpt>
      <trkpt lat="40.00602" lon="-3.88489">
        <ele>529.2</ele>
        <time>2022-12-31 08:57:03</time>
      </trkpt>
      <trkpt lat="40.00599" lon="-3.88494">
        <ele>529.4</ele>
        <time>2022-12-31 08:57:04</time>
      </trkpt>
      <trkpt lat="40.00597" lon="-3.88499">
        <ele>529.4</ele>
        <time>2022-12-31 08:57:05</time>
      </trkpt>
      <trkpt lat="40.00594" lon="-3.88504">
        <ele>529.6</ele>
        <time>2022-12-31 08:57:06</time>
      </trkpt>
      <trkpt lat="40.00591" lon="-3.88509">
        <ele>529.6</ele>
        <time>2022-12-31 08:57:07</time>
      </trkpt>
      <trkpt lat="40.00589" lon="-3.88514">
        <ele>529.8</ele>
        <time>2022-12-31 08:57:08</time>
      </trkpt>
      <trkpt lat="40.00586" lon="-3.88519">
        <ele>530</ele>
        <time>2022-12-31 08:57:09</time>
      </trkpt>
      <trkpt lat="40.00583" lon="-3.88524">
        <ele>530.2</ele>
        <time>2022-12-31 08:57:10</time>
      </trkpt>
      <trkpt lat="40.0058" lon="-3.88529">
        <ele>530.4</ele>
        <time>2022-12-31 08:57:11</time>
      </trkpt>
      <trkpt lat="40.00577" lon="-3.88535">
        <ele>530.4</ele>
        <time>2022-12-31 08:57:12</time>
      </trkpt>
      <trkpt lat="40.00575" lon="-3.8854">
        <ele>530.4</ele>
        <time>2022-12-31 08:57:13</time>
      </trkpt>
      <trkpt lat="40.00572" lon="-3.88544">
        <ele>530.4</ele>
        <time>2022-12-31 08:57:14</time>
      </trkpt>
      <trkpt lat="40.00569" lon="-3.88549">
        <ele>530.6</ele>
        <time>2022-12-31 08:57:15</time>
      </trkpt>
      <trkpt lat="40.00566" lon="-3.88554">
        <ele>530.6</ele>
        <time>2022-12-31 08:57:16</time>
      </trkpt>
      <trkpt lat="40.00563" lon="-3.88559">
        <ele>530.8</ele>
        <time>2022-12-31 08:57:17</time>
      </trkpt>
      <trkpt lat="40.0056" lon="-3.88563">
        <ele>531</ele>
        <time>2022-12-31 08:57:18</time>
      </trkpt>
      <trkpt lat="40.00557" lon="-3.88568">
        <ele>531.2</ele>
        <time>2022-12-31 08:57:19</time>
      </trkpt>
      <trkpt lat="40.00555" lon="-3.88573">
        <ele>531.2</ele>
        <time>2022-12-31 08:57:20</time>
      </trkpt>
      <trkpt lat="40.00553" lon="-3.88578">
        <ele>531.4</ele>
        <time>2022-12-31 08:57:21</time>
      </trkpt>
      <trkpt lat="40.0055" lon="-3.88583">
        <ele>531.6</ele>
        <time>2022-12-31 08:57:22</time>
      </trkpt>
      <trkpt lat="40.00548" lon="-3.88588">
        <ele>531.4</ele>
        <time>2022-12-31 08:57:23</time>
      </trkpt>
      <trkpt lat="40.00545" lon="-3.88592">
        <ele>531.8</ele>
        <time>2022-12-31 08:57:24</time>
      </trkpt>
      <trkpt lat="40.00542" lon="-3.88597">
        <ele>532</ele>
        <time>2022-12-31 08:57:25</time>
      </trkpt>
      <trkpt lat="40.0054" lon="-3.88602">
        <ele>532.2</ele>
        <time>2022-12-31 08:57:26</time>
      </trkpt>
      <trkpt lat="40.00537" lon="-3.88607">
        <ele>532.4</ele>
        <time>2022-12-31 08:57:27</time>
      </trkpt>
      <trkpt lat="40.00534" lon="-3.88611">
        <ele>532.4</ele>
        <time>2022-12-31 08:57:28</time>
      </trkpt>
      <trkpt lat="40.00532" lon="-3.88615">
        <ele>532.4</ele>
        <time>2022-12-31 08:57:29</time>
      </trkpt>
      <trkpt lat="40.00529" lon="-3.8862">
        <ele>532.6</ele>
        <time>2022-12-31 08:57:30</time>
      </trkpt>
      <trkpt lat="40.00527" lon="-3.88625">
        <ele>532.8</ele>
        <time>2022-12-31 08:57:31</time>
      </trkpt>
      <trkpt lat="40.00524" lon="-3.88629">
        <ele>533</ele>
        <time>2022-12-31 08:57:32</time>
      </trkpt>
      <trkpt lat="40.00522" lon="-3.88634">
        <ele>533</ele>
        <time>2022-12-31 08:57:33</time>
      </trkpt>
      <trkpt lat="40.00519" lon="-3.88639">
        <ele>533.2</ele>
        <time>2022-12-31 08:57:34</time>
      </trkpt>
      <trkpt lat="40.00517" lon="-3.88643">
        <ele>533.4</ele>
        <time>2022-12-31 08:57:35</time>
      </trkpt>
      <trkpt lat="40.00514" lon="-3.88648">
        <ele>533.4</ele>
        <time>2022-12-31 08:57:36</time>
      </trkpt>
      <trkpt lat="40.00512" lon="-3.88652">
        <ele>533.8</ele>
        <time>2022-12-31 08:57:37</time>
      </trkpt>
      <trkpt lat="40.00509" lon="-3.88657">
        <ele>534</ele>
        <time>2022-12-31 08:57:38</time>
      </trkpt>
      <trkpt lat="40.00507" lon="-3.88662">
        <ele>534.2</ele>
        <time>2022-12-31 08:57:39</time>
      </trkpt>
      <trkpt lat="40.00504" lon="-3.88666">
        <ele>534.4</ele>
        <time>2022-12-31 08:57:40</time>
      </trkpt>
      <trkpt lat="40.00502" lon="-3.88671">
        <ele>534.6</ele>
        <time>2022-12-31 08:57:41</time>
      </trkpt>
      <trkpt lat="40.00499" lon="-3.88675">
        <ele>534.8</ele>
        <time>2022-12-31 08:57:42</time>
      </trkpt>
      <trkpt lat="40.00496" lon="-3.8868">
        <ele>535.2</ele>
        <time>2022-12-31 08:57:43</time>
      </trkpt>
      <trkpt lat="40.00494" lon="-3.88684">
        <ele>535.2</ele>
        <time>2022-12-31 08:57:44</time>
      </trkpt>
      <trkpt lat="40.00491" lon="-3.88688">
        <ele>535.4</ele>
        <time>2022-12-31 08:57:45</time>
      </trkpt>
      <trkpt lat="40.00488" lon="-3.88692">
        <ele>535.4</ele>
        <time>2022-12-31 08:57:46</time>
      </trkpt>
      <trkpt lat="40.00486" lon="-3.88697">
        <ele>535.6</ele>
        <time>2022-12-31 08:57:47</time>
      </trkpt>
      <trkpt lat="40.00483" lon="-3.88701">
        <ele>535.6</ele>
        <time>2022-12-31 08:57:48</time>
      </trkpt>
      <trkpt lat="40.0048" lon="-3.88706">
        <ele>536.2</ele>
        <time>2022-12-31 08:57:49</time>
      </trkpt>
      <trkpt lat="40.00477" lon="-3.8871">
        <ele>536.2</ele>
        <time>2022-12-31 08:57:50</time>
      </trkpt>
      <trkpt lat="40.00475" lon="-3.88715">
        <ele>536.4</ele>
        <time>2022-12-31 08:57:51</time>
      </trkpt>
      <trkpt lat="40.00472" lon="-3.88719">
        <ele>536.4</ele>
        <time>2022-12-31 08:57:52</time>
      </trkpt>
      <trkpt lat="40.00469" lon="-3.88724">
        <ele>536.4</ele>
        <time>2022-12-31 08:57:53</time>
      </trkpt>
      <trkpt lat="40.00467" lon="-3.88728">
        <ele>536.6</ele>
        <time>2022-12-31 08:57:54</time>
      </trkpt>
      <trkpt lat="40.00465" lon="-3.88733">
        <ele>536.8</ele>
        <time>2022-12-31 08:57:55</time>
      </trkpt>
      <trkpt lat="40.00462" lon="-3.88738">
        <ele>536.8</ele>
        <time>2022-12-31 08:57:56</time>
      </trkpt>
      <trkpt lat="40.00459" lon="-3.88743">
        <ele>537.2</ele>
        <time>2022-12-31 08:57:57</time>
      </trkpt>
      <trkpt lat="40.00456" lon="-3.88747">
        <ele>537.4</ele>
        <time>2022-12-31 08:57:58</time>
      </trkpt>
      <trkpt lat="40.00454" lon="-3.88752">
        <ele>537.4</ele>
        <time>2022-12-31 08:57:59</time>
      </trkpt>
      <trkpt lat="40.00451" lon="-3.88756">
        <ele>537.6</ele>
        <time>2022-12-31 08:58:00</time>
      </trkpt>
      <trkpt lat="40.00448" lon="-3.88761">
        <ele>537.8</ele>
        <time>2022-12-31 08:58:01</time>
      </trkpt>
      <trkpt lat="40.00446" lon="-3.88766">
        <ele>538</ele>
        <time>2022-12-31 08:58:02</time>
      </trkpt>
      <trkpt lat="40.00443" lon="-3.88771">
        <ele>538.4</ele>
        <time>2022-12-31 08:58:03</time>
      </trkpt>
      <trkpt lat="40.0044" lon="-3.88776">
        <ele>538.6</ele>
        <time>2022-12-31 08:58:04</time>
      </trkpt>
      <trkpt lat="40.00438" lon="-3.88781">
        <ele>538.8</ele>
        <time>2022-12-31 08:58:05</time>
      </trkpt>
      <trkpt lat="40.00435" lon="-3.88786">
        <ele>539.2</ele>
        <time>2022-12-31 08:58:06</time>
      </trkpt>
      <trkpt lat="40.00432" lon="-3.88791">
        <ele>539.4</ele>
        <time>2022-12-31 08:58:07</time>
      </trkpt>
      <trkpt lat="40.0043" lon="-3.88795">
        <ele>539.8</ele>
        <time>2022-12-31 08:58:08</time>
      </trkpt>
      <trkpt lat="40.00427" lon="-3.88799">
        <ele>539.8</ele>
        <time>2022-12-31 08:58:09</time>
      </trkpt>
      <trkpt lat="40.00424" lon="-3.88804">
        <ele>540</ele>
        <time>2022-12-31 08:58:10</time>
      </trkpt>
      <trkpt lat="40.00421" lon="-3.88808">
        <ele>540</ele>
        <time>2022-12-31 08:58:11</time>
      </trkpt>
      <trkpt lat="40.00418" lon="-3.88813">
        <ele>540</ele>
        <time>2022-12-31 08:58:12</time>
      </trkpt>
      <trkpt lat="40.00416" lon="-3.88817">
        <ele>540.2</ele>
        <time>2022-12-31 08:58:13</time>
      </trkpt>
      <trkpt lat="40.00413" lon="-3.88822">
        <ele>540.2</ele>
        <time>2022-12-31 08:58:14</time>
      </trkpt>
      <trkpt lat="40.00411" lon="-3.88826">
        <ele>540.4</ele>
        <time>2022-12-31 08:58:15</time>
      </trkpt>
      <trkpt lat="40.00408" lon="-3.88831">
        <ele>540.4</ele>
        <time>2022-12-31 08:58:16</time>
      </trkpt>
      <trkpt lat="40.00406" lon="-3.88835">
        <ele>540.8</ele>
        <time>2022-12-31 08:58:17</time>
      </trkpt>
      <trkpt lat="40.00403" lon="-3.8884">
        <ele>540.6</ele>
        <time>2022-12-31 08:58:18</time>
      </trkpt>
      <trkpt lat="40.00401" lon="-3.88845">
        <ele>540.8</ele>
        <time>2022-12-31 08:58:19</time>
      </trkpt>
      <trkpt lat="40.00398" lon="-3.88849">
        <ele>540.8</ele>
        <time>2022-12-31 08:58:20</time>
      </trkpt>
      <trkpt lat="40.00395" lon="-3.88854">
        <ele>541</ele>
        <time>2022-12-31 08:58:21</time>
      </trkpt>
      <trkpt lat="40.00393" lon="-3.88858">
        <ele>541.2</ele>
        <time>2022-12-31 08:58:22</time>
      </trkpt>
      <trkpt lat="40.0039" lon="-3.88863">
        <ele>541.4</ele>
        <time>2022-12-31 08:58:23</time>
      </trkpt>
      <trkpt lat="40.00388" lon="-3.88868">
        <ele>541.4</ele>
        <time>2022-12-31 08:58:24</time>
      </trkpt>
      <trkpt lat="40.00385" lon="-3.88872">
        <ele>541.8</ele>
        <time>2022-12-31 08:58:25</time>
      </trkpt>
      <trkpt lat="40.00383" lon="-3.88877">
        <ele>542</ele>
        <time>2022-12-31 08:58:26</time>
      </trkpt>
      <trkpt lat="40.0038" lon="-3.88882">
        <ele>542</ele>
        <time>2022-12-31 08:58:27</time>
      </trkpt>
      <trkpt lat="40.00377" lon="-3.88886">
        <ele>542.2</ele>
        <time>2022-12-31 08:58:28</time>
      </trkpt>
      <trkpt lat="40.00375" lon="-3.88891">
        <ele>542.2</ele>
        <time>2022-12-31 08:58:29</time>
      </trkpt>
      <trkpt lat="40.00373" lon="-3.88896">
        <ele>542.4</ele>
        <time>2022-12-31 08:58:30</time>
      </trkpt>
      <trkpt lat="40.0037" lon="-3.88901">
        <ele>542.6</ele>
        <time>2022-12-31 08:58:31</time>
      </trkpt>
      <trkpt lat="40.00368" lon="-3.88905">
        <ele>542.6</ele>
        <time>2022-12-31 08:58:32</time>
      </trkpt>
      <trkpt lat="40.00365" lon="-3.8891">
        <ele>543</ele>
        <time>2022-12-31 08:58:33</time>
      </trkpt>
      <trkpt lat="40.00362" lon="-3.88915">
        <ele>543.2</ele>
        <time>2022-12-31 08:58:34</time>
      </trkpt>
      <trkpt lat="40.00359" lon="-3.88919">
        <ele>543.2</ele>
        <time>2022-12-31 08:58:35</time>
      </trkpt>
      <trkpt lat="40.00357" lon="-3.88924">
        <ele>543.2</ele>
        <time>2022-12-31 08:58:36</time>
      </trkpt>
      <trkpt lat="40.00354" lon="-3.88929">
        <ele>543.6</ele>
        <time>2022-12-31 08:58:37</time>
      </trkpt>
      <trkpt lat="40.00352" lon="-3.88934">
        <ele>543.6</ele>
        <time>2022-12-31 08:58:38</time>
      </trkpt>
      <trkpt lat="40.00349" lon="-3.88939">
        <ele>543.8</ele>
        <time>2022-12-31 08:58:39</time>
      </trkpt>
      <trkpt lat="40.00346" lon="-3.88943">
        <ele>544</ele>
        <time>2022-12-31 08:58:40</time>
      </trkpt>
      <trkpt lat="40.00343" lon="-3.88948">
        <ele>544</ele>
        <time>2022-12-31 08:58:41</time>
      </trkpt>
      <trkpt lat="40.00341" lon="-3.88953">
        <ele>544.2</ele>
        <time>2022-12-31 08:58:42</time>
      </trkpt>
      <trkpt lat="40.00338" lon="-3.88958">
        <ele>544.4</ele>
        <time>2022-12-31 08:58:43</time>
      </trkpt>
      <trkpt lat="40.00335" lon="-3.88962">
        <ele>544.8</ele>
        <time>2022-12-31 08:58:44</time>
      </trkpt>
      <trkpt lat="40.00333" lon="-3.88967">
        <ele>544.8</ele>
        <time>2022-12-31 08:58:45</time>
      </trkpt>
      <trkpt lat="40.0033" lon="-3.88972">
        <ele>545</ele>
        <time>2022-12-31 08:58:46</time>
      </trkpt>
      <trkpt lat="40.00328" lon="-3.88976">
        <ele>545.2</ele>
        <time>2022-12-31 08:58:47</time>
      </trkpt>
      <trkpt lat="40.00325" lon="-3.88981">
        <ele>545.2</ele>
        <time>2022-12-31 08:58:48</time>
      </trkpt>
      <trkpt lat="40.00322" lon="-3.88985">
        <ele>545.2</ele>
        <time>2022-12-31 08:58:49</time>
      </trkpt>
      <trkpt lat="40.0032" lon="-3.8899">
        <ele>545.6</ele>
        <time>2022-12-31 08:58:50</time>
      </trkpt>
      <trkpt lat="40.00318" lon="-3.88994">
        <ele>545.8</ele>
        <time>2022-12-31 08:58:51</time>
      </trkpt>
      <trkpt lat="40.00315" lon="-3.88998">
        <ele>545.8</ele>
        <time>2022-12-31 08:58:52</time>
      </trkpt>
      <trkpt lat="40.00313" lon="-3.89002">
        <ele>545.8</ele>
        <time>2022-12-31 08:58:53</time>
      </trkpt>
      <trkpt lat="40.0031" lon="-3.89006">
        <ele>546</ele>
        <time>2022-12-31 08:58:54</time>
      </trkpt>
      <trkpt lat="40.00308" lon="-3.89011">
        <ele>546.2</ele>
        <time>2022-12-31 08:58:55</time>
      </trkpt>
      <trkpt lat="40.00306" lon="-3.89015">
        <ele>546.2</ele>
        <time>2022-12-31 08:58:56</time>
      </trkpt>
      <trkpt lat="40.00304" lon="-3.8902">
        <ele>546.4</ele>
        <time>2022-12-31 08:58:57</time>
      </trkpt>
      <trkpt lat="40.00301" lon="-3.89024">
        <ele>546.6</ele>
        <time>2022-12-31 08:58:58</time>
      </trkpt>
      <trkpt lat="40.00299" lon="-3.89028">
        <ele>547</ele>
        <time>2022-12-31 08:58:59</time>
      </trkpt>
      <trkpt lat="40.00296" lon="-3.89033">
        <ele>547.2</ele>
        <time>2022-12-31 08:59:00</time>
      </trkpt>
      <trkpt lat="40.00294" lon="-3.89037">
        <ele>547.2</ele>
        <time>2022-12-31 08:59:01</time>
      </trkpt>
      <trkpt lat="40.00292" lon="-3.89041">
        <ele>547.6</ele>
        <time>2022-12-31 08:59:02</time>
      </trkpt>
      <trkpt lat="40.0029" lon="-3.89045">
        <ele>547.6</ele>
        <time>2022-12-31 08:59:03</time>
      </trkpt>
      <trkpt lat="40.00287" lon="-3.89049">
        <ele>547.8</ele>
        <time>2022-12-31 08:59:04</time>
      </trkpt>
      <trkpt lat="40.00285" lon="-3.89054">
        <ele>547.8</ele>
        <time>2022-12-31 08:59:05</time>
      </trkpt>
      <trkpt lat="40.00283" lon="-3.89058">
        <ele>548.2</ele>
        <time>2022-12-31 08:59:06</time>
      </trkpt>
      <trkpt lat="40.00281" lon="-3.89062">
        <ele>548.2</ele>
        <time>2022-12-31 08:59:07</time>
      </trkpt>
      <trkpt lat="40.00278" lon="-3.89067">
        <ele>548.4</ele>
        <time>2022-12-31 08:59:08</time>
      </trkpt>
      <trkpt lat="40.00276" lon="-3.89071">
        <ele>548.6</ele>
        <time>2022-12-31 08:59:09</time>
      </trkpt>
      <trkpt lat="40.00274" lon="-3.89075">
        <ele>548.6</ele>
        <time>2022-12-31 08:59:10</time>
      </trkpt>
      <trkpt lat="40.00272" lon="-3.8908">
        <ele>548.6</ele>
        <time>2022-12-31 08:59:11</time>
      </trkpt>
      <trkpt lat="40.0027" lon="-3.89084">
        <ele>548.6</ele>
        <time>2022-12-31 08:59:12</time>
      </trkpt>
      <trkpt lat="40.00269" lon="-3.89089">
        <ele>548.8</ele>
        <time>2022-12-31 08:59:13</time>
      </trkpt>
      <trkpt lat="40.00267" lon="-3.89094">
        <ele>549</ele>
        <time>2022-12-31 08:59:14</time>
      </trkpt>
      <trkpt lat="40.00266" lon="-3.89098">
        <ele>549.2</ele>
        <time>2022-12-31 08:59:15</time>
      </trkpt>
      <trkpt lat="40.00264" lon="-3.89103">
        <ele>549.4</ele>
        <time>2022-12-31 08:59:16</time>
      </trkpt>
      <trkpt lat="40.00263" lon="-3.89107">
        <ele>549.6</ele>
        <time>2022-12-31 08:59:17</time>
      </trkpt>
      <trkpt lat="40.00262" lon="-3.89112">
        <ele>549.6</ele>
        <time>2022-12-31 08:59:18</time>
      </trkpt>
      <trkpt lat="40.0026" lon="-3.89116">
        <ele>549.6</ele>
        <time>2022-12-31 08:59:19</time>
      </trkpt>
      <trkpt lat="40.0026" lon="-3.89121">
        <ele>549.8</ele>
        <time>2022-12-31 08:59:20</time>
      </trkpt>
      <trkpt lat="40.00259" lon="-3.89126">
        <ele>550</ele>
        <time>2022-12-31 08:59:21</time>
      </trkpt>
      <trkpt lat="40.00259" lon="-3.89131">
        <ele>550</ele>
        <time>2022-12-31 08:59:22</time>
      </trkpt>
      <trkpt lat="40.00257" lon="-3.8914">
        <ele>550.2</ele>
        <time>2022-12-31 08:59:23</time>
      </trkpt>
      <trkpt lat="40.00257" lon="-3.8914">
        <ele>550.2</ele>
        <time>2022-12-31 08:59:24</time>
      </trkpt>
      <trkpt lat="40.00256" lon="-3.89144">
        <ele>550.4</ele>
        <time>2022-12-31 08:59:25</time>
      </trkpt>
      <trkpt lat="40.00256" lon="-3.89149">
        <ele>550.4</ele>
        <time>2022-12-31 08:59:26</time>
      </trkpt>
      <trkpt lat="40.00255" lon="-3.89153">
        <ele>550.6</ele>
        <time>2022-12-31 08:59:27</time>
      </trkpt>
      <trkpt lat="40.00254" lon="-3.89157">
        <ele>550.8</ele>
        <time>2022-12-31 08:59:28</time>
      </trkpt>
      <trkpt lat="40.00253" lon="-3.89162">
        <ele>550.8</ele>
        <time>2022-12-31 08:59:29</time>
      </trkpt>
      <trkpt lat="40.00252" lon="-3.89167">
        <ele>551</ele>
        <time>2022-12-31 08:59:30</time>
      </trkpt>
      <trkpt lat="40.00252" lon="-3.89171">
        <ele>551</ele>
        <time>2022-12-31 08:59:31</time>
      </trkpt>
      <trkpt lat="40.00251" lon="-3.89176">
        <ele>551.2</ele>
        <time>2022-12-31 08:59:32</time>
      </trkpt>
      <trkpt lat="40.0025" lon="-3.8918">
        <ele>551.4</ele>
        <time>2022-12-31 08:59:33</time>
      </trkpt>
      <trkpt lat="40.0025" lon="-3.89185">
        <ele>551.4</ele>
        <time>2022-12-31 08:59:34</time>
      </trkpt>
      <trkpt lat="40.00249" lon="-3.8919">
        <ele>551.8</ele>
        <time>2022-12-31 08:59:35</time>
      </trkpt>
      <trkpt lat="40.00248" lon="-3.89194">
        <ele>551.8</ele>
        <time>2022-12-31 08:59:36</time>
      </trkpt>
      <trkpt lat="40.00247" lon="-3.89199">
        <ele>552</ele>
        <time>2022-12-31 08:59:37</time>
      </trkpt>
      <trkpt lat="40.00246" lon="-3.89203">
        <ele>552.2</ele>
        <time>2022-12-31 08:59:38</time>
      </trkpt>
      <trkpt lat="40.00246" lon="-3.89207">
        <ele>552.4</ele>
        <time>2022-12-31 08:59:39</time>
      </trkpt>
      <trkpt lat="40.00245" lon="-3.89212">
        <ele>552.6</ele>
        <time>2022-12-31 08:59:40</time>
      </trkpt>
      <trkpt lat="40.00244" lon="-3.89217">
        <ele>552.6</ele>
        <time>2022-12-31 08:59:41</time>
      </trkpt>
      <trkpt lat="40.00243" lon="-3.89221">
        <ele>552.6</ele>
        <time>2022-12-31 08:59:42</time>
      </trkpt>
      <trkpt lat="40.00243" lon="-3.89225">
        <ele>552.8</ele>
        <time>2022-12-31 08:59:43</time>
      </trkpt>
      <trkpt lat="40.00242" lon="-3.8923">
        <ele>553</ele>
        <time>2022-12-31 08:59:44</time>
      </trkpt>
      <trkpt lat="40.00241" lon="-3.89234">
        <ele>553.2</ele>
        <time>2022-12-31 08:59:45</time>
      </trkpt>
      <trkpt lat="40.0024" lon="-3.89239">
        <ele>553.4</ele>
        <time>2022-12-31 08:59:46</time>
      </trkpt>
      <trkpt lat="40.0024" lon="-3.89243">
        <ele>553.4</ele>
        <time>2022-12-31 08:59:47</time>
      </trkpt>
      <trkpt lat="40.00239" lon="-3.89248">
        <ele>553.4</ele>
        <time>2022-12-31 08:59:48</time>
      </trkpt>
      <trkpt lat="40.00238" lon="-3.89252">
        <ele>553.6</ele>
        <time>2022-12-31 08:59:49</time>
      </trkpt>
      <trkpt lat="40.00237" lon="-3.89257">
        <ele>553.8</ele>
        <time>2022-12-31 08:59:50</time>
      </trkpt>
      <trkpt lat="40.00236" lon="-3.89262">
        <ele>553.8</ele>
        <time>2022-12-31 08:59:51</time>
      </trkpt>
      <trkpt lat="40.00236" lon="-3.89267">
        <ele>553.8</ele>
        <time>2022-12-31 08:59:52</time>
      </trkpt>
      <trkpt lat="40.00235" lon="-3.89272">
        <ele>554</ele>
        <time>2022-12-31 08:59:53</time>
      </trkpt>
      <trkpt lat="40.00234" lon="-3.89277">
        <ele>554.2</ele>
        <time>2022-12-31 08:59:54</time>
      </trkpt>
      <trkpt lat="40.00233" lon="-3.89282">
        <ele>554.2</ele>
        <time>2022-12-31 08:59:55</time>
      </trkpt>
      <trkpt lat="40.00232" lon="-3.89287">
        <ele>554.4</ele>
        <time>2022-12-31 08:59:56</time>
      </trkpt>
      <trkpt lat="40.00231" lon="-3.89292">
        <ele>554.4</ele>
        <time>2022-12-31 08:59:57</time>
      </trkpt>
      <trkpt lat="40.00231" lon="-3.89297">
        <ele>554.4</ele>
        <time>2022-12-31 08:59:58</time>
      </trkpt>
      <trkpt lat="40.0023" lon="-3.89302">
        <ele>554.6</ele>
        <time>2022-12-31 08:59:59</time>
      </trkpt>
      <trkpt lat="40.00229" lon="-3.89307">
        <ele>554.8</ele>
        <time>2022-12-31 09:00:00</time>
      </trkpt>
      <trkpt lat="40.00228" lon="-3.89312">
        <ele>555</ele>
        <time>2022-12-31 09:00:01</time>
      </trkpt>
      <trkpt lat="40.00228" lon="-3.89317">
        <ele>555.2</ele>
        <time>2022-12-31 09:00:02</time>
      </trkpt>
      <trkpt lat="40.00227" lon="-3.89322">
        <ele>555.6</ele>
        <time>2022-12-31 09:00:03</time>
      </trkpt>
      <trkpt lat="40.00226" lon="-3.89327">
        <ele>555.6</ele>
        <time>2022-12-31 09:00:04</time>
      </trkpt>
      <trkpt lat="40.00225" lon="-3.89332">
        <ele>555.8</ele>
        <time>2022-12-31 09:00:05</time>
      </trkpt>
      <trkpt lat="40.00224" lon="-3.89337">
        <ele>556</ele>
        <time>2022-12-31 09:00:06</time>
      </trkpt>
      <trkpt lat="40.00223" lon="-3.89342">
        <ele>556</ele>
        <time>2022-12-31 09:00:07</time>
      </trkpt>
      <trkpt lat="40.00222" lon="-3.89347">
        <ele>556.4</ele>
        <time>2022-12-31 09:00:08</time>
      </trkpt>
      <trkpt lat="40.00222" lon="-3.89352">
        <ele>556.6</ele>
        <time>2022-12-31 09:00:09</time>
      </trkpt>
      <trkpt lat="40.00221" lon="-3.89357">
        <ele>556.6</ele>
        <time>2022-12-31 09:00:10</time>
      </trkpt>
      <trkpt lat="40.0022" lon="-3.89362">
        <ele>556.8</ele>
        <time>2022-12-31 09:00:11</time>
      </trkpt>
      <trkpt lat="40.00219" lon="-3.89367">
        <ele>557</ele>
        <time>2022-12-31 09:00:12</time>
      </trkpt>
      <trkpt lat="40.00218" lon="-3.89372">
        <ele>557.2</ele>
        <time>2022-12-31 09:00:13</time>
      </trkpt>
      <trkpt lat="40.00217" lon="-3.89376">
        <ele>557.2</ele>
        <time>2022-12-31 09:00:14</time>
      </trkpt>
      <trkpt lat="40.00216" lon="-3.89381">
        <ele>557.4</ele>
        <time>2022-12-31 09:00:15</time>
      </trkpt>
      <trkpt lat="40.00215" lon="-3.89386">
        <ele>557.4</ele>
        <time>2022-12-31 09:00:16</time>
      </trkpt>
      <trkpt lat="40.00214" lon="-3.89391">
        <ele>557.6</ele>
        <time>2022-12-31 09:00:17</time>
      </trkpt>
      <trkpt lat="40.00214" lon="-3.89395">
        <ele>557.8</ele>
        <time>2022-12-31 09:00:18</time>
      </trkpt>
      <trkpt lat="40.00212" lon="-3.894">
        <ele>558</ele>
        <time>2022-12-31 09:00:19</time>
      </trkpt>
      <trkpt lat="40.00211" lon="-3.89404">
        <ele>558.2</ele>
        <time>2022-12-31 09:00:20</time>
      </trkpt>
      <trkpt lat="40.00211" lon="-3.89409">
        <ele>558.6</ele>
        <time>2022-12-31 09:00:21</time>
      </trkpt>
      <trkpt lat="40.00211" lon="-3.89413">
        <ele>558.6</ele>
        <time>2022-12-31 09:00:22</time>
      </trkpt>
      <trkpt lat="40.00212" lon="-3.89417">
        <ele>558.6</ele>
        <time>2022-12-31 09:00:23</time>
      </trkpt>
      <trkpt lat="40.00213" lon="-3.8942">
        <ele>559</ele>
        <time>2022-12-31 09:00:24</time>
      </trkpt>
      <trkpt lat="40.00216" lon="-3.89422">
        <ele>559.2</ele>
        <time>2022-12-31 09:00:25</time>
      </trkpt>
      <trkpt lat="40.0022" lon="-3.89422">
        <ele>559.4</ele>
        <time>2022-12-31 09:00:26</time>
      </trkpt>
      <trkpt lat="40.00223" lon="-3.89422">
        <ele>559.4</ele>
        <time>2022-12-31 09:00:27</time>
      </trkpt>
      <trkpt lat="40.00227" lon="-3.89421">
        <ele>559.4</ele>
        <time>2022-12-31 09:00:28</time>
      </trkpt>
      <trkpt lat="40.00231" lon="-3.89419">
        <ele>559.6</ele>
        <time>2022-12-31 09:00:29</time>
      </trkpt>
      <trkpt lat="40.00235" lon="-3.89417">
        <ele>559.6</ele>
        <time>2022-12-31 09:00:30</time>
      </trkpt>
      <trkpt lat="40.0024" lon="-3.89415">
        <ele>559.4</ele>
        <time>2022-12-31 09:00:31</time>
      </trkpt>
      <trkpt lat="40.00244" lon="-3.89413">
        <ele>559.6</ele>
        <time>2022-12-31 09:00:32</time>
      </trkpt>
      <trkpt lat="40.00249" lon="-3.89412">
        <ele>559.6</ele>
        <time>2022-12-31 09:00:33</time>
      </trkpt>
      <trkpt lat="40.00253" lon="-3.89412">
        <ele>559.6</ele>
        <time>2022-12-31 09:00:34</time>
      </trkpt>
      <trkpt lat="40.00257" lon="-3.89413">
        <ele>559.6</ele>
        <time>2022-12-31 09:00:35</time>
      </trkpt>
      <trkpt lat="40.00259" lon="-3.89416">
        <ele>559.4</ele>
        <time>2022-12-31 09:00:36</time>
      </trkpt>
      <trkpt lat="40.0026" lon="-3.8942">
        <ele>559.2</ele>
        <time>2022-12-31 09:00:37</time>
      </trkpt>
      <trkpt lat="40.0026" lon="-3.89425">
        <ele>559.2</ele>
        <time>2022-12-31 09:00:38</time>
      </trkpt>
      <trkpt lat="40.00258" lon="-3.89429">
        <ele>559</ele>
        <time>2022-12-31 09:00:39</time>
      </trkpt>
      <trkpt lat="40.00255" lon="-3.89434">
        <ele>559</ele>
        <time>2022-12-31 09:00:40</time>
      </trkpt>
      <trkpt lat="40.00253" lon="-3.89438">
        <ele>559</ele>
        <time>2022-12-31 09:00:41</time>
      </trkpt>
      <trkpt lat="40.00249" lon="-3.89442">
        <ele>558.8</ele>
        <time>2022-12-31 09:00:42</time>
      </trkpt>
      <trkpt lat="40.00245" lon="-3.89447">
        <ele>558.8</ele>
        <time>2022-12-31 09:00:43</time>
      </trkpt>
      <trkpt lat="40.00242" lon="-3.8945">
        <ele>558.8</ele>
        <time>2022-12-31 09:00:44</time>
      </trkpt>
      <trkpt lat="40.00238" lon="-3.89454">
        <ele>558.6</ele>
        <time>2022-12-31 09:00:45</time>
      </trkpt>
      <trkpt lat="40.00235" lon="-3.89458">
        <ele>558.6</ele>
        <time>2022-12-31 09:00:46</time>
      </trkpt>
      <trkpt lat="40.00231" lon="-3.89462">
        <ele>558.6</ele>
        <time>2022-12-31 09:00:47</time>
      </trkpt>
      <trkpt lat="40.00228" lon="-3.89466">
        <ele>558.6</ele>
        <time>2022-12-31 09:00:48</time>
      </trkpt>
      <trkpt lat="40.00225" lon="-3.8947">
        <ele>558.6</ele>
        <time>2022-12-31 09:00:49</time>
      </trkpt>
      <trkpt lat="40.00222" lon="-3.89474">
        <ele>558.6</ele>
        <time>2022-12-31 09:00:50</time>
      </trkpt>
      <trkpt lat="40.00219" lon="-3.89477">
        <ele>558.6</ele>
        <time>2022-12-31 09:00:51</time>
      </trkpt>
      <trkpt lat="40.00217" lon="-3.8948">
        <ele>558.8</ele>
        <time>2022-12-31 09:00:52</time>
      </trkpt>
      <trkpt lat="40.00214" lon="-3.89482">
        <ele>558.8</ele>
        <time>2022-12-31 09:00:53</time>
      </trkpt>
      <trkpt lat="40.00211" lon="-3.89485">
        <ele>559</ele>
        <time>2022-12-31 09:00:54</time>
      </trkpt>
      <trkpt lat="40.00208" lon="-3.89487">
        <ele>559</ele>
        <time>2022-12-31 09:00:55</time>
      </trkpt>
      <trkpt lat="40.00204" lon="-3.8949">
        <ele>558.8</ele>
        <time>2022-12-31 09:00:56</time>
      </trkpt>
      <trkpt lat="40.00201" lon="-3.89492">
        <ele>559</ele>
        <time>2022-12-31 09:00:57</time>
      </trkpt>
      <trkpt lat="40.00198" lon="-3.89494">
        <ele>559.4</ele>
        <time>2022-12-31 09:00:58</time>
      </trkpt>
      <trkpt lat="40.00195" lon="-3.89496">
        <ele>559.6</ele>
        <time>2022-12-31 09:00:59</time>
      </trkpt>
      <trkpt lat="40.00192" lon="-3.89498">
        <ele>559.8</ele>
        <time>2022-12-31 09:01:00</time>
      </trkpt>
      <trkpt lat="40.00189" lon="-3.895">
        <ele>560.2</ele>
        <time>2022-12-31 09:01:01</time>
      </trkpt>
      <trkpt lat="40.00186" lon="-3.89502">
        <ele>560.6</ele>
        <time>2022-12-31 09:01:02</time>
      </trkpt>
      <trkpt lat="40.00182" lon="-3.89504">
        <ele>560.8</ele>
        <time>2022-12-31 09:01:03</time>
      </trkpt>
      <trkpt lat="40.00179" lon="-3.89506">
        <ele>561</ele>
        <time>2022-12-31 09:01:04</time>
      </trkpt>
      <trkpt lat="40.00176" lon="-3.89508">
        <ele>561.4</ele>
        <time>2022-12-31 09:01:05</time>
      </trkpt>
      <trkpt lat="40.00172" lon="-3.8951">
        <ele>561.6</ele>
        <time>2022-12-31 09:01:06</time>
      </trkpt>
      <trkpt lat="40.00169" lon="-3.89512">
        <ele>561.8</ele>
        <time>2022-12-31 09:01:07</time>
      </trkpt>
      <trkpt lat="40.00165" lon="-3.89514">
        <ele>562</ele>
        <time>2022-12-31 09:01:08</time>
      </trkpt>
      <trkpt lat="40.00161" lon="-3.89517">
        <ele>562</ele>
        <time>2022-12-31 09:01:09</time>
      </trkpt>
      <trkpt lat="40.00158" lon="-3.8952">
        <ele>562.4</ele>
        <time>2022-12-31 09:01:10</time>
      </trkpt>
      <trkpt lat="40.00154" lon="-3.89523">
        <ele>562.6</ele>
        <time>2022-12-31 09:01:11</time>
      </trkpt>
      <trkpt lat="40.00151" lon="-3.89526">
        <ele>562.6</ele>
        <time>2022-12-31 09:01:12</time>
      </trkpt>
      <trkpt lat="40.00147" lon="-3.89529">
        <ele>562.8</ele>
        <time>2022-12-31 09:01:13</time>
      </trkpt>
      <trkpt lat="40.00144" lon="-3.89533">
        <ele>563</ele>
        <time>2022-12-31 09:01:14</time>
      </trkpt>
      <trkpt lat="40.0014" lon="-3.89537">
        <ele>563.2</ele>
        <time>2022-12-31 09:01:15</time>
      </trkpt>
      <trkpt lat="40.00137" lon="-3.89541">
        <ele>563.2</ele>
        <time>2022-12-31 09:01:16</time>
      </trkpt>
      <trkpt lat="40.00134" lon="-3.89546">
        <ele>563.4</ele>
        <time>2022-12-31 09:01:17</time>
      </trkpt>
      <trkpt lat="40.00131" lon="-3.8955">
        <ele>563.6</ele>
        <time>2022-12-31 09:01:18</time>
      </trkpt>
      <trkpt lat="40.00128" lon="-3.89555">
        <ele>563.8</ele>
        <time>2022-12-31 09:01:19</time>
      </trkpt>
      <trkpt lat="40.00126" lon="-3.89559">
        <ele>563.8</ele>
        <time>2022-12-31 09:01:20</time>
      </trkpt>
      <trkpt lat="40.00123" lon="-3.89564">
        <ele>564</ele>
        <time>2022-12-31 09:01:21</time>
      </trkpt>
      <trkpt lat="40.00121" lon="-3.89569">
        <ele>564</ele>
        <time>2022-12-31 09:01:22</time>
      </trkpt>
      <trkpt lat="40.00119" lon="-3.89573">
        <ele>564.2</ele>
        <time>2022-12-31 09:01:23</time>
      </trkpt>
      <trkpt lat="40.00117" lon="-3.89578">
        <ele>564.2</ele>
        <time>2022-12-31 09:01:24</time>
      </trkpt>
      <trkpt lat="40.00115" lon="-3.89582">
        <ele>564.4</ele>
        <time>2022-12-31 09:01:25</time>
      </trkpt>
      <trkpt lat="40.00113" lon="-3.89587">
        <ele>564.8</ele>
        <time>2022-12-31 09:01:26</time>
      </trkpt>
      <trkpt lat="40.00111" lon="-3.89591">
        <ele>565</ele>
        <time>2022-12-31 09:01:27</time>
      </trkpt>
      <trkpt lat="40.00109" lon="-3.89596">
        <ele>565</ele>
        <time>2022-12-31 09:01:28</time>
      </trkpt>
      <trkpt lat="40.00107" lon="-3.89601">
        <ele>565</ele>
        <time>2022-12-31 09:01:29</time>
      </trkpt>
      <trkpt lat="40.00105" lon="-3.89605">
        <ele>565.4</ele>
        <time>2022-12-31 09:01:30</time>
      </trkpt>
      <trkpt lat="40.00103" lon="-3.8961">
        <ele>565.6</ele>
        <time>2022-12-31 09:01:31</time>
      </trkpt>
      <trkpt lat="40.00101" lon="-3.89615">
        <ele>566</ele>
        <time>2022-12-31 09:01:32</time>
      </trkpt>
      <trkpt lat="40.00099" lon="-3.8962">
        <ele>566.2</ele>
        <time>2022-12-31 09:01:33</time>
      </trkpt>
      <trkpt lat="40.00097" lon="-3.89625">
        <ele>566.6</ele>
        <time>2022-12-31 09:01:34</time>
      </trkpt>
      <trkpt lat="40.00096" lon="-3.8963">
        <ele>566.8</ele>
        <time>2022-12-31 09:01:35</time>
      </trkpt>
      <trkpt lat="40.00094" lon="-3.89635">
        <ele>567</ele>
        <time>2022-12-31 09:01:36</time>
      </trkpt>
      <trkpt lat="40.00092" lon="-3.89641">
        <ele>567.2</ele>
        <time>2022-12-31 09:01:37</time>
      </trkpt>
      <trkpt lat="40.00091" lon="-3.89646">
        <ele>567.4</ele>
        <time>2022-12-31 09:01:38</time>
      </trkpt>
      <trkpt lat="40.00089" lon="-3.89651">
        <ele>567.6</ele>
        <time>2022-12-31 09:01:39</time>
      </trkpt>
      <trkpt lat="40.00088" lon="-3.89657">
        <ele>567.8</ele>
        <time>2022-12-31 09:01:40</time>
      </trkpt>
      <trkpt lat="40.00086" lon="-3.89662">
        <ele>568</ele>
        <time>2022-12-31 09:01:41</time>
      </trkpt>
      <trkpt lat="40.00084" lon="-3.89668">
        <ele>568.2</ele>
        <time>2022-12-31 09:01:42</time>
      </trkpt>
      <trkpt lat="40.00082" lon="-3.89673">
        <ele>568.2</ele>
        <time>2022-12-31 09:01:43</time>
      </trkpt>
      <trkpt lat="40.00081" lon="-3.89679">
        <ele>568.4</ele>
        <time>2022-12-31 09:01:44</time>
      </trkpt>
      <trkpt lat="40.00079" lon="-3.89684">
        <ele>568.4</ele>
        <time>2022-12-31 09:01:45</time>
      </trkpt>
      <trkpt lat="40.00077" lon="-3.89689">
        <ele>568.6</ele>
        <time>2022-12-31 09:01:46</time>
      </trkpt>
      <trkpt lat="40.00075" lon="-3.89695">
        <ele>568.4</ele>
        <time>2022-12-31 09:01:47</time>
      </trkpt>
      <trkpt lat="40.00073" lon="-3.897">
        <ele>568.6</ele>
        <time>2022-12-31 09:01:48</time>
      </trkpt>
      <trkpt lat="40.00071" lon="-3.89705">
        <ele>568.6</ele>
        <time>2022-12-31 09:01:49</time>
      </trkpt>
      <trkpt lat="40.0007" lon="-3.8971">
        <ele>568.6</ele>
        <time>2022-12-31 09:01:50</time>
      </trkpt>
      <trkpt lat="40.00068" lon="-3.89715">
        <ele>568.6</ele>
        <time>2022-12-31 09:01:51</time>
      </trkpt>
      <trkpt lat="40.00066" lon="-3.8972">
        <ele>568.8</ele>
        <time>2022-12-31 09:01:52</time>
      </trkpt>
      <trkpt lat="40.00064" lon="-3.89725">
        <ele>568.8</ele>
        <time>2022-12-31 09:01:53</time>
      </trkpt>
      <trkpt lat="40.00062" lon="-3.89729">
        <ele>569.2</ele>
        <time>2022-12-31 09:01:54</time>
      </trkpt>
      <trkpt lat="40.0006" lon="-3.89734">
        <ele>569.4</ele>
        <time>2022-12-31 09:01:55</time>
      </trkpt>
      <trkpt lat="40.00057" lon="-3.89739">
        <ele>569.8</ele>
        <time>2022-12-31 09:01:56</time>
      </trkpt>
      <trkpt lat="40.00055" lon="-3.89744">
        <ele>570</ele>
        <time>2022-12-31 09:01:57</time>
      </trkpt>
      <trkpt lat="40.00052" lon="-3.89749">
        <ele>570.2</ele>
        <time>2022-12-31 09:01:58</time>
      </trkpt>
      <trkpt lat="40.00049" lon="-3.89754">
        <ele>570.4</ele>
        <time>2022-12-31 09:01:59</time>
      </trkpt>
      <trkpt lat="40.00046" lon="-3.89759">
        <ele>570.6</ele>
        <time>2022-12-31 09:02:00</time>
      </trkpt>
      <trkpt lat="40.00042" lon="-3.89764">
        <ele>570.8</ele>
        <time>2022-12-31 09:02:01</time>
      </trkpt>
      <trkpt lat="40.00038" lon="-3.89768">
        <ele>571</ele>
        <time>2022-12-31 09:02:02</time>
      </trkpt>
      <trkpt lat="40.00034" lon="-3.89772">
        <ele>571</ele>
        <time>2022-12-31 09:02:03</time>
      </trkpt>
      <trkpt lat="40.00029" lon="-3.89776">
        <ele>571</ele>
        <time>2022-12-31 09:02:04</time>
      </trkpt>
      <trkpt lat="40.00023" lon="-3.89779">
        <ele>571</ele>
        <time>2022-12-31 09:02:05</time>
      </trkpt>
      <trkpt lat="40.00018" lon="-3.89782">
        <ele>571</ele>
        <time>2022-12-31 09:02:06</time>
      </trkpt>
      <trkpt lat="40.00012" lon="-3.89785">
        <ele>571.2</ele>
        <time>2022-12-31 09:02:07</time>
      </trkpt>
      <trkpt lat="40.00006" lon="-3.89788">
        <ele>571.2</ele>
        <time>2022-12-31 09:02:08</time>
      </trkpt>
      <trkpt lat="39.99999" lon="-3.8979">
        <ele>571.2</ele>
        <time>2022-12-31 09:02:09</time>
      </trkpt>
      <trkpt lat="39.99993" lon="-3.89793">
        <ele>571.2</ele>
        <time>2022-12-31 09:02:10</time>
      </trkpt>
      <trkpt lat="39.99986" lon="-3.89795">
        <ele>571</ele>
        <time>2022-12-31 09:02:11</time>
      </trkpt>
      <trkpt lat="39.99979" lon="-3.89797">
        <ele>571</ele>
        <time>2022-12-31 09:02:12</time>
      </trkpt>
      <trkpt lat="39.99973" lon="-3.89799">
        <ele>570.8</ele>
        <time>2022-12-31 09:02:13</time>
      </trkpt>
      <trkpt lat="39.99966" lon="-3.898">
        <ele>570.6</ele>
        <time>2022-12-31 09:02:14</time>
      </trkpt>
      <trkpt lat="39.99959" lon="-3.89802">
        <ele>570.2</ele>
        <time>2022-12-31 09:02:15</time>
      </trkpt>
      <trkpt lat="39.99953" lon="-3.89803">
        <ele>569.6</ele>
        <time>2022-12-31 09:02:16</time>
      </trkpt>
      <trkpt lat="39.99947" lon="-3.89805">
        <ele>569.2</ele>
        <time>2022-12-31 09:02:17</time>
      </trkpt>
      <trkpt lat="39.99941" lon="-3.89807">
        <ele>568.8</ele>
        <time>2022-12-31 09:02:18</time>
      </trkpt>
      <trkpt lat="39.99936" lon="-3.89809">
        <ele>568.8</ele>
        <time>2022-12-31 09:02:19</time>
      </trkpt>
      <trkpt lat="39.99933" lon="-3.89812">
        <ele>568.6</ele>
        <time>2022-12-31 09:02:20</time>
      </trkpt>
      <trkpt lat="39.9993" lon="-3.89816">
        <ele>568.8</ele>
        <time>2022-12-31 09:02:21</time>
      </trkpt>
      <trkpt lat="39.99929" lon="-3.89821">
        <ele>568.6</ele>
        <time>2022-12-31 09:02:22</time>
      </trkpt>
      <trkpt lat="39.99929" lon="-3.89827">
        <ele>568.8</ele>
        <time>2022-12-31 09:02:23</time>
      </trkpt>
      <trkpt lat="39.99928" lon="-3.89833">
        <ele>568.6</ele>
        <time>2022-12-31 09:02:24</time>
      </trkpt>
      <trkpt lat="39.99927" lon="-3.89839">
        <ele>568.8</ele>
        <time>2022-12-31 09:02:25</time>
      </trkpt>
      <trkpt lat="39.99926" lon="-3.89845">
        <ele>568.8</ele>
        <time>2022-12-31 09:02:26</time>
      </trkpt>
      <trkpt lat="39.99924" lon="-3.89851">
        <ele>568.8</ele>
        <time>2022-12-31 09:02:27</time>
      </trkpt>
      <trkpt lat="39.99922" lon="-3.89858">
        <ele>568.8</ele>
        <time>2022-12-31 09:02:28</time>
      </trkpt>
      <trkpt lat="39.99919" lon="-3.89864">
        <ele>568.8</ele>
        <time>2022-12-31 09:02:29</time>
      </trkpt>
      <trkpt lat="39.99916" lon="-3.89869">
        <ele>568.8</ele>
        <time>2022-12-31 09:02:30</time>
      </trkpt>
      <trkpt lat="39.99914" lon="-3.89875">
        <ele>569</ele>
        <time>2022-12-31 09:02:31</time>
      </trkpt>
      <trkpt lat="39.99911" lon="-3.89882">
        <ele>569</ele>
        <time>2022-12-31 09:02:32</time>
      </trkpt>
      <trkpt lat="39.99908" lon="-3.89888">
        <ele>569.2</ele>
        <time>2022-12-31 09:02:33</time>
      </trkpt>
      <trkpt lat="39.99904" lon="-3.89893">
        <ele>569.2</ele>
        <time>2022-12-31 09:02:34</time>
      </trkpt>
      <trkpt lat="39.99901" lon="-3.89899">
        <ele>569.2</ele>
        <time>2022-12-31 09:02:35</time>
      </trkpt>
      <trkpt lat="39.99898" lon="-3.89904">
        <ele>569.4</ele>
        <time>2022-12-31 09:02:36</time>
      </trkpt>
      <trkpt lat="39.99895" lon="-3.8991">
        <ele>569.4</ele>
        <time>2022-12-31 09:02:37</time>
      </trkpt>
      <trkpt lat="39.99892" lon="-3.89915">
        <ele>569.6</ele>
        <time>2022-12-31 09:02:38</time>
      </trkpt>
      <trkpt lat="39.99888" lon="-3.8992">
        <ele>569.6</ele>
        <time>2022-12-31 09:02:39</time>
      </trkpt>
      <trkpt lat="39.99885" lon="-3.89925">
        <ele>569.6</ele>
        <time>2022-12-31 09:02:40</time>
      </trkpt>
      <trkpt lat="39.99882" lon="-3.8993">
        <ele>569.8</ele>
        <time>2022-12-31 09:02:41</time>
      </trkpt>
      <trkpt lat="39.99879" lon="-3.89935">
        <ele>569.8</ele>
        <time>2022-12-31 09:02:42</time>
      </trkpt>
      <trkpt lat="39.99876" lon="-3.89941">
        <ele>570</ele>
        <time>2022-12-31 09:02:43</time>
      </trkpt>
      <trkpt lat="39.99873" lon="-3.89946">
        <ele>570.2</ele>
        <time>2022-12-31 09:02:44</time>
      </trkpt>
      <trkpt lat="39.9987" lon="-3.89952">
        <ele>570.4</ele>
        <time>2022-12-31 09:02:45</time>
      </trkpt>
      <trkpt lat="39.99866" lon="-3.89958">
        <ele>570.8</ele>
        <time>2022-12-31 09:02:46</time>
      </trkpt>
      <trkpt lat="39.99863" lon="-3.89964">
        <ele>571.2</ele>
        <time>2022-12-31 09:02:47</time>
      </trkpt>
      <trkpt lat="39.9986" lon="-3.89969">
        <ele>571.4</ele>
        <time>2022-12-31 09:02:48</time>
      </trkpt>
      <trkpt lat="39.99857" lon="-3.89974">
        <ele>571.4</ele>
        <time>2022-12-31 09:02:49</time>
      </trkpt>
      <trkpt lat="39.99854" lon="-3.89979">
        <ele>571.4</ele>
        <time>2022-12-31 09:02:50</time>
      </trkpt>
      <trkpt lat="39.9985" lon="-3.89985">
        <ele>571.6</ele>
        <time>2022-12-31 09:02:51</time>
      </trkpt>
      <trkpt lat="39.99847" lon="-3.8999">
        <ele>571.6</ele>
        <time>2022-12-31 09:02:52</time>
      </trkpt>
      <trkpt lat="39.99844" lon="-3.89995">
        <ele>571.8</ele>
        <time>2022-12-31 09:02:53</time>
      </trkpt>
      <trkpt lat="39.9984" lon="-3.9">
        <ele>571.8</ele>
        <time>2022-12-31 09:02:54</time>
      </trkpt>
      <trkpt lat="39.99837" lon="-3.90005">
        <ele>571.8</ele>
        <time>2022-12-31 09:02:55</time>
      </trkpt>
      <trkpt lat="39.99833" lon="-3.9001">
        <ele>571.8</ele>
        <time>2022-12-31 09:02:56</time>
      </trkpt>
      <trkpt lat="39.9983" lon="-3.90014">
        <ele>572.2</ele>
        <time>2022-12-31 09:02:57</time>
      </trkpt>
      <trkpt lat="39.99826" lon="-3.90018">
        <ele>572.4</ele>
        <time>2022-12-31 09:02:58</time>
      </trkpt>
      <trkpt lat="39.99823" lon="-3.90022">
        <ele>572.4</ele>
        <time>2022-12-31 09:02:59</time>
      </trkpt>
      <trkpt lat="39.99819" lon="-3.90025">
        <ele>572.6</ele>
        <time>2022-12-31 09:03:00</time>
      </trkpt>
      <trkpt lat="39.99816" lon="-3.90028">
        <ele>572.6</ele>
        <time>2022-12-31 09:03:01</time>
      </trkpt>
      <trkpt lat="39.99812" lon="-3.90031">
        <ele>572.6</ele>
        <time>2022-12-31 09:03:02</time>
      </trkpt>
      <trkpt lat="39.99808" lon="-3.90034">
        <ele>573</ele>
        <time>2022-12-31 09:03:03</time>
      </trkpt>
      <trkpt lat="39.99803" lon="-3.90037">
        <ele>573</ele>
        <time>2022-12-31 09:03:04</time>
      </trkpt>
      <trkpt lat="39.99799" lon="-3.9004">
        <ele>573</ele>
        <time>2022-12-31 09:03:05</time>
      </trkpt>
      <trkpt lat="39.99794" lon="-3.90043">
        <ele>573.4</ele>
        <time>2022-12-31 09:03:06</time>
      </trkpt>
      <trkpt lat="39.9979" lon="-3.90047">
        <ele>573.8</ele>
        <time>2022-12-31 09:03:07</time>
      </trkpt>
      <trkpt lat="39.99786" lon="-3.90051">
        <ele>573.8</ele>
        <time>2022-12-31 09:03:08</time>
      </trkpt>
      <trkpt lat="39.99782" lon="-3.90055">
        <ele>574</ele>
        <time>2022-12-31 09:03:09</time>
      </trkpt>
      <trkpt lat="39.99778" lon="-3.90059">
        <ele>574</ele>
        <time>2022-12-31 09:03:10</time>
      </trkpt>
      <trkpt lat="39.99774" lon="-3.90064">
        <ele>574.2</ele>
        <time>2022-12-31 09:03:11</time>
      </trkpt>
      <trkpt lat="39.9977" lon="-3.90068">
        <ele>574.4</ele>
        <time>2022-12-31 09:03:12</time>
      </trkpt>
      <trkpt lat="39.99767" lon="-3.90072">
        <ele>574.4</ele>
        <time>2022-12-31 09:03:13</time>
      </trkpt>
      <trkpt lat="39.99762" lon="-3.90076">
        <ele>574.4</ele>
        <time>2022-12-31 09:03:14</time>
      </trkpt>
      <trkpt lat="39.99758" lon="-3.9008">
        <ele>574.4</ele>
        <time>2022-12-31 09:03:15</time>
      </trkpt>
      <trkpt lat="39.99754" lon="-3.90085">
        <ele>574.4</ele>
        <time>2022-12-31 09:03:16</time>
      </trkpt>
      <trkpt lat="39.9975" lon="-3.90089">
        <ele>574.6</ele>
        <time>2022-12-31 09:03:17</time>
      </trkpt>
      <trkpt lat="39.99745" lon="-3.90094">
        <ele>574.6</ele>
        <time>2022-12-31 09:03:18</time>
      </trkpt>
      <trkpt lat="39.9974" lon="-3.90097">
        <ele>574.6</ele>
        <time>2022-12-31 09:03:19</time>
      </trkpt>
      <trkpt lat="39.99735" lon="-3.90101">
        <ele>574.6</ele>
        <time>2022-12-31 09:03:20</time>
      </trkpt>
      <trkpt lat="39.99731" lon="-3.90105">
        <ele>574.6</ele>
        <time>2022-12-31 09:03:21</time>
      </trkpt>
      <trkpt lat="39.99726" lon="-3.9011">
        <ele>574.4</ele>
        <time>2022-12-31 09:03:22</time>
      </trkpt>
      <trkpt lat="39.99722" lon="-3.90115">
        <ele>574.6</ele>
        <time>2022-12-31 09:03:23</time>
      </trkpt>
      <trkpt lat="39.99718" lon="-3.90121">
        <ele>574.2</ele>
        <time>2022-12-31 09:03:24</time>
      </trkpt>
      <trkpt lat="39.99715" lon="-3.90126">
        <ele>574.2</ele>
        <time>2022-12-31 09:03:25</time>
      </trkpt>
      <trkpt lat="39.99711" lon="-3.90133">
        <ele>574.2</ele>
        <time>2022-12-31 09:03:26</time>
      </trkpt>
      <trkpt lat="39.99707" lon="-3.90139">
        <ele>574</ele>
        <time>2022-12-31 09:03:27</time>
      </trkpt>
      <trkpt lat="39.99702" lon="-3.90146">
        <ele>574</ele>
        <time>2022-12-31 09:03:28</time>
      </trkpt>
      <trkpt lat="39.99698" lon="-3.90152">
        <ele>574</ele>
        <time>2022-12-31 09:03:29</time>
      </trkpt>
      <trkpt lat="39.99692" lon="-3.90159">
        <ele>574</ele>
        <time>2022-12-31 09:03:30</time>
      </trkpt>
      <trkpt lat="39.99686" lon="-3.90165">
        <ele>574</ele>
        <time>2022-12-31 09:03:31</time>
      </trkpt>
      <trkpt lat="39.9968" lon="-3.90171">
        <ele>573.8</ele>
        <time>2022-12-31 09:03:32</time>
      </trkpt>
      <trkpt lat="39.99673" lon="-3.90177">
        <ele>573.8</ele>
        <time>2022-12-31 09:03:33</time>
      </trkpt>
      <trkpt lat="39.99667" lon="-3.90184">
        <ele>573.8</ele>
        <time>2022-12-31 09:03:34</time>
      </trkpt>
      <trkpt lat="39.99662" lon="-3.9019">
        <ele>573.2</ele>
        <time>2022-12-31 09:03:35</time>
      </trkpt>
      <trkpt lat="39.99656" lon="-3.90196">
        <ele>572.8</ele>
        <time>2022-12-31 09:03:36</time>
      </trkpt>
      <trkpt lat="39.9965" lon="-3.90202">
        <ele>572.4</ele>
        <time>2022-12-31 09:03:37</time>
      </trkpt>
      <trkpt lat="39.99643" lon="-3.90208">
        <ele>571.8</ele>
        <time>2022-12-31 09:03:38</time>
      </trkpt>
      <trkpt lat="39.99636" lon="-3.90213">
        <ele>571.8</ele>
        <time>2022-12-31 09:03:39</time>
      </trkpt>
      <trkpt lat="39.99622" lon="-3.90222">
        <ele>571.2</ele>
        <time>2022-12-31 09:03:40</time>
      </trkpt>
      <trkpt lat="39.99622" lon="-3.90222">
        <ele>571</ele>
        <time>2022-12-31 09:03:41</time>
      </trkpt>
      <trkpt lat="39.99615" lon="-3.90225">
        <ele>570.8</ele>
        <time>2022-12-31 09:03:42</time>
      </trkpt>
      <trkpt lat="39.99608" lon="-3.90229">
        <ele>570.4</ele>
        <time>2022-12-31 09:03:43</time>
      </trkpt>
      <trkpt lat="39.99601" lon="-3.90231">
        <ele>570</ele>
        <time>2022-12-31 09:03:44</time>
      </trkpt>
      <trkpt lat="39.99594" lon="-3.90232">
        <ele>569.6</ele>
        <time>2022-12-31 09:03:45</time>
      </trkpt>
      <trkpt lat="39.99578" lon="-3.90233">
        <ele>569.4</ele>
        <time>2022-12-31 09:03:46</time>
      </trkpt>
      <trkpt lat="39.99571" lon="-3.90234">
        <ele>568.6</ele>
        <time>2022-12-31 09:03:47</time>
      </trkpt>
      <trkpt lat="39.99571" lon="-3.90234">
        <ele>568.2</ele>
        <time>2022-12-31 09:03:48</time>
      </trkpt>
      <trkpt lat="39.99564" lon="-3.90237">
        <ele>568.2</ele>
        <time>2022-12-31 09:03:49</time>
      </trkpt>
      <trkpt lat="39.99558" lon="-3.90241">
        <ele>567.8</ele>
        <time>2022-12-31 09:03:50</time>
      </trkpt>
      <trkpt lat="39.99553" lon="-3.90246">
        <ele>567.6</ele>
        <time>2022-12-31 09:03:51</time>
      </trkpt>
      <trkpt lat="39.99548" lon="-3.90251">
        <ele>567.6</ele>
        <time>2022-12-31 09:03:52</time>
      </trkpt>
      <trkpt lat="39.99544" lon="-3.90256">
        <ele>567.4</ele>
        <time>2022-12-31 09:03:53</time>
      </trkpt>
      <trkpt lat="39.99533" lon="-3.90265">
        <ele>567.4</ele>
        <time>2022-12-31 09:03:54</time>
      </trkpt>
      <trkpt lat="39.99528" lon="-3.90269">
        <ele>567.4</ele>
        <time>2022-12-31 09:03:55</time>
      </trkpt>
      <trkpt lat="39.99523" lon="-3.90273">
        <ele>567.4</ele>
        <time>2022-12-31 09:03:56</time>
      </trkpt>
      <trkpt lat="39.99517" lon="-3.90278">
        <ele>567.4</ele>
        <time>2022-12-31 09:03:57</time>
      </trkpt>
      <trkpt lat="39.99517" lon="-3.90278">
        <ele>567.4</ele>
        <time>2022-12-31 09:03:58</time>
      </trkpt>
      <trkpt lat="39.99506" lon="-3.90288">
        <ele>567.2</ele>
        <time>2022-12-31 09:03:59</time>
      </trkpt>
      <trkpt lat="39.99506" lon="-3.90288">
        <ele>567.4</ele>
        <time>2022-12-31 09:04:00</time>
      </trkpt>
      <trkpt lat="39.99501" lon="-3.90293">
        <ele>567.2</ele>
        <time>2022-12-31 09:04:01</time>
      </trkpt>
      <trkpt lat="39.99492" lon="-3.90303">
        <ele>567.2</ele>
        <time>2022-12-31 09:04:02</time>
      </trkpt>
      <trkpt lat="39.99487" lon="-3.90307">
        <ele>567.2</ele>
        <time>2022-12-31 09:04:03</time>
      </trkpt>
      <trkpt lat="39.99482" lon="-3.90312">
        <ele>567.2</ele>
        <time>2022-12-31 09:04:04</time>
      </trkpt>
      <trkpt lat="39.99482" lon="-3.90312">
        <ele>567.2</ele>
        <time>2022-12-31 09:04:05</time>
      </trkpt>
      <trkpt lat="39.99477" lon="-3.90317">
        <ele>567.2</ele>
        <time>2022-12-31 09:04:06</time>
      </trkpt>
      <trkpt lat="39.99472" lon="-3.90322">
        <ele>567.2</ele>
        <time>2022-12-31 09:04:07</time>
      </trkpt>
      <trkpt lat="39.99468" lon="-3.90328">
        <ele>567.2</ele>
        <time>2022-12-31 09:04:08</time>
      </trkpt>
      <trkpt lat="39.99464" lon="-3.90334">
        <ele>567.2</ele>
        <time>2022-12-31 09:04:09</time>
      </trkpt>
      <trkpt lat="39.9946" lon="-3.9034">
        <ele>567.4</ele>
        <time>2022-12-31 09:04:10</time>
      </trkpt>
      <trkpt lat="39.99456" lon="-3.90347">
        <ele>567.4</ele>
        <time>2022-12-31 09:04:11</time>
      </trkpt>
      <trkpt lat="39.99448" lon="-3.90361">
        <ele>567.6</ele>
        <time>2022-12-31 09:04:12</time>
      </trkpt>
      <trkpt lat="39.99448" lon="-3.90361">
        <ele>567.6</ele>
        <time>2022-12-31 09:04:13</time>
      </trkpt>
      <trkpt lat="39.9944" lon="-3.90375">
        <ele>567.4</ele>
        <time>2022-12-31 09:04:14</time>
      </trkpt>
      <trkpt lat="39.9944" lon="-3.90375">
        <ele>567.6</ele>
        <time>2022-12-31 09:04:15</time>
      </trkpt>
      <trkpt lat="39.99436" lon="-3.90381">
        <ele>567.4</ele>
        <time>2022-12-31 09:04:16</time>
      </trkpt>
      <trkpt lat="39.99425" lon="-3.90391">
        <ele>567.4</ele>
        <time>2022-12-31 09:04:17</time>
      </trkpt>
      <trkpt lat="39.9942" lon="-3.90395">
        <ele>567.4</ele>
        <time>2022-12-31 09:04:18</time>
      </trkpt>
      <trkpt lat="39.99415" lon="-3.90399">
        <ele>567.6</ele>
        <time>2022-12-31 09:04:19</time>
      </trkpt>
      <trkpt lat="39.99415" lon="-3.90399">
        <ele>567.6</ele>
        <time>2022-12-31 09:04:20</time>
      </trkpt>
      <trkpt lat="39.99405" lon="-3.90409">
        <ele>567.4</ele>
        <time>2022-12-31 09:04:21</time>
      </trkpt>
      <trkpt lat="39.99401" lon="-3.90414">
        <ele>567.6</ele>
        <time>2022-12-31 09:04:22</time>
      </trkpt>
      <trkpt lat="39.99401" lon="-3.90414">
        <ele>567.6</ele>
        <time>2022-12-31 09:04:23</time>
      </trkpt>
      <trkpt lat="39.99392" lon="-3.90423">
        <ele>567.6</ele>
        <time>2022-12-31 09:04:24</time>
      </trkpt>
      <trkpt lat="39.99388" lon="-3.90427">
        <ele>567.8</ele>
        <time>2022-12-31 09:04:25</time>
      </trkpt>
      <trkpt lat="39.99388" lon="-3.90427">
        <ele>567.8</ele>
        <time>2022-12-31 09:04:26</time>
      </trkpt>
      <trkpt lat="39.99383" lon="-3.9043">
        <ele>567.8</ele>
        <time>2022-12-31 09:04:27</time>
      </trkpt>
      <trkpt lat="39.99373" lon="-3.90435">
        <ele>567.8</ele>
        <time>2022-12-31 09:04:28</time>
      </trkpt>
      <trkpt lat="39.99369" lon="-3.90438">
        <ele>567.8</ele>
        <time>2022-12-31 09:04:29</time>
      </trkpt>
      <trkpt lat="39.99364" lon="-3.90441">
        <ele>567.8</ele>
        <time>2022-12-31 09:04:30</time>
      </trkpt>
      <trkpt lat="39.99359" lon="-3.90445">
        <ele>567.8</ele>
        <time>2022-12-31 09:04:31</time>
      </trkpt>
      <trkpt lat="39.99355" lon="-3.90449">
        <ele>567.8</ele>
        <time>2022-12-31 09:04:32</time>
      </trkpt>
      <trkpt lat="39.99351" lon="-3.90453">
        <ele>567.8</ele>
        <time>2022-12-31 09:04:33</time>
      </trkpt>
      <trkpt lat="39.99351" lon="-3.90453">
        <ele>567.8</ele>
        <time>2022-12-31 09:04:34</time>
      </trkpt>
      <trkpt lat="39.99345" lon="-3.90462">
        <ele>567.8</ele>
        <time>2022-12-31 09:04:35</time>
      </trkpt>
      <trkpt lat="39.99341" lon="-3.90467">
        <ele>567.8</ele>
        <time>2022-12-31 09:04:36</time>
      </trkpt>
      <trkpt lat="39.99338" lon="-3.9047">
        <ele>567.8</ele>
        <time>2022-12-31 09:04:37</time>
      </trkpt>
      <trkpt lat="39.99338" lon="-3.9047">
        <ele>567.8</ele>
        <time>2022-12-31 09:04:38</time>
      </trkpt>
      <trkpt lat="39.99334" lon="-3.90474">
        <ele>567.8</ele>
        <time>2022-12-31 09:04:39</time>
      </trkpt>
      <trkpt lat="39.9933" lon="-3.90478">
        <ele>567.8</ele>
        <time>2022-12-31 09:04:40</time>
      </trkpt>
      <trkpt lat="39.99326" lon="-3.90482">
        <ele>568</ele>
        <time>2022-12-31 09:04:41</time>
      </trkpt>
      <trkpt lat="39.99318" lon="-3.90488">
        <ele>568</ele>
        <time>2022-12-31 09:04:42</time>
      </trkpt>
      <trkpt lat="39.99318" lon="-3.90488">
        <ele>567.8</ele>
        <time>2022-12-31 09:04:43</time>
      </trkpt>
      <trkpt lat="39.99314" lon="-3.90492">
        <ele>567.8</ele>
        <time>2022-12-31 09:04:44</time>
      </trkpt>
      <trkpt lat="39.9931" lon="-3.90496">
        <ele>568</ele>
        <time>2022-12-31 09:04:45</time>
      </trkpt>
      <trkpt lat="39.99304" lon="-3.905">
        <ele>568.2</ele>
        <time>2022-12-31 09:04:46</time>
      </trkpt>
      <trkpt lat="39.993" lon="-3.90501">
        <ele>568</ele>
        <time>2022-12-31 09:04:47</time>
      </trkpt>
      <trkpt lat="39.99297" lon="-3.905">
        <ele>568</ele>
        <time>2022-12-31 09:04:48</time>
      </trkpt>
      <trkpt lat="39.99297" lon="-3.905">
        <ele>568.2</ele>
        <time>2022-12-31 09:04:49</time>
      </trkpt>
      <trkpt lat="39.99294" lon="-3.90499">
        <ele>568.2</ele>
        <time>2022-12-31 09:04:50</time>
      </trkpt>
      <trkpt lat="39.99291" lon="-3.90494">
        <ele>568.2</ele>
        <time>2022-12-31 09:04:51</time>
      </trkpt>
      <trkpt lat="39.99291" lon="-3.90492">
        <ele>568.4</ele>
        <time>2022-12-31 09:04:52</time>
      </trkpt>
      <trkpt lat="39.99291" lon="-3.90489">
        <ele>568.4</ele>
        <time>2022-12-31 09:04:53</time>
      </trkpt>
      <trkpt lat="39.99291" lon="-3.90486">
        <ele>568.4</ele>
        <time>2022-12-31 09:04:54</time>
      </trkpt>
      <trkpt lat="39.99291" lon="-3.90483">
        <ele>568.6</ele>
        <time>2022-12-31 09:04:55</time>
      </trkpt>
      <trkpt lat="39.99291" lon="-3.90483">
        <ele>568.6</ele>
        <time>2022-12-31 09:04:56</time>
      </trkpt>
      <trkpt lat="39.99293" lon="-3.90477">
        <ele>568.8</ele>
        <time>2022-12-31 09:04:57</time>
      </trkpt>
      <trkpt lat="39.99294" lon="-3.90474">
        <ele>569</ele>
        <time>2022-12-31 09:04:58</time>
      </trkpt>
      <trkpt lat="39.99294" lon="-3.90471">
        <ele>569.2</ele>
        <time>2022-12-31 09:04:59</time>
      </trkpt>
      <trkpt lat="39.99295" lon="-3.90467">
        <ele>569.2</ele>
        <time>2022-12-31 09:05:00</time>
      </trkpt>
      <trkpt lat="39.99295" lon="-3.90464">
        <ele>569.2</ele>
        <time>2022-12-31 09:05:01</time>
      </trkpt>
      <trkpt lat="39.99296" lon="-3.90461">
        <ele>569.4</ele>
        <time>2022-12-31 09:05:02</time>
      </trkpt>
      <trkpt lat="39.99296" lon="-3.90457">
        <ele>569.4</ele>
        <time>2022-12-31 09:05:03</time>
      </trkpt>
      <trkpt lat="39.99296" lon="-3.90454">
        <ele>569.6</ele>
        <time>2022-12-31 09:05:04</time>
      </trkpt>
      <trkpt lat="39.99296" lon="-3.90451">
        <ele>570</ele>
        <time>2022-12-31 09:05:05</time>
      </trkpt>
      <trkpt lat="39.99296" lon="-3.90451">
        <ele>570.2</ele>
        <time>2022-12-31 09:05:06</time>
      </trkpt>
      <trkpt lat="39.99295" lon="-3.90448">
        <ele>570.4</ele>
        <time>2022-12-31 09:05:07</time>
      </trkpt>
      <trkpt lat="39.99295" lon="-3.90445">
        <ele>570.4</ele>
        <time>2022-12-31 09:05:08</time>
      </trkpt>
      <trkpt lat="39.99293" lon="-3.90443">
        <ele>570.6</ele>
        <time>2022-12-31 09:05:09</time>
      </trkpt>
      <trkpt lat="39.99292" lon="-3.90442">
        <ele>570.6</ele>
        <time>2022-12-31 09:05:10</time>
      </trkpt>
      <trkpt lat="39.99289" lon="-3.9044">
        <ele>570.8</ele>
        <time>2022-12-31 09:05:11</time>
      </trkpt>
      <trkpt lat="39.99289" lon="-3.9044">
        <ele>571</ele>
        <time>2022-12-31 09:05:12</time>
      </trkpt>
      <trkpt lat="39.99285" lon="-3.90441">
        <ele>571.4</ele>
        <time>2022-12-31 09:05:13</time>
      </trkpt>
      <trkpt lat="39.99284" lon="-3.90441">
        <ele>571.6</ele>
        <time>2022-12-31 09:05:14</time>
      </trkpt>
      <trkpt lat="39.99282" lon="-3.90443">
        <ele>571.8</ele>
        <time>2022-12-31 09:05:15</time>
      </trkpt>
      <trkpt lat="39.99281" lon="-3.90444">
        <ele>572</ele>
        <time>2022-12-31 09:05:16</time>
      </trkpt>
      <trkpt lat="39.9928" lon="-3.90446">
        <ele>572.4</ele>
        <time>2022-12-31 09:05:17</time>
      </trkpt>
      <trkpt lat="39.99278" lon="-3.90447">
        <ele>572.6</ele>
        <time>2022-12-31 09:05:18</time>
      </trkpt>
      <trkpt lat="39.99277" lon="-3.90449">
        <ele>573</ele>
        <time>2022-12-31 09:05:19</time>
      </trkpt>
      <trkpt lat="39.99276" lon="-3.90451">
        <ele>573.6</ele>
        <time>2022-12-31 09:05:20</time>
      </trkpt>
      <trkpt lat="39.99275" lon="-3.90453">
        <ele>574.2</ele>
        <time>2022-12-31 09:05:21</time>
      </trkpt>
      <trkpt lat="39.99274" lon="-3.90455">
        <ele>574.6</ele>
        <time>2022-12-31 09:05:22</time>
      </trkpt>
      <trkpt lat="39.99273" lon="-3.90457">
        <ele>575</ele>
        <time>2022-12-31 09:05:23</time>
      </trkpt>
      <trkpt lat="39.99272" lon="-3.9046">
        <ele>575.2</ele>
        <time>2022-12-31 09:05:24</time>
      </trkpt>
      <trkpt lat="39.99271" lon="-3.90462">
        <ele>575.8</ele>
        <time>2022-12-31 09:05:25</time>
      </trkpt>
      <trkpt lat="39.9927" lon="-3.90464">
        <ele>576.2</ele>
        <time>2022-12-31 09:05:26</time>
      </trkpt>
      <trkpt lat="39.99269" lon="-3.90466">
        <ele>576.4</ele>
        <time>2022-12-31 09:05:27</time>
      </trkpt>
      <trkpt lat="39.99268" lon="-3.90468">
        <ele>576.4</ele>
        <time>2022-12-31 09:05:28</time>
      </trkpt>
      <trkpt lat="39.99267" lon="-3.90471">
        <ele>576.6</ele>
        <time>2022-12-31 09:05:29</time>
      </trkpt>
      <trkpt lat="39.99266" lon="-3.90473">
        <ele>577</ele>
        <time>2022-12-31 09:05:30</time>
      </trkpt>
      <trkpt lat="39.99265" lon="-3.90475">
        <ele>577.6</ele>
        <time>2022-12-31 09:05:31</time>
      </trkpt>
      <trkpt lat="39.99264" lon="-3.90478">
        <ele>577.8</ele>
        <time>2022-12-31 09:05:32</time>
      </trkpt>
      <trkpt lat="39.99264" lon="-3.9048">
        <ele>578</ele>
        <time>2022-12-31 09:05:33</time>
      </trkpt>
      <trkpt lat="39.99263" lon="-3.90482">
        <ele>578.2</ele>
        <time>2022-12-31 09:05:34</time>
      </trkpt>
      <trkpt lat="39.99262" lon="-3.90484">
        <ele>578.6</ele>
        <time>2022-12-31 09:05:35</time>
      </trkpt>
      <trkpt lat="39.99262" lon="-3.90484">
        <ele>578.6</ele>
        <time>2022-12-31 09:05:36</time>
      </trkpt>
      <trkpt lat="39.99259" lon="-3.90487">
        <ele>579</ele>
        <time>2022-12-31 09:05:37</time>
      </trkpt>
      <trkpt lat="39.99257" lon="-3.90488">
        <ele>579.2</ele>
        <time>2022-12-31 09:05:38</time>
      </trkpt>
      <trkpt lat="39.99257" lon="-3.90488">
        <ele>579.4</ele>
        <time>2022-12-31 09:05:39</time>
      </trkpt>
      <trkpt lat="39.99255" lon="-3.90489">
        <ele>579.4</ele>
        <time>2022-12-31 09:05:40</time>
      </trkpt>
      <trkpt lat="39.99251" lon="-3.9049">
        <ele>579.8</ele>
        <time>2022-12-31 09:05:41</time>
      </trkpt>
      <trkpt lat="39.99249" lon="-3.90489">
        <ele>580</ele>
        <time>2022-12-31 09:05:42</time>
      </trkpt>
      <trkpt lat="39.99247" lon="-3.90489">
        <ele>580.2</ele>
        <time>2022-12-31 09:05:43</time>
      </trkpt>
      <trkpt lat="39.99247" lon="-3.90489">
        <ele>580.6</ele>
        <time>2022-12-31 09:05:44</time>
      </trkpt>
      <trkpt lat="39.99244" lon="-3.90488">
        <ele>581</ele>
        <time>2022-12-31 09:05:45</time>
      </trkpt>
      <trkpt lat="39.99243" lon="-3.90486">
        <ele>581.2</ele>
        <time>2022-12-31 09:05:46</time>
      </trkpt>
      <trkpt lat="39.99241" lon="-3.90484">
        <ele>581.4</ele>
        <time>2022-12-31 09:05:47</time>
      </trkpt>
      <trkpt lat="39.99241" lon="-3.90482">
        <ele>581.4</ele>
        <time>2022-12-31 09:05:48</time>
      </trkpt>
      <trkpt lat="39.99241" lon="-3.90482">
        <ele>581.4</ele>
        <time>2022-12-31 09:05:49</time>
      </trkpt>
      <trkpt lat="39.9924" lon="-3.90479">
        <ele>581.6</ele>
        <time>2022-12-31 09:05:50</time>
      </trkpt>
      <trkpt lat="39.99241" lon="-3.90473">
        <ele>581.8</ele>
        <time>2022-12-31 09:05:51</time>
      </trkpt>
      <trkpt lat="39.99241" lon="-3.90469">
        <ele>581.8</ele>
        <time>2022-12-31 09:05:52</time>
      </trkpt>
      <trkpt lat="39.99242" lon="-3.90465">
        <ele>581.8</ele>
        <time>2022-12-31 09:05:53</time>
      </trkpt>
      <trkpt lat="39.99243" lon="-3.90462">
        <ele>582</ele>
        <time>2022-12-31 09:05:54</time>
      </trkpt>
      <trkpt lat="39.99243" lon="-3.90458">
        <ele>582.2</ele>
        <time>2022-12-31 09:05:55</time>
      </trkpt>
      <trkpt lat="39.99244" lon="-3.90455">
        <ele>582.2</ele>
        <time>2022-12-31 09:05:56</time>
      </trkpt>
      <trkpt lat="39.99244" lon="-3.90451">
        <ele>582.2</ele>
        <time>2022-12-31 09:05:57</time>
      </trkpt>
      <trkpt lat="39.99244" lon="-3.90448">
        <ele>582.2</ele>
        <time>2022-12-31 09:05:58</time>
      </trkpt>
      <trkpt lat="39.99245" lon="-3.90444">
        <ele>582.4</ele>
        <time>2022-12-31 09:05:59</time>
      </trkpt>
      <trkpt lat="39.99245" lon="-3.90441">
        <ele>582.2</ele>
        <time>2022-12-31 09:06:00</time>
      </trkpt>
      <trkpt lat="39.99245" lon="-3.90438">
        <ele>582.2</ele>
        <time>2022-12-31 09:06:01</time>
      </trkpt>
      <trkpt lat="39.99245" lon="-3.90438">
        <ele>582.4</ele>
        <time>2022-12-31 09:06:02</time>
      </trkpt>
      <trkpt lat="39.99245" lon="-3.90432">
        <ele>582.4</ele>
        <time>2022-12-31 09:06:03</time>
      </trkpt>
      <trkpt lat="39.99245" lon="-3.90429">
        <ele>582.4</ele>
        <time>2022-12-31 09:06:04</time>
      </trkpt>
      <trkpt lat="39.99245" lon="-3.90425">
        <ele>582.6</ele>
        <time>2022-12-31 09:06:05</time>
      </trkpt>
      <trkpt lat="39.99245" lon="-3.90422">
        <ele>582.8</ele>
        <time>2022-12-31 09:06:06</time>
      </trkpt>
      <trkpt lat="39.99246" lon="-3.90419">
        <ele>582.8</ele>
        <time>2022-12-31 09:06:07</time>
      </trkpt>
      <trkpt lat="39.99246" lon="-3.90416">
        <ele>583</ele>
        <time>2022-12-31 09:06:08</time>
      </trkpt>
      <trkpt lat="39.99247" lon="-3.90413">
        <ele>583.2</ele>
        <time>2022-12-31 09:06:09</time>
      </trkpt>
      <trkpt lat="39.99248" lon="-3.90409">
        <ele>583.4</ele>
        <time>2022-12-31 09:06:10</time>
      </trkpt>
      <trkpt lat="39.99249" lon="-3.90406">
        <ele>583.6</ele>
        <time>2022-12-31 09:06:11</time>
      </trkpt>
      <trkpt lat="39.99249" lon="-3.90403">
        <ele>583.8</ele>
        <time>2022-12-31 09:06:12</time>
      </trkpt>
      <trkpt lat="39.9925" lon="-3.904">
        <ele>584.4</ele>
        <time>2022-12-31 09:06:13</time>
      </trkpt>
      <trkpt lat="39.99251" lon="-3.90397">
        <ele>584.4</ele>
        <time>2022-12-31 09:06:14</time>
      </trkpt>
      <trkpt lat="39.99252" lon="-3.90394">
        <ele>584.6</ele>
        <time>2022-12-31 09:06:15</time>
      </trkpt>
      <trkpt lat="39.99253" lon="-3.90391">
        <ele>584.8</ele>
        <time>2022-12-31 09:06:16</time>
      </trkpt>
      <trkpt lat="39.99254" lon="-3.90388">
        <ele>584.8</ele>
        <time>2022-12-31 09:06:17</time>
      </trkpt>
      <trkpt lat="39.99255" lon="-3.90385">
        <ele>585</ele>
        <time>2022-12-31 09:06:18</time>
      </trkpt>
      <trkpt lat="39.99255" lon="-3.90382">
        <ele>585</ele>
        <time>2022-12-31 09:06:19</time>
      </trkpt>
      <trkpt lat="39.99255" lon="-3.9038">
        <ele>585.4</ele>
        <time>2022-12-31 09:06:20</time>
      </trkpt>
      <trkpt lat="39.99255" lon="-3.90377">
        <ele>585.6</ele>
        <time>2022-12-31 09:06:21</time>
      </trkpt>
      <trkpt lat="39.99255" lon="-3.90374">
        <ele>585.6</ele>
        <time>2022-12-31 09:06:22</time>
      </trkpt>
      <trkpt lat="39.99254" lon="-3.90371">
        <ele>585.6</ele>
        <time>2022-12-31 09:06:23</time>
      </trkpt>
      <trkpt lat="39.99254" lon="-3.90369">
        <ele>585.6</ele>
        <time>2022-12-31 09:06:24</time>
      </trkpt>
      <trkpt lat="39.99253" lon="-3.90366">
        <ele>586</ele>
        <time>2022-12-31 09:06:25</time>
      </trkpt>
      <trkpt lat="39.99253" lon="-3.90363">
        <ele>586</ele>
        <time>2022-12-31 09:06:26</time>
      </trkpt>
      <trkpt lat="39.99253" lon="-3.90361">
        <ele>586</ele>
        <time>2022-12-31 09:06:27</time>
      </trkpt>
      <trkpt lat="39.99253" lon="-3.90359">
        <ele>586.4</ele>
        <time>2022-12-31 09:06:28</time>
      </trkpt>
      <trkpt lat="39.99253" lon="-3.90356">
        <ele>586.6</ele>
        <time>2022-12-31 09:06:29</time>
      </trkpt>
      <trkpt lat="39.99253" lon="-3.90354">
        <ele>586.8</ele>
        <time>2022-12-31 09:06:30</time>
      </trkpt>
      <trkpt lat="39.99253" lon="-3.90351">
        <ele>587.2</ele>
        <time>2022-12-31 09:06:31</time>
      </trkpt>
      <trkpt lat="39.99253" lon="-3.90349">
        <ele>587.4</ele>
        <time>2022-12-31 09:06:32</time>
      </trkpt>
      <trkpt lat="39.99253" lon="-3.90347">
        <ele>587.8</ele>
        <time>2022-12-31 09:06:33</time>
      </trkpt>
      <trkpt lat="39.99252" lon="-3.90344">
        <ele>588.4</ele>
        <time>2022-12-31 09:06:34</time>
      </trkpt>
      <trkpt lat="39.99252" lon="-3.90344">
        <ele>588.6</ele>
        <time>2022-12-31 09:06:35</time>
      </trkpt>
      <trkpt lat="39.99251" lon="-3.90339">
        <ele>588.8</ele>
        <time>2022-12-31 09:06:36</time>
      </trkpt>
      <trkpt lat="39.99251" lon="-3.90337">
        <ele>589.2</ele>
        <time>2022-12-31 09:06:37</time>
      </trkpt>
      <trkpt lat="39.99251" lon="-3.90337">
        <ele>589.6</ele>
        <time>2022-12-31 09:06:38</time>
      </trkpt>
      <trkpt lat="39.99251" lon="-3.90335">
        <ele>589.8</ele>
        <time>2022-12-31 09:06:39</time>
      </trkpt>
      <trkpt lat="39.9925" lon="-3.9033">
        <ele>590.4</ele>
        <time>2022-12-31 09:06:40</time>
      </trkpt>
      <trkpt lat="39.9925" lon="-3.90328">
        <ele>590.8</ele>
        <time>2022-12-31 09:06:41</time>
      </trkpt>
      <trkpt lat="39.9925" lon="-3.90325">
        <ele>591</ele>
        <time>2022-12-31 09:06:42</time>
      </trkpt>
      <trkpt lat="39.9925" lon="-3.90323">
        <ele>591.4</ele>
        <time>2022-12-31 09:06:43</time>
      </trkpt>
      <trkpt lat="39.9925" lon="-3.90321">
        <ele>591.6</ele>
        <time>2022-12-31 09:06:44</time>
      </trkpt>
      <trkpt lat="39.9925" lon="-3.90319">
        <ele>592</ele>
        <time>2022-12-31 09:06:45</time>
      </trkpt>
      <trkpt lat="39.9925" lon="-3.90316">
        <ele>592.4</ele>
        <time>2022-12-31 09:06:46</time>
      </trkpt>
      <trkpt lat="39.9925" lon="-3.90314">
        <ele>592.4</ele>
        <time>2022-12-31 09:06:47</time>
      </trkpt>
      <trkpt lat="39.9925" lon="-3.90312">
        <ele>592.8</ele>
        <time>2022-12-31 09:06:48</time>
      </trkpt>
      <trkpt lat="39.9925" lon="-3.90309">
        <ele>593.2</ele>
        <time>2022-12-31 09:06:49</time>
      </trkpt>
      <trkpt lat="39.9925" lon="-3.90307">
        <ele>593.4</ele>
        <time>2022-12-31 09:06:50</time>
      </trkpt>
      <trkpt lat="39.9925" lon="-3.90305">
        <ele>593.6</ele>
        <time>2022-12-31 09:06:51</time>
      </trkpt>
      <trkpt lat="39.9925" lon="-3.90302">
        <ele>594</ele>
        <time>2022-12-31 09:06:52</time>
      </trkpt>
      <trkpt lat="39.9925" lon="-3.903">
        <ele>594.4</ele>
        <time>2022-12-31 09:06:53</time>
      </trkpt>
      <trkpt lat="39.9925" lon="-3.90298">
        <ele>594.4</ele>
        <time>2022-12-31 09:06:54</time>
      </trkpt>
      <trkpt lat="39.99249" lon="-3.90296">
        <ele>595</ele>
        <time>2022-12-31 09:06:55</time>
      </trkpt>
      <trkpt lat="39.99249" lon="-3.90293">
        <ele>595.2</ele>
        <time>2022-12-31 09:06:56</time>
      </trkpt>
      <trkpt lat="39.99249" lon="-3.90291">
        <ele>595.4</ele>
        <time>2022-12-31 09:06:57</time>
      </trkpt>
      <trkpt lat="39.99249" lon="-3.90289">
        <ele>596</ele>
        <time>2022-12-31 09:06:58</time>
      </trkpt>
      <trkpt lat="39.99249" lon="-3.90286">
        <ele>596.2</ele>
        <time>2022-12-31 09:06:59</time>
      </trkpt>
      <trkpt lat="39.99248" lon="-3.90284">
        <ele>596.6</ele>
        <time>2022-12-31 09:07:00</time>
      </trkpt>
      <trkpt lat="39.99248" lon="-3.90281">
        <ele>597</ele>
        <time>2022-12-31 09:07:01</time>
      </trkpt>
      <trkpt lat="39.99248" lon="-3.90279">
        <ele>597.2</ele>
        <time>2022-12-31 09:07:02</time>
      </trkpt>
      <trkpt lat="39.99248" lon="-3.90277">
        <ele>597.4</ele>
        <time>2022-12-31 09:07:03</time>
      </trkpt>
      <trkpt lat="39.99247" lon="-3.90274">
        <ele>597.6</ele>
        <time>2022-12-31 09:07:04</time>
      </trkpt>
      <trkpt lat="39.99247" lon="-3.90272">
        <ele>598.2</ele>
        <time>2022-12-31 09:07:05</time>
      </trkpt>
      <trkpt lat="39.99247" lon="-3.9027">
        <ele>598.4</ele>
        <time>2022-12-31 09:07:06</time>
      </trkpt>
      <trkpt lat="39.99247" lon="-3.90267">
        <ele>598.4</ele>
        <time>2022-12-31 09:07:07</time>
      </trkpt>
      <trkpt lat="39.99247" lon="-3.90267">
        <ele>598.6</ele>
        <time>2022-12-31 09:07:08</time>
      </trkpt>
      <trkpt lat="39.99246" lon="-3.90262">
        <ele>598.8</ele>
        <time>2022-12-31 09:07:09</time>
      </trkpt>
      <trkpt lat="39.99246" lon="-3.9026">
        <ele>599</ele>
        <time>2022-12-31 09:07:10</time>
      </trkpt>
      <trkpt lat="39.99246" lon="-3.90257">
        <ele>599.4</ele>
        <time>2022-12-31 09:07:11</time>
      </trkpt>
      <trkpt lat="39.99246" lon="-3.90255">
        <ele>600</ele>
        <time>2022-12-31 09:07:12</time>
      </trkpt>
      <trkpt lat="39.99246" lon="-3.90252">
        <ele>600.4</ele>
        <time>2022-12-31 09:07:13</time>
      </trkpt>
      <trkpt lat="39.99246" lon="-3.9025">
        <ele>600.6</ele>
        <time>2022-12-31 09:07:14</time>
      </trkpt>
      <trkpt lat="39.99245" lon="-3.90247">
        <ele>600.8</ele>
        <time>2022-12-31 09:07:15</time>
      </trkpt>
      <trkpt lat="39.99244" lon="-3.90245">
        <ele>601</ele>
        <time>2022-12-31 09:07:16</time>
      </trkpt>
      <trkpt lat="39.99243" lon="-3.90243">
        <ele>601.2</ele>
        <time>2022-12-31 09:07:17</time>
      </trkpt>
      <trkpt lat="39.99243" lon="-3.9024">
        <ele>601.4</ele>
        <time>2022-12-31 09:07:18</time>
      </trkpt>
      <trkpt lat="39.99243" lon="-3.9024">
        <ele>601.8</ele>
        <time>2022-12-31 09:07:19</time>
      </trkpt>
      <trkpt lat="39.99243" lon="-3.90236">
        <ele>602.2</ele>
        <time>2022-12-31 09:07:20</time>
      </trkpt>
      <trkpt lat="39.99243" lon="-3.90233">
        <ele>602.4</ele>
        <time>2022-12-31 09:07:21</time>
      </trkpt>
      <trkpt lat="39.99243" lon="-3.9023">
        <ele>602.6</ele>
        <time>2022-12-31 09:07:22</time>
      </trkpt>
      <trkpt lat="39.99243" lon="-3.90228">
        <ele>603</ele>
        <time>2022-12-31 09:07:23</time>
      </trkpt>
      <trkpt lat="39.99244" lon="-3.90225">
        <ele>603.2</ele>
        <time>2022-12-31 09:07:24</time>
      </trkpt>
      <trkpt lat="39.99244" lon="-3.90222">
        <ele>603.8</ele>
        <time>2022-12-31 09:07:25</time>
      </trkpt>
      <trkpt lat="39.99244" lon="-3.9022">
        <ele>604.2</ele>
        <time>2022-12-31 09:07:26</time>
      </trkpt>
      <trkpt lat="39.99245" lon="-3.90218">
        <ele>604.2</ele>
        <time>2022-12-31 09:07:27</time>
      </trkpt>
      <trkpt lat="39.99245" lon="-3.90215">
        <ele>604.2</ele>
        <time>2022-12-31 09:07:28</time>
      </trkpt>
      <trkpt lat="39.99245" lon="-3.90213">
        <ele>604.6</ele>
        <time>2022-12-31 09:07:29</time>
      </trkpt>
      <trkpt lat="39.99246" lon="-3.90211">
        <ele>604.8</ele>
        <time>2022-12-31 09:07:30</time>
      </trkpt>
      <trkpt lat="39.99246" lon="-3.90208">
        <ele>604.8</ele>
        <time>2022-12-31 09:07:31</time>
      </trkpt>
      <trkpt lat="39.99246" lon="-3.90206">
        <ele>605</ele>
        <time>2022-12-31 09:07:32</time>
      </trkpt>
      <trkpt lat="39.99246" lon="-3.90204">
        <ele>605.2</ele>
        <time>2022-12-31 09:07:33</time>
      </trkpt>
      <trkpt lat="39.99246" lon="-3.90202">
        <ele>605.6</ele>
        <time>2022-12-31 09:07:34</time>
      </trkpt>
      <trkpt lat="39.99246" lon="-3.90199">
        <ele>605.6</ele>
        <time>2022-12-31 09:07:35</time>
      </trkpt>
      <trkpt lat="39.99246" lon="-3.90197">
        <ele>605.8</ele>
        <time>2022-12-31 09:07:36</time>
      </trkpt>
      <trkpt lat="39.99246" lon="-3.90195">
        <ele>606.2</ele>
        <time>2022-12-31 09:07:37</time>
      </trkpt>
      <trkpt lat="39.99247" lon="-3.90192">
        <ele>606.6</ele>
        <time>2022-12-31 09:07:38</time>
      </trkpt>
      <trkpt lat="39.99247" lon="-3.9019">
        <ele>606.8</ele>
        <time>2022-12-31 09:07:39</time>
      </trkpt>
      <trkpt lat="39.99247" lon="-3.90188">
        <ele>607.2</ele>
        <time>2022-12-31 09:07:40</time>
      </trkpt>
      <trkpt lat="39.99247" lon="-3.90186">
        <ele>607.6</ele>
        <time>2022-12-31 09:07:41</time>
      </trkpt>
      <trkpt lat="39.99247" lon="-3.90183">
        <ele>607.8</ele>
        <time>2022-12-31 09:07:42</time>
      </trkpt>
      <trkpt lat="39.99247" lon="-3.90181">
        <ele>608</ele>
        <time>2022-12-31 09:07:43</time>
      </trkpt>
      <trkpt lat="39.99248" lon="-3.90178">
        <ele>608</ele>
        <time>2022-12-31 09:07:44</time>
      </trkpt>
      <trkpt lat="39.99248" lon="-3.90176">
        <ele>608.4</ele>
        <time>2022-12-31 09:07:45</time>
      </trkpt>
      <trkpt lat="39.99249" lon="-3.90174">
        <ele>608.8</ele>
        <time>2022-12-31 09:07:46</time>
      </trkpt>
      <trkpt lat="39.9925" lon="-3.90171">
        <ele>608.8</ele>
        <time>2022-12-31 09:07:47</time>
      </trkpt>
      <trkpt lat="39.9925" lon="-3.90169">
        <ele>609</ele>
        <time>2022-12-31 09:07:48</time>
      </trkpt>
      <trkpt lat="39.99251" lon="-3.90166">
        <ele>609.4</ele>
        <time>2022-12-31 09:07:49</time>
      </trkpt>
      <trkpt lat="39.99251" lon="-3.90163">
        <ele>609.8</ele>
        <time>2022-12-31 09:07:50</time>
      </trkpt>
      <trkpt lat="39.99251" lon="-3.9016">
        <ele>609.8</ele>
        <time>2022-12-31 09:07:51</time>
      </trkpt>
      <trkpt lat="39.99251" lon="-3.90158">
        <ele>610.4</ele>
        <time>2022-12-31 09:07:52</time>
      </trkpt>
      <trkpt lat="39.99252" lon="-3.90155">
        <ele>610.4</ele>
        <time>2022-12-31 09:07:53</time>
      </trkpt>
      <trkpt lat="39.99252" lon="-3.90152">
        <ele>610.6</ele>
        <time>2022-12-31 09:07:54</time>
      </trkpt>
      <trkpt lat="39.99252" lon="-3.9015">
        <ele>610.8</ele>
        <time>2022-12-31 09:07:55</time>
      </trkpt>
      <trkpt lat="39.99252" lon="-3.90147">
        <ele>611</ele>
        <time>2022-12-31 09:07:56</time>
      </trkpt>
      <trkpt lat="39.99252" lon="-3.90144">
        <ele>611.2</ele>
        <time>2022-12-31 09:07:57</time>
      </trkpt>
      <trkpt lat="39.99253" lon="-3.90141">
        <ele>611.4</ele>
        <time>2022-12-31 09:07:58</time>
      </trkpt>
      <trkpt lat="39.99253" lon="-3.90138">
        <ele>611.4</ele>
        <time>2022-12-31 09:07:59</time>
      </trkpt>
      <trkpt lat="39.99253" lon="-3.90136">
        <ele>611.6</ele>
        <time>2022-12-31 09:08:00</time>
      </trkpt>
      <trkpt lat="39.99253" lon="-3.90133">
        <ele>611.8</ele>
        <time>2022-12-31 09:08:01</time>
      </trkpt>
      <trkpt lat="39.99254" lon="-3.9013">
        <ele>612</ele>
        <time>2022-12-31 09:08:02</time>
      </trkpt>
      <trkpt lat="39.99254" lon="-3.90127">
        <ele>612.4</ele>
        <time>2022-12-31 09:08:03</time>
      </trkpt>
      <trkpt lat="39.99255" lon="-3.90125">
        <ele>612.6</ele>
        <time>2022-12-31 09:08:04</time>
      </trkpt>
      <trkpt lat="39.99255" lon="-3.90122">
        <ele>612.6</ele>
        <time>2022-12-31 09:08:05</time>
      </trkpt>
      <trkpt lat="39.99256" lon="-3.90119">
        <ele>613</ele>
        <time>2022-12-31 09:08:06</time>
      </trkpt>
      <trkpt lat="39.99257" lon="-3.90117">
        <ele>613</ele>
        <time>2022-12-31 09:08:07</time>
      </trkpt>
      <trkpt lat="39.99258" lon="-3.90115">
        <ele>613</ele>
        <time>2022-12-31 09:08:08</time>
      </trkpt>
      <trkpt lat="39.99259" lon="-3.90113">
        <ele>613.2</ele>
        <time>2022-12-31 09:08:09</time>
      </trkpt>
      <trkpt lat="39.99261" lon="-3.90111">
        <ele>613.2</ele>
        <time>2022-12-31 09:08:10</time>
      </trkpt>
      <trkpt lat="39.99263" lon="-3.90109">
        <ele>613.2</ele>
        <time>2022-12-31 09:08:11</time>
      </trkpt>
      <trkpt lat="39.99264" lon="-3.90108">
        <ele>613.4</ele>
        <time>2022-12-31 09:08:12</time>
      </trkpt>
      <trkpt lat="39.99266" lon="-3.90106">
        <ele>613.6</ele>
        <time>2022-12-31 09:08:13</time>
      </trkpt>
      <trkpt lat="39.99268" lon="-3.90105">
        <ele>613.6</ele>
        <time>2022-12-31 09:08:14</time>
      </trkpt>
      <trkpt lat="39.99269" lon="-3.90104">
        <ele>613.8</ele>
        <time>2022-12-31 09:08:15</time>
      </trkpt>
      <trkpt lat="39.99271" lon="-3.90103">
        <ele>614</ele>
        <time>2022-12-31 09:08:16</time>
      </trkpt>
      <trkpt lat="39.99273" lon="-3.90102">
        <ele>614.2</ele>
        <time>2022-12-31 09:08:17</time>
      </trkpt>
      <trkpt lat="39.99275" lon="-3.90101">
        <ele>614.6</ele>
        <time>2022-12-31 09:08:18</time>
      </trkpt>
      <trkpt lat="39.99277" lon="-3.901">
        <ele>615</ele>
        <time>2022-12-31 09:08:19</time>
      </trkpt>
      <trkpt lat="39.99278" lon="-3.90099">
        <ele>615.2</ele>
        <time>2022-12-31 09:08:20</time>
      </trkpt>
      <trkpt lat="39.99281" lon="-3.90098">
        <ele>615.2</ele>
        <time>2022-12-31 09:08:21</time>
      </trkpt>
      <trkpt lat="39.99282" lon="-3.90097">
        <ele>615.4</ele>
        <time>2022-12-31 09:08:22</time>
      </trkpt>
      <trkpt lat="39.99285" lon="-3.90097">
        <ele>615.8</ele>
        <time>2022-12-31 09:08:23</time>
      </trkpt>
      <trkpt lat="39.99286" lon="-3.90096">
        <ele>616</ele>
        <time>2022-12-31 09:08:24</time>
      </trkpt>
      <trkpt lat="39.99288" lon="-3.90096">
        <ele>616.4</ele>
        <time>2022-12-31 09:08:25</time>
      </trkpt>
      <trkpt lat="39.9929" lon="-3.90095">
        <ele>616.8</ele>
        <time>2022-12-31 09:08:26</time>
      </trkpt>
      <trkpt lat="39.99292" lon="-3.90094">
        <ele>616.8</ele>
        <time>2022-12-31 09:08:27</time>
      </trkpt>
      <trkpt lat="39.99294" lon="-3.90093">
        <ele>617</ele>
        <time>2022-12-31 09:08:28</time>
      </trkpt>
      <trkpt lat="39.99295" lon="-3.90092">
        <ele>617.2</ele>
        <time>2022-12-31 09:08:29</time>
      </trkpt>
      <trkpt lat="39.99297" lon="-3.9009">
        <ele>617.2</ele>
        <time>2022-12-31 09:08:30</time>
      </trkpt>
      <trkpt lat="39.99298" lon="-3.90088">
        <ele>617.4</ele>
        <time>2022-12-31 09:08:31</time>
      </trkpt>
      <trkpt lat="39.99298" lon="-3.90086">
        <ele>617.6</ele>
        <time>2022-12-31 09:08:32</time>
      </trkpt>
      <trkpt lat="39.99298" lon="-3.90084">
        <ele>617.8</ele>
        <time>2022-12-31 09:08:33</time>
      </trkpt>
      <trkpt lat="39.99296" lon="-3.90081">
        <ele>618.2</ele>
        <time>2022-12-31 09:08:34</time>
      </trkpt>
      <trkpt lat="39.99294" lon="-3.9008">
        <ele>618.4</ele>
        <time>2022-12-31 09:08:35</time>
      </trkpt>
      <trkpt lat="39.99292" lon="-3.90079">
        <ele>618.6</ele>
        <time>2022-12-31 09:08:36</time>
      </trkpt>
      <trkpt lat="39.9929" lon="-3.90079">
        <ele>619</ele>
        <time>2022-12-31 09:08:37</time>
      </trkpt>
      <trkpt lat="39.99288" lon="-3.9008">
        <ele>619.2</ele>
        <time>2022-12-31 09:08:38</time>
      </trkpt>
      <trkpt lat="39.99286" lon="-3.90081">
        <ele>619.4</ele>
        <time>2022-12-31 09:08:39</time>
      </trkpt>
      <trkpt lat="39.99284" lon="-3.90083">
        <ele>619.8</ele>
        <time>2022-12-31 09:08:40</time>
      </trkpt>
      <trkpt lat="39.99283" lon="-3.90084">
        <ele>620.2</ele>
        <time>2022-12-31 09:08:41</time>
      </trkpt>
      <trkpt lat="39.99281" lon="-3.90084">
        <ele>620.8</ele>
        <time>2022-12-31 09:08:42</time>
      </trkpt>
      <trkpt lat="39.99279" lon="-3.90085">
        <ele>621</ele>
        <time>2022-12-31 09:08:43</time>
      </trkpt>
      <trkpt lat="39.99277" lon="-3.90085">
        <ele>621.4</ele>
        <time>2022-12-31 09:08:44</time>
      </trkpt>
      <trkpt lat="39.99275" lon="-3.90086">
        <ele>621.6</ele>
        <time>2022-12-31 09:08:45</time>
      </trkpt>
      <trkpt lat="39.99273" lon="-3.90087">
        <ele>621.6</ele>
        <time>2022-12-31 09:08:46</time>
      </trkpt>
      <trkpt lat="39.99271" lon="-3.90087">
        <ele>621.6</ele>
        <time>2022-12-31 09:08:47</time>
      </trkpt>
      <trkpt lat="39.99269" lon="-3.90088">
        <ele>621.8</ele>
        <time>2022-12-31 09:08:48</time>
      </trkpt>
      <trkpt lat="39.99267" lon="-3.90088">
        <ele>622.2</ele>
        <time>2022-12-31 09:08:49</time>
      </trkpt>
      <trkpt lat="39.99265" lon="-3.90088">
        <ele>622.2</ele>
        <time>2022-12-31 09:08:50</time>
      </trkpt>
      <trkpt lat="39.99263" lon="-3.90088">
        <ele>622.6</ele>
        <time>2022-12-31 09:08:51</time>
      </trkpt>
      <trkpt lat="39.99261" lon="-3.90088">
        <ele>623</ele>
        <time>2022-12-31 09:08:52</time>
      </trkpt>
      <trkpt lat="39.99259" lon="-3.90088">
        <ele>623.4</ele>
        <time>2022-12-31 09:08:53</time>
      </trkpt>
      <trkpt lat="39.99257" lon="-3.90088">
        <ele>623.6</ele>
        <time>2022-12-31 09:08:54</time>
      </trkpt>
      <trkpt lat="39.99255" lon="-3.90088">
        <ele>623.6</ele>
        <time>2022-12-31 09:08:55</time>
      </trkpt>
      <trkpt lat="39.99253" lon="-3.90088">
        <ele>623.8</ele>
        <time>2022-12-31 09:08:56</time>
      </trkpt>
      <trkpt lat="39.99251" lon="-3.90088">
        <ele>624.2</ele>
        <time>2022-12-31 09:08:57</time>
      </trkpt>
      <trkpt lat="39.99249" lon="-3.90089">
        <ele>624.2</ele>
        <time>2022-12-31 09:08:58</time>
      </trkpt>
      <trkpt lat="39.99247" lon="-3.90089">
        <ele>624.6</ele>
        <time>2022-12-31 09:08:59</time>
      </trkpt>
      <trkpt lat="39.99245" lon="-3.9009">
        <ele>624.8</ele>
        <time>2022-12-31 09:09:00</time>
      </trkpt>
      <trkpt lat="39.99243" lon="-3.90091">
        <ele>625.2</ele>
        <time>2022-12-31 09:09:01</time>
      </trkpt>
      <trkpt lat="39.99241" lon="-3.90093">
        <ele>625.6</ele>
        <time>2022-12-31 09:09:02</time>
      </trkpt>
      <trkpt lat="39.99239" lon="-3.90095">
        <ele>626</ele>
        <time>2022-12-31 09:09:03</time>
      </trkpt>
      <trkpt lat="39.99238" lon="-3.90097">
        <ele>626.2</ele>
        <time>2022-12-31 09:09:04</time>
      </trkpt>
      <trkpt lat="39.99237" lon="-3.90099">
        <ele>626.6</ele>
        <time>2022-12-31 09:09:05</time>
      </trkpt>
      <trkpt lat="39.99235" lon="-3.90102">
        <ele>626.6</ele>
        <time>2022-12-31 09:09:06</time>
      </trkpt>
      <trkpt lat="39.99234" lon="-3.90104">
        <ele>626.8</ele>
        <time>2022-12-31 09:09:07</time>
      </trkpt>
      <trkpt lat="39.99233" lon="-3.90107">
        <ele>627.2</ele>
        <time>2022-12-31 09:09:08</time>
      </trkpt>
      <trkpt lat="39.99232" lon="-3.90109">
        <ele>627.2</ele>
        <time>2022-12-31 09:09:09</time>
      </trkpt>
      <trkpt lat="39.99231" lon="-3.90111">
        <ele>627.8</ele>
        <time>2022-12-31 09:09:10</time>
      </trkpt>
      <trkpt lat="39.9923" lon="-3.90114">
        <ele>627.8</ele>
        <time>2022-12-31 09:09:11</time>
      </trkpt>
      <trkpt lat="39.9923" lon="-3.90116">
        <ele>628.2</ele>
        <time>2022-12-31 09:09:12</time>
      </trkpt>
      <trkpt lat="39.99229" lon="-3.90118">
        <ele>628.2</ele>
        <time>2022-12-31 09:09:13</time>
      </trkpt>
      <trkpt lat="39.99229" lon="-3.90121">
        <ele>628.4</ele>
        <time>2022-12-31 09:09:14</time>
      </trkpt>
      <trkpt lat="39.99228" lon="-3.90123">
        <ele>628.6</ele>
        <time>2022-12-31 09:09:15</time>
      </trkpt>
      <trkpt lat="39.99227" lon="-3.90125">
        <ele>628.8</ele>
        <time>2022-12-31 09:09:16</time>
      </trkpt>
      <trkpt lat="39.99226" lon="-3.90128">
        <ele>629</ele>
        <time>2022-12-31 09:09:17</time>
      </trkpt>
      <trkpt lat="39.99225" lon="-3.9013">
        <ele>629.2</ele>
        <time>2022-12-31 09:09:18</time>
      </trkpt>
      <trkpt lat="39.99224" lon="-3.90132">
        <ele>629.6</ele>
        <time>2022-12-31 09:09:19</time>
      </trkpt>
      <trkpt lat="39.99224" lon="-3.90135">
        <ele>629.6</ele>
        <time>2022-12-31 09:09:20</time>
      </trkpt>
      <trkpt lat="39.99223" lon="-3.90137">
        <ele>630</ele>
        <time>2022-12-31 09:09:21</time>
      </trkpt>
      <trkpt lat="39.99222" lon="-3.9014">
        <ele>630</ele>
        <time>2022-12-31 09:09:22</time>
      </trkpt>
      <trkpt lat="39.99221" lon="-3.90143">
        <ele>630</ele>
        <time>2022-12-31 09:09:23</time>
      </trkpt>
      <trkpt lat="39.9922" lon="-3.90146">
        <ele>630.2</ele>
        <time>2022-12-31 09:09:24</time>
      </trkpt>
      <trkpt lat="39.9922" lon="-3.90149">
        <ele>630.6</ele>
        <time>2022-12-31 09:09:25</time>
      </trkpt>
      <trkpt lat="39.99219" lon="-3.90151">
        <ele>630.6</ele>
        <time>2022-12-31 09:09:26</time>
      </trkpt>
      <trkpt lat="39.99217" lon="-3.90154">
        <ele>630.8</ele>
        <time>2022-12-31 09:09:27</time>
      </trkpt>
      <trkpt lat="39.99216" lon="-3.90156">
        <ele>630.8</ele>
        <time>2022-12-31 09:09:28</time>
      </trkpt>
      <trkpt lat="39.99215" lon="-3.90159">
        <ele>630.8</ele>
        <time>2022-12-31 09:09:29</time>
      </trkpt>
      <trkpt lat="39.99214" lon="-3.90162">
        <ele>631.2</ele>
        <time>2022-12-31 09:09:30</time>
      </trkpt>
      <trkpt lat="39.99212" lon="-3.90164">
        <ele>631</ele>
        <time>2022-12-31 09:09:31</time>
      </trkpt>
      <trkpt lat="39.99211" lon="-3.90167">
        <ele>631.2</ele>
        <time>2022-12-31 09:09:32</time>
      </trkpt>
      <trkpt lat="39.9921" lon="-3.9017">
        <ele>631.6</ele>
        <time>2022-12-31 09:09:33</time>
      </trkpt>
      <trkpt lat="39.99209" lon="-3.90173">
        <ele>631.6</ele>
        <time>2022-12-31 09:09:34</time>
      </trkpt>
      <trkpt lat="39.99208" lon="-3.90175">
        <ele>631.8</ele>
        <time>2022-12-31 09:09:35</time>
      </trkpt>
      <trkpt lat="39.99206" lon="-3.90178">
        <ele>632</ele>
        <time>2022-12-31 09:09:36</time>
      </trkpt>
      <trkpt lat="39.99205" lon="-3.9018">
        <ele>632.2</ele>
        <time>2022-12-31 09:09:37</time>
      </trkpt>
      <trkpt lat="39.99204" lon="-3.90183">
        <ele>632.2</ele>
        <time>2022-12-31 09:09:38</time>
      </trkpt>
      <trkpt lat="39.99203" lon="-3.90186">
        <ele>632.4</ele>
        <time>2022-12-31 09:09:39</time>
      </trkpt>
      <trkpt lat="39.99201" lon="-3.90188">
        <ele>632.6</ele>
        <time>2022-12-31 09:09:40</time>
      </trkpt>
      <trkpt lat="39.99199" lon="-3.90191">
        <ele>632.8</ele>
        <time>2022-12-31 09:09:41</time>
      </trkpt>
      <trkpt lat="39.99197" lon="-3.90193">
        <ele>633</ele>
        <time>2022-12-31 09:09:42</time>
      </trkpt>
      <trkpt lat="39.99196" lon="-3.90196">
        <ele>633</ele>
        <time>2022-12-31 09:09:43</time>
      </trkpt>
      <trkpt lat="39.99194" lon="-3.90198">
        <ele>633.4</ele>
        <time>2022-12-31 09:09:44</time>
      </trkpt>
      <trkpt lat="39.99192" lon="-3.90201">
        <ele>633.6</ele>
        <time>2022-12-31 09:09:45</time>
      </trkpt>
      <trkpt lat="39.99191" lon="-3.90203">
        <ele>633.6</ele>
        <time>2022-12-31 09:09:46</time>
      </trkpt>
      <trkpt lat="39.99189" lon="-3.90206">
        <ele>633.8</ele>
        <time>2022-12-31 09:09:47</time>
      </trkpt>
      <trkpt lat="39.99188" lon="-3.90209">
        <ele>634</ele>
        <time>2022-12-31 09:09:48</time>
      </trkpt>
      <trkpt lat="39.99186" lon="-3.90211">
        <ele>634.2</ele>
        <time>2022-12-31 09:09:49</time>
      </trkpt>
      <trkpt lat="39.99185" lon="-3.90214">
        <ele>634.6</ele>
        <time>2022-12-31 09:09:50</time>
      </trkpt>
      <trkpt lat="39.99183" lon="-3.90217">
        <ele>635</ele>
        <time>2022-12-31 09:09:51</time>
      </trkpt>
      <trkpt lat="39.99182" lon="-3.9022">
        <ele>635.2</ele>
        <time>2022-12-31 09:09:52</time>
      </trkpt>
      <trkpt lat="39.99181" lon="-3.90223">
        <ele>635.6</ele>
        <time>2022-12-31 09:09:53</time>
      </trkpt>
      <trkpt lat="39.9918" lon="-3.90226">
        <ele>635.8</ele>
        <time>2022-12-31 09:09:54</time>
      </trkpt>
      <trkpt lat="39.99179" lon="-3.90229">
        <ele>636</ele>
        <time>2022-12-31 09:09:55</time>
      </trkpt>
      <trkpt lat="39.99178" lon="-3.90232">
        <ele>636</ele>
        <time>2022-12-31 09:09:56</time>
      </trkpt>
      <trkpt lat="39.99177" lon="-3.90236">
        <ele>636.2</ele>
        <time>2022-12-31 09:09:57</time>
      </trkpt>
      <trkpt lat="39.99176" lon="-3.90239">
        <ele>636.2</ele>
        <time>2022-12-31 09:09:58</time>
      </trkpt>
      <trkpt lat="39.99175" lon="-3.90242">
        <ele>636.4</ele>
        <time>2022-12-31 09:09:59</time>
      </trkpt>
      <trkpt lat="39.99174" lon="-3.90246">
        <ele>636.6</ele>
        <time>2022-12-31 09:10:00</time>
      </trkpt>
      <trkpt lat="39.99173" lon="-3.90249">
        <ele>636.6</ele>
        <time>2022-12-31 09:10:01</time>
      </trkpt>
      <trkpt lat="39.99172" lon="-3.90252">
        <ele>636.8</ele>
        <time>2022-12-31 09:10:02</time>
      </trkpt>
      <trkpt lat="39.99171" lon="-3.90255">
        <ele>637</ele>
        <time>2022-12-31 09:10:03</time>
      </trkpt>
      <trkpt lat="39.9917" lon="-3.90258">
        <ele>637.2</ele>
        <time>2022-12-31 09:10:04</time>
      </trkpt>
      <trkpt lat="39.99168" lon="-3.90261">
        <ele>637.6</ele>
        <time>2022-12-31 09:10:05</time>
      </trkpt>
      <trkpt lat="39.99167" lon="-3.90264">
        <ele>637.6</ele>
        <time>2022-12-31 09:10:06</time>
      </trkpt>
      <trkpt lat="39.99166" lon="-3.90267">
        <ele>637.8</ele>
        <time>2022-12-31 09:10:07</time>
      </trkpt>
      <trkpt lat="39.99165" lon="-3.90271">
        <ele>638.2</ele>
        <time>2022-12-31 09:10:08</time>
      </trkpt>
      <trkpt lat="39.99165" lon="-3.90274">
        <ele>638</ele>
        <time>2022-12-31 09:10:09</time>
      </trkpt>
      <trkpt lat="39.99164" lon="-3.90277">
        <ele>638.4</ele>
        <time>2022-12-31 09:10:10</time>
      </trkpt>
      <trkpt lat="39.99163" lon="-3.90281">
        <ele>638.4</ele>
        <time>2022-12-31 09:10:11</time>
      </trkpt>
      <trkpt lat="39.99163" lon="-3.90284">
        <ele>638.4</ele>
        <time>2022-12-31 09:10:12</time>
      </trkpt>
      <trkpt lat="39.99162" lon="-3.90287">
        <ele>638.6</ele>
        <time>2022-12-31 09:10:13</time>
      </trkpt>
      <trkpt lat="39.99161" lon="-3.9029">
        <ele>638.6</ele>
        <time>2022-12-31 09:10:14</time>
      </trkpt>
      <trkpt lat="39.99159" lon="-3.90293">
        <ele>638.8</ele>
        <time>2022-12-31 09:10:15</time>
      </trkpt>
      <trkpt lat="39.99158" lon="-3.90296">
        <ele>638.8</ele>
        <time>2022-12-31 09:10:16</time>
      </trkpt>
      <trkpt lat="39.99156" lon="-3.90299">
        <ele>638.8</ele>
        <time>2022-12-31 09:10:17</time>
      </trkpt>
      <trkpt lat="39.99154" lon="-3.90301">
        <ele>639</ele>
        <time>2022-12-31 09:10:18</time>
      </trkpt>
      <trkpt lat="39.99152" lon="-3.90304">
        <ele>639</ele>
        <time>2022-12-31 09:10:19</time>
      </trkpt>
      <trkpt lat="39.9915" lon="-3.90306">
        <ele>639</ele>
        <time>2022-12-31 09:10:20</time>
      </trkpt>
      <trkpt lat="39.99148" lon="-3.90308">
        <ele>639.4</ele>
        <time>2022-12-31 09:10:21</time>
      </trkpt>
      <trkpt lat="39.99146" lon="-3.9031">
        <ele>639.6</ele>
        <time>2022-12-31 09:10:22</time>
      </trkpt>
      <trkpt lat="39.99144" lon="-3.90312">
        <ele>639.8</ele>
        <time>2022-12-31 09:10:23</time>
      </trkpt>
      <trkpt lat="39.99142" lon="-3.90315">
        <ele>640</ele>
        <time>2022-12-31 09:10:24</time>
      </trkpt>
      <trkpt lat="39.9914" lon="-3.90317">
        <ele>640</ele>
        <time>2022-12-31 09:10:25</time>
      </trkpt>
      <trkpt lat="39.99137" lon="-3.90319">
        <ele>640</ele>
        <time>2022-12-31 09:10:26</time>
      </trkpt>
      <trkpt lat="39.99136" lon="-3.90321">
        <ele>640.4</ele>
        <time>2022-12-31 09:10:27</time>
      </trkpt>
      <trkpt lat="39.99134" lon="-3.90323">
        <ele>640.4</ele>
        <time>2022-12-31 09:10:28</time>
      </trkpt>
      <trkpt lat="39.99132" lon="-3.90325">
        <ele>640.8</ele>
        <time>2022-12-31 09:10:29</time>
      </trkpt>
      <trkpt lat="39.9913" lon="-3.90327">
        <ele>641</ele>
        <time>2022-12-31 09:10:30</time>
      </trkpt>
      <trkpt lat="39.99128" lon="-3.90328">
        <ele>641</ele>
        <time>2022-12-31 09:10:31</time>
      </trkpt>
      <trkpt lat="39.99125" lon="-3.9033">
        <ele>641.4</ele>
        <time>2022-12-31 09:10:32</time>
      </trkpt>
      <trkpt lat="39.99123" lon="-3.90332">
        <ele>641.6</ele>
        <time>2022-12-31 09:10:33</time>
      </trkpt>
      <trkpt lat="39.99121" lon="-3.90334">
        <ele>641.6</ele>
        <time>2022-12-31 09:10:34</time>
      </trkpt>
      <trkpt lat="39.99119" lon="-3.90336">
        <ele>641.8</ele>
        <time>2022-12-31 09:10:35</time>
      </trkpt>
      <trkpt lat="39.99117" lon="-3.90338">
        <ele>641.8</ele>
        <time>2022-12-31 09:10:36</time>
      </trkpt>
      <trkpt lat="39.99115" lon="-3.9034">
        <ele>642.2</ele>
        <time>2022-12-31 09:10:37</time>
      </trkpt>
      <trkpt lat="39.99114" lon="-3.90341">
        <ele>642.4</ele>
        <time>2022-12-31 09:10:38</time>
      </trkpt>
      <trkpt lat="39.99111" lon="-3.90343">
        <ele>642.8</ele>
        <time>2022-12-31 09:10:39</time>
      </trkpt>
      <trkpt lat="39.99109" lon="-3.90344">
        <ele>642.8</ele>
        <time>2022-12-31 09:10:40</time>
      </trkpt>
      <trkpt lat="39.99107" lon="-3.90346">
        <ele>643.2</ele>
        <time>2022-12-31 09:10:41</time>
      </trkpt>
      <trkpt lat="39.99104" lon="-3.90348">
        <ele>643.4</ele>
        <time>2022-12-31 09:10:42</time>
      </trkpt>
      <trkpt lat="39.99102" lon="-3.90349">
        <ele>643.6</ele>
        <time>2022-12-31 09:10:43</time>
      </trkpt>
      <trkpt lat="39.99099" lon="-3.9035">
        <ele>643.8</ele>
        <time>2022-12-31 09:10:44</time>
      </trkpt>
      <trkpt lat="39.99096" lon="-3.90351">
        <ele>644</ele>
        <time>2022-12-31 09:10:45</time>
      </trkpt>
      <trkpt lat="39.99093" lon="-3.90353">
        <ele>644</ele>
        <time>2022-12-31 09:10:46</time>
      </trkpt>
      <trkpt lat="39.9909" lon="-3.90354">
        <ele>644.2</ele>
        <time>2022-12-31 09:10:47</time>
      </trkpt>
      <trkpt lat="39.99087" lon="-3.90356">
        <ele>644.2</ele>
        <time>2022-12-31 09:10:48</time>
      </trkpt>
      <trkpt lat="39.99084" lon="-3.90357">
        <ele>644.4</ele>
        <time>2022-12-31 09:10:49</time>
      </trkpt>
      <trkpt lat="39.99081" lon="-3.90358">
        <ele>644.8</ele>
        <time>2022-12-31 09:10:50</time>
      </trkpt>
      <trkpt lat="39.99078" lon="-3.90359">
        <ele>645</ele>
        <time>2022-12-31 09:10:51</time>
      </trkpt>
      <trkpt lat="39.99075" lon="-3.90361">
        <ele>645</ele>
        <time>2022-12-31 09:10:52</time>
      </trkpt>
      <trkpt lat="39.99072" lon="-3.90362">
        <ele>645.2</ele>
        <time>2022-12-31 09:10:53</time>
      </trkpt>
      <trkpt lat="39.99069" lon="-3.90363">
        <ele>645.2</ele>
        <time>2022-12-31 09:10:54</time>
      </trkpt>
      <trkpt lat="39.99065" lon="-3.90364">
        <ele>645.2</ele>
        <time>2022-12-31 09:10:55</time>
      </trkpt>
      <trkpt lat="39.99062" lon="-3.90366">
        <ele>645.2</ele>
        <time>2022-12-31 09:10:56</time>
      </trkpt>
      <trkpt lat="39.99059" lon="-3.90367">
        <ele>645.2</ele>
        <time>2022-12-31 09:10:57</time>
      </trkpt>
      <trkpt lat="39.99056" lon="-3.90368">
        <ele>645.2</ele>
        <time>2022-12-31 09:10:58</time>
      </trkpt>
      <trkpt lat="39.99053" lon="-3.90369">
        <ele>645.4</ele>
        <time>2022-12-31 09:10:59</time>
      </trkpt>
      <trkpt lat="39.9905" lon="-3.9037">
        <ele>645.6</ele>
        <time>2022-12-31 09:11:00</time>
      </trkpt>
      <trkpt lat="39.99046" lon="-3.90371">
        <ele>645.6</ele>
        <time>2022-12-31 09:11:01</time>
      </trkpt>
      <trkpt lat="39.99043" lon="-3.90372">
        <ele>645.8</ele>
        <time>2022-12-31 09:11:02</time>
      </trkpt>
      <trkpt lat="39.9904" lon="-3.90373">
        <ele>645.6</ele>
        <time>2022-12-31 09:11:03</time>
      </trkpt>
      <trkpt lat="39.99037" lon="-3.90374">
        <ele>645.8</ele>
        <time>2022-12-31 09:11:04</time>
      </trkpt>
      <trkpt lat="39.99034" lon="-3.90376">
        <ele>645.8</ele>
        <time>2022-12-31 09:11:05</time>
      </trkpt>
      <trkpt lat="39.9903" lon="-3.90377">
        <ele>646.2</ele>
        <time>2022-12-31 09:11:06</time>
      </trkpt>
      <trkpt lat="39.99027" lon="-3.90378">
        <ele>646.4</ele>
        <time>2022-12-31 09:11:07</time>
      </trkpt>
      <trkpt lat="39.99024" lon="-3.9038">
        <ele>646.4</ele>
        <time>2022-12-31 09:11:08</time>
      </trkpt>
      <trkpt lat="39.99021" lon="-3.90381">
        <ele>646.6</ele>
        <time>2022-12-31 09:11:09</time>
      </trkpt>
      <trkpt lat="39.99018" lon="-3.90382">
        <ele>646.8</ele>
        <time>2022-12-31 09:11:10</time>
      </trkpt>
      <trkpt lat="39.99015" lon="-3.90384">
        <ele>646.8</ele>
        <time>2022-12-31 09:11:11</time>
      </trkpt>
      <trkpt lat="39.99012" lon="-3.90385">
        <ele>646.8</ele>
        <time>2022-12-31 09:11:12</time>
      </trkpt>
      <trkpt lat="39.9901" lon="-3.90385">
        <ele>647.2</ele>
        <time>2022-12-31 09:11:13</time>
      </trkpt>
      <trkpt lat="39.99008" lon="-3.90386">
        <ele>647</ele>
        <time>2022-12-31 09:11:14</time>
      </trkpt>
      <trkpt lat="39.99005" lon="-3.90387">
        <ele>647</ele>
        <time>2022-12-31 09:11:15</time>
      </trkpt>
      <trkpt lat="39.99003" lon="-3.90388">
        <ele>647</ele>
        <time>2022-12-31 09:11:16</time>
      </trkpt>
      <trkpt lat="39.99" lon="-3.90389">
        <ele>647.4</ele>
        <time>2022-12-31 09:11:17</time>
      </trkpt>
      <trkpt lat="39.98998" lon="-3.9039">
        <ele>647.6</ele>
        <time>2022-12-31 09:11:18</time>
      </trkpt>
      <trkpt lat="39.98995" lon="-3.90392">
        <ele>647.6</ele>
        <time>2022-12-31 09:11:19</time>
      </trkpt>
      <trkpt lat="39.98992" lon="-3.90394">
        <ele>647.8</ele>
        <time>2022-12-31 09:11:20</time>
      </trkpt>
      <trkpt lat="39.9899" lon="-3.90396">
        <ele>648.2</ele>
        <time>2022-12-31 09:11:21</time>
      </trkpt>
      <trkpt lat="39.98987" lon="-3.90399">
        <ele>648.8</ele>
        <time>2022-12-31 09:11:22</time>
      </trkpt>
      <trkpt lat="39.98984" lon="-3.90401">
        <ele>649.4</ele>
        <time>2022-12-31 09:11:23</time>
      </trkpt>
      <trkpt lat="39.98981" lon="-3.90404">
        <ele>650</ele>
        <time>2022-12-31 09:11:24</time>
      </trkpt>
      <trkpt lat="39.98978" lon="-3.90407">
        <ele>650</ele>
        <time>2022-12-31 09:11:25</time>
      </trkpt>
      <trkpt lat="39.98976" lon="-3.9041">
        <ele>650.6</ele>
        <time>2022-12-31 09:11:26</time>
      </trkpt>
      <trkpt lat="39.98974" lon="-3.90414">
        <ele>651</ele>
        <time>2022-12-31 09:11:27</time>
      </trkpt>
      <trkpt lat="39.98971" lon="-3.90417">
        <ele>651.2</ele>
        <time>2022-12-31 09:11:28</time>
      </trkpt>
      <trkpt lat="39.98968" lon="-3.9042">
        <ele>651.4</ele>
        <time>2022-12-31 09:11:29</time>
      </trkpt>
      <trkpt lat="39.98965" lon="-3.90422">
        <ele>651.4</ele>
        <time>2022-12-31 09:11:30</time>
      </trkpt>
      <trkpt lat="39.98962" lon="-3.90424">
        <ele>651.4</ele>
        <time>2022-12-31 09:11:31</time>
      </trkpt>
      <trkpt lat="39.98959" lon="-3.90426">
        <ele>651.4</ele>
        <time>2022-12-31 09:11:32</time>
      </trkpt>
      <trkpt lat="39.98956" lon="-3.90428">
        <ele>651.4</ele>
        <time>2022-12-31 09:11:33</time>
      </trkpt>
      <trkpt lat="39.98953" lon="-3.9043">
        <ele>651.6</ele>
        <time>2022-12-31 09:11:34</time>
      </trkpt>
      <trkpt lat="39.98949" lon="-3.90431">
        <ele>651.6</ele>
        <time>2022-12-31 09:11:35</time>
      </trkpt>
      <trkpt lat="39.98946" lon="-3.90432">
        <ele>651.6</ele>
        <time>2022-12-31 09:11:36</time>
      </trkpt>
      <trkpt lat="39.98942" lon="-3.90431">
        <ele>651.6</ele>
        <time>2022-12-31 09:11:37</time>
      </trkpt>
      <trkpt lat="39.98938" lon="-3.9043">
        <ele>651.6</ele>
        <time>2022-12-31 09:11:38</time>
      </trkpt>
      <trkpt lat="39.98934" lon="-3.90429">
        <ele>651.6</ele>
        <time>2022-12-31 09:11:39</time>
      </trkpt>
      <trkpt lat="39.98931" lon="-3.90427">
        <ele>651.4</ele>
        <time>2022-12-31 09:11:40</time>
      </trkpt>
      <trkpt lat="39.98927" lon="-3.90425">
        <ele>651.6</ele>
        <time>2022-12-31 09:11:41</time>
      </trkpt>
      <trkpt lat="39.98924" lon="-3.90423">
        <ele>651.6</ele>
        <time>2022-12-31 09:11:42</time>
      </trkpt>
      <trkpt lat="39.98922" lon="-3.90421">
        <ele>651.6</ele>
        <time>2022-12-31 09:11:43</time>
      </trkpt>
      <trkpt lat="39.9892" lon="-3.90418">
        <ele>651.6</ele>
        <time>2022-12-31 09:11:44</time>
      </trkpt>
      <trkpt lat="39.98919" lon="-3.90415">
        <ele>651.6</ele>
        <time>2022-12-31 09:11:45</time>
      </trkpt>
      <trkpt lat="39.98918" lon="-3.90413">
        <ele>651.8</ele>
        <time>2022-12-31 09:11:46</time>
      </trkpt>
      <trkpt lat="39.98917" lon="-3.9041">
        <ele>651.6</ele>
        <time>2022-12-31 09:11:47</time>
      </trkpt>
      <trkpt lat="39.98917" lon="-3.90407">
        <ele>651.8</ele>
        <time>2022-12-31 09:11:48</time>
      </trkpt>
      <trkpt lat="39.98917" lon="-3.90405">
        <ele>651.8</ele>
        <time>2022-12-31 09:11:49</time>
      </trkpt>
      <trkpt lat="39.98917" lon="-3.90402">
        <ele>652</ele>
        <time>2022-12-31 09:11:50</time>
      </trkpt>
      <trkpt lat="39.98917" lon="-3.90399">
        <ele>651.8</ele>
        <time>2022-12-31 09:11:51</time>
      </trkpt>
      <trkpt lat="39.98916" lon="-3.90396">
        <ele>652</ele>
        <time>2022-12-31 09:11:52</time>
      </trkpt>
      <trkpt lat="39.98915" lon="-3.90393">
        <ele>652.4</ele>
        <time>2022-12-31 09:11:53</time>
      </trkpt>
      <trkpt lat="39.98914" lon="-3.9039">
        <ele>652.6</ele>
        <time>2022-12-31 09:11:54</time>
      </trkpt>
      <trkpt lat="39.98913" lon="-3.90388">
        <ele>652.8</ele>
        <time>2022-12-31 09:11:55</time>
      </trkpt>
      <trkpt lat="39.98912" lon="-3.90386">
        <ele>653.4</ele>
        <time>2022-12-31 09:11:56</time>
      </trkpt>
      <trkpt lat="39.9891" lon="-3.90383">
        <ele>653.6</ele>
        <time>2022-12-31 09:11:57</time>
      </trkpt>
      <trkpt lat="39.98908" lon="-3.90381">
        <ele>653.8</ele>
        <time>2022-12-31 09:11:58</time>
      </trkpt>
      <trkpt lat="39.98906" lon="-3.90379">
        <ele>654.2</ele>
        <time>2022-12-31 09:11:59</time>
      </trkpt>
      <trkpt lat="39.98905" lon="-3.90377">
        <ele>654.4</ele>
        <time>2022-12-31 09:12:00</time>
      </trkpt>
      <trkpt lat="39.98903" lon="-3.90375">
        <ele>654.4</ele>
        <time>2022-12-31 09:12:01</time>
      </trkpt>
      <trkpt lat="39.98901" lon="-3.90372">
        <ele>654.6</ele>
        <time>2022-12-31 09:12:02</time>
      </trkpt>
      <trkpt lat="39.98899" lon="-3.9037">
        <ele>654.4</ele>
        <time>2022-12-31 09:12:03</time>
      </trkpt>
      <trkpt lat="39.98897" lon="-3.90368">
        <ele>654.8</ele>
        <time>2022-12-31 09:12:04</time>
      </trkpt>
      <trkpt lat="39.98896" lon="-3.90366">
        <ele>654.8</ele>
        <time>2022-12-31 09:12:05</time>
      </trkpt>
      <trkpt lat="39.98894" lon="-3.90364">
        <ele>655.2</ele>
        <time>2022-12-31 09:12:06</time>
      </trkpt>
      <trkpt lat="39.98893" lon="-3.90362">
        <ele>655.4</ele>
        <time>2022-12-31 09:12:07</time>
      </trkpt>
      <trkpt lat="39.98892" lon="-3.90359">
        <ele>655.4</ele>
        <time>2022-12-31 09:12:08</time>
      </trkpt>
      <trkpt lat="39.98891" lon="-3.90356">
        <ele>656</ele>
        <time>2022-12-31 09:12:09</time>
      </trkpt>
      <trkpt lat="39.98891" lon="-3.90354">
        <ele>656.2</ele>
        <time>2022-12-31 09:12:10</time>
      </trkpt>
      <trkpt lat="39.98892" lon="-3.90351">
        <ele>656.6</ele>
        <time>2022-12-31 09:12:11</time>
      </trkpt>
      <trkpt lat="39.98893" lon="-3.90349">
        <ele>656.6</ele>
        <time>2022-12-31 09:12:12</time>
      </trkpt>
      <trkpt lat="39.98895" lon="-3.90347">
        <ele>656.6</ele>
        <time>2022-12-31 09:12:13</time>
      </trkpt>
      <trkpt lat="39.98897" lon="-3.90345">
        <ele>656.8</ele>
        <time>2022-12-31 09:12:14</time>
      </trkpt>
      <trkpt lat="39.98899" lon="-3.90343">
        <ele>656.8</ele>
        <time>2022-12-31 09:12:15</time>
      </trkpt>
      <trkpt lat="39.98901" lon="-3.90342">
        <ele>657</ele>
        <time>2022-12-31 09:12:16</time>
      </trkpt>
      <trkpt lat="39.98904" lon="-3.90342">
        <ele>657</ele>
        <time>2022-12-31 09:12:17</time>
      </trkpt>
      <trkpt lat="39.98907" lon="-3.90342">
        <ele>657</ele>
        <time>2022-12-31 09:12:18</time>
      </trkpt>
      <trkpt lat="39.9891" lon="-3.90342">
        <ele>657</ele>
        <time>2022-12-31 09:12:19</time>
      </trkpt>
      <trkpt lat="39.98913" lon="-3.90342">
        <ele>657.2</ele>
        <time>2022-12-31 09:12:20</time>
      </trkpt>
      <trkpt lat="39.98916" lon="-3.90342">
        <ele>657.2</ele>
        <time>2022-12-31 09:12:21</time>
      </trkpt>
      <trkpt lat="39.9892" lon="-3.90342">
        <ele>657.6</ele>
        <time>2022-12-31 09:12:22</time>
      </trkpt>
      <trkpt lat="39.98923" lon="-3.90342">
        <ele>657.8</ele>
        <time>2022-12-31 09:12:23</time>
      </trkpt>
      <trkpt lat="39.98927" lon="-3.90342">
        <ele>657.8</ele>
        <time>2022-12-31 09:12:24</time>
      </trkpt>
      <trkpt lat="39.98931" lon="-3.90342">
        <ele>657.8</ele>
        <time>2022-12-31 09:12:25</time>
      </trkpt>
      <trkpt lat="39.98935" lon="-3.90342">
        <ele>658</ele>
        <time>2022-12-31 09:12:26</time>
      </trkpt>
      <trkpt lat="39.98939" lon="-3.90342">
        <ele>657.8</ele>
        <time>2022-12-31 09:12:27</time>
      </trkpt>
      <trkpt lat="39.98942" lon="-3.90342">
        <ele>657.8</ele>
        <time>2022-12-31 09:12:28</time>
      </trkpt>
      <trkpt lat="39.98946" lon="-3.90341">
        <ele>658</ele>
        <time>2022-12-31 09:12:29</time>
      </trkpt>
      <trkpt lat="39.98949" lon="-3.90341">
        <ele>658</ele>
        <time>2022-12-31 09:12:30</time>
      </trkpt>
      <trkpt lat="39.98952" lon="-3.90341">
        <ele>658</ele>
        <time>2022-12-31 09:12:31</time>
      </trkpt>
      <trkpt lat="39.98955" lon="-3.9034">
        <ele>658.2</ele>
        <time>2022-12-31 09:12:32</time>
      </trkpt>
      <trkpt lat="39.98958" lon="-3.90339">
        <ele>658.2</ele>
        <time>2022-12-31 09:12:33</time>
      </trkpt>
      <trkpt lat="39.9896" lon="-3.90337">
        <ele>658.2</ele>
        <time>2022-12-31 09:12:34</time>
      </trkpt>
      <trkpt lat="39.98962" lon="-3.90335">
        <ele>658.2</ele>
        <time>2022-12-31 09:12:35</time>
      </trkpt>
      <trkpt lat="39.98965" lon="-3.90334">
        <ele>658.2</ele>
        <time>2022-12-31 09:12:36</time>
      </trkpt>
      <trkpt lat="39.98968" lon="-3.90332">
        <ele>658.2</ele>
        <time>2022-12-31 09:12:37</time>
      </trkpt>
      <trkpt lat="39.9897" lon="-3.9033">
        <ele>658.2</ele>
        <time>2022-12-31 09:12:38</time>
      </trkpt>
      <trkpt lat="39.98973" lon="-3.90328">
        <ele>658.4</ele>
        <time>2022-12-31 09:12:39</time>
      </trkpt>
      <trkpt lat="39.98975" lon="-3.90325">
        <ele>658.6</ele>
        <time>2022-12-31 09:12:40</time>
      </trkpt>
      <trkpt lat="39.98978" lon="-3.90322">
        <ele>658.8</ele>
        <time>2022-12-31 09:12:41</time>
      </trkpt>
      <trkpt lat="39.9898" lon="-3.90319">
        <ele>659</ele>
        <time>2022-12-31 09:12:42</time>
      </trkpt>
      <trkpt lat="39.98982" lon="-3.90315">
        <ele>659</ele>
        <time>2022-12-31 09:12:43</time>
      </trkpt>
      <trkpt lat="39.98985" lon="-3.90312">
        <ele>659</ele>
        <time>2022-12-31 09:12:44</time>
      </trkpt>
      <trkpt lat="39.98987" lon="-3.90309">
        <ele>659</ele>
        <time>2022-12-31 09:12:45</time>
      </trkpt>
      <trkpt lat="39.98989" lon="-3.90306">
        <ele>659</ele>
        <time>2022-12-31 09:12:46</time>
      </trkpt>
      <trkpt lat="39.98992" lon="-3.90303">
        <ele>659.2</ele>
        <time>2022-12-31 09:12:47</time>
      </trkpt>
      <trkpt lat="39.98994" lon="-3.903">
        <ele>659.2</ele>
        <time>2022-12-31 09:12:48</time>
      </trkpt>
      <trkpt lat="39.98996" lon="-3.90297">
        <ele>659.4</ele>
        <time>2022-12-31 09:12:49</time>
      </trkpt>
      <trkpt lat="39.98998" lon="-3.90294">
        <ele>659.2</ele>
        <time>2022-12-31 09:12:50</time>
      </trkpt>
      <trkpt lat="39.99" lon="-3.9029">
        <ele>659.4</ele>
        <time>2022-12-31 09:12:51</time>
      </trkpt>
      <trkpt lat="39.99001" lon="-3.90287">
        <ele>659.4</ele>
        <time>2022-12-31 09:12:52</time>
      </trkpt>
      <trkpt lat="39.99003" lon="-3.90284">
        <ele>659.4</ele>
        <time>2022-12-31 09:12:53</time>
      </trkpt>
      <trkpt lat="39.99005" lon="-3.90281">
        <ele>659.6</ele>
        <time>2022-12-31 09:12:54</time>
      </trkpt>
      <trkpt lat="39.99007" lon="-3.90278">
        <ele>659.6</ele>
        <time>2022-12-31 09:12:55</time>
      </trkpt>
      <trkpt lat="39.99009" lon="-3.90276">
        <ele>659.6</ele>
        <time>2022-12-31 09:12:56</time>
      </trkpt>
      <trkpt lat="39.9901" lon="-3.90275">
        <ele>659.4</ele>
        <time>2022-12-31 09:12:57</time>
      </trkpt>
      <trkpt lat="39.99012" lon="-3.90273">
        <ele>659.6</ele>
        <time>2022-12-31 09:12:58</time>
      </trkpt>
      <trkpt lat="39.99013" lon="-3.90273">
        <ele>659.4</ele>
        <time>2022-12-31 09:12:59</time>
      </trkpt>
      <trkpt lat="39.99014" lon="-3.90272">
        <ele>659.6</ele>
        <time>2022-12-31 09:13:00</time>
      </trkpt>
      <trkpt lat="39.99014" lon="-3.90272">
        <ele>659.6</ele>
        <time>2022-12-31 09:13:01</time>
      </trkpt>
      <trkpt lat="39.99011" lon="-3.90275">
        <ele>659.6</ele>
        <time>2022-12-31 09:17:16</time>
      </trkpt>
      <trkpt lat="39.99012" lon="-3.90275">
        <ele>659.4</ele>
        <time>2022-12-31 09:17:17</time>
      </trkpt>
      <trkpt lat="39.99012" lon="-3.90274">
        <ele>659.6</ele>
        <time>2022-12-31 09:17:18</time>
      </trkpt>
      <trkpt lat="39.99013" lon="-3.90273">
        <ele>659.4</ele>
        <time>2022-12-31 09:17:19</time>
      </trkpt>
      <trkpt lat="39.99014" lon="-3.90272">
        <ele>659.4</ele>
        <time>2022-12-31 09:17:20</time>
      </trkpt>
      <trkpt lat="39.99015" lon="-3.90272">
        <ele>659.6</ele>
        <time>2022-12-31 09:17:21</time>
      </trkpt>
      <trkpt lat="39.99016" lon="-3.90272">
        <ele>659.6</ele>
        <time>2022-12-31 09:17:22</time>
      </trkpt>
      <trkpt lat="39.99018" lon="-3.90276">
        <ele>659.8</ele>
        <time>2022-12-31 09:17:23</time>
      </trkpt>
      <trkpt lat="39.99018" lon="-3.90278">
        <ele>659.8</ele>
        <time>2022-12-31 09:17:24</time>
      </trkpt>
      <trkpt lat="39.99018" lon="-3.9028">
        <ele>659.8</ele>
        <time>2022-12-31 09:17:25</time>
      </trkpt>
      <trkpt lat="39.99017" lon="-3.90282">
        <ele>659.8</ele>
        <time>2022-12-31 09:17:26</time>
      </trkpt>
      <trkpt lat="39.99016" lon="-3.90285">
        <ele>659.8</ele>
        <time>2022-12-31 09:17:27</time>
      </trkpt>
      <trkpt lat="39.99015" lon="-3.90287">
        <ele>659.8</ele>
        <time>2022-12-31 09:17:28</time>
      </trkpt>
      <trkpt lat="39.99012" lon="-3.90289">
        <ele>660</ele>
        <time>2022-12-31 09:17:29</time>
      </trkpt>
      <trkpt lat="39.99009" lon="-3.90291">
        <ele>660</ele>
        <time>2022-12-31 09:17:30</time>
      </trkpt>
      <trkpt lat="39.99006" lon="-3.90293">
        <ele>660</ele>
        <time>2022-12-31 09:17:31</time>
      </trkpt>
      <trkpt lat="39.99003" lon="-3.90296">
        <ele>660.2</ele>
        <time>2022-12-31 09:17:32</time>
      </trkpt>
      <trkpt lat="39.99" lon="-3.90299">
        <ele>660</ele>
        <time>2022-12-31 09:17:33</time>
      </trkpt>
      <trkpt lat="39.98997" lon="-3.90302">
        <ele>660</ele>
        <time>2022-12-31 09:17:34</time>
      </trkpt>
      <trkpt lat="39.98995" lon="-3.90306">
        <ele>660.2</ele>
        <time>2022-12-31 09:17:35</time>
      </trkpt>
      <trkpt lat="39.98992" lon="-3.9031">
        <ele>660.2</ele>
        <time>2022-12-31 09:17:36</time>
      </trkpt>
      <trkpt lat="39.98989" lon="-3.90314">
        <ele>660.2</ele>
        <time>2022-12-31 09:17:37</time>
      </trkpt>
      <trkpt lat="39.98987" lon="-3.90319">
        <ele>660.2</ele>
        <time>2022-12-31 09:17:38</time>
      </trkpt>
      <trkpt lat="39.98984" lon="-3.90323">
        <ele>660.2</ele>
        <time>2022-12-31 09:17:39</time>
      </trkpt>
      <trkpt lat="39.98983" lon="-3.90327">
        <ele>660</ele>
        <time>2022-12-31 09:17:40</time>
      </trkpt>
      <trkpt lat="39.98981" lon="-3.9033">
        <ele>660.2</ele>
        <time>2022-12-31 09:17:41</time>
      </trkpt>
      <trkpt lat="39.9898" lon="-3.90334">
        <ele>660.2</ele>
        <time>2022-12-31 09:17:42</time>
      </trkpt>
      <trkpt lat="39.98978" lon="-3.90337">
        <ele>660.2</ele>
        <time>2022-12-31 09:17:43</time>
      </trkpt>
      <trkpt lat="39.98976" lon="-3.9034">
        <ele>660.4</ele>
        <time>2022-12-31 09:17:44</time>
      </trkpt>
      <trkpt lat="39.98975" lon="-3.90343">
        <ele>660.4</ele>
        <time>2022-12-31 09:17:45</time>
      </trkpt>
      <trkpt lat="39.98972" lon="-3.90347">
        <ele>660.2</ele>
        <time>2022-12-31 09:17:46</time>
      </trkpt>
      <trkpt lat="39.9897" lon="-3.9035">
        <ele>660.2</ele>
        <time>2022-12-31 09:17:47</time>
      </trkpt>
      <trkpt lat="39.98967" lon="-3.90353">
        <ele>660.2</ele>
        <time>2022-12-31 09:17:48</time>
      </trkpt>
      <trkpt lat="39.98964" lon="-3.90356">
        <ele>660.2</ele>
        <time>2022-12-31 09:17:49</time>
      </trkpt>
      <trkpt lat="39.98961" lon="-3.90357">
        <ele>660.2</ele>
        <time>2022-12-31 09:17:50</time>
      </trkpt>
      <trkpt lat="39.98958" lon="-3.90358">
        <ele>660.4</ele>
        <time>2022-12-31 09:17:51</time>
      </trkpt>
      <trkpt lat="39.98955" lon="-3.9036">
        <ele>660</ele>
        <time>2022-12-31 09:17:52</time>
      </trkpt>
      <trkpt lat="39.98951" lon="-3.90362">
        <ele>660</ele>
        <time>2022-12-31 09:17:53</time>
      </trkpt>
      <trkpt lat="39.98946" lon="-3.90364">
        <ele>660</ele>
        <time>2022-12-31 09:17:54</time>
      </trkpt>
      <trkpt lat="39.98942" lon="-3.90366">
        <ele>660</ele>
        <time>2022-12-31 09:17:55</time>
      </trkpt>
      <trkpt lat="39.98938" lon="-3.90369">
        <ele>659.8</ele>
        <time>2022-12-31 09:17:56</time>
      </trkpt>
      <trkpt lat="39.98933" lon="-3.90373">
        <ele>660</ele>
        <time>2022-12-31 09:17:57</time>
      </trkpt>
      <trkpt lat="39.98929" lon="-3.90376">
        <ele>659.8</ele>
        <time>2022-12-31 09:17:58</time>
      </trkpt>
      <trkpt lat="39.98924" lon="-3.90381">
        <ele>659.8</ele>
        <time>2022-12-31 09:17:59</time>
      </trkpt>
      <trkpt lat="39.98921" lon="-3.90386">
        <ele>659.6</ele>
        <time>2022-12-31 09:18:00</time>
      </trkpt>
      <trkpt lat="39.98918" lon="-3.90391">
        <ele>659.4</ele>
        <time>2022-12-31 09:18:01</time>
      </trkpt>
      <trkpt lat="39.98916" lon="-3.90396">
        <ele>659</ele>
        <time>2022-12-31 09:18:02</time>
      </trkpt>
      <trkpt lat="39.98916" lon="-3.90401">
        <ele>658.4</ele>
        <time>2022-12-31 09:18:03</time>
      </trkpt>
      <trkpt lat="39.98916" lon="-3.90406">
        <ele>658</ele>
        <time>2022-12-31 09:18:04</time>
      </trkpt>
      <trkpt lat="39.98916" lon="-3.9041">
        <ele>658</ele>
        <time>2022-12-31 09:18:05</time>
      </trkpt>
      <trkpt lat="39.98917" lon="-3.90414">
        <ele>657.2</ele>
        <time>2022-12-31 09:18:06</time>
      </trkpt>
      <trkpt lat="39.98919" lon="-3.90419">
        <ele>656.6</ele>
        <time>2022-12-31 09:18:07</time>
      </trkpt>
      <trkpt lat="39.98922" lon="-3.90423">
        <ele>656.2</ele>
        <time>2022-12-31 09:18:08</time>
      </trkpt>
      <trkpt lat="39.98926" lon="-3.90426">
        <ele>656</ele>
        <time>2022-12-31 09:18:09</time>
      </trkpt>
      <trkpt lat="39.98931" lon="-3.90429">
        <ele>655.6</ele>
        <time>2022-12-31 09:18:10</time>
      </trkpt>
      <trkpt lat="39.98936" lon="-3.9043">
        <ele>655.6</ele>
        <time>2022-12-31 09:18:11</time>
      </trkpt>
      <trkpt lat="39.98941" lon="-3.90431">
        <ele>655.4</ele>
        <time>2022-12-31 09:18:12</time>
      </trkpt>
      <trkpt lat="39.98946" lon="-3.9043">
        <ele>655</ele>
        <time>2022-12-31 09:18:13</time>
      </trkpt>
      <trkpt lat="39.98951" lon="-3.90429">
        <ele>655</ele>
        <time>2022-12-31 09:18:14</time>
      </trkpt>
      <trkpt lat="39.98956" lon="-3.90426">
        <ele>654.6</ele>
        <time>2022-12-31 09:18:15</time>
      </trkpt>
      <trkpt lat="39.98961" lon="-3.90423">
        <ele>654.4</ele>
        <time>2022-12-31 09:18:16</time>
      </trkpt>
      <trkpt lat="39.98966" lon="-3.9042">
        <ele>654</ele>
        <time>2022-12-31 09:18:17</time>
      </trkpt>
      <trkpt lat="39.98971" lon="-3.90415">
        <ele>653.6</ele>
        <time>2022-12-31 09:18:18</time>
      </trkpt>
      <trkpt lat="39.98976" lon="-3.9041">
        <ele>652.6</ele>
        <time>2022-12-31 09:18:19</time>
      </trkpt>
      <trkpt lat="39.9898" lon="-3.90405">
        <ele>651.8</ele>
        <time>2022-12-31 09:18:20</time>
      </trkpt>
      <trkpt lat="39.98985" lon="-3.904">
        <ele>651.6</ele>
        <time>2022-12-31 09:18:21</time>
      </trkpt>
      <trkpt lat="39.9899" lon="-3.90396">
        <ele>651</ele>
        <time>2022-12-31 09:18:22</time>
      </trkpt>
      <trkpt lat="39.98995" lon="-3.90392">
        <ele>650.6</ele>
        <time>2022-12-31 09:18:23</time>
      </trkpt>
      <trkpt lat="39.99" lon="-3.90389">
        <ele>650.6</ele>
        <time>2022-12-31 09:18:24</time>
      </trkpt>
      <trkpt lat="39.99006" lon="-3.90386">
        <ele>650.4</ele>
        <time>2022-12-31 09:18:25</time>
      </trkpt>
      <trkpt lat="39.99012" lon="-3.90383">
        <ele>650.2</ele>
        <time>2022-12-31 09:18:26</time>
      </trkpt>
      <trkpt lat="39.9902" lon="-3.9038">
        <ele>650</ele>
        <time>2022-12-31 09:18:27</time>
      </trkpt>
      <trkpt lat="39.99028" lon="-3.90376">
        <ele>649.8</ele>
        <time>2022-12-31 09:18:28</time>
      </trkpt>
      <trkpt lat="39.99036" lon="-3.90373">
        <ele>650</ele>
        <time>2022-12-31 09:18:29</time>
      </trkpt>
      <trkpt lat="39.99044" lon="-3.9037">
        <ele>649.8</ele>
        <time>2022-12-31 09:18:30</time>
      </trkpt>
      <trkpt lat="39.99051" lon="-3.90367">
        <ele>649.8</ele>
        <time>2022-12-31 09:18:31</time>
      </trkpt>
      <trkpt lat="39.99059" lon="-3.90364">
        <ele>649.6</ele>
        <time>2022-12-31 09:18:32</time>
      </trkpt>
      <trkpt lat="39.99067" lon="-3.90361">
        <ele>649.2</ele>
        <time>2022-12-31 09:18:33</time>
      </trkpt>
      <trkpt lat="39.99075" lon="-3.90358">
        <ele>649.2</ele>
        <time>2022-12-31 09:18:34</time>
      </trkpt>
      <trkpt lat="39.99082" lon="-3.90355">
        <ele>649</ele>
        <time>2022-12-31 09:18:35</time>
      </trkpt>
      <trkpt lat="39.9909" lon="-3.90352">
        <ele>648.6</ele>
        <time>2022-12-31 09:18:36</time>
      </trkpt>
      <trkpt lat="39.99097" lon="-3.90349">
        <ele>647.4</ele>
        <time>2022-12-31 09:18:37</time>
      </trkpt>
      <trkpt lat="39.99104" lon="-3.90346">
        <ele>646.6</ele>
        <time>2022-12-31 09:18:38</time>
      </trkpt>
      <trkpt lat="39.99111" lon="-3.90341">
        <ele>645.4</ele>
        <time>2022-12-31 09:18:39</time>
      </trkpt>
      <trkpt lat="39.99118" lon="-3.90337">
        <ele>644.6</ele>
        <time>2022-12-31 09:18:40</time>
      </trkpt>
      <trkpt lat="39.99124" lon="-3.90331">
        <ele>644.2</ele>
        <time>2022-12-31 09:18:41</time>
      </trkpt>
      <trkpt lat="39.9913" lon="-3.90325">
        <ele>643.8</ele>
        <time>2022-12-31 09:18:42</time>
      </trkpt>
      <trkpt lat="39.99135" lon="-3.90318">
        <ele>643.2</ele>
        <time>2022-12-31 09:18:43</time>
      </trkpt>
      <trkpt lat="39.99141" lon="-3.90311">
        <ele>643</ele>
        <time>2022-12-31 09:18:44</time>
      </trkpt>
      <trkpt lat="39.99146" lon="-3.90304">
        <ele>642.6</ele>
        <time>2022-12-31 09:18:45</time>
      </trkpt>
      <trkpt lat="39.99151" lon="-3.90297">
        <ele>642.4</ele>
        <time>2022-12-31 09:18:46</time>
      </trkpt>
      <trkpt lat="39.99156" lon="-3.90289">
        <ele>642.4</ele>
        <time>2022-12-31 09:18:47</time>
      </trkpt>
      <trkpt lat="39.9916" lon="-3.9028">
        <ele>642.4</ele>
        <time>2022-12-31 09:18:48</time>
      </trkpt>
      <trkpt lat="39.99163" lon="-3.90271">
        <ele>641.8</ele>
        <time>2022-12-31 09:18:49</time>
      </trkpt>
      <trkpt lat="39.99166" lon="-3.90261">
        <ele>641.4</ele>
        <time>2022-12-31 09:18:50</time>
      </trkpt>
      <trkpt lat="39.99169" lon="-3.90252">
        <ele>640.6</ele>
        <time>2022-12-31 09:18:51</time>
      </trkpt>
      <trkpt lat="39.99172" lon="-3.90242">
        <ele>639.6</ele>
        <time>2022-12-31 09:18:52</time>
      </trkpt>
      <trkpt lat="39.99175" lon="-3.90233">
        <ele>639.2</ele>
        <time>2022-12-31 09:18:53</time>
      </trkpt>
      <trkpt lat="39.99179" lon="-3.90224">
        <ele>639.2</ele>
        <time>2022-12-31 09:18:54</time>
      </trkpt>
      <trkpt lat="39.99182" lon="-3.90215">
        <ele>638.4</ele>
        <time>2022-12-31 09:18:55</time>
      </trkpt>
      <trkpt lat="39.99186" lon="-3.90207">
        <ele>637.6</ele>
        <time>2022-12-31 09:18:56</time>
      </trkpt>
      <trkpt lat="39.99191" lon="-3.90199">
        <ele>637.2</ele>
        <time>2022-12-31 09:18:57</time>
      </trkpt>
      <trkpt lat="39.99196" lon="-3.90192">
        <ele>636.6</ele>
        <time>2022-12-31 09:18:58</time>
      </trkpt>
      <trkpt lat="39.99201" lon="-3.90185">
        <ele>636</ele>
        <time>2022-12-31 09:18:59</time>
      </trkpt>
      <trkpt lat="39.99205" lon="-3.90177">
        <ele>635.6</ele>
        <time>2022-12-31 09:19:00</time>
      </trkpt>
      <trkpt lat="39.99209" lon="-3.90169">
        <ele>635.2</ele>
        <time>2022-12-31 09:19:01</time>
      </trkpt>
      <trkpt lat="39.99212" lon="-3.9016">
        <ele>635</ele>
        <time>2022-12-31 09:19:02</time>
      </trkpt>
      <trkpt lat="39.99215" lon="-3.9015">
        <ele>634.8</ele>
        <time>2022-12-31 09:19:03</time>
      </trkpt>
      <trkpt lat="39.99219" lon="-3.90141">
        <ele>634.2</ele>
        <time>2022-12-31 09:19:04</time>
      </trkpt>
      <trkpt lat="39.99222" lon="-3.90132">
        <ele>634</ele>
        <time>2022-12-31 09:19:05</time>
      </trkpt>
      <trkpt lat="39.99225" lon="-3.90124">
        <ele>633.4</ele>
        <time>2022-12-31 09:19:06</time>
      </trkpt>
      <trkpt lat="39.99229" lon="-3.90115">
        <ele>632.8</ele>
        <time>2022-12-31 09:19:07</time>
      </trkpt>
      <trkpt lat="39.99232" lon="-3.90107">
        <ele>632.6</ele>
        <time>2022-12-31 09:19:08</time>
      </trkpt>
      <trkpt lat="39.99236" lon="-3.901">
        <ele>632</ele>
        <time>2022-12-31 09:19:09</time>
      </trkpt>
      <trkpt lat="39.9924" lon="-3.90094">
        <ele>631.4</ele>
        <time>2022-12-31 09:19:10</time>
      </trkpt>
      <trkpt lat="39.99244" lon="-3.90089">
        <ele>630.8</ele>
        <time>2022-12-31 09:19:11</time>
      </trkpt>
      <trkpt lat="39.9925" lon="-3.90087">
        <ele>630</ele>
        <time>2022-12-31 09:19:12</time>
      </trkpt>
      <trkpt lat="39.99255" lon="-3.90086">
        <ele>629</ele>
        <time>2022-12-31 09:19:13</time>
      </trkpt>
      <trkpt lat="39.99262" lon="-3.90086">
        <ele>629</ele>
        <time>2022-12-31 09:19:14</time>
      </trkpt>
      <trkpt lat="39.99268" lon="-3.90085">
        <ele>628.4</ele>
        <time>2022-12-31 09:19:15</time>
      </trkpt>
      <trkpt lat="39.99274" lon="-3.90083">
        <ele>627.6</ele>
        <time>2022-12-31 09:19:16</time>
      </trkpt>
      <trkpt lat="39.99278" lon="-3.90082">
        <ele>627.2</ele>
        <time>2022-12-31 09:19:17</time>
      </trkpt>
      <trkpt lat="39.99283" lon="-3.90079">
        <ele>627</ele>
        <time>2022-12-31 09:19:18</time>
      </trkpt>
      <trkpt lat="39.99287" lon="-3.90077">
        <ele>626.6</ele>
        <time>2022-12-31 09:19:19</time>
      </trkpt>
      <trkpt lat="39.99291" lon="-3.90076">
        <ele>626.2</ele>
        <time>2022-12-31 09:19:20</time>
      </trkpt>
      <trkpt lat="39.99294" lon="-3.90077">
        <ele>625.8</ele>
        <time>2022-12-31 09:19:21</time>
      </trkpt>
      <trkpt lat="39.99296" lon="-3.90082">
        <ele>625</ele>
        <time>2022-12-31 09:19:22</time>
      </trkpt>
      <trkpt lat="39.99295" lon="-3.90088">
        <ele>624.8</ele>
        <time>2022-12-31 09:19:23</time>
      </trkpt>
      <trkpt lat="39.99291" lon="-3.90092">
        <ele>623.8</ele>
        <time>2022-12-31 09:19:24</time>
      </trkpt>
      <trkpt lat="39.99285" lon="-3.90095">
        <ele>623</ele>
        <time>2022-12-31 09:19:25</time>
      </trkpt>
      <trkpt lat="39.99279" lon="-3.90096">
        <ele>622.8</ele>
        <time>2022-12-31 09:19:26</time>
      </trkpt>
      <trkpt lat="39.99273" lon="-3.90099">
        <ele>622.2</ele>
        <time>2022-12-31 09:19:27</time>
      </trkpt>
      <trkpt lat="39.99267" lon="-3.90102">
        <ele>621.2</ele>
        <time>2022-12-31 09:19:28</time>
      </trkpt>
      <trkpt lat="39.99261" lon="-3.90108">
        <ele>620.6</ele>
        <time>2022-12-31 09:19:29</time>
      </trkpt>
      <trkpt lat="39.99256" lon="-3.90117">
        <ele>620.2</ele>
        <time>2022-12-31 09:19:30</time>
      </trkpt>
      <trkpt lat="39.99253" lon="-3.90127">
        <ele>619.8</ele>
        <time>2022-12-31 09:19:31</time>
      </trkpt>
      <trkpt lat="39.99251" lon="-3.90137">
        <ele>618.8</ele>
        <time>2022-12-31 09:19:32</time>
      </trkpt>
      <trkpt lat="39.9925" lon="-3.90148">
        <ele>618</ele>
        <time>2022-12-31 09:19:33</time>
      </trkpt>
      <trkpt lat="39.99249" lon="-3.90158">
        <ele>618</ele>
        <time>2022-12-31 09:19:34</time>
      </trkpt>
      <trkpt lat="39.99248" lon="-3.90166">
        <ele>616.6</ele>
        <time>2022-12-31 09:19:35</time>
      </trkpt>
      <trkpt lat="39.99247" lon="-3.90174">
        <ele>615.4</ele>
        <time>2022-12-31 09:19:36</time>
      </trkpt>
      <trkpt lat="39.99246" lon="-3.90182">
        <ele>614.8</ele>
        <time>2022-12-31 09:19:37</time>
      </trkpt>
      <trkpt lat="39.99246" lon="-3.90191">
        <ele>614</ele>
        <time>2022-12-31 09:19:38</time>
      </trkpt>
      <trkpt lat="39.99245" lon="-3.90201">
        <ele>613.2</ele>
        <time>2022-12-31 09:19:39</time>
      </trkpt>
      <trkpt lat="39.99244" lon="-3.9021">
        <ele>612.8</ele>
        <time>2022-12-31 09:19:40</time>
      </trkpt>
      <trkpt lat="39.99243" lon="-3.9022">
        <ele>612.2</ele>
        <time>2022-12-31 09:19:41</time>
      </trkpt>
      <trkpt lat="39.99242" lon="-3.90229">
        <ele>610.8</ele>
        <time>2022-12-31 09:19:42</time>
      </trkpt>
      <trkpt lat="39.99242" lon="-3.90238">
        <ele>610</ele>
        <time>2022-12-31 09:19:43</time>
      </trkpt>
      <trkpt lat="39.99242" lon="-3.90246">
        <ele>609.2</ele>
        <time>2022-12-31 09:19:44</time>
      </trkpt>
      <trkpt lat="39.99242" lon="-3.90253">
        <ele>609</ele>
        <time>2022-12-31 09:19:45</time>
      </trkpt>
      <trkpt lat="39.99243" lon="-3.90259">
        <ele>608.6</ele>
        <time>2022-12-31 09:19:46</time>
      </trkpt>
      <trkpt lat="39.99244" lon="-3.90265">
        <ele>608.6</ele>
        <time>2022-12-31 09:19:47</time>
      </trkpt>
      <trkpt lat="39.99244" lon="-3.90271">
        <ele>607.8</ele>
        <time>2022-12-31 09:19:48</time>
      </trkpt>
      <trkpt lat="39.99245" lon="-3.90277">
        <ele>607</ele>
        <time>2022-12-31 09:19:49</time>
      </trkpt>
      <trkpt lat="39.99245" lon="-3.90284">
        <ele>605.8</ele>
        <time>2022-12-31 09:19:50</time>
      </trkpt>
      <trkpt lat="39.99246" lon="-3.90291">
        <ele>604.8</ele>
        <time>2022-12-31 09:19:51</time>
      </trkpt>
      <trkpt lat="39.99246" lon="-3.90299">
        <ele>603.4</ele>
        <time>2022-12-31 09:19:52</time>
      </trkpt>
      <trkpt lat="39.99247" lon="-3.90307">
        <ele>602.6</ele>
        <time>2022-12-31 09:19:53</time>
      </trkpt>
      <trkpt lat="39.99247" lon="-3.90315">
        <ele>602.6</ele>
        <time>2022-12-31 09:19:54</time>
      </trkpt>
      <trkpt lat="39.99248" lon="-3.90323">
        <ele>602.2</ele>
        <time>2022-12-31 09:19:55</time>
      </trkpt>
      <trkpt lat="39.99248" lon="-3.90331">
        <ele>601.8</ele>
        <time>2022-12-31 09:19:56</time>
      </trkpt>
      <trkpt lat="39.99248" lon="-3.90339">
        <ele>601</ele>
        <time>2022-12-31 09:19:57</time>
      </trkpt>
      <trkpt lat="39.99249" lon="-3.90348">
        <ele>600.6</ele>
        <time>2022-12-31 09:19:58</time>
      </trkpt>
      <trkpt lat="39.99249" lon="-3.90356">
        <ele>600</ele>
        <time>2022-12-31 09:19:59</time>
      </trkpt>
      <trkpt lat="39.9925" lon="-3.90365">
        <ele>599.2</ele>
        <time>2022-12-31 09:20:00</time>
      </trkpt>
      <trkpt lat="39.99251" lon="-3.90374">
        <ele>598</ele>
        <time>2022-12-31 09:20:01</time>
      </trkpt>
      <trkpt lat="39.99251" lon="-3.90383">
        <ele>597.2</ele>
        <time>2022-12-31 09:20:02</time>
      </trkpt>
      <trkpt lat="39.99249" lon="-3.90393">
        <ele>596</ele>
        <time>2022-12-31 09:20:03</time>
      </trkpt>
      <trkpt lat="39.99247" lon="-3.90403">
        <ele>595.4</ele>
        <time>2022-12-31 09:20:04</time>
      </trkpt>
      <trkpt lat="39.99245" lon="-3.90412">
        <ele>594.4</ele>
        <time>2022-12-31 09:20:05</time>
      </trkpt>
      <trkpt lat="39.99244" lon="-3.90422">
        <ele>593.2</ele>
        <time>2022-12-31 09:20:06</time>
      </trkpt>
      <trkpt lat="39.99243" lon="-3.90432">
        <ele>592.2</ele>
        <time>2022-12-31 09:20:07</time>
      </trkpt>
      <trkpt lat="39.99242" lon="-3.90441">
        <ele>590.8</ele>
        <time>2022-12-31 09:20:08</time>
      </trkpt>
      <trkpt lat="39.99242" lon="-3.90451">
        <ele>589.6</ele>
        <time>2022-12-31 09:20:09</time>
      </trkpt>
      <trkpt lat="39.99241" lon="-3.9046">
        <ele>588.2</ele>
        <time>2022-12-31 09:20:10</time>
      </trkpt>
      <trkpt lat="39.9924" lon="-3.90468">
        <ele>587.4</ele>
        <time>2022-12-31 09:20:11</time>
      </trkpt>
      <trkpt lat="39.99239" lon="-3.90473">
        <ele>585.8</ele>
        <time>2022-12-31 09:20:12</time>
      </trkpt>
      <trkpt lat="39.99238" lon="-3.90479">
        <ele>584.4</ele>
        <time>2022-12-31 09:20:13</time>
      </trkpt>
      <trkpt lat="39.99239" lon="-3.90484">
        <ele>584.4</ele>
        <time>2022-12-31 09:20:14</time>
      </trkpt>
      <trkpt lat="39.99242" lon="-3.90488">
        <ele>583.8</ele>
        <time>2022-12-31 09:20:15</time>
      </trkpt>
      <trkpt lat="39.99246" lon="-3.9049">
        <ele>583.2</ele>
        <time>2022-12-31 09:20:16</time>
      </trkpt>
      <trkpt lat="39.9925" lon="-3.9049">
        <ele>582.4</ele>
        <time>2022-12-31 09:20:17</time>
      </trkpt>
      <trkpt lat="39.99255" lon="-3.90488">
        <ele>581.8</ele>
        <time>2022-12-31 09:20:18</time>
      </trkpt>
      <trkpt lat="39.9926" lon="-3.90484">
        <ele>581.6</ele>
        <time>2022-12-31 09:20:19</time>
      </trkpt>
      <trkpt lat="39.99263" lon="-3.90479">
        <ele>580.8</ele>
        <time>2022-12-31 09:20:20</time>
      </trkpt>
      <trkpt lat="39.99266" lon="-3.90473">
        <ele>580.4</ele>
        <time>2022-12-31 09:20:21</time>
      </trkpt>
      <trkpt lat="39.99268" lon="-3.90468">
        <ele>580.4</ele>
        <time>2022-12-31 09:20:22</time>
      </trkpt>
      <trkpt lat="39.99271" lon="-3.90464">
        <ele>580</ele>
        <time>2022-12-31 09:20:23</time>
      </trkpt>
      <trkpt lat="39.99273" lon="-3.90458">
        <ele>579.8</ele>
        <time>2022-12-31 09:20:24</time>
      </trkpt>
      <trkpt lat="39.99276" lon="-3.90453">
        <ele>579.6</ele>
        <time>2022-12-31 09:20:25</time>
      </trkpt>
      <trkpt lat="39.99278" lon="-3.90449">
        <ele>579.4</ele>
        <time>2022-12-31 09:20:26</time>
      </trkpt>
      <trkpt lat="39.99281" lon="-3.90445">
        <ele>578.6</ele>
        <time>2022-12-31 09:20:27</time>
      </trkpt>
      <trkpt lat="39.99283" lon="-3.90443">
        <ele>577.6</ele>
        <time>2022-12-31 09:20:28</time>
      </trkpt>
      <trkpt lat="39.99285" lon="-3.90441">
        <ele>576.4</ele>
        <time>2022-12-31 09:20:29</time>
      </trkpt>
      <trkpt lat="39.99288" lon="-3.90442">
        <ele>575.8</ele>
        <time>2022-12-31 09:20:30</time>
      </trkpt>
      <trkpt lat="39.99291" lon="-3.90443">
        <ele>575.4</ele>
        <time>2022-12-31 09:20:31</time>
      </trkpt>
      <trkpt lat="39.99293" lon="-3.90446">
        <ele>575.2</ele>
        <time>2022-12-31 09:20:32</time>
      </trkpt>
      <trkpt lat="39.99294" lon="-3.9045">
        <ele>574.6</ele>
        <time>2022-12-31 09:20:33</time>
      </trkpt>
      <trkpt lat="39.99295" lon="-3.90455">
        <ele>574.6</ele>
        <time>2022-12-31 09:20:34</time>
      </trkpt>
      <trkpt lat="39.99296" lon="-3.9046">
        <ele>573.8</ele>
        <time>2022-12-31 09:20:35</time>
      </trkpt>
      <trkpt lat="39.99295" lon="-3.90466">
        <ele>573.4</ele>
        <time>2022-12-31 09:20:36</time>
      </trkpt>
      <trkpt lat="39.99295" lon="-3.90473">
        <ele>573</ele>
        <time>2022-12-31 09:20:37</time>
      </trkpt>
      <trkpt lat="39.99294" lon="-3.90479">
        <ele>572.8</ele>
        <time>2022-12-31 09:20:38</time>
      </trkpt>
      <trkpt lat="39.99292" lon="-3.90485">
        <ele>572.4</ele>
        <time>2022-12-31 09:20:39</time>
      </trkpt>
      <trkpt lat="39.99292" lon="-3.90491">
        <ele>572</ele>
        <time>2022-12-31 09:20:40</time>
      </trkpt>
      <trkpt lat="39.99293" lon="-3.90495">
        <ele>571.4</ele>
        <time>2022-12-31 09:20:41</time>
      </trkpt>
      <trkpt lat="39.99296" lon="-3.90499">
        <ele>571.2</ele>
        <time>2022-12-31 09:20:42</time>
      </trkpt>
      <trkpt lat="39.99299" lon="-3.90501">
        <ele>570.6</ele>
        <time>2022-12-31 09:20:43</time>
      </trkpt>
      <trkpt lat="39.99302" lon="-3.905">
        <ele>570.2</ele>
        <time>2022-12-31 09:20:44</time>
      </trkpt>
      <trkpt lat="39.99306" lon="-3.90498">
        <ele>569.8</ele>
        <time>2022-12-31 09:20:45</time>
      </trkpt>
      <trkpt lat="39.9931" lon="-3.90495">
        <ele>569.4</ele>
        <time>2022-12-31 09:20:46</time>
      </trkpt>
      <trkpt lat="39.99315" lon="-3.90491">
        <ele>568.6</ele>
        <time>2022-12-31 09:20:47</time>
      </trkpt>
      <trkpt lat="39.99319" lon="-3.90487">
        <ele>567.8</ele>
        <time>2022-12-31 09:20:48</time>
      </trkpt>
      <trkpt lat="39.99324" lon="-3.90483">
        <ele>567.2</ele>
        <time>2022-12-31 09:20:49</time>
      </trkpt>
      <trkpt lat="39.99329" lon="-3.90479">
        <ele>566.8</ele>
        <time>2022-12-31 09:20:50</time>
      </trkpt>
      <trkpt lat="39.99334" lon="-3.90475">
        <ele>566.4</ele>
        <time>2022-12-31 09:20:51</time>
      </trkpt>
      <trkpt lat="39.99338" lon="-3.90471">
        <ele>565.8</ele>
        <time>2022-12-31 09:20:52</time>
      </trkpt>
      <trkpt lat="39.99343" lon="-3.90465">
        <ele>565.6</ele>
        <time>2022-12-31 09:20:53</time>
      </trkpt>
      <trkpt lat="39.99347" lon="-3.9046">
        <ele>565.6</ele>
        <time>2022-12-31 09:20:54</time>
      </trkpt>
      <trkpt lat="39.99351" lon="-3.90455">
        <ele>565.2</ele>
        <time>2022-12-31 09:20:55</time>
      </trkpt>
      <trkpt lat="39.99356" lon="-3.9045">
        <ele>564.8</ele>
        <time>2022-12-31 09:20:56</time>
      </trkpt>
      <trkpt lat="39.9936" lon="-3.90445">
        <ele>564.6</ele>
        <time>2022-12-31 09:20:57</time>
      </trkpt>
      <trkpt lat="39.99364" lon="-3.90441">
        <ele>563.8</ele>
        <time>2022-12-31 09:20:58</time>
      </trkpt>
      <trkpt lat="39.99369" lon="-3.90437">
        <ele>563.6</ele>
        <time>2022-12-31 09:20:59</time>
      </trkpt>
      <trkpt lat="39.99374" lon="-3.90434">
        <ele>563.4</ele>
        <time>2022-12-31 09:21:00</time>
      </trkpt>
      <trkpt lat="39.99379" lon="-3.9043">
        <ele>563.4</ele>
        <time>2022-12-31 09:21:01</time>
      </trkpt>
      <trkpt lat="39.99384" lon="-3.90426">
        <ele>563.2</ele>
        <time>2022-12-31 09:21:02</time>
      </trkpt>
      <trkpt lat="39.99389" lon="-3.90422">
        <ele>563.2</ele>
        <time>2022-12-31 09:21:03</time>
      </trkpt>
      <trkpt lat="39.99394" lon="-3.90418">
        <ele>563.2</ele>
        <time>2022-12-31 09:21:04</time>
      </trkpt>
      <trkpt lat="39.99398" lon="-3.90414">
        <ele>563.2</ele>
        <time>2022-12-31 09:21:05</time>
      </trkpt>
      <trkpt lat="39.99403" lon="-3.90409">
        <ele>563.2</ele>
        <time>2022-12-31 09:21:06</time>
      </trkpt>
      <trkpt lat="39.99407" lon="-3.90405">
        <ele>563.2</ele>
        <time>2022-12-31 09:21:07</time>
      </trkpt>
      <trkpt lat="39.99412" lon="-3.904">
        <ele>563.2</ele>
        <time>2022-12-31 09:21:08</time>
      </trkpt>
      <trkpt lat="39.99416" lon="-3.90396">
        <ele>563</ele>
        <time>2022-12-31 09:21:09</time>
      </trkpt>
      <trkpt lat="39.99421" lon="-3.90391">
        <ele>563</ele>
        <time>2022-12-31 09:21:10</time>
      </trkpt>
      <trkpt lat="39.99426" lon="-3.90387">
        <ele>562.8</ele>
        <time>2022-12-31 09:21:11</time>
      </trkpt>
      <trkpt lat="39.99431" lon="-3.90382">
        <ele>563</ele>
        <time>2022-12-31 09:21:12</time>
      </trkpt>
      <trkpt lat="39.99435" lon="-3.90377">
        <ele>562.8</ele>
        <time>2022-12-31 09:21:13</time>
      </trkpt>
      <trkpt lat="39.99439" lon="-3.90372">
        <ele>562.8</ele>
        <time>2022-12-31 09:21:14</time>
      </trkpt>
      <trkpt lat="39.99443" lon="-3.90367">
        <ele>562.6</ele>
        <time>2022-12-31 09:21:15</time>
      </trkpt>
      <trkpt lat="39.99447" lon="-3.90361">
        <ele>562.6</ele>
        <time>2022-12-31 09:21:16</time>
      </trkpt>
      <trkpt lat="39.99451" lon="-3.90355">
        <ele>562.8</ele>
        <time>2022-12-31 09:21:17</time>
      </trkpt>
      <trkpt lat="39.99454" lon="-3.9035">
        <ele>562.6</ele>
        <time>2022-12-31 09:21:18</time>
      </trkpt>
      <trkpt lat="39.99457" lon="-3.90344">
        <ele>562.6</ele>
        <time>2022-12-31 09:21:19</time>
      </trkpt>
      <trkpt lat="39.9946" lon="-3.90339">
        <ele>562.6</ele>
        <time>2022-12-31 09:21:20</time>
      </trkpt>
      <trkpt lat="39.99464" lon="-3.90333">
        <ele>562.6</ele>
        <time>2022-12-31 09:21:21</time>
      </trkpt>
      <trkpt lat="39.99467" lon="-3.90328">
        <ele>562.6</ele>
        <time>2022-12-31 09:21:22</time>
      </trkpt>
      <trkpt lat="39.99471" lon="-3.90322">
        <ele>562.6</ele>
        <time>2022-12-31 09:21:23</time>
      </trkpt>
      <trkpt lat="39.99475" lon="-3.90317">
        <ele>562.6</ele>
        <time>2022-12-31 09:21:24</time>
      </trkpt>
      <trkpt lat="39.99479" lon="-3.90312">
        <ele>562.4</ele>
        <time>2022-12-31 09:21:25</time>
      </trkpt>
      <trkpt lat="39.99484" lon="-3.90308">
        <ele>562.6</ele>
        <time>2022-12-31 09:21:26</time>
      </trkpt>
      <trkpt lat="39.99489" lon="-3.90303">
        <ele>562.6</ele>
        <time>2022-12-31 09:21:27</time>
      </trkpt>
      <trkpt lat="39.99494" lon="-3.90299">
        <ele>562.6</ele>
        <time>2022-12-31 09:21:28</time>
      </trkpt>
      <trkpt lat="39.99499" lon="-3.90294">
        <ele>562.6</ele>
        <time>2022-12-31 09:21:29</time>
      </trkpt>
      <trkpt lat="39.99503" lon="-3.90289">
        <ele>562.6</ele>
        <time>2022-12-31 09:21:30</time>
      </trkpt>
      <trkpt lat="39.99509" lon="-3.90284">
        <ele>562.4</ele>
        <time>2022-12-31 09:21:31</time>
      </trkpt>
      <trkpt lat="39.99514" lon="-3.90279">
        <ele>562.6</ele>
        <time>2022-12-31 09:21:32</time>
      </trkpt>
      <trkpt lat="39.99519" lon="-3.90275">
        <ele>562.4</ele>
        <time>2022-12-31 09:21:33</time>
      </trkpt>
      <trkpt lat="39.99524" lon="-3.9027">
        <ele>562.4</ele>
        <time>2022-12-31 09:21:34</time>
      </trkpt>
      <trkpt lat="39.99529" lon="-3.90266">
        <ele>562.4</ele>
        <time>2022-12-31 09:21:35</time>
      </trkpt>
      <trkpt lat="39.99534" lon="-3.90262">
        <ele>562.6</ele>
        <time>2022-12-31 09:21:36</time>
      </trkpt>
      <trkpt lat="39.99539" lon="-3.90258">
        <ele>562.4</ele>
        <time>2022-12-31 09:21:37</time>
      </trkpt>
      <trkpt lat="39.99543" lon="-3.90253">
        <ele>562.4</ele>
        <time>2022-12-31 09:21:38</time>
      </trkpt>
      <trkpt lat="39.99548" lon="-3.90249">
        <ele>562.4</ele>
        <time>2022-12-31 09:21:39</time>
      </trkpt>
      <trkpt lat="39.99553" lon="-3.90245">
        <ele>562.6</ele>
        <time>2022-12-31 09:21:40</time>
      </trkpt>
      <trkpt lat="39.99557" lon="-3.9024">
        <ele>562.6</ele>
        <time>2022-12-31 09:21:41</time>
      </trkpt>
      <trkpt lat="39.99562" lon="-3.90236">
        <ele>562.6</ele>
        <time>2022-12-31 09:21:42</time>
      </trkpt>
      <trkpt lat="39.99567" lon="-3.90232">
        <ele>562.4</ele>
        <time>2022-12-31 09:21:43</time>
      </trkpt>
      <trkpt lat="39.99573" lon="-3.90229">
        <ele>562.4</ele>
        <time>2022-12-31 09:21:44</time>
      </trkpt>
      <trkpt lat="39.99579" lon="-3.90227">
        <ele>562.4</ele>
        <time>2022-12-31 09:21:45</time>
      </trkpt>
      <trkpt lat="39.99584" lon="-3.90227">
        <ele>562.2</ele>
        <time>2022-12-31 09:21:46</time>
      </trkpt>
      <trkpt lat="39.99589" lon="-3.90227">
        <ele>562.2</ele>
        <time>2022-12-31 09:21:47</time>
      </trkpt>
      <trkpt lat="39.99594" lon="-3.90226">
        <ele>562.4</ele>
        <time>2022-12-31 09:21:48</time>
      </trkpt>
      <trkpt lat="39.99598" lon="-3.90225">
        <ele>562.4</ele>
        <time>2022-12-31 09:21:49</time>
      </trkpt>
      <trkpt lat="39.99603" lon="-3.90224">
        <ele>562.4</ele>
        <time>2022-12-31 09:21:50</time>
      </trkpt>
      <trkpt lat="39.99608" lon="-3.90222">
        <ele>562.4</ele>
        <time>2022-12-31 09:21:51</time>
      </trkpt>
      <trkpt lat="39.99613" lon="-3.90221">
        <ele>562.4</ele>
        <time>2022-12-31 09:21:52</time>
      </trkpt>
      <trkpt lat="39.99617" lon="-3.90218">
        <ele>562.4</ele>
        <time>2022-12-31 09:21:53</time>
      </trkpt>
      <trkpt lat="39.99621" lon="-3.90216">
        <ele>562.6</ele>
        <time>2022-12-31 09:21:54</time>
      </trkpt>
      <trkpt lat="39.99626" lon="-3.90213">
        <ele>562.6</ele>
        <time>2022-12-31 09:21:55</time>
      </trkpt>
      <trkpt lat="39.9963" lon="-3.9021">
        <ele>563</ele>
        <time>2022-12-31 09:21:56</time>
      </trkpt>
      <trkpt lat="39.99634" lon="-3.90207">
        <ele>563.2</ele>
        <time>2022-12-31 09:21:57</time>
      </trkpt>
      <trkpt lat="39.99638" lon="-3.90204">
        <ele>563.4</ele>
        <time>2022-12-31 09:21:58</time>
      </trkpt>
      <trkpt lat="39.99642" lon="-3.90202">
        <ele>563.4</ele>
        <time>2022-12-31 09:21:59</time>
      </trkpt>
      <trkpt lat="39.99646" lon="-3.90199">
        <ele>563.6</ele>
        <time>2022-12-31 09:22:00</time>
      </trkpt>
      <trkpt lat="39.9965" lon="-3.90195">
        <ele>563.6</ele>
        <time>2022-12-31 09:22:01</time>
      </trkpt>
      <trkpt lat="39.99653" lon="-3.90192">
        <ele>563.8</ele>
        <time>2022-12-31 09:22:02</time>
      </trkpt>
      <trkpt lat="39.99657" lon="-3.90189">
        <ele>564</ele>
        <time>2022-12-31 09:22:03</time>
      </trkpt>
      <trkpt lat="39.9966" lon="-3.90186">
        <ele>564</ele>
        <time>2022-12-31 09:22:04</time>
      </trkpt>
      <trkpt lat="39.99664" lon="-3.90183">
        <ele>564</ele>
        <time>2022-12-31 09:22:05</time>
      </trkpt>
      <trkpt lat="39.99667" lon="-3.9018">
        <ele>564</ele>
        <time>2022-12-31 09:22:06</time>
      </trkpt>
      <trkpt lat="39.99671" lon="-3.90177">
        <ele>564.2</ele>
        <time>2022-12-31 09:22:07</time>
      </trkpt>
      <trkpt lat="39.99674" lon="-3.90174">
        <ele>564.4</ele>
        <time>2022-12-31 09:22:08</time>
      </trkpt>
      <trkpt lat="39.99677" lon="-3.9017">
        <ele>564.4</ele>
        <time>2022-12-31 09:22:09</time>
      </trkpt>
      <trkpt lat="39.99681" lon="-3.90167">
        <ele>564.6</ele>
        <time>2022-12-31 09:22:10</time>
      </trkpt>
      <trkpt lat="39.99684" lon="-3.90164">
        <ele>564.6</ele>
        <time>2022-12-31 09:22:11</time>
      </trkpt>
      <trkpt lat="39.99687" lon="-3.9016">
        <ele>565</ele>
        <time>2022-12-31 09:22:12</time>
      </trkpt>
      <trkpt lat="39.9969" lon="-3.90157">
        <ele>565</ele>
        <time>2022-12-31 09:22:13</time>
      </trkpt>
      <trkpt lat="39.99693" lon="-3.90153">
        <ele>565.2</ele>
        <time>2022-12-31 09:22:14</time>
      </trkpt>
      <trkpt lat="39.99696" lon="-3.9015">
        <ele>565.4</ele>
        <time>2022-12-31 09:22:15</time>
      </trkpt>
      <trkpt lat="39.99699" lon="-3.90146">
        <ele>565.8</ele>
        <time>2022-12-31 09:22:16</time>
      </trkpt>
      <trkpt lat="39.99702" lon="-3.90142">
        <ele>565.8</ele>
        <time>2022-12-31 09:22:17</time>
      </trkpt>
      <trkpt lat="39.99704" lon="-3.90138">
        <ele>566</ele>
        <time>2022-12-31 09:22:18</time>
      </trkpt>
      <trkpt lat="39.99707" lon="-3.90134">
        <ele>566.2</ele>
        <time>2022-12-31 09:22:19</time>
      </trkpt>
      <trkpt lat="39.99709" lon="-3.9013">
        <ele>566.4</ele>
        <time>2022-12-31 09:22:20</time>
      </trkpt>
      <trkpt lat="39.99712" lon="-3.90126">
        <ele>566.6</ele>
        <time>2022-12-31 09:22:21</time>
      </trkpt>
      <trkpt lat="39.99714" lon="-3.90122">
        <ele>566.6</ele>
        <time>2022-12-31 09:22:22</time>
      </trkpt>
      <trkpt lat="39.99717" lon="-3.90118">
        <ele>567</ele>
        <time>2022-12-31 09:22:23</time>
      </trkpt>
      <trkpt lat="39.9972" lon="-3.90114">
        <ele>567</ele>
        <time>2022-12-31 09:22:24</time>
      </trkpt>
      <trkpt lat="39.99723" lon="-3.9011">
        <ele>567.2</ele>
        <time>2022-12-31 09:22:25</time>
      </trkpt>
      <trkpt lat="39.99726" lon="-3.90106">
        <ele>567.4</ele>
        <time>2022-12-31 09:22:26</time>
      </trkpt>
      <trkpt lat="39.99729" lon="-3.90102">
        <ele>567.8</ele>
        <time>2022-12-31 09:22:27</time>
      </trkpt>
      <trkpt lat="39.99733" lon="-3.90099">
        <ele>568</ele>
        <time>2022-12-31 09:22:28</time>
      </trkpt>
      <trkpt lat="39.99737" lon="-3.90095">
        <ele>568</ele>
        <time>2022-12-31 09:22:29</time>
      </trkpt>
      <trkpt lat="39.99741" lon="-3.90092">
        <ele>568.4</ele>
        <time>2022-12-31 09:22:30</time>
      </trkpt>
      <trkpt lat="39.99744" lon="-3.90089">
        <ele>568.2</ele>
        <time>2022-12-31 09:22:31</time>
      </trkpt>
      <trkpt lat="39.99748" lon="-3.90086">
        <ele>568.4</ele>
        <time>2022-12-31 09:22:32</time>
      </trkpt>
      <trkpt lat="39.99752" lon="-3.90082">
        <ele>568.6</ele>
        <time>2022-12-31 09:22:33</time>
      </trkpt>
      <trkpt lat="39.99755" lon="-3.90079">
        <ele>568.6</ele>
        <time>2022-12-31 09:22:34</time>
      </trkpt>
      <trkpt lat="39.99759" lon="-3.90075">
        <ele>568.8</ele>
        <time>2022-12-31 09:22:35</time>
      </trkpt>
      <trkpt lat="39.99763" lon="-3.90072">
        <ele>568.8</ele>
        <time>2022-12-31 09:22:36</time>
      </trkpt>
      <trkpt lat="39.99766" lon="-3.90069">
        <ele>568.8</ele>
        <time>2022-12-31 09:22:37</time>
      </trkpt>
      <trkpt lat="39.99769" lon="-3.90066">
        <ele>569</ele>
        <time>2022-12-31 09:22:38</time>
      </trkpt>
      <trkpt lat="39.99773" lon="-3.90062">
        <ele>569</ele>
        <time>2022-12-31 09:22:39</time>
      </trkpt>
      <trkpt lat="39.99776" lon="-3.90059">
        <ele>569</ele>
        <time>2022-12-31 09:22:40</time>
      </trkpt>
      <trkpt lat="39.99779" lon="-3.90055">
        <ele>569.2</ele>
        <time>2022-12-31 09:22:41</time>
      </trkpt>
      <trkpt lat="39.99783" lon="-3.90051">
        <ele>569.2</ele>
        <time>2022-12-31 09:22:42</time>
      </trkpt>
      <trkpt lat="39.99786" lon="-3.90047">
        <ele>569.2</ele>
        <time>2022-12-31 09:22:43</time>
      </trkpt>
      <trkpt lat="39.9979" lon="-3.90044">
        <ele>569.4</ele>
        <time>2022-12-31 09:22:44</time>
      </trkpt>
      <trkpt lat="39.99794" lon="-3.9004">
        <ele>569.4</ele>
        <time>2022-12-31 09:22:45</time>
      </trkpt>
      <trkpt lat="39.99797" lon="-3.90037">
        <ele>569.6</ele>
        <time>2022-12-31 09:22:46</time>
      </trkpt>
      <trkpt lat="39.99801" lon="-3.90034">
        <ele>569.4</ele>
        <time>2022-12-31 09:22:47</time>
      </trkpt>
      <trkpt lat="39.99806" lon="-3.90031">
        <ele>569.6</ele>
        <time>2022-12-31 09:22:48</time>
      </trkpt>
      <trkpt lat="39.99809" lon="-3.90028">
        <ele>569.8</ele>
        <time>2022-12-31 09:22:49</time>
      </trkpt>
      <trkpt lat="39.99813" lon="-3.90025">
        <ele>570</ele>
        <time>2022-12-31 09:22:50</time>
      </trkpt>
      <trkpt lat="39.99817" lon="-3.90022">
        <ele>570</ele>
        <time>2022-12-31 09:22:51</time>
      </trkpt>
      <trkpt lat="39.99821" lon="-3.90018">
        <ele>570.2</ele>
        <time>2022-12-31 09:22:52</time>
      </trkpt>
      <trkpt lat="39.99825" lon="-3.90014">
        <ele>570.2</ele>
        <time>2022-12-31 09:22:53</time>
      </trkpt>
      <trkpt lat="39.99829" lon="-3.9001">
        <ele>570</ele>
        <time>2022-12-31 09:22:54</time>
      </trkpt>
      <trkpt lat="39.99833" lon="-3.90006">
        <ele>570.2</ele>
        <time>2022-12-31 09:22:55</time>
      </trkpt>
      <trkpt lat="39.99837" lon="-3.90001">
        <ele>570.2</ele>
        <time>2022-12-31 09:22:56</time>
      </trkpt>
      <trkpt lat="39.99841" lon="-3.89995">
        <ele>570.2</ele>
        <time>2022-12-31 09:22:57</time>
      </trkpt>
      <trkpt lat="39.99846" lon="-3.89989">
        <ele>570.2</ele>
        <time>2022-12-31 09:22:58</time>
      </trkpt>
      <trkpt lat="39.99849" lon="-3.89983">
        <ele>570.2</ele>
        <time>2022-12-31 09:22:59</time>
      </trkpt>
      <trkpt lat="39.99853" lon="-3.89976">
        <ele>570.2</ele>
        <time>2022-12-31 09:23:00</time>
      </trkpt>
      <trkpt lat="39.99857" lon="-3.89969">
        <ele>570.2</ele>
        <time>2022-12-31 09:23:01</time>
      </trkpt>
      <trkpt lat="39.99861" lon="-3.89963">
        <ele>570.2</ele>
        <time>2022-12-31 09:23:02</time>
      </trkpt>
      <trkpt lat="39.99865" lon="-3.89956">
        <ele>569.8</ele>
        <time>2022-12-31 09:23:03</time>
      </trkpt>
      <trkpt lat="39.99869" lon="-3.89949">
        <ele>569.4</ele>
        <time>2022-12-31 09:23:04</time>
      </trkpt>
      <trkpt lat="39.99873" lon="-3.89943">
        <ele>569</ele>
        <time>2022-12-31 09:23:05</time>
      </trkpt>
      <trkpt lat="39.99876" lon="-3.89936">
        <ele>568.8</ele>
        <time>2022-12-31 09:23:06</time>
      </trkpt>
      <trkpt lat="39.9988" lon="-3.8993">
        <ele>568.4</ele>
        <time>2022-12-31 09:23:07</time>
      </trkpt>
      <trkpt lat="39.99884" lon="-3.89924">
        <ele>568.2</ele>
        <time>2022-12-31 09:23:08</time>
      </trkpt>
      <trkpt lat="39.99888" lon="-3.89917">
        <ele>567.8</ele>
        <time>2022-12-31 09:23:09</time>
      </trkpt>
      <trkpt lat="39.99892" lon="-3.89911">
        <ele>567.4</ele>
        <time>2022-12-31 09:23:10</time>
      </trkpt>
      <trkpt lat="39.99896" lon="-3.89904">
        <ele>567.2</ele>
        <time>2022-12-31 09:23:11</time>
      </trkpt>
      <trkpt lat="39.999" lon="-3.89897">
        <ele>567</ele>
        <time>2022-12-31 09:23:12</time>
      </trkpt>
      <trkpt lat="39.99904" lon="-3.8989">
        <ele>567</ele>
        <time>2022-12-31 09:23:13</time>
      </trkpt>
      <trkpt lat="39.99908" lon="-3.89883">
        <ele>567</ele>
        <time>2022-12-31 09:23:14</time>
      </trkpt>
      <trkpt lat="39.99912" lon="-3.89876">
        <ele>566.8</ele>
        <time>2022-12-31 09:23:15</time>
      </trkpt>
      <trkpt lat="39.99916" lon="-3.89869">
        <ele>566.8</ele>
        <time>2022-12-31 09:23:16</time>
      </trkpt>
      <trkpt lat="39.9992" lon="-3.89862">
        <ele>566.6</ele>
        <time>2022-12-31 09:23:17</time>
      </trkpt>
      <trkpt lat="39.99923" lon="-3.89855">
        <ele>566.6</ele>
        <time>2022-12-31 09:23:18</time>
      </trkpt>
      <trkpt lat="39.99926" lon="-3.89848">
        <ele>566.4</ele>
        <time>2022-12-31 09:23:19</time>
      </trkpt>
      <trkpt lat="39.99928" lon="-3.8984">
        <ele>566</ele>
        <time>2022-12-31 09:23:20</time>
      </trkpt>
      <trkpt lat="39.9993" lon="-3.89834">
        <ele>565.6</ele>
        <time>2022-12-31 09:23:21</time>
      </trkpt>
      <trkpt lat="39.99931" lon="-3.89828">
        <ele>565.4</ele>
        <time>2022-12-31 09:23:22</time>
      </trkpt>
      <trkpt lat="39.9993" lon="-3.89822">
        <ele>565.2</ele>
        <time>2022-12-31 09:23:23</time>
      </trkpt>
      <trkpt lat="39.9993" lon="-3.89816">
        <ele>565</ele>
        <time>2022-12-31 09:23:24</time>
      </trkpt>
      <trkpt lat="39.99931" lon="-3.89812">
        <ele>565</ele>
        <time>2022-12-31 09:23:25</time>
      </trkpt>
      <trkpt lat="39.99933" lon="-3.89808">
        <ele>565</ele>
        <time>2022-12-31 09:23:26</time>
      </trkpt>
      <trkpt lat="39.99937" lon="-3.89805">
        <ele>564.8</ele>
        <time>2022-12-31 09:23:27</time>
      </trkpt>
      <trkpt lat="39.99941" lon="-3.89802">
        <ele>564.8</ele>
        <time>2022-12-31 09:23:28</time>
      </trkpt>
      <trkpt lat="39.99946" lon="-3.898">
        <ele>565</ele>
        <time>2022-12-31 09:23:29</time>
      </trkpt>
      <trkpt lat="39.99951" lon="-3.89798">
        <ele>565</ele>
        <time>2022-12-31 09:23:30</time>
      </trkpt>
      <trkpt lat="39.99956" lon="-3.89796">
        <ele>564.8</ele>
        <time>2022-12-31 09:23:31</time>
      </trkpt>
      <trkpt lat="39.99961" lon="-3.89794">
        <ele>564.8</ele>
        <time>2022-12-31 09:23:32</time>
      </trkpt>
      <trkpt lat="39.99967" lon="-3.89792">
        <ele>564.8</ele>
        <time>2022-12-31 09:23:33</time>
      </trkpt>
      <trkpt lat="39.99972" lon="-3.89791">
        <ele>564.8</ele>
        <time>2022-12-31 09:23:34</time>
      </trkpt>
      <trkpt lat="39.99978" lon="-3.89789">
        <ele>564.6</ele>
        <time>2022-12-31 09:23:35</time>
      </trkpt>
      <trkpt lat="39.99983" lon="-3.89787">
        <ele>564.6</ele>
        <time>2022-12-31 09:23:36</time>
      </trkpt>
      <trkpt lat="39.99988" lon="-3.89785">
        <ele>564.6</ele>
        <time>2022-12-31 09:23:37</time>
      </trkpt>
      <trkpt lat="39.99994" lon="-3.89784">
        <ele>564.6</ele>
        <time>2022-12-31 09:23:38</time>
      </trkpt>
      <trkpt lat="39.99999" lon="-3.89782">
        <ele>564.6</ele>
        <time>2022-12-31 09:23:39</time>
      </trkpt>
      <trkpt lat="40.00004" lon="-3.8978">
        <ele>564.6</ele>
        <time>2022-12-31 09:23:40</time>
      </trkpt>
      <trkpt lat="40.00009" lon="-3.89777">
        <ele>564.8</ele>
        <time>2022-12-31 09:23:41</time>
      </trkpt>
      <trkpt lat="40.00013" lon="-3.89775">
        <ele>564.8</ele>
        <time>2022-12-31 09:23:42</time>
      </trkpt>
      <trkpt lat="40.00018" lon="-3.89772">
        <ele>564.8</ele>
        <time>2022-12-31 09:23:43</time>
      </trkpt>
      <trkpt lat="40.00023" lon="-3.8977">
        <ele>564.8</ele>
        <time>2022-12-31 09:23:44</time>
      </trkpt>
      <trkpt lat="40.00028" lon="-3.89767">
        <ele>564.8</ele>
        <time>2022-12-31 09:23:45</time>
      </trkpt>
      <trkpt lat="40.00032" lon="-3.89763">
        <ele>564.8</ele>
        <time>2022-12-31 09:23:46</time>
      </trkpt>
      <trkpt lat="40.00036" lon="-3.89759">
        <ele>565</ele>
        <time>2022-12-31 09:23:47</time>
      </trkpt>
      <trkpt lat="40.0004" lon="-3.89755">
        <ele>564.8</ele>
        <time>2022-12-31 09:23:48</time>
      </trkpt>
      <trkpt lat="40.00044" lon="-3.8975">
        <ele>564.8</ele>
        <time>2022-12-31 09:23:49</time>
      </trkpt>
      <trkpt lat="40.00047" lon="-3.89745">
        <ele>565</ele>
        <time>2022-12-31 09:23:50</time>
      </trkpt>
      <trkpt lat="40.0005" lon="-3.8974">
        <ele>565.2</ele>
        <time>2022-12-31 09:23:51</time>
      </trkpt>
      <trkpt lat="40.00053" lon="-3.89734">
        <ele>565.2</ele>
        <time>2022-12-31 09:23:52</time>
      </trkpt>
      <trkpt lat="40.00056" lon="-3.89729">
        <ele>565.2</ele>
        <time>2022-12-31 09:23:53</time>
      </trkpt>
      <trkpt lat="40.00058" lon="-3.89722">
        <ele>565.4</ele>
        <time>2022-12-31 09:23:54</time>
      </trkpt>
      <trkpt lat="40.00061" lon="-3.89716">
        <ele>565.6</ele>
        <time>2022-12-31 09:23:55</time>
      </trkpt>
      <trkpt lat="40.00064" lon="-3.89709">
        <ele>565.8</ele>
        <time>2022-12-31 09:23:56</time>
      </trkpt>
      <trkpt lat="40.00066" lon="-3.89702">
        <ele>566</ele>
        <time>2022-12-31 09:23:57</time>
      </trkpt>
      <trkpt lat="40.00069" lon="-3.89695">
        <ele>566.2</ele>
        <time>2022-12-31 09:23:58</time>
      </trkpt>
      <trkpt lat="40.00071" lon="-3.89687">
        <ele>566</ele>
        <time>2022-12-31 09:23:59</time>
      </trkpt>
      <trkpt lat="40.00074" lon="-3.8968">
        <ele>566</ele>
        <time>2022-12-31 09:24:00</time>
      </trkpt>
      <trkpt lat="40.00077" lon="-3.89672">
        <ele>566</ele>
        <time>2022-12-31 09:24:01</time>
      </trkpt>
      <trkpt lat="40.00079" lon="-3.89664">
        <ele>566.2</ele>
        <time>2022-12-31 09:24:02</time>
      </trkpt>
      <trkpt lat="40.00081" lon="-3.89657">
        <ele>566</ele>
        <time>2022-12-31 09:24:03</time>
      </trkpt>
      <trkpt lat="40.00084" lon="-3.89649">
        <ele>566.2</ele>
        <time>2022-12-31 09:24:04</time>
      </trkpt>
      <trkpt lat="40.00086" lon="-3.89641">
        <ele>566.2</ele>
        <time>2022-12-31 09:24:05</time>
      </trkpt>
      <trkpt lat="40.00089" lon="-3.89634">
        <ele>566</ele>
        <time>2022-12-31 09:24:06</time>
      </trkpt>
      <trkpt lat="40.00091" lon="-3.89627">
        <ele>565.8</ele>
        <time>2022-12-31 09:24:07</time>
      </trkpt>
      <trkpt lat="40.00093" lon="-3.8962">
        <ele>565.4</ele>
        <time>2022-12-31 09:24:08</time>
      </trkpt>
      <trkpt lat="40.00096" lon="-3.89613">
        <ele>565</ele>
        <time>2022-12-31 09:24:09</time>
      </trkpt>
      <trkpt lat="40.00099" lon="-3.89606">
        <ele>564.6</ele>
        <time>2022-12-31 09:24:10</time>
      </trkpt>
      <trkpt lat="40.00101" lon="-3.89598">
        <ele>564.6</ele>
        <time>2022-12-31 09:24:11</time>
      </trkpt>
      <trkpt lat="40.00104" lon="-3.89591">
        <ele>564.2</ele>
        <time>2022-12-31 09:24:12</time>
      </trkpt>
      <trkpt lat="40.00107" lon="-3.89583">
        <ele>564</ele>
        <time>2022-12-31 09:24:13</time>
      </trkpt>
      <trkpt lat="40.00111" lon="-3.89575">
        <ele>564</ele>
        <time>2022-12-31 09:24:14</time>
      </trkpt>
      <trkpt lat="40.00114" lon="-3.89567">
        <ele>564</ele>
        <time>2022-12-31 09:24:15</time>
      </trkpt>
      <trkpt lat="40.00118" lon="-3.89559">
        <ele>564</ele>
        <time>2022-12-31 09:24:16</time>
      </trkpt>
      <trkpt lat="40.00123" lon="-3.89551">
        <ele>563.6</ele>
        <time>2022-12-31 09:24:17</time>
      </trkpt>
      <trkpt lat="40.00127" lon="-3.89543">
        <ele>563.6</ele>
        <time>2022-12-31 09:24:18</time>
      </trkpt>
      <trkpt lat="40.00132" lon="-3.89536">
        <ele>563.6</ele>
        <time>2022-12-31 09:24:19</time>
      </trkpt>
      <trkpt lat="40.00137" lon="-3.89529">
        <ele>563.4</ele>
        <time>2022-12-31 09:24:20</time>
      </trkpt>
      <trkpt lat="40.00143" lon="-3.89522">
        <ele>563</ele>
        <time>2022-12-31 09:24:21</time>
      </trkpt>
      <trkpt lat="40.00149" lon="-3.89516">
        <ele>562.6</ele>
        <time>2022-12-31 09:24:22</time>
      </trkpt>
      <trkpt lat="40.00156" lon="-3.89512">
        <ele>562</ele>
        <time>2022-12-31 09:24:23</time>
      </trkpt>
      <trkpt lat="40.00163" lon="-3.89508">
        <ele>561.4</ele>
        <time>2022-12-31 09:24:24</time>
      </trkpt>
      <trkpt lat="40.0017" lon="-3.89504">
        <ele>561</ele>
        <time>2022-12-31 09:24:25</time>
      </trkpt>
      <trkpt lat="40.00177" lon="-3.895">
        <ele>560.6</ele>
        <time>2022-12-31 09:24:26</time>
      </trkpt>
      <trkpt lat="40.00183" lon="-3.89496">
        <ele>560</ele>
        <time>2022-12-31 09:24:27</time>
      </trkpt>
      <trkpt lat="40.0019" lon="-3.89492">
        <ele>559.6</ele>
        <time>2022-12-31 09:24:28</time>
      </trkpt>
      <trkpt lat="40.00196" lon="-3.89489">
        <ele>559.2</ele>
        <time>2022-12-31 09:24:29</time>
      </trkpt>
      <trkpt lat="40.00202" lon="-3.89485">
        <ele>558.8</ele>
        <time>2022-12-31 09:24:30</time>
      </trkpt>
      <trkpt lat="40.00208" lon="-3.8948">
        <ele>558.4</ele>
        <time>2022-12-31 09:24:31</time>
      </trkpt>
      <trkpt lat="40.00214" lon="-3.89475">
        <ele>558.4</ele>
        <time>2022-12-31 09:24:32</time>
      </trkpt>
      <trkpt lat="40.00219" lon="-3.8947">
        <ele>558.2</ele>
        <time>2022-12-31 09:24:33</time>
      </trkpt>
      <trkpt lat="40.00224" lon="-3.89465">
        <ele>558.2</ele>
        <time>2022-12-31 09:24:34</time>
      </trkpt>
      <trkpt lat="40.00229" lon="-3.89459">
        <ele>558.2</ele>
        <time>2022-12-31 09:24:35</time>
      </trkpt>
      <trkpt lat="40.00234" lon="-3.89453">
        <ele>557.8</ele>
        <time>2022-12-31 09:24:36</time>
      </trkpt>
      <trkpt lat="40.00239" lon="-3.89447">
        <ele>557.6</ele>
        <time>2022-12-31 09:24:37</time>
      </trkpt>
      <trkpt lat="40.00244" lon="-3.89441">
        <ele>557.4</ele>
        <time>2022-12-31 09:24:38</time>
      </trkpt>
      <trkpt lat="40.00248" lon="-3.89436">
        <ele>557.2</ele>
        <time>2022-12-31 09:24:39</time>
      </trkpt>
      <trkpt lat="40.00253" lon="-3.89431">
        <ele>556.8</ele>
        <time>2022-12-31 09:24:40</time>
      </trkpt>
      <trkpt lat="40.00256" lon="-3.89426">
        <ele>556.4</ele>
        <time>2022-12-31 09:24:41</time>
      </trkpt>
      <trkpt lat="40.00257" lon="-3.89421">
        <ele>555.6</ele>
        <time>2022-12-31 09:24:42</time>
      </trkpt>
      <trkpt lat="40.00257" lon="-3.89417">
        <ele>555.2</ele>
        <time>2022-12-31 09:24:43</time>
      </trkpt>
      <trkpt lat="40.00256" lon="-3.89413">
        <ele>555</ele>
        <time>2022-12-31 09:24:44</time>
      </trkpt>
      <trkpt lat="40.00254" lon="-3.89412">
        <ele>554.8</ele>
        <time>2022-12-31 09:24:45</time>
      </trkpt>
      <trkpt lat="40.00251" lon="-3.89412">
        <ele>554.6</ele>
        <time>2022-12-31 09:24:46</time>
      </trkpt>
      <trkpt lat="40.00247" lon="-3.89414">
        <ele>554.8</ele>
        <time>2022-12-31 09:24:47</time>
      </trkpt>
      <trkpt lat="40.00242" lon="-3.89416">
        <ele>554.8</ele>
        <time>2022-12-31 09:24:48</time>
      </trkpt>
      <trkpt lat="40.00238" lon="-3.89418">
        <ele>554.6</ele>
        <time>2022-12-31 09:24:49</time>
      </trkpt>
      <trkpt lat="40.00233" lon="-3.89419">
        <ele>554.6</ele>
        <time>2022-12-31 09:24:50</time>
      </trkpt>
      <trkpt lat="40.00229" lon="-3.89421">
        <ele>554.8</ele>
        <time>2022-12-31 09:24:51</time>
      </trkpt>
      <trkpt lat="40.00225" lon="-3.89423">
        <ele>554.6</ele>
        <time>2022-12-31 09:24:52</time>
      </trkpt>
      <trkpt lat="40.00221" lon="-3.89423">
        <ele>554.6</ele>
        <time>2022-12-31 09:24:53</time>
      </trkpt>
      <trkpt lat="40.00217" lon="-3.89423">
        <ele>554.6</ele>
        <time>2022-12-31 09:24:54</time>
      </trkpt>
      <trkpt lat="40.00213" lon="-3.89421">
        <ele>554.8</ele>
        <time>2022-12-31 09:24:55</time>
      </trkpt>
      <trkpt lat="40.0021" lon="-3.89417">
        <ele>555</ele>
        <time>2022-12-31 09:24:56</time>
      </trkpt>
      <trkpt lat="40.00208" lon="-3.89412">
        <ele>555.2</ele>
        <time>2022-12-31 09:24:57</time>
      </trkpt>
      <trkpt lat="40.00207" lon="-3.89406">
        <ele>555.4</ele>
        <time>2022-12-31 09:24:58</time>
      </trkpt>
      <trkpt lat="40.00207" lon="-3.894">
        <ele>555.4</ele>
        <time>2022-12-31 09:24:59</time>
      </trkpt>
      <trkpt lat="40.00208" lon="-3.89395">
        <ele>555.6</ele>
        <time>2022-12-31 09:25:00</time>
      </trkpt>
      <trkpt lat="40.00209" lon="-3.89389">
        <ele>555.6</ele>
        <time>2022-12-31 09:25:01</time>
      </trkpt>
      <trkpt lat="40.00211" lon="-3.89383">
        <ele>555.6</ele>
        <time>2022-12-31 09:25:02</time>
      </trkpt>
      <trkpt lat="40.00212" lon="-3.89376">
        <ele>555.6</ele>
        <time>2022-12-31 09:25:03</time>
      </trkpt>
      <trkpt lat="40.00214" lon="-3.89368">
        <ele>555.8</ele>
        <time>2022-12-31 09:25:04</time>
      </trkpt>
      <trkpt lat="40.00216" lon="-3.89361">
        <ele>555.8</ele>
        <time>2022-12-31 09:25:05</time>
      </trkpt>
      <trkpt lat="40.00217" lon="-3.89353">
        <ele>555.6</ele>
        <time>2022-12-31 09:25:06</time>
      </trkpt>
      <trkpt lat="40.00219" lon="-3.89345">
        <ele>555.6</ele>
        <time>2022-12-31 09:25:07</time>
      </trkpt>
      <trkpt lat="40.00221" lon="-3.89336">
        <ele>555.4</ele>
        <time>2022-12-31 09:25:08</time>
      </trkpt>
      <trkpt lat="40.00222" lon="-3.89328">
        <ele>555.4</ele>
        <time>2022-12-31 09:25:09</time>
      </trkpt>
      <trkpt lat="40.00224" lon="-3.89319">
        <ele>555.2</ele>
        <time>2022-12-31 09:25:10</time>
      </trkpt>
      <trkpt lat="40.00225" lon="-3.8931">
        <ele>554.8</ele>
        <time>2022-12-31 09:25:11</time>
      </trkpt>
      <trkpt lat="40.00227" lon="-3.89301">
        <ele>554.6</ele>
        <time>2022-12-31 09:25:12</time>
      </trkpt>
      <trkpt lat="40.00229" lon="-3.89291">
        <ele>554.6</ele>
        <time>2022-12-31 09:25:13</time>
      </trkpt>
      <trkpt lat="40.0023" lon="-3.89282">
        <ele>554.4</ele>
        <time>2022-12-31 09:25:14</time>
      </trkpt>
      <trkpt lat="40.00232" lon="-3.89273">
        <ele>553.8</ele>
        <time>2022-12-31 09:25:15</time>
      </trkpt>
      <trkpt lat="40.00234" lon="-3.89263">
        <ele>553.6</ele>
        <time>2022-12-31 09:25:16</time>
      </trkpt>
      <trkpt lat="40.00235" lon="-3.89253">
        <ele>553.4</ele>
        <time>2022-12-31 09:25:17</time>
      </trkpt>
      <trkpt lat="40.00237" lon="-3.89244">
        <ele>553</ele>
        <time>2022-12-31 09:25:18</time>
      </trkpt>
      <trkpt lat="40.00239" lon="-3.89234">
        <ele>552.8</ele>
        <time>2022-12-31 09:25:19</time>
      </trkpt>
      <trkpt lat="40.00241" lon="-3.89225">
        <ele>552.2</ele>
        <time>2022-12-31 09:25:20</time>
      </trkpt>
      <trkpt lat="40.00242" lon="-3.89215">
        <ele>551.6</ele>
        <time>2022-12-31 09:25:21</time>
      </trkpt>
      <trkpt lat="40.00244" lon="-3.89205">
        <ele>551.2</ele>
        <time>2022-12-31 09:25:22</time>
      </trkpt>
      <trkpt lat="40.00246" lon="-3.89195">
        <ele>551.2</ele>
        <time>2022-12-31 09:25:23</time>
      </trkpt>
      <trkpt lat="40.00247" lon="-3.89185">
        <ele>551</ele>
        <time>2022-12-31 09:25:24</time>
      </trkpt>
      <trkpt lat="40.00249" lon="-3.89175">
        <ele>550.8</ele>
        <time>2022-12-31 09:25:25</time>
      </trkpt>
      <trkpt lat="40.00251" lon="-3.89165">
        <ele>550.6</ele>
        <time>2022-12-31 09:25:26</time>
      </trkpt>
      <trkpt lat="40.00253" lon="-3.89155">
        <ele>550.2</ele>
        <time>2022-12-31 09:25:27</time>
      </trkpt>
      <trkpt lat="40.00254" lon="-3.89144">
        <ele>550</ele>
        <time>2022-12-31 09:25:28</time>
      </trkpt>
      <trkpt lat="40.00256" lon="-3.89134">
        <ele>549.8</ele>
        <time>2022-12-31 09:25:29</time>
      </trkpt>
      <trkpt lat="40.00258" lon="-3.89124">
        <ele>549.4</ele>
        <time>2022-12-31 09:25:30</time>
      </trkpt>
      <trkpt lat="40.0026" lon="-3.89113">
        <ele>549</ele>
        <time>2022-12-31 09:25:31</time>
      </trkpt>
      <trkpt lat="40.00262" lon="-3.89103">
        <ele>548.8</ele>
        <time>2022-12-31 09:25:32</time>
      </trkpt>
      <trkpt lat="40.00265" lon="-3.89093">
        <ele>548.8</ele>
        <time>2022-12-31 09:25:33</time>
      </trkpt>
      <trkpt lat="40.00268" lon="-3.89083">
        <ele>548.2</ele>
        <time>2022-12-31 09:25:34</time>
      </trkpt>
      <trkpt lat="40.00271" lon="-3.89074">
        <ele>547.8</ele>
        <time>2022-12-31 09:25:35</time>
      </trkpt>
      <trkpt lat="40.00275" lon="-3.89065">
        <ele>547.6</ele>
        <time>2022-12-31 09:25:36</time>
      </trkpt>
      <trkpt lat="40.00279" lon="-3.89056">
        <ele>547.4</ele>
        <time>2022-12-31 09:25:37</time>
      </trkpt>
      <trkpt lat="40.00284" lon="-3.89048">
        <ele>547</ele>
        <time>2022-12-31 09:25:38</time>
      </trkpt>
      <trkpt lat="40.00289" lon="-3.89039">
        <ele>547</ele>
        <time>2022-12-31 09:25:39</time>
      </trkpt>
      <trkpt lat="40.00293" lon="-3.89031">
        <ele>546.6</ele>
        <time>2022-12-31 09:25:40</time>
      </trkpt>
      <trkpt lat="40.00298" lon="-3.89022">
        <ele>546.4</ele>
        <time>2022-12-31 09:25:41</time>
      </trkpt>
      <trkpt lat="40.00303" lon="-3.89014">
        <ele>546.2</ele>
        <time>2022-12-31 09:25:42</time>
      </trkpt>
      <trkpt lat="40.00308" lon="-3.89005">
        <ele>545.8</ele>
        <time>2022-12-31 09:25:43</time>
      </trkpt>
      <trkpt lat="40.00313" lon="-3.88996">
        <ele>545.6</ele>
        <time>2022-12-31 09:25:44</time>
      </trkpt>
      <trkpt lat="40.00318" lon="-3.88988">
        <ele>545.4</ele>
        <time>2022-12-31 09:25:45</time>
      </trkpt>
      <trkpt lat="40.00323" lon="-3.88979">
        <ele>545.2</ele>
        <time>2022-12-31 09:25:46</time>
      </trkpt>
      <trkpt lat="40.00328" lon="-3.88971">
        <ele>544.6</ele>
        <time>2022-12-31 09:25:47</time>
      </trkpt>
      <trkpt lat="40.00333" lon="-3.88962">
        <ele>544.2</ele>
        <time>2022-12-31 09:25:48</time>
      </trkpt>
      <trkpt lat="40.00338" lon="-3.88954">
        <ele>544</ele>
        <time>2022-12-31 09:25:49</time>
      </trkpt>
      <trkpt lat="40.00343" lon="-3.88945">
        <ele>543.6</ele>
        <time>2022-12-31 09:25:50</time>
      </trkpt>
      <trkpt lat="40.00347" lon="-3.88937">
        <ele>543.4</ele>
        <time>2022-12-31 09:25:51</time>
      </trkpt>
      <trkpt lat="40.00352" lon="-3.88928">
        <ele>542.8</ele>
        <time>2022-12-31 09:25:52</time>
      </trkpt>
      <trkpt lat="40.00357" lon="-3.8892">
        <ele>542.8</ele>
        <time>2022-12-31 09:25:53</time>
      </trkpt>
      <trkpt lat="40.00362" lon="-3.88911">
        <ele>542.2</ele>
        <time>2022-12-31 09:25:54</time>
      </trkpt>
      <trkpt lat="40.00367" lon="-3.88903">
        <ele>542</ele>
        <time>2022-12-31 09:25:55</time>
      </trkpt>
      <trkpt lat="40.00371" lon="-3.88894">
        <ele>541.8</ele>
        <time>2022-12-31 09:25:56</time>
      </trkpt>
      <trkpt lat="40.00376" lon="-3.88886">
        <ele>541.4</ele>
        <time>2022-12-31 09:25:57</time>
      </trkpt>
      <trkpt lat="40.00381" lon="-3.88878">
        <ele>541</ele>
        <time>2022-12-31 09:25:58</time>
      </trkpt>
      <trkpt lat="40.00385" lon="-3.8887">
        <ele>540.6</ele>
        <time>2022-12-31 09:25:59</time>
      </trkpt>
      <trkpt lat="40.0039" lon="-3.88861">
        <ele>540.2</ele>
        <time>2022-12-31 09:26:00</time>
      </trkpt>
      <trkpt lat="40.00395" lon="-3.88853">
        <ele>540</ele>
        <time>2022-12-31 09:26:01</time>
      </trkpt>
      <trkpt lat="40.00399" lon="-3.88845">
        <ele>539.6</ele>
        <time>2022-12-31 09:26:02</time>
      </trkpt>
      <trkpt lat="40.00404" lon="-3.88836">
        <ele>539.6</ele>
        <time>2022-12-31 09:26:03</time>
      </trkpt>
      <trkpt lat="40.00409" lon="-3.88828">
        <ele>539.2</ele>
        <time>2022-12-31 09:26:04</time>
      </trkpt>
      <trkpt lat="40.00414" lon="-3.88819">
        <ele>539</ele>
        <time>2022-12-31 09:26:05</time>
      </trkpt>
      <trkpt lat="40.00419" lon="-3.88811">
        <ele>538.8</ele>
        <time>2022-12-31 09:26:06</time>
      </trkpt>
      <trkpt lat="40.00424" lon="-3.88802">
        <ele>538.6</ele>
        <time>2022-12-31 09:26:07</time>
      </trkpt>
      <trkpt lat="40.00429" lon="-3.88794">
        <ele>538.4</ele>
        <time>2022-12-31 09:26:08</time>
      </trkpt>
      <trkpt lat="40.00434" lon="-3.88786">
        <ele>538.2</ele>
        <time>2022-12-31 09:26:09</time>
      </trkpt>
      <trkpt lat="40.00439" lon="-3.88778">
        <ele>538</ele>
        <time>2022-12-31 09:26:10</time>
      </trkpt>
      <trkpt lat="40.00444" lon="-3.88769">
        <ele>537.6</ele>
        <time>2022-12-31 09:26:11</time>
      </trkpt>
      <trkpt lat="40.00449" lon="-3.88761">
        <ele>537.2</ele>
        <time>2022-12-31 09:26:12</time>
      </trkpt>
      <trkpt lat="40.00453" lon="-3.88752">
        <ele>537.2</ele>
        <time>2022-12-31 09:26:13</time>
      </trkpt>
      <trkpt lat="40.00457" lon="-3.88743">
        <ele>537.2</ele>
        <time>2022-12-31 09:26:14</time>
      </trkpt>
      <trkpt lat="40.00462" lon="-3.88734">
        <ele>536.8</ele>
        <time>2022-12-31 09:26:15</time>
      </trkpt>
      <trkpt lat="40.00467" lon="-3.88726">
        <ele>536.6</ele>
        <time>2022-12-31 09:26:16</time>
      </trkpt>
      <trkpt lat="40.00472" lon="-3.88718">
        <ele>536.2</ele>
        <time>2022-12-31 09:26:17</time>
      </trkpt>
      <trkpt lat="40.00477" lon="-3.8871">
        <ele>535.8</ele>
        <time>2022-12-31 09:26:18</time>
      </trkpt>
      <trkpt lat="40.00482" lon="-3.88702">
        <ele>535.4</ele>
        <time>2022-12-31 09:26:19</time>
      </trkpt>
      <trkpt lat="40.00488" lon="-3.88693">
        <ele>535</ele>
        <time>2022-12-31 09:26:20</time>
      </trkpt>
      <trkpt lat="40.00493" lon="-3.88685">
        <ele>534.8</ele>
        <time>2022-12-31 09:26:21</time>
      </trkpt>
      <trkpt lat="40.00498" lon="-3.88676">
        <ele>534.6</ele>
        <time>2022-12-31 09:26:22</time>
      </trkpt>
      <trkpt lat="40.00503" lon="-3.88667">
        <ele>534.2</ele>
        <time>2022-12-31 09:26:23</time>
      </trkpt>
      <trkpt lat="40.00508" lon="-3.88658">
        <ele>534.2</ele>
        <time>2022-12-31 09:26:24</time>
      </trkpt>
      <trkpt lat="40.00513" lon="-3.88649">
        <ele>533.8</ele>
        <time>2022-12-31 09:26:25</time>
      </trkpt>
      <trkpt lat="40.00518" lon="-3.8864">
        <ele>533.4</ele>
        <time>2022-12-31 09:26:26</time>
      </trkpt>
      <trkpt lat="40.00524" lon="-3.8863">
        <ele>533.2</ele>
        <time>2022-12-31 09:26:27</time>
      </trkpt>
      <trkpt lat="40.00529" lon="-3.88621">
        <ele>532.6</ele>
        <time>2022-12-31 09:26:28</time>
      </trkpt>
      <trkpt lat="40.00534" lon="-3.88612">
        <ele>532.4</ele>
        <time>2022-12-31 09:26:29</time>
      </trkpt>
      <trkpt lat="40.00539" lon="-3.88603">
        <ele>532.2</ele>
        <time>2022-12-31 09:26:30</time>
      </trkpt>
      <trkpt lat="40.00544" lon="-3.88594">
        <ele>531.6</ele>
        <time>2022-12-31 09:26:31</time>
      </trkpt>
      <trkpt lat="40.00549" lon="-3.88585">
        <ele>531.6</ele>
        <time>2022-12-31 09:26:32</time>
      </trkpt>
      <trkpt lat="40.00554" lon="-3.88576">
        <ele>530.8</ele>
        <time>2022-12-31 09:26:33</time>
      </trkpt>
      <trkpt lat="40.00559" lon="-3.88567">
        <ele>530.6</ele>
        <time>2022-12-31 09:26:34</time>
      </trkpt>
      <trkpt lat="40.00564" lon="-3.88558">
        <ele>530</ele>
        <time>2022-12-31 09:26:35</time>
      </trkpt>
      <trkpt lat="40.00568" lon="-3.8855">
        <ele>529.8</ele>
        <time>2022-12-31 09:26:36</time>
      </trkpt>
      <trkpt lat="40.00573" lon="-3.88541">
        <ele>529.4</ele>
        <time>2022-12-31 09:26:37</time>
      </trkpt>
      <trkpt lat="40.00578" lon="-3.88532">
        <ele>529</ele>
        <time>2022-12-31 09:26:38</time>
      </trkpt>
      <trkpt lat="40.00583" lon="-3.88524">
        <ele>528.6</ele>
        <time>2022-12-31 09:26:39</time>
      </trkpt>
      <trkpt lat="40.00588" lon="-3.88515">
        <ele>528.2</ele>
        <time>2022-12-31 09:26:40</time>
      </trkpt>
      <trkpt lat="40.00593" lon="-3.88506">
        <ele>527.6</ele>
        <time>2022-12-31 09:26:41</time>
      </trkpt>
      <trkpt lat="40.00598" lon="-3.88498">
        <ele>527.4</ele>
        <time>2022-12-31 09:26:42</time>
      </trkpt>
      <trkpt lat="40.00603" lon="-3.88489">
        <ele>527.2</ele>
        <time>2022-12-31 09:26:43</time>
      </trkpt>
      <trkpt lat="40.00607" lon="-3.88481">
        <ele>527</ele>
        <time>2022-12-31 09:26:44</time>
      </trkpt>
      <trkpt lat="40.00612" lon="-3.88472">
        <ele>526.8</ele>
        <time>2022-12-31 09:26:45</time>
      </trkpt>
      <trkpt lat="40.00616" lon="-3.88464">
        <ele>526.6</ele>
        <time>2022-12-31 09:26:46</time>
      </trkpt>
      <trkpt lat="40.00621" lon="-3.88455">
        <ele>526.6</ele>
        <time>2022-12-31 09:26:47</time>
      </trkpt>
      <trkpt lat="40.00625" lon="-3.88447">
        <ele>526.2</ele>
        <time>2022-12-31 09:26:48</time>
      </trkpt>
      <trkpt lat="40.0063" lon="-3.88438">
        <ele>526</ele>
        <time>2022-12-31 09:26:49</time>
      </trkpt>
      <trkpt lat="40.00635" lon="-3.8843">
        <ele>525.8</ele>
        <time>2022-12-31 09:26:50</time>
      </trkpt>
      <trkpt lat="40.0064" lon="-3.88422">
        <ele>525.6</ele>
        <time>2022-12-31 09:26:51</time>
      </trkpt>
      <trkpt lat="40.00644" lon="-3.88413">
        <ele>525.6</ele>
        <time>2022-12-31 09:26:52</time>
      </trkpt>
      <trkpt lat="40.00649" lon="-3.88405">
        <ele>525.4</ele>
        <time>2022-12-31 09:26:53</time>
      </trkpt>
      <trkpt lat="40.00653" lon="-3.88397">
        <ele>525.4</ele>
        <time>2022-12-31 09:26:54</time>
      </trkpt>
      <trkpt lat="40.00658" lon="-3.88389">
        <ele>525.2</ele>
        <time>2022-12-31 09:26:55</time>
      </trkpt>
      <trkpt lat="40.00663" lon="-3.8838">
        <ele>525</ele>
        <time>2022-12-31 09:26:56</time>
      </trkpt>
      <trkpt lat="40.00668" lon="-3.88372">
        <ele>524.8</ele>
        <time>2022-12-31 09:26:57</time>
      </trkpt>
      <trkpt lat="40.00672" lon="-3.88364">
        <ele>524.6</ele>
        <time>2022-12-31 09:26:58</time>
      </trkpt>
      <trkpt lat="40.00677" lon="-3.88356">
        <ele>524.6</ele>
        <time>2022-12-31 09:26:59</time>
      </trkpt>
      <trkpt lat="40.00682" lon="-3.88347">
        <ele>524.4</ele>
        <time>2022-12-31 09:27:00</time>
      </trkpt>
      <trkpt lat="40.00686" lon="-3.88339">
        <ele>524.2</ele>
        <time>2022-12-31 09:27:01</time>
      </trkpt>
      <trkpt lat="40.00691" lon="-3.8833">
        <ele>524</ele>
        <time>2022-12-31 09:27:02</time>
      </trkpt>
      <trkpt lat="40.00695" lon="-3.88322">
        <ele>524</ele>
        <time>2022-12-31 09:27:03</time>
      </trkpt>
      <trkpt lat="40.00699" lon="-3.88313">
        <ele>523.8</ele>
        <time>2022-12-31 09:27:04</time>
      </trkpt>
      <trkpt lat="40.00703" lon="-3.88304">
        <ele>523.6</ele>
        <time>2022-12-31 09:27:05</time>
      </trkpt>
      <trkpt lat="40.00707" lon="-3.88296">
        <ele>523.6</ele>
        <time>2022-12-31 09:27:06</time>
      </trkpt>
      <trkpt lat="40.00711" lon="-3.88288">
        <ele>523.4</ele>
        <time>2022-12-31 09:27:07</time>
      </trkpt>
      <trkpt lat="40.00716" lon="-3.8828">
        <ele>523.4</ele>
        <time>2022-12-31 09:27:08</time>
      </trkpt>
      <trkpt lat="40.0072" lon="-3.88272">
        <ele>523.4</ele>
        <time>2022-12-31 09:27:09</time>
      </trkpt>
      <trkpt lat="40.00724" lon="-3.88265">
        <ele>523.2</ele>
        <time>2022-12-31 09:27:10</time>
      </trkpt>
      <trkpt lat="40.00728" lon="-3.88257">
        <ele>523.4</ele>
        <time>2022-12-31 09:27:11</time>
      </trkpt>
      <trkpt lat="40.00731" lon="-3.8825">
        <ele>523.4</ele>
        <time>2022-12-31 09:27:12</time>
      </trkpt>
      <trkpt lat="40.00733" lon="-3.88243">
        <ele>523.2</ele>
        <time>2022-12-31 09:27:13</time>
      </trkpt>
      <trkpt lat="40.00735" lon="-3.88237">
        <ele>523.2</ele>
        <time>2022-12-31 09:27:14</time>
      </trkpt>
      <trkpt lat="40.00737" lon="-3.88231">
        <ele>523.2</ele>
        <time>2022-12-31 09:27:15</time>
      </trkpt>
      <trkpt lat="40.00738" lon="-3.88225">
        <ele>523.2</ele>
        <time>2022-12-31 09:27:16</time>
      </trkpt>
      <trkpt lat="40.00739" lon="-3.88218">
        <ele>523.2</ele>
        <time>2022-12-31 09:27:17</time>
      </trkpt>
      <trkpt lat="40.0074" lon="-3.88212">
        <ele>523.2</ele>
        <time>2022-12-31 09:27:18</time>
      </trkpt>
      <trkpt lat="40.0074" lon="-3.88206">
        <ele>523.2</ele>
        <time>2022-12-31 09:27:19</time>
      </trkpt>
      <trkpt lat="40.0074" lon="-3.882">
        <ele>523.2</ele>
        <time>2022-12-31 09:27:20</time>
      </trkpt>
      <trkpt lat="40.00741" lon="-3.88194">
        <ele>523.8</ele>
        <time>2022-12-31 09:27:21</time>
      </trkpt>
      <trkpt lat="40.00741" lon="-3.88188">
        <ele>524.2</ele>
        <time>2022-12-31 09:27:22</time>
      </trkpt>
      <trkpt lat="40.00741" lon="-3.88183">
        <ele>524.6</ele>
        <time>2022-12-31 09:27:23</time>
      </trkpt>
      <trkpt lat="40.00741" lon="-3.88177">
        <ele>525</ele>
        <time>2022-12-31 09:27:24</time>
      </trkpt>
      <trkpt lat="40.00741" lon="-3.88172">
        <ele>525.4</ele>
        <time>2022-12-31 09:27:25</time>
      </trkpt>
      <trkpt lat="40.00741" lon="-3.88167">
        <ele>526</ele>
        <time>2022-12-31 09:27:26</time>
      </trkpt>
      <trkpt lat="40.00742" lon="-3.88161">
        <ele>526.6</ele>
        <time>2022-12-31 09:27:27</time>
      </trkpt>
      <trkpt lat="40.00742" lon="-3.88156">
        <ele>527</ele>
        <time>2022-12-31 09:27:28</time>
      </trkpt>
      <trkpt lat="40.00743" lon="-3.88151">
        <ele>527.4</ele>
        <time>2022-12-31 09:27:29</time>
      </trkpt>
      <trkpt lat="40.00743" lon="-3.88146">
        <ele>528</ele>
        <time>2022-12-31 09:27:30</time>
      </trkpt>
      <trkpt lat="40.00743" lon="-3.8814">
        <ele>528.4</ele>
        <time>2022-12-31 09:27:31</time>
      </trkpt>
      <trkpt lat="40.00744" lon="-3.88135">
        <ele>528.4</ele>
        <time>2022-12-31 09:27:32</time>
      </trkpt>
      <trkpt lat="40.00744" lon="-3.8813">
        <ele>528.6</ele>
        <time>2022-12-31 09:27:33</time>
      </trkpt>
      <trkpt lat="40.00744" lon="-3.88124">
        <ele>528.8</ele>
        <time>2022-12-31 09:27:34</time>
      </trkpt>
      <trkpt lat="40.00745" lon="-3.88118">
        <ele>529.4</ele>
        <time>2022-12-31 09:27:35</time>
      </trkpt>
      <trkpt lat="40.00745" lon="-3.88112">
        <ele>529.6</ele>
        <time>2022-12-31 09:27:36</time>
      </trkpt>
      <trkpt lat="40.00746" lon="-3.88106">
        <ele>529.8</ele>
        <time>2022-12-31 09:27:37</time>
      </trkpt>
      <trkpt lat="40.00747" lon="-3.881">
        <ele>530</ele>
        <time>2022-12-31 09:27:38</time>
      </trkpt>
      <trkpt lat="40.00748" lon="-3.88095">
        <ele>530</ele>
        <time>2022-12-31 09:27:39</time>
      </trkpt>
      <trkpt lat="40.0075" lon="-3.88089">
        <ele>530.2</ele>
        <time>2022-12-31 09:27:40</time>
      </trkpt>
      <trkpt lat="40.00752" lon="-3.88083">
        <ele>530.2</ele>
        <time>2022-12-31 09:27:41</time>
      </trkpt>
      <trkpt lat="40.00755" lon="-3.88078">
        <ele>530.2</ele>
        <time>2022-12-31 09:27:42</time>
      </trkpt>
      <trkpt lat="40.00759" lon="-3.88073">
        <ele>530.2</ele>
        <time>2022-12-31 09:27:43</time>
      </trkpt>
      <trkpt lat="40.00763" lon="-3.88068">
        <ele>530.2</ele>
        <time>2022-12-31 09:27:44</time>
      </trkpt>
      <trkpt lat="40.00768" lon="-3.88065">
        <ele>530.2</ele>
        <time>2022-12-31 09:27:45</time>
      </trkpt>
      <trkpt lat="40.00774" lon="-3.88062">
        <ele>530.2</ele>
        <time>2022-12-31 09:27:46</time>
      </trkpt>
      <trkpt lat="40.0078" lon="-3.8806">
        <ele>530</ele>
        <time>2022-12-31 09:27:47</time>
      </trkpt>
      <trkpt lat="40.00787" lon="-3.88059">
        <ele>530</ele>
        <time>2022-12-31 09:27:48</time>
      </trkpt>
      <trkpt lat="40.00794" lon="-3.88059">
        <ele>529.8</ele>
        <time>2022-12-31 09:27:49</time>
      </trkpt>
      <trkpt lat="40.00801" lon="-3.88059">
        <ele>529.6</ele>
        <time>2022-12-31 09:27:50</time>
      </trkpt>
      <trkpt lat="40.00809" lon="-3.88059">
        <ele>529.6</ele>
        <time>2022-12-31 09:27:51</time>
      </trkpt>
      <trkpt lat="40.00817" lon="-3.88058">
        <ele>529.6</ele>
        <time>2022-12-31 09:27:52</time>
      </trkpt>
      <trkpt lat="40.00825" lon="-3.88056">
        <ele>529.4</ele>
        <time>2022-12-31 09:27:53</time>
      </trkpt>
      <trkpt lat="40.00834" lon="-3.88053">
        <ele>529</ele>
        <time>2022-12-31 09:27:54</time>
      </trkpt>
      <trkpt lat="40.00842" lon="-3.88047">
        <ele>528.8</ele>
        <time>2022-12-31 09:27:55</time>
      </trkpt>
      <trkpt lat="40.00849" lon="-3.8804">
        <ele>528.2</ele>
        <time>2022-12-31 09:27:56</time>
      </trkpt>
      <trkpt lat="40.00856" lon="-3.88031">
        <ele>527.6</ele>
        <time>2022-12-31 09:27:57</time>
      </trkpt>
      <trkpt lat="40.00862" lon="-3.8802">
        <ele>527.2</ele>
        <time>2022-12-31 09:27:58</time>
      </trkpt>
      <trkpt lat="40.00868" lon="-3.88009">
        <ele>526.4</ele>
        <time>2022-12-31 09:27:59</time>
      </trkpt>
      <trkpt lat="40.00875" lon="-3.87998">
        <ele>525.6</ele>
        <time>2022-12-31 09:28:00</time>
      </trkpt>
      <trkpt lat="40.0088" lon="-3.87987">
        <ele>524.6</ele>
        <time>2022-12-31 09:28:01</time>
      </trkpt>
      <trkpt lat="40.00886" lon="-3.87975">
        <ele>523.8</ele>
        <time>2022-12-31 09:28:02</time>
      </trkpt>
      <trkpt lat="40.00892" lon="-3.87964">
        <ele>522.8</ele>
        <time>2022-12-31 09:28:03</time>
      </trkpt>
      <trkpt lat="40.00898" lon="-3.87953">
        <ele>522</ele>
        <time>2022-12-31 09:28:04</time>
      </trkpt>
      <trkpt lat="40.00904" lon="-3.87943">
        <ele>521.4</ele>
        <time>2022-12-31 09:28:05</time>
      </trkpt>
      <trkpt lat="40.00909" lon="-3.87932">
        <ele>519.4</ele>
        <time>2022-12-31 09:28:06</time>
      </trkpt>
      <trkpt lat="40.00915" lon="-3.87922">
        <ele>518</ele>
        <time>2022-12-31 09:28:07</time>
      </trkpt>
      <trkpt lat="40.0092" lon="-3.87911">
        <ele>516.8</ele>
        <time>2022-12-31 09:28:08</time>
      </trkpt>
      <trkpt lat="40.00925" lon="-3.87901">
        <ele>515.6</ele>
        <time>2022-12-31 09:28:09</time>
      </trkpt>
      <trkpt lat="40.0093" lon="-3.87891">
        <ele>514.4</ele>
        <time>2022-12-31 09:28:10</time>
      </trkpt>
      <trkpt lat="40.00936" lon="-3.87882">
        <ele>513.8</ele>
        <time>2022-12-31 09:28:11</time>
      </trkpt>
      <trkpt lat="40.00941" lon="-3.87872">
        <ele>513.4</ele>
        <time>2022-12-31 09:28:12</time>
      </trkpt>
      <trkpt lat="40.00947" lon="-3.87863">
        <ele>513.4</ele>
        <time>2022-12-31 09:28:13</time>
      </trkpt>
      <trkpt lat="40.00952" lon="-3.87853">
        <ele>513.2</ele>
        <time>2022-12-31 09:28:14</time>
      </trkpt>
      <trkpt lat="40.00958" lon="-3.87844">
        <ele>513.2</ele>
        <time>2022-12-31 09:28:15</time>
      </trkpt>
      <trkpt lat="40.00963" lon="-3.87834">
        <ele>513</ele>
        <time>2022-12-31 09:28:16</time>
      </trkpt>
      <trkpt lat="40.00968" lon="-3.87824">
        <ele>512.8</ele>
        <time>2022-12-31 09:28:17</time>
      </trkpt>
      <trkpt lat="40.00974" lon="-3.87815">
        <ele>512.6</ele>
        <time>2022-12-31 09:28:18</time>
      </trkpt>
      <trkpt lat="40.00979" lon="-3.87805">
        <ele>512.2</ele>
        <time>2022-12-31 09:28:19</time>
      </trkpt>
      <trkpt lat="40.00984" lon="-3.87795">
        <ele>511.8</ele>
        <time>2022-12-31 09:28:20</time>
      </trkpt>
      <trkpt lat="40.0099" lon="-3.87786">
        <ele>511.6</ele>
        <time>2022-12-31 09:28:21</time>
      </trkpt>
      <trkpt lat="40.00995" lon="-3.87777">
        <ele>511.2</ele>
        <time>2022-12-31 09:28:22</time>
      </trkpt>
      <trkpt lat="40.01" lon="-3.87767">
        <ele>511.2</ele>
        <time>2022-12-31 09:28:23</time>
      </trkpt>
      <trkpt lat="40.01005" lon="-3.87758">
        <ele>510.8</ele>
        <time>2022-12-31 09:28:24</time>
      </trkpt>
      <trkpt lat="40.01011" lon="-3.87749">
        <ele>510.4</ele>
        <time>2022-12-31 09:28:25</time>
      </trkpt>
      <trkpt lat="40.01016" lon="-3.87739">
        <ele>510</ele>
        <time>2022-12-31 09:28:26</time>
      </trkpt>
      <trkpt lat="40.01021" lon="-3.8773">
        <ele>509.6</ele>
        <time>2022-12-31 09:28:27</time>
      </trkpt>
      <trkpt lat="40.01026" lon="-3.87721">
        <ele>509.4</ele>
        <time>2022-12-31 09:28:28</time>
      </trkpt>
      <trkpt lat="40.01031" lon="-3.87712">
        <ele>509.2</ele>
        <time>2022-12-31 09:28:29</time>
      </trkpt>
      <trkpt lat="40.01036" lon="-3.87703">
        <ele>508.8</ele>
        <time>2022-12-31 09:28:30</time>
      </trkpt>
      <trkpt lat="40.01042" lon="-3.87694">
        <ele>508.6</ele>
        <time>2022-12-31 09:28:31</time>
      </trkpt>
      <trkpt lat="40.01047" lon="-3.87686">
        <ele>508.2</ele>
        <time>2022-12-31 09:28:32</time>
      </trkpt>
      <trkpt lat="40.01052" lon="-3.87677">
        <ele>508.2</ele>
        <time>2022-12-31 09:28:33</time>
      </trkpt>
      <trkpt lat="40.01057" lon="-3.87668">
        <ele>508</ele>
        <time>2022-12-31 09:28:34</time>
      </trkpt>
      <trkpt lat="40.01062" lon="-3.87659">
        <ele>507.6</ele>
        <time>2022-12-31 09:28:35</time>
      </trkpt>
      <trkpt lat="40.01067" lon="-3.87651">
        <ele>507.4</ele>
        <time>2022-12-31 09:28:36</time>
      </trkpt>
      <trkpt lat="40.01073" lon="-3.87642">
        <ele>507.2</ele>
        <time>2022-12-31 09:28:37</time>
      </trkpt>
      <trkpt lat="40.01078" lon="-3.87634">
        <ele>506.8</ele>
        <time>2022-12-31 09:28:38</time>
      </trkpt>
      <trkpt lat="40.01084" lon="-3.87626">
        <ele>506.6</ele>
        <time>2022-12-31 09:28:39</time>
      </trkpt>
      <trkpt lat="40.01089" lon="-3.87617">
        <ele>506</ele>
        <time>2022-12-31 09:28:40</time>
      </trkpt>
      <trkpt lat="40.01094" lon="-3.87608">
        <ele>505.8</ele>
        <time>2022-12-31 09:28:41</time>
      </trkpt>
      <trkpt lat="40.01099" lon="-3.87599">
        <ele>505.6</ele>
        <time>2022-12-31 09:28:42</time>
      </trkpt>
      <trkpt lat="40.01104" lon="-3.8759">
        <ele>505.4</ele>
        <time>2022-12-31 09:28:43</time>
      </trkpt>
      <trkpt lat="40.01109" lon="-3.87581">
        <ele>505.2</ele>
        <time>2022-12-31 09:28:44</time>
      </trkpt>
      <trkpt lat="40.01114" lon="-3.87572">
        <ele>505.2</ele>
        <time>2022-12-31 09:28:45</time>
      </trkpt>
      <trkpt lat="40.01119" lon="-3.87563">
        <ele>505</ele>
        <time>2022-12-31 09:28:46</time>
      </trkpt>
      <trkpt lat="40.01124" lon="-3.87554">
        <ele>504.6</ele>
        <time>2022-12-31 09:28:47</time>
      </trkpt>
      <trkpt lat="40.01129" lon="-3.87546">
        <ele>504</ele>
        <time>2022-12-31 09:28:48</time>
      </trkpt>
      <trkpt lat="40.01134" lon="-3.87537">
        <ele>503.6</ele>
        <time>2022-12-31 09:28:49</time>
      </trkpt>
      <trkpt lat="40.01138" lon="-3.87528">
        <ele>503.6</ele>
        <time>2022-12-31 09:28:50</time>
      </trkpt>
      <trkpt lat="40.01143" lon="-3.87519">
        <ele>503.4</ele>
        <time>2022-12-31 09:28:51</time>
      </trkpt>
      <trkpt lat="40.01148" lon="-3.87511">
        <ele>503.4</ele>
        <time>2022-12-31 09:28:52</time>
      </trkpt>
      <trkpt lat="40.01153" lon="-3.87502">
        <ele>503.4</ele>
        <time>2022-12-31 09:28:53</time>
      </trkpt>
      <trkpt lat="40.01158" lon="-3.87494">
        <ele>503</ele>
        <time>2022-12-31 09:28:54</time>
      </trkpt>
      <trkpt lat="40.01163" lon="-3.87486">
        <ele>502.6</ele>
        <time>2022-12-31 09:28:55</time>
      </trkpt>
      <trkpt lat="40.01168" lon="-3.87478">
        <ele>502.2</ele>
        <time>2022-12-31 09:28:56</time>
      </trkpt>
      <trkpt lat="40.01173" lon="-3.87469">
        <ele>501.8</ele>
        <time>2022-12-31 09:28:57</time>
      </trkpt>
      <trkpt lat="40.01179" lon="-3.87461">
        <ele>501.4</ele>
        <time>2022-12-31 09:28:58</time>
      </trkpt>
      <trkpt lat="40.01183" lon="-3.87453">
        <ele>501.2</ele>
        <time>2022-12-31 09:28:59</time>
      </trkpt>
      <trkpt lat="40.01188" lon="-3.87444">
        <ele>501</ele>
        <time>2022-12-31 09:29:00</time>
      </trkpt>
      <trkpt lat="40.01192" lon="-3.87435">
        <ele>501</ele>
        <time>2022-12-31 09:29:01</time>
      </trkpt>
      <trkpt lat="40.01197" lon="-3.87426">
        <ele>500.8</ele>
        <time>2022-12-31 09:29:02</time>
      </trkpt>
      <trkpt lat="40.01202" lon="-3.87417">
        <ele>500.8</ele>
        <time>2022-12-31 09:29:03</time>
      </trkpt>
      <trkpt lat="40.01206" lon="-3.87408">
        <ele>500.6</ele>
        <time>2022-12-31 09:29:04</time>
      </trkpt>
      <trkpt lat="40.01211" lon="-3.874">
        <ele>500.6</ele>
        <time>2022-12-31 09:29:05</time>
      </trkpt>
      <trkpt lat="40.01215" lon="-3.87391">
        <ele>500.2</ele>
        <time>2022-12-31 09:29:06</time>
      </trkpt>
      <trkpt lat="40.0122" lon="-3.87383">
        <ele>500.2</ele>
        <time>2022-12-31 09:29:07</time>
      </trkpt>
      <trkpt lat="40.01224" lon="-3.87374">
        <ele>500.2</ele>
        <time>2022-12-31 09:29:08</time>
      </trkpt>
      <trkpt lat="40.01229" lon="-3.87366">
        <ele>500</ele>
        <time>2022-12-31 09:29:09</time>
      </trkpt>
      <trkpt lat="40.01233" lon="-3.87357">
        <ele>499.8</ele>
        <time>2022-12-31 09:29:10</time>
      </trkpt>
      <trkpt lat="40.01237" lon="-3.87348">
        <ele>499.4</ele>
        <time>2022-12-31 09:29:11</time>
      </trkpt>
      <trkpt lat="40.01242" lon="-3.87339">
        <ele>499.4</ele>
        <time>2022-12-31 09:29:12</time>
      </trkpt>
      <trkpt lat="40.01247" lon="-3.87331">
        <ele>499.4</ele>
        <time>2022-12-31 09:29:13</time>
      </trkpt>
      <trkpt lat="40.01252" lon="-3.87322">
        <ele>499.2</ele>
        <time>2022-12-31 09:29:14</time>
      </trkpt>
      <trkpt lat="40.01257" lon="-3.87314">
        <ele>499.2</ele>
        <time>2022-12-31 09:29:15</time>
      </trkpt>
      <trkpt lat="40.01261" lon="-3.87305">
        <ele>499.2</ele>
        <time>2022-12-31 09:29:16</time>
      </trkpt>
      <trkpt lat="40.01266" lon="-3.87297">
        <ele>499</ele>
        <time>2022-12-31 09:29:17</time>
      </trkpt>
      <trkpt lat="40.01271" lon="-3.87288">
        <ele>499</ele>
        <time>2022-12-31 09:29:18</time>
      </trkpt>
      <trkpt lat="40.01276" lon="-3.8728">
        <ele>499</ele>
        <time>2022-12-31 09:29:19</time>
      </trkpt>
      <trkpt lat="40.01281" lon="-3.87272">
        <ele>499</ele>
        <time>2022-12-31 09:29:20</time>
      </trkpt>
      <trkpt lat="40.01286" lon="-3.87264">
        <ele>498.8</ele>
        <time>2022-12-31 09:29:21</time>
      </trkpt>
      <trkpt lat="40.0129" lon="-3.87256">
        <ele>498.6</ele>
        <time>2022-12-31 09:29:22</time>
      </trkpt>
      <trkpt lat="40.01295" lon="-3.87248">
        <ele>498.6</ele>
        <time>2022-12-31 09:29:23</time>
      </trkpt>
      <trkpt lat="40.013" lon="-3.87239">
        <ele>498.4</ele>
        <time>2022-12-31 09:29:24</time>
      </trkpt>
      <trkpt lat="40.01304" lon="-3.87231">
        <ele>498.4</ele>
        <time>2022-12-31 09:29:25</time>
      </trkpt>
      <trkpt lat="40.01309" lon="-3.87222">
        <ele>498.2</ele>
        <time>2022-12-31 09:29:26</time>
      </trkpt>
      <trkpt lat="40.01314" lon="-3.87214">
        <ele>498</ele>
        <time>2022-12-31 09:29:27</time>
      </trkpt>
      <trkpt lat="40.01318" lon="-3.87205">
        <ele>498</ele>
        <time>2022-12-31 09:29:28</time>
      </trkpt>
      <trkpt lat="40.01323" lon="-3.87197">
        <ele>498</ele>
        <time>2022-12-31 09:29:29</time>
      </trkpt>
      <trkpt lat="40.01328" lon="-3.87188">
        <ele>497.6</ele>
        <time>2022-12-31 09:29:30</time>
      </trkpt>
      <trkpt lat="40.01333" lon="-3.8718">
        <ele>497.6</ele>
        <time>2022-12-31 09:29:31</time>
      </trkpt>
      <trkpt lat="40.01338" lon="-3.87172">
        <ele>497.6</ele>
        <time>2022-12-31 09:29:32</time>
      </trkpt>
      <trkpt lat="40.01342" lon="-3.87164">
        <ele>497.6</ele>
        <time>2022-12-31 09:29:33</time>
      </trkpt>
      <trkpt lat="40.01347" lon="-3.87155">
        <ele>497.4</ele>
        <time>2022-12-31 09:29:34</time>
      </trkpt>
      <trkpt lat="40.01351" lon="-3.87147">
        <ele>497.4</ele>
        <time>2022-12-31 09:29:35</time>
      </trkpt>
      <trkpt lat="40.01355" lon="-3.87138">
        <ele>497.2</ele>
        <time>2022-12-31 09:29:36</time>
      </trkpt>
      <trkpt lat="40.01359" lon="-3.8713">
        <ele>497.2</ele>
        <time>2022-12-31 09:29:37</time>
      </trkpt>
      <trkpt lat="40.01363" lon="-3.87122">
        <ele>497.2</ele>
        <time>2022-12-31 09:29:38</time>
      </trkpt>
      <trkpt lat="40.01367" lon="-3.87114">
        <ele>497</ele>
        <time>2022-12-31 09:29:39</time>
      </trkpt>
      <trkpt lat="40.01371" lon="-3.87107">
        <ele>497.2</ele>
        <time>2022-12-31 09:29:40</time>
      </trkpt>
      <trkpt lat="40.01375" lon="-3.871">
        <ele>497</ele>
        <time>2022-12-31 09:29:41</time>
      </trkpt>
      <trkpt lat="40.01379" lon="-3.87093">
        <ele>497</ele>
        <time>2022-12-31 09:29:42</time>
      </trkpt>
      <trkpt lat="40.01382" lon="-3.87086">
        <ele>497</ele>
        <time>2022-12-31 09:29:43</time>
      </trkpt>
      <trkpt lat="40.01386" lon="-3.8708">
        <ele>497.2</ele>
        <time>2022-12-31 09:29:44</time>
      </trkpt>
      <trkpt lat="40.0139" lon="-3.87073">
        <ele>497</ele>
        <time>2022-12-31 09:29:45</time>
      </trkpt>
      <trkpt lat="40.01394" lon="-3.87067">
        <ele>497.2</ele>
        <time>2022-12-31 09:29:46</time>
      </trkpt>
      <trkpt lat="40.01397" lon="-3.87061">
        <ele>497.2</ele>
        <time>2022-12-31 09:29:47</time>
      </trkpt>
      <trkpt lat="40.01401" lon="-3.87055">
        <ele>497.2</ele>
        <time>2022-12-31 09:29:48</time>
      </trkpt>
      <trkpt lat="40.01404" lon="-3.87048">
        <ele>497.2</ele>
        <time>2022-12-31 09:29:49</time>
      </trkpt>
      <trkpt lat="40.01407" lon="-3.87042">
        <ele>497.4</ele>
        <time>2022-12-31 09:29:50</time>
      </trkpt>
      <trkpt lat="40.0141" lon="-3.87036">
        <ele>497.4</ele>
        <time>2022-12-31 09:29:51</time>
      </trkpt>
      <trkpt lat="40.01413" lon="-3.8703">
        <ele>497.4</ele>
        <time>2022-12-31 09:29:52</time>
      </trkpt>
      <trkpt lat="40.01417" lon="-3.87024">
        <ele>497.6</ele>
        <time>2022-12-31 09:29:53</time>
      </trkpt>
      <trkpt lat="40.0142" lon="-3.87019">
        <ele>497.8</ele>
        <time>2022-12-31 09:29:54</time>
      </trkpt>
      <trkpt lat="40.01423" lon="-3.87013">
        <ele>498.4</ele>
        <time>2022-12-31 09:29:55</time>
      </trkpt>
      <trkpt lat="40.01426" lon="-3.87007">
        <ele>498.6</ele>
        <time>2022-12-31 09:29:56</time>
      </trkpt>
      <trkpt lat="40.01429" lon="-3.87001">
        <ele>498.6</ele>
        <time>2022-12-31 09:29:57</time>
      </trkpt>
      <trkpt lat="40.01432" lon="-3.86994">
        <ele>499</ele>
        <time>2022-12-31 09:29:58</time>
      </trkpt>
      <trkpt lat="40.01435" lon="-3.86988">
        <ele>499.2</ele>
        <time>2022-12-31 09:29:59</time>
      </trkpt>
      <trkpt lat="40.01438" lon="-3.86982">
        <ele>499.4</ele>
        <time>2022-12-31 09:30:00</time>
      </trkpt>
      <trkpt lat="40.01442" lon="-3.86976">
        <ele>499.6</ele>
        <time>2022-12-31 09:30:01</time>
      </trkpt>
      <trkpt lat="40.01446" lon="-3.8697">
        <ele>499.6</ele>
        <time>2022-12-31 09:30:02</time>
      </trkpt>
      <trkpt lat="40.0145" lon="-3.86964">
        <ele>499.8</ele>
        <time>2022-12-31 09:30:03</time>
      </trkpt>
      <trkpt lat="40.01453" lon="-3.86959">
        <ele>499.8</ele>
        <time>2022-12-31 09:30:04</time>
      </trkpt>
      <trkpt lat="40.01457" lon="-3.86952">
        <ele>499.8</ele>
        <time>2022-12-31 09:30:05</time>
      </trkpt>
      <trkpt lat="40.0146" lon="-3.86946">
        <ele>499.8</ele>
        <time>2022-12-31 09:30:06</time>
      </trkpt>
      <trkpt lat="40.01464" lon="-3.8694">
        <ele>500</ele>
        <time>2022-12-31 09:30:07</time>
      </trkpt>
      <trkpt lat="40.01468" lon="-3.86934">
        <ele>500</ele>
        <time>2022-12-31 09:30:08</time>
      </trkpt>
      <trkpt lat="40.01471" lon="-3.86928">
        <ele>500</ele>
        <time>2022-12-31 09:30:09</time>
      </trkpt>
      <trkpt lat="40.01475" lon="-3.86922">
        <ele>500</ele>
        <time>2022-12-31 09:30:10</time>
      </trkpt>
      <trkpt lat="40.01478" lon="-3.86915">
        <ele>500</ele>
        <time>2022-12-31 09:30:11</time>
      </trkpt>
      <trkpt lat="40.01482" lon="-3.86909">
        <ele>500</ele>
        <time>2022-12-31 09:30:12</time>
      </trkpt>
      <trkpt lat="40.01485" lon="-3.86903">
        <ele>500</ele>
        <time>2022-12-31 09:30:13</time>
      </trkpt>
      <trkpt lat="40.01489" lon="-3.86896">
        <ele>500</ele>
        <time>2022-12-31 09:30:14</time>
      </trkpt>
      <trkpt lat="40.01492" lon="-3.8689">
        <ele>500</ele>
        <time>2022-12-31 09:30:15</time>
      </trkpt>
      <trkpt lat="40.01496" lon="-3.86883">
        <ele>500</ele>
        <time>2022-12-31 09:30:16</time>
      </trkpt>
      <trkpt lat="40.01499" lon="-3.86877">
        <ele>500</ele>
        <time>2022-12-31 09:30:17</time>
      </trkpt>
      <trkpt lat="40.01503" lon="-3.86871">
        <ele>500</ele>
        <time>2022-12-31 09:30:18</time>
      </trkpt>
      <trkpt lat="40.01506" lon="-3.86864">
        <ele>500</ele>
        <time>2022-12-31 09:30:19</time>
      </trkpt>
      <trkpt lat="40.0151" lon="-3.86857">
        <ele>500</ele>
        <time>2022-12-31 09:30:20</time>
      </trkpt>
      <trkpt lat="40.01514" lon="-3.86851">
        <ele>500</ele>
        <time>2022-12-31 09:30:21</time>
      </trkpt>
      <trkpt lat="40.01517" lon="-3.86845">
        <ele>500</ele>
        <time>2022-12-31 09:30:22</time>
      </trkpt>
      <trkpt lat="40.01521" lon="-3.86838">
        <ele>499.8</ele>
        <time>2022-12-31 09:30:23</time>
      </trkpt>
      <trkpt lat="40.01525" lon="-3.86832">
        <ele>499.8</ele>
        <time>2022-12-31 09:30:24</time>
      </trkpt>
      <trkpt lat="40.01528" lon="-3.86825">
        <ele>499.8</ele>
        <time>2022-12-31 09:30:25</time>
      </trkpt>
      <trkpt lat="40.01531" lon="-3.86818">
        <ele>499.8</ele>
        <time>2022-12-31 09:30:26</time>
      </trkpt>
      <trkpt lat="40.01535" lon="-3.86811">
        <ele>499.8</ele>
        <time>2022-12-31 09:30:27</time>
      </trkpt>
      <trkpt lat="40.01539" lon="-3.86805">
        <ele>499.8</ele>
        <time>2022-12-31 09:30:28</time>
      </trkpt>
      <trkpt lat="40.01543" lon="-3.86799">
        <ele>499.6</ele>
        <time>2022-12-31 09:30:29</time>
      </trkpt>
      <trkpt lat="40.01546" lon="-3.86792">
        <ele>499.6</ele>
        <time>2022-12-31 09:30:30</time>
      </trkpt>
      <trkpt lat="40.0155" lon="-3.86786">
        <ele>499.6</ele>
        <time>2022-12-31 09:30:31</time>
      </trkpt>
      <trkpt lat="40.01554" lon="-3.86779">
        <ele>499.6</ele>
        <time>2022-12-31 09:30:32</time>
      </trkpt>
      <trkpt lat="40.01558" lon="-3.86772">
        <ele>499.6</ele>
        <time>2022-12-31 09:30:33</time>
      </trkpt>
      <trkpt lat="40.01562" lon="-3.86766">
        <ele>499.4</ele>
        <time>2022-12-31 09:30:34</time>
      </trkpt>
      <trkpt lat="40.01567" lon="-3.86759">
        <ele>499.6</ele>
        <time>2022-12-31 09:30:35</time>
      </trkpt>
      <trkpt lat="40.01571" lon="-3.86752">
        <ele>499.4</ele>
        <time>2022-12-31 09:30:36</time>
      </trkpt>
      <trkpt lat="40.01575" lon="-3.86745">
        <ele>499.4</ele>
        <time>2022-12-31 09:30:37</time>
      </trkpt>
      <trkpt lat="40.01579" lon="-3.86738">
        <ele>499.4</ele>
        <time>2022-12-31 09:30:38</time>
      </trkpt>
      <trkpt lat="40.01582" lon="-3.86731">
        <ele>499.2</ele>
        <time>2022-12-31 09:30:39</time>
      </trkpt>
      <trkpt lat="40.01586" lon="-3.86723">
        <ele>499</ele>
        <time>2022-12-31 09:30:40</time>
      </trkpt>
      <trkpt lat="40.0159" lon="-3.86716">
        <ele>499</ele>
        <time>2022-12-31 09:30:41</time>
      </trkpt>
      <trkpt lat="40.01594" lon="-3.86708">
        <ele>499</ele>
        <time>2022-12-31 09:30:42</time>
      </trkpt>
      <trkpt lat="40.01598" lon="-3.86701">
        <ele>498.8</ele>
        <time>2022-12-31 09:30:43</time>
      </trkpt>
      <trkpt lat="40.01603" lon="-3.86694">
        <ele>498.8</ele>
        <time>2022-12-31 09:30:44</time>
      </trkpt>
      <trkpt lat="40.01607" lon="-3.86686">
        <ele>498.6</ele>
        <time>2022-12-31 09:30:45</time>
      </trkpt>
      <trkpt lat="40.01611" lon="-3.86679">
        <ele>498.4</ele>
        <time>2022-12-31 09:30:46</time>
      </trkpt>
      <trkpt lat="40.01615" lon="-3.86671">
        <ele>498.4</ele>
        <time>2022-12-31 09:30:47</time>
      </trkpt>
      <trkpt lat="40.01619" lon="-3.86664">
        <ele>498.2</ele>
        <time>2022-12-31 09:30:48</time>
      </trkpt>
      <trkpt lat="40.01623" lon="-3.86657">
        <ele>498.2</ele>
        <time>2022-12-31 09:30:49</time>
      </trkpt>
      <trkpt lat="40.01626" lon="-3.86649">
        <ele>497.8</ele>
        <time>2022-12-31 09:30:50</time>
      </trkpt>
      <trkpt lat="40.0163" lon="-3.86642">
        <ele>497.8</ele>
        <time>2022-12-31 09:30:51</time>
      </trkpt>
      <trkpt lat="40.01634" lon="-3.86635">
        <ele>497.6</ele>
        <time>2022-12-31 09:30:52</time>
      </trkpt>
      <trkpt lat="40.01638" lon="-3.86628">
        <ele>497.4</ele>
        <time>2022-12-31 09:30:53</time>
      </trkpt>
      <trkpt lat="40.01642" lon="-3.8662">
        <ele>497.2</ele>
        <time>2022-12-31 09:30:54</time>
      </trkpt>
      <trkpt lat="40.01646" lon="-3.86613">
        <ele>497</ele>
        <time>2022-12-31 09:30:55</time>
      </trkpt>
      <trkpt lat="40.0165" lon="-3.86605">
        <ele>496.8</ele>
        <time>2022-12-31 09:30:56</time>
      </trkpt>
      <trkpt lat="40.01655" lon="-3.86597">
        <ele>496.8</ele>
        <time>2022-12-31 09:30:57</time>
      </trkpt>
      <trkpt lat="40.01659" lon="-3.86589">
        <ele>496.6</ele>
        <time>2022-12-31 09:30:58</time>
      </trkpt>
      <trkpt lat="40.01663" lon="-3.86581">
        <ele>496.4</ele>
        <time>2022-12-31 09:30:59</time>
      </trkpt>
      <trkpt lat="40.01668" lon="-3.86573">
        <ele>496.4</ele>
        <time>2022-12-31 09:31:00</time>
      </trkpt>
      <trkpt lat="40.01672" lon="-3.86566">
        <ele>496</ele>
        <time>2022-12-31 09:31:01</time>
      </trkpt>
      <trkpt lat="40.01677" lon="-3.86558">
        <ele>496</ele>
        <time>2022-12-31 09:31:02</time>
      </trkpt>
      <trkpt lat="40.01681" lon="-3.8655">
        <ele>495.6</ele>
        <time>2022-12-31 09:31:03</time>
      </trkpt>
      <trkpt lat="40.01685" lon="-3.86542">
        <ele>495.4</ele>
        <time>2022-12-31 09:31:04</time>
      </trkpt>
      <trkpt lat="40.0169" lon="-3.86534">
        <ele>495.2</ele>
        <time>2022-12-31 09:31:05</time>
      </trkpt>
      <trkpt lat="40.01694" lon="-3.86526">
        <ele>494.8</ele>
        <time>2022-12-31 09:31:06</time>
      </trkpt>
      <trkpt lat="40.01698" lon="-3.86518">
        <ele>494.6</ele>
        <time>2022-12-31 09:31:07</time>
      </trkpt>
      <trkpt lat="40.01703" lon="-3.86509">
        <ele>494.4</ele>
        <time>2022-12-31 09:31:08</time>
      </trkpt>
      <trkpt lat="40.01708" lon="-3.86501">
        <ele>494</ele>
        <time>2022-12-31 09:31:09</time>
      </trkpt>
      <trkpt lat="40.01712" lon="-3.86493">
        <ele>493.8</ele>
        <time>2022-12-31 09:31:10</time>
      </trkpt>
      <trkpt lat="40.01717" lon="-3.86485">
        <ele>493.8</ele>
        <time>2022-12-31 09:31:11</time>
      </trkpt>
      <trkpt lat="40.01722" lon="-3.86477">
        <ele>493.4</ele>
        <time>2022-12-31 09:31:12</time>
      </trkpt>
      <trkpt lat="40.01726" lon="-3.86469">
        <ele>493.4</ele>
        <time>2022-12-31 09:31:13</time>
      </trkpt>
      <trkpt lat="40.01731" lon="-3.86461">
        <ele>493.2</ele>
        <time>2022-12-31 09:31:14</time>
      </trkpt>
      <trkpt lat="40.01735" lon="-3.86453">
        <ele>492.8</ele>
        <time>2022-12-31 09:31:15</time>
      </trkpt>
      <trkpt lat="40.0174" lon="-3.86444">
        <ele>492.8</ele>
        <time>2022-12-31 09:31:16</time>
      </trkpt>
      <trkpt lat="40.01744" lon="-3.86436">
        <ele>492.4</ele>
        <time>2022-12-31 09:31:17</time>
      </trkpt>
      <trkpt lat="40.01749" lon="-3.86428">
        <ele>492</ele>
        <time>2022-12-31 09:31:18</time>
      </trkpt>
      <trkpt lat="40.01753" lon="-3.8642">
        <ele>491.8</ele>
        <time>2022-12-31 09:31:19</time>
      </trkpt>
      <trkpt lat="40.01758" lon="-3.86412">
        <ele>491.6</ele>
        <time>2022-12-31 09:31:20</time>
      </trkpt>
      <trkpt lat="40.01762" lon="-3.86404">
        <ele>491.4</ele>
        <time>2022-12-31 09:31:21</time>
      </trkpt>
      <trkpt lat="40.01767" lon="-3.86396">
        <ele>491.2</ele>
        <time>2022-12-31 09:31:22</time>
      </trkpt>
      <trkpt lat="40.01771" lon="-3.86389">
        <ele>491</ele>
        <time>2022-12-31 09:31:23</time>
      </trkpt>
      <trkpt lat="40.01776" lon="-3.86381">
        <ele>491</ele>
        <time>2022-12-31 09:31:24</time>
      </trkpt>
      <trkpt lat="40.0178" lon="-3.86373">
        <ele>490.6</ele>
        <time>2022-12-31 09:31:25</time>
      </trkpt>
      <trkpt lat="40.01785" lon="-3.86365">
        <ele>490</ele>
        <time>2022-12-31 09:31:26</time>
      </trkpt>
      <trkpt lat="40.01789" lon="-3.86358">
        <ele>489.8</ele>
        <time>2022-12-31 09:31:27</time>
      </trkpt>
      <trkpt lat="40.01793" lon="-3.8635">
        <ele>489.6</ele>
        <time>2022-12-31 09:31:28</time>
      </trkpt>
      <trkpt lat="40.01797" lon="-3.86342">
        <ele>489.4</ele>
        <time>2022-12-31 09:31:29</time>
      </trkpt>
      <trkpt lat="40.01802" lon="-3.86334">
        <ele>489.2</ele>
        <time>2022-12-31 09:31:30</time>
      </trkpt>
      <trkpt lat="40.01806" lon="-3.86327">
        <ele>489.2</ele>
        <time>2022-12-31 09:31:31</time>
      </trkpt>
      <trkpt lat="40.0181" lon="-3.86319">
        <ele>489.2</ele>
        <time>2022-12-31 09:31:32</time>
      </trkpt>
      <trkpt lat="40.01814" lon="-3.86311">
        <ele>489</ele>
        <time>2022-12-31 09:31:33</time>
      </trkpt>
      <trkpt lat="40.01819" lon="-3.86304">
        <ele>489</ele>
        <time>2022-12-31 09:31:34</time>
      </trkpt>
      <trkpt lat="40.01823" lon="-3.86296">
        <ele>488.8</ele>
        <time>2022-12-31 09:31:35</time>
      </trkpt>
      <trkpt lat="40.01827" lon="-3.86288">
        <ele>488.6</ele>
        <time>2022-12-31 09:31:36</time>
      </trkpt>
      <trkpt lat="40.01832" lon="-3.86281">
        <ele>488.6</ele>
        <time>2022-12-31 09:31:37</time>
      </trkpt>
      <trkpt lat="40.01837" lon="-3.86274">
        <ele>488.4</ele>
        <time>2022-12-31 09:31:38</time>
      </trkpt>
      <trkpt lat="40.01841" lon="-3.86267">
        <ele>488.6</ele>
        <time>2022-12-31 09:31:39</time>
      </trkpt>
      <trkpt lat="40.01844" lon="-3.8626">
        <ele>488.4</ele>
        <time>2022-12-31 09:31:40</time>
      </trkpt>
      <trkpt lat="40.01848" lon="-3.86253">
        <ele>488.4</ele>
        <time>2022-12-31 09:31:41</time>
      </trkpt>
      <trkpt lat="40.01852" lon="-3.86245">
        <ele>488</ele>
        <time>2022-12-31 09:31:42</time>
      </trkpt>
      <trkpt lat="40.01856" lon="-3.86238">
        <ele>488</ele>
        <time>2022-12-31 09:31:43</time>
      </trkpt>
      <trkpt lat="40.0186" lon="-3.86231">
        <ele>488</ele>
        <time>2022-12-31 09:31:44</time>
      </trkpt>
      <trkpt lat="40.01864" lon="-3.86224">
        <ele>488</ele>
        <time>2022-12-31 09:31:45</time>
      </trkpt>
      <trkpt lat="40.01868" lon="-3.86216">
        <ele>487.8</ele>
        <time>2022-12-31 09:31:46</time>
      </trkpt>
      <trkpt lat="40.01872" lon="-3.86209">
        <ele>487.8</ele>
        <time>2022-12-31 09:31:47</time>
      </trkpt>
      <trkpt lat="40.01876" lon="-3.86202">
        <ele>487.8</ele>
        <time>2022-12-31 09:31:48</time>
      </trkpt>
      <trkpt lat="40.0188" lon="-3.86195">
        <ele>487.6</ele>
        <time>2022-12-31 09:31:49</time>
      </trkpt>
      <trkpt lat="40.01884" lon="-3.86188">
        <ele>487.6</ele>
        <time>2022-12-31 09:31:50</time>
      </trkpt>
      <trkpt lat="40.01887" lon="-3.8618">
        <ele>487.8</ele>
        <time>2022-12-31 09:31:51</time>
      </trkpt>
      <trkpt lat="40.01891" lon="-3.86173">
        <ele>487.6</ele>
        <time>2022-12-31 09:31:52</time>
      </trkpt>
      <trkpt lat="40.01895" lon="-3.86165">
        <ele>487.4</ele>
        <time>2022-12-31 09:31:53</time>
      </trkpt>
      <trkpt lat="40.01899" lon="-3.86157">
        <ele>487.4</ele>
        <time>2022-12-31 09:31:54</time>
      </trkpt>
      <trkpt lat="40.01902" lon="-3.86149">
        <ele>487.4</ele>
        <time>2022-12-31 09:31:55</time>
      </trkpt>
      <trkpt lat="40.01905" lon="-3.86141">
        <ele>487.4</ele>
        <time>2022-12-31 09:31:56</time>
      </trkpt>
      <trkpt lat="40.01908" lon="-3.86133">
        <ele>487.2</ele>
        <time>2022-12-31 09:31:57</time>
      </trkpt>
      <trkpt lat="40.01911" lon="-3.86125">
        <ele>487.2</ele>
        <time>2022-12-31 09:31:58</time>
      </trkpt>
      <trkpt lat="40.01914" lon="-3.86117">
        <ele>487.2</ele>
        <time>2022-12-31 09:31:59</time>
      </trkpt>
      <trkpt lat="40.01917" lon="-3.86109">
        <ele>487.2</ele>
        <time>2022-12-31 09:32:00</time>
      </trkpt>
      <trkpt lat="40.0192" lon="-3.861">
        <ele>487.2</ele>
        <time>2022-12-31 09:32:01</time>
      </trkpt>
      <trkpt lat="40.01923" lon="-3.86092">
        <ele>487</ele>
        <time>2022-12-31 09:32:02</time>
      </trkpt>
      <trkpt lat="40.01925" lon="-3.86084">
        <ele>487</ele>
        <time>2022-12-31 09:32:03</time>
      </trkpt>
      <trkpt lat="40.01928" lon="-3.86075">
        <ele>487</ele>
        <time>2022-12-31 09:32:04</time>
      </trkpt>
      <trkpt lat="40.01931" lon="-3.86067">
        <ele>487</ele>
        <time>2022-12-31 09:32:05</time>
      </trkpt>
      <trkpt lat="40.01933" lon="-3.86059">
        <ele>487</ele>
        <time>2022-12-31 09:32:06</time>
      </trkpt>
      <trkpt lat="40.01935" lon="-3.8605">
        <ele>487</ele>
        <time>2022-12-31 09:32:07</time>
      </trkpt>
      <trkpt lat="40.01938" lon="-3.86042">
        <ele>486.8</ele>
        <time>2022-12-31 09:32:08</time>
      </trkpt>
      <trkpt lat="40.0194" lon="-3.86034">
        <ele>486.8</ele>
        <time>2022-12-31 09:32:09</time>
      </trkpt>
      <trkpt lat="40.01942" lon="-3.86025">
        <ele>486.8</ele>
        <time>2022-12-31 09:32:10</time>
      </trkpt>
      <trkpt lat="40.01945" lon="-3.86017">
        <ele>486.6</ele>
        <time>2022-12-31 09:32:11</time>
      </trkpt>
      <trkpt lat="40.01947" lon="-3.86009">
        <ele>486.6</ele>
        <time>2022-12-31 09:32:12</time>
      </trkpt>
      <trkpt lat="40.01949" lon="-3.86001">
        <ele>486.6</ele>
        <time>2022-12-31 09:32:13</time>
      </trkpt>
      <trkpt lat="40.01952" lon="-3.85992">
        <ele>486.6</ele>
        <time>2022-12-31 09:32:14</time>
      </trkpt>
      <trkpt lat="40.01954" lon="-3.85983">
        <ele>486.4</ele>
        <time>2022-12-31 09:32:15</time>
      </trkpt>
      <trkpt lat="40.01956" lon="-3.85975">
        <ele>486.4</ele>
        <time>2022-12-31 09:32:16</time>
      </trkpt>
      <trkpt lat="40.01958" lon="-3.85966">
        <ele>486.4</ele>
        <time>2022-12-31 09:32:17</time>
      </trkpt>
      <trkpt lat="40.01961" lon="-3.85957">
        <ele>486.6</ele>
        <time>2022-12-31 09:32:18</time>
      </trkpt>
      <trkpt lat="40.01963" lon="-3.85949">
        <ele>486.4</ele>
        <time>2022-12-31 09:32:19</time>
      </trkpt>
      <trkpt lat="40.01965" lon="-3.8594">
        <ele>486.6</ele>
        <time>2022-12-31 09:32:20</time>
      </trkpt>
      <trkpt lat="40.01968" lon="-3.85931">
        <ele>486.4</ele>
        <time>2022-12-31 09:32:21</time>
      </trkpt>
      <trkpt lat="40.0197" lon="-3.85923">
        <ele>486.4</ele>
        <time>2022-12-31 09:32:22</time>
      </trkpt>
      <trkpt lat="40.01972" lon="-3.85913">
        <ele>486.4</ele>
        <time>2022-12-31 09:32:23</time>
      </trkpt>
      <trkpt lat="40.01973" lon="-3.85904">
        <ele>486.4</ele>
        <time>2022-12-31 09:32:24</time>
      </trkpt>
      <trkpt lat="40.01972" lon="-3.85896">
        <ele>486.4</ele>
        <time>2022-12-31 09:32:25</time>
      </trkpt>
      <trkpt lat="40.01971" lon="-3.85887">
        <ele>486.4</ele>
        <time>2022-12-31 09:32:26</time>
      </trkpt>
      <trkpt lat="40.01969" lon="-3.85879">
        <ele>486.4</ele>
        <time>2022-12-31 09:32:27</time>
      </trkpt>
      <trkpt lat="40.01966" lon="-3.85872">
        <ele>486.4</ele>
        <time>2022-12-31 09:32:28</time>
      </trkpt>
      <trkpt lat="40.01963" lon="-3.85864">
        <ele>486.4</ele>
        <time>2022-12-31 09:32:29</time>
      </trkpt>
      <trkpt lat="40.01959" lon="-3.85856">
        <ele>486.4</ele>
        <time>2022-12-31 09:32:30</time>
      </trkpt>
      <trkpt lat="40.01955" lon="-3.85849">
        <ele>486.4</ele>
        <time>2022-12-31 09:32:31</time>
      </trkpt>
      <trkpt lat="40.01951" lon="-3.85842">
        <ele>486.4</ele>
        <time>2022-12-31 09:32:32</time>
      </trkpt>
      <trkpt lat="40.01947" lon="-3.85835">
        <ele>486.4</ele>
        <time>2022-12-31 09:32:33</time>
      </trkpt>
      <trkpt lat="40.01942" lon="-3.85829">
        <ele>486.4</ele>
        <time>2022-12-31 09:32:34</time>
      </trkpt>
      <trkpt lat="40.01937" lon="-3.85822">
        <ele>486.4</ele>
        <time>2022-12-31 09:32:35</time>
      </trkpt>
      <trkpt lat="40.01932" lon="-3.85817">
        <ele>486.6</ele>
        <time>2022-12-31 09:32:36</time>
      </trkpt>
      <trkpt lat="40.01927" lon="-3.85812">
        <ele>486.8</ele>
        <time>2022-12-31 09:32:37</time>
      </trkpt>
      <trkpt lat="40.01921" lon="-3.85806">
        <ele>486.6</ele>
        <time>2022-12-31 09:32:38</time>
      </trkpt>
      <trkpt lat="40.01915" lon="-3.85801">
        <ele>486.6</ele>
        <time>2022-12-31 09:32:39</time>
      </trkpt>
      <trkpt lat="40.0191" lon="-3.85796">
        <ele>486.6</ele>
        <time>2022-12-31 09:32:40</time>
      </trkpt>
      <trkpt lat="40.01904" lon="-3.8579">
        <ele>486.8</ele>
        <time>2022-12-31 09:32:41</time>
      </trkpt>
      <trkpt lat="40.01898" lon="-3.85786">
        <ele>486.8</ele>
        <time>2022-12-31 09:32:42</time>
      </trkpt>
      <trkpt lat="40.01892" lon="-3.85781">
        <ele>486.8</ele>
        <time>2022-12-31 09:32:43</time>
      </trkpt>
      <trkpt lat="40.01886" lon="-3.85775">
        <ele>486.8</ele>
        <time>2022-12-31 09:32:44</time>
      </trkpt>
      <trkpt lat="40.01881" lon="-3.85769">
        <ele>486.8</ele>
        <time>2022-12-31 09:32:45</time>
      </trkpt>
      <trkpt lat="40.01876" lon="-3.85762">
        <ele>486.8</ele>
        <time>2022-12-31 09:32:46</time>
      </trkpt>
      <trkpt lat="40.01872" lon="-3.85755">
        <ele>486.6</ele>
        <time>2022-12-31 09:32:47</time>
      </trkpt>
      <trkpt lat="40.01869" lon="-3.85748">
        <ele>486.6</ele>
        <time>2022-12-31 09:32:48</time>
      </trkpt>
      <trkpt lat="40.01867" lon="-3.85739">
        <ele>486.6</ele>
        <time>2022-12-31 09:32:49</time>
      </trkpt>
      <trkpt lat="40.01865" lon="-3.8573">
        <ele>486.8</ele>
        <time>2022-12-31 09:32:50</time>
      </trkpt>
      <trkpt lat="40.01864" lon="-3.85721">
        <ele>486.8</ele>
        <time>2022-12-31 09:32:51</time>
      </trkpt>
      <trkpt lat="40.01864" lon="-3.85713">
        <ele>486.8</ele>
        <time>2022-12-31 09:32:52</time>
      </trkpt>
      <trkpt lat="40.01864" lon="-3.85704">
        <ele>486.6</ele>
        <time>2022-12-31 09:32:53</time>
      </trkpt>
      <trkpt lat="40.01864" lon="-3.85695">
        <ele>486.6</ele>
        <time>2022-12-31 09:32:54</time>
      </trkpt>
      <trkpt lat="40.01865" lon="-3.85687">
        <ele>486.6</ele>
        <time>2022-12-31 09:32:55</time>
      </trkpt>
      <trkpt lat="40.01865" lon="-3.85678">
        <ele>486.6</ele>
        <time>2022-12-31 09:32:56</time>
      </trkpt>
      <trkpt lat="40.01866" lon="-3.85669">
        <ele>486.6</ele>
        <time>2022-12-31 09:32:57</time>
      </trkpt>
      <trkpt lat="40.01866" lon="-3.85661">
        <ele>486.6</ele>
        <time>2022-12-31 09:32:58</time>
      </trkpt>
      <trkpt lat="40.01865" lon="-3.85652">
        <ele>486.6</ele>
        <time>2022-12-31 09:32:59</time>
      </trkpt>
      <trkpt lat="40.01864" lon="-3.85644">
        <ele>486.6</ele>
        <time>2022-12-31 09:33:00</time>
      </trkpt>
      <trkpt lat="40.01862" lon="-3.85635">
        <ele>486.6</ele>
        <time>2022-12-31 09:33:01</time>
      </trkpt>
      <trkpt lat="40.01861" lon="-3.85626">
        <ele>486.6</ele>
        <time>2022-12-31 09:33:02</time>
      </trkpt>
      <trkpt lat="40.01859" lon="-3.85618">
        <ele>486.6</ele>
        <time>2022-12-31 09:33:03</time>
      </trkpt>
      <trkpt lat="40.01857" lon="-3.85609">
        <ele>486.8</ele>
        <time>2022-12-31 09:33:04</time>
      </trkpt>
      <trkpt lat="40.01855" lon="-3.856">
        <ele>486.6</ele>
        <time>2022-12-31 09:33:05</time>
      </trkpt>
      <trkpt lat="40.01853" lon="-3.85591">
        <ele>486.6</ele>
        <time>2022-12-31 09:33:06</time>
      </trkpt>
      <trkpt lat="40.0185" lon="-3.85583">
        <ele>486.6</ele>
        <time>2022-12-31 09:33:07</time>
      </trkpt>
      <trkpt lat="40.01848" lon="-3.85575">
        <ele>486.6</ele>
        <time>2022-12-31 09:33:08</time>
      </trkpt>
      <trkpt lat="40.01845" lon="-3.85566">
        <ele>486.6</ele>
        <time>2022-12-31 09:33:09</time>
      </trkpt>
      <trkpt lat="40.01842" lon="-3.85558">
        <ele>486.6</ele>
        <time>2022-12-31 09:33:10</time>
      </trkpt>
      <trkpt lat="40.01839" lon="-3.8555">
        <ele>486.6</ele>
        <time>2022-12-31 09:33:11</time>
      </trkpt>
      <trkpt lat="40.01835" lon="-3.85542">
        <ele>486.6</ele>
        <time>2022-12-31 09:33:12</time>
      </trkpt>
      <trkpt lat="40.01831" lon="-3.85535">
        <ele>486.6</ele>
        <time>2022-12-31 09:33:13</time>
      </trkpt>
      <trkpt lat="40.01827" lon="-3.85527">
        <ele>486.4</ele>
        <time>2022-12-31 09:33:14</time>
      </trkpt>
      <trkpt lat="40.01823" lon="-3.85519">
        <ele>486.4</ele>
        <time>2022-12-31 09:33:15</time>
      </trkpt>
      <trkpt lat="40.01819" lon="-3.85513">
        <ele>486.2</ele>
        <time>2022-12-31 09:33:16</time>
      </trkpt>
      <trkpt lat="40.01815" lon="-3.85506">
        <ele>486</ele>
        <time>2022-12-31 09:33:17</time>
      </trkpt>
      <trkpt lat="40.0181" lon="-3.855">
        <ele>485.6</ele>
        <time>2022-12-31 09:33:18</time>
      </trkpt>
      <trkpt lat="40.01805" lon="-3.85494">
        <ele>485.6</ele>
        <time>2022-12-31 09:33:19</time>
      </trkpt>
      <trkpt lat="40.018" lon="-3.85488">
        <ele>485.6</ele>
        <time>2022-12-31 09:33:20</time>
      </trkpt>
      <trkpt lat="40.01795" lon="-3.85482">
        <ele>485.6</ele>
        <time>2022-12-31 09:33:21</time>
      </trkpt>
      <trkpt lat="40.0179" lon="-3.85476">
        <ele>485.4</ele>
        <time>2022-12-31 09:33:22</time>
      </trkpt>
      <trkpt lat="40.01784" lon="-3.85471">
        <ele>485.4</ele>
        <time>2022-12-31 09:33:23</time>
      </trkpt>
      <trkpt lat="40.01779" lon="-3.85466">
        <ele>485.4</ele>
        <time>2022-12-31 09:33:24</time>
      </trkpt>
      <trkpt lat="40.01773" lon="-3.8546">
        <ele>485.4</ele>
        <time>2022-12-31 09:33:25</time>
      </trkpt>
      <trkpt lat="40.01767" lon="-3.85455">
        <ele>485.2</ele>
        <time>2022-12-31 09:33:26</time>
      </trkpt>
      <trkpt lat="40.01761" lon="-3.8545">
        <ele>485.2</ele>
        <time>2022-12-31 09:33:27</time>
      </trkpt>
      <trkpt lat="40.01755" lon="-3.85446">
        <ele>485.2</ele>
        <time>2022-12-31 09:33:28</time>
      </trkpt>
      <trkpt lat="40.01749" lon="-3.85441">
        <ele>485.2</ele>
        <time>2022-12-31 09:33:29</time>
      </trkpt>
      <trkpt lat="40.01742" lon="-3.85436">
        <ele>485.2</ele>
        <time>2022-12-31 09:33:30</time>
      </trkpt>
      <trkpt lat="40.01736" lon="-3.85431">
        <ele>485.2</ele>
        <time>2022-12-31 09:33:31</time>
      </trkpt>
      <trkpt lat="40.0173" lon="-3.85427">
        <ele>485</ele>
        <time>2022-12-31 09:33:32</time>
      </trkpt>
      <trkpt lat="40.01723" lon="-3.85422">
        <ele>485.2</ele>
        <time>2022-12-31 09:33:33</time>
      </trkpt>
      <trkpt lat="40.01717" lon="-3.85417">
        <ele>484.8</ele>
        <time>2022-12-31 09:33:34</time>
      </trkpt>
      <trkpt lat="40.01711" lon="-3.85412">
        <ele>484.8</ele>
        <time>2022-12-31 09:33:35</time>
      </trkpt>
      <trkpt lat="40.01705" lon="-3.85407">
        <ele>484.8</ele>
        <time>2022-12-31 09:33:36</time>
      </trkpt>
      <trkpt lat="40.01698" lon="-3.85402">
        <ele>484.6</ele>
        <time>2022-12-31 09:33:37</time>
      </trkpt>
      <trkpt lat="40.01692" lon="-3.85397">
        <ele>484.4</ele>
        <time>2022-12-31 09:33:38</time>
      </trkpt>
      <trkpt lat="40.01687" lon="-3.85392">
        <ele>484.4</ele>
        <time>2022-12-31 09:33:39</time>
      </trkpt>
      <trkpt lat="40.01681" lon="-3.85387">
        <ele>484.2</ele>
        <time>2022-12-31 09:33:40</time>
      </trkpt>
      <trkpt lat="40.01676" lon="-3.85381">
        <ele>484.2</ele>
        <time>2022-12-31 09:33:41</time>
      </trkpt>
      <trkpt lat="40.01671" lon="-3.85374">
        <ele>484.2</ele>
        <time>2022-12-31 09:33:42</time>
      </trkpt>
      <trkpt lat="40.01669" lon="-3.85366">
        <ele>484.2</ele>
        <time>2022-12-31 09:33:43</time>
      </trkpt>
      <trkpt lat="40.01667" lon="-3.85358">
        <ele>484.2</ele>
        <time>2022-12-31 09:33:44</time>
      </trkpt>
      <trkpt lat="40.01666" lon="-3.85349">
        <ele>484</ele>
        <time>2022-12-31 09:33:45</time>
      </trkpt>
      <trkpt lat="40.01666" lon="-3.8534">
        <ele>484</ele>
        <time>2022-12-31 09:33:46</time>
      </trkpt>
      <trkpt lat="40.01667" lon="-3.85332">
        <ele>484</ele>
        <time>2022-12-31 09:33:47</time>
      </trkpt>
      <trkpt lat="40.01668" lon="-3.85324">
        <ele>484</ele>
        <time>2022-12-31 09:33:48</time>
      </trkpt>
      <trkpt lat="40.01669" lon="-3.85316">
        <ele>483.8</ele>
        <time>2022-12-31 09:33:49</time>
      </trkpt>
      <trkpt lat="40.01671" lon="-3.85309">
        <ele>483.8</ele>
        <time>2022-12-31 09:33:50</time>
      </trkpt>
      <trkpt lat="40.01674" lon="-3.85303">
        <ele>483.8</ele>
        <time>2022-12-31 09:33:51</time>
      </trkpt>
      <trkpt lat="40.01678" lon="-3.85298">
        <ele>483.8</ele>
        <time>2022-12-31 09:33:52</time>
      </trkpt>
      <trkpt lat="40.01682" lon="-3.85294">
        <ele>483.8</ele>
        <time>2022-12-31 09:33:53</time>
      </trkpt>
      <trkpt lat="40.01687" lon="-3.8529">
        <ele>483.8</ele>
        <time>2022-12-31 09:33:54</time>
      </trkpt>
      <trkpt lat="40.01692" lon="-3.85288">
        <ele>483.8</ele>
        <time>2022-12-31 09:33:55</time>
      </trkpt>
      <trkpt lat="40.01698" lon="-3.85286">
        <ele>483.6</ele>
        <time>2022-12-31 09:33:56</time>
      </trkpt>
      <trkpt lat="40.01703" lon="-3.85285">
        <ele>483.6</ele>
        <time>2022-12-31 09:33:57</time>
      </trkpt>
      <trkpt lat="40.01709" lon="-3.85284">
        <ele>483.8</ele>
        <time>2022-12-31 09:33:58</time>
      </trkpt>
      <trkpt lat="40.01715" lon="-3.85284">
        <ele>483.6</ele>
        <time>2022-12-31 09:33:59</time>
      </trkpt>
      <trkpt lat="40.01721" lon="-3.85284">
        <ele>483.6</ele>
        <time>2022-12-31 09:34:00</time>
      </trkpt>
      <trkpt lat="40.01727" lon="-3.85284">
        <ele>483.4</ele>
        <time>2022-12-31 09:34:01</time>
      </trkpt>
      <trkpt lat="40.01733" lon="-3.85285">
        <ele>483.4</ele>
        <time>2022-12-31 09:34:02</time>
      </trkpt>
      <trkpt lat="40.01739" lon="-3.85286">
        <ele>483.4</ele>
        <time>2022-12-31 09:34:03</time>
      </trkpt>
      <trkpt lat="40.01746" lon="-3.85286">
        <ele>483.6</ele>
        <time>2022-12-31 09:34:04</time>
      </trkpt>
      <trkpt lat="40.01752" lon="-3.85286">
        <ele>483.4</ele>
        <time>2022-12-31 09:34:05</time>
      </trkpt>
      <trkpt lat="40.01758" lon="-3.85287">
        <ele>483.6</ele>
        <time>2022-12-31 09:34:06</time>
      </trkpt>
      <trkpt lat="40.01764" lon="-3.85287">
        <ele>483.4</ele>
        <time>2022-12-31 09:34:07</time>
      </trkpt>
      <trkpt lat="40.01771" lon="-3.85288">
        <ele>483.4</ele>
        <time>2022-12-31 09:34:08</time>
      </trkpt>
      <trkpt lat="40.01777" lon="-3.85288">
        <ele>483.6</ele>
        <time>2022-12-31 09:34:09</time>
      </trkpt>
      <trkpt lat="40.01783" lon="-3.85289">
        <ele>483.6</ele>
        <time>2022-12-31 09:34:10</time>
      </trkpt>
      <trkpt lat="40.01789" lon="-3.85289">
        <ele>483.6</ele>
        <time>2022-12-31 09:34:11</time>
      </trkpt>
      <trkpt lat="40.01795" lon="-3.85289">
        <ele>483.6</ele>
        <time>2022-12-31 09:34:12</time>
      </trkpt>
      <trkpt lat="40.01801" lon="-3.85289">
        <ele>483.4</ele>
        <time>2022-12-31 09:34:13</time>
      </trkpt>
      <trkpt lat="40.01808" lon="-3.85289">
        <ele>483.4</ele>
        <time>2022-12-31 09:34:14</time>
      </trkpt>
      <trkpt lat="40.01814" lon="-3.8529">
        <ele>483.6</ele>
        <time>2022-12-31 09:34:15</time>
      </trkpt>
      <trkpt lat="40.0182" lon="-3.8529">
        <ele>483.4</ele>
        <time>2022-12-31 09:34:16</time>
      </trkpt>
      <trkpt lat="40.01826" lon="-3.8529">
        <ele>483.6</ele>
        <time>2022-12-31 09:34:17</time>
      </trkpt>
      <trkpt lat="40.01832" lon="-3.8529">
        <ele>483.6</ele>
        <time>2022-12-31 09:34:18</time>
      </trkpt>
      <trkpt lat="40.01838" lon="-3.85291">
        <ele>483.6</ele>
        <time>2022-12-31 09:34:19</time>
      </trkpt>
      <trkpt lat="40.01844" lon="-3.85291">
        <ele>483.6</ele>
        <time>2022-12-31 09:34:20</time>
      </trkpt>
      <trkpt lat="40.0185" lon="-3.85292">
        <ele>483.6</ele>
        <time>2022-12-31 09:34:21</time>
      </trkpt>
      <trkpt lat="40.01856" lon="-3.85292">
        <ele>483.6</ele>
        <time>2022-12-31 09:34:22</time>
      </trkpt>
      <trkpt lat="40.01862" lon="-3.85292">
        <ele>483.8</ele>
        <time>2022-12-31 09:34:23</time>
      </trkpt>
      <trkpt lat="40.01868" lon="-3.85292">
        <ele>483.8</ele>
        <time>2022-12-31 09:34:24</time>
      </trkpt>
      <trkpt lat="40.01874" lon="-3.85292">
        <ele>483.6</ele>
        <time>2022-12-31 09:34:25</time>
      </trkpt>
      <trkpt lat="40.0188" lon="-3.85292">
        <ele>483.8</ele>
        <time>2022-12-31 09:34:26</time>
      </trkpt>
      <trkpt lat="40.01886" lon="-3.85292">
        <ele>483.8</ele>
        <time>2022-12-31 09:34:27</time>
      </trkpt>
      <trkpt lat="40.01892" lon="-3.85292">
        <ele>483.8</ele>
        <time>2022-12-31 09:34:28</time>
      </trkpt>
      <trkpt lat="40.01899" lon="-3.85292">
        <ele>483.8</ele>
        <time>2022-12-31 09:34:29</time>
      </trkpt>
      <trkpt lat="40.01905" lon="-3.85292">
        <ele>483.8</ele>
        <time>2022-12-31 09:34:30</time>
      </trkpt>
      <trkpt lat="40.01911" lon="-3.85292">
        <ele>483.8</ele>
        <time>2022-12-31 09:34:31</time>
      </trkpt>
      <trkpt lat="40.01916" lon="-3.85292">
        <ele>484</ele>
        <time>2022-12-31 09:34:32</time>
      </trkpt>
      <trkpt lat="40.01922" lon="-3.85292">
        <ele>483.8</ele>
        <time>2022-12-31 09:34:33</time>
      </trkpt>
      <trkpt lat="40.01928" lon="-3.85292">
        <ele>484</ele>
        <time>2022-12-31 09:34:34</time>
      </trkpt>
      <trkpt lat="40.01934" lon="-3.85292">
        <ele>484</ele>
        <time>2022-12-31 09:34:35</time>
      </trkpt>
      <trkpt lat="40.0194" lon="-3.85291">
        <ele>484.2</ele>
        <time>2022-12-31 09:34:36</time>
      </trkpt>
      <trkpt lat="40.01946" lon="-3.85291">
        <ele>484</ele>
        <time>2022-12-31 09:34:37</time>
      </trkpt>
      <trkpt lat="40.01952" lon="-3.85291">
        <ele>484</ele>
        <time>2022-12-31 09:34:38</time>
      </trkpt>
      <trkpt lat="40.01958" lon="-3.85291">
        <ele>484.2</ele>
        <time>2022-12-31 09:34:39</time>
      </trkpt>
      <trkpt lat="40.01964" lon="-3.85291">
        <ele>484</ele>
        <time>2022-12-31 09:34:40</time>
      </trkpt>
      <trkpt lat="40.0197" lon="-3.85291">
        <ele>484</ele>
        <time>2022-12-31 09:34:41</time>
      </trkpt>
      <trkpt lat="40.01976" lon="-3.85291">
        <ele>484.2</ele>
        <time>2022-12-31 09:34:42</time>
      </trkpt>
      <trkpt lat="40.01982" lon="-3.85291">
        <ele>484.2</ele>
        <time>2022-12-31 09:34:43</time>
      </trkpt>
      <trkpt lat="40.01988" lon="-3.85291">
        <ele>484.2</ele>
        <time>2022-12-31 09:34:44</time>
      </trkpt>
      <trkpt lat="40.01994" lon="-3.85291">
        <ele>484.2</ele>
        <time>2022-12-31 09:34:45</time>
      </trkpt>
      <trkpt lat="40.02001" lon="-3.85291">
        <ele>484.4</ele>
        <time>2022-12-31 09:34:46</time>
      </trkpt>
      <trkpt lat="40.02007" lon="-3.85291">
        <ele>484.4</ele>
        <time>2022-12-31 09:34:47</time>
      </trkpt>
      <trkpt lat="40.02013" lon="-3.85291">
        <ele>484.4</ele>
        <time>2022-12-31 09:34:48</time>
      </trkpt>
      <trkpt lat="40.02019" lon="-3.85291">
        <ele>484.4</ele>
        <time>2022-12-31 09:34:49</time>
      </trkpt>
      <trkpt lat="40.02024" lon="-3.85291">
        <ele>484.4</ele>
        <time>2022-12-31 09:34:50</time>
      </trkpt>
      <trkpt lat="40.0203" lon="-3.85291">
        <ele>484.4</ele>
        <time>2022-12-31 09:34:51</time>
      </trkpt>
      <trkpt lat="40.02035" lon="-3.85292">
        <ele>484.6</ele>
        <time>2022-12-31 09:34:52</time>
      </trkpt>
      <trkpt lat="40.02039" lon="-3.85292">
        <ele>484.4</ele>
        <time>2022-12-31 09:34:53</time>
      </trkpt>
      <trkpt lat="40.02044" lon="-3.85292">
        <ele>484.4</ele>
        <time>2022-12-31 09:34:54</time>
      </trkpt>
      <trkpt lat="40.02049" lon="-3.85292">
        <ele>484.4</ele>
        <time>2022-12-31 09:34:55</time>
      </trkpt>
      <trkpt lat="40.02053" lon="-3.85292">
        <ele>484.4</ele>
        <time>2022-12-31 09:34:56</time>
      </trkpt>
      <trkpt lat="40.02057" lon="-3.85293">
        <ele>484.6</ele>
        <time>2022-12-31 09:34:57</time>
      </trkpt>
      <trkpt lat="40.0206" lon="-3.85293">
        <ele>484.6</ele>
        <time>2022-12-31 09:34:58</time>
      </trkpt>
      <trkpt lat="40.02063" lon="-3.85293">
        <ele>484.6</ele>
        <time>2022-12-31 09:34:59</time>
      </trkpt>
      <trkpt lat="40.02065" lon="-3.85292">
        <ele>484.6</ele>
        <time>2022-12-31 09:35:00</time>
      </trkpt>
      <trkpt lat="40.02067" lon="-3.85289">
        <ele>484.8</ele>
        <time>2022-12-31 09:35:01</time>
      </trkpt>
      <trkpt lat="40.02069" lon="-3.85285">
        <ele>485</ele>
        <time>2022-12-31 09:35:02</time>
      </trkpt>
      <trkpt lat="40.02071" lon="-3.85282">
        <ele>485</ele>
        <time>2022-12-31 09:35:03</time>
      </trkpt>
      <trkpt lat="40.02072" lon="-3.85278">
        <ele>485.2</ele>
        <time>2022-12-31 09:35:04</time>
      </trkpt>
      <trkpt lat="40.02074" lon="-3.85275">
        <ele>485.4</ele>
        <time>2022-12-31 09:35:05</time>
      </trkpt>
      <trkpt lat="40.02076" lon="-3.85272">
        <ele>485.6</ele>
        <time>2022-12-31 09:35:06</time>
      </trkpt>
      <trkpt lat="40.02078" lon="-3.85268">
        <ele>485.8</ele>
        <time>2022-12-31 09:35:07</time>
      </trkpt>
      <trkpt lat="40.02079" lon="-3.85263">
        <ele>486</ele>
        <time>2022-12-31 09:35:08</time>
      </trkpt>
      <trkpt lat="40.0208" lon="-3.85257">
        <ele>485.8</ele>
        <time>2022-12-31 09:35:09</time>
      </trkpt>
      <trkpt lat="40.0208" lon="-3.85251">
        <ele>485.8</ele>
        <time>2022-12-31 09:35:10</time>
      </trkpt>
      <trkpt lat="40.02079" lon="-3.85244">
        <ele>485.8</ele>
        <time>2022-12-31 09:35:11</time>
      </trkpt>
      <trkpt lat="40.02077" lon="-3.85237">
        <ele>485.8</ele>
        <time>2022-12-31 09:35:12</time>
      </trkpt>
      <trkpt lat="40.02076" lon="-3.8523">
        <ele>486</ele>
        <time>2022-12-31 09:35:13</time>
      </trkpt>
      <trkpt lat="40.02075" lon="-3.85223">
        <ele>486</ele>
        <time>2022-12-31 09:35:14</time>
      </trkpt>
      <trkpt lat="40.02074" lon="-3.85216">
        <ele>486</ele>
        <time>2022-12-31 09:35:15</time>
      </trkpt>
      <trkpt lat="40.02072" lon="-3.85209">
        <ele>486</ele>
        <time>2022-12-31 09:35:16</time>
      </trkpt>
      <trkpt lat="40.02071" lon="-3.85201">
        <ele>486</ele>
        <time>2022-12-31 09:35:17</time>
      </trkpt>
      <trkpt lat="40.0207" lon="-3.85194">
        <ele>485.8</ele>
        <time>2022-12-31 09:35:18</time>
      </trkpt>
      <trkpt lat="40.02069" lon="-3.85186">
        <ele>485.8</ele>
        <time>2022-12-31 09:35:19</time>
      </trkpt>
      <trkpt lat="40.02068" lon="-3.85178">
        <ele>485.8</ele>
        <time>2022-12-31 09:35:20</time>
      </trkpt>
      <trkpt lat="40.02067" lon="-3.8517">
        <ele>485.8</ele>
        <time>2022-12-31 09:35:21</time>
      </trkpt>
      <trkpt lat="40.02066" lon="-3.85163">
        <ele>485.8</ele>
        <time>2022-12-31 09:35:22</time>
      </trkpt>
      <trkpt lat="40.02064" lon="-3.85155">
        <ele>485.6</ele>
        <time>2022-12-31 09:35:23</time>
      </trkpt>
      <trkpt lat="40.02063" lon="-3.85147">
        <ele>485.6</ele>
        <time>2022-12-31 09:35:24</time>
      </trkpt>
      <trkpt lat="40.02062" lon="-3.85139">
        <ele>485.6</ele>
        <time>2022-12-31 09:35:25</time>
      </trkpt>
      <trkpt lat="40.02061" lon="-3.85132">
        <ele>485.4</ele>
        <time>2022-12-31 09:35:26</time>
      </trkpt>
      <trkpt lat="40.0206" lon="-3.85124">
        <ele>485.4</ele>
        <time>2022-12-31 09:35:27</time>
      </trkpt>
      <trkpt lat="40.02058" lon="-3.85116">
        <ele>485.2</ele>
        <time>2022-12-31 09:35:28</time>
      </trkpt>
      <trkpt lat="40.02057" lon="-3.85108">
        <ele>485.2</ele>
        <time>2022-12-31 09:35:29</time>
      </trkpt>
      <trkpt lat="40.02056" lon="-3.851">
        <ele>485.4</ele>
        <time>2022-12-31 09:35:30</time>
      </trkpt>
      <trkpt lat="40.02055" lon="-3.85093">
        <ele>485.4</ele>
        <time>2022-12-31 09:35:31</time>
      </trkpt>
      <trkpt lat="40.02054" lon="-3.85085">
        <ele>485.2</ele>
        <time>2022-12-31 09:35:32</time>
      </trkpt>
      <trkpt lat="40.02053" lon="-3.85077">
        <ele>485.2</ele>
        <time>2022-12-31 09:35:33</time>
      </trkpt>
      <trkpt lat="40.02052" lon="-3.85069">
        <ele>485</ele>
        <time>2022-12-31 09:35:34</time>
      </trkpt>
      <trkpt lat="40.02051" lon="-3.85061">
        <ele>485.2</ele>
        <time>2022-12-31 09:35:35</time>
      </trkpt>
      <trkpt lat="40.0205" lon="-3.85053">
        <ele>485</ele>
        <time>2022-12-31 09:35:36</time>
      </trkpt>
      <trkpt lat="40.02049" lon="-3.85045">
        <ele>485</ele>
        <time>2022-12-31 09:35:37</time>
      </trkpt>
      <trkpt lat="40.02048" lon="-3.85037">
        <ele>485</ele>
        <time>2022-12-31 09:35:38</time>
      </trkpt>
      <trkpt lat="40.02046" lon="-3.8503">
        <ele>484.8</ele>
        <time>2022-12-31 09:35:39</time>
      </trkpt>
      <trkpt lat="40.02045" lon="-3.85022">
        <ele>484.6</ele>
        <time>2022-12-31 09:35:40</time>
      </trkpt>
      <trkpt lat="40.02044" lon="-3.85014">
        <ele>484.8</ele>
        <time>2022-12-31 09:35:41</time>
      </trkpt>
      <trkpt lat="40.02043" lon="-3.85006">
        <ele>484.6</ele>
        <time>2022-12-31 09:35:42</time>
      </trkpt>
      <trkpt lat="40.02042" lon="-3.84997">
        <ele>484.6</ele>
        <time>2022-12-31 09:35:43</time>
      </trkpt>
      <trkpt lat="40.02041" lon="-3.84989">
        <ele>484.6</ele>
        <time>2022-12-31 09:35:44</time>
      </trkpt>
      <trkpt lat="40.0204" lon="-3.84981">
        <ele>484.4</ele>
        <time>2022-12-31 09:35:45</time>
      </trkpt>
      <trkpt lat="40.02038" lon="-3.84973">
        <ele>484.6</ele>
        <time>2022-12-31 09:35:46</time>
      </trkpt>
      <trkpt lat="40.02036" lon="-3.84965">
        <ele>484.6</ele>
        <time>2022-12-31 09:35:47</time>
      </trkpt>
      <trkpt lat="40.02035" lon="-3.84958">
        <ele>484.6</ele>
        <time>2022-12-31 09:35:48</time>
      </trkpt>
      <trkpt lat="40.02033" lon="-3.8495">
        <ele>484.6</ele>
        <time>2022-12-31 09:35:49</time>
      </trkpt>
      <trkpt lat="40.02031" lon="-3.84942">
        <ele>484.6</ele>
        <time>2022-12-31 09:35:50</time>
      </trkpt>
      <trkpt lat="40.0203" lon="-3.84935">
        <ele>484.6</ele>
        <time>2022-12-31 09:35:51</time>
      </trkpt>
      <trkpt lat="40.02028" lon="-3.84927">
        <ele>484.6</ele>
        <time>2022-12-31 09:35:52</time>
      </trkpt>
      <trkpt lat="40.02026" lon="-3.8492">
        <ele>484.4</ele>
        <time>2022-12-31 09:35:53</time>
      </trkpt>
      <trkpt lat="40.02024" lon="-3.84912">
        <ele>484.4</ele>
        <time>2022-12-31 09:35:54</time>
      </trkpt>
      <trkpt lat="40.02022" lon="-3.84905">
        <ele>484.4</ele>
        <time>2022-12-31 09:35:55</time>
      </trkpt>
      <trkpt lat="40.0202" lon="-3.84897">
        <ele>484.4</ele>
        <time>2022-12-31 09:35:56</time>
      </trkpt>
      <trkpt lat="40.02018" lon="-3.84889">
        <ele>484.6</ele>
        <time>2022-12-31 09:35:57</time>
      </trkpt>
      <trkpt lat="40.02016" lon="-3.84881">
        <ele>484.6</ele>
        <time>2022-12-31 09:35:58</time>
      </trkpt>
      <trkpt lat="40.02014" lon="-3.84873">
        <ele>484.6</ele>
        <time>2022-12-31 09:35:59</time>
      </trkpt>
      <trkpt lat="40.02013" lon="-3.84865">
        <ele>484.6</ele>
        <time>2022-12-31 09:36:00</time>
      </trkpt>
      <trkpt lat="40.0201" lon="-3.84857">
        <ele>484.4</ele>
        <time>2022-12-31 09:36:01</time>
      </trkpt>
      <trkpt lat="40.02008" lon="-3.84848">
        <ele>484.4</ele>
        <time>2022-12-31 09:36:02</time>
      </trkpt>
      <trkpt lat="40.02006" lon="-3.8484">
        <ele>484.6</ele>
        <time>2022-12-31 09:36:03</time>
      </trkpt>
      <trkpt lat="40.02004" lon="-3.84832">
        <ele>484.6</ele>
        <time>2022-12-31 09:36:04</time>
      </trkpt>
      <trkpt lat="40.02002" lon="-3.84823">
        <ele>484.6</ele>
        <time>2022-12-31 09:36:05</time>
      </trkpt>
      <trkpt lat="40.02" lon="-3.84815">
        <ele>484.6</ele>
        <time>2022-12-31 09:36:06</time>
      </trkpt>
      <trkpt lat="40.01998" lon="-3.84806">
        <ele>484.6</ele>
        <time>2022-12-31 09:36:07</time>
      </trkpt>
      <trkpt lat="40.01996" lon="-3.84798">
        <ele>484.6</ele>
        <time>2022-12-31 09:36:08</time>
      </trkpt>
      <trkpt lat="40.01994" lon="-3.8479">
        <ele>484.6</ele>
        <time>2022-12-31 09:36:09</time>
      </trkpt>
      <trkpt lat="40.01992" lon="-3.84782">
        <ele>484.6</ele>
        <time>2022-12-31 09:36:10</time>
      </trkpt>
      <trkpt lat="40.0199" lon="-3.84774">
        <ele>484.4</ele>
        <time>2022-12-31 09:36:11</time>
      </trkpt>
      <trkpt lat="40.01988" lon="-3.84765">
        <ele>484.4</ele>
        <time>2022-12-31 09:36:12</time>
      </trkpt>
      <trkpt lat="40.01985" lon="-3.84757">
        <ele>484.4</ele>
        <time>2022-12-31 09:36:13</time>
      </trkpt>
      <trkpt lat="40.01983" lon="-3.84749">
        <ele>484.2</ele>
        <time>2022-12-31 09:36:14</time>
      </trkpt>
      <trkpt lat="40.0198" lon="-3.8474">
        <ele>484.2</ele>
        <time>2022-12-31 09:36:15</time>
      </trkpt>
      <trkpt lat="40.01978" lon="-3.84732">
        <ele>484</ele>
        <time>2022-12-31 09:36:16</time>
      </trkpt>
      <trkpt lat="40.01976" lon="-3.84724">
        <ele>484</ele>
        <time>2022-12-31 09:36:17</time>
      </trkpt>
      <trkpt lat="40.01974" lon="-3.84716">
        <ele>483.8</ele>
        <time>2022-12-31 09:36:18</time>
      </trkpt>
      <trkpt lat="40.01972" lon="-3.84707">
        <ele>483.8</ele>
        <time>2022-12-31 09:36:19</time>
      </trkpt>
      <trkpt lat="40.0197" lon="-3.84699">
        <ele>483.6</ele>
        <time>2022-12-31 09:36:20</time>
      </trkpt>
      <trkpt lat="40.01968" lon="-3.84691">
        <ele>483.6</ele>
        <time>2022-12-31 09:36:21</time>
      </trkpt>
      <trkpt lat="40.01966" lon="-3.84682">
        <ele>483.6</ele>
        <time>2022-12-31 09:36:22</time>
      </trkpt>
      <trkpt lat="40.01964" lon="-3.84674">
        <ele>483.6</ele>
        <time>2022-12-31 09:36:23</time>
      </trkpt>
      <trkpt lat="40.01961" lon="-3.84666">
        <ele>483.6</ele>
        <time>2022-12-31 09:36:24</time>
      </trkpt>
      <trkpt lat="40.01959" lon="-3.84657">
        <ele>483.4</ele>
        <time>2022-12-31 09:36:25</time>
      </trkpt>
      <trkpt lat="40.01957" lon="-3.84648">
        <ele>483.2</ele>
        <time>2022-12-31 09:36:26</time>
      </trkpt>
      <trkpt lat="40.01955" lon="-3.8464">
        <ele>483.2</ele>
        <time>2022-12-31 09:36:27</time>
      </trkpt>
      <trkpt lat="40.01953" lon="-3.84631">
        <ele>483.2</ele>
        <time>2022-12-31 09:36:28</time>
      </trkpt>
      <trkpt lat="40.01951" lon="-3.84622">
        <ele>483.2</ele>
        <time>2022-12-31 09:36:29</time>
      </trkpt>
      <trkpt lat="40.01949" lon="-3.84614">
        <ele>483.2</ele>
        <time>2022-12-31 09:36:30</time>
      </trkpt>
      <trkpt lat="40.01948" lon="-3.84605">
        <ele>483.2</ele>
        <time>2022-12-31 09:36:31</time>
      </trkpt>
      <trkpt lat="40.01947" lon="-3.84597">
        <ele>483.2</ele>
        <time>2022-12-31 09:36:32</time>
      </trkpt>
      <trkpt lat="40.01946" lon="-3.84588">
        <ele>483</ele>
        <time>2022-12-31 09:36:33</time>
      </trkpt>
      <trkpt lat="40.01946" lon="-3.84579">
        <ele>483</ele>
        <time>2022-12-31 09:36:34</time>
      </trkpt>
      <trkpt lat="40.01946" lon="-3.84571">
        <ele>483</ele>
        <time>2022-12-31 09:36:35</time>
      </trkpt>
      <trkpt lat="40.01947" lon="-3.84562">
        <ele>483.2</ele>
        <time>2022-12-31 09:36:36</time>
      </trkpt>
      <trkpt lat="40.01948" lon="-3.84554">
        <ele>483</ele>
        <time>2022-12-31 09:36:37</time>
      </trkpt>
      <trkpt lat="40.01949" lon="-3.84545">
        <ele>483</ele>
        <time>2022-12-31 09:36:38</time>
      </trkpt>
      <trkpt lat="40.01951" lon="-3.84536">
        <ele>482.8</ele>
        <time>2022-12-31 09:36:39</time>
      </trkpt>
      <trkpt lat="40.01952" lon="-3.84528">
        <ele>483</ele>
        <time>2022-12-31 09:36:40</time>
      </trkpt>
      <trkpt lat="40.01954" lon="-3.8452">
        <ele>483</ele>
        <time>2022-12-31 09:36:41</time>
      </trkpt>
      <trkpt lat="40.01955" lon="-3.84511">
        <ele>483</ele>
        <time>2022-12-31 09:36:42</time>
      </trkpt>
      <trkpt lat="40.01956" lon="-3.84503">
        <ele>482.8</ele>
        <time>2022-12-31 09:36:43</time>
      </trkpt>
      <trkpt lat="40.01957" lon="-3.84496">
        <ele>482.4</ele>
        <time>2022-12-31 09:36:44</time>
      </trkpt>
      <trkpt lat="40.01958" lon="-3.84487">
        <ele>482.4</ele>
        <time>2022-12-31 09:36:45</time>
      </trkpt>
      <trkpt lat="40.01959" lon="-3.84479">
        <ele>482.4</ele>
        <time>2022-12-31 09:36:46</time>
      </trkpt>
      <trkpt lat="40.0196" lon="-3.84471">
        <ele>482.4</ele>
        <time>2022-12-31 09:36:47</time>
      </trkpt>
      <trkpt lat="40.01961" lon="-3.84463">
        <ele>482.4</ele>
        <time>2022-12-31 09:36:48</time>
      </trkpt>
      <trkpt lat="40.01962" lon="-3.84455">
        <ele>482.4</ele>
        <time>2022-12-31 09:36:49</time>
      </trkpt>
      <trkpt lat="40.01963" lon="-3.84446">
        <ele>482.4</ele>
        <time>2022-12-31 09:36:50</time>
      </trkpt>
      <trkpt lat="40.01964" lon="-3.84438">
        <ele>482.4</ele>
        <time>2022-12-31 09:36:51</time>
      </trkpt>
      <trkpt lat="40.01966" lon="-3.8443">
        <ele>482.4</ele>
        <time>2022-12-31 09:36:52</time>
      </trkpt>
      <trkpt lat="40.01968" lon="-3.84422">
        <ele>482.2</ele>
        <time>2022-12-31 09:36:53</time>
      </trkpt>
      <trkpt lat="40.0197" lon="-3.84414">
        <ele>482.2</ele>
        <time>2022-12-31 09:36:54</time>
      </trkpt>
      <trkpt lat="40.01971" lon="-3.84406">
        <ele>482.4</ele>
        <time>2022-12-31 09:36:55</time>
      </trkpt>
      <trkpt lat="40.01972" lon="-3.84398">
        <ele>482.2</ele>
        <time>2022-12-31 09:36:56</time>
      </trkpt>
      <trkpt lat="40.01973" lon="-3.8439">
        <ele>482.4</ele>
        <time>2022-12-31 09:36:57</time>
      </trkpt>
      <trkpt lat="40.01974" lon="-3.84383">
        <ele>482.4</ele>
        <time>2022-12-31 09:36:58</time>
      </trkpt>
      <trkpt lat="40.01975" lon="-3.84375">
        <ele>482.4</ele>
        <time>2022-12-31 09:36:59</time>
      </trkpt>
      <trkpt lat="40.01976" lon="-3.84367">
        <ele>482.4</ele>
        <time>2022-12-31 09:37:00</time>
      </trkpt>
      <trkpt lat="40.01977" lon="-3.84359">
        <ele>482.4</ele>
        <time>2022-12-31 09:37:01</time>
      </trkpt>
      <trkpt lat="40.01978" lon="-3.84351">
        <ele>482.6</ele>
        <time>2022-12-31 09:37:02</time>
      </trkpt>
      <trkpt lat="40.0198" lon="-3.84343">
        <ele>482.6</ele>
        <time>2022-12-31 09:37:03</time>
      </trkpt>
      <trkpt lat="40.01983" lon="-3.84335">
        <ele>482.6</ele>
        <time>2022-12-31 09:37:04</time>
      </trkpt>
      <trkpt lat="40.01986" lon="-3.84327">
        <ele>482.6</ele>
        <time>2022-12-31 09:37:05</time>
      </trkpt>
      <trkpt lat="40.0199" lon="-3.84321">
        <ele>482.6</ele>
        <time>2022-12-31 09:37:06</time>
      </trkpt>
      <trkpt lat="40.01994" lon="-3.84315">
        <ele>482.8</ele>
        <time>2022-12-31 09:37:07</time>
      </trkpt>
      <trkpt lat="40.01999" lon="-3.84309">
        <ele>482.8</ele>
        <time>2022-12-31 09:37:08</time>
      </trkpt>
      <trkpt lat="40.02004" lon="-3.84304">
        <ele>482.8</ele>
        <time>2022-12-31 09:37:09</time>
      </trkpt>
      <trkpt lat="40.02008" lon="-3.84299">
        <ele>482.8</ele>
        <time>2022-12-31 09:37:10</time>
      </trkpt>
      <trkpt lat="40.02013" lon="-3.84294">
        <ele>483</ele>
        <time>2022-12-31 09:37:11</time>
      </trkpt>
      <trkpt lat="40.02018" lon="-3.84289">
        <ele>482.8</ele>
        <time>2022-12-31 09:37:12</time>
      </trkpt>
      <trkpt lat="40.02022" lon="-3.84284">
        <ele>483</ele>
        <time>2022-12-31 09:37:13</time>
      </trkpt>
      <trkpt lat="40.02028" lon="-3.8428">
        <ele>483</ele>
        <time>2022-12-31 09:37:14</time>
      </trkpt>
      <trkpt lat="40.02033" lon="-3.84275">
        <ele>482.8</ele>
        <time>2022-12-31 09:37:15</time>
      </trkpt>
      <trkpt lat="40.02038" lon="-3.84271">
        <ele>483</ele>
        <time>2022-12-31 09:37:16</time>
      </trkpt>
      <trkpt lat="40.02044" lon="-3.84267">
        <ele>482.8</ele>
        <time>2022-12-31 09:37:17</time>
      </trkpt>
      <trkpt lat="40.02048" lon="-3.84263">
        <ele>483</ele>
        <time>2022-12-31 09:37:18</time>
      </trkpt>
      <trkpt lat="40.02053" lon="-3.84258">
        <ele>483.2</ele>
        <time>2022-12-31 09:37:19</time>
      </trkpt>
      <trkpt lat="40.02058" lon="-3.84253">
        <ele>483.2</ele>
        <time>2022-12-31 09:37:20</time>
      </trkpt>
      <trkpt lat="40.02063" lon="-3.84247">
        <ele>483.4</ele>
        <time>2022-12-31 09:37:21</time>
      </trkpt>
      <trkpt lat="40.02068" lon="-3.84242">
        <ele>483.4</ele>
        <time>2022-12-31 09:37:22</time>
      </trkpt>
      <trkpt lat="40.02073" lon="-3.84237">
        <ele>483.4</ele>
        <time>2022-12-31 09:37:23</time>
      </trkpt>
      <trkpt lat="40.02079" lon="-3.84232">
        <ele>483.4</ele>
        <time>2022-12-31 09:37:24</time>
      </trkpt>
      <trkpt lat="40.02084" lon="-3.84228">
        <ele>483.6</ele>
        <time>2022-12-31 09:37:25</time>
      </trkpt>
      <trkpt lat="40.02089" lon="-3.84223">
        <ele>483.4</ele>
        <time>2022-12-31 09:37:26</time>
      </trkpt>
      <trkpt lat="40.02094" lon="-3.84219">
        <ele>483.4</ele>
        <time>2022-12-31 09:37:27</time>
      </trkpt>
      <trkpt lat="40.02099" lon="-3.84215">
        <ele>483.6</ele>
        <time>2022-12-31 09:37:28</time>
      </trkpt>
      <trkpt lat="40.02104" lon="-3.8421">
        <ele>483.4</ele>
        <time>2022-12-31 09:37:29</time>
      </trkpt>
      <trkpt lat="40.02109" lon="-3.84206">
        <ele>483.6</ele>
        <time>2022-12-31 09:37:30</time>
      </trkpt>
      <trkpt lat="40.02115" lon="-3.84201">
        <ele>483.6</ele>
        <time>2022-12-31 09:37:31</time>
      </trkpt>
      <trkpt lat="40.0212" lon="-3.84196">
        <ele>483.6</ele>
        <time>2022-12-31 09:37:32</time>
      </trkpt>
      <trkpt lat="40.02124" lon="-3.84191">
        <ele>483.6</ele>
        <time>2022-12-31 09:37:33</time>
      </trkpt>
      <trkpt lat="40.02129" lon="-3.84186">
        <ele>483.8</ele>
        <time>2022-12-31 09:37:34</time>
      </trkpt>
      <trkpt lat="40.02134" lon="-3.84181">
        <ele>483.8</ele>
        <time>2022-12-31 09:37:35</time>
      </trkpt>
      <trkpt lat="40.02139" lon="-3.84176">
        <ele>483.6</ele>
        <time>2022-12-31 09:37:36</time>
      </trkpt>
      <trkpt lat="40.02144" lon="-3.84172">
        <ele>483.8</ele>
        <time>2022-12-31 09:37:37</time>
      </trkpt>
      <trkpt lat="40.02149" lon="-3.84167">
        <ele>483.8</ele>
        <time>2022-12-31 09:37:38</time>
      </trkpt>
      <trkpt lat="40.02154" lon="-3.84162">
        <ele>483.8</ele>
        <time>2022-12-31 09:37:39</time>
      </trkpt>
      <trkpt lat="40.02159" lon="-3.84157">
        <ele>484</ele>
        <time>2022-12-31 09:37:40</time>
      </trkpt>
      <trkpt lat="40.02164" lon="-3.84153">
        <ele>484</ele>
        <time>2022-12-31 09:37:41</time>
      </trkpt>
      <trkpt lat="40.02168" lon="-3.84148">
        <ele>484.2</ele>
        <time>2022-12-31 09:37:42</time>
      </trkpt>
      <trkpt lat="40.02173" lon="-3.84144">
        <ele>484.2</ele>
        <time>2022-12-31 09:37:43</time>
      </trkpt>
      <trkpt lat="40.02178" lon="-3.8414">
        <ele>484.2</ele>
        <time>2022-12-31 09:37:44</time>
      </trkpt>
      <trkpt lat="40.02183" lon="-3.84136">
        <ele>484.4</ele>
        <time>2022-12-31 09:37:45</time>
      </trkpt>
      <trkpt lat="40.02188" lon="-3.84131">
        <ele>484.4</ele>
        <time>2022-12-31 09:37:46</time>
      </trkpt>
      <trkpt lat="40.02193" lon="-3.84127">
        <ele>484.4</ele>
        <time>2022-12-31 09:37:47</time>
      </trkpt>
      <trkpt lat="40.02198" lon="-3.84122">
        <ele>484.4</ele>
        <time>2022-12-31 09:37:48</time>
      </trkpt>
      <trkpt lat="40.02203" lon="-3.84118">
        <ele>484.4</ele>
        <time>2022-12-31 09:37:49</time>
      </trkpt>
      <trkpt lat="40.02208" lon="-3.84113">
        <ele>484.4</ele>
        <time>2022-12-31 09:37:50</time>
      </trkpt>
      <trkpt lat="40.02213" lon="-3.84108">
        <ele>484.4</ele>
        <time>2022-12-31 09:37:51</time>
      </trkpt>
      <trkpt lat="40.02218" lon="-3.84104">
        <ele>484.4</ele>
        <time>2022-12-31 09:37:52</time>
      </trkpt>
      <trkpt lat="40.02223" lon="-3.841">
        <ele>484.4</ele>
        <time>2022-12-31 09:37:53</time>
      </trkpt>
      <trkpt lat="40.02228" lon="-3.84095">
        <ele>484.6</ele>
        <time>2022-12-31 09:37:54</time>
      </trkpt>
      <trkpt lat="40.02233" lon="-3.84091">
        <ele>484.6</ele>
        <time>2022-12-31 09:37:55</time>
      </trkpt>
      <trkpt lat="40.02238" lon="-3.84086">
        <ele>484.6</ele>
        <time>2022-12-31 09:37:56</time>
      </trkpt>
      <trkpt lat="40.02242" lon="-3.8408">
        <ele>484.6</ele>
        <time>2022-12-31 09:37:57</time>
      </trkpt>
      <trkpt lat="40.02247" lon="-3.84075">
        <ele>484.6</ele>
        <time>2022-12-31 09:37:58</time>
      </trkpt>
      <trkpt lat="40.02251" lon="-3.84069">
        <ele>484.6</ele>
        <time>2022-12-31 09:37:59</time>
      </trkpt>
      <trkpt lat="40.02256" lon="-3.84064">
        <ele>484.8</ele>
        <time>2022-12-31 09:38:00</time>
      </trkpt>
      <trkpt lat="40.0226" lon="-3.84059">
        <ele>484.6</ele>
        <time>2022-12-31 09:38:01</time>
      </trkpt>
      <trkpt lat="40.02265" lon="-3.84054">
        <ele>484.8</ele>
        <time>2022-12-31 09:38:02</time>
      </trkpt>
      <trkpt lat="40.02269" lon="-3.84049">
        <ele>484.6</ele>
        <time>2022-12-31 09:38:03</time>
      </trkpt>
      <trkpt lat="40.02274" lon="-3.84044">
        <ele>484.8</ele>
        <time>2022-12-31 09:38:04</time>
      </trkpt>
      <trkpt lat="40.02279" lon="-3.84039">
        <ele>484.8</ele>
        <time>2022-12-31 09:38:05</time>
      </trkpt>
      <trkpt lat="40.02284" lon="-3.84034">
        <ele>484.8</ele>
        <time>2022-12-31 09:38:06</time>
      </trkpt>
      <trkpt lat="40.02289" lon="-3.84029">
        <ele>484.8</ele>
        <time>2022-12-31 09:38:07</time>
      </trkpt>
      <trkpt lat="40.02294" lon="-3.84025">
        <ele>484.8</ele>
        <time>2022-12-31 09:38:08</time>
      </trkpt>
      <trkpt lat="40.02298" lon="-3.8402">
        <ele>484.8</ele>
        <time>2022-12-31 09:38:09</time>
      </trkpt>
      <trkpt lat="40.02302" lon="-3.84015">
        <ele>484.8</ele>
        <time>2022-12-31 09:38:10</time>
      </trkpt>
      <trkpt lat="40.02305" lon="-3.8401">
        <ele>484.8</ele>
        <time>2022-12-31 09:38:11</time>
      </trkpt>
      <trkpt lat="40.02307" lon="-3.84003">
        <ele>485</ele>
        <time>2022-12-31 09:38:12</time>
      </trkpt>
      <trkpt lat="40.02306" lon="-3.83996">
        <ele>485</ele>
        <time>2022-12-31 09:38:13</time>
      </trkpt>
      <trkpt lat="40.02304" lon="-3.8399">
        <ele>485</ele>
        <time>2022-12-31 09:38:14</time>
      </trkpt>
      <trkpt lat="40.02302" lon="-3.83983">
        <ele>485</ele>
        <time>2022-12-31 09:38:15</time>
      </trkpt>
      <trkpt lat="40.02299" lon="-3.83977">
        <ele>485.2</ele>
        <time>2022-12-31 09:38:16</time>
      </trkpt>
      <trkpt lat="40.02296" lon="-3.8397">
        <ele>485.2</ele>
        <time>2022-12-31 09:38:17</time>
      </trkpt>
      <trkpt lat="40.02294" lon="-3.83963">
        <ele>485.2</ele>
        <time>2022-12-31 09:38:18</time>
      </trkpt>
      <trkpt lat="40.02291" lon="-3.83956">
        <ele>485.4</ele>
        <time>2022-12-31 09:38:19</time>
      </trkpt>
      <trkpt lat="40.02288" lon="-3.83949">
        <ele>485.2</ele>
        <time>2022-12-31 09:38:20</time>
      </trkpt>
      <trkpt lat="40.02285" lon="-3.83943">
        <ele>485.2</ele>
        <time>2022-12-31 09:38:21</time>
      </trkpt>
      <trkpt lat="40.02281" lon="-3.83936">
        <ele>485.4</ele>
        <time>2022-12-31 09:38:22</time>
      </trkpt>
      <trkpt lat="40.02278" lon="-3.8393">
        <ele>485.4</ele>
        <time>2022-12-31 09:38:23</time>
      </trkpt>
      <trkpt lat="40.02275" lon="-3.83923">
        <ele>485.4</ele>
        <time>2022-12-31 09:38:24</time>
      </trkpt>
      <trkpt lat="40.02273" lon="-3.83916">
        <ele>485.4</ele>
        <time>2022-12-31 09:38:25</time>
      </trkpt>
      <trkpt lat="40.0227" lon="-3.8391">
        <ele>485.6</ele>
        <time>2022-12-31 09:38:26</time>
      </trkpt>
      <trkpt lat="40.02268" lon="-3.83903">
        <ele>485.6</ele>
        <time>2022-12-31 09:38:27</time>
      </trkpt>
      <trkpt lat="40.02265" lon="-3.83897">
        <ele>485.6</ele>
        <time>2022-12-31 09:38:28</time>
      </trkpt>
      <trkpt lat="40.02262" lon="-3.8389">
        <ele>485.6</ele>
        <time>2022-12-31 09:38:29</time>
      </trkpt>
      <trkpt lat="40.02259" lon="-3.83884">
        <ele>485.6</ele>
        <time>2022-12-31 09:38:30</time>
      </trkpt>
      <trkpt lat="40.02257" lon="-3.83878">
        <ele>485.6</ele>
        <time>2022-12-31 09:38:31</time>
      </trkpt>
      <trkpt lat="40.02255" lon="-3.83871">
        <ele>485.6</ele>
        <time>2022-12-31 09:38:32</time>
      </trkpt>
      <trkpt lat="40.02253" lon="-3.83865">
        <ele>485.8</ele>
        <time>2022-12-31 09:38:33</time>
      </trkpt>
      <trkpt lat="40.02252" lon="-3.83859">
        <ele>485.6</ele>
        <time>2022-12-31 09:38:34</time>
      </trkpt>
      <trkpt lat="40.02251" lon="-3.83852">
        <ele>485.6</ele>
        <time>2022-12-31 09:38:35</time>
      </trkpt>
      <trkpt lat="40.0225" lon="-3.83846">
        <ele>485.6</ele>
        <time>2022-12-31 09:38:36</time>
      </trkpt>
      <trkpt lat="40.02249" lon="-3.8384">
        <ele>485.8</ele>
        <time>2022-12-31 09:38:37</time>
      </trkpt>
      <trkpt lat="40.02248" lon="-3.83835">
        <ele>485.6</ele>
        <time>2022-12-31 09:38:38</time>
      </trkpt>
      <trkpt lat="40.02246" lon="-3.83829">
        <ele>486</ele>
        <time>2022-12-31 09:38:39</time>
      </trkpt>
      <trkpt lat="40.02245" lon="-3.83824">
        <ele>486</ele>
        <time>2022-12-31 09:38:40</time>
      </trkpt>
      <trkpt lat="40.02243" lon="-3.83818">
        <ele>486</ele>
        <time>2022-12-31 09:38:41</time>
      </trkpt>
      <trkpt lat="40.02242" lon="-3.83812">
        <ele>486</ele>
        <time>2022-12-31 09:38:42</time>
      </trkpt>
      <trkpt lat="40.02241" lon="-3.83806">
        <ele>486</ele>
        <time>2022-12-31 09:38:43</time>
      </trkpt>
      <trkpt lat="40.0224" lon="-3.83799">
        <ele>486</ele>
        <time>2022-12-31 09:38:44</time>
      </trkpt>
      <trkpt lat="40.02239" lon="-3.83792">
        <ele>486</ele>
        <time>2022-12-31 09:38:45</time>
      </trkpt>
      <trkpt lat="40.02238" lon="-3.83785">
        <ele>486.2</ele>
        <time>2022-12-31 09:38:46</time>
      </trkpt>
      <trkpt lat="40.02236" lon="-3.83778">
        <ele>486</ele>
        <time>2022-12-31 09:38:47</time>
      </trkpt>
      <trkpt lat="40.02235" lon="-3.8377">
        <ele>486.2</ele>
        <time>2022-12-31 09:38:48</time>
      </trkpt>
      <trkpt lat="40.02234" lon="-3.83763">
        <ele>486.2</ele>
        <time>2022-12-31 09:38:49</time>
      </trkpt>
      <trkpt lat="40.02233" lon="-3.83756">
        <ele>486.2</ele>
        <time>2022-12-31 09:38:50</time>
      </trkpt>
      <trkpt lat="40.02232" lon="-3.83749">
        <ele>486.2</ele>
        <time>2022-12-31 09:38:51</time>
      </trkpt>
      <trkpt lat="40.02231" lon="-3.83742">
        <ele>486</ele>
        <time>2022-12-31 09:38:52</time>
      </trkpt>
      <trkpt lat="40.0223" lon="-3.83735">
        <ele>486.2</ele>
        <time>2022-12-31 09:38:53</time>
      </trkpt>
      <trkpt lat="40.02229" lon="-3.83727">
        <ele>486.2</ele>
        <time>2022-12-31 09:38:54</time>
      </trkpt>
      <trkpt lat="40.02227" lon="-3.8372">
        <ele>486</ele>
        <time>2022-12-31 09:38:55</time>
      </trkpt>
      <trkpt lat="40.02226" lon="-3.83713">
        <ele>485.8</ele>
        <time>2022-12-31 09:38:56</time>
      </trkpt>
      <trkpt lat="40.02224" lon="-3.83706">
        <ele>485.8</ele>
        <time>2022-12-31 09:38:57</time>
      </trkpt>
      <trkpt lat="40.02222" lon="-3.83699">
        <ele>485.8</ele>
        <time>2022-12-31 09:38:58</time>
      </trkpt>
      <trkpt lat="40.02221" lon="-3.83692">
        <ele>485.8</ele>
        <time>2022-12-31 09:38:59</time>
      </trkpt>
      <trkpt lat="40.02219" lon="-3.83685">
        <ele>485.8</ele>
        <time>2022-12-31 09:39:00</time>
      </trkpt>
      <trkpt lat="40.02217" lon="-3.83678">
        <ele>485.6</ele>
        <time>2022-12-31 09:39:01</time>
      </trkpt>
      <trkpt lat="40.02216" lon="-3.83671">
        <ele>485.6</ele>
        <time>2022-12-31 09:39:02</time>
      </trkpt>
      <trkpt lat="40.02215" lon="-3.83664">
        <ele>485.6</ele>
        <time>2022-12-31 09:39:03</time>
      </trkpt>
      <trkpt lat="40.02214" lon="-3.83657">
        <ele>485.6</ele>
        <time>2022-12-31 09:39:04</time>
      </trkpt>
      <trkpt lat="40.02212" lon="-3.8365">
        <ele>485.8</ele>
        <time>2022-12-31 09:39:05</time>
      </trkpt>
      <trkpt lat="40.0221" lon="-3.83643">
        <ele>485.8</ele>
        <time>2022-12-31 09:39:06</time>
      </trkpt>
      <trkpt lat="40.02208" lon="-3.83636">
        <ele>485.8</ele>
        <time>2022-12-31 09:39:07</time>
      </trkpt>
      <trkpt lat="40.02207" lon="-3.83629">
        <ele>485.8</ele>
        <time>2022-12-31 09:39:08</time>
      </trkpt>
      <trkpt lat="40.02205" lon="-3.83622">
        <ele>485.8</ele>
        <time>2022-12-31 09:39:09</time>
      </trkpt>
      <trkpt lat="40.02203" lon="-3.83614">
        <ele>486</ele>
        <time>2022-12-31 09:39:10</time>
      </trkpt>
      <trkpt lat="40.02202" lon="-3.83607">
        <ele>486</ele>
        <time>2022-12-31 09:39:11</time>
      </trkpt>
      <trkpt lat="40.02201" lon="-3.836">
        <ele>486</ele>
        <time>2022-12-31 09:39:12</time>
      </trkpt>
      <trkpt lat="40.02199" lon="-3.83593">
        <ele>486</ele>
        <time>2022-12-31 09:39:13</time>
      </trkpt>
      <trkpt lat="40.02198" lon="-3.83586">
        <ele>486</ele>
        <time>2022-12-31 09:39:14</time>
      </trkpt>
      <trkpt lat="40.02197" lon="-3.83579">
        <ele>486</ele>
        <time>2022-12-31 09:39:15</time>
      </trkpt>
      <trkpt lat="40.02196" lon="-3.83573">
        <ele>486</ele>
        <time>2022-12-31 09:39:16</time>
      </trkpt>
      <trkpt lat="40.02194" lon="-3.83566">
        <ele>486.2</ele>
        <time>2022-12-31 09:39:17</time>
      </trkpt>
      <trkpt lat="40.02193" lon="-3.8356">
        <ele>486.4</ele>
        <time>2022-12-31 09:39:18</time>
      </trkpt>
      <trkpt lat="40.02191" lon="-3.83554">
        <ele>486.4</ele>
        <time>2022-12-31 09:39:19</time>
      </trkpt>
      <trkpt lat="40.0219" lon="-3.83547">
        <ele>486.6</ele>
        <time>2022-12-31 09:39:20</time>
      </trkpt>
      <trkpt lat="40.02188" lon="-3.83541">
        <ele>486.6</ele>
        <time>2022-12-31 09:39:21</time>
      </trkpt>
      <trkpt lat="40.02187" lon="-3.83535">
        <ele>486.8</ele>
        <time>2022-12-31 09:39:22</time>
      </trkpt>
      <trkpt lat="40.02186" lon="-3.83529">
        <ele>486.8</ele>
        <time>2022-12-31 09:39:23</time>
      </trkpt>
      <trkpt lat="40.02185" lon="-3.83524">
        <ele>486.8</ele>
        <time>2022-12-31 09:39:24</time>
      </trkpt>
      <trkpt lat="40.02184" lon="-3.83519">
        <ele>487</ele>
        <time>2022-12-31 09:39:25</time>
      </trkpt>
      <trkpt lat="40.02183" lon="-3.83514">
        <ele>487</ele>
        <time>2022-12-31 09:39:26</time>
      </trkpt>
      <trkpt lat="40.02182" lon="-3.83509">
        <ele>487.2</ele>
        <time>2022-12-31 09:39:27</time>
      </trkpt>
      <trkpt lat="40.02181" lon="-3.83504">
        <ele>487.4</ele>
        <time>2022-12-31 09:39:28</time>
      </trkpt>
      <trkpt lat="40.0218" lon="-3.83499">
        <ele>487.4</ele>
        <time>2022-12-31 09:39:29</time>
      </trkpt>
      <trkpt lat="40.0218" lon="-3.83494">
        <ele>487.8</ele>
        <time>2022-12-31 09:39:30</time>
      </trkpt>
      <trkpt lat="40.0218" lon="-3.83489">
        <ele>487.8</ele>
        <time>2022-12-31 09:39:31</time>
      </trkpt>
      <trkpt lat="40.02181" lon="-3.83485">
        <ele>487.6</ele>
        <time>2022-12-31 09:39:32</time>
      </trkpt>
      <trkpt lat="40.02182" lon="-3.83481">
        <ele>488.2</ele>
        <time>2022-12-31 09:39:33</time>
      </trkpt>
      <trkpt lat="40.02183" lon="-3.83476">
        <ele>488.4</ele>
        <time>2022-12-31 09:39:34</time>
      </trkpt>
      <trkpt lat="40.02184" lon="-3.83473">
        <ele>488.8</ele>
        <time>2022-12-31 09:39:35</time>
      </trkpt>
      <trkpt lat="40.02186" lon="-3.83469">
        <ele>489</ele>
        <time>2022-12-31 09:39:36</time>
      </trkpt>
      <trkpt lat="40.02189" lon="-3.83466">
        <ele>489</ele>
        <time>2022-12-31 09:39:37</time>
      </trkpt>
      <trkpt lat="40.02192" lon="-3.83463">
        <ele>489.4</ele>
        <time>2022-12-31 09:39:38</time>
      </trkpt>
      <trkpt lat="40.02196" lon="-3.83461">
        <ele>489.4</ele>
        <time>2022-12-31 09:39:39</time>
      </trkpt>
      <trkpt lat="40.02199" lon="-3.83458">
        <ele>489.8</ele>
        <time>2022-12-31 09:39:40</time>
      </trkpt>
      <trkpt lat="40.02203" lon="-3.83455">
        <ele>490.2</ele>
        <time>2022-12-31 09:39:41</time>
      </trkpt>
      <trkpt lat="40.02207" lon="-3.83453">
        <ele>490.8</ele>
        <time>2022-12-31 09:39:42</time>
      </trkpt>
      <trkpt lat="40.02211" lon="-3.8345">
        <ele>491</ele>
        <time>2022-12-31 09:39:43</time>
      </trkpt>
      <trkpt lat="40.02216" lon="-3.83448">
        <ele>491.2</ele>
        <time>2022-12-31 09:39:44</time>
      </trkpt>
      <trkpt lat="40.0222" lon="-3.83446">
        <ele>491.2</ele>
        <time>2022-12-31 09:39:45</time>
      </trkpt>
      <trkpt lat="40.02224" lon="-3.83444">
        <ele>491.4</ele>
        <time>2022-12-31 09:39:46</time>
      </trkpt>
      <trkpt lat="40.0223" lon="-3.83442">
        <ele>491.4</ele>
        <time>2022-12-31 09:39:47</time>
      </trkpt>
      <trkpt lat="40.02234" lon="-3.8344">
        <ele>491.4</ele>
        <time>2022-12-31 09:39:48</time>
      </trkpt>
      <trkpt lat="40.02239" lon="-3.83438">
        <ele>491.4</ele>
        <time>2022-12-31 09:39:49</time>
      </trkpt>
      <trkpt lat="40.02244" lon="-3.83436">
        <ele>491.4</ele>
        <time>2022-12-31 09:39:50</time>
      </trkpt>
      <trkpt lat="40.02249" lon="-3.83433">
        <ele>491.4</ele>
        <time>2022-12-31 09:39:51</time>
      </trkpt>
      <trkpt lat="40.02254" lon="-3.83431">
        <ele>491.4</ele>
        <time>2022-12-31 09:39:52</time>
      </trkpt>
      <trkpt lat="40.02259" lon="-3.83428">
        <ele>491.4</ele>
        <time>2022-12-31 09:39:53</time>
      </trkpt>
      <trkpt lat="40.02264" lon="-3.83425">
        <ele>491.4</ele>
        <time>2022-12-31 09:39:54</time>
      </trkpt>
      <trkpt lat="40.0227" lon="-3.83423">
        <ele>491.4</ele>
        <time>2022-12-31 09:39:55</time>
      </trkpt>
      <trkpt lat="40.02275" lon="-3.8342">
        <ele>491.4</ele>
        <time>2022-12-31 09:39:56</time>
      </trkpt>
      <trkpt lat="40.0228" lon="-3.83417">
        <ele>491.4</ele>
        <time>2022-12-31 09:39:57</time>
      </trkpt>
      <trkpt lat="40.02286" lon="-3.83414">
        <ele>491.2</ele>
        <time>2022-12-31 09:39:58</time>
      </trkpt>
      <trkpt lat="40.02291" lon="-3.83411">
        <ele>491.4</ele>
        <time>2022-12-31 09:39:59</time>
      </trkpt>
      <trkpt lat="40.02296" lon="-3.83407">
        <ele>491.2</ele>
        <time>2022-12-31 09:40:00</time>
      </trkpt>
      <trkpt lat="40.02302" lon="-3.83404">
        <ele>491.2</ele>
        <time>2022-12-31 09:40:01</time>
      </trkpt>
      <trkpt lat="40.02307" lon="-3.83401">
        <ele>491</ele>
        <time>2022-12-31 09:40:02</time>
      </trkpt>
      <trkpt lat="40.02313" lon="-3.83399">
        <ele>491</ele>
        <time>2022-12-31 09:40:03</time>
      </trkpt>
      <trkpt lat="40.02318" lon="-3.83397">
        <ele>491</ele>
        <time>2022-12-31 09:40:04</time>
      </trkpt>
      <trkpt lat="40.02324" lon="-3.83395">
        <ele>491</ele>
        <time>2022-12-31 09:40:05</time>
      </trkpt>
      <trkpt lat="40.02329" lon="-3.83393">
        <ele>491</ele>
        <time>2022-12-31 09:40:06</time>
      </trkpt>
      <trkpt lat="40.02334" lon="-3.83391">
        <ele>490.8</ele>
        <time>2022-12-31 09:40:07</time>
      </trkpt>
      <trkpt lat="40.02339" lon="-3.83388">
        <ele>491</ele>
        <time>2022-12-31 09:40:08</time>
      </trkpt>
      <trkpt lat="40.02344" lon="-3.83386">
        <ele>491</ele>
        <time>2022-12-31 09:40:09</time>
      </trkpt>
      <trkpt lat="40.02349" lon="-3.83383">
        <ele>491</ele>
        <time>2022-12-31 09:40:10</time>
      </trkpt>
      <trkpt lat="40.02354" lon="-3.8338">
        <ele>491</ele>
        <time>2022-12-31 09:40:11</time>
      </trkpt>
      <trkpt lat="40.02359" lon="-3.83378">
        <ele>490.8</ele>
        <time>2022-12-31 09:40:12</time>
      </trkpt>
      <trkpt lat="40.02364" lon="-3.83375">
        <ele>490.8</ele>
        <time>2022-12-31 09:40:13</time>
      </trkpt>
      <trkpt lat="40.02369" lon="-3.83372">
        <ele>490.8</ele>
        <time>2022-12-31 09:40:14</time>
      </trkpt>
      <trkpt lat="40.02374" lon="-3.83368">
        <ele>490.8</ele>
        <time>2022-12-31 09:40:15</time>
      </trkpt>
      <trkpt lat="40.02379" lon="-3.83365">
        <ele>490.8</ele>
        <time>2022-12-31 09:40:16</time>
      </trkpt>
      <trkpt lat="40.02384" lon="-3.83362">
        <ele>491</ele>
        <time>2022-12-31 09:40:17</time>
      </trkpt>
      <trkpt lat="40.02389" lon="-3.8336">
        <ele>491</ele>
        <time>2022-12-31 09:40:18</time>
      </trkpt>
      <trkpt lat="40.02394" lon="-3.83357">
        <ele>491</ele>
        <time>2022-12-31 09:40:19</time>
      </trkpt>
      <trkpt lat="40.02399" lon="-3.83354">
        <ele>491</ele>
        <time>2022-12-31 09:40:20</time>
      </trkpt>
      <trkpt lat="40.02405" lon="-3.83351">
        <ele>491</ele>
        <time>2022-12-31 09:40:21</time>
      </trkpt>
      <trkpt lat="40.0241" lon="-3.83348">
        <ele>490.8</ele>
        <time>2022-12-31 09:40:22</time>
      </trkpt>
      <trkpt lat="40.02415" lon="-3.83345">
        <ele>491</ele>
        <time>2022-12-31 09:40:23</time>
      </trkpt>
      <trkpt lat="40.0242" lon="-3.83343">
        <ele>491</ele>
        <time>2022-12-31 09:40:24</time>
      </trkpt>
      <trkpt lat="40.02426" lon="-3.8334">
        <ele>490.8</ele>
        <time>2022-12-31 09:40:25</time>
      </trkpt>
      <trkpt lat="40.02431" lon="-3.83337">
        <ele>491</ele>
        <time>2022-12-31 09:40:26</time>
      </trkpt>
      <trkpt lat="40.02436" lon="-3.83334">
        <ele>490.8</ele>
        <time>2022-12-31 09:40:27</time>
      </trkpt>
      <trkpt lat="40.02442" lon="-3.83332">
        <ele>490.8</ele>
        <time>2022-12-31 09:40:28</time>
      </trkpt>
      <trkpt lat="40.02447" lon="-3.83329">
        <ele>490.8</ele>
        <time>2022-12-31 09:40:29</time>
      </trkpt>
      <trkpt lat="40.02452" lon="-3.83326">
        <ele>490.8</ele>
        <time>2022-12-31 09:40:30</time>
      </trkpt>
      <trkpt lat="40.02457" lon="-3.83323">
        <ele>490.8</ele>
        <time>2022-12-31 09:40:31</time>
      </trkpt>
      <trkpt lat="40.02462" lon="-3.8332">
        <ele>490.8</ele>
        <time>2022-12-31 09:40:32</time>
      </trkpt>
      <trkpt lat="40.02468" lon="-3.83317">
        <ele>490.8</ele>
        <time>2022-12-31 09:40:33</time>
      </trkpt>
      <trkpt lat="40.02473" lon="-3.83314">
        <ele>490.6</ele>
        <time>2022-12-31 09:40:34</time>
      </trkpt>
      <trkpt lat="40.02478" lon="-3.83311">
        <ele>490.8</ele>
        <time>2022-12-31 09:40:35</time>
      </trkpt>
      <trkpt lat="40.02483" lon="-3.83307">
        <ele>490.8</ele>
        <time>2022-12-31 09:40:36</time>
      </trkpt>
      <trkpt lat="40.02488" lon="-3.83304">
        <ele>490.8</ele>
        <time>2022-12-31 09:40:37</time>
      </trkpt>
      <trkpt lat="40.02493" lon="-3.83301">
        <ele>490.8</ele>
        <time>2022-12-31 09:40:38</time>
      </trkpt>
      <trkpt lat="40.02498" lon="-3.83298">
        <ele>490.6</ele>
        <time>2022-12-31 09:40:39</time>
      </trkpt>
      <trkpt lat="40.02503" lon="-3.83294">
        <ele>490.6</ele>
        <time>2022-12-31 09:40:40</time>
      </trkpt>
      <trkpt lat="40.02507" lon="-3.83291">
        <ele>490.8</ele>
        <time>2022-12-31 09:40:41</time>
      </trkpt>
      <trkpt lat="40.02512" lon="-3.83287">
        <ele>490.8</ele>
        <time>2022-12-31 09:40:42</time>
      </trkpt>
      <trkpt lat="40.02517" lon="-3.83283">
        <ele>490.6</ele>
        <time>2022-12-31 09:40:43</time>
      </trkpt>
      <trkpt lat="40.02522" lon="-3.83279">
        <ele>490.8</ele>
        <time>2022-12-31 09:40:44</time>
      </trkpt>
      <trkpt lat="40.02527" lon="-3.83276">
        <ele>490.8</ele>
        <time>2022-12-31 09:40:45</time>
      </trkpt>
      <trkpt lat="40.02531" lon="-3.83273">
        <ele>490.8</ele>
        <time>2022-12-31 09:40:46</time>
      </trkpt>
      <trkpt lat="40.02536" lon="-3.83269">
        <ele>490.8</ele>
        <time>2022-12-31 09:40:47</time>
      </trkpt>
      <trkpt lat="40.02541" lon="-3.83265">
        <ele>490.8</ele>
        <time>2022-12-31 09:40:48</time>
      </trkpt>
      <trkpt lat="40.02545" lon="-3.83261">
        <ele>490.8</ele>
        <time>2022-12-31 09:40:49</time>
      </trkpt>
      <trkpt lat="40.0255" lon="-3.83257">
        <ele>490.8</ele>
        <time>2022-12-31 09:40:50</time>
      </trkpt>
      <trkpt lat="40.02554" lon="-3.83253">
        <ele>491</ele>
        <time>2022-12-31 09:40:51</time>
      </trkpt>
      <trkpt lat="40.02559" lon="-3.83249">
        <ele>491</ele>
        <time>2022-12-31 09:40:52</time>
      </trkpt>
      <trkpt lat="40.02564" lon="-3.83244">
        <ele>491</ele>
        <time>2022-12-31 09:40:53</time>
      </trkpt>
      <trkpt lat="40.02568" lon="-3.8324">
        <ele>490.8</ele>
        <time>2022-12-31 09:40:54</time>
      </trkpt>
      <trkpt lat="40.02572" lon="-3.83235">
        <ele>491</ele>
        <time>2022-12-31 09:40:55</time>
      </trkpt>
      <trkpt lat="40.02576" lon="-3.83231">
        <ele>491.2</ele>
        <time>2022-12-31 09:40:56</time>
      </trkpt>
      <trkpt lat="40.02581" lon="-3.83226">
        <ele>491</ele>
        <time>2022-12-31 09:40:57</time>
      </trkpt>
      <trkpt lat="40.02585" lon="-3.83221">
        <ele>491.2</ele>
        <time>2022-12-31 09:40:58</time>
      </trkpt>
      <trkpt lat="40.02589" lon="-3.83217">
        <ele>491</ele>
        <time>2022-12-31 09:40:59</time>
      </trkpt>
      <trkpt lat="40.02593" lon="-3.83213">
        <ele>491.2</ele>
        <time>2022-12-31 09:41:00</time>
      </trkpt>
      <trkpt lat="40.02597" lon="-3.83209">
        <ele>491.2</ele>
        <time>2022-12-31 09:41:01</time>
      </trkpt>
      <trkpt lat="40.02602" lon="-3.83204">
        <ele>491.2</ele>
        <time>2022-12-31 09:41:02</time>
      </trkpt>
      <trkpt lat="40.02606" lon="-3.832">
        <ele>491.4</ele>
        <time>2022-12-31 09:41:03</time>
      </trkpt>
      <trkpt lat="40.0261" lon="-3.83195">
        <ele>491.2</ele>
        <time>2022-12-31 09:41:04</time>
      </trkpt>
      <trkpt lat="40.02614" lon="-3.83191">
        <ele>491.4</ele>
        <time>2022-12-31 09:41:05</time>
      </trkpt>
      <trkpt lat="40.02618" lon="-3.83186">
        <ele>491.2</ele>
        <time>2022-12-31 09:41:06</time>
      </trkpt>
      <trkpt lat="40.02623" lon="-3.83182">
        <ele>491.2</ele>
        <time>2022-12-31 09:41:07</time>
      </trkpt>
      <trkpt lat="40.02627" lon="-3.83178">
        <ele>491.4</ele>
        <time>2022-12-31 09:41:08</time>
      </trkpt>
      <trkpt lat="40.02631" lon="-3.83174">
        <ele>491.4</ele>
        <time>2022-12-31 09:41:09</time>
      </trkpt>
      <trkpt lat="40.02636" lon="-3.83169">
        <ele>491.4</ele>
        <time>2022-12-31 09:41:10</time>
      </trkpt>
      <trkpt lat="40.0264" lon="-3.83165">
        <ele>491.4</ele>
        <time>2022-12-31 09:41:11</time>
      </trkpt>
      <trkpt lat="40.02645" lon="-3.83161">
        <ele>491.4</ele>
        <time>2022-12-31 09:41:12</time>
      </trkpt>
      <trkpt lat="40.02649" lon="-3.83157">
        <ele>491.4</ele>
        <time>2022-12-31 09:41:13</time>
      </trkpt>
      <trkpt lat="40.02653" lon="-3.83153">
        <ele>491.4</ele>
        <time>2022-12-31 09:41:14</time>
      </trkpt>
      <trkpt lat="40.02657" lon="-3.83149">
        <ele>491.6</ele>
        <time>2022-12-31 09:41:15</time>
      </trkpt>
      <trkpt lat="40.02661" lon="-3.83145">
        <ele>491.6</ele>
        <time>2022-12-31 09:41:16</time>
      </trkpt>
      <trkpt lat="40.02665" lon="-3.8314">
        <ele>491.6</ele>
        <time>2022-12-31 09:41:17</time>
      </trkpt>
      <trkpt lat="40.02669" lon="-3.83135">
        <ele>491.4</ele>
        <time>2022-12-31 09:41:18</time>
      </trkpt>
      <trkpt lat="40.02673" lon="-3.8313">
        <ele>491.4</ele>
        <time>2022-12-31 09:41:19</time>
      </trkpt>
      <trkpt lat="40.02677" lon="-3.83125">
        <ele>491.4</ele>
        <time>2022-12-31 09:41:20</time>
      </trkpt>
      <trkpt lat="40.02681" lon="-3.8312">
        <ele>491.4</ele>
        <time>2022-12-31 09:41:21</time>
      </trkpt>
      <trkpt lat="40.02684" lon="-3.83115">
        <ele>491.4</ele>
        <time>2022-12-31 09:41:22</time>
      </trkpt>
      <trkpt lat="40.02688" lon="-3.8311">
        <ele>491.4</ele>
        <time>2022-12-31 09:41:23</time>
      </trkpt>
      <trkpt lat="40.02692" lon="-3.83105">
        <ele>491.4</ele>
        <time>2022-12-31 09:41:24</time>
      </trkpt>
      <trkpt lat="40.02696" lon="-3.83099">
        <ele>491.4</ele>
        <time>2022-12-31 09:41:25</time>
      </trkpt>
      <trkpt lat="40.02699" lon="-3.83095">
        <ele>491.4</ele>
        <time>2022-12-31 09:41:26</time>
      </trkpt>
      <trkpt lat="40.02703" lon="-3.83089">
        <ele>491.4</ele>
        <time>2022-12-31 09:41:27</time>
      </trkpt>
      <trkpt lat="40.02707" lon="-3.83084">
        <ele>491.2</ele>
        <time>2022-12-31 09:41:28</time>
      </trkpt>
      <trkpt lat="40.02711" lon="-3.83079">
        <ele>491.2</ele>
        <time>2022-12-31 09:41:29</time>
      </trkpt>
      <trkpt lat="40.02715" lon="-3.83074">
        <ele>491.2</ele>
        <time>2022-12-31 09:41:30</time>
      </trkpt>
      <trkpt lat="40.02719" lon="-3.83069">
        <ele>491.2</ele>
        <time>2022-12-31 09:41:31</time>
      </trkpt>
      <trkpt lat="40.02723" lon="-3.83063">
        <ele>491.2</ele>
        <time>2022-12-31 09:41:32</time>
      </trkpt>
      <trkpt lat="40.02726" lon="-3.83058">
        <ele>491</ele>
        <time>2022-12-31 09:41:33</time>
      </trkpt>
      <trkpt lat="40.0273" lon="-3.83053">
        <ele>491</ele>
        <time>2022-12-31 09:41:34</time>
      </trkpt>
      <trkpt lat="40.02733" lon="-3.83048">
        <ele>490.8</ele>
        <time>2022-12-31 09:41:35</time>
      </trkpt>
      <trkpt lat="40.02736" lon="-3.83042">
        <ele>490.8</ele>
        <time>2022-12-31 09:41:36</time>
      </trkpt>
      <trkpt lat="40.02739" lon="-3.83037">
        <ele>491</ele>
        <time>2022-12-31 09:41:37</time>
      </trkpt>
      <trkpt lat="40.02741" lon="-3.83031">
        <ele>490.8</ele>
        <time>2022-12-31 09:41:38</time>
      </trkpt>
      <trkpt lat="40.02744" lon="-3.83025">
        <ele>490.8</ele>
        <time>2022-12-31 09:41:39</time>
      </trkpt>
      <trkpt lat="40.02746" lon="-3.83019">
        <ele>490.8</ele>
        <time>2022-12-31 09:41:40</time>
      </trkpt>
      <trkpt lat="40.02748" lon="-3.83013">
        <ele>491</ele>
        <time>2022-12-31 09:41:41</time>
      </trkpt>
      <trkpt lat="40.02751" lon="-3.83008">
        <ele>491</ele>
        <time>2022-12-31 09:41:42</time>
      </trkpt>
      <trkpt lat="40.02754" lon="-3.83002">
        <ele>491</ele>
        <time>2022-12-31 09:41:43</time>
      </trkpt>
      <trkpt lat="40.02757" lon="-3.82997">
        <ele>491</ele>
        <time>2022-12-31 09:41:44</time>
      </trkpt>
      <trkpt lat="40.02761" lon="-3.82992">
        <ele>491.2</ele>
        <time>2022-12-31 09:41:45</time>
      </trkpt>
      <trkpt lat="40.02764" lon="-3.82987">
        <ele>491.2</ele>
        <time>2022-12-31 09:41:46</time>
      </trkpt>
      <trkpt lat="40.02768" lon="-3.82982">
        <ele>491.4</ele>
        <time>2022-12-31 09:41:47</time>
      </trkpt>
      <trkpt lat="40.02771" lon="-3.82978">
        <ele>491.6</ele>
        <time>2022-12-31 09:41:48</time>
      </trkpt>
      <trkpt lat="40.02775" lon="-3.82973">
        <ele>491.4</ele>
        <time>2022-12-31 09:41:49</time>
      </trkpt>
      <trkpt lat="40.02779" lon="-3.82968">
        <ele>491.6</ele>
        <time>2022-12-31 09:41:50</time>
      </trkpt>
      <trkpt lat="40.02783" lon="-3.82963">
        <ele>491.6</ele>
        <time>2022-12-31 09:41:51</time>
      </trkpt>
      <trkpt lat="40.02786" lon="-3.82958">
        <ele>491.6</ele>
        <time>2022-12-31 09:41:52</time>
      </trkpt>
      <trkpt lat="40.0279" lon="-3.82953">
        <ele>491.6</ele>
        <time>2022-12-31 09:41:53</time>
      </trkpt>
      <trkpt lat="40.02793" lon="-3.82947">
        <ele>491.6</ele>
        <time>2022-12-31 09:41:54</time>
      </trkpt>
      <trkpt lat="40.02797" lon="-3.82942">
        <ele>491.6</ele>
        <time>2022-12-31 09:41:55</time>
      </trkpt>
      <trkpt lat="40.028" lon="-3.82936">
        <ele>491.6</ele>
        <time>2022-12-31 09:41:56</time>
      </trkpt>
      <trkpt lat="40.02803" lon="-3.82931">
        <ele>491.6</ele>
        <time>2022-12-31 09:41:57</time>
      </trkpt>
      <trkpt lat="40.02807" lon="-3.82925">
        <ele>491.4</ele>
        <time>2022-12-31 09:41:58</time>
      </trkpt>
      <trkpt lat="40.0281" lon="-3.8292">
        <ele>491.6</ele>
        <time>2022-12-31 09:41:59</time>
      </trkpt>
      <trkpt lat="40.02814" lon="-3.82916">
        <ele>491.4</ele>
        <time>2022-12-31 09:42:00</time>
      </trkpt>
      <trkpt lat="40.02818" lon="-3.82911">
        <ele>491.6</ele>
        <time>2022-12-31 09:42:01</time>
      </trkpt>
      <trkpt lat="40.02823" lon="-3.82906">
        <ele>491.6</ele>
        <time>2022-12-31 09:42:02</time>
      </trkpt>
      <trkpt lat="40.02828" lon="-3.82902">
        <ele>491.4</ele>
        <time>2022-12-31 09:42:03</time>
      </trkpt>
      <trkpt lat="40.02833" lon="-3.82899">
        <ele>491.6</ele>
        <time>2022-12-31 09:42:04</time>
      </trkpt>
      <trkpt lat="40.02837" lon="-3.82895">
        <ele>491.4</ele>
        <time>2022-12-31 09:42:05</time>
      </trkpt>
      <trkpt lat="40.02842" lon="-3.82891">
        <ele>491.6</ele>
        <time>2022-12-31 09:42:06</time>
      </trkpt>
      <trkpt lat="40.02846" lon="-3.82887">
        <ele>491.4</ele>
        <time>2022-12-31 09:42:07</time>
      </trkpt>
      <trkpt lat="40.0285" lon="-3.82883">
        <ele>491.6</ele>
        <time>2022-12-31 09:42:08</time>
      </trkpt>
      <trkpt lat="40.02854" lon="-3.82879">
        <ele>491.6</ele>
        <time>2022-12-31 09:42:09</time>
      </trkpt>
      <trkpt lat="40.02858" lon="-3.82874">
        <ele>491.4</ele>
        <time>2022-12-31 09:42:10</time>
      </trkpt>
      <trkpt lat="40.02861" lon="-3.8287">
        <ele>491.4</ele>
        <time>2022-12-31 09:42:11</time>
      </trkpt>
      <trkpt lat="40.02865" lon="-3.82866">
        <ele>491.4</ele>
        <time>2022-12-31 09:42:12</time>
      </trkpt>
      <trkpt lat="40.02869" lon="-3.82861">
        <ele>491.4</ele>
        <time>2022-12-31 09:42:13</time>
      </trkpt>
      <trkpt lat="40.02874" lon="-3.82857">
        <ele>491.4</ele>
        <time>2022-12-31 09:42:14</time>
      </trkpt>
      <trkpt lat="40.02879" lon="-3.82854">
        <ele>491.4</ele>
        <time>2022-12-31 09:42:15</time>
      </trkpt>
      <trkpt lat="40.02883" lon="-3.8285">
        <ele>491.4</ele>
        <time>2022-12-31 09:42:16</time>
      </trkpt>
      <trkpt lat="40.02888" lon="-3.82846">
        <ele>491.4</ele>
        <time>2022-12-31 09:42:17</time>
      </trkpt>
      <trkpt lat="40.02892" lon="-3.82842">
        <ele>491.4</ele>
        <time>2022-12-31 09:42:18</time>
      </trkpt>
      <trkpt lat="40.02897" lon="-3.82838">
        <ele>491.6</ele>
        <time>2022-12-31 09:42:19</time>
      </trkpt>
      <trkpt lat="40.02901" lon="-3.82834">
        <ele>491.4</ele>
        <time>2022-12-31 09:42:20</time>
      </trkpt>
      <trkpt lat="40.02905" lon="-3.82829">
        <ele>491.4</ele>
        <time>2022-12-31 09:42:21</time>
      </trkpt>
      <trkpt lat="40.02909" lon="-3.82825">
        <ele>491.6</ele>
        <time>2022-12-31 09:42:22</time>
      </trkpt>
      <trkpt lat="40.02913" lon="-3.8282">
        <ele>491.6</ele>
        <time>2022-12-31 09:42:23</time>
      </trkpt>
      <trkpt lat="40.02917" lon="-3.82816">
        <ele>491.6</ele>
        <time>2022-12-31 09:42:24</time>
      </trkpt>
      <trkpt lat="40.02922" lon="-3.82811">
        <ele>491.6</ele>
        <time>2022-12-31 09:42:25</time>
      </trkpt>
      <trkpt lat="40.02926" lon="-3.82807">
        <ele>491.8</ele>
        <time>2022-12-31 09:42:26</time>
      </trkpt>
      <trkpt lat="40.0293" lon="-3.82802">
        <ele>491.6</ele>
        <time>2022-12-31 09:42:27</time>
      </trkpt>
      <trkpt lat="40.02934" lon="-3.82797">
        <ele>491.6</ele>
        <time>2022-12-31 09:42:28</time>
      </trkpt>
      <trkpt lat="40.02938" lon="-3.82792">
        <ele>491.6</ele>
        <time>2022-12-31 09:42:29</time>
      </trkpt>
      <trkpt lat="40.02942" lon="-3.82788">
        <ele>491.8</ele>
        <time>2022-12-31 09:42:30</time>
      </trkpt>
      <trkpt lat="40.02946" lon="-3.82783">
        <ele>491.8</ele>
        <time>2022-12-31 09:42:31</time>
      </trkpt>
      <trkpt lat="40.0295" lon="-3.82778">
        <ele>491.8</ele>
        <time>2022-12-31 09:42:32</time>
      </trkpt>
      <trkpt lat="40.02954" lon="-3.82774">
        <ele>491.8</ele>
        <time>2022-12-31 09:42:33</time>
      </trkpt>
      <trkpt lat="40.02958" lon="-3.82769">
        <ele>492</ele>
        <time>2022-12-31 09:42:34</time>
      </trkpt>
      <trkpt lat="40.02962" lon="-3.82765">
        <ele>492</ele>
        <time>2022-12-31 09:42:35</time>
      </trkpt>
      <trkpt lat="40.02966" lon="-3.8276">
        <ele>491.8</ele>
        <time>2022-12-31 09:42:36</time>
      </trkpt>
      <trkpt lat="40.0297" lon="-3.82756">
        <ele>491.8</ele>
        <time>2022-12-31 09:42:37</time>
      </trkpt>
      <trkpt lat="40.02974" lon="-3.82751">
        <ele>492</ele>
        <time>2022-12-31 09:42:38</time>
      </trkpt>
      <trkpt lat="40.02978" lon="-3.82747">
        <ele>492</ele>
        <time>2022-12-31 09:42:39</time>
      </trkpt>
      <trkpt lat="40.02982" lon="-3.82742">
        <ele>492</ele>
        <time>2022-12-31 09:42:40</time>
      </trkpt>
      <trkpt lat="40.02986" lon="-3.82737">
        <ele>492</ele>
        <time>2022-12-31 09:42:41</time>
      </trkpt>
      <trkpt lat="40.02989" lon="-3.82732">
        <ele>492</ele>
        <time>2022-12-31 09:42:42</time>
      </trkpt>
      <trkpt lat="40.02993" lon="-3.82727">
        <ele>492.2</ele>
        <time>2022-12-31 09:42:43</time>
      </trkpt>
      <trkpt lat="40.02997" lon="-3.82722">
        <ele>492.2</ele>
        <time>2022-12-31 09:42:44</time>
      </trkpt>
      <trkpt lat="40.03001" lon="-3.82718">
        <ele>492.2</ele>
        <time>2022-12-31 09:42:45</time>
      </trkpt>
      <trkpt lat="40.03005" lon="-3.82713">
        <ele>492.4</ele>
        <time>2022-12-31 09:42:46</time>
      </trkpt>
      <trkpt lat="40.0301" lon="-3.82709">
        <ele>492.4</ele>
        <time>2022-12-31 09:42:47</time>
      </trkpt>
      <trkpt lat="40.03013" lon="-3.82704">
        <ele>492.4</ele>
        <time>2022-12-31 09:42:48</time>
      </trkpt>
      <trkpt lat="40.03017" lon="-3.827">
        <ele>492.4</ele>
        <time>2022-12-31 09:42:49</time>
      </trkpt>
      <trkpt lat="40.03021" lon="-3.82695">
        <ele>492.4</ele>
        <time>2022-12-31 09:42:50</time>
      </trkpt>
      <trkpt lat="40.03025" lon="-3.82691">
        <ele>492.4</ele>
        <time>2022-12-31 09:42:51</time>
      </trkpt>
      <trkpt lat="40.03029" lon="-3.82688">
        <ele>492.6</ele>
        <time>2022-12-31 09:42:52</time>
      </trkpt>
      <trkpt lat="40.03034" lon="-3.82687">
        <ele>492.6</ele>
        <time>2022-12-31 09:42:53</time>
      </trkpt>
      <trkpt lat="40.03038" lon="-3.82687">
        <ele>492.6</ele>
        <time>2022-12-31 09:42:54</time>
      </trkpt>
      <trkpt lat="40.03043" lon="-3.82687">
        <ele>492.6</ele>
        <time>2022-12-31 09:42:55</time>
      </trkpt>
      <trkpt lat="40.03048" lon="-3.82686">
        <ele>492.6</ele>
        <time>2022-12-31 09:42:56</time>
      </trkpt>
      <trkpt lat="40.03053" lon="-3.82685">
        <ele>492.6</ele>
        <time>2022-12-31 09:42:57</time>
      </trkpt>
      <trkpt lat="40.03058" lon="-3.82684">
        <ele>492.8</ele>
        <time>2022-12-31 09:42:58</time>
      </trkpt>
      <trkpt lat="40.03062" lon="-3.82681">
        <ele>492.8</ele>
        <time>2022-12-31 09:42:59</time>
      </trkpt>
      <trkpt lat="40.03067" lon="-3.82678">
        <ele>493</ele>
        <time>2022-12-31 09:43:00</time>
      </trkpt>
      <trkpt lat="40.03071" lon="-3.82674">
        <ele>493</ele>
        <time>2022-12-31 09:43:01</time>
      </trkpt>
      <trkpt lat="40.03075" lon="-3.82669">
        <ele>493</ele>
        <time>2022-12-31 09:43:02</time>
      </trkpt>
      <trkpt lat="40.03079" lon="-3.82665">
        <ele>493.2</ele>
        <time>2022-12-31 09:43:03</time>
      </trkpt>
      <trkpt lat="40.03083" lon="-3.82661">
        <ele>493</ele>
        <time>2022-12-31 09:43:04</time>
      </trkpt>
      <trkpt lat="40.03088" lon="-3.82658">
        <ele>493.2</ele>
        <time>2022-12-31 09:43:05</time>
      </trkpt>
      <trkpt lat="40.03092" lon="-3.82654">
        <ele>493.2</ele>
        <time>2022-12-31 09:43:06</time>
      </trkpt>
      <trkpt lat="40.03096" lon="-3.82649">
        <ele>493.2</ele>
        <time>2022-12-31 09:43:07</time>
      </trkpt>
      <trkpt lat="40.031" lon="-3.82645">
        <ele>493.4</ele>
        <time>2022-12-31 09:43:08</time>
      </trkpt>
      <trkpt lat="40.03103" lon="-3.82641">
        <ele>493.4</ele>
        <time>2022-12-31 09:43:09</time>
      </trkpt>
      <trkpt lat="40.03107" lon="-3.82636">
        <ele>493.2</ele>
        <time>2022-12-31 09:43:10</time>
      </trkpt>
      <trkpt lat="40.03111" lon="-3.82631">
        <ele>493.2</ele>
        <time>2022-12-31 09:43:11</time>
      </trkpt>
      <trkpt lat="40.03115" lon="-3.82626">
        <ele>493.4</ele>
        <time>2022-12-31 09:43:12</time>
      </trkpt>
      <trkpt lat="40.03119" lon="-3.82621">
        <ele>493.4</ele>
        <time>2022-12-31 09:43:13</time>
      </trkpt>
      <trkpt lat="40.03123" lon="-3.82616">
        <ele>493.4</ele>
        <time>2022-12-31 09:43:14</time>
      </trkpt>
      <trkpt lat="40.03127" lon="-3.82611">
        <ele>493.6</ele>
        <time>2022-12-31 09:43:15</time>
      </trkpt>
      <trkpt lat="40.0313" lon="-3.82607">
        <ele>493.4</ele>
        <time>2022-12-31 09:43:16</time>
      </trkpt>
      <trkpt lat="40.03134" lon="-3.82602">
        <ele>493.6</ele>
        <time>2022-12-31 09:43:17</time>
      </trkpt>
      <trkpt lat="40.03138" lon="-3.82597">
        <ele>493.4</ele>
        <time>2022-12-31 09:43:18</time>
      </trkpt>
      <trkpt lat="40.03142" lon="-3.82592">
        <ele>493.4</ele>
        <time>2022-12-31 09:43:19</time>
      </trkpt>
      <trkpt lat="40.03146" lon="-3.82587">
        <ele>493.4</ele>
        <time>2022-12-31 09:43:20</time>
      </trkpt>
      <trkpt lat="40.0315" lon="-3.82583">
        <ele>493.6</ele>
        <time>2022-12-31 09:43:21</time>
      </trkpt>
      <trkpt lat="40.03154" lon="-3.82578">
        <ele>493.4</ele>
        <time>2022-12-31 09:43:22</time>
      </trkpt>
      <trkpt lat="40.03158" lon="-3.82573">
        <ele>493.6</ele>
        <time>2022-12-31 09:43:23</time>
      </trkpt>
      <trkpt lat="40.03162" lon="-3.82568">
        <ele>493.6</ele>
        <time>2022-12-31 09:43:24</time>
      </trkpt>
      <trkpt lat="40.03166" lon="-3.82563">
        <ele>493.6</ele>
        <time>2022-12-31 09:43:25</time>
      </trkpt>
      <trkpt lat="40.03171" lon="-3.82558">
        <ele>493.8</ele>
        <time>2022-12-31 09:43:26</time>
      </trkpt>
      <trkpt lat="40.03175" lon="-3.82554">
        <ele>493.6</ele>
        <time>2022-12-31 09:43:27</time>
      </trkpt>
      <trkpt lat="40.03179" lon="-3.82549">
        <ele>493.8</ele>
        <time>2022-12-31 09:43:28</time>
      </trkpt>
      <trkpt lat="40.03183" lon="-3.82544">
        <ele>493.8</ele>
        <time>2022-12-31 09:43:29</time>
      </trkpt>
      <trkpt lat="40.03186" lon="-3.8254">
        <ele>493.8</ele>
        <time>2022-12-31 09:43:30</time>
      </trkpt>
      <trkpt lat="40.0319" lon="-3.82535">
        <ele>493.8</ele>
        <time>2022-12-31 09:43:31</time>
      </trkpt>
      <trkpt lat="40.03194" lon="-3.8253">
        <ele>493.8</ele>
        <time>2022-12-31 09:43:32</time>
      </trkpt>
      <trkpt lat="40.03197" lon="-3.82526">
        <ele>494</ele>
        <time>2022-12-31 09:43:33</time>
      </trkpt>
      <trkpt lat="40.03201" lon="-3.82521">
        <ele>493.8</ele>
        <time>2022-12-31 09:43:34</time>
      </trkpt>
      <trkpt lat="40.03204" lon="-3.82516">
        <ele>494</ele>
        <time>2022-12-31 09:43:35</time>
      </trkpt>
      <trkpt lat="40.03208" lon="-3.82511">
        <ele>494</ele>
        <time>2022-12-31 09:43:36</time>
      </trkpt>
      <trkpt lat="40.03212" lon="-3.82506">
        <ele>494</ele>
        <time>2022-12-31 09:43:37</time>
      </trkpt>
      <trkpt lat="40.03216" lon="-3.82501">
        <ele>494</ele>
        <time>2022-12-31 09:43:38</time>
      </trkpt>
      <trkpt lat="40.0322" lon="-3.82496">
        <ele>494.2</ele>
        <time>2022-12-31 09:43:39</time>
      </trkpt>
      <trkpt lat="40.03224" lon="-3.82491">
        <ele>494.4</ele>
        <time>2022-12-31 09:43:40</time>
      </trkpt>
      <trkpt lat="40.03228" lon="-3.82487">
        <ele>494.2</ele>
        <time>2022-12-31 09:43:41</time>
      </trkpt>
      <trkpt lat="40.03232" lon="-3.82482">
        <ele>494.4</ele>
        <time>2022-12-31 09:43:42</time>
      </trkpt>
      <trkpt lat="40.03236" lon="-3.82477">
        <ele>494.4</ele>
        <time>2022-12-31 09:43:43</time>
      </trkpt>
      <trkpt lat="40.0324" lon="-3.82473">
        <ele>494.4</ele>
        <time>2022-12-31 09:43:44</time>
      </trkpt>
      <trkpt lat="40.03244" lon="-3.82468">
        <ele>494.4</ele>
        <time>2022-12-31 09:43:45</time>
      </trkpt>
      <trkpt lat="40.03249" lon="-3.82463">
        <ele>494.4</ele>
        <time>2022-12-31 09:43:46</time>
      </trkpt>
      <trkpt lat="40.03253" lon="-3.82459">
        <ele>494.4</ele>
        <time>2022-12-31 09:43:47</time>
      </trkpt>
      <trkpt lat="40.03257" lon="-3.82454">
        <ele>494.4</ele>
        <time>2022-12-31 09:43:48</time>
      </trkpt>
      <trkpt lat="40.03261" lon="-3.8245">
        <ele>494.6</ele>
        <time>2022-12-31 09:43:49</time>
      </trkpt>
      <trkpt lat="40.03266" lon="-3.82445">
        <ele>494.6</ele>
        <time>2022-12-31 09:43:50</time>
      </trkpt>
      <trkpt lat="40.0327" lon="-3.8244">
        <ele>494.6</ele>
        <time>2022-12-31 09:43:51</time>
      </trkpt>
      <trkpt lat="40.03274" lon="-3.82436">
        <ele>494.6</ele>
        <time>2022-12-31 09:43:52</time>
      </trkpt>
      <trkpt lat="40.03278" lon="-3.82432">
        <ele>494.8</ele>
        <time>2022-12-31 09:43:53</time>
      </trkpt>
      <trkpt lat="40.03283" lon="-3.82428">
        <ele>494.8</ele>
        <time>2022-12-31 09:43:54</time>
      </trkpt>
      <trkpt lat="40.03287" lon="-3.82424">
        <ele>494.6</ele>
        <time>2022-12-31 09:43:55</time>
      </trkpt>
      <trkpt lat="40.03292" lon="-3.8242">
        <ele>494.8</ele>
        <time>2022-12-31 09:43:56</time>
      </trkpt>
      <trkpt lat="40.03297" lon="-3.82416">
        <ele>495</ele>
        <time>2022-12-31 09:43:57</time>
      </trkpt>
      <trkpt lat="40.03301" lon="-3.82411">
        <ele>495</ele>
        <time>2022-12-31 09:43:58</time>
      </trkpt>
      <trkpt lat="40.03306" lon="-3.82407">
        <ele>495</ele>
        <time>2022-12-31 09:43:59</time>
      </trkpt>
      <trkpt lat="40.03311" lon="-3.82403">
        <ele>495</ele>
        <time>2022-12-31 09:44:00</time>
      </trkpt>
      <trkpt lat="40.03316" lon="-3.82399">
        <ele>495.2</ele>
        <time>2022-12-31 09:44:01</time>
      </trkpt>
      <trkpt lat="40.03321" lon="-3.82395">
        <ele>495.2</ele>
        <time>2022-12-31 09:44:02</time>
      </trkpt>
      <trkpt lat="40.03326" lon="-3.82391">
        <ele>495.2</ele>
        <time>2022-12-31 09:44:03</time>
      </trkpt>
      <trkpt lat="40.03331" lon="-3.82387">
        <ele>495.2</ele>
        <time>2022-12-31 09:44:04</time>
      </trkpt>
      <trkpt lat="40.03336" lon="-3.82383">
        <ele>495.2</ele>
        <time>2022-12-31 09:44:05</time>
      </trkpt>
      <trkpt lat="40.03341" lon="-3.82379">
        <ele>495.2</ele>
        <time>2022-12-31 09:44:06</time>
      </trkpt>
      <trkpt lat="40.03346" lon="-3.82374">
        <ele>495.4</ele>
        <time>2022-12-31 09:44:07</time>
      </trkpt>
      <trkpt lat="40.03352" lon="-3.8237">
        <ele>495.4</ele>
        <time>2022-12-31 09:44:08</time>
      </trkpt>
      <trkpt lat="40.03357" lon="-3.82366">
        <ele>495.2</ele>
        <time>2022-12-31 09:44:09</time>
      </trkpt>
      <trkpt lat="40.03362" lon="-3.82361">
        <ele>495.2</ele>
        <time>2022-12-31 09:44:10</time>
      </trkpt>
      <trkpt lat="40.03367" lon="-3.82357">
        <ele>495.2</ele>
        <time>2022-12-31 09:44:11</time>
      </trkpt>
      <trkpt lat="40.03372" lon="-3.82353">
        <ele>495.2</ele>
        <time>2022-12-31 09:44:12</time>
      </trkpt>
      <trkpt lat="40.03377" lon="-3.82348">
        <ele>495.4</ele>
        <time>2022-12-31 09:44:13</time>
      </trkpt>
      <trkpt lat="40.03383" lon="-3.82343">
        <ele>495.4</ele>
        <time>2022-12-31 09:44:14</time>
      </trkpt>
      <trkpt lat="40.03388" lon="-3.82339">
        <ele>495.2</ele>
        <time>2022-12-31 09:44:15</time>
      </trkpt>
      <trkpt lat="40.03393" lon="-3.82335">
        <ele>495.2</ele>
        <time>2022-12-31 09:44:16</time>
      </trkpt>
      <trkpt lat="40.03399" lon="-3.8233">
        <ele>495.2</ele>
        <time>2022-12-31 09:44:17</time>
      </trkpt>
      <trkpt lat="40.03405" lon="-3.82326">
        <ele>495.2</ele>
        <time>2022-12-31 09:44:18</time>
      </trkpt>
      <trkpt lat="40.03411" lon="-3.82322">
        <ele>495.2</ele>
        <time>2022-12-31 09:44:19</time>
      </trkpt>
      <trkpt lat="40.03416" lon="-3.82318">
        <ele>495.4</ele>
        <time>2022-12-31 09:44:20</time>
      </trkpt>
      <trkpt lat="40.03422" lon="-3.82314">
        <ele>495.2</ele>
        <time>2022-12-31 09:44:21</time>
      </trkpt>
      <trkpt lat="40.03427" lon="-3.8231">
        <ele>495.2</ele>
        <time>2022-12-31 09:44:22</time>
      </trkpt>
      <trkpt lat="40.03433" lon="-3.82307">
        <ele>495.2</ele>
        <time>2022-12-31 09:44:23</time>
      </trkpt>
      <trkpt lat="40.03438" lon="-3.82304">
        <ele>495.2</ele>
        <time>2022-12-31 09:44:24</time>
      </trkpt>
      <trkpt lat="40.03444" lon="-3.82301">
        <ele>495.4</ele>
        <time>2022-12-31 09:44:25</time>
      </trkpt>
      <trkpt lat="40.0345" lon="-3.82298">
        <ele>495.2</ele>
        <time>2022-12-31 09:44:26</time>
      </trkpt>
      <trkpt lat="40.03455" lon="-3.82296">
        <ele>495.2</ele>
        <time>2022-12-31 09:44:27</time>
      </trkpt>
      <trkpt lat="40.03461" lon="-3.82294">
        <ele>495.4</ele>
        <time>2022-12-31 09:44:28</time>
      </trkpt>
      <trkpt lat="40.03467" lon="-3.82292">
        <ele>495.4</ele>
        <time>2022-12-31 09:44:29</time>
      </trkpt>
      <trkpt lat="40.03473" lon="-3.8229">
        <ele>495.2</ele>
        <time>2022-12-31 09:44:30</time>
      </trkpt>
      <trkpt lat="40.03479" lon="-3.82287">
        <ele>495.2</ele>
        <time>2022-12-31 09:44:31</time>
      </trkpt>
      <trkpt lat="40.03485" lon="-3.82285">
        <ele>495.2</ele>
        <time>2022-12-31 09:44:32</time>
      </trkpt>
      <trkpt lat="40.03491" lon="-3.82282">
        <ele>495.2</ele>
        <time>2022-12-31 09:44:33</time>
      </trkpt>
      <trkpt lat="40.03497" lon="-3.82279">
        <ele>495.2</ele>
        <time>2022-12-31 09:44:34</time>
      </trkpt>
      <trkpt lat="40.03503" lon="-3.82276">
        <ele>495.2</ele>
        <time>2022-12-31 09:44:35</time>
      </trkpt>
      <trkpt lat="40.03509" lon="-3.82273">
        <ele>495.2</ele>
        <time>2022-12-31 09:44:36</time>
      </trkpt>
      <trkpt lat="40.03515" lon="-3.8227">
        <ele>495</ele>
        <time>2022-12-31 09:44:37</time>
      </trkpt>
      <trkpt lat="40.0352" lon="-3.82267">
        <ele>495.2</ele>
        <time>2022-12-31 09:44:38</time>
      </trkpt>
      <trkpt lat="40.03526" lon="-3.82264">
        <ele>495.2</ele>
        <time>2022-12-31 09:44:39</time>
      </trkpt>
      <trkpt lat="40.03532" lon="-3.82261">
        <ele>495.2</ele>
        <time>2022-12-31 09:44:40</time>
      </trkpt>
      <trkpt lat="40.03537" lon="-3.82258">
        <ele>495.2</ele>
        <time>2022-12-31 09:44:41</time>
      </trkpt>
      <trkpt lat="40.03543" lon="-3.82254">
        <ele>495.2</ele>
        <time>2022-12-31 09:44:42</time>
      </trkpt>
      <trkpt lat="40.03549" lon="-3.82251">
        <ele>495</ele>
        <time>2022-12-31 09:44:43</time>
      </trkpt>
      <trkpt lat="40.03554" lon="-3.82247">
        <ele>495</ele>
        <time>2022-12-31 09:44:44</time>
      </trkpt>
      <trkpt lat="40.03559" lon="-3.82243">
        <ele>495.2</ele>
        <time>2022-12-31 09:44:45</time>
      </trkpt>
      <trkpt lat="40.03565" lon="-3.82241">
        <ele>495.2</ele>
        <time>2022-12-31 09:44:46</time>
      </trkpt>
      <trkpt lat="40.0357" lon="-3.82238">
        <ele>495.2</ele>
        <time>2022-12-31 09:44:47</time>
      </trkpt>
      <trkpt lat="40.03575" lon="-3.82235">
        <ele>495</ele>
        <time>2022-12-31 09:44:48</time>
      </trkpt>
      <trkpt lat="40.0358" lon="-3.82232">
        <ele>495.2</ele>
        <time>2022-12-31 09:44:49</time>
      </trkpt>
      <trkpt lat="40.03586" lon="-3.82229">
        <ele>495.2</ele>
        <time>2022-12-31 09:44:50</time>
      </trkpt>
      <trkpt lat="40.03591" lon="-3.82225">
        <ele>495.2</ele>
        <time>2022-12-31 09:44:51</time>
      </trkpt>
      <trkpt lat="40.03597" lon="-3.82222">
        <ele>495.2</ele>
        <time>2022-12-31 09:44:52</time>
      </trkpt>
      <trkpt lat="40.03603" lon="-3.82218">
        <ele>495.2</ele>
        <time>2022-12-31 09:44:53</time>
      </trkpt>
      <trkpt lat="40.03609" lon="-3.82215">
        <ele>495.2</ele>
        <time>2022-12-31 09:44:54</time>
      </trkpt>
      <trkpt lat="40.03614" lon="-3.82212">
        <ele>495.4</ele>
        <time>2022-12-31 09:44:55</time>
      </trkpt>
      <trkpt lat="40.0362" lon="-3.82208">
        <ele>495.2</ele>
        <time>2022-12-31 09:44:56</time>
      </trkpt>
      <trkpt lat="40.03625" lon="-3.82205">
        <ele>495.2</ele>
        <time>2022-12-31 09:44:57</time>
      </trkpt>
      <trkpt lat="40.03631" lon="-3.82202">
        <ele>495.4</ele>
        <time>2022-12-31 09:44:58</time>
      </trkpt>
      <trkpt lat="40.03636" lon="-3.82199">
        <ele>495.4</ele>
        <time>2022-12-31 09:44:59</time>
      </trkpt>
      <trkpt lat="40.03642" lon="-3.82196">
        <ele>495.4</ele>
        <time>2022-12-31 09:45:00</time>
      </trkpt>
      <trkpt lat="40.03648" lon="-3.82193">
        <ele>495.6</ele>
        <time>2022-12-31 09:45:01</time>
      </trkpt>
      <trkpt lat="40.03654" lon="-3.8219">
        <ele>495.4</ele>
        <time>2022-12-31 09:45:02</time>
      </trkpt>
      <trkpt lat="40.03659" lon="-3.82186">
        <ele>495.4</ele>
        <time>2022-12-31 09:45:03</time>
      </trkpt>
      <trkpt lat="40.03665" lon="-3.82183">
        <ele>495.6</ele>
        <time>2022-12-31 09:45:04</time>
      </trkpt>
      <trkpt lat="40.03671" lon="-3.8218">
        <ele>495.4</ele>
        <time>2022-12-31 09:45:05</time>
      </trkpt>
      <trkpt lat="40.03676" lon="-3.82176">
        <ele>495.4</ele>
        <time>2022-12-31 09:45:06</time>
      </trkpt>
      <trkpt lat="40.03681" lon="-3.82173">
        <ele>495.4</ele>
        <time>2022-12-31 09:45:07</time>
      </trkpt>
      <trkpt lat="40.03686" lon="-3.82169">
        <ele>495.4</ele>
        <time>2022-12-31 09:45:08</time>
      </trkpt>
      <trkpt lat="40.03692" lon="-3.82166">
        <ele>495.4</ele>
        <time>2022-12-31 09:45:09</time>
      </trkpt>
      <trkpt lat="40.03697" lon="-3.82163">
        <ele>495.6</ele>
        <time>2022-12-31 09:45:10</time>
      </trkpt>
      <trkpt lat="40.03702" lon="-3.8216">
        <ele>495.4</ele>
        <time>2022-12-31 09:45:11</time>
      </trkpt>
      <trkpt lat="40.03708" lon="-3.82157">
        <ele>495.4</ele>
        <time>2022-12-31 09:45:12</time>
      </trkpt>
      <trkpt lat="40.03713" lon="-3.82154">
        <ele>495.4</ele>
        <time>2022-12-31 09:45:13</time>
      </trkpt>
      <trkpt lat="40.03718" lon="-3.82151">
        <ele>495.4</ele>
        <time>2022-12-31 09:45:14</time>
      </trkpt>
      <trkpt lat="40.03724" lon="-3.82148">
        <ele>495.6</ele>
        <time>2022-12-31 09:45:15</time>
      </trkpt>
      <trkpt lat="40.03729" lon="-3.82144">
        <ele>495.6</ele>
        <time>2022-12-31 09:45:16</time>
      </trkpt>
      <trkpt lat="40.03734" lon="-3.82141">
        <ele>496</ele>
        <time>2022-12-31 09:45:17</time>
      </trkpt>
      <trkpt lat="40.03739" lon="-3.82138">
        <ele>496</ele>
        <time>2022-12-31 09:45:18</time>
      </trkpt>
      <trkpt lat="40.03744" lon="-3.82134">
        <ele>496</ele>
        <time>2022-12-31 09:45:19</time>
      </trkpt>
      <trkpt lat="40.03749" lon="-3.82131">
        <ele>496.2</ele>
        <time>2022-12-31 09:45:20</time>
      </trkpt>
      <trkpt lat="40.03754" lon="-3.82127">
        <ele>496</ele>
        <time>2022-12-31 09:45:21</time>
      </trkpt>
      <trkpt lat="40.0376" lon="-3.82124">
        <ele>496.2</ele>
        <time>2022-12-31 09:45:22</time>
      </trkpt>
      <trkpt lat="40.03765" lon="-3.8212">
        <ele>496.2</ele>
        <time>2022-12-31 09:45:23</time>
      </trkpt>
      <trkpt lat="40.03771" lon="-3.82116">
        <ele>496.2</ele>
        <time>2022-12-31 09:45:24</time>
      </trkpt>
      <trkpt lat="40.03776" lon="-3.82113">
        <ele>496.2</ele>
        <time>2022-12-31 09:45:25</time>
      </trkpt>
      <trkpt lat="40.03782" lon="-3.8211">
        <ele>496.2</ele>
        <time>2022-12-31 09:45:26</time>
      </trkpt>
      <trkpt lat="40.03788" lon="-3.82107">
        <ele>496.2</ele>
        <time>2022-12-31 09:45:27</time>
      </trkpt>
      <trkpt lat="40.03794" lon="-3.82106">
        <ele>496.2</ele>
        <time>2022-12-31 09:45:28</time>
      </trkpt>
      <trkpt lat="40.038" lon="-3.82106">
        <ele>496.4</ele>
        <time>2022-12-31 09:45:29</time>
      </trkpt>
      <trkpt lat="40.03806" lon="-3.82107">
        <ele>496.2</ele>
        <time>2022-12-31 09:45:30</time>
      </trkpt>
      <trkpt lat="40.03812" lon="-3.82109">
        <ele>496.4</ele>
        <time>2022-12-31 09:45:31</time>
      </trkpt>
      <trkpt lat="40.03817" lon="-3.82113">
        <ele>496.4</ele>
        <time>2022-12-31 09:45:32</time>
      </trkpt>
      <trkpt lat="40.03821" lon="-3.82118">
        <ele>496.4</ele>
        <time>2022-12-31 09:45:33</time>
      </trkpt>
      <trkpt lat="40.03825" lon="-3.82123">
        <ele>496.4</ele>
        <time>2022-12-31 09:45:34</time>
      </trkpt>
      <trkpt lat="40.03829" lon="-3.82129">
        <ele>496.6</ele>
        <time>2022-12-31 09:45:35</time>
      </trkpt>
      <trkpt lat="40.03832" lon="-3.82135">
        <ele>496.6</ele>
        <time>2022-12-31 09:45:36</time>
      </trkpt>
      <trkpt lat="40.03836" lon="-3.82141">
        <ele>496.6</ele>
        <time>2022-12-31 09:45:37</time>
      </trkpt>
      <trkpt lat="40.03839" lon="-3.82148">
        <ele>496.6</ele>
        <time>2022-12-31 09:45:38</time>
      </trkpt>
      <trkpt lat="40.03842" lon="-3.82155">
        <ele>496.8</ele>
        <time>2022-12-31 09:45:39</time>
      </trkpt>
      <trkpt lat="40.03845" lon="-3.82161">
        <ele>496.8</ele>
        <time>2022-12-31 09:45:40</time>
      </trkpt>
      <trkpt lat="40.03848" lon="-3.82168">
        <ele>497</ele>
        <time>2022-12-31 09:45:41</time>
      </trkpt>
      <trkpt lat="40.03851" lon="-3.82176">
        <ele>497.2</ele>
        <time>2022-12-31 09:45:42</time>
      </trkpt>
      <trkpt lat="40.03854" lon="-3.82182">
        <ele>497.2</ele>
        <time>2022-12-31 09:45:43</time>
      </trkpt>
      <trkpt lat="40.03857" lon="-3.82189">
        <ele>497.4</ele>
        <time>2022-12-31 09:45:44</time>
      </trkpt>
      <trkpt lat="40.03861" lon="-3.82196">
        <ele>497.4</ele>
        <time>2022-12-31 09:45:45</time>
      </trkpt>
      <trkpt lat="40.03864" lon="-3.82203">
        <ele>497.6</ele>
        <time>2022-12-31 09:45:46</time>
      </trkpt>
      <trkpt lat="40.03867" lon="-3.8221">
        <ele>497.4</ele>
        <time>2022-12-31 09:45:47</time>
      </trkpt>
      <trkpt lat="40.0387" lon="-3.82217">
        <ele>497.6</ele>
        <time>2022-12-31 09:45:48</time>
      </trkpt>
      <trkpt lat="40.03873" lon="-3.82224">
        <ele>497.4</ele>
        <time>2022-12-31 09:45:49</time>
      </trkpt>
      <trkpt lat="40.03876" lon="-3.82231">
        <ele>497.6</ele>
        <time>2022-12-31 09:45:50</time>
      </trkpt>
      <trkpt lat="40.03879" lon="-3.82238">
        <ele>497.6</ele>
        <time>2022-12-31 09:45:51</time>
      </trkpt>
      <trkpt lat="40.03882" lon="-3.82244">
        <ele>497.4</ele>
        <time>2022-12-31 09:45:52</time>
      </trkpt>
      <trkpt lat="40.03886" lon="-3.82252">
        <ele>497.4</ele>
        <time>2022-12-31 09:45:53</time>
      </trkpt>
      <trkpt lat="40.03889" lon="-3.82258">
        <ele>497.4</ele>
        <time>2022-12-31 09:45:54</time>
      </trkpt>
      <trkpt lat="40.03892" lon="-3.82266">
        <ele>497.4</ele>
        <time>2022-12-31 09:45:55</time>
      </trkpt>
      <trkpt lat="40.03895" lon="-3.82272">
        <ele>497.4</ele>
        <time>2022-12-31 09:45:56</time>
      </trkpt>
      <trkpt lat="40.03898" lon="-3.8228">
        <ele>497.4</ele>
        <time>2022-12-31 09:45:57</time>
      </trkpt>
      <trkpt lat="40.039" lon="-3.82287">
        <ele>497.4</ele>
        <time>2022-12-31 09:45:58</time>
      </trkpt>
      <trkpt lat="40.03902" lon="-3.82296">
        <ele>497.2</ele>
        <time>2022-12-31 09:45:59</time>
      </trkpt>
      <trkpt lat="40.03904" lon="-3.82304">
        <ele>497.4</ele>
        <time>2022-12-31 09:46:00</time>
      </trkpt>
      <trkpt lat="40.03905" lon="-3.82312">
        <ele>497.4</ele>
        <time>2022-12-31 09:46:01</time>
      </trkpt>
      <trkpt lat="40.03906" lon="-3.82319">
        <ele>497.2</ele>
        <time>2022-12-31 09:46:02</time>
      </trkpt>
      <trkpt lat="40.03909" lon="-3.82326">
        <ele>497.2</ele>
        <time>2022-12-31 09:46:03</time>
      </trkpt>
      <trkpt lat="40.03912" lon="-3.82332">
        <ele>497.4</ele>
        <time>2022-12-31 09:46:04</time>
      </trkpt>
      <trkpt lat="40.03917" lon="-3.82334">
        <ele>497.2</ele>
        <time>2022-12-31 09:46:05</time>
      </trkpt>
      <trkpt lat="40.03922" lon="-3.82334">
        <ele>497.2</ele>
        <time>2022-12-31 09:46:06</time>
      </trkpt>
      <trkpt lat="40.03925" lon="-3.82329">
        <ele>497</ele>
        <time>2022-12-31 09:46:07</time>
      </trkpt>
      <trkpt lat="40.03927" lon="-3.82322">
        <ele>497.2</ele>
        <time>2022-12-31 09:46:08</time>
      </trkpt>
      <trkpt lat="40.03927" lon="-3.82315">
        <ele>497.2</ele>
        <time>2022-12-31 09:46:09</time>
      </trkpt>
      <trkpt lat="40.03925" lon="-3.82309">
        <ele>497</ele>
        <time>2022-12-31 09:46:10</time>
      </trkpt>
      <trkpt lat="40.03923" lon="-3.82303">
        <ele>497.2</ele>
        <time>2022-12-31 09:46:11</time>
      </trkpt>
      <trkpt lat="40.0392" lon="-3.82297">
        <ele>497.2</ele>
        <time>2022-12-31 09:46:12</time>
      </trkpt>
      <trkpt lat="40.03916" lon="-3.82291">
        <ele>497.2</ele>
        <time>2022-12-31 09:46:13</time>
      </trkpt>
      <trkpt lat="40.03913" lon="-3.82286">
        <ele>497.2</ele>
        <time>2022-12-31 09:46:14</time>
      </trkpt>
      <trkpt lat="40.0391" lon="-3.8228">
        <ele>497.2</ele>
        <time>2022-12-31 09:46:15</time>
      </trkpt>
      <trkpt lat="40.03906" lon="-3.82274">
        <ele>497.2</ele>
        <time>2022-12-31 09:46:16</time>
      </trkpt>
      <trkpt lat="40.03903" lon="-3.82268">
        <ele>497.2</ele>
        <time>2022-12-31 09:46:17</time>
      </trkpt>
      <trkpt lat="40.03901" lon="-3.82263">
        <ele>497.2</ele>
        <time>2022-12-31 09:46:18</time>
      </trkpt>
      <trkpt lat="40.03898" lon="-3.82257">
        <ele>497.6</ele>
        <time>2022-12-31 09:46:19</time>
      </trkpt>
      <trkpt lat="40.03896" lon="-3.82251">
        <ele>497.8</ele>
        <time>2022-12-31 09:46:20</time>
      </trkpt>
      <trkpt lat="40.03893" lon="-3.82246">
        <ele>498</ele>
        <time>2022-12-31 09:46:21</time>
      </trkpt>
      <trkpt lat="40.03891" lon="-3.8224">
        <ele>498</ele>
        <time>2022-12-31 09:46:22</time>
      </trkpt>
      <trkpt lat="40.03888" lon="-3.82234">
        <ele>498.2</ele>
        <time>2022-12-31 09:46:23</time>
      </trkpt>
      <trkpt lat="40.03885" lon="-3.82228">
        <ele>498.4</ele>
        <time>2022-12-31 09:46:24</time>
      </trkpt>
      <trkpt lat="40.03883" lon="-3.82222">
        <ele>498.6</ele>
        <time>2022-12-31 09:46:25</time>
      </trkpt>
      <trkpt lat="40.03881" lon="-3.82217">
        <ele>498.8</ele>
        <time>2022-12-31 09:46:26</time>
      </trkpt>
      <trkpt lat="40.03878" lon="-3.82211">
        <ele>498.6</ele>
        <time>2022-12-31 09:46:27</time>
      </trkpt>
      <trkpt lat="40.03876" lon="-3.82205">
        <ele>498.6</ele>
        <time>2022-12-31 09:46:28</time>
      </trkpt>
      <trkpt lat="40.03874" lon="-3.82199">
        <ele>499</ele>
        <time>2022-12-31 09:46:29</time>
      </trkpt>
      <trkpt lat="40.03872" lon="-3.82193">
        <ele>499.2</ele>
        <time>2022-12-31 09:46:30</time>
      </trkpt>
      <trkpt lat="40.0387" lon="-3.82187">
        <ele>499.4</ele>
        <time>2022-12-31 09:46:31</time>
      </trkpt>
      <trkpt lat="40.03867" lon="-3.82181">
        <ele>499.8</ele>
        <time>2022-12-31 09:46:32</time>
      </trkpt>
      <trkpt lat="40.03865" lon="-3.82175">
        <ele>499.8</ele>
        <time>2022-12-31 09:46:33</time>
      </trkpt>
      <trkpt lat="40.03863" lon="-3.8217">
        <ele>500.2</ele>
        <time>2022-12-31 09:46:34</time>
      </trkpt>
      <trkpt lat="40.03861" lon="-3.82164">
        <ele>500.4</ele>
        <time>2022-12-31 09:46:35</time>
      </trkpt>
      <trkpt lat="40.03859" lon="-3.82159">
        <ele>500.6</ele>
        <time>2022-12-31 09:46:36</time>
      </trkpt>
      <trkpt lat="40.03858" lon="-3.82153">
        <ele>501.2</ele>
        <time>2022-12-31 09:46:37</time>
      </trkpt>
      <trkpt lat="40.03856" lon="-3.82147">
        <ele>501.2</ele>
        <time>2022-12-31 09:46:38</time>
      </trkpt>
      <trkpt lat="40.03853" lon="-3.82142">
        <ele>501.8</ele>
        <time>2022-12-31 09:46:39</time>
      </trkpt>
      <trkpt lat="40.03851" lon="-3.82136">
        <ele>502</ele>
        <time>2022-12-31 09:46:40</time>
      </trkpt>
      <trkpt lat="40.03849" lon="-3.82131">
        <ele>502.2</ele>
        <time>2022-12-31 09:46:41</time>
      </trkpt>
      <trkpt lat="40.03847" lon="-3.82125">
        <ele>502.6</ele>
        <time>2022-12-31 09:46:42</time>
      </trkpt>
      <trkpt lat="40.03845" lon="-3.8212">
        <ele>503</ele>
        <time>2022-12-31 09:46:43</time>
      </trkpt>
      <trkpt lat="40.03842" lon="-3.82114">
        <ele>503.4</ele>
        <time>2022-12-31 09:46:44</time>
      </trkpt>
      <trkpt lat="40.0384" lon="-3.82108">
        <ele>503.8</ele>
        <time>2022-12-31 09:46:45</time>
      </trkpt>
      <trkpt lat="40.03838" lon="-3.82102">
        <ele>504</ele>
        <time>2022-12-31 09:46:46</time>
      </trkpt>
      <trkpt lat="40.03836" lon="-3.82096">
        <ele>504.6</ele>
        <time>2022-12-31 09:46:47</time>
      </trkpt>
      <trkpt lat="40.03834" lon="-3.82091">
        <ele>504.6</ele>
        <time>2022-12-31 09:46:48</time>
      </trkpt>
      <trkpt lat="40.03832" lon="-3.82085">
        <ele>505.2</ele>
        <time>2022-12-31 09:46:49</time>
      </trkpt>
      <trkpt lat="40.0383" lon="-3.8208">
        <ele>505.4</ele>
        <time>2022-12-31 09:46:50</time>
      </trkpt>
      <trkpt lat="40.03828" lon="-3.82074">
        <ele>505.8</ele>
        <time>2022-12-31 09:46:51</time>
      </trkpt>
      <trkpt lat="40.03826" lon="-3.82069">
        <ele>506.4</ele>
        <time>2022-12-31 09:46:52</time>
      </trkpt>
      <trkpt lat="40.03824" lon="-3.82064">
        <ele>506.8</ele>
        <time>2022-12-31 09:46:53</time>
      </trkpt>
      <trkpt lat="40.03823" lon="-3.82059">
        <ele>506.8</ele>
        <time>2022-12-31 09:46:54</time>
      </trkpt>
      <trkpt lat="40.03821" lon="-3.82054">
        <ele>507</ele>
        <time>2022-12-31 09:46:55</time>
      </trkpt>
      <trkpt lat="40.03818" lon="-3.82048">
        <ele>507.2</ele>
        <time>2022-12-31 09:46:56</time>
      </trkpt>
      <trkpt lat="40.03816" lon="-3.82042">
        <ele>507.2</ele>
        <time>2022-12-31 09:46:57</time>
      </trkpt>
      <trkpt lat="40.03814" lon="-3.82036">
        <ele>507.6</ele>
        <time>2022-12-31 09:46:58</time>
      </trkpt>
      <trkpt lat="40.03812" lon="-3.82031">
        <ele>507.4</ele>
        <time>2022-12-31 09:46:59</time>
      </trkpt>
      <trkpt lat="40.0381" lon="-3.82025">
        <ele>507.4</ele>
        <time>2022-12-31 09:47:00</time>
      </trkpt>
      <trkpt lat="40.03808" lon="-3.82019">
        <ele>507.6</ele>
        <time>2022-12-31 09:47:01</time>
      </trkpt>
      <trkpt lat="40.03806" lon="-3.82013">
        <ele>507.4</ele>
        <time>2022-12-31 09:47:02</time>
      </trkpt>
      <trkpt lat="40.03804" lon="-3.82008">
        <ele>507.4</ele>
        <time>2022-12-31 09:47:03</time>
      </trkpt>
      <trkpt lat="40.03801" lon="-3.82002">
        <ele>507.4</ele>
        <time>2022-12-31 09:47:04</time>
      </trkpt>
      <trkpt lat="40.03799" lon="-3.81996">
        <ele>507.4</ele>
        <time>2022-12-31 09:47:05</time>
      </trkpt>
      <trkpt lat="40.03796" lon="-3.8199">
        <ele>507.4</ele>
        <time>2022-12-31 09:47:06</time>
      </trkpt>
      <trkpt lat="40.03793" lon="-3.81983">
        <ele>507.4</ele>
        <time>2022-12-31 09:47:07</time>
      </trkpt>
      <trkpt lat="40.0379" lon="-3.81976">
        <ele>507.4</ele>
        <time>2022-12-31 09:47:08</time>
      </trkpt>
      <trkpt lat="40.03787" lon="-3.81969">
        <ele>507.4</ele>
        <time>2022-12-31 09:47:09</time>
      </trkpt>
      <trkpt lat="40.03783" lon="-3.81961">
        <ele>507.2</ele>
        <time>2022-12-31 09:47:10</time>
      </trkpt>
      <trkpt lat="40.0378" lon="-3.81953">
        <ele>507.2</ele>
        <time>2022-12-31 09:47:11</time>
      </trkpt>
      <trkpt lat="40.03776" lon="-3.81945">
        <ele>507</ele>
        <time>2022-12-31 09:47:12</time>
      </trkpt>
      <trkpt lat="40.03772" lon="-3.81937">
        <ele>507</ele>
        <time>2022-12-31 09:47:13</time>
      </trkpt>
      <trkpt lat="40.03768" lon="-3.81928">
        <ele>507</ele>
        <time>2022-12-31 09:47:14</time>
      </trkpt>
      <trkpt lat="40.03764" lon="-3.8192">
        <ele>507</ele>
        <time>2022-12-31 09:47:15</time>
      </trkpt>
      <trkpt lat="40.03759" lon="-3.81911">
        <ele>506.2</ele>
        <time>2022-12-31 09:47:16</time>
      </trkpt>
      <trkpt lat="40.03755" lon="-3.81902">
        <ele>505.8</ele>
        <time>2022-12-31 09:47:17</time>
      </trkpt>
      <trkpt lat="40.03752" lon="-3.81894">
        <ele>505.4</ele>
        <time>2022-12-31 09:47:18</time>
      </trkpt>
      <trkpt lat="40.03748" lon="-3.81887">
        <ele>505</ele>
        <time>2022-12-31 09:47:19</time>
      </trkpt>
      <trkpt lat="40.03745" lon="-3.81881">
        <ele>504.4</ele>
        <time>2022-12-31 09:47:20</time>
      </trkpt>
      <trkpt lat="40.03742" lon="-3.81874">
        <ele>503.4</ele>
        <time>2022-12-31 09:47:21</time>
      </trkpt>
      <trkpt lat="40.0374" lon="-3.81868">
        <ele>503</ele>
        <time>2022-12-31 09:47:22</time>
      </trkpt>
      <trkpt lat="40.03739" lon="-3.81863">
        <ele>502.2</ele>
        <time>2022-12-31 09:47:23</time>
      </trkpt>
      <trkpt lat="40.0374" lon="-3.81858">
        <ele>501.6</ele>
        <time>2022-12-31 09:47:24</time>
      </trkpt>
      <trkpt lat="40.03744" lon="-3.81856">
        <ele>500.8</ele>
        <time>2022-12-31 09:47:25</time>
      </trkpt>
      <trkpt lat="40.03748" lon="-3.81856">
        <ele>500.4</ele>
        <time>2022-12-31 09:47:26</time>
      </trkpt>
      <trkpt lat="40.03752" lon="-3.81858">
        <ele>500</ele>
        <time>2022-12-31 09:47:27</time>
      </trkpt>
      <trkpt lat="40.03756" lon="-3.81862">
        <ele>499.8</ele>
        <time>2022-12-31 09:47:28</time>
      </trkpt>
      <trkpt lat="40.0376" lon="-3.81866">
        <ele>499.6</ele>
        <time>2022-12-31 09:47:29</time>
      </trkpt>
      <trkpt lat="40.03763" lon="-3.81872">
        <ele>499.4</ele>
        <time>2022-12-31 09:47:30</time>
      </trkpt>
      <trkpt lat="40.03766" lon="-3.81879">
        <ele>499</ele>
        <time>2022-12-31 09:47:31</time>
      </trkpt>
      <trkpt lat="40.03769" lon="-3.81885">
        <ele>499</ele>
        <time>2022-12-31 09:47:32</time>
      </trkpt>
      <trkpt lat="40.03773" lon="-3.81892">
        <ele>498.8</ele>
        <time>2022-12-31 09:47:33</time>
      </trkpt>
      <trkpt lat="40.03776" lon="-3.81899">
        <ele>498.8</ele>
        <time>2022-12-31 09:47:34</time>
      </trkpt>
      <trkpt lat="40.03779" lon="-3.81906">
        <ele>498.8</ele>
        <time>2022-12-31 09:47:35</time>
      </trkpt>
      <trkpt lat="40.03783" lon="-3.81912">
        <ele>498.6</ele>
        <time>2022-12-31 09:47:36</time>
      </trkpt>
      <trkpt lat="40.03787" lon="-3.81919">
        <ele>498.2</ele>
        <time>2022-12-31 09:47:37</time>
      </trkpt>
      <trkpt lat="40.0379" lon="-3.81925">
        <ele>498</ele>
        <time>2022-12-31 09:47:38</time>
      </trkpt>
      <trkpt lat="40.03794" lon="-3.81931">
        <ele>497.8</ele>
        <time>2022-12-31 09:47:39</time>
      </trkpt>
      <trkpt lat="40.03798" lon="-3.81938">
        <ele>497.6</ele>
        <time>2022-12-31 09:47:40</time>
      </trkpt>
      <trkpt lat="40.03802" lon="-3.81944">
        <ele>497.4</ele>
        <time>2022-12-31 09:47:41</time>
      </trkpt>
      <trkpt lat="40.03805" lon="-3.8195">
        <ele>497.2</ele>
        <time>2022-12-31 09:47:42</time>
      </trkpt>
      <trkpt lat="40.03809" lon="-3.81957">
        <ele>497.2</ele>
        <time>2022-12-31 09:47:43</time>
      </trkpt>
      <trkpt lat="40.03812" lon="-3.81964">
        <ele>497.2</ele>
        <time>2022-12-31 09:47:44</time>
      </trkpt>
      <trkpt lat="40.03815" lon="-3.81971">
        <ele>497</ele>
        <time>2022-12-31 09:47:45</time>
      </trkpt>
      <trkpt lat="40.03819" lon="-3.81979">
        <ele>497</ele>
        <time>2022-12-31 09:47:46</time>
      </trkpt>
      <trkpt lat="40.03822" lon="-3.81986">
        <ele>497</ele>
        <time>2022-12-31 09:47:47</time>
      </trkpt>
      <trkpt lat="40.03825" lon="-3.81992">
        <ele>497</ele>
        <time>2022-12-31 09:47:48</time>
      </trkpt>
      <trkpt lat="40.03828" lon="-3.81999">
        <ele>497</ele>
        <time>2022-12-31 09:47:49</time>
      </trkpt>
      <trkpt lat="40.03832" lon="-3.82005">
        <ele>497</ele>
        <time>2022-12-31 09:47:50</time>
      </trkpt>
      <trkpt lat="40.03836" lon="-3.82011">
        <ele>497</ele>
        <time>2022-12-31 09:47:51</time>
      </trkpt>
      <trkpt lat="40.03841" lon="-3.82016">
        <ele>496.8</ele>
        <time>2022-12-31 09:47:52</time>
      </trkpt>
      <trkpt lat="40.03846" lon="-3.82019">
        <ele>496.8</ele>
        <time>2022-12-31 09:47:53</time>
      </trkpt>
      <trkpt lat="40.03852" lon="-3.82021">
        <ele>497</ele>
        <time>2022-12-31 09:47:54</time>
      </trkpt>
      <trkpt lat="40.03858" lon="-3.82021">
        <ele>497</ele>
        <time>2022-12-31 09:47:55</time>
      </trkpt>
      <trkpt lat="40.03865" lon="-3.8202">
        <ele>497</ele>
        <time>2022-12-31 09:47:56</time>
      </trkpt>
      <trkpt lat="40.03871" lon="-3.82018">
        <ele>496.8</ele>
        <time>2022-12-31 09:47:57</time>
      </trkpt>
      <trkpt lat="40.03877" lon="-3.82016">
        <ele>497</ele>
        <time>2022-12-31 09:47:58</time>
      </trkpt>
      <trkpt lat="40.03883" lon="-3.82013">
        <ele>496.8</ele>
        <time>2022-12-31 09:47:59</time>
      </trkpt>
      <trkpt lat="40.03889" lon="-3.8201">
        <ele>496.8</ele>
        <time>2022-12-31 09:48:00</time>
      </trkpt>
      <trkpt lat="40.03894" lon="-3.82007">
        <ele>496.8</ele>
        <time>2022-12-31 09:48:01</time>
      </trkpt>
      <trkpt lat="40.03899" lon="-3.82004">
        <ele>496.8</ele>
        <time>2022-12-31 09:48:02</time>
      </trkpt>
      <trkpt lat="40.03905" lon="-3.82">
        <ele>496.6</ele>
        <time>2022-12-31 09:48:03</time>
      </trkpt>
      <trkpt lat="40.0391" lon="-3.81997">
        <ele>496.8</ele>
        <time>2022-12-31 09:48:04</time>
      </trkpt>
      <trkpt lat="40.03915" lon="-3.81994">
        <ele>496.6</ele>
        <time>2022-12-31 09:48:05</time>
      </trkpt>
      <trkpt lat="40.0392" lon="-3.8199">
        <ele>496.6</ele>
        <time>2022-12-31 09:48:06</time>
      </trkpt>
      <trkpt lat="40.03926" lon="-3.81987">
        <ele>496.6</ele>
        <time>2022-12-31 09:48:07</time>
      </trkpt>
      <trkpt lat="40.03931" lon="-3.81983">
        <ele>496.6</ele>
        <time>2022-12-31 09:48:08</time>
      </trkpt>
      <trkpt lat="40.03936" lon="-3.8198">
        <ele>496.6</ele>
        <time>2022-12-31 09:48:09</time>
      </trkpt>
      <trkpt lat="40.03941" lon="-3.81976">
        <ele>496.6</ele>
        <time>2022-12-31 09:48:10</time>
      </trkpt>
      <trkpt lat="40.03946" lon="-3.81972">
        <ele>496.4</ele>
        <time>2022-12-31 09:48:11</time>
      </trkpt>
      <trkpt lat="40.03951" lon="-3.81969">
        <ele>496.6</ele>
        <time>2022-12-31 09:48:12</time>
      </trkpt>
      <trkpt lat="40.03956" lon="-3.81966">
        <ele>496.6</ele>
        <time>2022-12-31 09:48:13</time>
      </trkpt>
      <trkpt lat="40.03961" lon="-3.81962">
        <ele>496.6</ele>
        <time>2022-12-31 09:48:14</time>
      </trkpt>
      <trkpt lat="40.03965" lon="-3.8196">
        <ele>496.6</ele>
        <time>2022-12-31 09:48:15</time>
      </trkpt>
      <trkpt lat="40.0397" lon="-3.81956">
        <ele>496.6</ele>
        <time>2022-12-31 09:48:16</time>
      </trkpt>
      <trkpt lat="40.03975" lon="-3.81953">
        <ele>496.6</ele>
        <time>2022-12-31 09:48:17</time>
      </trkpt>
      <trkpt lat="40.0398" lon="-3.8195">
        <ele>496.6</ele>
        <time>2022-12-31 09:48:18</time>
      </trkpt>
      <trkpt lat="40.03985" lon="-3.81946">
        <ele>496.8</ele>
        <time>2022-12-31 09:48:19</time>
      </trkpt>
      <trkpt lat="40.0399" lon="-3.81943">
        <ele>496.8</ele>
        <time>2022-12-31 09:48:20</time>
      </trkpt>
      <trkpt lat="40.03996" lon="-3.8194">
        <ele>496.8</ele>
        <time>2022-12-31 09:48:21</time>
      </trkpt>
      <trkpt lat="40.04001" lon="-3.81937">
        <ele>496.8</ele>
        <time>2022-12-31 09:48:22</time>
      </trkpt>
      <trkpt lat="40.04006" lon="-3.81933">
        <ele>496.8</ele>
        <time>2022-12-31 09:48:23</time>
      </trkpt>
      <trkpt lat="40.04011" lon="-3.8193">
        <ele>497</ele>
        <time>2022-12-31 09:48:24</time>
      </trkpt>
      <trkpt lat="40.04016" lon="-3.81926">
        <ele>497</ele>
        <time>2022-12-31 09:48:25</time>
      </trkpt>
      <trkpt lat="40.04021" lon="-3.81923">
        <ele>497</ele>
        <time>2022-12-31 09:48:26</time>
      </trkpt>
      <trkpt lat="40.04026" lon="-3.81921">
        <ele>497.2</ele>
        <time>2022-12-31 09:48:27</time>
      </trkpt>
      <trkpt lat="40.04031" lon="-3.81919">
        <ele>497</ele>
        <time>2022-12-31 09:48:28</time>
      </trkpt>
      <trkpt lat="40.04036" lon="-3.81916">
        <ele>497.2</ele>
        <time>2022-12-31 09:48:29</time>
      </trkpt>
      <trkpt lat="40.04041" lon="-3.81914">
        <ele>497.2</ele>
        <time>2022-12-31 09:48:30</time>
      </trkpt>
      <trkpt lat="40.04046" lon="-3.81911">
        <ele>497.4</ele>
        <time>2022-12-31 09:48:31</time>
      </trkpt>
      <trkpt lat="40.04051" lon="-3.81908">
        <ele>497.4</ele>
        <time>2022-12-31 09:48:32</time>
      </trkpt>
      <trkpt lat="40.04055" lon="-3.81905">
        <ele>497.4</ele>
        <time>2022-12-31 09:48:33</time>
      </trkpt>
      <trkpt lat="40.0406" lon="-3.81902">
        <ele>497.4</ele>
        <time>2022-12-31 09:48:34</time>
      </trkpt>
      <trkpt lat="40.04065" lon="-3.819">
        <ele>497.4</ele>
        <time>2022-12-31 09:48:35</time>
      </trkpt>
      <trkpt lat="40.0407" lon="-3.81897">
        <ele>497.4</ele>
        <time>2022-12-31 09:48:36</time>
      </trkpt>
      <trkpt lat="40.04074" lon="-3.81893">
        <ele>497.6</ele>
        <time>2022-12-31 09:48:37</time>
      </trkpt>
      <trkpt lat="40.04079" lon="-3.81891">
        <ele>497.8</ele>
        <time>2022-12-31 09:48:38</time>
      </trkpt>
      <trkpt lat="40.04083" lon="-3.81888">
        <ele>498</ele>
        <time>2022-12-31 09:48:39</time>
      </trkpt>
      <trkpt lat="40.04088" lon="-3.81885">
        <ele>498</ele>
        <time>2022-12-31 09:48:40</time>
      </trkpt>
      <trkpt lat="40.04092" lon="-3.81882">
        <ele>498.2</ele>
        <time>2022-12-31 09:48:41</time>
      </trkpt>
      <trkpt lat="40.04097" lon="-3.81879">
        <ele>498.4</ele>
        <time>2022-12-31 09:48:42</time>
      </trkpt>
      <trkpt lat="40.04101" lon="-3.81876">
        <ele>498.4</ele>
        <time>2022-12-31 09:48:43</time>
      </trkpt>
      <trkpt lat="40.04106" lon="-3.81873">
        <ele>498.6</ele>
        <time>2022-12-31 09:48:44</time>
      </trkpt>
      <trkpt lat="40.0411" lon="-3.8187">
        <ele>498.6</ele>
        <time>2022-12-31 09:48:45</time>
      </trkpt>
      <trkpt lat="40.04115" lon="-3.81868">
        <ele>498.6</ele>
        <time>2022-12-31 09:48:46</time>
      </trkpt>
      <trkpt lat="40.04119" lon="-3.81865">
        <ele>498.6</ele>
        <time>2022-12-31 09:48:47</time>
      </trkpt>
      <trkpt lat="40.04123" lon="-3.81862">
        <ele>499</ele>
        <time>2022-12-31 09:48:48</time>
      </trkpt>
      <trkpt lat="40.04128" lon="-3.8186">
        <ele>499.2</ele>
        <time>2022-12-31 09:48:49</time>
      </trkpt>
      <trkpt lat="40.04132" lon="-3.81857">
        <ele>499.4</ele>
        <time>2022-12-31 09:48:50</time>
      </trkpt>
      <trkpt lat="40.04136" lon="-3.81855">
        <ele>499.6</ele>
        <time>2022-12-31 09:48:51</time>
      </trkpt>
      <trkpt lat="40.04141" lon="-3.81853">
        <ele>499.4</ele>
        <time>2022-12-31 09:48:52</time>
      </trkpt>
      <trkpt lat="40.04145" lon="-3.8185">
        <ele>499.4</ele>
        <time>2022-12-31 09:48:53</time>
      </trkpt>
      <trkpt lat="40.04149" lon="-3.81848">
        <ele>499.8</ele>
        <time>2022-12-31 09:48:54</time>
      </trkpt>
      <trkpt lat="40.04153" lon="-3.81846">
        <ele>499.8</ele>
        <time>2022-12-31 09:48:55</time>
      </trkpt>
      <trkpt lat="40.04157" lon="-3.81844">
        <ele>500</ele>
        <time>2022-12-31 09:48:56</time>
      </trkpt>
      <trkpt lat="40.04161" lon="-3.81841">
        <ele>500</ele>
        <time>2022-12-31 09:48:57</time>
      </trkpt>
      <trkpt lat="40.04165" lon="-3.81839">
        <ele>500.2</ele>
        <time>2022-12-31 09:48:58</time>
      </trkpt>
      <trkpt lat="40.04169" lon="-3.81836">
        <ele>500.6</ele>
        <time>2022-12-31 09:48:59</time>
      </trkpt>
      <trkpt lat="40.04173" lon="-3.81834">
        <ele>500.6</ele>
        <time>2022-12-31 09:49:00</time>
      </trkpt>
      <trkpt lat="40.04177" lon="-3.81831">
        <ele>500.8</ele>
        <time>2022-12-31 09:49:01</time>
      </trkpt>
      <trkpt lat="40.04181" lon="-3.81829">
        <ele>501</ele>
        <time>2022-12-31 09:49:02</time>
      </trkpt>
      <trkpt lat="40.04185" lon="-3.81826">
        <ele>501.2</ele>
        <time>2022-12-31 09:49:03</time>
      </trkpt>
      <trkpt lat="40.04189" lon="-3.81824">
        <ele>501.4</ele>
        <time>2022-12-31 09:49:04</time>
      </trkpt>
      <trkpt lat="40.04194" lon="-3.81822">
        <ele>501.4</ele>
        <time>2022-12-31 09:49:05</time>
      </trkpt>
      <trkpt lat="40.04198" lon="-3.81819">
        <ele>501.6</ele>
        <time>2022-12-31 09:49:06</time>
      </trkpt>
      <trkpt lat="40.04202" lon="-3.81817">
        <ele>501.8</ele>
        <time>2022-12-31 09:49:07</time>
      </trkpt>
      <trkpt lat="40.04206" lon="-3.81815">
        <ele>501.8</ele>
        <time>2022-12-31 09:49:08</time>
      </trkpt>
      <trkpt lat="40.0421" lon="-3.81812">
        <ele>502.2</ele>
        <time>2022-12-31 09:49:09</time>
      </trkpt>
      <trkpt lat="40.04214" lon="-3.81809">
        <ele>502.4</ele>
        <time>2022-12-31 09:49:10</time>
      </trkpt>
      <trkpt lat="40.04218" lon="-3.81807">
        <ele>502.6</ele>
        <time>2022-12-31 09:49:11</time>
      </trkpt>
      <trkpt lat="40.04222" lon="-3.81805">
        <ele>502.6</ele>
        <time>2022-12-31 09:49:12</time>
      </trkpt>
      <trkpt lat="40.04225" lon="-3.81802">
        <ele>502.6</ele>
        <time>2022-12-31 09:49:13</time>
      </trkpt>
      <trkpt lat="40.04229" lon="-3.81799">
        <ele>502.6</ele>
        <time>2022-12-31 09:49:14</time>
      </trkpt>
      <trkpt lat="40.04233" lon="-3.81797">
        <ele>502.8</ele>
        <time>2022-12-31 09:49:15</time>
      </trkpt>
      <trkpt lat="40.04237" lon="-3.81794">
        <ele>502.8</ele>
        <time>2022-12-31 09:49:16</time>
      </trkpt>
      <trkpt lat="40.04241" lon="-3.81792">
        <ele>503</ele>
        <time>2022-12-31 09:49:17</time>
      </trkpt>
      <trkpt lat="40.04245" lon="-3.81789">
        <ele>502.8</ele>
        <time>2022-12-31 09:49:18</time>
      </trkpt>
      <trkpt lat="40.04249" lon="-3.81787">
        <ele>503</ele>
        <time>2022-12-31 09:49:19</time>
      </trkpt>
      <trkpt lat="40.04253" lon="-3.81784">
        <ele>503</ele>
        <time>2022-12-31 09:49:20</time>
      </trkpt>
      <trkpt lat="40.04257" lon="-3.81782">
        <ele>503.2</ele>
        <time>2022-12-31 09:49:21</time>
      </trkpt>
      <trkpt lat="40.0426" lon="-3.8178">
        <ele>503.4</ele>
        <time>2022-12-31 09:49:22</time>
      </trkpt>
      <trkpt lat="40.04264" lon="-3.81778">
        <ele>503.8</ele>
        <time>2022-12-31 09:49:23</time>
      </trkpt>
      <trkpt lat="40.04268" lon="-3.81777">
        <ele>504</ele>
        <time>2022-12-31 09:49:24</time>
      </trkpt>
      <trkpt lat="40.04272" lon="-3.81775">
        <ele>504.2</ele>
        <time>2022-12-31 09:49:25</time>
      </trkpt>
      <trkpt lat="40.04277" lon="-3.81773">
        <ele>504.4</ele>
        <time>2022-12-31 09:49:26</time>
      </trkpt>
      <trkpt lat="40.04281" lon="-3.8177">
        <ele>504.4</ele>
        <time>2022-12-31 09:49:27</time>
      </trkpt>
      <trkpt lat="40.04285" lon="-3.81768">
        <ele>504.6</ele>
        <time>2022-12-31 09:49:28</time>
      </trkpt>
      <trkpt lat="40.04289" lon="-3.81766">
        <ele>504.8</ele>
        <time>2022-12-31 09:49:29</time>
      </trkpt>
      <trkpt lat="40.04293" lon="-3.81763">
        <ele>505</ele>
        <time>2022-12-31 09:49:30</time>
      </trkpt>
      <trkpt lat="40.04297" lon="-3.81761">
        <ele>505</ele>
        <time>2022-12-31 09:49:31</time>
      </trkpt>
      <trkpt lat="40.04301" lon="-3.81759">
        <ele>505.4</ele>
        <time>2022-12-31 09:49:32</time>
      </trkpt>
      <trkpt lat="40.04305" lon="-3.81756">
        <ele>505.4</ele>
        <time>2022-12-31 09:49:33</time>
      </trkpt>
      <trkpt lat="40.04309" lon="-3.81754">
        <ele>505.4</ele>
        <time>2022-12-31 09:49:34</time>
      </trkpt>
      <trkpt lat="40.04313" lon="-3.81751">
        <ele>505.4</ele>
        <time>2022-12-31 09:49:35</time>
      </trkpt>
      <trkpt lat="40.04317" lon="-3.81749">
        <ele>505.6</ele>
        <time>2022-12-31 09:49:36</time>
      </trkpt>
      <trkpt lat="40.04321" lon="-3.81747">
        <ele>505.6</ele>
        <time>2022-12-31 09:49:37</time>
      </trkpt>
      <trkpt lat="40.04325" lon="-3.81744">
        <ele>505.6</ele>
        <time>2022-12-31 09:49:38</time>
      </trkpt>
      <trkpt lat="40.04329" lon="-3.81742">
        <ele>505.6</ele>
        <time>2022-12-31 09:49:39</time>
      </trkpt>
      <trkpt lat="40.04333" lon="-3.81739">
        <ele>505.8</ele>
        <time>2022-12-31 09:49:40</time>
      </trkpt>
      <trkpt lat="40.04338" lon="-3.81737">
        <ele>505.8</ele>
        <time>2022-12-31 09:49:41</time>
      </trkpt>
      <trkpt lat="40.04342" lon="-3.81734">
        <ele>506</ele>
        <time>2022-12-31 09:49:42</time>
      </trkpt>
      <trkpt lat="40.04346" lon="-3.81732">
        <ele>506.2</ele>
        <time>2022-12-31 09:49:43</time>
      </trkpt>
      <trkpt lat="40.0435" lon="-3.81729">
        <ele>506</ele>
        <time>2022-12-31 09:49:44</time>
      </trkpt>
      <trkpt lat="40.04354" lon="-3.81727">
        <ele>506.2</ele>
        <time>2022-12-31 09:49:45</time>
      </trkpt>
      <trkpt lat="40.04358" lon="-3.81725">
        <ele>506.2</ele>
        <time>2022-12-31 09:49:46</time>
      </trkpt>
      <trkpt lat="40.04362" lon="-3.81722">
        <ele>506.2</ele>
        <time>2022-12-31 09:49:47</time>
      </trkpt>
      <trkpt lat="40.04366" lon="-3.8172">
        <ele>506.2</ele>
        <time>2022-12-31 09:49:48</time>
      </trkpt>
      <trkpt lat="40.0437" lon="-3.81717">
        <ele>506.2</ele>
        <time>2022-12-31 09:49:49</time>
      </trkpt>
      <trkpt lat="40.04374" lon="-3.81715">
        <ele>506.4</ele>
        <time>2022-12-31 09:49:50</time>
      </trkpt>
      <trkpt lat="40.04378" lon="-3.81713">
        <ele>506.4</ele>
        <time>2022-12-31 09:49:51</time>
      </trkpt>
      <trkpt lat="40.04382" lon="-3.8171">
        <ele>506.4</ele>
        <time>2022-12-31 09:49:52</time>
      </trkpt>
      <trkpt lat="40.04386" lon="-3.81708">
        <ele>506.6</ele>
        <time>2022-12-31 09:49:53</time>
      </trkpt>
      <trkpt lat="40.04391" lon="-3.81706">
        <ele>506.6</ele>
        <time>2022-12-31 09:49:54</time>
      </trkpt>
      <trkpt lat="40.04395" lon="-3.81703">
        <ele>506.4</ele>
        <time>2022-12-31 09:49:55</time>
      </trkpt>
      <trkpt lat="40.04399" lon="-3.817">
        <ele>506.6</ele>
        <time>2022-12-31 09:49:56</time>
      </trkpt>
      <trkpt lat="40.04404" lon="-3.81698">
        <ele>506.8</ele>
        <time>2022-12-31 09:49:57</time>
      </trkpt>
      <trkpt lat="40.04408" lon="-3.81695">
        <ele>506.8</ele>
        <time>2022-12-31 09:49:58</time>
      </trkpt>
      <trkpt lat="40.04412" lon="-3.81692">
        <ele>506.8</ele>
        <time>2022-12-31 09:49:59</time>
      </trkpt>
      <trkpt lat="40.04417" lon="-3.81689">
        <ele>506.8</ele>
        <time>2022-12-31 09:50:00</time>
      </trkpt>
      <trkpt lat="40.04421" lon="-3.81687">
        <ele>506.8</ele>
        <time>2022-12-31 09:50:01</time>
      </trkpt>
      <trkpt lat="40.04426" lon="-3.81684">
        <ele>506.8</ele>
        <time>2022-12-31 09:50:02</time>
      </trkpt>
      <trkpt lat="40.0443" lon="-3.81682">
        <ele>506.8</ele>
        <time>2022-12-31 09:50:03</time>
      </trkpt>
      <trkpt lat="40.04435" lon="-3.8168">
        <ele>506.8</ele>
        <time>2022-12-31 09:50:04</time>
      </trkpt>
      <trkpt lat="40.04439" lon="-3.81677">
        <ele>506.8</ele>
        <time>2022-12-31 09:50:05</time>
      </trkpt>
      <trkpt lat="40.04443" lon="-3.81675">
        <ele>507</ele>
        <time>2022-12-31 09:50:06</time>
      </trkpt>
      <trkpt lat="40.04448" lon="-3.81672">
        <ele>507</ele>
        <time>2022-12-31 09:50:07</time>
      </trkpt>
      <trkpt lat="40.04452" lon="-3.8167">
        <ele>507</ele>
        <time>2022-12-31 09:50:08</time>
      </trkpt>
      <trkpt lat="40.04457" lon="-3.81667">
        <ele>507</ele>
        <time>2022-12-31 09:50:09</time>
      </trkpt>
      <trkpt lat="40.04461" lon="-3.81664">
        <ele>507.2</ele>
        <time>2022-12-31 09:50:10</time>
      </trkpt>
      <trkpt lat="40.04465" lon="-3.81662">
        <ele>507.2</ele>
        <time>2022-12-31 09:50:11</time>
      </trkpt>
      <trkpt lat="40.0447" lon="-3.81659">
        <ele>507.2</ele>
        <time>2022-12-31 09:50:12</time>
      </trkpt>
      <trkpt lat="40.04474" lon="-3.81656">
        <ele>507.2</ele>
        <time>2022-12-31 09:50:13</time>
      </trkpt>
      <trkpt lat="40.04479" lon="-3.81652">
        <ele>507.2</ele>
        <time>2022-12-31 09:50:14</time>
      </trkpt>
      <trkpt lat="40.04483" lon="-3.81649">
        <ele>507</ele>
        <time>2022-12-31 09:50:15</time>
      </trkpt>
      <trkpt lat="40.04487" lon="-3.81646">
        <ele>507.2</ele>
        <time>2022-12-31 09:50:16</time>
      </trkpt>
      <trkpt lat="40.04492" lon="-3.81643">
        <ele>507.2</ele>
        <time>2022-12-31 09:50:17</time>
      </trkpt>
      <trkpt lat="40.04497" lon="-3.8164">
        <ele>507.2</ele>
        <time>2022-12-31 09:50:18</time>
      </trkpt>
      <trkpt lat="40.04502" lon="-3.81638">
        <ele>507.2</ele>
        <time>2022-12-31 09:50:19</time>
      </trkpt>
      <trkpt lat="40.04507" lon="-3.81634">
        <ele>507.2</ele>
        <time>2022-12-31 09:50:20</time>
      </trkpt>
      <trkpt lat="40.04511" lon="-3.81631">
        <ele>507.2</ele>
        <time>2022-12-31 09:50:21</time>
      </trkpt>
      <trkpt lat="40.04516" lon="-3.81628">
        <ele>507.2</ele>
        <time>2022-12-31 09:50:22</time>
      </trkpt>
      <trkpt lat="40.04521" lon="-3.81625">
        <ele>507.2</ele>
        <time>2022-12-31 09:50:23</time>
      </trkpt>
      <trkpt lat="40.04525" lon="-3.81622">
        <ele>507.2</ele>
        <time>2022-12-31 09:50:24</time>
      </trkpt>
      <trkpt lat="40.0453" lon="-3.8162">
        <ele>507.2</ele>
        <time>2022-12-31 09:50:25</time>
      </trkpt>
      <trkpt lat="40.04535" lon="-3.81617">
        <ele>507.2</ele>
        <time>2022-12-31 09:50:26</time>
      </trkpt>
      <trkpt lat="40.04539" lon="-3.81614">
        <ele>507.2</ele>
        <time>2022-12-31 09:50:27</time>
      </trkpt>
      <trkpt lat="40.04544" lon="-3.81611">
        <ele>507</ele>
        <time>2022-12-31 09:50:28</time>
      </trkpt>
      <trkpt lat="40.04548" lon="-3.81608">
        <ele>507</ele>
        <time>2022-12-31 09:50:29</time>
      </trkpt>
      <trkpt lat="40.04553" lon="-3.81606">
        <ele>507</ele>
        <time>2022-12-31 09:50:30</time>
      </trkpt>
      <trkpt lat="40.04557" lon="-3.81603">
        <ele>507</ele>
        <time>2022-12-31 09:50:31</time>
      </trkpt>
      <trkpt lat="40.04562" lon="-3.816">
        <ele>507.2</ele>
        <time>2022-12-31 09:50:32</time>
      </trkpt>
      <trkpt lat="40.04567" lon="-3.81598">
        <ele>507.2</ele>
        <time>2022-12-31 09:50:33</time>
      </trkpt>
      <trkpt lat="40.04571" lon="-3.81595">
        <ele>507.2</ele>
        <time>2022-12-31 09:50:34</time>
      </trkpt>
      <trkpt lat="40.04576" lon="-3.81593">
        <ele>507.2</ele>
        <time>2022-12-31 09:50:35</time>
      </trkpt>
      <trkpt lat="40.04581" lon="-3.8159">
        <ele>507.2</ele>
        <time>2022-12-31 09:50:36</time>
      </trkpt>
      <trkpt lat="40.04585" lon="-3.81587">
        <ele>507.2</ele>
        <time>2022-12-31 09:50:37</time>
      </trkpt>
      <trkpt lat="40.0459" lon="-3.81585">
        <ele>507.2</ele>
        <time>2022-12-31 09:50:38</time>
      </trkpt>
      <trkpt lat="40.04594" lon="-3.81582">
        <ele>507.2</ele>
        <time>2022-12-31 09:50:39</time>
      </trkpt>
      <trkpt lat="40.04599" lon="-3.81579">
        <ele>507.4</ele>
        <time>2022-12-31 09:50:40</time>
      </trkpt>
      <trkpt lat="40.04603" lon="-3.81576">
        <ele>507.4</ele>
        <time>2022-12-31 09:50:41</time>
      </trkpt>
      <trkpt lat="40.04608" lon="-3.81573">
        <ele>507.6</ele>
        <time>2022-12-31 09:50:42</time>
      </trkpt>
      <trkpt lat="40.04612" lon="-3.81571">
        <ele>507.6</ele>
        <time>2022-12-31 09:50:43</time>
      </trkpt>
      <trkpt lat="40.04616" lon="-3.81569">
        <ele>507.8</ele>
        <time>2022-12-31 09:50:44</time>
      </trkpt>
      <trkpt lat="40.0462" lon="-3.81565">
        <ele>507.6</ele>
        <time>2022-12-31 09:50:45</time>
      </trkpt>
      <trkpt lat="40.04622" lon="-3.81561">
        <ele>507.8</ele>
        <time>2022-12-31 09:50:46</time>
      </trkpt>
      <trkpt lat="40.04623" lon="-3.81556">
        <ele>507.8</ele>
        <time>2022-12-31 09:50:47</time>
      </trkpt>
      <trkpt lat="40.04623" lon="-3.8155">
        <ele>507.8</ele>
        <time>2022-12-31 09:50:48</time>
      </trkpt>
      <trkpt lat="40.04622" lon="-3.81544">
        <ele>507.8</ele>
        <time>2022-12-31 09:50:49</time>
      </trkpt>
      <trkpt lat="40.0462" lon="-3.81537">
        <ele>507.8</ele>
        <time>2022-12-31 09:50:50</time>
      </trkpt>
      <trkpt lat="40.04618" lon="-3.81531">
        <ele>507.6</ele>
        <time>2022-12-31 09:50:51</time>
      </trkpt>
      <trkpt lat="40.04617" lon="-3.81524">
        <ele>507.6</ele>
        <time>2022-12-31 09:50:52</time>
      </trkpt>
      <trkpt lat="40.04615" lon="-3.81517">
        <ele>507.8</ele>
        <time>2022-12-31 09:50:53</time>
      </trkpt>
      <trkpt lat="40.04613" lon="-3.8151">
        <ele>507.6</ele>
        <time>2022-12-31 09:50:54</time>
      </trkpt>
      <trkpt lat="40.04612" lon="-3.81503">
        <ele>507.6</ele>
        <time>2022-12-31 09:50:55</time>
      </trkpt>
      <trkpt lat="40.0461" lon="-3.81496">
        <ele>507.8</ele>
        <time>2022-12-31 09:50:56</time>
      </trkpt>
      <trkpt lat="40.04608" lon="-3.81489">
        <ele>507.8</ele>
        <time>2022-12-31 09:50:57</time>
      </trkpt>
      <trkpt lat="40.04606" lon="-3.81483">
        <ele>507.8</ele>
        <time>2022-12-31 09:50:58</time>
      </trkpt>
      <trkpt lat="40.04605" lon="-3.81476">
        <ele>507.8</ele>
        <time>2022-12-31 09:50:59</time>
      </trkpt>
      <trkpt lat="40.04603" lon="-3.8147">
        <ele>507.8</ele>
        <time>2022-12-31 09:51:00</time>
      </trkpt>
      <trkpt lat="40.04601" lon="-3.81463">
        <ele>508</ele>
        <time>2022-12-31 09:51:01</time>
      </trkpt>
      <trkpt lat="40.046" lon="-3.81457">
        <ele>508</ele>
        <time>2022-12-31 09:51:02</time>
      </trkpt>
      <trkpt lat="40.04598" lon="-3.8145">
        <ele>508</ele>
        <time>2022-12-31 09:51:03</time>
      </trkpt>
      <trkpt lat="40.04597" lon="-3.81443">
        <ele>508</ele>
        <time>2022-12-31 09:51:04</time>
      </trkpt>
      <trkpt lat="40.04595" lon="-3.81437">
        <ele>508</ele>
        <time>2022-12-31 09:51:05</time>
      </trkpt>
      <trkpt lat="40.04594" lon="-3.8143">
        <ele>508.2</ele>
        <time>2022-12-31 09:51:06</time>
      </trkpt>
      <trkpt lat="40.04592" lon="-3.81424">
        <ele>508</ele>
        <time>2022-12-31 09:51:07</time>
      </trkpt>
      <trkpt lat="40.04591" lon="-3.81417">
        <ele>508</ele>
        <time>2022-12-31 09:51:08</time>
      </trkpt>
      <trkpt lat="40.04589" lon="-3.81411">
        <ele>508.2</ele>
        <time>2022-12-31 09:51:09</time>
      </trkpt>
      <trkpt lat="40.04588" lon="-3.81404">
        <ele>508.2</ele>
        <time>2022-12-31 09:51:10</time>
      </trkpt>
      <trkpt lat="40.04587" lon="-3.81398">
        <ele>508.2</ele>
        <time>2022-12-31 09:51:11</time>
      </trkpt>
      <trkpt lat="40.04585" lon="-3.81392">
        <ele>508.4</ele>
        <time>2022-12-31 09:51:12</time>
      </trkpt>
      <trkpt lat="40.04584" lon="-3.81386">
        <ele>508.4</ele>
        <time>2022-12-31 09:51:13</time>
      </trkpt>
      <trkpt lat="40.04582" lon="-3.8138">
        <ele>508.4</ele>
        <time>2022-12-31 09:51:14</time>
      </trkpt>
      <trkpt lat="40.04581" lon="-3.81374">
        <ele>508.4</ele>
        <time>2022-12-31 09:51:15</time>
      </trkpt>
      <trkpt lat="40.0458" lon="-3.81368">
        <ele>508.6</ele>
        <time>2022-12-31 09:51:16</time>
      </trkpt>
      <trkpt lat="40.04578" lon="-3.81361">
        <ele>508.8</ele>
        <time>2022-12-31 09:51:17</time>
      </trkpt>
      <trkpt lat="40.04577" lon="-3.81355">
        <ele>508.8</ele>
        <time>2022-12-31 09:51:18</time>
      </trkpt>
      <trkpt lat="40.04576" lon="-3.81349">
        <ele>509.2</ele>
        <time>2022-12-31 09:51:19</time>
      </trkpt>
      <trkpt lat="40.04575" lon="-3.81343">
        <ele>509.2</ele>
        <time>2022-12-31 09:51:20</time>
      </trkpt>
      <trkpt lat="40.04574" lon="-3.81337">
        <ele>509.4</ele>
        <time>2022-12-31 09:51:21</time>
      </trkpt>
      <trkpt lat="40.04572" lon="-3.81331">
        <ele>509.4</ele>
        <time>2022-12-31 09:51:22</time>
      </trkpt>
      <trkpt lat="40.04571" lon="-3.81326">
        <ele>509.6</ele>
        <time>2022-12-31 09:51:23</time>
      </trkpt>
      <trkpt lat="40.0457" lon="-3.8132">
        <ele>509.8</ele>
        <time>2022-12-31 09:51:24</time>
      </trkpt>
      <trkpt lat="40.04569" lon="-3.81314">
        <ele>509.8</ele>
        <time>2022-12-31 09:51:25</time>
      </trkpt>
      <trkpt lat="40.04568" lon="-3.81308">
        <ele>510</ele>
        <time>2022-12-31 09:51:26</time>
      </trkpt>
      <trkpt lat="40.04567" lon="-3.81302">
        <ele>509.8</ele>
        <time>2022-12-31 09:51:27</time>
      </trkpt>
      <trkpt lat="40.04566" lon="-3.81297">
        <ele>510</ele>
        <time>2022-12-31 09:51:28</time>
      </trkpt>
      <trkpt lat="40.04565" lon="-3.81291">
        <ele>510.4</ele>
        <time>2022-12-31 09:51:29</time>
      </trkpt>
      <trkpt lat="40.04564" lon="-3.81286">
        <ele>510.4</ele>
        <time>2022-12-31 09:51:30</time>
      </trkpt>
      <trkpt lat="40.04563" lon="-3.8128">
        <ele>511</ele>
        <time>2022-12-31 09:51:31</time>
      </trkpt>
      <trkpt lat="40.04562" lon="-3.81275">
        <ele>511</ele>
        <time>2022-12-31 09:51:32</time>
      </trkpt>
      <trkpt lat="40.04562" lon="-3.81269">
        <ele>511.2</ele>
        <time>2022-12-31 09:51:33</time>
      </trkpt>
      <trkpt lat="40.04561" lon="-3.81264">
        <ele>511.2</ele>
        <time>2022-12-31 09:51:34</time>
      </trkpt>
      <trkpt lat="40.0456" lon="-3.81259">
        <ele>511.4</ele>
        <time>2022-12-31 09:51:35</time>
      </trkpt>
      <trkpt lat="40.04559" lon="-3.81254">
        <ele>511.6</ele>
        <time>2022-12-31 09:51:36</time>
      </trkpt>
      <trkpt lat="40.04558" lon="-3.81249">
        <ele>511.8</ele>
        <time>2022-12-31 09:51:37</time>
      </trkpt>
      <trkpt lat="40.04557" lon="-3.81243">
        <ele>512</ele>
        <time>2022-12-31 09:51:38</time>
      </trkpt>
      <trkpt lat="40.04556" lon="-3.81238">
        <ele>512.2</ele>
        <time>2022-12-31 09:51:39</time>
      </trkpt>
      <trkpt lat="40.04555" lon="-3.81233">
        <ele>512.6</ele>
        <time>2022-12-31 09:51:40</time>
      </trkpt>
      <trkpt lat="40.04555" lon="-3.81228">
        <ele>512.6</ele>
        <time>2022-12-31 09:51:41</time>
      </trkpt>
      <trkpt lat="40.04554" lon="-3.81223">
        <ele>512.8</ele>
        <time>2022-12-31 09:51:42</time>
      </trkpt>
      <trkpt lat="40.04553" lon="-3.81218">
        <ele>513</ele>
        <time>2022-12-31 09:51:43</time>
      </trkpt>
      <trkpt lat="40.04552" lon="-3.81213">
        <ele>513.2</ele>
        <time>2022-12-31 09:51:44</time>
      </trkpt>
      <trkpt lat="40.04551" lon="-3.81208">
        <ele>513.6</ele>
        <time>2022-12-31 09:51:45</time>
      </trkpt>
      <trkpt lat="40.0455" lon="-3.81203">
        <ele>514</ele>
        <time>2022-12-31 09:51:46</time>
      </trkpt>
      <trkpt lat="40.0455" lon="-3.81198">
        <ele>514</ele>
        <time>2022-12-31 09:51:47</time>
      </trkpt>
      <trkpt lat="40.04549" lon="-3.81192">
        <ele>514.2</ele>
        <time>2022-12-31 09:51:48</time>
      </trkpt>
      <trkpt lat="40.04547" lon="-3.81187">
        <ele>514.6</ele>
        <time>2022-12-31 09:51:49</time>
      </trkpt>
      <trkpt lat="40.04547" lon="-3.81182">
        <ele>514.8</ele>
        <time>2022-12-31 09:51:50</time>
      </trkpt>
      <trkpt lat="40.04546" lon="-3.81177">
        <ele>514.8</ele>
        <time>2022-12-31 09:51:51</time>
      </trkpt>
      <trkpt lat="40.04546" lon="-3.81171">
        <ele>515</ele>
        <time>2022-12-31 09:51:52</time>
      </trkpt>
      <trkpt lat="40.04545" lon="-3.81166">
        <ele>515</ele>
        <time>2022-12-31 09:51:53</time>
      </trkpt>
      <trkpt lat="40.04544" lon="-3.8116">
        <ele>515.2</ele>
        <time>2022-12-31 09:51:54</time>
      </trkpt>
      <trkpt lat="40.04543" lon="-3.81155">
        <ele>515.2</ele>
        <time>2022-12-31 09:51:55</time>
      </trkpt>
      <trkpt lat="40.04542" lon="-3.81149">
        <ele>515.2</ele>
        <time>2022-12-31 09:51:56</time>
      </trkpt>
      <trkpt lat="40.04541" lon="-3.81143">
        <ele>515.4</ele>
        <time>2022-12-31 09:51:57</time>
      </trkpt>
      <trkpt lat="40.0454" lon="-3.81137">
        <ele>515.4</ele>
        <time>2022-12-31 09:51:58</time>
      </trkpt>
      <trkpt lat="40.04539" lon="-3.81132">
        <ele>515.4</ele>
        <time>2022-12-31 09:51:59</time>
      </trkpt>
      <trkpt lat="40.04538" lon="-3.81126">
        <ele>515.4</ele>
        <time>2022-12-31 09:52:00</time>
      </trkpt>
      <trkpt lat="40.04537" lon="-3.8112">
        <ele>515.6</ele>
        <time>2022-12-31 09:52:01</time>
      </trkpt>
      <trkpt lat="40.04536" lon="-3.81114">
        <ele>515.8</ele>
        <time>2022-12-31 09:52:02</time>
      </trkpt>
      <trkpt lat="40.04535" lon="-3.81109">
        <ele>515.6</ele>
        <time>2022-12-31 09:52:03</time>
      </trkpt>
      <trkpt lat="40.04534" lon="-3.81103">
        <ele>515.8</ele>
        <time>2022-12-31 09:52:04</time>
      </trkpt>
      <trkpt lat="40.04533" lon="-3.81097">
        <ele>515.6</ele>
        <time>2022-12-31 09:52:05</time>
      </trkpt>
      <trkpt lat="40.04533" lon="-3.81092">
        <ele>515.8</ele>
        <time>2022-12-31 09:52:06</time>
      </trkpt>
      <trkpt lat="40.04532" lon="-3.81086">
        <ele>515.8</ele>
        <time>2022-12-31 09:52:07</time>
      </trkpt>
      <trkpt lat="40.04531" lon="-3.81081">
        <ele>515.8</ele>
        <time>2022-12-31 09:52:08</time>
      </trkpt>
      <trkpt lat="40.0453" lon="-3.81075">
        <ele>515.8</ele>
        <time>2022-12-31 09:52:09</time>
      </trkpt>
      <trkpt lat="40.04529" lon="-3.8107">
        <ele>516</ele>
        <time>2022-12-31 09:52:10</time>
      </trkpt>
      <trkpt lat="40.04528" lon="-3.81065">
        <ele>515.8</ele>
        <time>2022-12-31 09:52:11</time>
      </trkpt>
      <trkpt lat="40.04528" lon="-3.8106">
        <ele>516</ele>
        <time>2022-12-31 09:52:12</time>
      </trkpt>
      <trkpt lat="40.04527" lon="-3.81055">
        <ele>516.2</ele>
        <time>2022-12-31 09:52:13</time>
      </trkpt>
      <trkpt lat="40.04526" lon="-3.8105">
        <ele>516.2</ele>
        <time>2022-12-31 09:52:14</time>
      </trkpt>
      <trkpt lat="40.04526" lon="-3.81045">
        <ele>516.2</ele>
        <time>2022-12-31 09:52:15</time>
      </trkpt>
      <trkpt lat="40.04525" lon="-3.8104">
        <ele>516.4</ele>
        <time>2022-12-31 09:52:16</time>
      </trkpt>
      <trkpt lat="40.04525" lon="-3.81035">
        <ele>516.6</ele>
        <time>2022-12-31 09:52:17</time>
      </trkpt>
      <trkpt lat="40.04524" lon="-3.8103">
        <ele>516.8</ele>
        <time>2022-12-31 09:52:18</time>
      </trkpt>
      <trkpt lat="40.04523" lon="-3.81025">
        <ele>516.8</ele>
        <time>2022-12-31 09:52:19</time>
      </trkpt>
      <trkpt lat="40.04523" lon="-3.8102">
        <ele>517</ele>
        <time>2022-12-31 09:52:20</time>
      </trkpt>
      <trkpt lat="40.04522" lon="-3.81015">
        <ele>517.2</ele>
        <time>2022-12-31 09:52:21</time>
      </trkpt>
      <trkpt lat="40.04521" lon="-3.8101">
        <ele>517.4</ele>
        <time>2022-12-31 09:52:22</time>
      </trkpt>
      <trkpt lat="40.04521" lon="-3.81005">
        <ele>517.6</ele>
        <time>2022-12-31 09:52:23</time>
      </trkpt>
      <trkpt lat="40.0452" lon="-3.81">
        <ele>517.6</ele>
        <time>2022-12-31 09:52:24</time>
      </trkpt>
      <trkpt lat="40.04519" lon="-3.80995">
        <ele>517.8</ele>
        <time>2022-12-31 09:52:25</time>
      </trkpt>
      <trkpt lat="40.04518" lon="-3.8099">
        <ele>518</ele>
        <time>2022-12-31 09:52:26</time>
      </trkpt>
      <trkpt lat="40.04517" lon="-3.80985">
        <ele>517.8</ele>
        <time>2022-12-31 09:52:27</time>
      </trkpt>
      <trkpt lat="40.04516" lon="-3.8098">
        <ele>518.2</ele>
        <time>2022-12-31 09:52:28</time>
      </trkpt>
      <trkpt lat="40.04515" lon="-3.80975">
        <ele>518.4</ele>
        <time>2022-12-31 09:52:29</time>
      </trkpt>
      <trkpt lat="40.04514" lon="-3.8097">
        <ele>518.6</ele>
        <time>2022-12-31 09:52:30</time>
      </trkpt>
      <trkpt lat="40.04513" lon="-3.80965">
        <ele>519.2</ele>
        <time>2022-12-31 09:52:31</time>
      </trkpt>
      <trkpt lat="40.04512" lon="-3.8096">
        <ele>519.4</ele>
        <time>2022-12-31 09:52:32</time>
      </trkpt>
      <trkpt lat="40.04512" lon="-3.80955">
        <ele>519.6</ele>
        <time>2022-12-31 09:52:33</time>
      </trkpt>
      <trkpt lat="40.04511" lon="-3.80949">
        <ele>519.6</ele>
        <time>2022-12-31 09:52:34</time>
      </trkpt>
      <trkpt lat="40.0451" lon="-3.80944">
        <ele>519.6</ele>
        <time>2022-12-31 09:52:35</time>
      </trkpt>
      <trkpt lat="40.04509" lon="-3.80939">
        <ele>519.8</ele>
        <time>2022-12-31 09:52:36</time>
      </trkpt>
      <trkpt lat="40.04507" lon="-3.80935">
        <ele>519.8</ele>
        <time>2022-12-31 09:52:37</time>
      </trkpt>
      <trkpt lat="40.04506" lon="-3.8093">
        <ele>520</ele>
        <time>2022-12-31 09:52:38</time>
      </trkpt>
      <trkpt lat="40.04506" lon="-3.80925">
        <ele>520.2</ele>
        <time>2022-12-31 09:52:39</time>
      </trkpt>
      <trkpt lat="40.04505" lon="-3.8092">
        <ele>520.4</ele>
        <time>2022-12-31 09:52:40</time>
      </trkpt>
      <trkpt lat="40.04504" lon="-3.80915">
        <ele>520.4</ele>
        <time>2022-12-31 09:52:41</time>
      </trkpt>
      <trkpt lat="40.04503" lon="-3.8091">
        <ele>520.6</ele>
        <time>2022-12-31 09:52:42</time>
      </trkpt>
      <trkpt lat="40.04503" lon="-3.80905">
        <ele>520.8</ele>
        <time>2022-12-31 09:52:43</time>
      </trkpt>
      <trkpt lat="40.04501" lon="-3.80899">
        <ele>521</ele>
        <time>2022-12-31 09:52:44</time>
      </trkpt>
      <trkpt lat="40.045" lon="-3.80894">
        <ele>521.2</ele>
        <time>2022-12-31 09:52:45</time>
      </trkpt>
      <trkpt lat="40.045" lon="-3.80889">
        <ele>521.4</ele>
        <time>2022-12-31 09:52:46</time>
      </trkpt>
      <trkpt lat="40.04499" lon="-3.80884">
        <ele>521.6</ele>
        <time>2022-12-31 09:52:47</time>
      </trkpt>
      <trkpt lat="40.04498" lon="-3.80879">
        <ele>521.8</ele>
        <time>2022-12-31 09:52:48</time>
      </trkpt>
      <trkpt lat="40.04497" lon="-3.80874">
        <ele>522.2</ele>
        <time>2022-12-31 09:52:49</time>
      </trkpt>
      <trkpt lat="40.04496" lon="-3.80869">
        <ele>522.4</ele>
        <time>2022-12-31 09:52:50</time>
      </trkpt>
      <trkpt lat="40.04495" lon="-3.80864">
        <ele>522.6</ele>
        <time>2022-12-31 09:52:51</time>
      </trkpt>
      <trkpt lat="40.04494" lon="-3.80859">
        <ele>523</ele>
        <time>2022-12-31 09:52:52</time>
      </trkpt>
      <trkpt lat="40.04493" lon="-3.80854">
        <ele>523</ele>
        <time>2022-12-31 09:52:53</time>
      </trkpt>
      <trkpt lat="40.04493" lon="-3.80848">
        <ele>523.2</ele>
        <time>2022-12-31 09:52:54</time>
      </trkpt>
      <trkpt lat="40.04492" lon="-3.80843">
        <ele>523.2</ele>
        <time>2022-12-31 09:52:55</time>
      </trkpt>
      <trkpt lat="40.04491" lon="-3.80837">
        <ele>523.2</ele>
        <time>2022-12-31 09:52:56</time>
      </trkpt>
      <trkpt lat="40.0449" lon="-3.80832">
        <ele>523.4</ele>
        <time>2022-12-31 09:52:57</time>
      </trkpt>
      <trkpt lat="40.04489" lon="-3.80826">
        <ele>523.6</ele>
        <time>2022-12-31 09:52:58</time>
      </trkpt>
      <trkpt lat="40.04488" lon="-3.80821">
        <ele>523.8</ele>
        <time>2022-12-31 09:52:59</time>
      </trkpt>
      <trkpt lat="40.04487" lon="-3.80815">
        <ele>524</ele>
        <time>2022-12-31 09:53:00</time>
      </trkpt>
      <trkpt lat="40.04485" lon="-3.80809">
        <ele>524.2</ele>
        <time>2022-12-31 09:53:01</time>
      </trkpt>
      <trkpt lat="40.04485" lon="-3.80803">
        <ele>524.4</ele>
        <time>2022-12-31 09:53:02</time>
      </trkpt>
      <trkpt lat="40.04484" lon="-3.80798">
        <ele>524.4</ele>
        <time>2022-12-31 09:53:03</time>
      </trkpt>
      <trkpt lat="40.04483" lon="-3.80792">
        <ele>524.8</ele>
        <time>2022-12-31 09:53:04</time>
      </trkpt>
      <trkpt lat="40.04482" lon="-3.80786">
        <ele>524.8</ele>
        <time>2022-12-31 09:53:05</time>
      </trkpt>
      <trkpt lat="40.04481" lon="-3.8078">
        <ele>525</ele>
        <time>2022-12-31 09:53:06</time>
      </trkpt>
      <trkpt lat="40.0448" lon="-3.80774">
        <ele>525.2</ele>
        <time>2022-12-31 09:53:07</time>
      </trkpt>
      <trkpt lat="40.04479" lon="-3.80768">
        <ele>525.2</ele>
        <time>2022-12-31 09:53:08</time>
      </trkpt>
      <trkpt lat="40.04478" lon="-3.80762">
        <ele>525.2</ele>
        <time>2022-12-31 09:53:09</time>
      </trkpt>
      <trkpt lat="40.04477" lon="-3.80756">
        <ele>525</ele>
        <time>2022-12-31 09:53:10</time>
      </trkpt>
      <trkpt lat="40.04476" lon="-3.80751">
        <ele>525.2</ele>
        <time>2022-12-31 09:53:11</time>
      </trkpt>
      <trkpt lat="40.04475" lon="-3.80745">
        <ele>525.2</ele>
        <time>2022-12-31 09:53:12</time>
      </trkpt>
      <trkpt lat="40.04474" lon="-3.80739">
        <ele>525.2</ele>
        <time>2022-12-31 09:53:13</time>
      </trkpt>
      <trkpt lat="40.04472" lon="-3.80733">
        <ele>525.2</ele>
        <time>2022-12-31 09:53:14</time>
      </trkpt>
      <trkpt lat="40.04471" lon="-3.80727">
        <ele>525.4</ele>
        <time>2022-12-31 09:53:15</time>
      </trkpt>
      <trkpt lat="40.0447" lon="-3.80722">
        <ele>525.4</ele>
        <time>2022-12-31 09:53:16</time>
      </trkpt>
      <trkpt lat="40.04469" lon="-3.80716">
        <ele>525.2</ele>
        <time>2022-12-31 09:53:17</time>
      </trkpt>
      <trkpt lat="40.04468" lon="-3.80711">
        <ele>525.2</ele>
        <time>2022-12-31 09:53:18</time>
      </trkpt>
      <trkpt lat="40.04467" lon="-3.80705">
        <ele>525.2</ele>
        <time>2022-12-31 09:53:19</time>
      </trkpt>
      <trkpt lat="40.04466" lon="-3.80699">
        <ele>525.4</ele>
        <time>2022-12-31 09:53:20</time>
      </trkpt>
      <trkpt lat="40.04465" lon="-3.80694">
        <ele>525.4</ele>
        <time>2022-12-31 09:53:21</time>
      </trkpt>
      <trkpt lat="40.04464" lon="-3.80688">
        <ele>525.2</ele>
        <time>2022-12-31 09:53:22</time>
      </trkpt>
      <trkpt lat="40.04463" lon="-3.80683">
        <ele>525.4</ele>
        <time>2022-12-31 09:53:23</time>
      </trkpt>
      <trkpt lat="40.04462" lon="-3.80678">
        <ele>525.4</ele>
        <time>2022-12-31 09:53:24</time>
      </trkpt>
      <trkpt lat="40.04461" lon="-3.80673">
        <ele>525.4</ele>
        <time>2022-12-31 09:53:25</time>
      </trkpt>
      <trkpt lat="40.0446" lon="-3.80669">
        <ele>525.6</ele>
        <time>2022-12-31 09:53:26</time>
      </trkpt>
      <trkpt lat="40.04459" lon="-3.80664">
        <ele>525.6</ele>
        <time>2022-12-31 09:53:27</time>
      </trkpt>
      <trkpt lat="40.04458" lon="-3.8066">
        <ele>525.6</ele>
        <time>2022-12-31 09:53:28</time>
      </trkpt>
      <trkpt lat="40.04458" lon="-3.80656">
        <ele>525.8</ele>
        <time>2022-12-31 09:53:29</time>
      </trkpt>
      <trkpt lat="40.04456" lon="-3.80651">
        <ele>525.8</ele>
        <time>2022-12-31 09:53:30</time>
      </trkpt>
      <trkpt lat="40.04455" lon="-3.80648">
        <ele>526</ele>
        <time>2022-12-31 09:53:31</time>
      </trkpt>
      <trkpt lat="40.04453" lon="-3.80645">
        <ele>526.2</ele>
        <time>2022-12-31 09:53:32</time>
      </trkpt>
      <trkpt lat="40.0445" lon="-3.80642">
        <ele>526.4</ele>
        <time>2022-12-31 09:53:33</time>
      </trkpt>
      <trkpt lat="40.04447" lon="-3.8064">
        <ele>526.4</ele>
        <time>2022-12-31 09:53:34</time>
      </trkpt>
      <trkpt lat="40.04444" lon="-3.80637">
        <ele>526.8</ele>
        <time>2022-12-31 09:53:35</time>
      </trkpt>
      <trkpt lat="40.04441" lon="-3.80635">
        <ele>526.8</ele>
        <time>2022-12-31 09:53:36</time>
      </trkpt>
      <trkpt lat="40.04438" lon="-3.80633">
        <ele>527</ele>
        <time>2022-12-31 09:53:37</time>
      </trkpt>
      <trkpt lat="40.04435" lon="-3.80631">
        <ele>527.2</ele>
        <time>2022-12-31 09:53:38</time>
      </trkpt>
      <trkpt lat="40.04432" lon="-3.80629">
        <ele>527.4</ele>
        <time>2022-12-31 09:53:39</time>
      </trkpt>
      <trkpt lat="40.04429" lon="-3.80627">
        <ele>527.4</ele>
        <time>2022-12-31 09:53:40</time>
      </trkpt>
      <trkpt lat="40.04425" lon="-3.80625">
        <ele>527.6</ele>
        <time>2022-12-31 09:53:41</time>
      </trkpt>
      <trkpt lat="40.04422" lon="-3.80623">
        <ele>528</ele>
        <time>2022-12-31 09:53:42</time>
      </trkpt>
      <trkpt lat="40.04418" lon="-3.80621">
        <ele>528.6</ele>
        <time>2022-12-31 09:53:43</time>
      </trkpt>
      <trkpt lat="40.04415" lon="-3.8062">
        <ele>528.8</ele>
        <time>2022-12-31 09:53:44</time>
      </trkpt>
      <trkpt lat="40.04411" lon="-3.80617">
        <ele>528.8</ele>
        <time>2022-12-31 09:53:45</time>
      </trkpt>
      <trkpt lat="40.04408" lon="-3.80615">
        <ele>529</ele>
        <time>2022-12-31 09:53:46</time>
      </trkpt>
      <trkpt lat="40.04404" lon="-3.80612">
        <ele>529</ele>
        <time>2022-12-31 09:53:47</time>
      </trkpt>
      <trkpt lat="40.044" lon="-3.8061">
        <ele>529</ele>
        <time>2022-12-31 09:53:48</time>
      </trkpt>
      <trkpt lat="40.04397" lon="-3.80607">
        <ele>529.4</ele>
        <time>2022-12-31 09:53:49</time>
      </trkpt>
      <trkpt lat="40.04394" lon="-3.80605">
        <ele>529.6</ele>
        <time>2022-12-31 09:53:50</time>
      </trkpt>
      <trkpt lat="40.0439" lon="-3.80603">
        <ele>529.6</ele>
        <time>2022-12-31 09:53:51</time>
      </trkpt>
      <trkpt lat="40.04387" lon="-3.80601">
        <ele>529.6</ele>
        <time>2022-12-31 09:53:52</time>
      </trkpt>
      <trkpt lat="40.04383" lon="-3.80599">
        <ele>529.6</ele>
        <time>2022-12-31 09:53:53</time>
      </trkpt>
      <trkpt lat="40.04379" lon="-3.80597">
        <ele>529.8</ele>
        <time>2022-12-31 09:53:54</time>
      </trkpt>
      <trkpt lat="40.04376" lon="-3.80594">
        <ele>530</ele>
        <time>2022-12-31 09:53:55</time>
      </trkpt>
      <trkpt lat="40.04372" lon="-3.80592">
        <ele>529.8</ele>
        <time>2022-12-31 09:53:56</time>
      </trkpt>
      <trkpt lat="40.04369" lon="-3.8059">
        <ele>530</ele>
        <time>2022-12-31 09:53:57</time>
      </trkpt>
      <trkpt lat="40.04366" lon="-3.80589">
        <ele>530</ele>
        <time>2022-12-31 09:53:58</time>
      </trkpt>
      <trkpt lat="40.04362" lon="-3.80587">
        <ele>530.2</ele>
        <time>2022-12-31 09:53:59</time>
      </trkpt>
      <trkpt lat="40.04359" lon="-3.80585">
        <ele>530.4</ele>
        <time>2022-12-31 09:54:00</time>
      </trkpt>
      <trkpt lat="40.04355" lon="-3.80583">
        <ele>530.6</ele>
        <time>2022-12-31 09:54:01</time>
      </trkpt>
      <trkpt lat="40.04352" lon="-3.80582">
        <ele>530.8</ele>
        <time>2022-12-31 09:54:02</time>
      </trkpt>
      <trkpt lat="40.04348" lon="-3.80581">
        <ele>531</ele>
        <time>2022-12-31 09:54:03</time>
      </trkpt>
      <trkpt lat="40.04344" lon="-3.80579">
        <ele>531.2</ele>
        <time>2022-12-31 09:54:04</time>
      </trkpt>
      <trkpt lat="40.0434" lon="-3.80578">
        <ele>531.2</ele>
        <time>2022-12-31 09:54:05</time>
      </trkpt>
      <trkpt lat="40.04337" lon="-3.80577">
        <ele>531.6</ele>
        <time>2022-12-31 09:54:06</time>
      </trkpt>
      <trkpt lat="40.04333" lon="-3.80575">
        <ele>531.8</ele>
        <time>2022-12-31 09:54:07</time>
      </trkpt>
      <trkpt lat="40.04329" lon="-3.80574">
        <ele>532</ele>
        <time>2022-12-31 09:54:08</time>
      </trkpt>
      <trkpt lat="40.04325" lon="-3.80573">
        <ele>532.2</ele>
        <time>2022-12-31 09:54:09</time>
      </trkpt>
      <trkpt lat="40.04321" lon="-3.80572">
        <ele>532.2</ele>
        <time>2022-12-31 09:54:10</time>
      </trkpt>
      <trkpt lat="40.04317" lon="-3.80571">
        <ele>532.2</ele>
        <time>2022-12-31 09:54:11</time>
      </trkpt>
      <trkpt lat="40.04313" lon="-3.80569">
        <ele>532.4</ele>
        <time>2022-12-31 09:54:12</time>
      </trkpt>
      <trkpt lat="40.04309" lon="-3.80568">
        <ele>532.4</ele>
        <time>2022-12-31 09:54:13</time>
      </trkpt>
      <trkpt lat="40.04305" lon="-3.80567">
        <ele>532.8</ele>
        <time>2022-12-31 09:54:14</time>
      </trkpt>
      <trkpt lat="40.04301" lon="-3.80566">
        <ele>532.8</ele>
        <time>2022-12-31 09:54:15</time>
      </trkpt>
      <trkpt lat="40.04297" lon="-3.80565">
        <ele>533</ele>
        <time>2022-12-31 09:54:16</time>
      </trkpt>
      <trkpt lat="40.04293" lon="-3.80563">
        <ele>533.2</ele>
        <time>2022-12-31 09:54:17</time>
      </trkpt>
      <trkpt lat="40.04289" lon="-3.80562">
        <ele>533.2</ele>
        <time>2022-12-31 09:54:18</time>
      </trkpt>
      <trkpt lat="40.04285" lon="-3.80561">
        <ele>533.4</ele>
        <time>2022-12-31 09:54:19</time>
      </trkpt>
      <trkpt lat="40.04282" lon="-3.8056">
        <ele>533.6</ele>
        <time>2022-12-31 09:54:20</time>
      </trkpt>
      <trkpt lat="40.04278" lon="-3.80559">
        <ele>533.6</ele>
        <time>2022-12-31 09:54:21</time>
      </trkpt>
      <trkpt lat="40.04274" lon="-3.80558">
        <ele>534</ele>
        <time>2022-12-31 09:54:22</time>
      </trkpt>
      <trkpt lat="40.0427" lon="-3.80556">
        <ele>534.2</ele>
        <time>2022-12-31 09:54:23</time>
      </trkpt>
      <trkpt lat="40.04265" lon="-3.80555">
        <ele>534.6</ele>
        <time>2022-12-31 09:54:24</time>
      </trkpt>
      <trkpt lat="40.04261" lon="-3.80554">
        <ele>534.6</ele>
        <time>2022-12-31 09:54:25</time>
      </trkpt>
      <trkpt lat="40.04257" lon="-3.80552">
        <ele>534.8</ele>
        <time>2022-12-31 09:54:26</time>
      </trkpt>
      <trkpt lat="40.04253" lon="-3.80551">
        <ele>535</ele>
        <time>2022-12-31 09:54:27</time>
      </trkpt>
      <trkpt lat="40.04249" lon="-3.8055">
        <ele>535</ele>
        <time>2022-12-31 09:54:28</time>
      </trkpt>
      <trkpt lat="40.04245" lon="-3.80549">
        <ele>535.4</ele>
        <time>2022-12-31 09:54:29</time>
      </trkpt>
      <trkpt lat="40.0424" lon="-3.80549">
        <ele>535.6</ele>
        <time>2022-12-31 09:54:30</time>
      </trkpt>
      <trkpt lat="40.04236" lon="-3.80548">
        <ele>535.8</ele>
        <time>2022-12-31 09:54:31</time>
      </trkpt>
      <trkpt lat="40.04231" lon="-3.80548">
        <ele>536</ele>
        <time>2022-12-31 09:54:32</time>
      </trkpt>
      <trkpt lat="40.04227" lon="-3.80548">
        <ele>536.2</ele>
        <time>2022-12-31 09:54:33</time>
      </trkpt>
      <trkpt lat="40.04222" lon="-3.80547">
        <ele>536.2</ele>
        <time>2022-12-31 09:54:34</time>
      </trkpt>
      <trkpt lat="40.04218" lon="-3.80547">
        <ele>536.4</ele>
        <time>2022-12-31 09:54:35</time>
      </trkpt>
      <trkpt lat="40.04213" lon="-3.80547">
        <ele>536.4</ele>
        <time>2022-12-31 09:54:36</time>
      </trkpt>
      <trkpt lat="40.04209" lon="-3.80548">
        <ele>536.6</ele>
        <time>2022-12-31 09:54:37</time>
      </trkpt>
      <trkpt lat="40.04205" lon="-3.80549">
        <ele>536.6</ele>
        <time>2022-12-31 09:54:38</time>
      </trkpt>
      <trkpt lat="40.042" lon="-3.8055">
        <ele>536.6</ele>
        <time>2022-12-31 09:54:39</time>
      </trkpt>
      <trkpt lat="40.04196" lon="-3.80552">
        <ele>536.6</ele>
        <time>2022-12-31 09:54:40</time>
      </trkpt>
      <trkpt lat="40.04192" lon="-3.80554">
        <ele>536.6</ele>
        <time>2022-12-31 09:54:41</time>
      </trkpt>
      <trkpt lat="40.04188" lon="-3.80555">
        <ele>536.8</ele>
        <time>2022-12-31 09:54:42</time>
      </trkpt>
      <trkpt lat="40.04184" lon="-3.80557">
        <ele>536.8</ele>
        <time>2022-12-31 09:54:43</time>
      </trkpt>
      <trkpt lat="40.0418" lon="-3.80557">
        <ele>537</ele>
        <time>2022-12-31 09:54:44</time>
      </trkpt>
      <trkpt lat="40.04177" lon="-3.80557">
        <ele>537</ele>
        <time>2022-12-31 09:54:45</time>
      </trkpt>
      <trkpt lat="40.04173" lon="-3.80555">
        <ele>537.2</ele>
        <time>2022-12-31 09:54:46</time>
      </trkpt>
      <trkpt lat="40.0417" lon="-3.80553">
        <ele>537.2</ele>
        <time>2022-12-31 09:54:47</time>
      </trkpt>
      <trkpt lat="40.04168" lon="-3.80549">
        <ele>537.2</ele>
        <time>2022-12-31 09:54:48</time>
      </trkpt>
      <trkpt lat="40.04167" lon="-3.80545">
        <ele>537.2</ele>
        <time>2022-12-31 09:54:49</time>
      </trkpt>
      <trkpt lat="40.04165" lon="-3.8054">
        <ele>537.4</ele>
        <time>2022-12-31 09:54:50</time>
      </trkpt>
      <trkpt lat="40.04165" lon="-3.80536">
        <ele>537.6</ele>
        <time>2022-12-31 09:54:51</time>
      </trkpt>
      <trkpt lat="40.04164" lon="-3.80531">
        <ele>537.6</ele>
        <time>2022-12-31 09:54:52</time>
      </trkpt>
      <trkpt lat="40.04164" lon="-3.80527">
        <ele>537.6</ele>
        <time>2022-12-31 09:54:53</time>
      </trkpt>
      <trkpt lat="40.04163" lon="-3.80522">
        <ele>537.6</ele>
        <time>2022-12-31 09:54:54</time>
      </trkpt>
      <trkpt lat="40.04163" lon="-3.80517">
        <ele>538</ele>
        <time>2022-12-31 09:54:55</time>
      </trkpt>
      <trkpt lat="40.04163" lon="-3.80513">
        <ele>538.2</ele>
        <time>2022-12-31 09:54:56</time>
      </trkpt>
      <trkpt lat="40.04163" lon="-3.80508">
        <ele>538.2</ele>
        <time>2022-12-31 09:54:57</time>
      </trkpt>
      <trkpt lat="40.04162" lon="-3.80504">
        <ele>538.2</ele>
        <time>2022-12-31 09:54:58</time>
      </trkpt>
      <trkpt lat="40.04162" lon="-3.805">
        <ele>538.4</ele>
        <time>2022-12-31 09:54:59</time>
      </trkpt>
      <trkpt lat="40.04162" lon="-3.80495">
        <ele>538.4</ele>
        <time>2022-12-31 09:55:00</time>
      </trkpt>
      <trkpt lat="40.04161" lon="-3.8049">
        <ele>538.4</ele>
        <time>2022-12-31 09:55:01</time>
      </trkpt>
      <trkpt lat="40.04161" lon="-3.80486">
        <ele>538.6</ele>
        <time>2022-12-31 09:55:02</time>
      </trkpt>
      <trkpt lat="40.0416" lon="-3.80481">
        <ele>538.4</ele>
        <time>2022-12-31 09:55:03</time>
      </trkpt>
      <trkpt lat="40.0416" lon="-3.80477">
        <ele>538.6</ele>
        <time>2022-12-31 09:55:04</time>
      </trkpt>
      <trkpt lat="40.04159" lon="-3.80472">
        <ele>538.8</ele>
        <time>2022-12-31 09:55:05</time>
      </trkpt>
      <trkpt lat="40.04159" lon="-3.80467">
        <ele>538.8</ele>
        <time>2022-12-31 09:55:06</time>
      </trkpt>
      <trkpt lat="40.04159" lon="-3.80463">
        <ele>539</ele>
        <time>2022-12-31 09:55:07</time>
      </trkpt>
      <trkpt lat="40.04158" lon="-3.80458">
        <ele>539.2</ele>
        <time>2022-12-31 09:55:08</time>
      </trkpt>
      <trkpt lat="40.04158" lon="-3.80454">
        <ele>539.4</ele>
        <time>2022-12-31 09:55:09</time>
      </trkpt>
      <trkpt lat="40.04158" lon="-3.80449">
        <ele>539.8</ele>
        <time>2022-12-31 09:55:10</time>
      </trkpt>
      <trkpt lat="40.04158" lon="-3.80445">
        <ele>540.2</ele>
        <time>2022-12-31 09:55:11</time>
      </trkpt>
      <trkpt lat="40.04158" lon="-3.8044">
        <ele>540.2</ele>
        <time>2022-12-31 09:55:12</time>
      </trkpt>
      <trkpt lat="40.04158" lon="-3.80436">
        <ele>540.6</ele>
        <time>2022-12-31 09:55:13</time>
      </trkpt>
      <trkpt lat="40.04157" lon="-3.80431">
        <ele>540.6</ele>
        <time>2022-12-31 09:55:14</time>
      </trkpt>
      <trkpt lat="40.04157" lon="-3.80427">
        <ele>541</ele>
        <time>2022-12-31 09:55:15</time>
      </trkpt>
      <trkpt lat="40.04157" lon="-3.80423">
        <ele>541</ele>
        <time>2022-12-31 09:55:16</time>
      </trkpt>
      <trkpt lat="40.04157" lon="-3.80419">
        <ele>541.2</ele>
        <time>2022-12-31 09:55:17</time>
      </trkpt>
      <trkpt lat="40.04157" lon="-3.80415">
        <ele>541.6</ele>
        <time>2022-12-31 09:55:18</time>
      </trkpt>
      <trkpt lat="40.04157" lon="-3.8041">
        <ele>542</ele>
        <time>2022-12-31 09:55:19</time>
      </trkpt>
      <trkpt lat="40.04157" lon="-3.80406">
        <ele>542</ele>
        <time>2022-12-31 09:55:20</time>
      </trkpt>
      <trkpt lat="40.04157" lon="-3.80402">
        <ele>542.4</ele>
        <time>2022-12-31 09:55:21</time>
      </trkpt>
      <trkpt lat="40.04157" lon="-3.80398">
        <ele>542.4</ele>
        <time>2022-12-31 09:55:22</time>
      </trkpt>
      <trkpt lat="40.04157" lon="-3.80394">
        <ele>542.8</ele>
        <time>2022-12-31 09:55:23</time>
      </trkpt>
      <trkpt lat="40.04157" lon="-3.80389">
        <ele>542.8</ele>
        <time>2022-12-31 09:55:24</time>
      </trkpt>
      <trkpt lat="40.04157" lon="-3.80385">
        <ele>543</ele>
        <time>2022-12-31 09:55:25</time>
      </trkpt>
      <trkpt lat="40.04156" lon="-3.80381">
        <ele>543.2</ele>
        <time>2022-12-31 09:55:26</time>
      </trkpt>
      <trkpt lat="40.04156" lon="-3.80377">
        <ele>543.4</ele>
        <time>2022-12-31 09:55:27</time>
      </trkpt>
      <trkpt lat="40.04156" lon="-3.80374">
        <ele>543.6</ele>
        <time>2022-12-31 09:55:28</time>
      </trkpt>
      <trkpt lat="40.04156" lon="-3.8037">
        <ele>544</ele>
        <time>2022-12-31 09:55:29</time>
      </trkpt>
      <trkpt lat="40.04156" lon="-3.80366">
        <ele>544</ele>
        <time>2022-12-31 09:55:30</time>
      </trkpt>
      <trkpt lat="40.04157" lon="-3.80362">
        <ele>544</ele>
        <time>2022-12-31 09:55:31</time>
      </trkpt>
      <trkpt lat="40.04157" lon="-3.80359">
        <ele>544.2</ele>
        <time>2022-12-31 09:55:32</time>
      </trkpt>
      <trkpt lat="40.04158" lon="-3.80356">
        <ele>544.4</ele>
        <time>2022-12-31 09:55:33</time>
      </trkpt>
      <trkpt lat="40.04159" lon="-3.80352">
        <ele>544.4</ele>
        <time>2022-12-31 09:55:34</time>
      </trkpt>
      <trkpt lat="40.0416" lon="-3.80349">
        <ele>544.6</ele>
        <time>2022-12-31 09:55:35</time>
      </trkpt>
      <trkpt lat="40.0416" lon="-3.80346">
        <ele>545</ele>
        <time>2022-12-31 09:55:36</time>
      </trkpt>
      <trkpt lat="40.04161" lon="-3.80343">
        <ele>545.4</ele>
        <time>2022-12-31 09:55:37</time>
      </trkpt>
      <trkpt lat="40.04162" lon="-3.8034">
        <ele>545.6</ele>
        <time>2022-12-31 09:55:38</time>
      </trkpt>
      <trkpt lat="40.04164" lon="-3.80337">
        <ele>545.8</ele>
        <time>2022-12-31 09:55:39</time>
      </trkpt>
      <trkpt lat="40.04165" lon="-3.80334">
        <ele>545.8</ele>
        <time>2022-12-31 09:55:40</time>
      </trkpt>
      <trkpt lat="40.04167" lon="-3.80331">
        <ele>546</ele>
        <time>2022-12-31 09:55:41</time>
      </trkpt>
      <trkpt lat="40.04168" lon="-3.80328">
        <ele>546.4</ele>
        <time>2022-12-31 09:55:42</time>
      </trkpt>
      <trkpt lat="40.0417" lon="-3.80325">
        <ele>546.4</ele>
        <time>2022-12-31 09:55:43</time>
      </trkpt>
      <trkpt lat="40.04172" lon="-3.80322">
        <ele>546.8</ele>
        <time>2022-12-31 09:55:44</time>
      </trkpt>
      <trkpt lat="40.04174" lon="-3.8032">
        <ele>547</ele>
        <time>2022-12-31 09:55:45</time>
      </trkpt>
      <trkpt lat="40.04176" lon="-3.80318">
        <ele>547.2</ele>
        <time>2022-12-31 09:55:46</time>
      </trkpt>
      <trkpt lat="40.04178" lon="-3.80316">
        <ele>547.4</ele>
        <time>2022-12-31 09:55:47</time>
      </trkpt>
      <trkpt lat="40.0418" lon="-3.80315">
        <ele>547.6</ele>
        <time>2022-12-31 09:55:48</time>
      </trkpt>
      <trkpt lat="40.04183" lon="-3.80313">
        <ele>547.8</ele>
        <time>2022-12-31 09:55:49</time>
      </trkpt>
      <trkpt lat="40.04185" lon="-3.80312">
        <ele>548</ele>
        <time>2022-12-31 09:55:50</time>
      </trkpt>
      <trkpt lat="40.04187" lon="-3.8031">
        <ele>548.2</ele>
        <time>2022-12-31 09:55:51</time>
      </trkpt>
      <trkpt lat="40.04189" lon="-3.80308">
        <ele>548.4</ele>
        <time>2022-12-31 09:55:52</time>
      </trkpt>
      <trkpt lat="40.04191" lon="-3.80306">
        <ele>548.6</ele>
        <time>2022-12-31 09:55:53</time>
      </trkpt>
      <trkpt lat="40.04193" lon="-3.80304">
        <ele>549</ele>
        <time>2022-12-31 09:55:54</time>
      </trkpt>
      <trkpt lat="40.04195" lon="-3.80302">
        <ele>549</ele>
        <time>2022-12-31 09:55:55</time>
      </trkpt>
      <trkpt lat="40.04197" lon="-3.80299">
        <ele>548.8</ele>
        <time>2022-12-31 09:55:56</time>
      </trkpt>
      <trkpt lat="40.04198" lon="-3.80297">
        <ele>549.4</ele>
        <time>2022-12-31 09:55:57</time>
      </trkpt>
      <trkpt lat="40.04199" lon="-3.80294">
        <ele>549.6</ele>
        <time>2022-12-31 09:55:58</time>
      </trkpt>
      <trkpt lat="40.042" lon="-3.80291">
        <ele>549.8</ele>
        <time>2022-12-31 09:55:59</time>
      </trkpt>
      <trkpt lat="40.04201" lon="-3.80289">
        <ele>550</ele>
        <time>2022-12-31 09:56:00</time>
      </trkpt>
      <trkpt lat="40.04202" lon="-3.80286">
        <ele>550.2</ele>
        <time>2022-12-31 09:56:01</time>
      </trkpt>
      <trkpt lat="40.04203" lon="-3.80283">
        <ele>550.6</ele>
        <time>2022-12-31 09:56:02</time>
      </trkpt>
      <trkpt lat="40.04204" lon="-3.8028">
        <ele>551.2</ele>
        <time>2022-12-31 09:56:03</time>
      </trkpt>
      <trkpt lat="40.04205" lon="-3.80277">
        <ele>551.4</ele>
        <time>2022-12-31 09:56:04</time>
      </trkpt>
      <trkpt lat="40.04206" lon="-3.80274">
        <ele>551.6</ele>
        <time>2022-12-31 09:56:05</time>
      </trkpt>
      <trkpt lat="40.04206" lon="-3.80271">
        <ele>552</ele>
        <time>2022-12-31 09:56:06</time>
      </trkpt>
      <trkpt lat="40.04206" lon="-3.80267">
        <ele>552</ele>
        <time>2022-12-31 09:56:07</time>
      </trkpt>
      <trkpt lat="40.04207" lon="-3.80264">
        <ele>552.2</ele>
        <time>2022-12-31 09:56:08</time>
      </trkpt>
      <trkpt lat="40.04209" lon="-3.80262">
        <ele>552.4</ele>
        <time>2022-12-31 09:56:09</time>
      </trkpt>
      <trkpt lat="40.0421" lon="-3.80259">
        <ele>552.8</ele>
        <time>2022-12-31 09:56:10</time>
      </trkpt>
      <trkpt lat="40.04211" lon="-3.80256">
        <ele>553</ele>
        <time>2022-12-31 09:56:11</time>
      </trkpt>
      <trkpt lat="40.04211" lon="-3.80252">
        <ele>553.2</ele>
        <time>2022-12-31 09:56:12</time>
      </trkpt>
      <trkpt lat="40.04212" lon="-3.80249">
        <ele>553.4</ele>
        <time>2022-12-31 09:56:13</time>
      </trkpt>
      <trkpt lat="40.04214" lon="-3.80247">
        <ele>553.8</ele>
        <time>2022-12-31 09:56:14</time>
      </trkpt>
      <trkpt lat="40.04214" lon="-3.80244">
        <ele>553.8</ele>
        <time>2022-12-31 09:56:15</time>
      </trkpt>
      <trkpt lat="40.04215" lon="-3.8024">
        <ele>554</ele>
        <time>2022-12-31 09:56:16</time>
      </trkpt>
      <trkpt lat="40.04216" lon="-3.80237">
        <ele>554.4</ele>
        <time>2022-12-31 09:56:17</time>
      </trkpt>
      <trkpt lat="40.04216" lon="-3.80234">
        <ele>554.6</ele>
        <time>2022-12-31 09:56:18</time>
      </trkpt>
      <trkpt lat="40.04217" lon="-3.80231">
        <ele>554.6</ele>
        <time>2022-12-31 09:56:19</time>
      </trkpt>
      <trkpt lat="40.04218" lon="-3.80228">
        <ele>554.8</ele>
        <time>2022-12-31 09:56:20</time>
      </trkpt>
      <trkpt lat="40.04219" lon="-3.80226">
        <ele>554.8</ele>
        <time>2022-12-31 09:56:21</time>
      </trkpt>
      <trkpt lat="40.0422" lon="-3.80223">
        <ele>555.2</ele>
        <time>2022-12-31 09:56:22</time>
      </trkpt>
      <trkpt lat="40.04221" lon="-3.8022">
        <ele>555.4</ele>
        <time>2022-12-31 09:56:23</time>
      </trkpt>
      <trkpt lat="40.04221" lon="-3.80217">
        <ele>555.4</ele>
        <time>2022-12-31 09:56:24</time>
      </trkpt>
      <trkpt lat="40.04222" lon="-3.80214">
        <ele>555.6</ele>
        <time>2022-12-31 09:56:25</time>
      </trkpt>
      <trkpt lat="40.04223" lon="-3.80212">
        <ele>556</ele>
        <time>2022-12-31 09:56:26</time>
      </trkpt>
      <trkpt lat="40.04224" lon="-3.80209">
        <ele>556.2</ele>
        <time>2022-12-31 09:56:27</time>
      </trkpt>
      <trkpt lat="40.04225" lon="-3.80206">
        <ele>556.4</ele>
        <time>2022-12-31 09:56:28</time>
      </trkpt>
      <trkpt lat="40.04225" lon="-3.80202">
        <ele>556.6</ele>
        <time>2022-12-31 09:56:29</time>
      </trkpt>
      <trkpt lat="40.04226" lon="-3.80199">
        <ele>557</ele>
        <time>2022-12-31 09:56:30</time>
      </trkpt>
      <trkpt lat="40.04227" lon="-3.80196">
        <ele>557.2</ele>
        <time>2022-12-31 09:56:31</time>
      </trkpt>
      <trkpt lat="40.04227" lon="-3.80193">
        <ele>557.2</ele>
        <time>2022-12-31 09:56:32</time>
      </trkpt>
      <trkpt lat="40.04228" lon="-3.80189">
        <ele>557.4</ele>
        <time>2022-12-31 09:56:33</time>
      </trkpt>
      <trkpt lat="40.04229" lon="-3.80186">
        <ele>557.6</ele>
        <time>2022-12-31 09:56:34</time>
      </trkpt>
      <trkpt lat="40.0423" lon="-3.80183">
        <ele>557.6</ele>
        <time>2022-12-31 09:56:35</time>
      </trkpt>
      <trkpt lat="40.0423" lon="-3.8018">
        <ele>558</ele>
        <time>2022-12-31 09:56:36</time>
      </trkpt>
      <trkpt lat="40.04231" lon="-3.80176">
        <ele>558.2</ele>
        <time>2022-12-31 09:56:37</time>
      </trkpt>
      <trkpt lat="40.04231" lon="-3.80173">
        <ele>558.4</ele>
        <time>2022-12-31 09:56:38</time>
      </trkpt>
      <trkpt lat="40.04231" lon="-3.8017">
        <ele>558.8</ele>
        <time>2022-12-31 09:56:39</time>
      </trkpt>
      <trkpt lat="40.0423" lon="-3.80167">
        <ele>558.8</ele>
        <time>2022-12-31 09:56:40</time>
      </trkpt>
      <trkpt lat="40.04229" lon="-3.80164">
        <ele>559.2</ele>
        <time>2022-12-31 09:56:41</time>
      </trkpt>
      <trkpt lat="40.04228" lon="-3.80161">
        <ele>559.4</ele>
        <time>2022-12-31 09:56:42</time>
      </trkpt>
      <trkpt lat="40.04228" lon="-3.80159">
        <ele>559.6</ele>
        <time>2022-12-31 09:56:43</time>
      </trkpt>
      <trkpt lat="40.04227" lon="-3.80156">
        <ele>560</ele>
        <time>2022-12-31 09:56:44</time>
      </trkpt>
      <trkpt lat="40.04226" lon="-3.80154">
        <ele>560</ele>
        <time>2022-12-31 09:56:45</time>
      </trkpt>
      <trkpt lat="40.04224" lon="-3.80152">
        <ele>560.4</ele>
        <time>2022-12-31 09:56:46</time>
      </trkpt>
      <trkpt lat="40.04223" lon="-3.8015">
        <ele>560.4</ele>
        <time>2022-12-31 09:56:47</time>
      </trkpt>
      <trkpt lat="40.04222" lon="-3.80148">
        <ele>560.8</ele>
        <time>2022-12-31 09:56:48</time>
      </trkpt>
      <trkpt lat="40.04221" lon="-3.80145">
        <ele>560.8</ele>
        <time>2022-12-31 09:56:49</time>
      </trkpt>
      <trkpt lat="40.0422" lon="-3.80143">
        <ele>561.2</ele>
        <time>2022-12-31 09:56:50</time>
      </trkpt>
      <trkpt lat="40.04219" lon="-3.8014">
        <ele>561.6</ele>
        <time>2022-12-31 09:56:51</time>
      </trkpt>
      <trkpt lat="40.04217" lon="-3.80138">
        <ele>561.8</ele>
        <time>2022-12-31 09:56:52</time>
      </trkpt>
      <trkpt lat="40.04216" lon="-3.80136">
        <ele>562.2</ele>
        <time>2022-12-31 09:56:53</time>
      </trkpt>
      <trkpt lat="40.04215" lon="-3.80134">
        <ele>562.2</ele>
        <time>2022-12-31 09:56:54</time>
      </trkpt>
      <trkpt lat="40.04213" lon="-3.80132">
        <ele>562.2</ele>
        <time>2022-12-31 09:56:55</time>
      </trkpt>
      <trkpt lat="40.04212" lon="-3.80131">
        <ele>562.8</ele>
        <time>2022-12-31 09:56:56</time>
      </trkpt>
      <trkpt lat="40.0421" lon="-3.80129">
        <ele>563</ele>
        <time>2022-12-31 09:56:57</time>
      </trkpt>
      <trkpt lat="40.04209" lon="-3.80127">
        <ele>563.2</ele>
        <time>2022-12-31 09:56:58</time>
      </trkpt>
      <trkpt lat="40.04207" lon="-3.80124">
        <ele>563.6</ele>
        <time>2022-12-31 09:56:59</time>
      </trkpt>
      <trkpt lat="40.04206" lon="-3.80122">
        <ele>563.8</ele>
        <time>2022-12-31 09:57:00</time>
      </trkpt>
      <trkpt lat="40.04204" lon="-3.80121">
        <ele>563.8</ele>
        <time>2022-12-31 09:57:01</time>
      </trkpt>
      <trkpt lat="40.04203" lon="-3.80118">
        <ele>564.2</ele>
        <time>2022-12-31 09:57:02</time>
      </trkpt>
      <trkpt lat="40.04202" lon="-3.80116">
        <ele>564.4</ele>
        <time>2022-12-31 09:57:03</time>
      </trkpt>
      <trkpt lat="40.04201" lon="-3.80114">
        <ele>564.4</ele>
        <time>2022-12-31 09:57:04</time>
      </trkpt>
      <trkpt lat="40.04199" lon="-3.80112">
        <ele>564.4</ele>
        <time>2022-12-31 09:57:05</time>
      </trkpt>
      <trkpt lat="40.04198" lon="-3.8011">
        <ele>564.6</ele>
        <time>2022-12-31 09:57:06</time>
      </trkpt>
      <trkpt lat="40.04197" lon="-3.80107">
        <ele>564.6</ele>
        <time>2022-12-31 09:57:07</time>
      </trkpt>
      <trkpt lat="40.04195" lon="-3.80105">
        <ele>564.8</ele>
        <time>2022-12-31 09:57:08</time>
      </trkpt>
      <trkpt lat="40.04194" lon="-3.80103">
        <ele>565</ele>
        <time>2022-12-31 09:57:09</time>
      </trkpt>
      <trkpt lat="40.04192" lon="-3.801">
        <ele>565.2</ele>
        <time>2022-12-31 09:57:10</time>
      </trkpt>
      <trkpt lat="40.04191" lon="-3.80097">
        <ele>565.2</ele>
        <time>2022-12-31 09:57:11</time>
      </trkpt>
      <trkpt lat="40.04189" lon="-3.80095">
        <ele>565.4</ele>
        <time>2022-12-31 09:57:12</time>
      </trkpt>
      <trkpt lat="40.04187" lon="-3.80092">
        <ele>565.6</ele>
        <time>2022-12-31 09:57:13</time>
      </trkpt>
      <trkpt lat="40.04186" lon="-3.80089">
        <ele>565.8</ele>
        <time>2022-12-31 09:57:14</time>
      </trkpt>
      <trkpt lat="40.04184" lon="-3.80087">
        <ele>565.8</ele>
        <time>2022-12-31 09:57:15</time>
      </trkpt>
      <trkpt lat="40.04183" lon="-3.80084">
        <ele>566</ele>
        <time>2022-12-31 09:57:16</time>
      </trkpt>
      <trkpt lat="40.04181" lon="-3.80081">
        <ele>566.2</ele>
        <time>2022-12-31 09:57:17</time>
      </trkpt>
      <trkpt lat="40.0418" lon="-3.80078">
        <ele>566.6</ele>
        <time>2022-12-31 09:57:18</time>
      </trkpt>
      <trkpt lat="40.04178" lon="-3.80075">
        <ele>567</ele>
        <time>2022-12-31 09:57:19</time>
      </trkpt>
      <trkpt lat="40.04177" lon="-3.80072">
        <ele>567.2</ele>
        <time>2022-12-31 09:57:20</time>
      </trkpt>
      <trkpt lat="40.04175" lon="-3.80069">
        <ele>567.6</ele>
        <time>2022-12-31 09:57:21</time>
      </trkpt>
      <trkpt lat="40.04174" lon="-3.80066">
        <ele>567.8</ele>
        <time>2022-12-31 09:57:22</time>
      </trkpt>
      <trkpt lat="40.04172" lon="-3.80064">
        <ele>568.2</ele>
        <time>2022-12-31 09:57:23</time>
      </trkpt>
      <trkpt lat="40.04171" lon="-3.80061">
        <ele>568.4</ele>
        <time>2022-12-31 09:57:24</time>
      </trkpt>
      <trkpt lat="40.04169" lon="-3.80058">
        <ele>568.4</ele>
        <time>2022-12-31 09:57:25</time>
      </trkpt>
      <trkpt lat="40.04168" lon="-3.80055">
        <ele>568.6</ele>
        <time>2022-12-31 09:57:26</time>
      </trkpt>
      <trkpt lat="40.04167" lon="-3.80052">
        <ele>569</ele>
        <time>2022-12-31 09:57:27</time>
      </trkpt>
      <trkpt lat="40.04165" lon="-3.8005">
        <ele>569.2</ele>
        <time>2022-12-31 09:57:28</time>
      </trkpt>
      <trkpt lat="40.04164" lon="-3.80047">
        <ele>569.4</ele>
        <time>2022-12-31 09:57:29</time>
      </trkpt>
      <trkpt lat="40.04162" lon="-3.80044">
        <ele>569.6</ele>
        <time>2022-12-31 09:57:30</time>
      </trkpt>
      <trkpt lat="40.04161" lon="-3.80041">
        <ele>569.8</ele>
        <time>2022-12-31 09:57:31</time>
      </trkpt>
      <trkpt lat="40.04159" lon="-3.80039">
        <ele>570</ele>
        <time>2022-12-31 09:57:32</time>
      </trkpt>
      <trkpt lat="40.04157" lon="-3.80036">
        <ele>570.2</ele>
        <time>2022-12-31 09:57:33</time>
      </trkpt>
      <trkpt lat="40.04156" lon="-3.80033">
        <ele>570.4</ele>
        <time>2022-12-31 09:57:34</time>
      </trkpt>
      <trkpt lat="40.04156" lon="-3.8003">
        <ele>570.4</ele>
        <time>2022-12-31 09:57:35</time>
      </trkpt>
      <trkpt lat="40.04155" lon="-3.80027">
        <ele>570.6</ele>
        <time>2022-12-31 09:57:36</time>
      </trkpt>
      <trkpt lat="40.04154" lon="-3.80024">
        <ele>570.8</ele>
        <time>2022-12-31 09:57:37</time>
      </trkpt>
      <trkpt lat="40.04153" lon="-3.80021">
        <ele>571</ele>
        <time>2022-12-31 09:57:38</time>
      </trkpt>
      <trkpt lat="40.04152" lon="-3.80018">
        <ele>571.2</ele>
        <time>2022-12-31 09:57:39</time>
      </trkpt>
      <trkpt lat="40.04151" lon="-3.80014">
        <ele>571.6</ele>
        <time>2022-12-31 09:57:40</time>
      </trkpt>
      <trkpt lat="40.0415" lon="-3.80011">
        <ele>571.8</ele>
        <time>2022-12-31 09:57:41</time>
      </trkpt>
      <trkpt lat="40.04149" lon="-3.80008">
        <ele>572</ele>
        <time>2022-12-31 09:57:42</time>
      </trkpt>
      <trkpt lat="40.04148" lon="-3.80005">
        <ele>572.4</ele>
        <time>2022-12-31 09:57:43</time>
      </trkpt>
      <trkpt lat="40.04147" lon="-3.80001">
        <ele>572.6</ele>
        <time>2022-12-31 09:57:44</time>
      </trkpt>
      <trkpt lat="40.04146" lon="-3.79998">
        <ele>572.8</ele>
        <time>2022-12-31 09:57:45</time>
      </trkpt>
      <trkpt lat="40.04145" lon="-3.79994">
        <ele>573</ele>
        <time>2022-12-31 09:57:46</time>
      </trkpt>
      <trkpt lat="40.04145" lon="-3.79991">
        <ele>573</ele>
        <time>2022-12-31 09:57:47</time>
      </trkpt>
      <trkpt lat="40.04144" lon="-3.79988">
        <ele>573.4</ele>
        <time>2022-12-31 09:57:48</time>
      </trkpt>
      <trkpt lat="40.04143" lon="-3.79985">
        <ele>573.6</ele>
        <time>2022-12-31 09:57:49</time>
      </trkpt>
      <trkpt lat="40.04143" lon="-3.79981">
        <ele>573.6</ele>
        <time>2022-12-31 09:57:50</time>
      </trkpt>
      <trkpt lat="40.04143" lon="-3.79978">
        <ele>573.8</ele>
        <time>2022-12-31 09:57:51</time>
      </trkpt>
      <trkpt lat="40.04142" lon="-3.79975">
        <ele>574.2</ele>
        <time>2022-12-31 09:57:52</time>
      </trkpt>
      <trkpt lat="40.04141" lon="-3.79971">
        <ele>574.2</ele>
        <time>2022-12-31 09:57:53</time>
      </trkpt>
      <trkpt lat="40.04141" lon="-3.79968">
        <ele>574.6</ele>
        <time>2022-12-31 09:57:54</time>
      </trkpt>
      <trkpt lat="40.0414" lon="-3.79965">
        <ele>574.6</ele>
        <time>2022-12-31 09:57:55</time>
      </trkpt>
      <trkpt lat="40.0414" lon="-3.79961">
        <ele>575</ele>
        <time>2022-12-31 09:57:56</time>
      </trkpt>
      <trkpt lat="40.04139" lon="-3.79958">
        <ele>575.4</ele>
        <time>2022-12-31 09:57:57</time>
      </trkpt>
      <trkpt lat="40.04138" lon="-3.79955">
        <ele>575.4</ele>
        <time>2022-12-31 09:57:58</time>
      </trkpt>
      <trkpt lat="40.04138" lon="-3.79952">
        <ele>575.6</ele>
        <time>2022-12-31 09:57:59</time>
      </trkpt>
      <trkpt lat="40.04137" lon="-3.79949">
        <ele>575.8</ele>
        <time>2022-12-31 09:58:00</time>
      </trkpt>
      <trkpt lat="40.04137" lon="-3.79946">
        <ele>576</ele>
        <time>2022-12-31 09:58:01</time>
      </trkpt>
      <trkpt lat="40.04137" lon="-3.79943">
        <ele>576.4</ele>
        <time>2022-12-31 09:58:02</time>
      </trkpt>
      <trkpt lat="40.04137" lon="-3.79939">
        <ele>576.4</ele>
        <time>2022-12-31 09:58:03</time>
      </trkpt>
      <trkpt lat="40.04136" lon="-3.79936">
        <ele>576.8</ele>
        <time>2022-12-31 09:58:04</time>
      </trkpt>
      <trkpt lat="40.04136" lon="-3.79933">
        <ele>577.2</ele>
        <time>2022-12-31 09:58:05</time>
      </trkpt>
      <trkpt lat="40.04136" lon="-3.7993">
        <ele>577.2</ele>
        <time>2022-12-31 09:58:06</time>
      </trkpt>
      <trkpt lat="40.04136" lon="-3.79926">
        <ele>577.6</ele>
        <time>2022-12-31 09:58:07</time>
      </trkpt>
      <trkpt lat="40.04135" lon="-3.79923">
        <ele>577.6</ele>
        <time>2022-12-31 09:58:08</time>
      </trkpt>
      <trkpt lat="40.04135" lon="-3.7992">
        <ele>577.8</ele>
        <time>2022-12-31 09:58:09</time>
      </trkpt>
      <trkpt lat="40.04135" lon="-3.79916">
        <ele>578</ele>
        <time>2022-12-31 09:58:10</time>
      </trkpt>
      <trkpt lat="40.04135" lon="-3.79913">
        <ele>578.2</ele>
        <time>2022-12-31 09:58:11</time>
      </trkpt>
      <trkpt lat="40.04135" lon="-3.7991">
        <ele>578.6</ele>
        <time>2022-12-31 09:58:12</time>
      </trkpt>
      <trkpt lat="40.04134" lon="-3.79907">
        <ele>579</ele>
        <time>2022-12-31 09:58:13</time>
      </trkpt>
      <trkpt lat="40.04134" lon="-3.79904">
        <ele>579.4</ele>
        <time>2022-12-31 09:58:14</time>
      </trkpt>
      <trkpt lat="40.04134" lon="-3.79901">
        <ele>579.4</ele>
        <time>2022-12-31 09:58:15</time>
      </trkpt>
      <trkpt lat="40.04134" lon="-3.79897">
        <ele>579.4</ele>
        <time>2022-12-31 09:58:16</time>
      </trkpt>
      <trkpt lat="40.04133" lon="-3.79894">
        <ele>579.8</ele>
        <time>2022-12-31 09:58:17</time>
      </trkpt>
      <trkpt lat="40.04133" lon="-3.79891">
        <ele>579.8</ele>
        <time>2022-12-31 09:58:18</time>
      </trkpt>
      <trkpt lat="40.04132" lon="-3.79888">
        <ele>580</ele>
        <time>2022-12-31 09:58:19</time>
      </trkpt>
      <trkpt lat="40.04131" lon="-3.79885">
        <ele>580.4</ele>
        <time>2022-12-31 09:58:20</time>
      </trkpt>
      <trkpt lat="40.0413" lon="-3.79882">
        <ele>580.6</ele>
        <time>2022-12-31 09:58:21</time>
      </trkpt>
      <trkpt lat="40.04129" lon="-3.79879">
        <ele>581</ele>
        <time>2022-12-31 09:58:22</time>
      </trkpt>
      <trkpt lat="40.04129" lon="-3.79875">
        <ele>581.2</ele>
        <time>2022-12-31 09:58:23</time>
      </trkpt>
      <trkpt lat="40.04128" lon="-3.79872">
        <ele>581.6</ele>
        <time>2022-12-31 09:58:24</time>
      </trkpt>
      <trkpt lat="40.04128" lon="-3.79869">
        <ele>581.8</ele>
        <time>2022-12-31 09:58:25</time>
      </trkpt>
      <trkpt lat="40.04128" lon="-3.79866">
        <ele>582.2</ele>
        <time>2022-12-31 09:58:26</time>
      </trkpt>
      <trkpt lat="40.04127" lon="-3.79863">
        <ele>582.2</ele>
        <time>2022-12-31 09:58:27</time>
      </trkpt>
      <trkpt lat="40.04127" lon="-3.79859">
        <ele>582.6</ele>
        <time>2022-12-31 09:58:28</time>
      </trkpt>
      <trkpt lat="40.04127" lon="-3.79856">
        <ele>582.8</ele>
        <time>2022-12-31 09:58:29</time>
      </trkpt>
      <trkpt lat="40.04127" lon="-3.79853">
        <ele>583</ele>
        <time>2022-12-31 09:58:30</time>
      </trkpt>
      <trkpt lat="40.04127" lon="-3.79849">
        <ele>583.4</ele>
        <time>2022-12-31 09:58:31</time>
      </trkpt>
      <trkpt lat="40.04126" lon="-3.79846">
        <ele>583.2</ele>
        <time>2022-12-31 09:58:32</time>
      </trkpt>
      <trkpt lat="40.04126" lon="-3.79842">
        <ele>583.6</ele>
        <time>2022-12-31 09:58:33</time>
      </trkpt>
      <trkpt lat="40.04125" lon="-3.79839">
        <ele>583.6</ele>
        <time>2022-12-31 09:58:34</time>
      </trkpt>
      <trkpt lat="40.04125" lon="-3.79836">
        <ele>583.8</ele>
        <time>2022-12-31 09:58:35</time>
      </trkpt>
      <trkpt lat="40.04125" lon="-3.79832">
        <ele>583.8</ele>
        <time>2022-12-31 09:58:36</time>
      </trkpt>
      <trkpt lat="40.04125" lon="-3.79829">
        <ele>584</ele>
        <time>2022-12-31 09:58:37</time>
      </trkpt>
      <trkpt lat="40.04125" lon="-3.79826">
        <ele>584.2</ele>
        <time>2022-12-31 09:58:38</time>
      </trkpt>
      <trkpt lat="40.04124" lon="-3.79823">
        <ele>584.6</ele>
        <time>2022-12-31 09:58:39</time>
      </trkpt>
      <trkpt lat="40.04124" lon="-3.79819">
        <ele>584.8</ele>
        <time>2022-12-31 09:58:40</time>
      </trkpt>
      <trkpt lat="40.04124" lon="-3.79816">
        <ele>584.8</ele>
        <time>2022-12-31 09:58:41</time>
      </trkpt>
      <trkpt lat="40.04123" lon="-3.79813">
        <ele>584.8</ele>
        <time>2022-12-31 09:58:42</time>
      </trkpt>
      <trkpt lat="40.04124" lon="-3.7981">
        <ele>585</ele>
        <time>2022-12-31 09:58:43</time>
      </trkpt>
      <trkpt lat="40.04124" lon="-3.79806">
        <ele>585.4</ele>
        <time>2022-12-31 09:58:44</time>
      </trkpt>
      <trkpt lat="40.04124" lon="-3.79803">
        <ele>585.8</ele>
        <time>2022-12-31 09:58:45</time>
      </trkpt>
      <trkpt lat="40.04124" lon="-3.798">
        <ele>586</ele>
        <time>2022-12-31 09:58:46</time>
      </trkpt>
      <trkpt lat="40.04124" lon="-3.79796">
        <ele>586</ele>
        <time>2022-12-31 09:58:47</time>
      </trkpt>
      <trkpt lat="40.04124" lon="-3.79793">
        <ele>586.4</ele>
        <time>2022-12-31 09:58:48</time>
      </trkpt>
      <trkpt lat="40.04124" lon="-3.7979">
        <ele>586.4</ele>
        <time>2022-12-31 09:58:49</time>
      </trkpt>
      <trkpt lat="40.04124" lon="-3.79787">
        <ele>587</ele>
        <time>2022-12-31 09:58:50</time>
      </trkpt>
      <trkpt lat="40.04124" lon="-3.79784">
        <ele>587</ele>
        <time>2022-12-31 09:58:51</time>
      </trkpt>
      <trkpt lat="40.04124" lon="-3.7978">
        <ele>587.2</ele>
        <time>2022-12-31 09:58:52</time>
      </trkpt>
      <trkpt lat="40.04124" lon="-3.79777">
        <ele>587.4</ele>
        <time>2022-12-31 09:58:53</time>
      </trkpt>
      <trkpt lat="40.04124" lon="-3.79774">
        <ele>587.6</ele>
        <time>2022-12-31 09:58:54</time>
      </trkpt>
      <trkpt lat="40.04124" lon="-3.79771">
        <ele>588</ele>
        <time>2022-12-31 09:58:55</time>
      </trkpt>
      <trkpt lat="40.04124" lon="-3.79767">
        <ele>588</ele>
        <time>2022-12-31 09:58:56</time>
      </trkpt>
      <trkpt lat="40.04124" lon="-3.79764">
        <ele>588.4</ele>
        <time>2022-12-31 09:58:57</time>
      </trkpt>
      <trkpt lat="40.04123" lon="-3.79761">
        <ele>588.8</ele>
        <time>2022-12-31 09:58:58</time>
      </trkpt>
      <trkpt lat="40.04124" lon="-3.79757">
        <ele>589</ele>
        <time>2022-12-31 09:58:59</time>
      </trkpt>
      <trkpt lat="40.04124" lon="-3.79754">
        <ele>589.2</ele>
        <time>2022-12-31 09:59:00</time>
      </trkpt>
      <trkpt lat="40.04124" lon="-3.7975">
        <ele>589.6</ele>
        <time>2022-12-31 09:59:01</time>
      </trkpt>
      <trkpt lat="40.04124" lon="-3.79747">
        <ele>589.8</ele>
        <time>2022-12-31 09:59:02</time>
      </trkpt>
      <trkpt lat="40.04124" lon="-3.79743">
        <ele>590</ele>
        <time>2022-12-31 09:59:03</time>
      </trkpt>
      <trkpt lat="40.04124" lon="-3.7974">
        <ele>590.2</ele>
        <time>2022-12-31 09:59:04</time>
      </trkpt>
      <trkpt lat="40.04124" lon="-3.79737">
        <ele>590.6</ele>
        <time>2022-12-31 09:59:05</time>
      </trkpt>
      <trkpt lat="40.04123" lon="-3.79734">
        <ele>590.6</ele>
        <time>2022-12-31 09:59:06</time>
      </trkpt>
      <trkpt lat="40.04123" lon="-3.79731">
        <ele>590.6</ele>
        <time>2022-12-31 09:59:07</time>
      </trkpt>
      <trkpt lat="40.04123" lon="-3.79729">
        <ele>591</ele>
        <time>2022-12-31 09:59:08</time>
      </trkpt>
      <trkpt lat="40.04123" lon="-3.79727">
        <ele>591</ele>
        <time>2022-12-31 09:59:09</time>
      </trkpt>
      <trkpt lat="40.04123" lon="-3.79724">
        <ele>591.2</ele>
        <time>2022-12-31 09:59:10</time>
      </trkpt>
      <trkpt lat="40.04123" lon="-3.79721">
        <ele>591.2</ele>
        <time>2022-12-31 09:59:11</time>
      </trkpt>
      <trkpt lat="40.04123" lon="-3.79718">
        <ele>591.4</ele>
        <time>2022-12-31 09:59:12</time>
      </trkpt>
      <trkpt lat="40.04124" lon="-3.79714">
        <ele>591.6</ele>
        <time>2022-12-31 09:59:13</time>
      </trkpt>
      <trkpt lat="40.04124" lon="-3.79711">
        <ele>591.8</ele>
        <time>2022-12-31 09:59:14</time>
      </trkpt>
      <trkpt lat="40.04125" lon="-3.79708">
        <ele>592.2</ele>
        <time>2022-12-31 09:59:15</time>
      </trkpt>
      <trkpt lat="40.04126" lon="-3.79705">
        <ele>592.4</ele>
        <time>2022-12-31 09:59:16</time>
      </trkpt>
      <trkpt lat="40.04127" lon="-3.79701">
        <ele>592.4</ele>
        <time>2022-12-31 09:59:17</time>
      </trkpt>
      <trkpt lat="40.04128" lon="-3.79698">
        <ele>592.8</ele>
        <time>2022-12-31 09:59:18</time>
      </trkpt>
      <trkpt lat="40.04129" lon="-3.79695">
        <ele>592.8</ele>
        <time>2022-12-31 09:59:19</time>
      </trkpt>
      <trkpt lat="40.0413" lon="-3.79692">
        <ele>593.2</ele>
        <time>2022-12-31 09:59:20</time>
      </trkpt>
      <trkpt lat="40.04131" lon="-3.79689">
        <ele>593.4</ele>
        <time>2022-12-31 09:59:21</time>
      </trkpt>
      <trkpt lat="40.04131" lon="-3.79686">
        <ele>593.6</ele>
        <time>2022-12-31 09:59:22</time>
      </trkpt>
      <trkpt lat="40.04132" lon="-3.79683">
        <ele>593.8</ele>
        <time>2022-12-31 09:59:23</time>
      </trkpt>
      <trkpt lat="40.04132" lon="-3.79679">
        <ele>593.8</ele>
        <time>2022-12-31 09:59:24</time>
      </trkpt>
      <trkpt lat="40.04133" lon="-3.79676">
        <ele>594</ele>
        <time>2022-12-31 09:59:25</time>
      </trkpt>
      <trkpt lat="40.04133" lon="-3.79673">
        <ele>594</ele>
        <time>2022-12-31 09:59:26</time>
      </trkpt>
      <trkpt lat="40.04133" lon="-3.79669">
        <ele>594.2</ele>
        <time>2022-12-31 09:59:27</time>
      </trkpt>
      <trkpt lat="40.04134" lon="-3.79666">
        <ele>594.2</ele>
        <time>2022-12-31 09:59:28</time>
      </trkpt>
      <trkpt lat="40.04134" lon="-3.79664">
        <ele>594.6</ele>
        <time>2022-12-31 09:59:29</time>
      </trkpt>
      <trkpt lat="40.04134" lon="-3.79661">
        <ele>594.6</ele>
        <time>2022-12-31 09:59:30</time>
      </trkpt>
      <trkpt lat="40.04134" lon="-3.79659">
        <ele>595</ele>
        <time>2022-12-31 09:59:31</time>
      </trkpt>
      <trkpt lat="40.04134" lon="-3.79656">
        <ele>595.2</ele>
        <time>2022-12-31 09:59:32</time>
      </trkpt>
      <trkpt lat="40.04134" lon="-3.79654">
        <ele>595.4</ele>
        <time>2022-12-31 09:59:33</time>
      </trkpt>
      <trkpt lat="40.04134" lon="-3.79651">
        <ele>595.4</ele>
        <time>2022-12-31 09:59:34</time>
      </trkpt>
      <trkpt lat="40.04134" lon="-3.79649">
        <ele>595.6</ele>
        <time>2022-12-31 09:59:35</time>
      </trkpt>
      <trkpt lat="40.04134" lon="-3.79646">
        <ele>595.6</ele>
        <time>2022-12-31 09:59:36</time>
      </trkpt>
      <trkpt lat="40.04134" lon="-3.79644">
        <ele>595.6</ele>
        <time>2022-12-31 09:59:37</time>
      </trkpt>
      <trkpt lat="40.04134" lon="-3.79642">
        <ele>596</ele>
        <time>2022-12-31 09:59:38</time>
      </trkpt>
      <trkpt lat="40.04134" lon="-3.7964">
        <ele>596</ele>
        <time>2022-12-31 09:59:39</time>
      </trkpt>
      <trkpt lat="40.04134" lon="-3.79638">
        <ele>596.2</ele>
        <time>2022-12-31 09:59:40</time>
      </trkpt>
      <trkpt lat="40.04134" lon="-3.79635">
        <ele>596.4</ele>
        <time>2022-12-31 09:59:41</time>
      </trkpt>
      <trkpt lat="40.04134" lon="-3.79634">
        <ele>596.8</ele>
        <time>2022-12-31 09:59:42</time>
      </trkpt>
      <trkpt lat="40.04134" lon="-3.79631">
        <ele>597</ele>
        <time>2022-12-31 09:59:43</time>
      </trkpt>
      <trkpt lat="40.04133" lon="-3.7963">
        <ele>597.4</ele>
        <time>2022-12-31 09:59:44</time>
      </trkpt>
      <trkpt lat="40.04134" lon="-3.79628">
        <ele>598</ele>
        <time>2022-12-31 09:59:45</time>
      </trkpt>
      <trkpt lat="40.04134" lon="-3.79625">
        <ele>598.2</ele>
        <time>2022-12-31 09:59:46</time>
      </trkpt>
      <trkpt lat="40.04134" lon="-3.79623">
        <ele>598.4</ele>
        <time>2022-12-31 09:59:47</time>
      </trkpt>
      <trkpt lat="40.04135" lon="-3.79621">
        <ele>598.6</ele>
        <time>2022-12-31 09:59:48</time>
      </trkpt>
      <trkpt lat="40.04135" lon="-3.79619">
        <ele>599</ele>
        <time>2022-12-31 09:59:49</time>
      </trkpt>
      <trkpt lat="40.04136" lon="-3.79616">
        <ele>599.2</ele>
        <time>2022-12-31 09:59:50</time>
      </trkpt>
      <trkpt lat="40.04136" lon="-3.79614">
        <ele>599.4</ele>
        <time>2022-12-31 09:59:51</time>
      </trkpt>
      <trkpt lat="40.04136" lon="-3.79612">
        <ele>599.6</ele>
        <time>2022-12-31 09:59:52</time>
      </trkpt>
      <trkpt lat="40.04136" lon="-3.7961">
        <ele>599.8</ele>
        <time>2022-12-31 09:59:53</time>
      </trkpt>
      <trkpt lat="40.04136" lon="-3.79607">
        <ele>600.2</ele>
        <time>2022-12-31 09:59:54</time>
      </trkpt>
      <trkpt lat="40.04136" lon="-3.79604">
        <ele>600.6</ele>
        <time>2022-12-31 09:59:55</time>
      </trkpt>
      <trkpt lat="40.04136" lon="-3.79602">
        <ele>600.8</ele>
        <time>2022-12-31 09:59:56</time>
      </trkpt>
      <trkpt lat="40.04137" lon="-3.79599">
        <ele>601</ele>
        <time>2022-12-31 09:59:57</time>
      </trkpt>
      <trkpt lat="40.04137" lon="-3.79596">
        <ele>601</ele>
        <time>2022-12-31 09:59:58</time>
      </trkpt>
      <trkpt lat="40.04138" lon="-3.79592">
        <ele>601.2</ele>
        <time>2022-12-31 09:59:59</time>
      </trkpt>
      <trkpt lat="40.04138" lon="-3.79589">
        <ele>601.6</ele>
        <time>2022-12-31 10:00:00</time>
      </trkpt>
      <trkpt lat="40.04139" lon="-3.79585">
        <ele>601.8</ele>
        <time>2022-12-31 10:00:01</time>
      </trkpt>
      <trkpt lat="40.0414" lon="-3.7958">
        <ele>602</ele>
        <time>2022-12-31 10:00:02</time>
      </trkpt>
      <trkpt lat="40.04141" lon="-3.79576">
        <ele>602.2</ele>
        <time>2022-12-31 10:00:03</time>
      </trkpt>
      <trkpt lat="40.04142" lon="-3.79572">
        <ele>602.4</ele>
        <time>2022-12-31 10:00:04</time>
      </trkpt>
      <trkpt lat="40.04143" lon="-3.79568">
        <ele>602.2</ele>
        <time>2022-12-31 10:00:05</time>
      </trkpt>
      <trkpt lat="40.04143" lon="-3.79563">
        <ele>602.4</ele>
        <time>2022-12-31 10:00:06</time>
      </trkpt>
      <trkpt lat="40.04144" lon="-3.79558">
        <ele>602.4</ele>
        <time>2022-12-31 10:00:07</time>
      </trkpt>
      <trkpt lat="40.04145" lon="-3.79553">
        <ele>602.6</ele>
        <time>2022-12-31 10:00:08</time>
      </trkpt>
      <trkpt lat="40.04146" lon="-3.79548">
        <ele>602.4</ele>
        <time>2022-12-31 10:00:09</time>
      </trkpt>
      <trkpt lat="40.04148" lon="-3.79543">
        <ele>602.4</ele>
        <time>2022-12-31 10:00:10</time>
      </trkpt>
      <trkpt lat="40.04148" lon="-3.79538">
        <ele>602.4</ele>
        <time>2022-12-31 10:00:11</time>
      </trkpt>
      <trkpt lat="40.04149" lon="-3.79532">
        <ele>602.6</ele>
        <time>2022-12-31 10:00:12</time>
      </trkpt>
      <trkpt lat="40.04151" lon="-3.79527">
        <ele>602.4</ele>
        <time>2022-12-31 10:00:13</time>
      </trkpt>
      <trkpt lat="40.04153" lon="-3.79521">
        <ele>602.4</ele>
        <time>2022-12-31 10:00:14</time>
      </trkpt>
      <trkpt lat="40.04154" lon="-3.79515">
        <ele>602.4</ele>
        <time>2022-12-31 10:00:15</time>
      </trkpt>
      <trkpt lat="40.04155" lon="-3.79509">
        <ele>602.2</ele>
        <time>2022-12-31 10:00:16</time>
      </trkpt>
      <trkpt lat="40.04157" lon="-3.79502">
        <ele>602.2</ele>
        <time>2022-12-31 10:00:17</time>
      </trkpt>
      <trkpt lat="40.04158" lon="-3.79496">
        <ele>602.2</ele>
        <time>2022-12-31 10:00:18</time>
      </trkpt>
      <trkpt lat="40.04159" lon="-3.7949">
        <ele>602.2</ele>
        <time>2022-12-31 10:00:19</time>
      </trkpt>
      <trkpt lat="40.04161" lon="-3.79483">
        <ele>602.2</ele>
        <time>2022-12-31 10:00:20</time>
      </trkpt>
      <trkpt lat="40.04163" lon="-3.79478">
        <ele>602.2</ele>
        <time>2022-12-31 10:00:21</time>
      </trkpt>
      <trkpt lat="40.04165" lon="-3.79472">
        <ele>602</ele>
        <time>2022-12-31 10:00:22</time>
      </trkpt>
      <trkpt lat="40.04166" lon="-3.79466">
        <ele>602.2</ele>
        <time>2022-12-31 10:00:23</time>
      </trkpt>
      <trkpt lat="40.04169" lon="-3.7946">
        <ele>602</ele>
        <time>2022-12-31 10:00:24</time>
      </trkpt>
      <trkpt lat="40.04171" lon="-3.79455">
        <ele>602</ele>
        <time>2022-12-31 10:00:25</time>
      </trkpt>
      <trkpt lat="40.04173" lon="-3.79449">
        <ele>602.2</ele>
        <time>2022-12-31 10:00:26</time>
      </trkpt>
      <trkpt lat="40.04174" lon="-3.79443">
        <ele>602.2</ele>
        <time>2022-12-31 10:00:27</time>
      </trkpt>
      <trkpt lat="40.04176" lon="-3.79437">
        <ele>602</ele>
        <time>2022-12-31 10:00:28</time>
      </trkpt>
      <trkpt lat="40.04178" lon="-3.79431">
        <ele>602</ele>
        <time>2022-12-31 10:00:29</time>
      </trkpt>
      <trkpt lat="40.0418" lon="-3.79426">
        <ele>602</ele>
        <time>2022-12-31 10:00:30</time>
      </trkpt>
      <trkpt lat="40.04182" lon="-3.79421">
        <ele>602.2</ele>
        <time>2022-12-31 10:00:31</time>
      </trkpt>
      <trkpt lat="40.04184" lon="-3.79415">
        <ele>602.2</ele>
        <time>2022-12-31 10:00:32</time>
      </trkpt>
      <trkpt lat="40.04186" lon="-3.7941">
        <ele>602.2</ele>
        <time>2022-12-31 10:00:33</time>
      </trkpt>
      <trkpt lat="40.04188" lon="-3.79404">
        <ele>602.2</ele>
        <time>2022-12-31 10:00:34</time>
      </trkpt>
      <trkpt lat="40.0419" lon="-3.79398">
        <ele>602.2</ele>
        <time>2022-12-31 10:00:35</time>
      </trkpt>
      <trkpt lat="40.04192" lon="-3.79391">
        <ele>602.2</ele>
        <time>2022-12-31 10:00:36</time>
      </trkpt>
      <trkpt lat="40.04194" lon="-3.79385">
        <ele>602.2</ele>
        <time>2022-12-31 10:00:37</time>
      </trkpt>
      <trkpt lat="40.04196" lon="-3.79378">
        <ele>602.2</ele>
        <time>2022-12-31 10:00:38</time>
      </trkpt>
      <trkpt lat="40.04198" lon="-3.79371">
        <ele>602.2</ele>
        <time>2022-12-31 10:00:39</time>
      </trkpt>
      <trkpt lat="40.042" lon="-3.79364">
        <ele>602.2</ele>
        <time>2022-12-31 10:00:40</time>
      </trkpt>
      <trkpt lat="40.04203" lon="-3.79357">
        <ele>602.2</ele>
        <time>2022-12-31 10:00:41</time>
      </trkpt>
      <trkpt lat="40.04206" lon="-3.7935">
        <ele>602</ele>
        <time>2022-12-31 10:00:42</time>
      </trkpt>
      <trkpt lat="40.0421" lon="-3.79344">
        <ele>602.2</ele>
        <time>2022-12-31 10:00:43</time>
      </trkpt>
      <trkpt lat="40.04214" lon="-3.79339">
        <ele>602.2</ele>
        <time>2022-12-31 10:00:44</time>
      </trkpt>
      <trkpt lat="40.04218" lon="-3.79334">
        <ele>602</ele>
        <time>2022-12-31 10:00:45</time>
      </trkpt>
      <trkpt lat="40.04223" lon="-3.79329">
        <ele>601.8</ele>
        <time>2022-12-31 10:00:46</time>
      </trkpt>
      <trkpt lat="40.04228" lon="-3.79326">
        <ele>601.6</ele>
        <time>2022-12-31 10:00:47</time>
      </trkpt>
      <trkpt lat="40.04233" lon="-3.79323">
        <ele>601.4</ele>
        <time>2022-12-31 10:00:48</time>
      </trkpt>
      <trkpt lat="40.04238" lon="-3.79319">
        <ele>601.2</ele>
        <time>2022-12-31 10:00:49</time>
      </trkpt>
      <trkpt lat="40.04243" lon="-3.79316">
        <ele>601.2</ele>
        <time>2022-12-31 10:00:50</time>
      </trkpt>
      <trkpt lat="40.04247" lon="-3.79313">
        <ele>601.2</ele>
        <time>2022-12-31 10:00:51</time>
      </trkpt>
      <trkpt lat="40.04251" lon="-3.79309">
        <ele>601.2</ele>
        <time>2022-12-31 10:00:52</time>
      </trkpt>
      <trkpt lat="40.04255" lon="-3.79306">
        <ele>601</ele>
        <time>2022-12-31 10:00:53</time>
      </trkpt>
      <trkpt lat="40.04259" lon="-3.79302">
        <ele>601</ele>
        <time>2022-12-31 10:00:54</time>
      </trkpt>
      <trkpt lat="40.04263" lon="-3.79299">
        <ele>601</ele>
        <time>2022-12-31 10:00:55</time>
      </trkpt>
      <trkpt lat="40.04267" lon="-3.79295">
        <ele>601</ele>
        <time>2022-12-31 10:00:56</time>
      </trkpt>
      <trkpt lat="40.04271" lon="-3.79291">
        <ele>601</ele>
        <time>2022-12-31 10:00:57</time>
      </trkpt>
      <trkpt lat="40.04275" lon="-3.79287">
        <ele>601</ele>
        <time>2022-12-31 10:00:58</time>
      </trkpt>
      <trkpt lat="40.04279" lon="-3.79283">
        <ele>601</ele>
        <time>2022-12-31 10:00:59</time>
      </trkpt>
      <trkpt lat="40.04283" lon="-3.7928">
        <ele>600.8</ele>
        <time>2022-12-31 10:01:00</time>
      </trkpt>
      <trkpt lat="40.04287" lon="-3.79276">
        <ele>601</ele>
        <time>2022-12-31 10:01:01</time>
      </trkpt>
      <trkpt lat="40.04291" lon="-3.79273">
        <ele>601</ele>
        <time>2022-12-31 10:01:02</time>
      </trkpt>
      <trkpt lat="40.04296" lon="-3.7927">
        <ele>601</ele>
        <time>2022-12-31 10:01:03</time>
      </trkpt>
      <trkpt lat="40.043" lon="-3.79268">
        <ele>600.8</ele>
        <time>2022-12-31 10:01:04</time>
      </trkpt>
      <trkpt lat="40.04305" lon="-3.79266">
        <ele>600.8</ele>
        <time>2022-12-31 10:01:05</time>
      </trkpt>
      <trkpt lat="40.0431" lon="-3.79264">
        <ele>601</ele>
        <time>2022-12-31 10:01:06</time>
      </trkpt>
      <trkpt lat="40.04314" lon="-3.79262">
        <ele>600.8</ele>
        <time>2022-12-31 10:01:07</time>
      </trkpt>
      <trkpt lat="40.04319" lon="-3.79261">
        <ele>600.8</ele>
        <time>2022-12-31 10:01:08</time>
      </trkpt>
      <trkpt lat="40.04324" lon="-3.79259">
        <ele>600.8</ele>
        <time>2022-12-31 10:01:09</time>
      </trkpt>
      <trkpt lat="40.04329" lon="-3.79258">
        <ele>600.8</ele>
        <time>2022-12-31 10:01:10</time>
      </trkpt>
      <trkpt lat="40.04334" lon="-3.79257">
        <ele>600.8</ele>
        <time>2022-12-31 10:01:11</time>
      </trkpt>
      <trkpt lat="40.04339" lon="-3.79257">
        <ele>600.8</ele>
        <time>2022-12-31 10:01:12</time>
      </trkpt>
      <trkpt lat="40.04344" lon="-3.79256">
        <ele>600.8</ele>
        <time>2022-12-31 10:01:13</time>
      </trkpt>
      <trkpt lat="40.04348" lon="-3.79255">
        <ele>601</ele>
        <time>2022-12-31 10:01:14</time>
      </trkpt>
      <trkpt lat="40.04353" lon="-3.79254">
        <ele>601</ele>
        <time>2022-12-31 10:01:15</time>
      </trkpt>
      <trkpt lat="40.04357" lon="-3.79253">
        <ele>601.2</ele>
        <time>2022-12-31 10:01:16</time>
      </trkpt>
      <trkpt lat="40.04361" lon="-3.79251">
        <ele>601.4</ele>
        <time>2022-12-31 10:01:17</time>
      </trkpt>
      <trkpt lat="40.04366" lon="-3.79249">
        <ele>601.6</ele>
        <time>2022-12-31 10:01:18</time>
      </trkpt>
      <trkpt lat="40.0437" lon="-3.79247">
        <ele>601.6</ele>
        <time>2022-12-31 10:01:19</time>
      </trkpt>
      <trkpt lat="40.04374" lon="-3.79244">
        <ele>601.8</ele>
        <time>2022-12-31 10:01:20</time>
      </trkpt>
      <trkpt lat="40.04378" lon="-3.79242">
        <ele>602</ele>
        <time>2022-12-31 10:01:21</time>
      </trkpt>
      <trkpt lat="40.04382" lon="-3.7924">
        <ele>602.2</ele>
        <time>2022-12-31 10:01:22</time>
      </trkpt>
      <trkpt lat="40.04386" lon="-3.79238">
        <ele>602.4</ele>
        <time>2022-12-31 10:01:23</time>
      </trkpt>
      <trkpt lat="40.0439" lon="-3.79236">
        <ele>602.6</ele>
        <time>2022-12-31 10:01:24</time>
      </trkpt>
      <trkpt lat="40.04394" lon="-3.79234">
        <ele>603</ele>
        <time>2022-12-31 10:01:25</time>
      </trkpt>
      <trkpt lat="40.04398" lon="-3.79232">
        <ele>603.2</ele>
        <time>2022-12-31 10:01:26</time>
      </trkpt>
      <trkpt lat="40.04402" lon="-3.7923">
        <ele>603.2</ele>
        <time>2022-12-31 10:01:27</time>
      </trkpt>
      <trkpt lat="40.04405" lon="-3.79227">
        <ele>603.6</ele>
        <time>2022-12-31 10:01:28</time>
      </trkpt>
      <trkpt lat="40.04409" lon="-3.79225">
        <ele>603.8</ele>
        <time>2022-12-31 10:01:29</time>
      </trkpt>
      <trkpt lat="40.04412" lon="-3.79221">
        <ele>604</ele>
        <time>2022-12-31 10:01:30</time>
      </trkpt>
      <trkpt lat="40.04415" lon="-3.79217">
        <ele>604.4</ele>
        <time>2022-12-31 10:01:31</time>
      </trkpt>
      <trkpt lat="40.04418" lon="-3.79213">
        <ele>604.6</ele>
        <time>2022-12-31 10:01:32</time>
      </trkpt>
      <trkpt lat="40.04421" lon="-3.79208">
        <ele>604.8</ele>
        <time>2022-12-31 10:01:33</time>
      </trkpt>
      <trkpt lat="40.04423" lon="-3.79203">
        <ele>605</ele>
        <time>2022-12-31 10:01:34</time>
      </trkpt>
      <trkpt lat="40.04425" lon="-3.79198">
        <ele>605.2</ele>
        <time>2022-12-31 10:01:35</time>
      </trkpt>
      <trkpt lat="40.04427" lon="-3.79194">
        <ele>605.4</ele>
        <time>2022-12-31 10:01:36</time>
      </trkpt>
      <trkpt lat="40.0443" lon="-3.79189">
        <ele>605.4</ele>
        <time>2022-12-31 10:01:37</time>
      </trkpt>
      <trkpt lat="40.04434" lon="-3.79186">
        <ele>605.6</ele>
        <time>2022-12-31 10:01:38</time>
      </trkpt>
      <trkpt lat="40.04437" lon="-3.79182">
        <ele>605.8</ele>
        <time>2022-12-31 10:01:39</time>
      </trkpt>
      <trkpt lat="40.04441" lon="-3.79179">
        <ele>605.8</ele>
        <time>2022-12-31 10:01:40</time>
      </trkpt>
      <trkpt lat="40.04444" lon="-3.79175">
        <ele>606.2</ele>
        <time>2022-12-31 10:01:41</time>
      </trkpt>
      <trkpt lat="40.04448" lon="-3.79172">
        <ele>606.6</ele>
        <time>2022-12-31 10:01:42</time>
      </trkpt>
      <trkpt lat="40.04451" lon="-3.79168">
        <ele>606.8</ele>
        <time>2022-12-31 10:01:43</time>
      </trkpt>
      <trkpt lat="40.04454" lon="-3.79163">
        <ele>606.8</ele>
        <time>2022-12-31 10:01:44</time>
      </trkpt>
      <trkpt lat="40.04456" lon="-3.79158">
        <ele>607</ele>
        <time>2022-12-31 10:01:45</time>
      </trkpt>
      <trkpt lat="40.04458" lon="-3.79152">
        <ele>607</ele>
        <time>2022-12-31 10:01:46</time>
      </trkpt>
      <trkpt lat="40.04459" lon="-3.79145">
        <ele>607</ele>
        <time>2022-12-31 10:01:47</time>
      </trkpt>
      <trkpt lat="40.0446" lon="-3.79137">
        <ele>607</ele>
        <time>2022-12-31 10:01:48</time>
      </trkpt>
      <trkpt lat="40.04461" lon="-3.7913">
        <ele>607</ele>
        <time>2022-12-31 10:01:49</time>
      </trkpt>
      <trkpt lat="40.04462" lon="-3.79121">
        <ele>607</ele>
        <time>2022-12-31 10:01:50</time>
      </trkpt>
      <trkpt lat="40.04463" lon="-3.79112">
        <ele>607.2</ele>
        <time>2022-12-31 10:01:51</time>
      </trkpt>
      <trkpt lat="40.04464" lon="-3.79103">
        <ele>607</ele>
        <time>2022-12-31 10:01:52</time>
      </trkpt>
      <trkpt lat="40.04464" lon="-3.79094">
        <ele>607</ele>
        <time>2022-12-31 10:01:53</time>
      </trkpt>
      <trkpt lat="40.04463" lon="-3.79086">
        <ele>607</ele>
        <time>2022-12-31 10:01:54</time>
      </trkpt>
      <trkpt lat="40.04462" lon="-3.79078">
        <ele>606.6</ele>
        <time>2022-12-31 10:01:55</time>
      </trkpt>
      <trkpt lat="40.04461" lon="-3.7907">
        <ele>606</ele>
        <time>2022-12-31 10:01:56</time>
      </trkpt>
      <trkpt lat="40.04459" lon="-3.79061">
        <ele>605.4</ele>
        <time>2022-12-31 10:01:57</time>
      </trkpt>
      <trkpt lat="40.04456" lon="-3.79053">
        <ele>605.2</ele>
        <time>2022-12-31 10:01:58</time>
      </trkpt>
      <trkpt lat="40.04454" lon="-3.79044">
        <ele>604</ele>
        <time>2022-12-31 10:01:59</time>
      </trkpt>
      <trkpt lat="40.04451" lon="-3.79034">
        <ele>604</ele>
        <time>2022-12-31 10:02:00</time>
      </trkpt>
      <trkpt lat="40.04449" lon="-3.79026">
        <ele>603.6</ele>
        <time>2022-12-31 10:02:01</time>
      </trkpt>
      <trkpt lat="40.04446" lon="-3.79017">
        <ele>603.4</ele>
        <time>2022-12-31 10:02:02</time>
      </trkpt>
      <trkpt lat="40.04444" lon="-3.79008">
        <ele>603</ele>
        <time>2022-12-31 10:02:03</time>
      </trkpt>
      <trkpt lat="40.04443" lon="-3.79">
        <ele>602.4</ele>
        <time>2022-12-31 10:02:04</time>
      </trkpt>
      <trkpt lat="40.04442" lon="-3.78991">
        <ele>602.2</ele>
        <time>2022-12-31 10:02:05</time>
      </trkpt>
      <trkpt lat="40.04442" lon="-3.78983">
        <ele>602</ele>
        <time>2022-12-31 10:02:06</time>
      </trkpt>
      <trkpt lat="40.04442" lon="-3.78976">
        <ele>602</ele>
        <time>2022-12-31 10:02:07</time>
      </trkpt>
      <trkpt lat="40.04442" lon="-3.78969">
        <ele>602</ele>
        <time>2022-12-31 10:02:08</time>
      </trkpt>
      <trkpt lat="40.04442" lon="-3.78963">
        <ele>602</ele>
        <time>2022-12-31 10:02:09</time>
      </trkpt>
      <trkpt lat="40.04443" lon="-3.78957">
        <ele>602.2</ele>
        <time>2022-12-31 10:02:10</time>
      </trkpt>
      <trkpt lat="40.04444" lon="-3.78951">
        <ele>602</ele>
        <time>2022-12-31 10:02:11</time>
      </trkpt>
      <trkpt lat="40.04444" lon="-3.78946">
        <ele>602</ele>
        <time>2022-12-31 10:02:12</time>
      </trkpt>
      <trkpt lat="40.04445" lon="-3.78939">
        <ele>602</ele>
        <time>2022-12-31 10:02:13</time>
      </trkpt>
      <trkpt lat="40.04445" lon="-3.78933">
        <ele>602.2</ele>
        <time>2022-12-31 10:02:14</time>
      </trkpt>
      <trkpt lat="40.04445" lon="-3.78927">
        <ele>602</ele>
        <time>2022-12-31 10:02:15</time>
      </trkpt>
      <trkpt lat="40.04445" lon="-3.78921">
        <ele>602</ele>
        <time>2022-12-31 10:02:16</time>
      </trkpt>
      <trkpt lat="40.04444" lon="-3.78915">
        <ele>602.4</ele>
        <time>2022-12-31 10:02:17</time>
      </trkpt>
      <trkpt lat="40.04444" lon="-3.78908">
        <ele>603.2</ele>
        <time>2022-12-31 10:02:18</time>
      </trkpt>
      <trkpt lat="40.04443" lon="-3.78902">
        <ele>603.6</ele>
        <time>2022-12-31 10:02:19</time>
      </trkpt>
      <trkpt lat="40.04443" lon="-3.78895">
        <ele>603.6</ele>
        <time>2022-12-31 10:02:20</time>
      </trkpt>
      <trkpt lat="40.04443" lon="-3.78888">
        <ele>603.8</ele>
        <time>2022-12-31 10:02:21</time>
      </trkpt>
      <trkpt lat="40.04443" lon="-3.78882">
        <ele>603.8</ele>
        <time>2022-12-31 10:02:22</time>
      </trkpt>
      <trkpt lat="40.04442" lon="-3.78875">
        <ele>603.8</ele>
        <time>2022-12-31 10:02:23</time>
      </trkpt>
      <trkpt lat="40.04442" lon="-3.78868">
        <ele>603.8</ele>
        <time>2022-12-31 10:02:24</time>
      </trkpt>
      <trkpt lat="40.04441" lon="-3.78862">
        <ele>603.8</ele>
        <time>2022-12-31 10:02:25</time>
      </trkpt>
      <trkpt lat="40.04441" lon="-3.78855">
        <ele>604</ele>
        <time>2022-12-31 10:02:26</time>
      </trkpt>
      <trkpt lat="40.04441" lon="-3.78848">
        <ele>604</ele>
        <time>2022-12-31 10:02:27</time>
      </trkpt>
      <trkpt lat="40.04441" lon="-3.78842">
        <ele>604</ele>
        <time>2022-12-31 10:02:28</time>
      </trkpt>
      <trkpt lat="40.04441" lon="-3.78835">
        <ele>604</ele>
        <time>2022-12-31 10:02:29</time>
      </trkpt>
      <trkpt lat="40.04441" lon="-3.78828">
        <ele>604</ele>
        <time>2022-12-31 10:02:30</time>
      </trkpt>
      <trkpt lat="40.0444" lon="-3.78821">
        <ele>604</ele>
        <time>2022-12-31 10:02:31</time>
      </trkpt>
      <trkpt lat="40.0444" lon="-3.78815">
        <ele>603.8</ele>
        <time>2022-12-31 10:02:32</time>
      </trkpt>
      <trkpt lat="40.04439" lon="-3.78808">
        <ele>603.8</ele>
        <time>2022-12-31 10:02:33</time>
      </trkpt>
      <trkpt lat="40.04439" lon="-3.78802">
        <ele>603.8</ele>
        <time>2022-12-31 10:02:34</time>
      </trkpt>
      <trkpt lat="40.04438" lon="-3.78796">
        <ele>603.8</ele>
        <time>2022-12-31 10:02:35</time>
      </trkpt>
      <trkpt lat="40.04437" lon="-3.7879">
        <ele>603.8</ele>
        <time>2022-12-31 10:02:36</time>
      </trkpt>
      <trkpt lat="40.04436" lon="-3.78785">
        <ele>604</ele>
        <time>2022-12-31 10:02:37</time>
      </trkpt>
      <trkpt lat="40.04435" lon="-3.78779">
        <ele>603.8</ele>
        <time>2022-12-31 10:02:38</time>
      </trkpt>
      <trkpt lat="40.04434" lon="-3.78773">
        <ele>604</ele>
        <time>2022-12-31 10:02:39</time>
      </trkpt>
      <trkpt lat="40.04433" lon="-3.78767">
        <ele>603.8</ele>
        <time>2022-12-31 10:02:40</time>
      </trkpt>
      <trkpt lat="40.04432" lon="-3.78762">
        <ele>603.8</ele>
        <time>2022-12-31 10:02:41</time>
      </trkpt>
      <trkpt lat="40.04431" lon="-3.78756">
        <ele>603.8</ele>
        <time>2022-12-31 10:02:42</time>
      </trkpt>
      <trkpt lat="40.04429" lon="-3.7875">
        <ele>604</ele>
        <time>2022-12-31 10:02:43</time>
      </trkpt>
      <trkpt lat="40.04427" lon="-3.78745">
        <ele>604</ele>
        <time>2022-12-31 10:02:44</time>
      </trkpt>
      <trkpt lat="40.04425" lon="-3.78739">
        <ele>604</ele>
        <time>2022-12-31 10:02:45</time>
      </trkpt>
      <trkpt lat="40.04422" lon="-3.78733">
        <ele>604.2</ele>
        <time>2022-12-31 10:02:46</time>
      </trkpt>
      <trkpt lat="40.04419" lon="-3.78727">
        <ele>604.2</ele>
        <time>2022-12-31 10:02:47</time>
      </trkpt>
      <trkpt lat="40.04415" lon="-3.7872">
        <ele>604</ele>
        <time>2022-12-31 10:02:48</time>
      </trkpt>
      <trkpt lat="40.04411" lon="-3.78713">
        <ele>604</ele>
        <time>2022-12-31 10:02:49</time>
      </trkpt>
      <trkpt lat="40.04408" lon="-3.78705">
        <ele>604</ele>
        <time>2022-12-31 10:02:50</time>
      </trkpt>
      <trkpt lat="40.04404" lon="-3.78697">
        <ele>604.2</ele>
        <time>2022-12-31 10:02:51</time>
      </trkpt>
      <trkpt lat="40.04402" lon="-3.78689">
        <ele>604.2</ele>
        <time>2022-12-31 10:02:52</time>
      </trkpt>
      <trkpt lat="40.044" lon="-3.7868">
        <ele>604.2</ele>
        <time>2022-12-31 10:02:53</time>
      </trkpt>
      <trkpt lat="40.04398" lon="-3.78671">
        <ele>604</ele>
        <time>2022-12-31 10:02:54</time>
      </trkpt>
      <trkpt lat="40.04397" lon="-3.78662">
        <ele>604</ele>
        <time>2022-12-31 10:02:55</time>
      </trkpt>
      <trkpt lat="40.04396" lon="-3.78654">
        <ele>603.8</ele>
        <time>2022-12-31 10:02:56</time>
      </trkpt>
      <trkpt lat="40.04394" lon="-3.78645">
        <ele>603.4</ele>
        <time>2022-12-31 10:02:57</time>
      </trkpt>
      <trkpt lat="40.04391" lon="-3.78637">
        <ele>603</ele>
        <time>2022-12-31 10:02:58</time>
      </trkpt>
      <trkpt lat="40.04388" lon="-3.7863">
        <ele>602.4</ele>
        <time>2022-12-31 10:02:59</time>
      </trkpt>
      <trkpt lat="40.04385" lon="-3.78623">
        <ele>601.8</ele>
        <time>2022-12-31 10:03:00</time>
      </trkpt>
      <trkpt lat="40.04381" lon="-3.78616">
        <ele>601.8</ele>
        <time>2022-12-31 10:03:01</time>
      </trkpt>
      <trkpt lat="40.04378" lon="-3.78611">
        <ele>601.4</ele>
        <time>2022-12-31 10:03:02</time>
      </trkpt>
      <trkpt lat="40.04374" lon="-3.78605">
        <ele>601.2</ele>
        <time>2022-12-31 10:03:03</time>
      </trkpt>
      <trkpt lat="40.0437" lon="-3.78599">
        <ele>601</ele>
        <time>2022-12-31 10:03:04</time>
      </trkpt>
      <trkpt lat="40.04367" lon="-3.78594">
        <ele>601.2</ele>
        <time>2022-12-31 10:03:05</time>
      </trkpt>
      <trkpt lat="40.04363" lon="-3.78589">
        <ele>601.2</ele>
        <time>2022-12-31 10:03:06</time>
      </trkpt>
      <trkpt lat="40.0436" lon="-3.78582">
        <ele>601</ele>
        <time>2022-12-31 10:03:07</time>
      </trkpt>
      <trkpt lat="40.04357" lon="-3.78574">
        <ele>601</ele>
        <time>2022-12-31 10:03:08</time>
      </trkpt>
      <trkpt lat="40.04354" lon="-3.78565">
        <ele>600.8</ele>
        <time>2022-12-31 10:03:09</time>
      </trkpt>
      <trkpt lat="40.04352" lon="-3.78555">
        <ele>600.8</ele>
        <time>2022-12-31 10:03:10</time>
      </trkpt>
      <trkpt lat="40.04351" lon="-3.78545">
        <ele>600.6</ele>
        <time>2022-12-31 10:03:11</time>
      </trkpt>
      <trkpt lat="40.04349" lon="-3.78536">
        <ele>600.4</ele>
        <time>2022-12-31 10:03:12</time>
      </trkpt>
      <trkpt lat="40.04348" lon="-3.78526">
        <ele>600.2</ele>
        <time>2022-12-31 10:03:13</time>
      </trkpt>
      <trkpt lat="40.04346" lon="-3.78517">
        <ele>600.4</ele>
        <time>2022-12-31 10:03:14</time>
      </trkpt>
      <trkpt lat="40.04345" lon="-3.78508">
        <ele>600.2</ele>
        <time>2022-12-31 10:03:15</time>
      </trkpt>
      <trkpt lat="40.04343" lon="-3.785">
        <ele>600.4</ele>
        <time>2022-12-31 10:03:16</time>
      </trkpt>
      <trkpt lat="40.04341" lon="-3.78493">
        <ele>599.6</ele>
        <time>2022-12-31 10:03:17</time>
      </trkpt>
      <trkpt lat="40.04339" lon="-3.78486">
        <ele>598.8</ele>
        <time>2022-12-31 10:03:18</time>
      </trkpt>
      <trkpt lat="40.04338" lon="-3.78481">
        <ele>598.2</ele>
        <time>2022-12-31 10:03:19</time>
      </trkpt>
      <trkpt lat="40.04337" lon="-3.78477">
        <ele>598</ele>
        <time>2022-12-31 10:03:20</time>
      </trkpt>
      <trkpt lat="40.04337" lon="-3.78473">
        <ele>598</ele>
        <time>2022-12-31 10:03:21</time>
      </trkpt>
      <trkpt lat="40.04337" lon="-3.78469">
        <ele>597.8</ele>
        <time>2022-12-31 10:03:22</time>
      </trkpt>
      <trkpt lat="40.04338" lon="-3.78464">
        <ele>597.8</ele>
        <time>2022-12-31 10:03:23</time>
      </trkpt>
      <trkpt lat="40.04339" lon="-3.7846">
        <ele>597.8</ele>
        <time>2022-12-31 10:03:24</time>
      </trkpt>
      <trkpt lat="40.0434" lon="-3.78457">
        <ele>597.6</ele>
        <time>2022-12-31 10:03:25</time>
      </trkpt>
      <trkpt lat="40.04342" lon="-3.78453">
        <ele>597.6</ele>
        <time>2022-12-31 10:03:26</time>
      </trkpt>
      <trkpt lat="40.04344" lon="-3.78449">
        <ele>597.8</ele>
        <time>2022-12-31 10:03:27</time>
      </trkpt>
      <trkpt lat="40.04346" lon="-3.78445">
        <ele>597.6</ele>
        <time>2022-12-31 10:03:28</time>
      </trkpt>
      <trkpt lat="40.04348" lon="-3.78442">
        <ele>597.8</ele>
        <time>2022-12-31 10:03:29</time>
      </trkpt>
      <trkpt lat="40.0435" lon="-3.78438">
        <ele>597.6</ele>
        <time>2022-12-31 10:03:30</time>
      </trkpt>
      <trkpt lat="40.04352" lon="-3.78434">
        <ele>597.8</ele>
        <time>2022-12-31 10:03:31</time>
      </trkpt>
      <trkpt lat="40.04354" lon="-3.78431">
        <ele>597.8</ele>
        <time>2022-12-31 10:03:32</time>
      </trkpt>
      <trkpt lat="40.04357" lon="-3.78428">
        <ele>598</ele>
        <time>2022-12-31 10:03:33</time>
      </trkpt>
      <trkpt lat="40.04359" lon="-3.78424">
        <ele>597.8</ele>
        <time>2022-12-31 10:03:34</time>
      </trkpt>
      <trkpt lat="40.04361" lon="-3.78421">
        <ele>598</ele>
        <time>2022-12-31 10:03:35</time>
      </trkpt>
      <trkpt lat="40.04364" lon="-3.78418">
        <ele>598</ele>
        <time>2022-12-31 10:03:36</time>
      </trkpt>
      <trkpt lat="40.04366" lon="-3.78414">
        <ele>598</ele>
        <time>2022-12-31 10:03:37</time>
      </trkpt>
      <trkpt lat="40.04368" lon="-3.7841">
        <ele>598</ele>
        <time>2022-12-31 10:03:38</time>
      </trkpt>
      <trkpt lat="40.0437" lon="-3.78406">
        <ele>598.2</ele>
        <time>2022-12-31 10:03:39</time>
      </trkpt>
      <trkpt lat="40.04372" lon="-3.78402">
        <ele>598.2</ele>
        <time>2022-12-31 10:03:40</time>
      </trkpt>
      <trkpt lat="40.04375" lon="-3.78398">
        <ele>598.2</ele>
        <time>2022-12-31 10:03:41</time>
      </trkpt>
      <trkpt lat="40.04377" lon="-3.78394">
        <ele>598.2</ele>
        <time>2022-12-31 10:03:42</time>
      </trkpt>
      <trkpt lat="40.04379" lon="-3.7839">
        <ele>598.4</ele>
        <time>2022-12-31 10:03:43</time>
      </trkpt>
      <trkpt lat="40.04381" lon="-3.78386">
        <ele>598.6</ele>
        <time>2022-12-31 10:03:44</time>
      </trkpt>
      <trkpt lat="40.04384" lon="-3.78382">
        <ele>598.8</ele>
        <time>2022-12-31 10:03:45</time>
      </trkpt>
      <trkpt lat="40.04386" lon="-3.78378">
        <ele>598.8</ele>
        <time>2022-12-31 10:03:46</time>
      </trkpt>
      <trkpt lat="40.04388" lon="-3.78373">
        <ele>599</ele>
        <time>2022-12-31 10:03:47</time>
      </trkpt>
      <trkpt lat="40.04391" lon="-3.78369">
        <ele>599</ele>
        <time>2022-12-31 10:03:48</time>
      </trkpt>
      <trkpt lat="40.04393" lon="-3.78364">
        <ele>599</ele>
        <time>2022-12-31 10:03:49</time>
      </trkpt>
      <trkpt lat="40.04395" lon="-3.7836">
        <ele>599.4</ele>
        <time>2022-12-31 10:03:50</time>
      </trkpt>
      <trkpt lat="40.04397" lon="-3.78355">
        <ele>599.6</ele>
        <time>2022-12-31 10:03:51</time>
      </trkpt>
      <trkpt lat="40.044" lon="-3.7835">
        <ele>599.8</ele>
        <time>2022-12-31 10:03:52</time>
      </trkpt>
      <trkpt lat="40.04403" lon="-3.78346">
        <ele>600</ele>
        <time>2022-12-31 10:03:53</time>
      </trkpt>
      <trkpt lat="40.04405" lon="-3.78341">
        <ele>600</ele>
        <time>2022-12-31 10:03:54</time>
      </trkpt>
      <trkpt lat="40.04408" lon="-3.78336">
        <ele>600.2</ele>
        <time>2022-12-31 10:03:55</time>
      </trkpt>
      <trkpt lat="40.0441" lon="-3.78332">
        <ele>600.4</ele>
        <time>2022-12-31 10:03:56</time>
      </trkpt>
      <trkpt lat="40.04412" lon="-3.78327">
        <ele>600.4</ele>
        <time>2022-12-31 10:03:57</time>
      </trkpt>
      <trkpt lat="40.04415" lon="-3.78323">
        <ele>600.4</ele>
        <time>2022-12-31 10:03:58</time>
      </trkpt>
      <trkpt lat="40.04417" lon="-3.78318">
        <ele>600.6</ele>
        <time>2022-12-31 10:03:59</time>
      </trkpt>
      <trkpt lat="40.0442" lon="-3.78313">
        <ele>600.8</ele>
        <time>2022-12-31 10:04:00</time>
      </trkpt>
      <trkpt lat="40.04423" lon="-3.78307">
        <ele>600.8</ele>
        <time>2022-12-31 10:04:01</time>
      </trkpt>
      <trkpt lat="40.04426" lon="-3.78302">
        <ele>601</ele>
        <time>2022-12-31 10:04:02</time>
      </trkpt>
      <trkpt lat="40.04429" lon="-3.78297">
        <ele>601.2</ele>
        <time>2022-12-31 10:04:03</time>
      </trkpt>
      <trkpt lat="40.04432" lon="-3.78292">
        <ele>601.2</ele>
        <time>2022-12-31 10:04:04</time>
      </trkpt>
      <trkpt lat="40.04435" lon="-3.78287">
        <ele>601.4</ele>
        <time>2022-12-31 10:04:05</time>
      </trkpt>
      <trkpt lat="40.04438" lon="-3.78282">
        <ele>601.6</ele>
        <time>2022-12-31 10:04:06</time>
      </trkpt>
      <trkpt lat="40.04441" lon="-3.78276">
        <ele>601.6</ele>
        <time>2022-12-31 10:04:07</time>
      </trkpt>
      <trkpt lat="40.04444" lon="-3.78271">
        <ele>601.8</ele>
        <time>2022-12-31 10:04:08</time>
      </trkpt>
      <trkpt lat="40.04447" lon="-3.78266">
        <ele>601.6</ele>
        <time>2022-12-31 10:04:09</time>
      </trkpt>
      <trkpt lat="40.0445" lon="-3.78261">
        <ele>601.6</ele>
        <time>2022-12-31 10:04:10</time>
      </trkpt>
      <trkpt lat="40.04453" lon="-3.78255">
        <ele>601.6</ele>
        <time>2022-12-31 10:04:11</time>
      </trkpt>
      <trkpt lat="40.04456" lon="-3.7825">
        <ele>601.6</ele>
        <time>2022-12-31 10:04:12</time>
      </trkpt>
      <trkpt lat="40.04459" lon="-3.78245">
        <ele>601.8</ele>
        <time>2022-12-31 10:04:13</time>
      </trkpt>
      <trkpt lat="40.04462" lon="-3.7824">
        <ele>601.8</ele>
        <time>2022-12-31 10:04:14</time>
      </trkpt>
      <trkpt lat="40.04466" lon="-3.78235">
        <ele>601.8</ele>
        <time>2022-12-31 10:04:15</time>
      </trkpt>
      <trkpt lat="40.04469" lon="-3.78229">
        <ele>601.8</ele>
        <time>2022-12-31 10:04:16</time>
      </trkpt>
      <trkpt lat="40.04472" lon="-3.78224">
        <ele>601.8</ele>
        <time>2022-12-31 10:04:17</time>
      </trkpt>
      <trkpt lat="40.04475" lon="-3.78219">
        <ele>601.8</ele>
        <time>2022-12-31 10:04:18</time>
      </trkpt>
      <trkpt lat="40.04478" lon="-3.78213">
        <ele>601.8</ele>
        <time>2022-12-31 10:04:19</time>
      </trkpt>
      <trkpt lat="40.04481" lon="-3.78207">
        <ele>601.6</ele>
        <time>2022-12-31 10:04:20</time>
      </trkpt>
      <trkpt lat="40.04484" lon="-3.78202">
        <ele>601.6</ele>
        <time>2022-12-31 10:04:21</time>
      </trkpt>
      <trkpt lat="40.04486" lon="-3.78196">
        <ele>601.8</ele>
        <time>2022-12-31 10:04:22</time>
      </trkpt>
      <trkpt lat="40.04489" lon="-3.78191">
        <ele>602</ele>
        <time>2022-12-31 10:04:23</time>
      </trkpt>
      <trkpt lat="40.04492" lon="-3.78185">
        <ele>602</ele>
        <time>2022-12-31 10:04:24</time>
      </trkpt>
      <trkpt lat="40.04495" lon="-3.7818">
        <ele>601.8</ele>
        <time>2022-12-31 10:04:25</time>
      </trkpt>
      <trkpt lat="40.04498" lon="-3.78174">
        <ele>601.8</ele>
        <time>2022-12-31 10:04:26</time>
      </trkpt>
      <trkpt lat="40.04501" lon="-3.78168">
        <ele>602</ele>
        <time>2022-12-31 10:04:27</time>
      </trkpt>
      <trkpt lat="40.04503" lon="-3.78163">
        <ele>602</ele>
        <time>2022-12-31 10:04:28</time>
      </trkpt>
      <trkpt lat="40.04506" lon="-3.78157">
        <ele>602</ele>
        <time>2022-12-31 10:04:29</time>
      </trkpt>
      <trkpt lat="40.04509" lon="-3.78151">
        <ele>602.2</ele>
        <time>2022-12-31 10:04:30</time>
      </trkpt>
      <trkpt lat="40.04511" lon="-3.78146">
        <ele>602.2</ele>
        <time>2022-12-31 10:04:31</time>
      </trkpt>
      <trkpt lat="40.04514" lon="-3.7814">
        <ele>602.2</ele>
        <time>2022-12-31 10:04:32</time>
      </trkpt>
      <trkpt lat="40.04517" lon="-3.78135">
        <ele>602.2</ele>
        <time>2022-12-31 10:04:33</time>
      </trkpt>
      <trkpt lat="40.04519" lon="-3.78129">
        <ele>602.4</ele>
        <time>2022-12-31 10:04:34</time>
      </trkpt>
      <trkpt lat="40.04522" lon="-3.78124">
        <ele>602.4</ele>
        <time>2022-12-31 10:04:35</time>
      </trkpt>
      <trkpt lat="40.04525" lon="-3.78118">
        <ele>602.6</ele>
        <time>2022-12-31 10:04:36</time>
      </trkpt>
      <trkpt lat="40.04528" lon="-3.78113">
        <ele>602.8</ele>
        <time>2022-12-31 10:04:37</time>
      </trkpt>
      <trkpt lat="40.04531" lon="-3.78107">
        <ele>602.8</ele>
        <time>2022-12-31 10:04:38</time>
      </trkpt>
      <trkpt lat="40.04534" lon="-3.78102">
        <ele>602.8</ele>
        <time>2022-12-31 10:04:39</time>
      </trkpt>
      <trkpt lat="40.04536" lon="-3.78096">
        <ele>603</ele>
        <time>2022-12-31 10:04:40</time>
      </trkpt>
      <trkpt lat="40.04539" lon="-3.78091">
        <ele>602.8</ele>
        <time>2022-12-31 10:04:41</time>
      </trkpt>
      <trkpt lat="40.04542" lon="-3.78085">
        <ele>602.8</ele>
        <time>2022-12-31 10:04:42</time>
      </trkpt>
      <trkpt lat="40.04545" lon="-3.7808">
        <ele>603</ele>
        <time>2022-12-31 10:04:43</time>
      </trkpt>
      <trkpt lat="40.04548" lon="-3.78074">
        <ele>603</ele>
        <time>2022-12-31 10:04:44</time>
      </trkpt>
      <trkpt lat="40.0455" lon="-3.78069">
        <ele>603.2</ele>
        <time>2022-12-31 10:04:45</time>
      </trkpt>
      <trkpt lat="40.04553" lon="-3.78063">
        <ele>603.2</ele>
        <time>2022-12-31 10:04:46</time>
      </trkpt>
      <trkpt lat="40.04556" lon="-3.78058">
        <ele>603.2</ele>
        <time>2022-12-31 10:04:47</time>
      </trkpt>
      <trkpt lat="40.04559" lon="-3.78052">
        <ele>603.4</ele>
        <time>2022-12-31 10:04:48</time>
      </trkpt>
      <trkpt lat="40.04561" lon="-3.78047">
        <ele>603.4</ele>
        <time>2022-12-31 10:04:49</time>
      </trkpt>
      <trkpt lat="40.04564" lon="-3.78041">
        <ele>603.6</ele>
        <time>2022-12-31 10:04:50</time>
      </trkpt>
      <trkpt lat="40.04567" lon="-3.78036">
        <ele>603.6</ele>
        <time>2022-12-31 10:04:51</time>
      </trkpt>
      <trkpt lat="40.04569" lon="-3.78031">
        <ele>603.8</ele>
        <time>2022-12-31 10:04:52</time>
      </trkpt>
      <trkpt lat="40.04572" lon="-3.78025">
        <ele>603.6</ele>
        <time>2022-12-31 10:04:53</time>
      </trkpt>
      <trkpt lat="40.04574" lon="-3.7802">
        <ele>603.8</ele>
        <time>2022-12-31 10:04:54</time>
      </trkpt>
      <trkpt lat="40.04577" lon="-3.78015">
        <ele>603.8</ele>
        <time>2022-12-31 10:04:55</time>
      </trkpt>
      <trkpt lat="40.0458" lon="-3.7801">
        <ele>603.8</ele>
        <time>2022-12-31 10:04:56</time>
      </trkpt>
      <trkpt lat="40.04583" lon="-3.78005">
        <ele>604</ele>
        <time>2022-12-31 10:04:57</time>
      </trkpt>
      <trkpt lat="40.04586" lon="-3.78001">
        <ele>604</ele>
        <time>2022-12-31 10:04:58</time>
      </trkpt>
      <trkpt lat="40.04589" lon="-3.77995">
        <ele>604.2</ele>
        <time>2022-12-31 10:04:59</time>
      </trkpt>
      <trkpt lat="40.04592" lon="-3.7799">
        <ele>604.2</ele>
        <time>2022-12-31 10:05:00</time>
      </trkpt>
      <trkpt lat="40.04594" lon="-3.77985">
        <ele>604.4</ele>
        <time>2022-12-31 10:05:01</time>
      </trkpt>
      <trkpt lat="40.04597" lon="-3.7798">
        <ele>604.4</ele>
        <time>2022-12-31 10:05:02</time>
      </trkpt>
      <trkpt lat="40.04599" lon="-3.77974">
        <ele>604.4</ele>
        <time>2022-12-31 10:05:03</time>
      </trkpt>
      <trkpt lat="40.04602" lon="-3.77969">
        <ele>604.6</ele>
        <time>2022-12-31 10:05:04</time>
      </trkpt>
      <trkpt lat="40.04605" lon="-3.77964">
        <ele>604.8</ele>
        <time>2022-12-31 10:05:05</time>
      </trkpt>
      <trkpt lat="40.04608" lon="-3.77959">
        <ele>604.8</ele>
        <time>2022-12-31 10:05:06</time>
      </trkpt>
      <trkpt lat="40.04611" lon="-3.77953">
        <ele>605</ele>
        <time>2022-12-31 10:05:07</time>
      </trkpt>
      <trkpt lat="40.04614" lon="-3.77948">
        <ele>604.8</ele>
        <time>2022-12-31 10:05:08</time>
      </trkpt>
      <trkpt lat="40.04617" lon="-3.77943">
        <ele>605</ele>
        <time>2022-12-31 10:05:09</time>
      </trkpt>
      <trkpt lat="40.0462" lon="-3.77937">
        <ele>605</ele>
        <time>2022-12-31 10:05:10</time>
      </trkpt>
      <trkpt lat="40.04622" lon="-3.77932">
        <ele>605</ele>
        <time>2022-12-31 10:05:11</time>
      </trkpt>
      <trkpt lat="40.04625" lon="-3.77926">
        <ele>605.2</ele>
        <time>2022-12-31 10:05:12</time>
      </trkpt>
      <trkpt lat="40.04628" lon="-3.77921">
        <ele>605.2</ele>
        <time>2022-12-31 10:05:13</time>
      </trkpt>
      <trkpt lat="40.0463" lon="-3.77916">
        <ele>605.4</ele>
        <time>2022-12-31 10:05:14</time>
      </trkpt>
      <trkpt lat="40.04633" lon="-3.7791">
        <ele>605.6</ele>
        <time>2022-12-31 10:05:15</time>
      </trkpt>
      <trkpt lat="40.04636" lon="-3.77904">
        <ele>605.6</ele>
        <time>2022-12-31 10:05:16</time>
      </trkpt>
      <trkpt lat="40.04639" lon="-3.77899">
        <ele>605.8</ele>
        <time>2022-12-31 10:05:17</time>
      </trkpt>
      <trkpt lat="40.04642" lon="-3.77894">
        <ele>606</ele>
        <time>2022-12-31 10:05:18</time>
      </trkpt>
      <trkpt lat="40.04645" lon="-3.77888">
        <ele>606.2</ele>
        <time>2022-12-31 10:05:19</time>
      </trkpt>
      <trkpt lat="40.04647" lon="-3.77883">
        <ele>606</ele>
        <time>2022-12-31 10:05:20</time>
      </trkpt>
      <trkpt lat="40.0465" lon="-3.77878">
        <ele>606.2</ele>
        <time>2022-12-31 10:05:21</time>
      </trkpt>
      <trkpt lat="40.04652" lon="-3.77873">
        <ele>606.2</ele>
        <time>2022-12-31 10:05:22</time>
      </trkpt>
      <trkpt lat="40.04655" lon="-3.77867">
        <ele>606.2</ele>
        <time>2022-12-31 10:05:23</time>
      </trkpt>
      <trkpt lat="40.04658" lon="-3.77862">
        <ele>606.4</ele>
        <time>2022-12-31 10:05:24</time>
      </trkpt>
      <trkpt lat="40.0466" lon="-3.77857">
        <ele>606.6</ele>
        <time>2022-12-31 10:05:25</time>
      </trkpt>
      <trkpt lat="40.04663" lon="-3.77851">
        <ele>606.6</ele>
        <time>2022-12-31 10:05:26</time>
      </trkpt>
      <trkpt lat="40.04665" lon="-3.77846">
        <ele>606.8</ele>
        <time>2022-12-31 10:05:27</time>
      </trkpt>
      <trkpt lat="40.04668" lon="-3.77841">
        <ele>606.6</ele>
        <time>2022-12-31 10:05:28</time>
      </trkpt>
      <trkpt lat="40.0467" lon="-3.77835">
        <ele>606.8</ele>
        <time>2022-12-31 10:05:29</time>
      </trkpt>
      <trkpt lat="40.04672" lon="-3.7783">
        <ele>607</ele>
        <time>2022-12-31 10:05:30</time>
      </trkpt>
      <trkpt lat="40.04675" lon="-3.77824">
        <ele>607</ele>
        <time>2022-12-31 10:05:31</time>
      </trkpt>
      <trkpt lat="40.04677" lon="-3.77818">
        <ele>607.2</ele>
        <time>2022-12-31 10:05:32</time>
      </trkpt>
      <trkpt lat="40.04679" lon="-3.77813">
        <ele>607.4</ele>
        <time>2022-12-31 10:05:33</time>
      </trkpt>
      <trkpt lat="40.04682" lon="-3.77807">
        <ele>607.4</ele>
        <time>2022-12-31 10:05:34</time>
      </trkpt>
      <trkpt lat="40.04684" lon="-3.77801">
        <ele>607.6</ele>
        <time>2022-12-31 10:05:35</time>
      </trkpt>
      <trkpt lat="40.04686" lon="-3.77795">
        <ele>607.6</ele>
        <time>2022-12-31 10:05:36</time>
      </trkpt>
      <trkpt lat="40.04687" lon="-3.77789">
        <ele>607.8</ele>
        <time>2022-12-31 10:05:37</time>
      </trkpt>
      <trkpt lat="40.04688" lon="-3.77783">
        <ele>607.8</ele>
        <time>2022-12-31 10:05:38</time>
      </trkpt>
      <trkpt lat="40.04689" lon="-3.77777">
        <ele>608</ele>
        <time>2022-12-31 10:05:39</time>
      </trkpt>
      <trkpt lat="40.04689" lon="-3.77771">
        <ele>608</ele>
        <time>2022-12-31 10:05:40</time>
      </trkpt>
      <trkpt lat="40.0469" lon="-3.77764">
        <ele>608</ele>
        <time>2022-12-31 10:05:41</time>
      </trkpt>
      <trkpt lat="40.04692" lon="-3.77758">
        <ele>608.2</ele>
        <time>2022-12-31 10:05:42</time>
      </trkpt>
      <trkpt lat="40.04694" lon="-3.77752">
        <ele>608.2</ele>
        <time>2022-12-31 10:05:43</time>
      </trkpt>
      <trkpt lat="40.04695" lon="-3.77746">
        <ele>608.4</ele>
        <time>2022-12-31 10:05:44</time>
      </trkpt>
      <trkpt lat="40.04697" lon="-3.7774">
        <ele>608.2</ele>
        <time>2022-12-31 10:05:45</time>
      </trkpt>
      <trkpt lat="40.04698" lon="-3.77734">
        <ele>608.4</ele>
        <time>2022-12-31 10:05:46</time>
      </trkpt>
      <trkpt lat="40.04699" lon="-3.77728">
        <ele>608.6</ele>
        <time>2022-12-31 10:05:47</time>
      </trkpt>
      <trkpt lat="40.047" lon="-3.77722">
        <ele>608.8</ele>
        <time>2022-12-31 10:05:48</time>
      </trkpt>
      <trkpt lat="40.04701" lon="-3.77716">
        <ele>609</ele>
        <time>2022-12-31 10:05:49</time>
      </trkpt>
      <trkpt lat="40.04703" lon="-3.7771">
        <ele>609</ele>
        <time>2022-12-31 10:05:50</time>
      </trkpt>
      <trkpt lat="40.04704" lon="-3.77705">
        <ele>609.2</ele>
        <time>2022-12-31 10:05:51</time>
      </trkpt>
      <trkpt lat="40.04705" lon="-3.77699">
        <ele>609.2</ele>
        <time>2022-12-31 10:05:52</time>
      </trkpt>
      <trkpt lat="40.04707" lon="-3.77693">
        <ele>609.2</ele>
        <time>2022-12-31 10:05:53</time>
      </trkpt>
      <trkpt lat="40.04707" lon="-3.77687">
        <ele>609.2</ele>
        <time>2022-12-31 10:05:54</time>
      </trkpt>
      <trkpt lat="40.04708" lon="-3.77681">
        <ele>609.2</ele>
        <time>2022-12-31 10:05:55</time>
      </trkpt>
      <trkpt lat="40.0471" lon="-3.77675">
        <ele>609.4</ele>
        <time>2022-12-31 10:05:56</time>
      </trkpt>
      <trkpt lat="40.04711" lon="-3.7767">
        <ele>609.4</ele>
        <time>2022-12-31 10:05:57</time>
      </trkpt>
      <trkpt lat="40.04712" lon="-3.77665">
        <ele>609.4</ele>
        <time>2022-12-31 10:05:58</time>
      </trkpt>
      <trkpt lat="40.04713" lon="-3.7766">
        <ele>609.6</ele>
        <time>2022-12-31 10:05:59</time>
      </trkpt>
      <trkpt lat="40.04714" lon="-3.77655">
        <ele>609.6</ele>
        <time>2022-12-31 10:06:00</time>
      </trkpt>
      <trkpt lat="40.04716" lon="-3.77651">
        <ele>609.8</ele>
        <time>2022-12-31 10:06:01</time>
      </trkpt>
      <trkpt lat="40.04717" lon="-3.77646">
        <ele>609.6</ele>
        <time>2022-12-31 10:06:02</time>
      </trkpt>
      <trkpt lat="40.04718" lon="-3.77642">
        <ele>609.6</ele>
        <time>2022-12-31 10:06:03</time>
      </trkpt>
      <trkpt lat="40.0472" lon="-3.77637">
        <ele>610</ele>
        <time>2022-12-31 10:06:04</time>
      </trkpt>
      <trkpt lat="40.04721" lon="-3.77633">
        <ele>609.8</ele>
        <time>2022-12-31 10:06:05</time>
      </trkpt>
      <trkpt lat="40.04723" lon="-3.77629">
        <ele>610</ele>
        <time>2022-12-31 10:06:06</time>
      </trkpt>
      <trkpt lat="40.04724" lon="-3.77625">
        <ele>610.4</ele>
        <time>2022-12-31 10:06:07</time>
      </trkpt>
      <trkpt lat="40.04726" lon="-3.7762">
        <ele>610.6</ele>
        <time>2022-12-31 10:06:08</time>
      </trkpt>
      <trkpt lat="40.04728" lon="-3.77616">
        <ele>610.8</ele>
        <time>2022-12-31 10:06:09</time>
      </trkpt>
      <trkpt lat="40.0473" lon="-3.77612">
        <ele>611.2</ele>
        <time>2022-12-31 10:06:10</time>
      </trkpt>
      <trkpt lat="40.04732" lon="-3.77608">
        <ele>611.4</ele>
        <time>2022-12-31 10:06:11</time>
      </trkpt>
      <trkpt lat="40.04734" lon="-3.77604">
        <ele>611.6</ele>
        <time>2022-12-31 10:06:12</time>
      </trkpt>
      <trkpt lat="40.04736" lon="-3.776">
        <ele>611.8</ele>
        <time>2022-12-31 10:06:13</time>
      </trkpt>
      <trkpt lat="40.04738" lon="-3.77596">
        <ele>612</ele>
        <time>2022-12-31 10:06:14</time>
      </trkpt>
      <trkpt lat="40.04741" lon="-3.77593">
        <ele>612.2</ele>
        <time>2022-12-31 10:06:15</time>
      </trkpt>
      <trkpt lat="40.04743" lon="-3.77589">
        <ele>612</ele>
        <time>2022-12-31 10:06:16</time>
      </trkpt>
      <trkpt lat="40.04746" lon="-3.77585">
        <ele>612.2</ele>
        <time>2022-12-31 10:06:17</time>
      </trkpt>
      <trkpt lat="40.04749" lon="-3.77581">
        <ele>612.4</ele>
        <time>2022-12-31 10:06:18</time>
      </trkpt>
      <trkpt lat="40.04752" lon="-3.77577">
        <ele>612.4</ele>
        <time>2022-12-31 10:06:19</time>
      </trkpt>
      <trkpt lat="40.04755" lon="-3.77574">
        <ele>612.4</ele>
        <time>2022-12-31 10:06:20</time>
      </trkpt>
      <trkpt lat="40.04758" lon="-3.7757">
        <ele>612.6</ele>
        <time>2022-12-31 10:06:21</time>
      </trkpt>
      <trkpt lat="40.04761" lon="-3.77566">
        <ele>613</ele>
        <time>2022-12-31 10:06:22</time>
      </trkpt>
      <trkpt lat="40.04764" lon="-3.77563">
        <ele>613</ele>
        <time>2022-12-31 10:06:23</time>
      </trkpt>
      <trkpt lat="40.04767" lon="-3.7756">
        <ele>612.8</ele>
        <time>2022-12-31 10:06:24</time>
      </trkpt>
      <trkpt lat="40.0477" lon="-3.77557">
        <ele>613</ele>
        <time>2022-12-31 10:06:25</time>
      </trkpt>
      <trkpt lat="40.04773" lon="-3.77553">
        <ele>613.2</ele>
        <time>2022-12-31 10:06:26</time>
      </trkpt>
      <trkpt lat="40.04777" lon="-3.7755">
        <ele>613.2</ele>
        <time>2022-12-31 10:06:27</time>
      </trkpt>
      <trkpt lat="40.0478" lon="-3.77547">
        <ele>613.6</ele>
        <time>2022-12-31 10:06:28</time>
      </trkpt>
      <trkpt lat="40.04783" lon="-3.77543">
        <ele>613.6</ele>
        <time>2022-12-31 10:06:29</time>
      </trkpt>
      <trkpt lat="40.04787" lon="-3.77539">
        <ele>613.8</ele>
        <time>2022-12-31 10:06:30</time>
      </trkpt>
      <trkpt lat="40.0479" lon="-3.77535">
        <ele>614</ele>
        <time>2022-12-31 10:06:31</time>
      </trkpt>
      <trkpt lat="40.04793" lon="-3.77532">
        <ele>614</ele>
        <time>2022-12-31 10:06:32</time>
      </trkpt>
      <trkpt lat="40.04795" lon="-3.77528">
        <ele>614</ele>
        <time>2022-12-31 10:06:33</time>
      </trkpt>
      <trkpt lat="40.04798" lon="-3.77524">
        <ele>614</ele>
        <time>2022-12-31 10:06:34</time>
      </trkpt>
      <trkpt lat="40.04801" lon="-3.77521">
        <ele>614.2</ele>
        <time>2022-12-31 10:06:35</time>
      </trkpt>
      <trkpt lat="40.04803" lon="-3.77517">
        <ele>614.2</ele>
        <time>2022-12-31 10:06:36</time>
      </trkpt>
      <trkpt lat="40.04806" lon="-3.77513">
        <ele>614.4</ele>
        <time>2022-12-31 10:06:37</time>
      </trkpt>
      <trkpt lat="40.04809" lon="-3.77509">
        <ele>614.2</ele>
        <time>2022-12-31 10:06:38</time>
      </trkpt>
      <trkpt lat="40.04812" lon="-3.77505">
        <ele>614.4</ele>
        <time>2022-12-31 10:06:39</time>
      </trkpt>
      <trkpt lat="40.04815" lon="-3.77501">
        <ele>614.4</ele>
        <time>2022-12-31 10:06:40</time>
      </trkpt>
      <trkpt lat="40.04819" lon="-3.77498">
        <ele>614.8</ele>
        <time>2022-12-31 10:06:41</time>
      </trkpt>
      <trkpt lat="40.04822" lon="-3.77494">
        <ele>614.8</ele>
        <time>2022-12-31 10:06:42</time>
      </trkpt>
      <trkpt lat="40.04825" lon="-3.77491">
        <ele>614.8</ele>
        <time>2022-12-31 10:06:43</time>
      </trkpt>
      <trkpt lat="40.04829" lon="-3.77487">
        <ele>614.8</ele>
        <time>2022-12-31 10:06:44</time>
      </trkpt>
      <trkpt lat="40.04832" lon="-3.77484">
        <ele>615</ele>
        <time>2022-12-31 10:06:45</time>
      </trkpt>
      <trkpt lat="40.04836" lon="-3.7748">
        <ele>615</ele>
        <time>2022-12-31 10:06:46</time>
      </trkpt>
      <trkpt lat="40.04839" lon="-3.77476">
        <ele>615.2</ele>
        <time>2022-12-31 10:06:47</time>
      </trkpt>
      <trkpt lat="40.04842" lon="-3.77472">
        <ele>615.4</ele>
        <time>2022-12-31 10:06:48</time>
      </trkpt>
      <trkpt lat="40.04845" lon="-3.77468">
        <ele>615.8</ele>
        <time>2022-12-31 10:06:49</time>
      </trkpt>
      <trkpt lat="40.04848" lon="-3.77465">
        <ele>616.2</ele>
        <time>2022-12-31 10:06:50</time>
      </trkpt>
      <trkpt lat="40.04851" lon="-3.77461">
        <ele>616.6</ele>
        <time>2022-12-31 10:06:51</time>
      </trkpt>
      <trkpt lat="40.04853" lon="-3.77456">
        <ele>616.8</ele>
        <time>2022-12-31 10:06:52</time>
      </trkpt>
      <trkpt lat="40.04856" lon="-3.77451">
        <ele>616.8</ele>
        <time>2022-12-31 10:06:53</time>
      </trkpt>
      <trkpt lat="40.04858" lon="-3.77447">
        <ele>617</ele>
        <time>2022-12-31 10:06:54</time>
      </trkpt>
      <trkpt lat="40.0486" lon="-3.77442">
        <ele>617.2</ele>
        <time>2022-12-31 10:06:55</time>
      </trkpt>
      <trkpt lat="40.04863" lon="-3.77437">
        <ele>617.2</ele>
        <time>2022-12-31 10:06:56</time>
      </trkpt>
      <trkpt lat="40.04865" lon="-3.77433">
        <ele>617.4</ele>
        <time>2022-12-31 10:06:57</time>
      </trkpt>
      <trkpt lat="40.04868" lon="-3.77428">
        <ele>617.6</ele>
        <time>2022-12-31 10:06:58</time>
      </trkpt>
      <trkpt lat="40.0487" lon="-3.77424">
        <ele>617.8</ele>
        <time>2022-12-31 10:06:59</time>
      </trkpt>
      <trkpt lat="40.04873" lon="-3.77419">
        <ele>617.8</ele>
        <time>2022-12-31 10:07:00</time>
      </trkpt>
      <trkpt lat="40.04875" lon="-3.77415">
        <ele>618</ele>
        <time>2022-12-31 10:07:01</time>
      </trkpt>
      <trkpt lat="40.04878" lon="-3.77411">
        <ele>618.2</ele>
        <time>2022-12-31 10:07:02</time>
      </trkpt>
      <trkpt lat="40.04881" lon="-3.77407">
        <ele>618.2</ele>
        <time>2022-12-31 10:07:03</time>
      </trkpt>
      <trkpt lat="40.04884" lon="-3.77403">
        <ele>618.2</ele>
        <time>2022-12-31 10:07:04</time>
      </trkpt>
      <trkpt lat="40.04886" lon="-3.77399">
        <ele>618.4</ele>
        <time>2022-12-31 10:07:05</time>
      </trkpt>
      <trkpt lat="40.04889" lon="-3.77394">
        <ele>618.6</ele>
        <time>2022-12-31 10:07:06</time>
      </trkpt>
      <trkpt lat="40.04891" lon="-3.7739">
        <ele>618.6</ele>
        <time>2022-12-31 10:07:07</time>
      </trkpt>
      <trkpt lat="40.04894" lon="-3.77386">
        <ele>618.6</ele>
        <time>2022-12-31 10:07:08</time>
      </trkpt>
      <trkpt lat="40.04897" lon="-3.77382">
        <ele>618.6</ele>
        <time>2022-12-31 10:07:09</time>
      </trkpt>
      <trkpt lat="40.04899" lon="-3.77378">
        <ele>618.8</ele>
        <time>2022-12-31 10:07:10</time>
      </trkpt>
      <trkpt lat="40.04902" lon="-3.77374">
        <ele>618.8</ele>
        <time>2022-12-31 10:07:11</time>
      </trkpt>
      <trkpt lat="40.04905" lon="-3.7737">
        <ele>618.8</ele>
        <time>2022-12-31 10:07:12</time>
      </trkpt>
      <trkpt lat="40.04907" lon="-3.77366">
        <ele>618.8</ele>
        <time>2022-12-31 10:07:13</time>
      </trkpt>
      <trkpt lat="40.0491" lon="-3.77362">
        <ele>619.2</ele>
        <time>2022-12-31 10:07:14</time>
      </trkpt>
      <trkpt lat="40.04912" lon="-3.77358">
        <ele>619</ele>
        <time>2022-12-31 10:07:15</time>
      </trkpt>
      <trkpt lat="40.04915" lon="-3.77354">
        <ele>619.2</ele>
        <time>2022-12-31 10:07:16</time>
      </trkpt>
      <trkpt lat="40.04917" lon="-3.77349">
        <ele>619.4</ele>
        <time>2022-12-31 10:07:17</time>
      </trkpt>
      <trkpt lat="40.0492" lon="-3.77345">
        <ele>619.4</ele>
        <time>2022-12-31 10:07:18</time>
      </trkpt>
      <trkpt lat="40.04923" lon="-3.7734">
        <ele>619.6</ele>
        <time>2022-12-31 10:07:19</time>
      </trkpt>
      <trkpt lat="40.04926" lon="-3.77335">
        <ele>619.6</ele>
        <time>2022-12-31 10:07:20</time>
      </trkpt>
      <trkpt lat="40.04928" lon="-3.7733">
        <ele>619.6</ele>
        <time>2022-12-31 10:07:21</time>
      </trkpt>
      <trkpt lat="40.04932" lon="-3.77325">
        <ele>619.8</ele>
        <time>2022-12-31 10:07:22</time>
      </trkpt>
      <trkpt lat="40.04935" lon="-3.77319">
        <ele>619.8</ele>
        <time>2022-12-31 10:07:23</time>
      </trkpt>
      <trkpt lat="40.04938" lon="-3.77314">
        <ele>619.6</ele>
        <time>2022-12-31 10:07:24</time>
      </trkpt>
      <trkpt lat="40.04941" lon="-3.77309">
        <ele>619.8</ele>
        <time>2022-12-31 10:07:25</time>
      </trkpt>
      <trkpt lat="40.04944" lon="-3.77304">
        <ele>619.8</ele>
        <time>2022-12-31 10:07:26</time>
      </trkpt>
      <trkpt lat="40.04947" lon="-3.77298">
        <ele>619.6</ele>
        <time>2022-12-31 10:07:27</time>
      </trkpt>
      <trkpt lat="40.0495" lon="-3.77293">
        <ele>619.8</ele>
        <time>2022-12-31 10:07:28</time>
      </trkpt>
      <trkpt lat="40.04953" lon="-3.77287">
        <ele>619.8</ele>
        <time>2022-12-31 10:07:29</time>
      </trkpt>
      <trkpt lat="40.04956" lon="-3.77282">
        <ele>619.6</ele>
        <time>2022-12-31 10:07:30</time>
      </trkpt>
      <trkpt lat="40.04959" lon="-3.77276">
        <ele>619.6</ele>
        <time>2022-12-31 10:07:31</time>
      </trkpt>
      <trkpt lat="40.04962" lon="-3.77271">
        <ele>619.8</ele>
        <time>2022-12-31 10:07:32</time>
      </trkpt>
      <trkpt lat="40.04965" lon="-3.77265">
        <ele>619.8</ele>
        <time>2022-12-31 10:07:33</time>
      </trkpt>
      <trkpt lat="40.04968" lon="-3.77259">
        <ele>619.6</ele>
        <time>2022-12-31 10:07:34</time>
      </trkpt>
      <trkpt lat="40.04971" lon="-3.77253">
        <ele>619.6</ele>
        <time>2022-12-31 10:07:35</time>
      </trkpt>
      <trkpt lat="40.04974" lon="-3.77247">
        <ele>619.6</ele>
        <time>2022-12-31 10:07:36</time>
      </trkpt>
      <trkpt lat="40.04976" lon="-3.77241">
        <ele>619.6</ele>
        <time>2022-12-31 10:07:37</time>
      </trkpt>
      <trkpt lat="40.04978" lon="-3.77235">
        <ele>619.6</ele>
        <time>2022-12-31 10:07:38</time>
      </trkpt>
      <trkpt lat="40.04981" lon="-3.77229">
        <ele>619.6</ele>
        <time>2022-12-31 10:07:39</time>
      </trkpt>
      <trkpt lat="40.04984" lon="-3.77223">
        <ele>619.4</ele>
        <time>2022-12-31 10:07:40</time>
      </trkpt>
      <trkpt lat="40.04987" lon="-3.77217">
        <ele>619.4</ele>
        <time>2022-12-31 10:07:41</time>
      </trkpt>
      <trkpt lat="40.04989" lon="-3.77211">
        <ele>619.2</ele>
        <time>2022-12-31 10:07:42</time>
      </trkpt>
      <trkpt lat="40.04991" lon="-3.77205">
        <ele>619.4</ele>
        <time>2022-12-31 10:07:43</time>
      </trkpt>
      <trkpt lat="40.04993" lon="-3.77199">
        <ele>619.4</ele>
        <time>2022-12-31 10:07:44</time>
      </trkpt>
      <trkpt lat="40.04996" lon="-3.77193">
        <ele>619.4</ele>
        <time>2022-12-31 10:07:45</time>
      </trkpt>
      <trkpt lat="40.04998" lon="-3.77187">
        <ele>619.2</ele>
        <time>2022-12-31 10:07:46</time>
      </trkpt>
      <trkpt lat="40.05001" lon="-3.77182">
        <ele>619.2</ele>
        <time>2022-12-31 10:07:47</time>
      </trkpt>
      <trkpt lat="40.05005" lon="-3.77176">
        <ele>619.2</ele>
        <time>2022-12-31 10:07:48</time>
      </trkpt>
      <trkpt lat="40.05008" lon="-3.77171">
        <ele>619.2</ele>
        <time>2022-12-31 10:07:49</time>
      </trkpt>
      <trkpt lat="40.05011" lon="-3.77166">
        <ele>619.2</ele>
        <time>2022-12-31 10:07:50</time>
      </trkpt>
      <trkpt lat="40.05013" lon="-3.77161">
        <ele>619.2</ele>
        <time>2022-12-31 10:07:51</time>
      </trkpt>
      <trkpt lat="40.05016" lon="-3.77155">
        <ele>619.2</ele>
        <time>2022-12-31 10:07:52</time>
      </trkpt>
      <trkpt lat="40.05019" lon="-3.7715">
        <ele>619.2</ele>
        <time>2022-12-31 10:07:53</time>
      </trkpt>
      <trkpt lat="40.05021" lon="-3.77144">
        <ele>619</ele>
        <time>2022-12-31 10:07:54</time>
      </trkpt>
      <trkpt lat="40.05024" lon="-3.77139">
        <ele>619.2</ele>
        <time>2022-12-31 10:07:55</time>
      </trkpt>
      <trkpt lat="40.05026" lon="-3.77133">
        <ele>619.2</ele>
        <time>2022-12-31 10:07:56</time>
      </trkpt>
      <trkpt lat="40.05029" lon="-3.77128">
        <ele>619.2</ele>
        <time>2022-12-31 10:07:57</time>
      </trkpt>
      <trkpt lat="40.05031" lon="-3.77122">
        <ele>619.2</ele>
        <time>2022-12-31 10:07:58</time>
      </trkpt>
      <trkpt lat="40.05034" lon="-3.77117">
        <ele>619.2</ele>
        <time>2022-12-31 10:07:59</time>
      </trkpt>
      <trkpt lat="40.05036" lon="-3.77112">
        <ele>619.2</ele>
        <time>2022-12-31 10:08:00</time>
      </trkpt>
      <trkpt lat="40.05038" lon="-3.77106">
        <ele>619.4</ele>
        <time>2022-12-31 10:08:01</time>
      </trkpt>
      <trkpt lat="40.0504" lon="-3.771">
        <ele>619.4</ele>
        <time>2022-12-31 10:08:02</time>
      </trkpt>
      <trkpt lat="40.05042" lon="-3.77095">
        <ele>619.4</ele>
        <time>2022-12-31 10:08:03</time>
      </trkpt>
      <trkpt lat="40.05045" lon="-3.7709">
        <ele>619.4</ele>
        <time>2022-12-31 10:08:04</time>
      </trkpt>
      <trkpt lat="40.05047" lon="-3.77085">
        <ele>619.4</ele>
        <time>2022-12-31 10:08:05</time>
      </trkpt>
      <trkpt lat="40.05049" lon="-3.77079">
        <ele>619.6</ele>
        <time>2022-12-31 10:08:06</time>
      </trkpt>
      <trkpt lat="40.05051" lon="-3.77074">
        <ele>619.6</ele>
        <time>2022-12-31 10:08:07</time>
      </trkpt>
      <trkpt lat="40.05053" lon="-3.77068">
        <ele>619.8</ele>
        <time>2022-12-31 10:08:08</time>
      </trkpt>
      <trkpt lat="40.05055" lon="-3.77063">
        <ele>620</ele>
        <time>2022-12-31 10:08:09</time>
      </trkpt>
      <trkpt lat="40.05058" lon="-3.77058">
        <ele>620</ele>
        <time>2022-12-31 10:08:10</time>
      </trkpt>
      <trkpt lat="40.0506" lon="-3.77054">
        <ele>620.2</ele>
        <time>2022-12-31 10:08:11</time>
      </trkpt>
      <trkpt lat="40.05064" lon="-3.7705">
        <ele>620.2</ele>
        <time>2022-12-31 10:08:12</time>
      </trkpt>
      <trkpt lat="40.05068" lon="-3.77048">
        <ele>620.2</ele>
        <time>2022-12-31 10:08:13</time>
      </trkpt>
      <trkpt lat="40.05072" lon="-3.77046">
        <ele>620.2</ele>
        <time>2022-12-31 10:08:14</time>
      </trkpt>
      <trkpt lat="40.05077" lon="-3.77044">
        <ele>620.2</ele>
        <time>2022-12-31 10:08:15</time>
      </trkpt>
      <trkpt lat="40.05081" lon="-3.77042">
        <ele>620.2</ele>
        <time>2022-12-31 10:08:16</time>
      </trkpt>
      <trkpt lat="40.05086" lon="-3.77041">
        <ele>620.2</ele>
        <time>2022-12-31 10:08:17</time>
      </trkpt>
      <trkpt lat="40.05091" lon="-3.77041">
        <ele>620.4</ele>
        <time>2022-12-31 10:08:18</time>
      </trkpt>
      <trkpt lat="40.05096" lon="-3.77041">
        <ele>620.4</ele>
        <time>2022-12-31 10:08:19</time>
      </trkpt>
      <trkpt lat="40.05101" lon="-3.77042">
        <ele>620.4</ele>
        <time>2022-12-31 10:08:20</time>
      </trkpt>
      <trkpt lat="40.05106" lon="-3.77044">
        <ele>620.4</ele>
        <time>2022-12-31 10:08:21</time>
      </trkpt>
      <trkpt lat="40.05112" lon="-3.77046">
        <ele>620.4</ele>
        <time>2022-12-31 10:08:22</time>
      </trkpt>
      <trkpt lat="40.05118" lon="-3.77049">
        <ele>620.2</ele>
        <time>2022-12-31 10:08:23</time>
      </trkpt>
      <trkpt lat="40.05123" lon="-3.77053">
        <ele>620.2</ele>
        <time>2022-12-31 10:08:24</time>
      </trkpt>
      <trkpt lat="40.05129" lon="-3.77057">
        <ele>620.4</ele>
        <time>2022-12-31 10:08:25</time>
      </trkpt>
      <trkpt lat="40.05136" lon="-3.77062">
        <ele>620.2</ele>
        <time>2022-12-31 10:08:26</time>
      </trkpt>
      <trkpt lat="40.05142" lon="-3.77067">
        <ele>620</ele>
        <time>2022-12-31 10:08:27</time>
      </trkpt>
      <trkpt lat="40.05148" lon="-3.77072">
        <ele>619.8</ele>
        <time>2022-12-31 10:08:28</time>
      </trkpt>
      <trkpt lat="40.05154" lon="-3.77076">
        <ele>619.6</ele>
        <time>2022-12-31 10:08:29</time>
      </trkpt>
      <trkpt lat="40.05161" lon="-3.77081">
        <ele>619.6</ele>
        <time>2022-12-31 10:08:30</time>
      </trkpt>
      <trkpt lat="40.05168" lon="-3.77085">
        <ele>619.2</ele>
        <time>2022-12-31 10:08:31</time>
      </trkpt>
      <trkpt lat="40.05175" lon="-3.77088">
        <ele>619</ele>
        <time>2022-12-31 10:08:32</time>
      </trkpt>
      <trkpt lat="40.05181" lon="-3.77092">
        <ele>618.8</ele>
        <time>2022-12-31 10:08:33</time>
      </trkpt>
      <trkpt lat="40.05188" lon="-3.77095">
        <ele>618.4</ele>
        <time>2022-12-31 10:08:34</time>
      </trkpt>
      <trkpt lat="40.05195" lon="-3.77098">
        <ele>618.2</ele>
        <time>2022-12-31 10:08:35</time>
      </trkpt>
      <trkpt lat="40.05202" lon="-3.77101">
        <ele>618.2</ele>
        <time>2022-12-31 10:08:36</time>
      </trkpt>
      <trkpt lat="40.05208" lon="-3.77105">
        <ele>617.8</ele>
        <time>2022-12-31 10:08:37</time>
      </trkpt>
      <trkpt lat="40.05215" lon="-3.77108">
        <ele>617.6</ele>
        <time>2022-12-31 10:08:38</time>
      </trkpt>
      <trkpt lat="40.05221" lon="-3.77111">
        <ele>617.2</ele>
        <time>2022-12-31 10:08:39</time>
      </trkpt>
      <trkpt lat="40.05227" lon="-3.77113">
        <ele>616.8</ele>
        <time>2022-12-31 10:08:40</time>
      </trkpt>
      <trkpt lat="40.05233" lon="-3.77115">
        <ele>616.8</ele>
        <time>2022-12-31 10:08:41</time>
      </trkpt>
      <trkpt lat="40.05239" lon="-3.77117">
        <ele>616.6</ele>
        <time>2022-12-31 10:08:42</time>
      </trkpt>
      <trkpt lat="40.05245" lon="-3.77119">
        <ele>616.6</ele>
        <time>2022-12-31 10:08:43</time>
      </trkpt>
      <trkpt lat="40.05251" lon="-3.77121">
        <ele>616.6</ele>
        <time>2022-12-31 10:08:44</time>
      </trkpt>
      <trkpt lat="40.05257" lon="-3.77122">
        <ele>616.4</ele>
        <time>2022-12-31 10:08:45</time>
      </trkpt>
      <trkpt lat="40.05262" lon="-3.77124">
        <ele>616.4</ele>
        <time>2022-12-31 10:08:46</time>
      </trkpt>
      <trkpt lat="40.05268" lon="-3.77126">
        <ele>616.4</ele>
        <time>2022-12-31 10:08:47</time>
      </trkpt>
      <trkpt lat="40.05274" lon="-3.77128">
        <ele>616.4</ele>
        <time>2022-12-31 10:08:48</time>
      </trkpt>
      <trkpt lat="40.05279" lon="-3.77131">
        <ele>616.4</ele>
        <time>2022-12-31 10:08:49</time>
      </trkpt>
      <trkpt lat="40.05285" lon="-3.77133">
        <ele>616.4</ele>
        <time>2022-12-31 10:08:50</time>
      </trkpt>
      <trkpt lat="40.0529" lon="-3.77135">
        <ele>616.4</ele>
        <time>2022-12-31 10:08:51</time>
      </trkpt>
      <trkpt lat="40.05296" lon="-3.77138">
        <ele>616.4</ele>
        <time>2022-12-31 10:08:52</time>
      </trkpt>
      <trkpt lat="40.05301" lon="-3.77141">
        <ele>616.4</ele>
        <time>2022-12-31 10:08:53</time>
      </trkpt>
      <trkpt lat="40.05306" lon="-3.77143">
        <ele>616.6</ele>
        <time>2022-12-31 10:08:54</time>
      </trkpt>
      <trkpt lat="40.05311" lon="-3.77145">
        <ele>616.4</ele>
        <time>2022-12-31 10:08:55</time>
      </trkpt>
      <trkpt lat="40.05316" lon="-3.77148">
        <ele>616.4</ele>
        <time>2022-12-31 10:08:56</time>
      </trkpt>
      <trkpt lat="40.05321" lon="-3.7715">
        <ele>616.8</ele>
        <time>2022-12-31 10:08:57</time>
      </trkpt>
      <trkpt lat="40.05326" lon="-3.77153">
        <ele>616.6</ele>
        <time>2022-12-31 10:08:58</time>
      </trkpt>
      <trkpt lat="40.0533" lon="-3.77156">
        <ele>616.8</ele>
        <time>2022-12-31 10:08:59</time>
      </trkpt>
      <trkpt lat="40.05334" lon="-3.7716">
        <ele>616.8</ele>
        <time>2022-12-31 10:09:00</time>
      </trkpt>
      <trkpt lat="40.05338" lon="-3.77164">
        <ele>617</ele>
        <time>2022-12-31 10:09:01</time>
      </trkpt>
      <trkpt lat="40.05341" lon="-3.77168">
        <ele>617.2</ele>
        <time>2022-12-31 10:09:02</time>
      </trkpt>
      <trkpt lat="40.05345" lon="-3.77173">
        <ele>617.2</ele>
        <time>2022-12-31 10:09:03</time>
      </trkpt>
      <trkpt lat="40.05349" lon="-3.77177">
        <ele>617.2</ele>
        <time>2022-12-31 10:09:04</time>
      </trkpt>
      <trkpt lat="40.05353" lon="-3.77181">
        <ele>617.2</ele>
        <time>2022-12-31 10:09:05</time>
      </trkpt>
      <trkpt lat="40.05357" lon="-3.77184">
        <ele>617.6</ele>
        <time>2022-12-31 10:09:06</time>
      </trkpt>
      <trkpt lat="40.05361" lon="-3.77186">
        <ele>618</ele>
        <time>2022-12-31 10:09:07</time>
      </trkpt>
      <trkpt lat="40.05366" lon="-3.77189">
        <ele>618.2</ele>
        <time>2022-12-31 10:09:08</time>
      </trkpt>
      <trkpt lat="40.0537" lon="-3.77192">
        <ele>618.8</ele>
        <time>2022-12-31 10:09:09</time>
      </trkpt>
      <trkpt lat="40.05375" lon="-3.77194">
        <ele>618.8</ele>
        <time>2022-12-31 10:09:10</time>
      </trkpt>
      <trkpt lat="40.05379" lon="-3.77197">
        <ele>619.4</ele>
        <time>2022-12-31 10:09:11</time>
      </trkpt>
      <trkpt lat="40.05384" lon="-3.77199">
        <ele>619.6</ele>
        <time>2022-12-31 10:09:12</time>
      </trkpt>
      <trkpt lat="40.05389" lon="-3.77201">
        <ele>619.8</ele>
        <time>2022-12-31 10:09:13</time>
      </trkpt>
      <trkpt lat="40.05394" lon="-3.77202">
        <ele>620.2</ele>
        <time>2022-12-31 10:09:14</time>
      </trkpt>
      <trkpt lat="40.05399" lon="-3.77203">
        <ele>620.6</ele>
        <time>2022-12-31 10:09:15</time>
      </trkpt>
      <trkpt lat="40.05404" lon="-3.77204">
        <ele>621</ele>
        <time>2022-12-31 10:09:16</time>
      </trkpt>
      <trkpt lat="40.0541" lon="-3.77205">
        <ele>621.2</ele>
        <time>2022-12-31 10:09:17</time>
      </trkpt>
      <trkpt lat="40.05415" lon="-3.77206">
        <ele>621.6</ele>
        <time>2022-12-31 10:09:18</time>
      </trkpt>
      <trkpt lat="40.05421" lon="-3.77207">
        <ele>621.8</ele>
        <time>2022-12-31 10:09:19</time>
      </trkpt>
      <trkpt lat="40.05427" lon="-3.77207">
        <ele>621.8</ele>
        <time>2022-12-31 10:09:20</time>
      </trkpt>
      <trkpt lat="40.05433" lon="-3.77208">
        <ele>621.8</ele>
        <time>2022-12-31 10:09:21</time>
      </trkpt>
      <trkpt lat="40.05439" lon="-3.77208">
        <ele>622</ele>
        <time>2022-12-31 10:09:22</time>
      </trkpt>
      <trkpt lat="40.05445" lon="-3.77208">
        <ele>622</ele>
        <time>2022-12-31 10:09:23</time>
      </trkpt>
      <trkpt lat="40.05451" lon="-3.77208">
        <ele>622</ele>
        <time>2022-12-31 10:09:24</time>
      </trkpt>
      <trkpt lat="40.05457" lon="-3.77209">
        <ele>622</ele>
        <time>2022-12-31 10:09:25</time>
      </trkpt>
      <trkpt lat="40.05463" lon="-3.77209">
        <ele>622</ele>
        <time>2022-12-31 10:09:26</time>
      </trkpt>
      <trkpt lat="40.05469" lon="-3.7721">
        <ele>622</ele>
        <time>2022-12-31 10:09:27</time>
      </trkpt>
      <trkpt lat="40.05474" lon="-3.77211">
        <ele>621.8</ele>
        <time>2022-12-31 10:09:28</time>
      </trkpt>
      <trkpt lat="40.0548" lon="-3.77212">
        <ele>621.8</ele>
        <time>2022-12-31 10:09:29</time>
      </trkpt>
      <trkpt lat="40.05486" lon="-3.77212">
        <ele>621.6</ele>
        <time>2022-12-31 10:09:30</time>
      </trkpt>
      <trkpt lat="40.05491" lon="-3.77211">
        <ele>621.2</ele>
        <time>2022-12-31 10:09:31</time>
      </trkpt>
      <trkpt lat="40.05497" lon="-3.7721">
        <ele>621</ele>
        <time>2022-12-31 10:09:32</time>
      </trkpt>
      <trkpt lat="40.05502" lon="-3.77209">
        <ele>620.6</ele>
        <time>2022-12-31 10:09:33</time>
      </trkpt>
      <trkpt lat="40.05507" lon="-3.77207">
        <ele>620.6</ele>
        <time>2022-12-31 10:09:34</time>
      </trkpt>
      <trkpt lat="40.05512" lon="-3.77206">
        <ele>620.6</ele>
        <time>2022-12-31 10:09:35</time>
      </trkpt>
      <trkpt lat="40.05518" lon="-3.77205">
        <ele>620.4</ele>
        <time>2022-12-31 10:09:36</time>
      </trkpt>
      <trkpt lat="40.05523" lon="-3.77204">
        <ele>620.4</ele>
        <time>2022-12-31 10:09:37</time>
      </trkpt>
      <trkpt lat="40.05528" lon="-3.77204">
        <ele>620.2</ele>
        <time>2022-12-31 10:09:38</time>
      </trkpt>
      <trkpt lat="40.05533" lon="-3.77203">
        <ele>620.4</ele>
        <time>2022-12-31 10:09:39</time>
      </trkpt>
      <trkpt lat="40.05538" lon="-3.77203">
        <ele>620.2</ele>
        <time>2022-12-31 10:09:40</time>
      </trkpt>
      <trkpt lat="40.05544" lon="-3.77203">
        <ele>620.2</ele>
        <time>2022-12-31 10:09:41</time>
      </trkpt>
      <trkpt lat="40.05549" lon="-3.77203">
        <ele>620.4</ele>
        <time>2022-12-31 10:09:42</time>
      </trkpt>
      <trkpt lat="40.05554" lon="-3.77203">
        <ele>620.2</ele>
        <time>2022-12-31 10:09:43</time>
      </trkpt>
      <trkpt lat="40.05559" lon="-3.77203">
        <ele>620.2</ele>
        <time>2022-12-31 10:09:44</time>
      </trkpt>
      <trkpt lat="40.05564" lon="-3.77203">
        <ele>620.2</ele>
        <time>2022-12-31 10:09:45</time>
      </trkpt>
      <trkpt lat="40.05569" lon="-3.77203">
        <ele>620.4</ele>
        <time>2022-12-31 10:09:46</time>
      </trkpt>
      <trkpt lat="40.05573" lon="-3.77203">
        <ele>620.2</ele>
        <time>2022-12-31 10:09:47</time>
      </trkpt>
      <trkpt lat="40.05578" lon="-3.77203">
        <ele>620.4</ele>
        <time>2022-12-31 10:09:48</time>
      </trkpt>
      <trkpt lat="40.05583" lon="-3.77203">
        <ele>620.4</ele>
        <time>2022-12-31 10:09:49</time>
      </trkpt>
      <trkpt lat="40.05587" lon="-3.77203">
        <ele>620.6</ele>
        <time>2022-12-31 10:09:50</time>
      </trkpt>
      <trkpt lat="40.05592" lon="-3.77203">
        <ele>620.8</ele>
        <time>2022-12-31 10:09:51</time>
      </trkpt>
      <trkpt lat="40.05597" lon="-3.77203">
        <ele>620.8</ele>
        <time>2022-12-31 10:09:52</time>
      </trkpt>
      <trkpt lat="40.05601" lon="-3.77203">
        <ele>621.4</ele>
        <time>2022-12-31 10:09:53</time>
      </trkpt>
      <trkpt lat="40.05606" lon="-3.77204">
        <ele>621.4</ele>
        <time>2022-12-31 10:09:54</time>
      </trkpt>
      <trkpt lat="40.0561" lon="-3.77205">
        <ele>621.6</ele>
        <time>2022-12-31 10:09:55</time>
      </trkpt>
      <trkpt lat="40.05615" lon="-3.77205">
        <ele>621.8</ele>
        <time>2022-12-31 10:09:56</time>
      </trkpt>
      <trkpt lat="40.0562" lon="-3.77206">
        <ele>622.2</ele>
        <time>2022-12-31 10:09:57</time>
      </trkpt>
      <trkpt lat="40.05625" lon="-3.77207">
        <ele>622.6</ele>
        <time>2022-12-31 10:09:58</time>
      </trkpt>
      <trkpt lat="40.05629" lon="-3.77208">
        <ele>622.8</ele>
        <time>2022-12-31 10:09:59</time>
      </trkpt>
      <trkpt lat="40.05634" lon="-3.77209">
        <ele>623.2</ele>
        <time>2022-12-31 10:10:00</time>
      </trkpt>
      <trkpt lat="40.05638" lon="-3.77209">
        <ele>623.2</ele>
        <time>2022-12-31 10:10:01</time>
      </trkpt>
      <trkpt lat="40.05642" lon="-3.77209">
        <ele>623.4</ele>
        <time>2022-12-31 10:10:02</time>
      </trkpt>
      <trkpt lat="40.05647" lon="-3.77209">
        <ele>623.4</ele>
        <time>2022-12-31 10:10:03</time>
      </trkpt>
      <trkpt lat="40.05652" lon="-3.77209">
        <ele>623.6</ele>
        <time>2022-12-31 10:10:04</time>
      </trkpt>
      <trkpt lat="40.05656" lon="-3.77208">
        <ele>623.6</ele>
        <time>2022-12-31 10:10:05</time>
      </trkpt>
      <trkpt lat="40.05661" lon="-3.77208">
        <ele>623.6</ele>
        <time>2022-12-31 10:10:06</time>
      </trkpt>
      <trkpt lat="40.05666" lon="-3.77207">
        <ele>623.6</ele>
        <time>2022-12-31 10:10:07</time>
      </trkpt>
      <trkpt lat="40.0567" lon="-3.77206">
        <ele>623.6</ele>
        <time>2022-12-31 10:10:08</time>
      </trkpt>
      <trkpt lat="40.05675" lon="-3.77206">
        <ele>623.6</ele>
        <time>2022-12-31 10:10:09</time>
      </trkpt>
      <trkpt lat="40.0568" lon="-3.77205">
        <ele>623.6</ele>
        <time>2022-12-31 10:10:10</time>
      </trkpt>
      <trkpt lat="40.05684" lon="-3.77204">
        <ele>623.8</ele>
        <time>2022-12-31 10:10:11</time>
      </trkpt>
      <trkpt lat="40.05689" lon="-3.77203">
        <ele>624</ele>
        <time>2022-12-31 10:10:12</time>
      </trkpt>
      <trkpt lat="40.05694" lon="-3.77202">
        <ele>624</ele>
        <time>2022-12-31 10:10:13</time>
      </trkpt>
      <trkpt lat="40.05698" lon="-3.77202">
        <ele>624.2</ele>
        <time>2022-12-31 10:10:14</time>
      </trkpt>
      <trkpt lat="40.05703" lon="-3.77201">
        <ele>624</ele>
        <time>2022-12-31 10:10:15</time>
      </trkpt>
      <trkpt lat="40.05708" lon="-3.77201">
        <ele>624</ele>
        <time>2022-12-31 10:10:16</time>
      </trkpt>
      <trkpt lat="40.05712" lon="-3.772">
        <ele>624</ele>
        <time>2022-12-31 10:10:17</time>
      </trkpt>
      <trkpt lat="40.05717" lon="-3.77199">
        <ele>624.4</ele>
        <time>2022-12-31 10:10:18</time>
      </trkpt>
      <trkpt lat="40.05721" lon="-3.77197">
        <ele>624.2</ele>
        <time>2022-12-31 10:10:19</time>
      </trkpt>
      <trkpt lat="40.05724" lon="-3.77193">
        <ele>624.4</ele>
        <time>2022-12-31 10:10:20</time>
      </trkpt>
      <trkpt lat="40.05726" lon="-3.77188">
        <ele>624.2</ele>
        <time>2022-12-31 10:10:21</time>
      </trkpt>
      <trkpt lat="40.05728" lon="-3.77182">
        <ele>624.2</ele>
        <time>2022-12-31 10:10:22</time>
      </trkpt>
      <trkpt lat="40.05729" lon="-3.77176">
        <ele>624.2</ele>
        <time>2022-12-31 10:10:23</time>
      </trkpt>
      <trkpt lat="40.05731" lon="-3.7717">
        <ele>624.2</ele>
        <time>2022-12-31 10:10:24</time>
      </trkpt>
      <trkpt lat="40.05732" lon="-3.77164">
        <ele>624.4</ele>
        <time>2022-12-31 10:10:25</time>
      </trkpt>
      <trkpt lat="40.05734" lon="-3.77157">
        <ele>624.4</ele>
        <time>2022-12-31 10:10:26</time>
      </trkpt>
      <trkpt lat="40.05736" lon="-3.77151">
        <ele>624.2</ele>
        <time>2022-12-31 10:10:27</time>
      </trkpt>
      <trkpt lat="40.05738" lon="-3.77144">
        <ele>624.2</ele>
        <time>2022-12-31 10:10:28</time>
      </trkpt>
      <trkpt lat="40.05739" lon="-3.77137">
        <ele>624.2</ele>
        <time>2022-12-31 10:10:29</time>
      </trkpt>
      <trkpt lat="40.05742" lon="-3.7713">
        <ele>624.4</ele>
        <time>2022-12-31 10:10:30</time>
      </trkpt>
      <trkpt lat="40.05744" lon="-3.77124">
        <ele>624.4</ele>
        <time>2022-12-31 10:10:31</time>
      </trkpt>
      <trkpt lat="40.05746" lon="-3.77117">
        <ele>624.2</ele>
        <time>2022-12-31 10:10:32</time>
      </trkpt>
      <trkpt lat="40.05749" lon="-3.7711">
        <ele>624.2</ele>
        <time>2022-12-31 10:10:33</time>
      </trkpt>
      <trkpt lat="40.05752" lon="-3.77104">
        <ele>624.4</ele>
        <time>2022-12-31 10:10:34</time>
      </trkpt>
      <trkpt lat="40.05755" lon="-3.77098">
        <ele>624.4</ele>
        <time>2022-12-31 10:10:35</time>
      </trkpt>
      <trkpt lat="40.05758" lon="-3.77091">
        <ele>624.6</ele>
        <time>2022-12-31 10:10:36</time>
      </trkpt>
      <trkpt lat="40.05761" lon="-3.77085">
        <ele>624.4</ele>
        <time>2022-12-31 10:10:37</time>
      </trkpt>
      <trkpt lat="40.05764" lon="-3.77078">
        <ele>624.6</ele>
        <time>2022-12-31 10:10:38</time>
      </trkpt>
      <trkpt lat="40.05768" lon="-3.77071">
        <ele>624.8</ele>
        <time>2022-12-31 10:10:39</time>
      </trkpt>
      <trkpt lat="40.05771" lon="-3.77065">
        <ele>624.8</ele>
        <time>2022-12-31 10:10:40</time>
      </trkpt>
      <trkpt lat="40.05774" lon="-3.77058">
        <ele>625</ele>
        <time>2022-12-31 10:10:41</time>
      </trkpt>
      <trkpt lat="40.05777" lon="-3.77052">
        <ele>625</ele>
        <time>2022-12-31 10:10:42</time>
      </trkpt>
      <trkpt lat="40.0578" lon="-3.77046">
        <ele>625</ele>
        <time>2022-12-31 10:10:43</time>
      </trkpt>
      <trkpt lat="40.05784" lon="-3.7704">
        <ele>625</ele>
        <time>2022-12-31 10:10:44</time>
      </trkpt>
      <trkpt lat="40.05787" lon="-3.77034">
        <ele>625.2</ele>
        <time>2022-12-31 10:10:45</time>
      </trkpt>
      <trkpt lat="40.0579" lon="-3.77029">
        <ele>625.2</ele>
        <time>2022-12-31 10:10:46</time>
      </trkpt>
      <trkpt lat="40.05793" lon="-3.77023">
        <ele>625.4</ele>
        <time>2022-12-31 10:10:47</time>
      </trkpt>
      <trkpt lat="40.05795" lon="-3.77018">
        <ele>625.4</ele>
        <time>2022-12-31 10:10:48</time>
      </trkpt>
      <trkpt lat="40.05798" lon="-3.77013">
        <ele>625.4</ele>
        <time>2022-12-31 10:10:49</time>
      </trkpt>
      <trkpt lat="40.05801" lon="-3.77007">
        <ele>625.6</ele>
        <time>2022-12-31 10:10:50</time>
      </trkpt>
      <trkpt lat="40.05804" lon="-3.77002">
        <ele>625.6</ele>
        <time>2022-12-31 10:10:51</time>
      </trkpt>
      <trkpt lat="40.05807" lon="-3.76996">
        <ele>625.8</ele>
        <time>2022-12-31 10:10:52</time>
      </trkpt>
      <trkpt lat="40.0581" lon="-3.7699">
        <ele>625.8</ele>
        <time>2022-12-31 10:10:53</time>
      </trkpt>
      <trkpt lat="40.05813" lon="-3.76984">
        <ele>626.2</ele>
        <time>2022-12-31 10:10:54</time>
      </trkpt>
      <trkpt lat="40.05816" lon="-3.76978">
        <ele>626.2</ele>
        <time>2022-12-31 10:10:55</time>
      </trkpt>
      <trkpt lat="40.05819" lon="-3.76971">
        <ele>626.2</ele>
        <time>2022-12-31 10:10:56</time>
      </trkpt>
      <trkpt lat="40.05822" lon="-3.76965">
        <ele>626</ele>
        <time>2022-12-31 10:10:57</time>
      </trkpt>
      <trkpt lat="40.05826" lon="-3.76959">
        <ele>626</ele>
        <time>2022-12-31 10:10:58</time>
      </trkpt>
      <trkpt lat="40.0583" lon="-3.76952">
        <ele>626.2</ele>
        <time>2022-12-31 10:10:59</time>
      </trkpt>
      <trkpt lat="40.05834" lon="-3.76946">
        <ele>626.2</ele>
        <time>2022-12-31 10:11:00</time>
      </trkpt>
      <trkpt lat="40.05838" lon="-3.7694">
        <ele>626.2</ele>
        <time>2022-12-31 10:11:01</time>
      </trkpt>
      <trkpt lat="40.05842" lon="-3.76934">
        <ele>626.2</ele>
        <time>2022-12-31 10:11:02</time>
      </trkpt>
      <trkpt lat="40.05847" lon="-3.76928">
        <ele>626.2</ele>
        <time>2022-12-31 10:11:03</time>
      </trkpt>
      <trkpt lat="40.05852" lon="-3.76923">
        <ele>625.8</ele>
        <time>2022-12-31 10:11:04</time>
      </trkpt>
      <trkpt lat="40.05857" lon="-3.76917">
        <ele>625.8</ele>
        <time>2022-12-31 10:11:05</time>
      </trkpt>
      <trkpt lat="40.05862" lon="-3.76912">
        <ele>625.8</ele>
        <time>2022-12-31 10:11:06</time>
      </trkpt>
      <trkpt lat="40.05867" lon="-3.76906">
        <ele>625.4</ele>
        <time>2022-12-31 10:11:07</time>
      </trkpt>
      <trkpt lat="40.05871" lon="-3.76899">
        <ele>625.4</ele>
        <time>2022-12-31 10:11:08</time>
      </trkpt>
      <trkpt lat="40.05875" lon="-3.76892">
        <ele>624.8</ele>
        <time>2022-12-31 10:11:09</time>
      </trkpt>
      <trkpt lat="40.05878" lon="-3.76884">
        <ele>624.6</ele>
        <time>2022-12-31 10:11:10</time>
      </trkpt>
      <trkpt lat="40.05882" lon="-3.76875">
        <ele>624.2</ele>
        <time>2022-12-31 10:11:11</time>
      </trkpt>
      <trkpt lat="40.05885" lon="-3.76866">
        <ele>624</ele>
        <time>2022-12-31 10:11:12</time>
      </trkpt>
      <trkpt lat="40.05887" lon="-3.76857">
        <ele>623.6</ele>
        <time>2022-12-31 10:11:13</time>
      </trkpt>
      <trkpt lat="40.05888" lon="-3.76847">
        <ele>623.4</ele>
        <time>2022-12-31 10:11:14</time>
      </trkpt>
      <trkpt lat="40.0589" lon="-3.76838">
        <ele>622.8</ele>
        <time>2022-12-31 10:11:15</time>
      </trkpt>
      <trkpt lat="40.05892" lon="-3.76829">
        <ele>622.4</ele>
        <time>2022-12-31 10:11:16</time>
      </trkpt>
      <trkpt lat="40.05894" lon="-3.76819">
        <ele>621.8</ele>
        <time>2022-12-31 10:11:17</time>
      </trkpt>
      <trkpt lat="40.05897" lon="-3.7681">
        <ele>621.6</ele>
        <time>2022-12-31 10:11:18</time>
      </trkpt>
      <trkpt lat="40.05899" lon="-3.76801">
        <ele>621</ele>
        <time>2022-12-31 10:11:19</time>
      </trkpt>
      <trkpt lat="40.05902" lon="-3.76792">
        <ele>620.8</ele>
        <time>2022-12-31 10:11:20</time>
      </trkpt>
      <trkpt lat="40.05905" lon="-3.76784">
        <ele>620.4</ele>
        <time>2022-12-31 10:11:21</time>
      </trkpt>
      <trkpt lat="40.05908" lon="-3.76775">
        <ele>620.2</ele>
        <time>2022-12-31 10:11:22</time>
      </trkpt>
      <trkpt lat="40.05911" lon="-3.76767">
        <ele>620</ele>
        <time>2022-12-31 10:11:23</time>
      </trkpt>
      <trkpt lat="40.05914" lon="-3.76759">
        <ele>619.4</ele>
        <time>2022-12-31 10:11:24</time>
      </trkpt>
      <trkpt lat="40.05917" lon="-3.76751">
        <ele>618.8</ele>
        <time>2022-12-31 10:11:25</time>
      </trkpt>
      <trkpt lat="40.0592" lon="-3.76743">
        <ele>618.8</ele>
        <time>2022-12-31 10:11:26</time>
      </trkpt>
      <trkpt lat="40.05923" lon="-3.76735">
        <ele>618.6</ele>
        <time>2022-12-31 10:11:27</time>
      </trkpt>
      <trkpt lat="40.05926" lon="-3.76727">
        <ele>618.2</ele>
        <time>2022-12-31 10:11:28</time>
      </trkpt>
      <trkpt lat="40.05929" lon="-3.76719">
        <ele>618</ele>
        <time>2022-12-31 10:11:29</time>
      </trkpt>
      <trkpt lat="40.05932" lon="-3.76711">
        <ele>617.8</ele>
        <time>2022-12-31 10:11:30</time>
      </trkpt>
      <trkpt lat="40.05935" lon="-3.76703">
        <ele>617.4</ele>
        <time>2022-12-31 10:11:31</time>
      </trkpt>
      <trkpt lat="40.05937" lon="-3.76694">
        <ele>617.4</ele>
        <time>2022-12-31 10:11:32</time>
      </trkpt>
      <trkpt lat="40.0594" lon="-3.76686">
        <ele>617.4</ele>
        <time>2022-12-31 10:11:33</time>
      </trkpt>
      <trkpt lat="40.05942" lon="-3.76678">
        <ele>617</ele>
        <time>2022-12-31 10:11:34</time>
      </trkpt>
      <trkpt lat="40.05945" lon="-3.7667">
        <ele>617</ele>
        <time>2022-12-31 10:11:35</time>
      </trkpt>
      <trkpt lat="40.05947" lon="-3.76662">
        <ele>616.8</ele>
        <time>2022-12-31 10:11:36</time>
      </trkpt>
      <trkpt lat="40.05949" lon="-3.76653">
        <ele>616.4</ele>
        <time>2022-12-31 10:11:37</time>
      </trkpt>
      <trkpt lat="40.05951" lon="-3.76645">
        <ele>616.2</ele>
        <time>2022-12-31 10:11:38</time>
      </trkpt>
      <trkpt lat="40.05952" lon="-3.76637">
        <ele>616</ele>
        <time>2022-12-31 10:11:39</time>
      </trkpt>
      <trkpt lat="40.05954" lon="-3.76629">
        <ele>616</ele>
        <time>2022-12-31 10:11:40</time>
      </trkpt>
      <trkpt lat="40.05956" lon="-3.76622">
        <ele>615.8</ele>
        <time>2022-12-31 10:11:41</time>
      </trkpt>
      <trkpt lat="40.05958" lon="-3.76614">
        <ele>615.8</ele>
        <time>2022-12-31 10:11:42</time>
      </trkpt>
      <trkpt lat="40.0596" lon="-3.76606">
        <ele>615.6</ele>
        <time>2022-12-31 10:11:43</time>
      </trkpt>
      <trkpt lat="40.05962" lon="-3.76599">
        <ele>615.6</ele>
        <time>2022-12-31 10:11:44</time>
      </trkpt>
      <trkpt lat="40.05965" lon="-3.76592">
        <ele>615.6</ele>
        <time>2022-12-31 10:11:45</time>
      </trkpt>
      <trkpt lat="40.05967" lon="-3.76585">
        <ele>615.4</ele>
        <time>2022-12-31 10:11:46</time>
      </trkpt>
      <trkpt lat="40.0597" lon="-3.76578">
        <ele>615.4</ele>
        <time>2022-12-31 10:11:47</time>
      </trkpt>
      <trkpt lat="40.05972" lon="-3.76571">
        <ele>615.4</ele>
        <time>2022-12-31 10:11:48</time>
      </trkpt>
      <trkpt lat="40.05975" lon="-3.76564">
        <ele>615.4</ele>
        <time>2022-12-31 10:11:49</time>
      </trkpt>
      <trkpt lat="40.05977" lon="-3.76557">
        <ele>615</ele>
        <time>2022-12-31 10:11:50</time>
      </trkpt>
      <trkpt lat="40.0598" lon="-3.7655">
        <ele>615</ele>
        <time>2022-12-31 10:11:51</time>
      </trkpt>
      <trkpt lat="40.05981" lon="-3.76544">
        <ele>615</ele>
        <time>2022-12-31 10:11:52</time>
      </trkpt>
      <trkpt lat="40.05983" lon="-3.76537">
        <ele>615</ele>
        <time>2022-12-31 10:11:53</time>
      </trkpt>
      <trkpt lat="40.05985" lon="-3.76531">
        <ele>615</ele>
        <time>2022-12-31 10:11:54</time>
      </trkpt>
      <trkpt lat="40.05987" lon="-3.76525">
        <ele>614.8</ele>
        <time>2022-12-31 10:11:55</time>
      </trkpt>
      <trkpt lat="40.0599" lon="-3.76518">
        <ele>614.8</ele>
        <time>2022-12-31 10:11:56</time>
      </trkpt>
      <trkpt lat="40.05992" lon="-3.76512">
        <ele>614.8</ele>
        <time>2022-12-31 10:11:57</time>
      </trkpt>
      <trkpt lat="40.05995" lon="-3.76505">
        <ele>614.8</ele>
        <time>2022-12-31 10:11:58</time>
      </trkpt>
      <trkpt lat="40.05997" lon="-3.76499">
        <ele>614.8</ele>
        <time>2022-12-31 10:11:59</time>
      </trkpt>
      <trkpt lat="40.06" lon="-3.76493">
        <ele>614.8</ele>
        <time>2022-12-31 10:12:00</time>
      </trkpt>
      <trkpt lat="40.06002" lon="-3.76487">
        <ele>614.6</ele>
        <time>2022-12-31 10:12:01</time>
      </trkpt>
      <trkpt lat="40.06004" lon="-3.76482">
        <ele>614.4</ele>
        <time>2022-12-31 10:12:02</time>
      </trkpt>
      <trkpt lat="40.06007" lon="-3.76477">
        <ele>614.6</ele>
        <time>2022-12-31 10:12:03</time>
      </trkpt>
      <trkpt lat="40.0601" lon="-3.76473">
        <ele>614.6</ele>
        <time>2022-12-31 10:12:04</time>
      </trkpt>
      <trkpt lat="40.06012" lon="-3.76471">
        <ele>614.4</ele>
        <time>2022-12-31 10:12:05</time>
      </trkpt>
      <trkpt lat="40.06014" lon="-3.7647">
        <ele>614.6</ele>
        <time>2022-12-31 10:12:06</time>
      </trkpt>
      <trkpt lat="40.06015" lon="-3.7647">
        <ele>614.6</ele>
        <time>2022-12-31 10:12:07</time>
      </trkpt>
      <trkpt lat="40.06015" lon="-3.76471">
        <ele>614.6</ele>
        <time>2022-12-31 10:12:08</time>
      </trkpt>
      <trkpt lat="40.06015" lon="-3.76472">
        <ele>614.6</ele>
        <time>2022-12-31 10:12:09</time>
      </trkpt>
      <trkpt lat="40.06015" lon="-3.76472">
        <ele>614.4</ele>
        <time>2022-12-31 10:12:10</time>
      </trkpt>
      <trkpt lat="40.06016" lon="-3.76473">
        <ele>614.6</ele>
        <time>2022-12-31 10:12:11</time>
      </trkpt>
      <trkpt lat="40.06014" lon="-3.76479">
        <ele>615.8</ele>
        <time>2022-12-31 10:16:24</time>
      </trkpt>
      <trkpt lat="40.06014" lon="-3.76479">
        <ele>616</ele>
        <time>2022-12-31 10:16:25</time>
      </trkpt>
      <trkpt lat="40.06014" lon="-3.76467">
        <ele>616</ele>
        <time>2022-12-31 10:16:31</time>
      </trkpt>
      <trkpt lat="40.06014" lon="-3.76464">
        <ele>616</ele>
        <time>2022-12-31 10:16:32</time>
      </trkpt>
      <trkpt lat="40.06015" lon="-3.7646">
        <ele>616</ele>
        <time>2022-12-31 10:16:33</time>
      </trkpt>
      <trkpt lat="40.06017" lon="-3.76457">
        <ele>616</ele>
        <time>2022-12-31 10:16:34</time>
      </trkpt>
      <trkpt lat="40.06018" lon="-3.76452">
        <ele>615.8</ele>
        <time>2022-12-31 10:16:35</time>
      </trkpt>
      <trkpt lat="40.0602" lon="-3.76448">
        <ele>615.8</ele>
        <time>2022-12-31 10:16:36</time>
      </trkpt>
      <trkpt lat="40.06022" lon="-3.76443">
        <ele>615.6</ele>
        <time>2022-12-31 10:16:37</time>
      </trkpt>
      <trkpt lat="40.06023" lon="-3.76438">
        <ele>615.6</ele>
        <time>2022-12-31 10:16:38</time>
      </trkpt>
      <trkpt lat="40.06025" lon="-3.76432">
        <ele>615.2</ele>
        <time>2022-12-31 10:16:39</time>
      </trkpt>
      <trkpt lat="40.06027" lon="-3.76427">
        <ele>615</ele>
        <time>2022-12-31 10:16:40</time>
      </trkpt>
      <trkpt lat="40.06029" lon="-3.76421">
        <ele>614.8</ele>
        <time>2022-12-31 10:16:41</time>
      </trkpt>
      <trkpt lat="40.06031" lon="-3.76415">
        <ele>614.6</ele>
        <time>2022-12-31 10:16:42</time>
      </trkpt>
      <trkpt lat="40.06033" lon="-3.76409">
        <ele>614.4</ele>
        <time>2022-12-31 10:16:43</time>
      </trkpt>
      <trkpt lat="40.06035" lon="-3.76403">
        <ele>614.4</ele>
        <time>2022-12-31 10:16:44</time>
      </trkpt>
      <trkpt lat="40.06038" lon="-3.76397">
        <ele>614.4</ele>
        <time>2022-12-31 10:16:45</time>
      </trkpt>
      <trkpt lat="40.0604" lon="-3.7639">
        <ele>614.2</ele>
        <time>2022-12-31 10:16:46</time>
      </trkpt>
      <trkpt lat="40.06042" lon="-3.76384">
        <ele>614.2</ele>
        <time>2022-12-31 10:16:47</time>
      </trkpt>
      <trkpt lat="40.06044" lon="-3.76378">
        <ele>614</ele>
        <time>2022-12-31 10:16:48</time>
      </trkpt>
      <trkpt lat="40.06046" lon="-3.76372">
        <ele>614</ele>
        <time>2022-12-31 10:16:49</time>
      </trkpt>
      <trkpt lat="40.06048" lon="-3.76365">
        <ele>613.8</ele>
        <time>2022-12-31 10:16:50</time>
      </trkpt>
      <trkpt lat="40.0605" lon="-3.76359">
        <ele>614</ele>
        <time>2022-12-31 10:16:51</time>
      </trkpt>
      <trkpt lat="40.06053" lon="-3.76353">
        <ele>613.8</ele>
        <time>2022-12-31 10:16:52</time>
      </trkpt>
      <trkpt lat="40.06055" lon="-3.76346">
        <ele>613.8</ele>
        <time>2022-12-31 10:16:53</time>
      </trkpt>
      <trkpt lat="40.06057" lon="-3.76339">
        <ele>613.8</ele>
        <time>2022-12-31 10:16:54</time>
      </trkpt>
      <trkpt lat="40.0606" lon="-3.76333">
        <ele>613.8</ele>
        <time>2022-12-31 10:16:55</time>
      </trkpt>
      <trkpt lat="40.06063" lon="-3.76327">
        <ele>613.6</ele>
        <time>2022-12-31 10:16:56</time>
      </trkpt>
      <trkpt lat="40.06066" lon="-3.76321">
        <ele>613.8</ele>
        <time>2022-12-31 10:16:57</time>
      </trkpt>
      <trkpt lat="40.0607" lon="-3.76316">
        <ele>613.6</ele>
        <time>2022-12-31 10:16:58</time>
      </trkpt>
      <trkpt lat="40.06073" lon="-3.7631">
        <ele>613.6</ele>
        <time>2022-12-31 10:16:59</time>
      </trkpt>
      <trkpt lat="40.06077" lon="-3.76305">
        <ele>613.6</ele>
        <time>2022-12-31 10:17:00</time>
      </trkpt>
      <trkpt lat="40.06081" lon="-3.76301">
        <ele>613.6</ele>
        <time>2022-12-31 10:17:01</time>
      </trkpt>
      <trkpt lat="40.06086" lon="-3.76297">
        <ele>613.6</ele>
        <time>2022-12-31 10:17:02</time>
      </trkpt>
      <trkpt lat="40.0609" lon="-3.76293">
        <ele>613.8</ele>
        <time>2022-12-31 10:17:03</time>
      </trkpt>
      <trkpt lat="40.06094" lon="-3.76289">
        <ele>613.8</ele>
        <time>2022-12-31 10:17:04</time>
      </trkpt>
      <trkpt lat="40.06099" lon="-3.76286">
        <ele>613.8</ele>
        <time>2022-12-31 10:17:05</time>
      </trkpt>
      <trkpt lat="40.06103" lon="-3.76283">
        <ele>613.8</ele>
        <time>2022-12-31 10:17:06</time>
      </trkpt>
      <trkpt lat="40.06108" lon="-3.76279">
        <ele>614</ele>
        <time>2022-12-31 10:17:07</time>
      </trkpt>
      <trkpt lat="40.06112" lon="-3.76275">
        <ele>614</ele>
        <time>2022-12-31 10:17:08</time>
      </trkpt>
      <trkpt lat="40.06117" lon="-3.76271">
        <ele>614.2</ele>
        <time>2022-12-31 10:17:09</time>
      </trkpt>
      <trkpt lat="40.06121" lon="-3.76267">
        <ele>614.4</ele>
        <time>2022-12-31 10:17:10</time>
      </trkpt>
      <trkpt lat="40.06125" lon="-3.76263">
        <ele>614.8</ele>
        <time>2022-12-31 10:17:11</time>
      </trkpt>
      <trkpt lat="40.06129" lon="-3.76259">
        <ele>614.8</ele>
        <time>2022-12-31 10:17:12</time>
      </trkpt>
      <trkpt lat="40.06133" lon="-3.76254">
        <ele>615</ele>
        <time>2022-12-31 10:17:13</time>
      </trkpt>
      <trkpt lat="40.06137" lon="-3.76248">
        <ele>615</ele>
        <time>2022-12-31 10:17:14</time>
      </trkpt>
      <trkpt lat="40.06141" lon="-3.76243">
        <ele>615.2</ele>
        <time>2022-12-31 10:17:15</time>
      </trkpt>
      <trkpt lat="40.06146" lon="-3.76237">
        <ele>615.2</ele>
        <time>2022-12-31 10:17:16</time>
      </trkpt>
      <trkpt lat="40.06149" lon="-3.76231">
        <ele>615.4</ele>
        <time>2022-12-31 10:17:17</time>
      </trkpt>
      <trkpt lat="40.06153" lon="-3.76225">
        <ele>615.6</ele>
        <time>2022-12-31 10:17:18</time>
      </trkpt>
      <trkpt lat="40.06156" lon="-3.7622">
        <ele>615.6</ele>
        <time>2022-12-31 10:17:19</time>
      </trkpt>
      <trkpt lat="40.0616" lon="-3.76214">
        <ele>615.6</ele>
        <time>2022-12-31 10:17:20</time>
      </trkpt>
      <trkpt lat="40.06163" lon="-3.76208">
        <ele>615.6</ele>
        <time>2022-12-31 10:17:21</time>
      </trkpt>
      <trkpt lat="40.06166" lon="-3.76203">
        <ele>615.6</ele>
        <time>2022-12-31 10:17:22</time>
      </trkpt>
      <trkpt lat="40.0617" lon="-3.76197">
        <ele>615.8</ele>
        <time>2022-12-31 10:17:23</time>
      </trkpt>
      <trkpt lat="40.06173" lon="-3.76192">
        <ele>615.8</ele>
        <time>2022-12-31 10:17:24</time>
      </trkpt>
      <trkpt lat="40.06176" lon="-3.76187">
        <ele>615.6</ele>
        <time>2022-12-31 10:17:25</time>
      </trkpt>
      <trkpt lat="40.0618" lon="-3.76182">
        <ele>616</ele>
        <time>2022-12-31 10:17:26</time>
      </trkpt>
      <trkpt lat="40.06184" lon="-3.76177">
        <ele>616</ele>
        <time>2022-12-31 10:17:27</time>
      </trkpt>
      <trkpt lat="40.06187" lon="-3.76173">
        <ele>616.4</ele>
        <time>2022-12-31 10:17:28</time>
      </trkpt>
      <trkpt lat="40.06191" lon="-3.76168">
        <ele>616.4</ele>
        <time>2022-12-31 10:17:29</time>
      </trkpt>
      <trkpt lat="40.06194" lon="-3.76164">
        <ele>616.4</ele>
        <time>2022-12-31 10:17:30</time>
      </trkpt>
      <trkpt lat="40.06198" lon="-3.7616">
        <ele>616.2</ele>
        <time>2022-12-31 10:17:31</time>
      </trkpt>
      <trkpt lat="40.06201" lon="-3.76155">
        <ele>616.6</ele>
        <time>2022-12-31 10:17:32</time>
      </trkpt>
      <trkpt lat="40.06205" lon="-3.76151">
        <ele>617</ele>
        <time>2022-12-31 10:17:33</time>
      </trkpt>
      <trkpt lat="40.06209" lon="-3.76147">
        <ele>617.2</ele>
        <time>2022-12-31 10:17:34</time>
      </trkpt>
      <trkpt lat="40.06212" lon="-3.76143">
        <ele>617.4</ele>
        <time>2022-12-31 10:17:35</time>
      </trkpt>
      <trkpt lat="40.06216" lon="-3.76139">
        <ele>617.4</ele>
        <time>2022-12-31 10:17:36</time>
      </trkpt>
      <trkpt lat="40.0622" lon="-3.76134">
        <ele>617.6</ele>
        <time>2022-12-31 10:17:37</time>
      </trkpt>
      <trkpt lat="40.06224" lon="-3.7613">
        <ele>617.8</ele>
        <time>2022-12-31 10:17:38</time>
      </trkpt>
      <trkpt lat="40.06228" lon="-3.76126">
        <ele>617.8</ele>
        <time>2022-12-31 10:17:39</time>
      </trkpt>
      <trkpt lat="40.06233" lon="-3.76121">
        <ele>617.6</ele>
        <time>2022-12-31 10:17:40</time>
      </trkpt>
      <trkpt lat="40.06238" lon="-3.76117">
        <ele>617.6</ele>
        <time>2022-12-31 10:17:41</time>
      </trkpt>
      <trkpt lat="40.06243" lon="-3.76112">
        <ele>617.6</ele>
        <time>2022-12-31 10:17:42</time>
      </trkpt>
      <trkpt lat="40.06248" lon="-3.76106">
        <ele>617.8</ele>
        <time>2022-12-31 10:17:43</time>
      </trkpt>
      <trkpt lat="40.06253" lon="-3.761">
        <ele>617.8</ele>
        <time>2022-12-31 10:17:44</time>
      </trkpt>
      <trkpt lat="40.06258" lon="-3.76094">
        <ele>617.8</ele>
        <time>2022-12-31 10:17:45</time>
      </trkpt>
      <trkpt lat="40.06263" lon="-3.76087">
        <ele>617.8</ele>
        <time>2022-12-31 10:17:46</time>
      </trkpt>
      <trkpt lat="40.06267" lon="-3.7608">
        <ele>617.8</ele>
        <time>2022-12-31 10:17:47</time>
      </trkpt>
      <trkpt lat="40.0627" lon="-3.76073">
        <ele>617.8</ele>
        <time>2022-12-31 10:17:48</time>
      </trkpt>
      <trkpt lat="40.06273" lon="-3.76064">
        <ele>617.6</ele>
        <time>2022-12-31 10:17:49</time>
      </trkpt>
      <trkpt lat="40.06276" lon="-3.76056">
        <ele>617.4</ele>
        <time>2022-12-31 10:17:50</time>
      </trkpt>
      <trkpt lat="40.06279" lon="-3.76047">
        <ele>617</ele>
        <time>2022-12-31 10:17:51</time>
      </trkpt>
      <trkpt lat="40.06281" lon="-3.76038">
        <ele>616.6</ele>
        <time>2022-12-31 10:17:52</time>
      </trkpt>
      <trkpt lat="40.06283" lon="-3.76029">
        <ele>615.6</ele>
        <time>2022-12-31 10:17:53</time>
      </trkpt>
      <trkpt lat="40.06285" lon="-3.7602">
        <ele>615.2</ele>
        <time>2022-12-31 10:17:54</time>
      </trkpt>
      <trkpt lat="40.06288" lon="-3.76011">
        <ele>614.4</ele>
        <time>2022-12-31 10:17:55</time>
      </trkpt>
      <trkpt lat="40.0629" lon="-3.76002">
        <ele>614</ele>
        <time>2022-12-31 10:17:56</time>
      </trkpt>
      <trkpt lat="40.06292" lon="-3.75992">
        <ele>613.6</ele>
        <time>2022-12-31 10:17:57</time>
      </trkpt>
      <trkpt lat="40.06295" lon="-3.75983">
        <ele>613.2</ele>
        <time>2022-12-31 10:17:58</time>
      </trkpt>
      <trkpt lat="40.06297" lon="-3.75974">
        <ele>612.6</ele>
        <time>2022-12-31 10:17:59</time>
      </trkpt>
      <trkpt lat="40.063" lon="-3.75965">
        <ele>612.6</ele>
        <time>2022-12-31 10:18:00</time>
      </trkpt>
      <trkpt lat="40.06302" lon="-3.75955">
        <ele>612.6</ele>
        <time>2022-12-31 10:18:01</time>
      </trkpt>
      <trkpt lat="40.06305" lon="-3.75946">
        <ele>612.4</ele>
        <time>2022-12-31 10:18:02</time>
      </trkpt>
      <trkpt lat="40.06308" lon="-3.75937">
        <ele>612.2</ele>
        <time>2022-12-31 10:18:03</time>
      </trkpt>
      <trkpt lat="40.0631" lon="-3.75928">
        <ele>611.6</ele>
        <time>2022-12-31 10:18:04</time>
      </trkpt>
      <trkpt lat="40.06313" lon="-3.75918">
        <ele>611.4</ele>
        <time>2022-12-31 10:18:05</time>
      </trkpt>
      <trkpt lat="40.06316" lon="-3.75909">
        <ele>611.2</ele>
        <time>2022-12-31 10:18:06</time>
      </trkpt>
      <trkpt lat="40.06319" lon="-3.759">
        <ele>611</ele>
        <time>2022-12-31 10:18:07</time>
      </trkpt>
      <trkpt lat="40.06321" lon="-3.75891">
        <ele>610.8</ele>
        <time>2022-12-31 10:18:08</time>
      </trkpt>
      <trkpt lat="40.06324" lon="-3.75882">
        <ele>610.6</ele>
        <time>2022-12-31 10:18:09</time>
      </trkpt>
      <trkpt lat="40.06327" lon="-3.75873">
        <ele>610.4</ele>
        <time>2022-12-31 10:18:10</time>
      </trkpt>
      <trkpt lat="40.0633" lon="-3.75865">
        <ele>610.2</ele>
        <time>2022-12-31 10:18:11</time>
      </trkpt>
      <trkpt lat="40.06333" lon="-3.75857">
        <ele>610.2</ele>
        <time>2022-12-31 10:18:12</time>
      </trkpt>
      <trkpt lat="40.06336" lon="-3.75849">
        <ele>610</ele>
        <time>2022-12-31 10:18:13</time>
      </trkpt>
      <trkpt lat="40.0634" lon="-3.75841">
        <ele>609.8</ele>
        <time>2022-12-31 10:18:14</time>
      </trkpt>
      <trkpt lat="40.06344" lon="-3.75833">
        <ele>609.6</ele>
        <time>2022-12-31 10:18:15</time>
      </trkpt>
      <trkpt lat="40.06348" lon="-3.75826">
        <ele>609.4</ele>
        <time>2022-12-31 10:18:16</time>
      </trkpt>
      <trkpt lat="40.06351" lon="-3.75819">
        <ele>609.2</ele>
        <time>2022-12-31 10:18:17</time>
      </trkpt>
      <trkpt lat="40.06355" lon="-3.75811">
        <ele>609.2</ele>
        <time>2022-12-31 10:18:18</time>
      </trkpt>
      <trkpt lat="40.06359" lon="-3.75804">
        <ele>609.2</ele>
        <time>2022-12-31 10:18:19</time>
      </trkpt>
      <trkpt lat="40.06363" lon="-3.75796">
        <ele>609</ele>
        <time>2022-12-31 10:18:20</time>
      </trkpt>
      <trkpt lat="40.06366" lon="-3.75789">
        <ele>609</ele>
        <time>2022-12-31 10:18:21</time>
      </trkpt>
      <trkpt lat="40.06369" lon="-3.75782">
        <ele>609</ele>
        <time>2022-12-31 10:18:22</time>
      </trkpt>
      <trkpt lat="40.06373" lon="-3.75776">
        <ele>609</ele>
        <time>2022-12-31 10:18:23</time>
      </trkpt>
      <trkpt lat="40.06376" lon="-3.75769">
        <ele>609</ele>
        <time>2022-12-31 10:18:24</time>
      </trkpt>
      <trkpt lat="40.06379" lon="-3.75762">
        <ele>609</ele>
        <time>2022-12-31 10:18:25</time>
      </trkpt>
      <trkpt lat="40.06381" lon="-3.75755">
        <ele>608.8</ele>
        <time>2022-12-31 10:18:26</time>
      </trkpt>
      <trkpt lat="40.06385" lon="-3.75748">
        <ele>608.8</ele>
        <time>2022-12-31 10:18:27</time>
      </trkpt>
      <trkpt lat="40.06388" lon="-3.75742">
        <ele>608.6</ele>
        <time>2022-12-31 10:18:28</time>
      </trkpt>
      <trkpt lat="40.0639" lon="-3.75735">
        <ele>608.8</ele>
        <time>2022-12-31 10:18:29</time>
      </trkpt>
      <trkpt lat="40.06393" lon="-3.75728">
        <ele>608.8</ele>
        <time>2022-12-31 10:18:30</time>
      </trkpt>
      <trkpt lat="40.06394" lon="-3.75721">
        <ele>608.6</ele>
        <time>2022-12-31 10:18:31</time>
      </trkpt>
      <trkpt lat="40.06396" lon="-3.75714">
        <ele>608.6</ele>
        <time>2022-12-31 10:18:32</time>
      </trkpt>
      <trkpt lat="40.06398" lon="-3.75706">
        <ele>608.6</ele>
        <time>2022-12-31 10:18:33</time>
      </trkpt>
      <trkpt lat="40.06399" lon="-3.75699">
        <ele>608.6</ele>
        <time>2022-12-31 10:18:34</time>
      </trkpt>
      <trkpt lat="40.06401" lon="-3.75693">
        <ele>608.8</ele>
        <time>2022-12-31 10:18:35</time>
      </trkpt>
      <trkpt lat="40.06402" lon="-3.75686">
        <ele>608.6</ele>
        <time>2022-12-31 10:18:36</time>
      </trkpt>
      <trkpt lat="40.06403" lon="-3.75679">
        <ele>608.8</ele>
        <time>2022-12-31 10:18:37</time>
      </trkpt>
      <trkpt lat="40.06404" lon="-3.75672">
        <ele>608.6</ele>
        <time>2022-12-31 10:18:38</time>
      </trkpt>
      <trkpt lat="40.06406" lon="-3.75666">
        <ele>608.6</ele>
        <time>2022-12-31 10:18:39</time>
      </trkpt>
      <trkpt lat="40.06408" lon="-3.75659">
        <ele>608.6</ele>
        <time>2022-12-31 10:18:40</time>
      </trkpt>
      <trkpt lat="40.0641" lon="-3.75653">
        <ele>608.6</ele>
        <time>2022-12-31 10:18:41</time>
      </trkpt>
      <trkpt lat="40.06412" lon="-3.75647">
        <ele>608.6</ele>
        <time>2022-12-31 10:18:42</time>
      </trkpt>
      <trkpt lat="40.06413" lon="-3.75641">
        <ele>608.6</ele>
        <time>2022-12-31 10:18:43</time>
      </trkpt>
      <trkpt lat="40.06415" lon="-3.75635">
        <ele>608.6</ele>
        <time>2022-12-31 10:18:44</time>
      </trkpt>
      <trkpt lat="40.06417" lon="-3.75628">
        <ele>608.6</ele>
        <time>2022-12-31 10:18:45</time>
      </trkpt>
      <trkpt lat="40.06419" lon="-3.75621">
        <ele>608.6</ele>
        <time>2022-12-31 10:18:46</time>
      </trkpt>
      <trkpt lat="40.0642" lon="-3.75615">
        <ele>608.8</ele>
        <time>2022-12-31 10:18:47</time>
      </trkpt>
      <trkpt lat="40.06422" lon="-3.75608">
        <ele>608.8</ele>
        <time>2022-12-31 10:18:48</time>
      </trkpt>
      <trkpt lat="40.06423" lon="-3.75601">
        <ele>608.8</ele>
        <time>2022-12-31 10:18:49</time>
      </trkpt>
      <trkpt lat="40.06425" lon="-3.75594">
        <ele>608.8</ele>
        <time>2022-12-31 10:18:50</time>
      </trkpt>
      <trkpt lat="40.06427" lon="-3.75587">
        <ele>608.8</ele>
        <time>2022-12-31 10:18:51</time>
      </trkpt>
      <trkpt lat="40.06428" lon="-3.7558">
        <ele>608.8</ele>
        <time>2022-12-31 10:18:52</time>
      </trkpt>
      <trkpt lat="40.0643" lon="-3.75573">
        <ele>608.6</ele>
        <time>2022-12-31 10:18:53</time>
      </trkpt>
      <trkpt lat="40.06431" lon="-3.75566">
        <ele>608.6</ele>
        <time>2022-12-31 10:18:54</time>
      </trkpt>
      <trkpt lat="40.06433" lon="-3.7556">
        <ele>608.6</ele>
        <time>2022-12-31 10:18:55</time>
      </trkpt>
      <trkpt lat="40.06435" lon="-3.75553">
        <ele>608.6</ele>
        <time>2022-12-31 10:18:56</time>
      </trkpt>
      <trkpt lat="40.06436" lon="-3.75547">
        <ele>608.6</ele>
        <time>2022-12-31 10:18:57</time>
      </trkpt>
      <trkpt lat="40.06437" lon="-3.7554">
        <ele>608.6</ele>
        <time>2022-12-31 10:18:58</time>
      </trkpt>
      <trkpt lat="40.06438" lon="-3.75534">
        <ele>608.6</ele>
        <time>2022-12-31 10:18:59</time>
      </trkpt>
      <trkpt lat="40.0644" lon="-3.75528">
        <ele>608.6</ele>
        <time>2022-12-31 10:19:00</time>
      </trkpt>
      <trkpt lat="40.06441" lon="-3.75522">
        <ele>608.6</ele>
        <time>2022-12-31 10:19:01</time>
      </trkpt>
      <trkpt lat="40.06443" lon="-3.75516">
        <ele>608.6</ele>
        <time>2022-12-31 10:19:02</time>
      </trkpt>
      <trkpt lat="40.06444" lon="-3.75509">
        <ele>608.6</ele>
        <time>2022-12-31 10:19:03</time>
      </trkpt>
      <trkpt lat="40.06445" lon="-3.75504">
        <ele>608.6</ele>
        <time>2022-12-31 10:19:04</time>
      </trkpt>
      <trkpt lat="40.06446" lon="-3.75498">
        <ele>608.6</ele>
        <time>2022-12-31 10:19:05</time>
      </trkpt>
      <trkpt lat="40.06446" lon="-3.75492">
        <ele>608.6</ele>
        <time>2022-12-31 10:19:06</time>
      </trkpt>
      <trkpt lat="40.06447" lon="-3.75486">
        <ele>608.6</ele>
        <time>2022-12-31 10:19:07</time>
      </trkpt>
      <trkpt lat="40.06447" lon="-3.75479">
        <ele>608.6</ele>
        <time>2022-12-31 10:19:08</time>
      </trkpt>
      <trkpt lat="40.06448" lon="-3.75473">
        <ele>608.6</ele>
        <time>2022-12-31 10:19:09</time>
      </trkpt>
      <trkpt lat="40.06448" lon="-3.75466">
        <ele>608.8</ele>
        <time>2022-12-31 10:19:10</time>
      </trkpt>
      <trkpt lat="40.06449" lon="-3.7546">
        <ele>608.8</ele>
        <time>2022-12-31 10:19:11</time>
      </trkpt>
      <trkpt lat="40.0645" lon="-3.75454">
        <ele>608.8</ele>
        <time>2022-12-31 10:19:12</time>
      </trkpt>
      <trkpt lat="40.06452" lon="-3.75447">
        <ele>608.8</ele>
        <time>2022-12-31 10:19:13</time>
      </trkpt>
      <trkpt lat="40.06453" lon="-3.75441">
        <ele>609</ele>
        <time>2022-12-31 10:19:14</time>
      </trkpt>
      <trkpt lat="40.06455" lon="-3.75435">
        <ele>609</ele>
        <time>2022-12-31 10:19:15</time>
      </trkpt>
      <trkpt lat="40.06456" lon="-3.75429">
        <ele>609</ele>
        <time>2022-12-31 10:19:16</time>
      </trkpt>
      <trkpt lat="40.06458" lon="-3.75423">
        <ele>609.2</ele>
        <time>2022-12-31 10:19:17</time>
      </trkpt>
      <trkpt lat="40.0646" lon="-3.75416">
        <ele>609.2</ele>
        <time>2022-12-31 10:19:18</time>
      </trkpt>
      <trkpt lat="40.06462" lon="-3.7541">
        <ele>609.2</ele>
        <time>2022-12-31 10:19:19</time>
      </trkpt>
      <trkpt lat="40.06464" lon="-3.75404">
        <ele>609.4</ele>
        <time>2022-12-31 10:19:20</time>
      </trkpt>
      <trkpt lat="40.06465" lon="-3.75399">
        <ele>609.2</ele>
        <time>2022-12-31 10:19:21</time>
      </trkpt>
      <trkpt lat="40.06467" lon="-3.75393">
        <ele>609.4</ele>
        <time>2022-12-31 10:19:22</time>
      </trkpt>
      <trkpt lat="40.06469" lon="-3.75387">
        <ele>609.4</ele>
        <time>2022-12-31 10:19:23</time>
      </trkpt>
      <trkpt lat="40.0647" lon="-3.75381">
        <ele>609.4</ele>
        <time>2022-12-31 10:19:24</time>
      </trkpt>
      <trkpt lat="40.06472" lon="-3.75375">
        <ele>609.6</ele>
        <time>2022-12-31 10:19:25</time>
      </trkpt>
      <trkpt lat="40.06475" lon="-3.7537">
        <ele>609.6</ele>
        <time>2022-12-31 10:19:26</time>
      </trkpt>
      <trkpt lat="40.06477" lon="-3.75365">
        <ele>609.6</ele>
        <time>2022-12-31 10:19:27</time>
      </trkpt>
      <trkpt lat="40.06479" lon="-3.75361">
        <ele>609.6</ele>
        <time>2022-12-31 10:19:28</time>
      </trkpt>
      <trkpt lat="40.06482" lon="-3.75356">
        <ele>609.6</ele>
        <time>2022-12-31 10:19:29</time>
      </trkpt>
      <trkpt lat="40.06484" lon="-3.75351">
        <ele>609.4</ele>
        <time>2022-12-31 10:19:30</time>
      </trkpt>
      <trkpt lat="40.06487" lon="-3.75347">
        <ele>609.6</ele>
        <time>2022-12-31 10:19:31</time>
      </trkpt>
      <trkpt lat="40.06489" lon="-3.75342">
        <ele>609.6</ele>
        <time>2022-12-31 10:19:32</time>
      </trkpt>
      <trkpt lat="40.06491" lon="-3.75337">
        <ele>609.6</ele>
        <time>2022-12-31 10:19:33</time>
      </trkpt>
      <trkpt lat="40.06493" lon="-3.75332">
        <ele>609.6</ele>
        <time>2022-12-31 10:19:34</time>
      </trkpt>
      <trkpt lat="40.06495" lon="-3.75325">
        <ele>609.6</ele>
        <time>2022-12-31 10:19:35</time>
      </trkpt>
      <trkpt lat="40.06497" lon="-3.75318">
        <ele>609.8</ele>
        <time>2022-12-31 10:19:36</time>
      </trkpt>
      <trkpt lat="40.065" lon="-3.75311">
        <ele>609.6</ele>
        <time>2022-12-31 10:19:37</time>
      </trkpt>
      <trkpt lat="40.06503" lon="-3.75304">
        <ele>609.6</ele>
        <time>2022-12-31 10:19:38</time>
      </trkpt>
      <trkpt lat="40.06506" lon="-3.75296">
        <ele>609.6</ele>
        <time>2022-12-31 10:19:39</time>
      </trkpt>
      <trkpt lat="40.0651" lon="-3.75289">
        <ele>609.6</ele>
        <time>2022-12-31 10:19:40</time>
      </trkpt>
      <trkpt lat="40.06514" lon="-3.75282">
        <ele>609.8</ele>
        <time>2022-12-31 10:19:41</time>
      </trkpt>
      <trkpt lat="40.06518" lon="-3.75275">
        <ele>609.6</ele>
        <time>2022-12-31 10:19:42</time>
      </trkpt>
      <trkpt lat="40.06522" lon="-3.75269">
        <ele>609.6</ele>
        <time>2022-12-31 10:19:43</time>
      </trkpt>
      <trkpt lat="40.06526" lon="-3.75262">
        <ele>609.4</ele>
        <time>2022-12-31 10:19:44</time>
      </trkpt>
      <trkpt lat="40.0653" lon="-3.75255">
        <ele>609.4</ele>
        <time>2022-12-31 10:19:45</time>
      </trkpt>
      <trkpt lat="40.06535" lon="-3.75248">
        <ele>608.8</ele>
        <time>2022-12-31 10:19:46</time>
      </trkpt>
      <trkpt lat="40.0654" lon="-3.75242">
        <ele>608.2</ele>
        <time>2022-12-31 10:19:47</time>
      </trkpt>
      <trkpt lat="40.06545" lon="-3.75236">
        <ele>608</ele>
        <time>2022-12-31 10:19:48</time>
      </trkpt>
      <trkpt lat="40.0655" lon="-3.75229">
        <ele>607.8</ele>
        <time>2022-12-31 10:19:49</time>
      </trkpt>
      <trkpt lat="40.06555" lon="-3.75222">
        <ele>607.6</ele>
        <time>2022-12-31 10:19:50</time>
      </trkpt>
      <trkpt lat="40.06561" lon="-3.75216">
        <ele>607.4</ele>
        <time>2022-12-31 10:19:51</time>
      </trkpt>
      <trkpt lat="40.06567" lon="-3.7521">
        <ele>606.8</ele>
        <time>2022-12-31 10:19:52</time>
      </trkpt>
      <trkpt lat="40.06572" lon="-3.75203">
        <ele>606.8</ele>
        <time>2022-12-31 10:19:53</time>
      </trkpt>
      <trkpt lat="40.06578" lon="-3.75197">
        <ele>606.6</ele>
        <time>2022-12-31 10:19:54</time>
      </trkpt>
      <trkpt lat="40.06583" lon="-3.7519">
        <ele>606.2</ele>
        <time>2022-12-31 10:19:55</time>
      </trkpt>
      <trkpt lat="40.06588" lon="-3.75184">
        <ele>605.8</ele>
        <time>2022-12-31 10:19:56</time>
      </trkpt>
      <trkpt lat="40.06593" lon="-3.75177">
        <ele>605.6</ele>
        <time>2022-12-31 10:19:57</time>
      </trkpt>
      <trkpt lat="40.06598" lon="-3.7517">
        <ele>605.4</ele>
        <time>2022-12-31 10:19:58</time>
      </trkpt>
      <trkpt lat="40.06602" lon="-3.75162">
        <ele>605.2</ele>
        <time>2022-12-31 10:19:59</time>
      </trkpt>
      <trkpt lat="40.06607" lon="-3.75155">
        <ele>604.6</ele>
        <time>2022-12-31 10:20:00</time>
      </trkpt>
      <trkpt lat="40.06611" lon="-3.75148">
        <ele>603.8</ele>
        <time>2022-12-31 10:20:01</time>
      </trkpt>
      <trkpt lat="40.06615" lon="-3.7514">
        <ele>603.4</ele>
        <time>2022-12-31 10:20:02</time>
      </trkpt>
      <trkpt lat="40.06619" lon="-3.75133">
        <ele>603.4</ele>
        <time>2022-12-31 10:20:03</time>
      </trkpt>
      <trkpt lat="40.06623" lon="-3.75126">
        <ele>602.6</ele>
        <time>2022-12-31 10:20:04</time>
      </trkpt>
      <trkpt lat="40.06628" lon="-3.75119">
        <ele>602.4</ele>
        <time>2022-12-31 10:20:05</time>
      </trkpt>
      <trkpt lat="40.06633" lon="-3.75112">
        <ele>602.4</ele>
        <time>2022-12-31 10:20:06</time>
      </trkpt>
      <trkpt lat="40.06638" lon="-3.75106">
        <ele>602.2</ele>
        <time>2022-12-31 10:20:07</time>
      </trkpt>
      <trkpt lat="40.06642" lon="-3.75099">
        <ele>602</ele>
        <time>2022-12-31 10:20:08</time>
      </trkpt>
      <trkpt lat="40.06647" lon="-3.75093">
        <ele>602</ele>
        <time>2022-12-31 10:20:09</time>
      </trkpt>
      <trkpt lat="40.06651" lon="-3.75086">
        <ele>601.8</ele>
        <time>2022-12-31 10:20:10</time>
      </trkpt>
      <trkpt lat="40.06656" lon="-3.75078">
        <ele>601.8</ele>
        <time>2022-12-31 10:20:11</time>
      </trkpt>
      <trkpt lat="40.0666" lon="-3.75071">
        <ele>601.8</ele>
        <time>2022-12-31 10:20:12</time>
      </trkpt>
      <trkpt lat="40.06664" lon="-3.75064">
        <ele>601.8</ele>
        <time>2022-12-31 10:20:13</time>
      </trkpt>
      <trkpt lat="40.06668" lon="-3.75056">
        <ele>601.8</ele>
        <time>2022-12-31 10:20:14</time>
      </trkpt>
      <trkpt lat="40.06672" lon="-3.75049">
        <ele>601.4</ele>
        <time>2022-12-31 10:20:15</time>
      </trkpt>
      <trkpt lat="40.06677" lon="-3.75043">
        <ele>601.4</ele>
        <time>2022-12-31 10:20:16</time>
      </trkpt>
      <trkpt lat="40.06681" lon="-3.75036">
        <ele>601</ele>
        <time>2022-12-31 10:20:17</time>
      </trkpt>
      <trkpt lat="40.06685" lon="-3.75029">
        <ele>601</ele>
        <time>2022-12-31 10:20:18</time>
      </trkpt>
      <trkpt lat="40.06689" lon="-3.75022">
        <ele>600.6</ele>
        <time>2022-12-31 10:20:19</time>
      </trkpt>
      <trkpt lat="40.06694" lon="-3.75016">
        <ele>600</ele>
        <time>2022-12-31 10:20:20</time>
      </trkpt>
      <trkpt lat="40.06698" lon="-3.75009">
        <ele>599.8</ele>
        <time>2022-12-31 10:20:21</time>
      </trkpt>
      <trkpt lat="40.06704" lon="-3.75003">
        <ele>599.4</ele>
        <time>2022-12-31 10:20:22</time>
      </trkpt>
      <trkpt lat="40.06709" lon="-3.74997">
        <ele>599.4</ele>
        <time>2022-12-31 10:20:23</time>
      </trkpt>
      <trkpt lat="40.06715" lon="-3.74991">
        <ele>599.2</ele>
        <time>2022-12-31 10:20:24</time>
      </trkpt>
      <trkpt lat="40.0672" lon="-3.74986">
        <ele>599</ele>
        <time>2022-12-31 10:20:25</time>
      </trkpt>
      <trkpt lat="40.06726" lon="-3.74982">
        <ele>599</ele>
        <time>2022-12-31 10:20:26</time>
      </trkpt>
      <trkpt lat="40.06731" lon="-3.74977">
        <ele>599</ele>
        <time>2022-12-31 10:20:27</time>
      </trkpt>
      <trkpt lat="40.06737" lon="-3.74973">
        <ele>598.8</ele>
        <time>2022-12-31 10:20:28</time>
      </trkpt>
      <trkpt lat="40.06742" lon="-3.74968">
        <ele>598.8</ele>
        <time>2022-12-31 10:20:29</time>
      </trkpt>
      <trkpt lat="40.06747" lon="-3.74963">
        <ele>598.8</ele>
        <time>2022-12-31 10:20:30</time>
      </trkpt>
      <trkpt lat="40.06751" lon="-3.74958">
        <ele>598.6</ele>
        <time>2022-12-31 10:20:31</time>
      </trkpt>
      <trkpt lat="40.06756" lon="-3.74953">
        <ele>598.6</ele>
        <time>2022-12-31 10:20:32</time>
      </trkpt>
      <trkpt lat="40.06761" lon="-3.74947">
        <ele>598.4</ele>
        <time>2022-12-31 10:20:33</time>
      </trkpt>
      <trkpt lat="40.06766" lon="-3.74942">
        <ele>598.4</ele>
        <time>2022-12-31 10:20:34</time>
      </trkpt>
      <trkpt lat="40.0677" lon="-3.74937">
        <ele>598.4</ele>
        <time>2022-12-31 10:20:35</time>
      </trkpt>
      <trkpt lat="40.06775" lon="-3.74931">
        <ele>598.4</ele>
        <time>2022-12-31 10:20:36</time>
      </trkpt>
      <trkpt lat="40.06779" lon="-3.74926">
        <ele>598.6</ele>
        <time>2022-12-31 10:20:37</time>
      </trkpt>
      <trkpt lat="40.06783" lon="-3.7492">
        <ele>598.4</ele>
        <time>2022-12-31 10:20:38</time>
      </trkpt>
      <trkpt lat="40.06787" lon="-3.74915">
        <ele>598.4</ele>
        <time>2022-12-31 10:20:39</time>
      </trkpt>
      <trkpt lat="40.06791" lon="-3.74909">
        <ele>598.2</ele>
        <time>2022-12-31 10:20:40</time>
      </trkpt>
      <trkpt lat="40.06795" lon="-3.74903">
        <ele>598.2</ele>
        <time>2022-12-31 10:20:41</time>
      </trkpt>
      <trkpt lat="40.06799" lon="-3.74898">
        <ele>598</ele>
        <time>2022-12-31 10:20:42</time>
      </trkpt>
      <trkpt lat="40.06803" lon="-3.74892">
        <ele>598.2</ele>
        <time>2022-12-31 10:20:43</time>
      </trkpt>
      <trkpt lat="40.06807" lon="-3.74886">
        <ele>598</ele>
        <time>2022-12-31 10:20:44</time>
      </trkpt>
      <trkpt lat="40.06811" lon="-3.74881">
        <ele>598.2</ele>
        <time>2022-12-31 10:20:45</time>
      </trkpt>
      <trkpt lat="40.06815" lon="-3.74874">
        <ele>598</ele>
        <time>2022-12-31 10:20:46</time>
      </trkpt>
      <trkpt lat="40.06819" lon="-3.74868">
        <ele>598</ele>
        <time>2022-12-31 10:20:47</time>
      </trkpt>
      <trkpt lat="40.06822" lon="-3.74862">
        <ele>598</ele>
        <time>2022-12-31 10:20:48</time>
      </trkpt>
      <trkpt lat="40.06827" lon="-3.74856">
        <ele>598.2</ele>
        <time>2022-12-31 10:20:49</time>
      </trkpt>
      <trkpt lat="40.06831" lon="-3.74851">
        <ele>598</ele>
        <time>2022-12-31 10:20:50</time>
      </trkpt>
      <trkpt lat="40.06835" lon="-3.74845">
        <ele>598</ele>
        <time>2022-12-31 10:20:51</time>
      </trkpt>
      <trkpt lat="40.06839" lon="-3.74839">
        <ele>598</ele>
        <time>2022-12-31 10:20:52</time>
      </trkpt>
      <trkpt lat="40.06842" lon="-3.74833">
        <ele>598</ele>
        <time>2022-12-31 10:20:53</time>
      </trkpt>
      <trkpt lat="40.06845" lon="-3.74827">
        <ele>598</ele>
        <time>2022-12-31 10:20:54</time>
      </trkpt>
      <trkpt lat="40.06848" lon="-3.74822">
        <ele>598</ele>
        <time>2022-12-31 10:20:55</time>
      </trkpt>
      <trkpt lat="40.06852" lon="-3.74816">
        <ele>598</ele>
        <time>2022-12-31 10:20:56</time>
      </trkpt>
      <trkpt lat="40.06855" lon="-3.74811">
        <ele>597.8</ele>
        <time>2022-12-31 10:20:57</time>
      </trkpt>
      <trkpt lat="40.06859" lon="-3.74805">
        <ele>597.8</ele>
        <time>2022-12-31 10:20:58</time>
      </trkpt>
      <trkpt lat="40.06862" lon="-3.74799">
        <ele>597.6</ele>
        <time>2022-12-31 10:20:59</time>
      </trkpt>
      <trkpt lat="40.06866" lon="-3.74793">
        <ele>597.6</ele>
        <time>2022-12-31 10:21:00</time>
      </trkpt>
      <trkpt lat="40.0687" lon="-3.74787">
        <ele>597.6</ele>
        <time>2022-12-31 10:21:01</time>
      </trkpt>
      <trkpt lat="40.06874" lon="-3.74781">
        <ele>597.6</ele>
        <time>2022-12-31 10:21:02</time>
      </trkpt>
      <trkpt lat="40.06878" lon="-3.74775">
        <ele>597.6</ele>
        <time>2022-12-31 10:21:03</time>
      </trkpt>
      <trkpt lat="40.06881" lon="-3.74768">
        <ele>597.4</ele>
        <time>2022-12-31 10:21:04</time>
      </trkpt>
      <trkpt lat="40.06885" lon="-3.74761">
        <ele>597.6</ele>
        <time>2022-12-31 10:21:05</time>
      </trkpt>
      <trkpt lat="40.06888" lon="-3.74753">
        <ele>597.2</ele>
        <time>2022-12-31 10:21:06</time>
      </trkpt>
      <trkpt lat="40.06891" lon="-3.74746">
        <ele>597.2</ele>
        <time>2022-12-31 10:21:07</time>
      </trkpt>
      <trkpt lat="40.06895" lon="-3.74739">
        <ele>597.2</ele>
        <time>2022-12-31 10:21:08</time>
      </trkpt>
      <trkpt lat="40.06898" lon="-3.74731">
        <ele>597</ele>
        <time>2022-12-31 10:21:09</time>
      </trkpt>
      <trkpt lat="40.06902" lon="-3.74724">
        <ele>597</ele>
        <time>2022-12-31 10:21:10</time>
      </trkpt>
      <trkpt lat="40.06905" lon="-3.74717">
        <ele>596.8</ele>
        <time>2022-12-31 10:21:11</time>
      </trkpt>
      <trkpt lat="40.06909" lon="-3.74709">
        <ele>596.2</ele>
        <time>2022-12-31 10:21:12</time>
      </trkpt>
      <trkpt lat="40.06913" lon="-3.74701">
        <ele>595.6</ele>
        <time>2022-12-31 10:21:13</time>
      </trkpt>
      <trkpt lat="40.06917" lon="-3.74693">
        <ele>595.4</ele>
        <time>2022-12-31 10:21:14</time>
      </trkpt>
      <trkpt lat="40.06921" lon="-3.74685">
        <ele>595.2</ele>
        <time>2022-12-31 10:21:15</time>
      </trkpt>
      <trkpt lat="40.06925" lon="-3.74676">
        <ele>594.8</ele>
        <time>2022-12-31 10:21:16</time>
      </trkpt>
      <trkpt lat="40.06929" lon="-3.74668">
        <ele>594.8</ele>
        <time>2022-12-31 10:21:17</time>
      </trkpt>
      <trkpt lat="40.06933" lon="-3.7466">
        <ele>594.2</ele>
        <time>2022-12-31 10:21:18</time>
      </trkpt>
      <trkpt lat="40.06937" lon="-3.74651">
        <ele>594</ele>
        <time>2022-12-31 10:21:19</time>
      </trkpt>
      <trkpt lat="40.06941" lon="-3.74643">
        <ele>593.6</ele>
        <time>2022-12-31 10:21:20</time>
      </trkpt>
      <trkpt lat="40.06945" lon="-3.74635">
        <ele>593.2</ele>
        <time>2022-12-31 10:21:21</time>
      </trkpt>
      <trkpt lat="40.06949" lon="-3.74627">
        <ele>592.8</ele>
        <time>2022-12-31 10:21:22</time>
      </trkpt>
      <trkpt lat="40.06953" lon="-3.74619">
        <ele>592.4</ele>
        <time>2022-12-31 10:21:23</time>
      </trkpt>
      <trkpt lat="40.06958" lon="-3.7461">
        <ele>591.8</ele>
        <time>2022-12-31 10:21:24</time>
      </trkpt>
      <trkpt lat="40.06962" lon="-3.74602">
        <ele>591</ele>
        <time>2022-12-31 10:21:25</time>
      </trkpt>
      <trkpt lat="40.06966" lon="-3.74594">
        <ele>590.2</ele>
        <time>2022-12-31 10:21:26</time>
      </trkpt>
      <trkpt lat="40.06969" lon="-3.74587">
        <ele>589.8</ele>
        <time>2022-12-31 10:21:27</time>
      </trkpt>
      <trkpt lat="40.06973" lon="-3.74581">
        <ele>589.8</ele>
        <time>2022-12-31 10:21:28</time>
      </trkpt>
      <trkpt lat="40.06976" lon="-3.74574">
        <ele>589.4</ele>
        <time>2022-12-31 10:21:29</time>
      </trkpt>
      <trkpt lat="40.06979" lon="-3.74566">
        <ele>589</ele>
        <time>2022-12-31 10:21:30</time>
      </trkpt>
      <trkpt lat="40.06981" lon="-3.74559">
        <ele>588.6</ele>
        <time>2022-12-31 10:21:31</time>
      </trkpt>
      <trkpt lat="40.06983" lon="-3.74552">
        <ele>588</ele>
        <time>2022-12-31 10:21:32</time>
      </trkpt>
      <trkpt lat="40.06985" lon="-3.74545">
        <ele>587.4</ele>
        <time>2022-12-31 10:21:33</time>
      </trkpt>
      <trkpt lat="40.06987" lon="-3.74537">
        <ele>587</ele>
        <time>2022-12-31 10:21:34</time>
      </trkpt>
      <trkpt lat="40.06989" lon="-3.7453">
        <ele>586.6</ele>
        <time>2022-12-31 10:21:35</time>
      </trkpt>
      <trkpt lat="40.06992" lon="-3.74524">
        <ele>586.2</ele>
        <time>2022-12-31 10:21:36</time>
      </trkpt>
      <trkpt lat="40.06996" lon="-3.74518">
        <ele>586</ele>
        <time>2022-12-31 10:21:37</time>
      </trkpt>
      <trkpt lat="40.07001" lon="-3.74514">
        <ele>585.8</ele>
        <time>2022-12-31 10:21:38</time>
      </trkpt>
      <trkpt lat="40.07006" lon="-3.74512">
        <ele>585.2</ele>
        <time>2022-12-31 10:21:39</time>
      </trkpt>
      <trkpt lat="40.07012" lon="-3.74511">
        <ele>584.6</ele>
        <time>2022-12-31 10:21:40</time>
      </trkpt>
      <trkpt lat="40.07022" lon="-3.74515">
        <ele>584.4</ele>
        <time>2022-12-31 10:21:41</time>
      </trkpt>
      <trkpt lat="40.07029" lon="-3.74516">
        <ele>583.6</ele>
        <time>2022-12-31 10:21:42</time>
      </trkpt>
      <trkpt lat="40.07039" lon="-3.74522">
        <ele>583.2</ele>
        <time>2022-12-31 10:21:43</time>
      </trkpt>
      <trkpt lat="40.07046" lon="-3.74523">
        <ele>582.8</ele>
        <time>2022-12-31 10:21:44</time>
      </trkpt>
      <trkpt lat="40.07051" lon="-3.74523">
        <ele>582.2</ele>
        <time>2022-12-31 10:21:45</time>
      </trkpt>
      <trkpt lat="40.07057" lon="-3.74522">
        <ele>581.6</ele>
        <time>2022-12-31 10:21:46</time>
      </trkpt>
      <trkpt lat="40.07063" lon="-3.74522">
        <ele>581.2</ele>
        <time>2022-12-31 10:21:47</time>
      </trkpt>
      <trkpt lat="40.07069" lon="-3.74523">
        <ele>580.2</ele>
        <time>2022-12-31 10:21:48</time>
      </trkpt>
      <trkpt lat="40.07073" lon="-3.74526">
        <ele>580.2</ele>
        <time>2022-12-31 10:21:49</time>
      </trkpt>
      <trkpt lat="40.07077" lon="-3.74531">
        <ele>579.2</ele>
        <time>2022-12-31 10:21:50</time>
      </trkpt>
      <trkpt lat="40.07081" lon="-3.74536">
        <ele>578.2</ele>
        <time>2022-12-31 10:21:51</time>
      </trkpt>
      <trkpt lat="40.07084" lon="-3.74541">
        <ele>577.4</ele>
        <time>2022-12-31 10:21:52</time>
      </trkpt>
      <trkpt lat="40.07087" lon="-3.74545">
        <ele>577.2</ele>
        <time>2022-12-31 10:21:53</time>
      </trkpt>
      <trkpt lat="40.07089" lon="-3.74548">
        <ele>577</ele>
        <time>2022-12-31 10:21:54</time>
      </trkpt>
      <trkpt lat="40.07092" lon="-3.74551">
        <ele>577</ele>
        <time>2022-12-31 10:21:55</time>
      </trkpt>
      <trkpt lat="40.07094" lon="-3.74554">
        <ele>576.8</ele>
        <time>2022-12-31 10:21:56</time>
      </trkpt>
      <trkpt lat="40.07097" lon="-3.74557">
        <ele>577</ele>
        <time>2022-12-31 10:21:57</time>
      </trkpt>
      <trkpt lat="40.071" lon="-3.7456">
        <ele>576.8</ele>
        <time>2022-12-31 10:21:58</time>
      </trkpt>
      <trkpt lat="40.07102" lon="-3.74564">
        <ele>576.8</ele>
        <time>2022-12-31 10:21:59</time>
      </trkpt>
      <trkpt lat="40.07105" lon="-3.74566">
        <ele>576.8</ele>
        <time>2022-12-31 10:22:00</time>
      </trkpt>
      <trkpt lat="40.07109" lon="-3.7457">
        <ele>576.8</ele>
        <time>2022-12-31 10:22:01</time>
      </trkpt>
      <trkpt lat="40.07111" lon="-3.74573">
        <ele>576.8</ele>
        <time>2022-12-31 10:22:02</time>
      </trkpt>
      <trkpt lat="40.07113" lon="-3.74577">
        <ele>577.2</ele>
        <time>2022-12-31 10:22:03</time>
      </trkpt>
      <trkpt lat="40.07115" lon="-3.7458">
        <ele>577.4</ele>
        <time>2022-12-31 10:22:04</time>
      </trkpt>
      <trkpt lat="40.07118" lon="-3.74584">
        <ele>577.6</ele>
        <time>2022-12-31 10:22:05</time>
      </trkpt>
      <trkpt lat="40.07121" lon="-3.74587">
        <ele>577.8</ele>
        <time>2022-12-31 10:22:06</time>
      </trkpt>
      <trkpt lat="40.07124" lon="-3.7459">
        <ele>577.8</ele>
        <time>2022-12-31 10:22:07</time>
      </trkpt>
      <trkpt lat="40.07128" lon="-3.74595">
        <ele>577.8</ele>
        <time>2022-12-31 10:22:08</time>
      </trkpt>
      <trkpt lat="40.07131" lon="-3.74601">
        <ele>577.8</ele>
        <time>2022-12-31 10:22:09</time>
      </trkpt>
      <trkpt lat="40.07135" lon="-3.74605">
        <ele>577.8</ele>
        <time>2022-12-31 10:22:10</time>
      </trkpt>
      <trkpt lat="40.07138" lon="-3.74608">
        <ele>578</ele>
        <time>2022-12-31 10:22:11</time>
      </trkpt>
      <trkpt lat="40.07141" lon="-3.7461">
        <ele>578</ele>
        <time>2022-12-31 10:22:12</time>
      </trkpt>
      <trkpt lat="40.07145" lon="-3.7461">
        <ele>578.2</ele>
        <time>2022-12-31 10:22:13</time>
      </trkpt>
      <trkpt lat="40.07149" lon="-3.7461">
        <ele>578.4</ele>
        <time>2022-12-31 10:22:14</time>
      </trkpt>
      <trkpt lat="40.07153" lon="-3.7461">
        <ele>578.4</ele>
        <time>2022-12-31 10:22:15</time>
      </trkpt>
      <trkpt lat="40.07157" lon="-3.74609">
        <ele>578.4</ele>
        <time>2022-12-31 10:22:16</time>
      </trkpt>
      <trkpt lat="40.0716" lon="-3.74609">
        <ele>578.4</ele>
        <time>2022-12-31 10:22:17</time>
      </trkpt>
      <trkpt lat="40.07164" lon="-3.7461">
        <ele>578.6</ele>
        <time>2022-12-31 10:22:18</time>
      </trkpt>
      <trkpt lat="40.07167" lon="-3.7461">
        <ele>578.8</ele>
        <time>2022-12-31 10:22:19</time>
      </trkpt>
      <trkpt lat="40.0717" lon="-3.7461">
        <ele>579</ele>
        <time>2022-12-31 10:22:20</time>
      </trkpt>
      <trkpt lat="40.07174" lon="-3.7461">
        <ele>579.4</ele>
        <time>2022-12-31 10:22:21</time>
      </trkpt>
      <trkpt lat="40.07177" lon="-3.74609">
        <ele>579.6</ele>
        <time>2022-12-31 10:22:22</time>
      </trkpt>
      <trkpt lat="40.07181" lon="-3.74609">
        <ele>580</ele>
        <time>2022-12-31 10:22:23</time>
      </trkpt>
      <trkpt lat="40.07184" lon="-3.7461">
        <ele>580.2</ele>
        <time>2022-12-31 10:22:24</time>
      </trkpt>
      <trkpt lat="40.07187" lon="-3.7461">
        <ele>580.6</ele>
        <time>2022-12-31 10:22:25</time>
      </trkpt>
      <trkpt lat="40.07191" lon="-3.74609">
        <ele>581</ele>
        <time>2022-12-31 10:22:26</time>
      </trkpt>
      <trkpt lat="40.07194" lon="-3.7461">
        <ele>581.4</ele>
        <time>2022-12-31 10:22:27</time>
      </trkpt>
      <trkpt lat="40.07197" lon="-3.7461">
        <ele>581.8</ele>
        <time>2022-12-31 10:22:28</time>
      </trkpt>
      <trkpt lat="40.072" lon="-3.7461">
        <ele>582</ele>
        <time>2022-12-31 10:22:29</time>
      </trkpt>
      <trkpt lat="40.07203" lon="-3.7461">
        <ele>582.4</ele>
        <time>2022-12-31 10:22:30</time>
      </trkpt>
      <trkpt lat="40.07206" lon="-3.7461">
        <ele>582.4</ele>
        <time>2022-12-31 10:22:31</time>
      </trkpt>
      <trkpt lat="40.07209" lon="-3.74609">
        <ele>582.8</ele>
        <time>2022-12-31 10:22:32</time>
      </trkpt>
      <trkpt lat="40.07212" lon="-3.74609">
        <ele>583</ele>
        <time>2022-12-31 10:22:33</time>
      </trkpt>
      <trkpt lat="40.07215" lon="-3.74609">
        <ele>583.4</ele>
        <time>2022-12-31 10:22:34</time>
      </trkpt>
      <trkpt lat="40.07218" lon="-3.74609">
        <ele>583.8</ele>
        <time>2022-12-31 10:22:35</time>
      </trkpt>
      <trkpt lat="40.0722" lon="-3.74609">
        <ele>584</ele>
        <time>2022-12-31 10:22:36</time>
      </trkpt>
      <trkpt lat="40.07223" lon="-3.74609">
        <ele>584.2</ele>
        <time>2022-12-31 10:22:37</time>
      </trkpt>
      <trkpt lat="40.07226" lon="-3.74609">
        <ele>584.6</ele>
        <time>2022-12-31 10:22:38</time>
      </trkpt>
      <trkpt lat="40.07228" lon="-3.74609">
        <ele>585</ele>
        <time>2022-12-31 10:22:39</time>
      </trkpt>
      <trkpt lat="40.07231" lon="-3.7461">
        <ele>585.2</ele>
        <time>2022-12-31 10:22:40</time>
      </trkpt>
      <trkpt lat="40.07234" lon="-3.7461">
        <ele>585.4</ele>
        <time>2022-12-31 10:22:41</time>
      </trkpt>
      <trkpt lat="40.07236" lon="-3.7461">
        <ele>585.8</ele>
        <time>2022-12-31 10:22:42</time>
      </trkpt>
      <trkpt lat="40.07238" lon="-3.7461">
        <ele>586</ele>
        <time>2022-12-31 10:22:43</time>
      </trkpt>
      <trkpt lat="40.07241" lon="-3.7461">
        <ele>586.4</ele>
        <time>2022-12-31 10:22:44</time>
      </trkpt>
      <trkpt lat="40.07243" lon="-3.7461">
        <ele>586.6</ele>
        <time>2022-12-31 10:22:45</time>
      </trkpt>
      <trkpt lat="40.07245" lon="-3.7461">
        <ele>587.2</ele>
        <time>2022-12-31 10:22:46</time>
      </trkpt>
      <trkpt lat="40.07247" lon="-3.7461">
        <ele>587.2</ele>
        <time>2022-12-31 10:22:47</time>
      </trkpt>
      <trkpt lat="40.0725" lon="-3.7461">
        <ele>587.6</ele>
        <time>2022-12-31 10:22:48</time>
      </trkpt>
      <trkpt lat="40.07253" lon="-3.7461">
        <ele>587.8</ele>
        <time>2022-12-31 10:22:49</time>
      </trkpt>
      <trkpt lat="40.07255" lon="-3.7461">
        <ele>588</ele>
        <time>2022-12-31 10:22:50</time>
      </trkpt>
      <trkpt lat="40.07258" lon="-3.7461">
        <ele>588</ele>
        <time>2022-12-31 10:22:51</time>
      </trkpt>
      <trkpt lat="40.0726" lon="-3.7461">
        <ele>588.4</ele>
        <time>2022-12-31 10:22:52</time>
      </trkpt>
      <trkpt lat="40.07262" lon="-3.7461">
        <ele>588.6</ele>
        <time>2022-12-31 10:22:53</time>
      </trkpt>
      <trkpt lat="40.07265" lon="-3.74611">
        <ele>589</ele>
        <time>2022-12-31 10:22:54</time>
      </trkpt>
      <trkpt lat="40.07267" lon="-3.7461">
        <ele>589.2</ele>
        <time>2022-12-31 10:22:55</time>
      </trkpt>
      <trkpt lat="40.07269" lon="-3.7461">
        <ele>589.4</ele>
        <time>2022-12-31 10:22:56</time>
      </trkpt>
      <trkpt lat="40.07271" lon="-3.74609">
        <ele>589.6</ele>
        <time>2022-12-31 10:22:57</time>
      </trkpt>
      <trkpt lat="40.07274" lon="-3.7461">
        <ele>590</ele>
        <time>2022-12-31 10:22:58</time>
      </trkpt>
      <trkpt lat="40.07276" lon="-3.74609">
        <ele>590.2</ele>
        <time>2022-12-31 10:22:59</time>
      </trkpt>
      <trkpt lat="40.07278" lon="-3.7461">
        <ele>590.4</ele>
        <time>2022-12-31 10:23:00</time>
      </trkpt>
      <trkpt lat="40.07281" lon="-3.7461">
        <ele>590.8</ele>
        <time>2022-12-31 10:23:01</time>
      </trkpt>
      <trkpt lat="40.07284" lon="-3.7461">
        <ele>591</ele>
        <time>2022-12-31 10:23:02</time>
      </trkpt>
      <trkpt lat="40.07286" lon="-3.7461">
        <ele>591.2</ele>
        <time>2022-12-31 10:23:03</time>
      </trkpt>
      <trkpt lat="40.07289" lon="-3.74611">
        <ele>591.6</ele>
        <time>2022-12-31 10:23:04</time>
      </trkpt>
      <trkpt lat="40.07291" lon="-3.74611">
        <ele>591.8</ele>
        <time>2022-12-31 10:23:05</time>
      </trkpt>
      <trkpt lat="40.07294" lon="-3.74611">
        <ele>591.8</ele>
        <time>2022-12-31 10:23:06</time>
      </trkpt>
      <trkpt lat="40.07296" lon="-3.74612">
        <ele>592</ele>
        <time>2022-12-31 10:23:07</time>
      </trkpt>
      <trkpt lat="40.07299" lon="-3.74612">
        <ele>592.2</ele>
        <time>2022-12-31 10:23:08</time>
      </trkpt>
      <trkpt lat="40.07301" lon="-3.74612">
        <ele>592.6</ele>
        <time>2022-12-31 10:23:09</time>
      </trkpt>
      <trkpt lat="40.07303" lon="-3.74612">
        <ele>592.8</ele>
        <time>2022-12-31 10:23:10</time>
      </trkpt>
      <trkpt lat="40.07305" lon="-3.74612">
        <ele>593.2</ele>
        <time>2022-12-31 10:23:11</time>
      </trkpt>
      <trkpt lat="40.07308" lon="-3.74611">
        <ele>593.2</ele>
        <time>2022-12-31 10:23:12</time>
      </trkpt>
      <trkpt lat="40.0731" lon="-3.74611">
        <ele>593.4</ele>
        <time>2022-12-31 10:23:13</time>
      </trkpt>
      <trkpt lat="40.07312" lon="-3.74611">
        <ele>593.6</ele>
        <time>2022-12-31 10:23:14</time>
      </trkpt>
      <trkpt lat="40.07315" lon="-3.74611">
        <ele>593.8</ele>
        <time>2022-12-31 10:23:15</time>
      </trkpt>
      <trkpt lat="40.07317" lon="-3.74611">
        <ele>593.8</ele>
        <time>2022-12-31 10:23:16</time>
      </trkpt>
      <trkpt lat="40.07319" lon="-3.74612">
        <ele>594.2</ele>
        <time>2022-12-31 10:23:17</time>
      </trkpt>
      <trkpt lat="40.07322" lon="-3.74612">
        <ele>594.4</ele>
        <time>2022-12-31 10:23:18</time>
      </trkpt>
      <trkpt lat="40.07324" lon="-3.74611">
        <ele>594.6</ele>
        <time>2022-12-31 10:23:19</time>
      </trkpt>
      <trkpt lat="40.07327" lon="-3.74611">
        <ele>594.8</ele>
        <time>2022-12-31 10:23:20</time>
      </trkpt>
      <trkpt lat="40.0733" lon="-3.7461">
        <ele>595.2</ele>
        <time>2022-12-31 10:23:21</time>
      </trkpt>
      <trkpt lat="40.07332" lon="-3.7461">
        <ele>595.4</ele>
        <time>2022-12-31 10:23:22</time>
      </trkpt>
      <trkpt lat="40.07334" lon="-3.7461">
        <ele>595.6</ele>
        <time>2022-12-31 10:23:23</time>
      </trkpt>
      <trkpt lat="40.07336" lon="-3.7461">
        <ele>595.8</ele>
        <time>2022-12-31 10:23:24</time>
      </trkpt>
      <trkpt lat="40.07339" lon="-3.74611">
        <ele>596.2</ele>
        <time>2022-12-31 10:23:25</time>
      </trkpt>
      <trkpt lat="40.07341" lon="-3.74611">
        <ele>596.2</ele>
        <time>2022-12-31 10:23:26</time>
      </trkpt>
      <trkpt lat="40.07344" lon="-3.74611">
        <ele>596.6</ele>
        <time>2022-12-31 10:23:27</time>
      </trkpt>
      <trkpt lat="40.07346" lon="-3.74611">
        <ele>596.8</ele>
        <time>2022-12-31 10:23:28</time>
      </trkpt>
      <trkpt lat="40.07349" lon="-3.74611">
        <ele>597</ele>
        <time>2022-12-31 10:23:29</time>
      </trkpt>
      <trkpt lat="40.07352" lon="-3.74611">
        <ele>597.2</ele>
        <time>2022-12-31 10:23:30</time>
      </trkpt>
      <trkpt lat="40.07355" lon="-3.74612">
        <ele>597.2</ele>
        <time>2022-12-31 10:23:31</time>
      </trkpt>
      <trkpt lat="40.07357" lon="-3.74612">
        <ele>597.6</ele>
        <time>2022-12-31 10:23:32</time>
      </trkpt>
      <trkpt lat="40.07359" lon="-3.74613">
        <ele>597.6</ele>
        <time>2022-12-31 10:23:33</time>
      </trkpt>
      <trkpt lat="40.07361" lon="-3.74613">
        <ele>597.8</ele>
        <time>2022-12-31 10:23:34</time>
      </trkpt>
      <trkpt lat="40.07364" lon="-3.74613">
        <ele>598.2</ele>
        <time>2022-12-31 10:23:35</time>
      </trkpt>
      <trkpt lat="40.07366" lon="-3.74611">
        <ele>598.2</ele>
        <time>2022-12-31 10:23:36</time>
      </trkpt>
      <trkpt lat="40.07368" lon="-3.74609">
        <ele>598.8</ele>
        <time>2022-12-31 10:23:37</time>
      </trkpt>
      <trkpt lat="40.07369" lon="-3.74607">
        <ele>598.8</ele>
        <time>2022-12-31 10:23:38</time>
      </trkpt>
      <trkpt lat="40.0737" lon="-3.74603">
        <ele>599.2</ele>
        <time>2022-12-31 10:23:39</time>
      </trkpt>
      <trkpt lat="40.07371" lon="-3.746">
        <ele>599.4</ele>
        <time>2022-12-31 10:23:40</time>
      </trkpt>
      <trkpt lat="40.07371" lon="-3.74596">
        <ele>599.6</ele>
        <time>2022-12-31 10:23:41</time>
      </trkpt>
      <trkpt lat="40.07371" lon="-3.74592">
        <ele>599.8</ele>
        <time>2022-12-31 10:23:42</time>
      </trkpt>
      <trkpt lat="40.07371" lon="-3.74588">
        <ele>600</ele>
        <time>2022-12-31 10:23:43</time>
      </trkpt>
      <trkpt lat="40.07371" lon="-3.74584">
        <ele>600.2</ele>
        <time>2022-12-31 10:23:44</time>
      </trkpt>
      <trkpt lat="40.07371" lon="-3.74579">
        <ele>600.4</ele>
        <time>2022-12-31 10:23:45</time>
      </trkpt>
      <trkpt lat="40.0737" lon="-3.74575">
        <ele>600.4</ele>
        <time>2022-12-31 10:23:46</time>
      </trkpt>
      <trkpt lat="40.0737" lon="-3.7457">
        <ele>600.6</ele>
        <time>2022-12-31 10:23:47</time>
      </trkpt>
      <trkpt lat="40.0737" lon="-3.74565">
        <ele>600.6</ele>
        <time>2022-12-31 10:23:48</time>
      </trkpt>
      <trkpt lat="40.0737" lon="-3.7456">
        <ele>600.8</ele>
        <time>2022-12-31 10:23:49</time>
      </trkpt>
      <trkpt lat="40.0737" lon="-3.74555">
        <ele>600.8</ele>
        <time>2022-12-31 10:23:50</time>
      </trkpt>
      <trkpt lat="40.07369" lon="-3.7455">
        <ele>600.8</ele>
        <time>2022-12-31 10:23:51</time>
      </trkpt>
      <trkpt lat="40.07368" lon="-3.74545">
        <ele>600.6</ele>
        <time>2022-12-31 10:23:52</time>
      </trkpt>
      <trkpt lat="40.07368" lon="-3.74541">
        <ele>600.6</ele>
        <time>2022-12-31 10:23:53</time>
      </trkpt>
      <trkpt lat="40.07368" lon="-3.74535">
        <ele>600.6</ele>
        <time>2022-12-31 10:23:54</time>
      </trkpt>
      <trkpt lat="40.07368" lon="-3.7453">
        <ele>600.8</ele>
        <time>2022-12-31 10:23:55</time>
      </trkpt>
      <trkpt lat="40.07368" lon="-3.74525">
        <ele>600.8</ele>
        <time>2022-12-31 10:23:56</time>
      </trkpt>
      <trkpt lat="40.07369" lon="-3.74519">
        <ele>600.8</ele>
        <time>2022-12-31 10:23:57</time>
      </trkpt>
      <trkpt lat="40.07369" lon="-3.74513">
        <ele>600.8</ele>
        <time>2022-12-31 10:23:58</time>
      </trkpt>
      <trkpt lat="40.07369" lon="-3.74508">
        <ele>600.6</ele>
        <time>2022-12-31 10:23:59</time>
      </trkpt>
      <trkpt lat="40.07369" lon="-3.74502">
        <ele>600.6</ele>
        <time>2022-12-31 10:24:00</time>
      </trkpt>
      <trkpt lat="40.07369" lon="-3.74497">
        <ele>600.8</ele>
        <time>2022-12-31 10:24:01</time>
      </trkpt>
      <trkpt lat="40.07369" lon="-3.74491">
        <ele>600.6</ele>
        <time>2022-12-31 10:24:02</time>
      </trkpt>
      <trkpt lat="40.07369" lon="-3.74485">
        <ele>600.6</ele>
        <time>2022-12-31 10:24:03</time>
      </trkpt>
      <trkpt lat="40.07369" lon="-3.74479">
        <ele>600.6</ele>
        <time>2022-12-31 10:24:04</time>
      </trkpt>
      <trkpt lat="40.07369" lon="-3.74474">
        <ele>600.4</ele>
        <time>2022-12-31 10:24:05</time>
      </trkpt>
      <trkpt lat="40.07369" lon="-3.74468">
        <ele>600.4</ele>
        <time>2022-12-31 10:24:06</time>
      </trkpt>
      <trkpt lat="40.0737" lon="-3.74462">
        <ele>600.4</ele>
        <time>2022-12-31 10:24:07</time>
      </trkpt>
      <trkpt lat="40.0737" lon="-3.74457">
        <ele>600.4</ele>
        <time>2022-12-31 10:24:08</time>
      </trkpt>
      <trkpt lat="40.0737" lon="-3.74451">
        <ele>600.4</ele>
        <time>2022-12-31 10:24:09</time>
      </trkpt>
      <trkpt lat="40.07371" lon="-3.74447">
        <ele>600.2</ele>
        <time>2022-12-31 10:24:10</time>
      </trkpt>
      <trkpt lat="40.07371" lon="-3.74443">
        <ele>600.2</ele>
        <time>2022-12-31 10:24:11</time>
      </trkpt>
      <trkpt lat="40.07372" lon="-3.7444">
        <ele>600.2</ele>
        <time>2022-12-31 10:24:12</time>
      </trkpt>
      <trkpt lat="40.07372" lon="-3.74437">
        <ele>600.2</ele>
        <time>2022-12-31 10:24:13</time>
      </trkpt>
      <trkpt lat="40.07371" lon="-3.74434">
        <ele>600.2</ele>
        <time>2022-12-31 10:24:14</time>
      </trkpt>
      <trkpt lat="40.07371" lon="-3.7443">
        <ele>600</ele>
        <time>2022-12-31 10:24:15</time>
      </trkpt>
      <trkpt lat="40.0737" lon="-3.74426">
        <ele>600.2</ele>
        <time>2022-12-31 10:24:16</time>
      </trkpt>
      <trkpt lat="40.07369" lon="-3.74421">
        <ele>600</ele>
        <time>2022-12-31 10:24:17</time>
      </trkpt>
      <trkpt lat="40.0737" lon="-3.74417">
        <ele>600</ele>
        <time>2022-12-31 10:24:18</time>
      </trkpt>
      <trkpt lat="40.07372" lon="-3.74412">
        <ele>600</ele>
        <time>2022-12-31 10:24:19</time>
      </trkpt>
      <trkpt lat="40.07374" lon="-3.74409">
        <ele>600</ele>
        <time>2022-12-31 10:24:20</time>
      </trkpt>
      <trkpt lat="40.07377" lon="-3.74406">
        <ele>600</ele>
        <time>2022-12-31 10:24:21</time>
      </trkpt>
      <trkpt lat="40.0738" lon="-3.74403">
        <ele>600</ele>
        <time>2022-12-31 10:24:22</time>
      </trkpt>
      <trkpt lat="40.07383" lon="-3.74402">
        <ele>599.8</ele>
        <time>2022-12-31 10:24:23</time>
      </trkpt>
      <trkpt lat="40.07386" lon="-3.74401">
        <ele>600</ele>
        <time>2022-12-31 10:24:24</time>
      </trkpt>
      <trkpt lat="40.07389" lon="-3.744">
        <ele>600</ele>
        <time>2022-12-31 10:24:25</time>
      </trkpt>
      <trkpt lat="40.07393" lon="-3.74399">
        <ele>600.2</ele>
        <time>2022-12-31 10:24:26</time>
      </trkpt>
      <trkpt lat="40.07396" lon="-3.74398">
        <ele>600.2</ele>
        <time>2022-12-31 10:24:27</time>
      </trkpt>
      <trkpt lat="40.074" lon="-3.74397">
        <ele>600.2</ele>
        <time>2022-12-31 10:24:28</time>
      </trkpt>
      <trkpt lat="40.07403" lon="-3.74396">
        <ele>600.4</ele>
        <time>2022-12-31 10:24:29</time>
      </trkpt>
      <trkpt lat="40.07407" lon="-3.74395">
        <ele>600.2</ele>
        <time>2022-12-31 10:24:30</time>
      </trkpt>
      <trkpt lat="40.0741" lon="-3.74394">
        <ele>600.4</ele>
        <time>2022-12-31 10:24:31</time>
      </trkpt>
      <trkpt lat="40.07413" lon="-3.74392">
        <ele>600.4</ele>
        <time>2022-12-31 10:24:32</time>
      </trkpt>
      <trkpt lat="40.07416" lon="-3.74391">
        <ele>600.4</ele>
        <time>2022-12-31 10:24:33</time>
      </trkpt>
      <trkpt lat="40.0742" lon="-3.74389">
        <ele>600.4</ele>
        <time>2022-12-31 10:24:34</time>
      </trkpt>
      <trkpt lat="40.07424" lon="-3.74388">
        <ele>600.8</ele>
        <time>2022-12-31 10:24:35</time>
      </trkpt>
      <trkpt lat="40.07429" lon="-3.74387">
        <ele>601.4</ele>
        <time>2022-12-31 10:24:36</time>
      </trkpt>
      <trkpt lat="40.07433" lon="-3.74386">
        <ele>601.6</ele>
        <time>2022-12-31 10:24:37</time>
      </trkpt>
      <trkpt lat="40.07438" lon="-3.74386">
        <ele>601.8</ele>
        <time>2022-12-31 10:24:38</time>
      </trkpt>
      <trkpt lat="40.07442" lon="-3.74385">
        <ele>602</ele>
        <time>2022-12-31 10:24:39</time>
      </trkpt>
      <trkpt lat="40.07447" lon="-3.74384">
        <ele>602.6</ele>
        <time>2022-12-31 10:24:40</time>
      </trkpt>
      <trkpt lat="40.07451" lon="-3.74383">
        <ele>603</ele>
        <time>2022-12-31 10:24:41</time>
      </trkpt>
      <trkpt lat="40.07454" lon="-3.74382">
        <ele>603</ele>
        <time>2022-12-31 10:24:42</time>
      </trkpt>
      <trkpt lat="40.07457" lon="-3.74381">
        <ele>603.2</ele>
        <time>2022-12-31 10:24:43</time>
      </trkpt>
      <trkpt lat="40.0746" lon="-3.7438">
        <ele>603.4</ele>
        <time>2022-12-31 10:24:44</time>
      </trkpt>
      <trkpt lat="40.07464" lon="-3.74378">
        <ele>603.6</ele>
        <time>2022-12-31 10:24:45</time>
      </trkpt>
      <trkpt lat="40.07469" lon="-3.74378">
        <ele>603.6</ele>
        <time>2022-12-31 10:24:46</time>
      </trkpt>
      <trkpt lat="40.07473" lon="-3.74377">
        <ele>603.6</ele>
        <time>2022-12-31 10:24:47</time>
      </trkpt>
      <trkpt lat="40.07478" lon="-3.74377">
        <ele>603.4</ele>
        <time>2022-12-31 10:24:48</time>
      </trkpt>
      <trkpt lat="40.07482" lon="-3.74376">
        <ele>603.6</ele>
        <time>2022-12-31 10:24:49</time>
      </trkpt>
      <trkpt lat="40.07487" lon="-3.74375">
        <ele>603.6</ele>
        <time>2022-12-31 10:24:50</time>
      </trkpt>
      <trkpt lat="40.07491" lon="-3.74374">
        <ele>603.6</ele>
        <time>2022-12-31 10:24:51</time>
      </trkpt>
      <trkpt lat="40.07496" lon="-3.74373">
        <ele>603.6</ele>
        <time>2022-12-31 10:24:52</time>
      </trkpt>
      <trkpt lat="40.07501" lon="-3.74372">
        <ele>603.8</ele>
        <time>2022-12-31 10:24:53</time>
      </trkpt>
      <trkpt lat="40.07506" lon="-3.74371">
        <ele>603.8</ele>
        <time>2022-12-31 10:24:54</time>
      </trkpt>
      <trkpt lat="40.0751" lon="-3.7437">
        <ele>604</ele>
        <time>2022-12-31 10:24:55</time>
      </trkpt>
      <trkpt lat="40.07515" lon="-3.74369">
        <ele>604</ele>
        <time>2022-12-31 10:24:56</time>
      </trkpt>
      <trkpt lat="40.07519" lon="-3.74369">
        <ele>603.8</ele>
        <time>2022-12-31 10:24:57</time>
      </trkpt>
      <trkpt lat="40.07524" lon="-3.74369">
        <ele>603.8</ele>
        <time>2022-12-31 10:24:58</time>
      </trkpt>
      <trkpt lat="40.07529" lon="-3.74369">
        <ele>603.8</ele>
        <time>2022-12-31 10:24:59</time>
      </trkpt>
      <trkpt lat="40.07533" lon="-3.74369">
        <ele>604</ele>
        <time>2022-12-31 10:25:00</time>
      </trkpt>
      <trkpt lat="40.07538" lon="-3.7437">
        <ele>604</ele>
        <time>2022-12-31 10:25:01</time>
      </trkpt>
      <trkpt lat="40.07543" lon="-3.7437">
        <ele>604.2</ele>
        <time>2022-12-31 10:25:02</time>
      </trkpt>
      <trkpt lat="40.07548" lon="-3.74371">
        <ele>604.2</ele>
        <time>2022-12-31 10:25:03</time>
      </trkpt>
      <trkpt lat="40.07552" lon="-3.74372">
        <ele>604.2</ele>
        <time>2022-12-31 10:25:04</time>
      </trkpt>
      <trkpt lat="40.07557" lon="-3.74374">
        <ele>604.2</ele>
        <time>2022-12-31 10:25:05</time>
      </trkpt>
      <trkpt lat="40.07562" lon="-3.74376">
        <ele>604.6</ele>
        <time>2022-12-31 10:25:06</time>
      </trkpt>
      <trkpt lat="40.07567" lon="-3.74379">
        <ele>604.6</ele>
        <time>2022-12-31 10:25:07</time>
      </trkpt>
      <trkpt lat="40.07572" lon="-3.7438">
        <ele>604.8</ele>
        <time>2022-12-31 10:25:08</time>
      </trkpt>
      <trkpt lat="40.07577" lon="-3.74382">
        <ele>605</ele>
        <time>2022-12-31 10:25:09</time>
      </trkpt>
      <trkpt lat="40.07582" lon="-3.74382">
        <ele>605</ele>
        <time>2022-12-31 10:25:10</time>
      </trkpt>
      <trkpt lat="40.07588" lon="-3.74383">
        <ele>605.2</ele>
        <time>2022-12-31 10:25:11</time>
      </trkpt>
      <trkpt lat="40.07593" lon="-3.74384">
        <ele>605</ele>
        <time>2022-12-31 10:25:12</time>
      </trkpt>
      <trkpt lat="40.07599" lon="-3.74386">
        <ele>605</ele>
        <time>2022-12-31 10:25:13</time>
      </trkpt>
      <trkpt lat="40.07604" lon="-3.74388">
        <ele>605</ele>
        <time>2022-12-31 10:25:14</time>
      </trkpt>
      <trkpt lat="40.07609" lon="-3.7439">
        <ele>605.2</ele>
        <time>2022-12-31 10:25:15</time>
      </trkpt>
      <trkpt lat="40.07615" lon="-3.74393">
        <ele>605.2</ele>
        <time>2022-12-31 10:25:16</time>
      </trkpt>
      <trkpt lat="40.0762" lon="-3.74397">
        <ele>605.2</ele>
        <time>2022-12-31 10:25:17</time>
      </trkpt>
      <trkpt lat="40.07626" lon="-3.744">
        <ele>605.4</ele>
        <time>2022-12-31 10:25:18</time>
      </trkpt>
      <trkpt lat="40.07632" lon="-3.74404">
        <ele>605.2</ele>
        <time>2022-12-31 10:25:19</time>
      </trkpt>
      <trkpt lat="40.07638" lon="-3.74407">
        <ele>605.4</ele>
        <time>2022-12-31 10:25:20</time>
      </trkpt>
      <trkpt lat="40.07644" lon="-3.74411">
        <ele>605.2</ele>
        <time>2022-12-31 10:25:21</time>
      </trkpt>
      <trkpt lat="40.07651" lon="-3.74414">
        <ele>605.4</ele>
        <time>2022-12-31 10:25:22</time>
      </trkpt>
      <trkpt lat="40.07658" lon="-3.74418">
        <ele>605.4</ele>
        <time>2022-12-31 10:25:23</time>
      </trkpt>
      <trkpt lat="40.07665" lon="-3.74422">
        <ele>605.4</ele>
        <time>2022-12-31 10:25:24</time>
      </trkpt>
      <trkpt lat="40.07672" lon="-3.74425">
        <ele>605.4</ele>
        <time>2022-12-31 10:25:25</time>
      </trkpt>
      <trkpt lat="40.07679" lon="-3.74429">
        <ele>605.2</ele>
        <time>2022-12-31 10:25:26</time>
      </trkpt>
      <trkpt lat="40.07687" lon="-3.74431">
        <ele>605.2</ele>
        <time>2022-12-31 10:25:27</time>
      </trkpt>
      <trkpt lat="40.07694" lon="-3.74434">
        <ele>604.6</ele>
        <time>2022-12-31 10:25:28</time>
      </trkpt>
      <trkpt lat="40.07702" lon="-3.74435">
        <ele>604</ele>
        <time>2022-12-31 10:25:29</time>
      </trkpt>
      <trkpt lat="40.0771" lon="-3.74436">
        <ele>603.2</ele>
        <time>2022-12-31 10:25:30</time>
      </trkpt>
      <trkpt lat="40.07718" lon="-3.74435">
        <ele>602.4</ele>
        <time>2022-12-31 10:25:31</time>
      </trkpt>
      <trkpt lat="40.07727" lon="-3.74434">
        <ele>601.8</ele>
        <time>2022-12-31 10:25:32</time>
      </trkpt>
      <trkpt lat="40.07735" lon="-3.74431">
        <ele>601.2</ele>
        <time>2022-12-31 10:25:33</time>
      </trkpt>
      <trkpt lat="40.07743" lon="-3.74429">
        <ele>601</ele>
        <time>2022-12-31 10:25:34</time>
      </trkpt>
      <trkpt lat="40.07751" lon="-3.74427">
        <ele>600.4</ele>
        <time>2022-12-31 10:25:35</time>
      </trkpt>
      <trkpt lat="40.0776" lon="-3.74425">
        <ele>600</ele>
        <time>2022-12-31 10:25:36</time>
      </trkpt>
      <trkpt lat="40.07768" lon="-3.74426">
        <ele>600</ele>
        <time>2022-12-31 10:25:37</time>
      </trkpt>
      <trkpt lat="40.07776" lon="-3.74427">
        <ele>599.6</ele>
        <time>2022-12-31 10:25:38</time>
      </trkpt>
      <trkpt lat="40.07783" lon="-3.7443">
        <ele>599</ele>
        <time>2022-12-31 10:25:39</time>
      </trkpt>
      <trkpt lat="40.07791" lon="-3.74435">
        <ele>598.2</ele>
        <time>2022-12-31 10:25:40</time>
      </trkpt>
      <trkpt lat="40.07798" lon="-3.74439">
        <ele>597.4</ele>
        <time>2022-12-31 10:25:41</time>
      </trkpt>
      <trkpt lat="40.07805" lon="-3.74445">
        <ele>596.8</ele>
        <time>2022-12-31 10:25:42</time>
      </trkpt>
      <trkpt lat="40.07812" lon="-3.74449">
        <ele>596.2</ele>
        <time>2022-12-31 10:25:43</time>
      </trkpt>
      <trkpt lat="40.0782" lon="-3.74452">
        <ele>595.6</ele>
        <time>2022-12-31 10:25:44</time>
      </trkpt>
      <trkpt lat="40.07827" lon="-3.74453">
        <ele>595.4</ele>
        <time>2022-12-31 10:25:45</time>
      </trkpt>
      <trkpt lat="40.07834" lon="-3.74453">
        <ele>595.4</ele>
        <time>2022-12-31 10:25:46</time>
      </trkpt>
      <trkpt lat="40.07841" lon="-3.74452">
        <ele>595.2</ele>
        <time>2022-12-31 10:25:47</time>
      </trkpt>
      <trkpt lat="40.07848" lon="-3.7445">
        <ele>595.4</ele>
        <time>2022-12-31 10:25:48</time>
      </trkpt>
      <trkpt lat="40.07855" lon="-3.74448">
        <ele>595.2</ele>
        <time>2022-12-31 10:25:49</time>
      </trkpt>
      <trkpt lat="40.07862" lon="-3.74446">
        <ele>595.2</ele>
        <time>2022-12-31 10:25:50</time>
      </trkpt>
      <trkpt lat="40.07868" lon="-3.74445">
        <ele>595.4</ele>
        <time>2022-12-31 10:25:51</time>
      </trkpt>
      <trkpt lat="40.07874" lon="-3.74442">
        <ele>595.2</ele>
        <time>2022-12-31 10:25:52</time>
      </trkpt>
      <trkpt lat="40.0788" lon="-3.74439">
        <ele>595.2</ele>
        <time>2022-12-31 10:25:53</time>
      </trkpt>
      <trkpt lat="40.07885" lon="-3.74435">
        <ele>595.4</ele>
        <time>2022-12-31 10:25:54</time>
      </trkpt>
      <trkpt lat="40.07889" lon="-3.74431">
        <ele>595.4</ele>
        <time>2022-12-31 10:25:55</time>
      </trkpt>
      <trkpt lat="40.07893" lon="-3.74427">
        <ele>595.4</ele>
        <time>2022-12-31 10:25:56</time>
      </trkpt>
      <trkpt lat="40.07896" lon="-3.74422">
        <ele>595.4</ele>
        <time>2022-12-31 10:25:57</time>
      </trkpt>
      <trkpt lat="40.07899" lon="-3.74417">
        <ele>595.6</ele>
        <time>2022-12-31 10:25:58</time>
      </trkpt>
      <trkpt lat="40.07902" lon="-3.74411">
        <ele>595.8</ele>
        <time>2022-12-31 10:25:59</time>
      </trkpt>
      <trkpt lat="40.07904" lon="-3.74406">
        <ele>596.2</ele>
        <time>2022-12-31 10:26:00</time>
      </trkpt>
      <trkpt lat="40.07906" lon="-3.74402">
        <ele>596.6</ele>
        <time>2022-12-31 10:26:01</time>
      </trkpt>
      <trkpt lat="40.07908" lon="-3.74397">
        <ele>597</ele>
        <time>2022-12-31 10:26:02</time>
      </trkpt>
      <trkpt lat="40.0791" lon="-3.74393">
        <ele>597.4</ele>
        <time>2022-12-31 10:26:03</time>
      </trkpt>
      <trkpt lat="40.07912" lon="-3.74389">
        <ele>597.6</ele>
        <time>2022-12-31 10:26:04</time>
      </trkpt>
      <trkpt lat="40.07914" lon="-3.74385">
        <ele>598</ele>
        <time>2022-12-31 10:26:05</time>
      </trkpt>
      <trkpt lat="40.07917" lon="-3.74381">
        <ele>598.2</ele>
        <time>2022-12-31 10:26:06</time>
      </trkpt>
      <trkpt lat="40.07919" lon="-3.74377">
        <ele>598.4</ele>
        <time>2022-12-31 10:26:07</time>
      </trkpt>
      <trkpt lat="40.07921" lon="-3.74374">
        <ele>598.8</ele>
        <time>2022-12-31 10:26:08</time>
      </trkpt>
      <trkpt lat="40.07924" lon="-3.74371">
        <ele>599.2</ele>
        <time>2022-12-31 10:26:09</time>
      </trkpt>
      <trkpt lat="40.07927" lon="-3.74368">
        <ele>599.8</ele>
        <time>2022-12-31 10:26:10</time>
      </trkpt>
      <trkpt lat="40.0793" lon="-3.74366">
        <ele>600.4</ele>
        <time>2022-12-31 10:26:11</time>
      </trkpt>
      <trkpt lat="40.07933" lon="-3.74363">
        <ele>600.8</ele>
        <time>2022-12-31 10:26:12</time>
      </trkpt>
      <trkpt lat="40.07936" lon="-3.7436">
        <ele>601.4</ele>
        <time>2022-12-31 10:26:13</time>
      </trkpt>
      <trkpt lat="40.07939" lon="-3.74358">
        <ele>601.6</ele>
        <time>2022-12-31 10:26:14</time>
      </trkpt>
      <trkpt lat="40.07942" lon="-3.74355">
        <ele>602.2</ele>
        <time>2022-12-31 10:26:15</time>
      </trkpt>
      <trkpt lat="40.07945" lon="-3.74352">
        <ele>602.6</ele>
        <time>2022-12-31 10:26:16</time>
      </trkpt>
      <trkpt lat="40.07948" lon="-3.74349">
        <ele>602.6</ele>
        <time>2022-12-31 10:26:17</time>
      </trkpt>
      <trkpt lat="40.0795" lon="-3.74346">
        <ele>603</ele>
        <time>2022-12-31 10:26:18</time>
      </trkpt>
      <trkpt lat="40.07953" lon="-3.74343">
        <ele>603.2</ele>
        <time>2022-12-31 10:26:19</time>
      </trkpt>
      <trkpt lat="40.07956" lon="-3.7434">
        <ele>603.6</ele>
        <time>2022-12-31 10:26:20</time>
      </trkpt>
      <trkpt lat="40.07959" lon="-3.74337">
        <ele>603.8</ele>
        <time>2022-12-31 10:26:21</time>
      </trkpt>
      <trkpt lat="40.07962" lon="-3.74334">
        <ele>604.2</ele>
        <time>2022-12-31 10:26:22</time>
      </trkpt>
      <trkpt lat="40.07965" lon="-3.7433">
        <ele>604.6</ele>
        <time>2022-12-31 10:26:23</time>
      </trkpt>
      <trkpt lat="40.07968" lon="-3.74327">
        <ele>604.8</ele>
        <time>2022-12-31 10:26:24</time>
      </trkpt>
      <trkpt lat="40.07971" lon="-3.74324">
        <ele>605</ele>
        <time>2022-12-31 10:26:25</time>
      </trkpt>
      <trkpt lat="40.07974" lon="-3.74321">
        <ele>605.2</ele>
        <time>2022-12-31 10:26:26</time>
      </trkpt>
      <trkpt lat="40.07977" lon="-3.74318">
        <ele>605.4</ele>
        <time>2022-12-31 10:26:27</time>
      </trkpt>
      <trkpt lat="40.0798" lon="-3.74315">
        <ele>605.8</ele>
        <time>2022-12-31 10:26:28</time>
      </trkpt>
      <trkpt lat="40.07982" lon="-3.74311">
        <ele>606</ele>
        <time>2022-12-31 10:26:29</time>
      </trkpt>
      <trkpt lat="40.07984" lon="-3.74306">
        <ele>606.2</ele>
        <time>2022-12-31 10:26:30</time>
      </trkpt>
      <trkpt lat="40.07985" lon="-3.74302">
        <ele>606.8</ele>
        <time>2022-12-31 10:26:31</time>
      </trkpt>
      <trkpt lat="40.07987" lon="-3.74297">
        <ele>607</ele>
        <time>2022-12-31 10:26:32</time>
      </trkpt>
      <trkpt lat="40.07988" lon="-3.74292">
        <ele>607.2</ele>
        <time>2022-12-31 10:26:33</time>
      </trkpt>
      <trkpt lat="40.0799" lon="-3.74287">
        <ele>607.4</ele>
        <time>2022-12-31 10:26:34</time>
      </trkpt>
      <trkpt lat="40.07992" lon="-3.74283">
        <ele>607.4</ele>
        <time>2022-12-31 10:26:35</time>
      </trkpt>
      <trkpt lat="40.07993" lon="-3.74278">
        <ele>608</ele>
        <time>2022-12-31 10:26:36</time>
      </trkpt>
      <trkpt lat="40.07996" lon="-3.74274">
        <ele>608.2</ele>
        <time>2022-12-31 10:26:37</time>
      </trkpt>
      <trkpt lat="40.07999" lon="-3.74269">
        <ele>608.2</ele>
        <time>2022-12-31 10:26:38</time>
      </trkpt>
      <trkpt lat="40.08001" lon="-3.74266">
        <ele>608.4</ele>
        <time>2022-12-31 10:26:39</time>
      </trkpt>
      <trkpt lat="40.08004" lon="-3.74262">
        <ele>608.6</ele>
        <time>2022-12-31 10:26:40</time>
      </trkpt>
      <trkpt lat="40.08007" lon="-3.74259">
        <ele>609</ele>
        <time>2022-12-31 10:26:41</time>
      </trkpt>
      <trkpt lat="40.0801" lon="-3.74257">
        <ele>609.2</ele>
        <time>2022-12-31 10:26:42</time>
      </trkpt>
      <trkpt lat="40.08013" lon="-3.74255">
        <ele>609.4</ele>
        <time>2022-12-31 10:26:43</time>
      </trkpt>
      <trkpt lat="40.08017" lon="-3.74253">
        <ele>609.4</ele>
        <time>2022-12-31 10:26:44</time>
      </trkpt>
      <trkpt lat="40.0802" lon="-3.74252">
        <ele>609.6</ele>
        <time>2022-12-31 10:26:45</time>
      </trkpt>
      <trkpt lat="40.08024" lon="-3.7425">
        <ele>609.8</ele>
        <time>2022-12-31 10:26:46</time>
      </trkpt>
      <trkpt lat="40.08028" lon="-3.7425">
        <ele>609.8</ele>
        <time>2022-12-31 10:26:47</time>
      </trkpt>
      <trkpt lat="40.08032" lon="-3.74249">
        <ele>610</ele>
        <time>2022-12-31 10:26:48</time>
      </trkpt>
      <trkpt lat="40.08036" lon="-3.74249">
        <ele>610</ele>
        <time>2022-12-31 10:26:49</time>
      </trkpt>
      <trkpt lat="40.08039" lon="-3.74249">
        <ele>610.4</ele>
        <time>2022-12-31 10:26:50</time>
      </trkpt>
      <trkpt lat="40.08043" lon="-3.74249">
        <ele>610.6</ele>
        <time>2022-12-31 10:26:51</time>
      </trkpt>
      <trkpt lat="40.08047" lon="-3.74249">
        <ele>610.6</ele>
        <time>2022-12-31 10:26:52</time>
      </trkpt>
      <trkpt lat="40.08051" lon="-3.74249">
        <ele>611</ele>
        <time>2022-12-31 10:26:53</time>
      </trkpt>
      <trkpt lat="40.08055" lon="-3.7425">
        <ele>611</ele>
        <time>2022-12-31 10:26:54</time>
      </trkpt>
      <trkpt lat="40.08059" lon="-3.74251">
        <ele>611</ele>
        <time>2022-12-31 10:26:55</time>
      </trkpt>
      <trkpt lat="40.08063" lon="-3.74252">
        <ele>611.2</ele>
        <time>2022-12-31 10:26:56</time>
      </trkpt>
      <trkpt lat="40.08067" lon="-3.74252">
        <ele>611.4</ele>
        <time>2022-12-31 10:26:57</time>
      </trkpt>
      <trkpt lat="40.08071" lon="-3.74253">
        <ele>611.4</ele>
        <time>2022-12-31 10:26:58</time>
      </trkpt>
      <trkpt lat="40.08075" lon="-3.74253">
        <ele>611.6</ele>
        <time>2022-12-31 10:26:59</time>
      </trkpt>
      <trkpt lat="40.08079" lon="-3.74254">
        <ele>611.8</ele>
        <time>2022-12-31 10:27:00</time>
      </trkpt>
      <trkpt lat="40.08083" lon="-3.74254">
        <ele>612</ele>
        <time>2022-12-31 10:27:01</time>
      </trkpt>
      <trkpt lat="40.08087" lon="-3.74255">
        <ele>612.2</ele>
        <time>2022-12-31 10:27:02</time>
      </trkpt>
      <trkpt lat="40.08091" lon="-3.74255">
        <ele>612.2</ele>
        <time>2022-12-31 10:27:03</time>
      </trkpt>
      <trkpt lat="40.08095" lon="-3.74256">
        <ele>612.6</ele>
        <time>2022-12-31 10:27:04</time>
      </trkpt>
      <trkpt lat="40.08099" lon="-3.74256">
        <ele>613</ele>
        <time>2022-12-31 10:27:05</time>
      </trkpt>
      <trkpt lat="40.08103" lon="-3.74256">
        <ele>613</ele>
        <time>2022-12-31 10:27:06</time>
      </trkpt>
      <trkpt lat="40.08107" lon="-3.74255">
        <ele>613</ele>
        <time>2022-12-31 10:27:07</time>
      </trkpt>
      <trkpt lat="40.08112" lon="-3.74254">
        <ele>613.2</ele>
        <time>2022-12-31 10:27:08</time>
      </trkpt>
      <trkpt lat="40.08116" lon="-3.74253">
        <ele>613.2</ele>
        <time>2022-12-31 10:27:09</time>
      </trkpt>
      <trkpt lat="40.0812" lon="-3.74252">
        <ele>613.4</ele>
        <time>2022-12-31 10:27:10</time>
      </trkpt>
      <trkpt lat="40.08125" lon="-3.7425">
        <ele>613.2</ele>
        <time>2022-12-31 10:27:11</time>
      </trkpt>
      <trkpt lat="40.08129" lon="-3.74248">
        <ele>613.2</ele>
        <time>2022-12-31 10:27:12</time>
      </trkpt>
      <trkpt lat="40.08134" lon="-3.74245">
        <ele>613.4</ele>
        <time>2022-12-31 10:27:13</time>
      </trkpt>
      <trkpt lat="40.08139" lon="-3.74243">
        <ele>613.2</ele>
        <time>2022-12-31 10:27:14</time>
      </trkpt>
      <trkpt lat="40.08143" lon="-3.7424">
        <ele>613.4</ele>
        <time>2022-12-31 10:27:15</time>
      </trkpt>
      <trkpt lat="40.08148" lon="-3.74237">
        <ele>613.2</ele>
        <time>2022-12-31 10:27:16</time>
      </trkpt>
      <trkpt lat="40.08153" lon="-3.74235">
        <ele>613.2</ele>
        <time>2022-12-31 10:27:17</time>
      </trkpt>
      <trkpt lat="40.08158" lon="-3.74232">
        <ele>613.4</ele>
        <time>2022-12-31 10:27:18</time>
      </trkpt>
      <trkpt lat="40.08163" lon="-3.7423">
        <ele>613.4</ele>
        <time>2022-12-31 10:27:19</time>
      </trkpt>
      <trkpt lat="40.08169" lon="-3.74227">
        <ele>613.2</ele>
        <time>2022-12-31 10:27:20</time>
      </trkpt>
      <trkpt lat="40.08175" lon="-3.74225">
        <ele>613.2</ele>
        <time>2022-12-31 10:27:21</time>
      </trkpt>
      <trkpt lat="40.0818" lon="-3.74222">
        <ele>613.2</ele>
        <time>2022-12-31 10:27:22</time>
      </trkpt>
      <trkpt lat="40.08186" lon="-3.74219">
        <ele>613</ele>
        <time>2022-12-31 10:27:23</time>
      </trkpt>
      <trkpt lat="40.08192" lon="-3.74217">
        <ele>612.8</ele>
        <time>2022-12-31 10:27:24</time>
      </trkpt>
      <trkpt lat="40.08198" lon="-3.74214">
        <ele>612.4</ele>
        <time>2022-12-31 10:27:25</time>
      </trkpt>
      <trkpt lat="40.08204" lon="-3.74212">
        <ele>612.4</ele>
        <time>2022-12-31 10:27:26</time>
      </trkpt>
      <trkpt lat="40.08211" lon="-3.7421">
        <ele>612</ele>
        <time>2022-12-31 10:27:27</time>
      </trkpt>
      <trkpt lat="40.08217" lon="-3.74208">
        <ele>611.8</ele>
        <time>2022-12-31 10:27:28</time>
      </trkpt>
      <trkpt lat="40.08224" lon="-3.74206">
        <ele>611.6</ele>
        <time>2022-12-31 10:27:29</time>
      </trkpt>
      <trkpt lat="40.08231" lon="-3.74204">
        <ele>611.2</ele>
        <time>2022-12-31 10:27:30</time>
      </trkpt>
      <trkpt lat="40.08238" lon="-3.74202">
        <ele>610.8</ele>
        <time>2022-12-31 10:27:31</time>
      </trkpt>
      <trkpt lat="40.08244" lon="-3.74199">
        <ele>610.6</ele>
        <time>2022-12-31 10:27:32</time>
      </trkpt>
      <trkpt lat="40.08251" lon="-3.74197">
        <ele>610.4</ele>
        <time>2022-12-31 10:27:33</time>
      </trkpt>
      <trkpt lat="40.08258" lon="-3.74194">
        <ele>609.8</ele>
        <time>2022-12-31 10:27:34</time>
      </trkpt>
      <trkpt lat="40.08265" lon="-3.74191">
        <ele>609.6</ele>
        <time>2022-12-31 10:27:35</time>
      </trkpt>
      <trkpt lat="40.08272" lon="-3.74188">
        <ele>609.2</ele>
        <time>2022-12-31 10:27:36</time>
      </trkpt>
      <trkpt lat="40.08278" lon="-3.74185">
        <ele>608.6</ele>
        <time>2022-12-31 10:27:37</time>
      </trkpt>
      <trkpt lat="40.08284" lon="-3.74181">
        <ele>608</ele>
        <time>2022-12-31 10:27:38</time>
      </trkpt>
      <trkpt lat="40.0829" lon="-3.74177">
        <ele>608</ele>
        <time>2022-12-31 10:27:39</time>
      </trkpt>
      <trkpt lat="40.08296" lon="-3.74173">
        <ele>607.6</ele>
        <time>2022-12-31 10:27:40</time>
      </trkpt>
      <trkpt lat="40.08301" lon="-3.74169">
        <ele>607</ele>
        <time>2022-12-31 10:27:41</time>
      </trkpt>
      <trkpt lat="40.08306" lon="-3.74164">
        <ele>606.8</ele>
        <time>2022-12-31 10:27:42</time>
      </trkpt>
      <trkpt lat="40.0831" lon="-3.7416">
        <ele>606.6</ele>
        <time>2022-12-31 10:27:43</time>
      </trkpt>
      <trkpt lat="40.08315" lon="-3.74155">
        <ele>606.4</ele>
        <time>2022-12-31 10:27:44</time>
      </trkpt>
      <trkpt lat="40.08319" lon="-3.74151">
        <ele>606.2</ele>
        <time>2022-12-31 10:27:45</time>
      </trkpt>
      <trkpt lat="40.08323" lon="-3.74146">
        <ele>606</ele>
        <time>2022-12-31 10:27:46</time>
      </trkpt>
      <trkpt lat="40.08327" lon="-3.74141">
        <ele>606</ele>
        <time>2022-12-31 10:27:47</time>
      </trkpt>
      <trkpt lat="40.08331" lon="-3.74136">
        <ele>605.8</ele>
        <time>2022-12-31 10:27:48</time>
      </trkpt>
      <trkpt lat="40.08335" lon="-3.7413">
        <ele>605.6</ele>
        <time>2022-12-31 10:27:49</time>
      </trkpt>
      <trkpt lat="40.08339" lon="-3.74124">
        <ele>605.6</ele>
        <time>2022-12-31 10:27:50</time>
      </trkpt>
      <trkpt lat="40.08343" lon="-3.74118">
        <ele>605.4</ele>
        <time>2022-12-31 10:27:51</time>
      </trkpt>
      <trkpt lat="40.08347" lon="-3.74111">
        <ele>605.6</ele>
        <time>2022-12-31 10:27:52</time>
      </trkpt>
      <trkpt lat="40.08351" lon="-3.74105">
        <ele>605.4</ele>
        <time>2022-12-31 10:27:53</time>
      </trkpt>
      <trkpt lat="40.08356" lon="-3.74099">
        <ele>605.2</ele>
        <time>2022-12-31 10:27:54</time>
      </trkpt>
      <trkpt lat="40.0836" lon="-3.74093">
        <ele>605.2</ele>
        <time>2022-12-31 10:27:55</time>
      </trkpt>
      <trkpt lat="40.08364" lon="-3.74087">
        <ele>605</ele>
        <time>2022-12-31 10:27:56</time>
      </trkpt>
      <trkpt lat="40.08368" lon="-3.74082">
        <ele>605</ele>
        <time>2022-12-31 10:27:57</time>
      </trkpt>
      <trkpt lat="40.08373" lon="-3.74077">
        <ele>605</ele>
        <time>2022-12-31 10:27:58</time>
      </trkpt>
      <trkpt lat="40.08377" lon="-3.74073">
        <ele>604.8</ele>
        <time>2022-12-31 10:27:59</time>
      </trkpt>
      <trkpt lat="40.08381" lon="-3.7407">
        <ele>604.8</ele>
        <time>2022-12-31 10:28:00</time>
      </trkpt>
      <trkpt lat="40.08385" lon="-3.74067">
        <ele>604.6</ele>
        <time>2022-12-31 10:28:01</time>
      </trkpt>
      <trkpt lat="40.08389" lon="-3.74063">
        <ele>604.6</ele>
        <time>2022-12-31 10:28:02</time>
      </trkpt>
      <trkpt lat="40.08393" lon="-3.74059">
        <ele>604.6</ele>
        <time>2022-12-31 10:28:03</time>
      </trkpt>
      <trkpt lat="40.08397" lon="-3.74055">
        <ele>604.6</ele>
        <time>2022-12-31 10:28:04</time>
      </trkpt>
      <trkpt lat="40.08401" lon="-3.74051">
        <ele>604.6</ele>
        <time>2022-12-31 10:28:05</time>
      </trkpt>
      <trkpt lat="40.08406" lon="-3.74046">
        <ele>604.6</ele>
        <time>2022-12-31 10:28:06</time>
      </trkpt>
      <trkpt lat="40.0841" lon="-3.74042">
        <ele>604.6</ele>
        <time>2022-12-31 10:28:07</time>
      </trkpt>
      <trkpt lat="40.08414" lon="-3.74038">
        <ele>604.6</ele>
        <time>2022-12-31 10:28:08</time>
      </trkpt>
      <trkpt lat="40.08418" lon="-3.74033">
        <ele>604.6</ele>
        <time>2022-12-31 10:28:09</time>
      </trkpt>
      <trkpt lat="40.08423" lon="-3.74028">
        <ele>604.6</ele>
        <time>2022-12-31 10:28:10</time>
      </trkpt>
      <trkpt lat="40.08428" lon="-3.74024">
        <ele>604.6</ele>
        <time>2022-12-31 10:28:11</time>
      </trkpt>
      <trkpt lat="40.08433" lon="-3.7402">
        <ele>604.4</ele>
        <time>2022-12-31 10:28:12</time>
      </trkpt>
      <trkpt lat="40.08438" lon="-3.74015">
        <ele>604.8</ele>
        <time>2022-12-31 10:28:13</time>
      </trkpt>
      <trkpt lat="40.08442" lon="-3.74011">
        <ele>604.8</ele>
        <time>2022-12-31 10:28:14</time>
      </trkpt>
      <trkpt lat="40.08446" lon="-3.74007">
        <ele>605</ele>
        <time>2022-12-31 10:28:15</time>
      </trkpt>
      <trkpt lat="40.0845" lon="-3.74004">
        <ele>605</ele>
        <time>2022-12-31 10:28:16</time>
      </trkpt>
      <trkpt lat="40.08454" lon="-3.74">
        <ele>605</ele>
        <time>2022-12-31 10:28:17</time>
      </trkpt>
      <trkpt lat="40.08458" lon="-3.73997">
        <ele>604.8</ele>
        <time>2022-12-31 10:28:18</time>
      </trkpt>
      <trkpt lat="40.08462" lon="-3.73994">
        <ele>605</ele>
        <time>2022-12-31 10:28:19</time>
      </trkpt>
      <trkpt lat="40.08466" lon="-3.73992">
        <ele>605</ele>
        <time>2022-12-31 10:28:20</time>
      </trkpt>
      <trkpt lat="40.0847" lon="-3.7399">
        <ele>605</ele>
        <time>2022-12-31 10:28:21</time>
      </trkpt>
      <trkpt lat="40.08474" lon="-3.73988">
        <ele>605.2</ele>
        <time>2022-12-31 10:28:22</time>
      </trkpt>
      <trkpt lat="40.08479" lon="-3.73986">
        <ele>605</ele>
        <time>2022-12-31 10:28:23</time>
      </trkpt>
      <trkpt lat="40.08483" lon="-3.73985">
        <ele>605</ele>
        <time>2022-12-31 10:28:24</time>
      </trkpt>
      <trkpt lat="40.08487" lon="-3.73984">
        <ele>605</ele>
        <time>2022-12-31 10:28:25</time>
      </trkpt>
      <trkpt lat="40.08492" lon="-3.73983">
        <ele>604.8</ele>
        <time>2022-12-31 10:28:26</time>
      </trkpt>
      <trkpt lat="40.08496" lon="-3.73981">
        <ele>604.8</ele>
        <time>2022-12-31 10:28:27</time>
      </trkpt>
      <trkpt lat="40.085" lon="-3.7398">
        <ele>605</ele>
        <time>2022-12-31 10:28:28</time>
      </trkpt>
      <trkpt lat="40.08504" lon="-3.73979">
        <ele>605</ele>
        <time>2022-12-31 10:28:29</time>
      </trkpt>
      <trkpt lat="40.08509" lon="-3.73978">
        <ele>605</ele>
        <time>2022-12-31 10:28:30</time>
      </trkpt>
      <trkpt lat="40.08513" lon="-3.73976">
        <ele>605.2</ele>
        <time>2022-12-31 10:28:31</time>
      </trkpt>
      <trkpt lat="40.08518" lon="-3.73975">
        <ele>605.2</ele>
        <time>2022-12-31 10:28:32</time>
      </trkpt>
      <trkpt lat="40.08522" lon="-3.73974">
        <ele>605.2</ele>
        <time>2022-12-31 10:28:33</time>
      </trkpt>
      <trkpt lat="40.08526" lon="-3.73973">
        <ele>605.4</ele>
        <time>2022-12-31 10:28:34</time>
      </trkpt>
      <trkpt lat="40.0853" lon="-3.73971">
        <ele>605.2</ele>
        <time>2022-12-31 10:28:35</time>
      </trkpt>
      <trkpt lat="40.08534" lon="-3.73969">
        <ele>605.4</ele>
        <time>2022-12-31 10:28:36</time>
      </trkpt>
      <trkpt lat="40.08538" lon="-3.73967">
        <ele>605.6</ele>
        <time>2022-12-31 10:28:37</time>
      </trkpt>
      <trkpt lat="40.08542" lon="-3.73966">
        <ele>605.8</ele>
        <time>2022-12-31 10:28:38</time>
      </trkpt>
      <trkpt lat="40.08546" lon="-3.73965">
        <ele>606.4</ele>
        <time>2022-12-31 10:28:39</time>
      </trkpt>
      <trkpt lat="40.0855" lon="-3.73964">
        <ele>606.4</ele>
        <time>2022-12-31 10:28:40</time>
      </trkpt>
      <trkpt lat="40.08554" lon="-3.73963">
        <ele>606.4</ele>
        <time>2022-12-31 10:28:41</time>
      </trkpt>
      <trkpt lat="40.08558" lon="-3.73963">
        <ele>606.8</ele>
        <time>2022-12-31 10:28:42</time>
      </trkpt>
      <trkpt lat="40.08562" lon="-3.73965">
        <ele>606.8</ele>
        <time>2022-12-31 10:28:43</time>
      </trkpt>
      <trkpt lat="40.08566" lon="-3.73968">
        <ele>606.8</ele>
        <time>2022-12-31 10:28:44</time>
      </trkpt>
      <trkpt lat="40.08569" lon="-3.73972">
        <ele>606.8</ele>
        <time>2022-12-31 10:28:45</time>
      </trkpt>
      <trkpt lat="40.08572" lon="-3.73976">
        <ele>607</ele>
        <time>2022-12-31 10:28:46</time>
      </trkpt>
      <trkpt lat="40.08575" lon="-3.7398">
        <ele>607</ele>
        <time>2022-12-31 10:28:47</time>
      </trkpt>
      <trkpt lat="40.08577" lon="-3.73985">
        <ele>607.4</ele>
        <time>2022-12-31 10:28:48</time>
      </trkpt>
      <trkpt lat="40.08578" lon="-3.73989">
        <ele>607.4</ele>
        <time>2022-12-31 10:28:49</time>
      </trkpt>
      <trkpt lat="40.0858" lon="-3.73994">
        <ele>607.4</ele>
        <time>2022-12-31 10:28:50</time>
      </trkpt>
      <trkpt lat="40.08581" lon="-3.74">
        <ele>607.6</ele>
        <time>2022-12-31 10:28:51</time>
      </trkpt>
      <trkpt lat="40.08582" lon="-3.74005">
        <ele>607.6</ele>
        <time>2022-12-31 10:28:52</time>
      </trkpt>
      <trkpt lat="40.08582" lon="-3.7401">
        <ele>607.6</ele>
        <time>2022-12-31 10:28:53</time>
      </trkpt>
      <trkpt lat="40.08582" lon="-3.74016">
        <ele>607.6</ele>
        <time>2022-12-31 10:28:54</time>
      </trkpt>
      <trkpt lat="40.08583" lon="-3.74022">
        <ele>607.8</ele>
        <time>2022-12-31 10:28:55</time>
      </trkpt>
      <trkpt lat="40.08583" lon="-3.74027">
        <ele>608</ele>
        <time>2022-12-31 10:28:56</time>
      </trkpt>
      <trkpt lat="40.08584" lon="-3.74033">
        <ele>608</ele>
        <time>2022-12-31 10:28:57</time>
      </trkpt>
      <trkpt lat="40.08584" lon="-3.74039">
        <ele>608.2</ele>
        <time>2022-12-31 10:28:58</time>
      </trkpt>
      <trkpt lat="40.08584" lon="-3.74045">
        <ele>608.2</ele>
        <time>2022-12-31 10:28:59</time>
      </trkpt>
      <trkpt lat="40.08585" lon="-3.7405">
        <ele>608.4</ele>
        <time>2022-12-31 10:29:00</time>
      </trkpt>
      <trkpt lat="40.08585" lon="-3.74056">
        <ele>608.4</ele>
        <time>2022-12-31 10:29:01</time>
      </trkpt>
      <trkpt lat="40.08586" lon="-3.74062">
        <ele>608.4</ele>
        <time>2022-12-31 10:29:02</time>
      </trkpt>
      <trkpt lat="40.08586" lon="-3.74068">
        <ele>608.4</ele>
        <time>2022-12-31 10:29:03</time>
      </trkpt>
      <trkpt lat="40.08586" lon="-3.74074">
        <ele>608.6</ele>
        <time>2022-12-31 10:29:04</time>
      </trkpt>
      <trkpt lat="40.08587" lon="-3.7408">
        <ele>608.6</ele>
        <time>2022-12-31 10:29:05</time>
      </trkpt>
      <trkpt lat="40.08587" lon="-3.74085">
        <ele>608.8</ele>
        <time>2022-12-31 10:29:06</time>
      </trkpt>
      <trkpt lat="40.08587" lon="-3.74091">
        <ele>608.8</ele>
        <time>2022-12-31 10:29:07</time>
      </trkpt>
      <trkpt lat="40.08588" lon="-3.74097">
        <ele>609</ele>
        <time>2022-12-31 10:29:08</time>
      </trkpt>
      <trkpt lat="40.08588" lon="-3.74103">
        <ele>608.8</ele>
        <time>2022-12-31 10:29:09</time>
      </trkpt>
      <trkpt lat="40.08588" lon="-3.74109">
        <ele>609</ele>
        <time>2022-12-31 10:29:10</time>
      </trkpt>
      <trkpt lat="40.08589" lon="-3.74115">
        <ele>609</ele>
        <time>2022-12-31 10:29:11</time>
      </trkpt>
      <trkpt lat="40.08589" lon="-3.74121">
        <ele>609</ele>
        <time>2022-12-31 10:29:12</time>
      </trkpt>
      <trkpt lat="40.08589" lon="-3.74127">
        <ele>609</ele>
        <time>2022-12-31 10:29:13</time>
      </trkpt>
      <trkpt lat="40.08589" lon="-3.74133">
        <ele>609.4</ele>
        <time>2022-12-31 10:29:14</time>
      </trkpt>
      <trkpt lat="40.0859" lon="-3.74139">
        <ele>609.2</ele>
        <time>2022-12-31 10:29:15</time>
      </trkpt>
      <trkpt lat="40.0859" lon="-3.74145">
        <ele>609.4</ele>
        <time>2022-12-31 10:29:16</time>
      </trkpt>
      <trkpt lat="40.0859" lon="-3.74151">
        <ele>609.4</ele>
        <time>2022-12-31 10:29:17</time>
      </trkpt>
      <trkpt lat="40.0859" lon="-3.74157">
        <ele>609.6</ele>
        <time>2022-12-31 10:29:18</time>
      </trkpt>
      <trkpt lat="40.0859" lon="-3.74163">
        <ele>609.6</ele>
        <time>2022-12-31 10:29:19</time>
      </trkpt>
      <trkpt lat="40.0859" lon="-3.74169">
        <ele>609.6</ele>
        <time>2022-12-31 10:29:20</time>
      </trkpt>
      <trkpt lat="40.0859" lon="-3.74175">
        <ele>609.8</ele>
        <time>2022-12-31 10:29:21</time>
      </trkpt>
      <trkpt lat="40.0859" lon="-3.74181">
        <ele>609.8</ele>
        <time>2022-12-31 10:29:22</time>
      </trkpt>
      <trkpt lat="40.0859" lon="-3.74187">
        <ele>609.8</ele>
        <time>2022-12-31 10:29:23</time>
      </trkpt>
      <trkpt lat="40.0859" lon="-3.74193">
        <ele>609.8</ele>
        <time>2022-12-31 10:29:24</time>
      </trkpt>
      <trkpt lat="40.0859" lon="-3.74199">
        <ele>610</ele>
        <time>2022-12-31 10:29:25</time>
      </trkpt>
      <trkpt lat="40.0859" lon="-3.74206">
        <ele>610</ele>
        <time>2022-12-31 10:29:26</time>
      </trkpt>
      <trkpt lat="40.0859" lon="-3.74212">
        <ele>610</ele>
        <time>2022-12-31 10:29:27</time>
      </trkpt>
      <trkpt lat="40.0859" lon="-3.74219">
        <ele>610.2</ele>
        <time>2022-12-31 10:29:28</time>
      </trkpt>
      <trkpt lat="40.0859" lon="-3.74225">
        <ele>610</ele>
        <time>2022-12-31 10:29:29</time>
      </trkpt>
      <trkpt lat="40.0859" lon="-3.74232">
        <ele>610.4</ele>
        <time>2022-12-31 10:29:30</time>
      </trkpt>
      <trkpt lat="40.0859" lon="-3.74238">
        <ele>610.4</ele>
        <time>2022-12-31 10:29:31</time>
      </trkpt>
      <trkpt lat="40.0859" lon="-3.74245">
        <ele>610.4</ele>
        <time>2022-12-31 10:29:32</time>
      </trkpt>
      <trkpt lat="40.0859" lon="-3.74251">
        <ele>610.4</ele>
        <time>2022-12-31 10:29:33</time>
      </trkpt>
      <trkpt lat="40.0859" lon="-3.74258">
        <ele>610.4</ele>
        <time>2022-12-31 10:29:34</time>
      </trkpt>
      <trkpt lat="40.0859" lon="-3.74265">
        <ele>610.4</ele>
        <time>2022-12-31 10:29:35</time>
      </trkpt>
      <trkpt lat="40.0859" lon="-3.74271">
        <ele>610.4</ele>
        <time>2022-12-31 10:29:36</time>
      </trkpt>
      <trkpt lat="40.08589" lon="-3.74278">
        <ele>610.6</ele>
        <time>2022-12-31 10:29:37</time>
      </trkpt>
      <trkpt lat="40.08589" lon="-3.74284">
        <ele>610.8</ele>
        <time>2022-12-31 10:29:38</time>
      </trkpt>
      <trkpt lat="40.08589" lon="-3.74291">
        <ele>610.6</ele>
        <time>2022-12-31 10:29:39</time>
      </trkpt>
      <trkpt lat="40.08589" lon="-3.74298">
        <ele>610.8</ele>
        <time>2022-12-31 10:29:40</time>
      </trkpt>
      <trkpt lat="40.08589" lon="-3.74304">
        <ele>610.8</ele>
        <time>2022-12-31 10:29:41</time>
      </trkpt>
      <trkpt lat="40.08589" lon="-3.7431">
        <ele>610.8</ele>
        <time>2022-12-31 10:29:42</time>
      </trkpt>
      <trkpt lat="40.08588" lon="-3.74317">
        <ele>611</ele>
        <time>2022-12-31 10:29:43</time>
      </trkpt>
      <trkpt lat="40.08588" lon="-3.74323">
        <ele>611</ele>
        <time>2022-12-31 10:29:44</time>
      </trkpt>
      <trkpt lat="40.08588" lon="-3.7433">
        <ele>611</ele>
        <time>2022-12-31 10:29:45</time>
      </trkpt>
      <trkpt lat="40.08588" lon="-3.74336">
        <ele>611.2</ele>
        <time>2022-12-31 10:29:46</time>
      </trkpt>
      <trkpt lat="40.08588" lon="-3.74342">
        <ele>611.4</ele>
        <time>2022-12-31 10:29:47</time>
      </trkpt>
      <trkpt lat="40.08587" lon="-3.74348">
        <ele>611.4</ele>
        <time>2022-12-31 10:29:48</time>
      </trkpt>
      <trkpt lat="40.08587" lon="-3.74355">
        <ele>611.4</ele>
        <time>2022-12-31 10:29:49</time>
      </trkpt>
      <trkpt lat="40.08587" lon="-3.74361">
        <ele>611.6</ele>
        <time>2022-12-31 10:29:50</time>
      </trkpt>
      <trkpt lat="40.08586" lon="-3.74367">
        <ele>611.6</ele>
        <time>2022-12-31 10:29:51</time>
      </trkpt>
      <trkpt lat="40.08585" lon="-3.74374">
        <ele>611.8</ele>
        <time>2022-12-31 10:29:52</time>
      </trkpt>
      <trkpt lat="40.08585" lon="-3.7438">
        <ele>611.8</ele>
        <time>2022-12-31 10:29:53</time>
      </trkpt>
      <trkpt lat="40.08584" lon="-3.74387">
        <ele>611.8</ele>
        <time>2022-12-31 10:29:54</time>
      </trkpt>
      <trkpt lat="40.08583" lon="-3.74393">
        <ele>612</ele>
        <time>2022-12-31 10:29:55</time>
      </trkpt>
      <trkpt lat="40.08583" lon="-3.74399">
        <ele>612</ele>
        <time>2022-12-31 10:29:56</time>
      </trkpt>
      <trkpt lat="40.08582" lon="-3.74405">
        <ele>612</ele>
        <time>2022-12-31 10:29:57</time>
      </trkpt>
      <trkpt lat="40.08582" lon="-3.7441">
        <ele>612.2</ele>
        <time>2022-12-31 10:29:58</time>
      </trkpt>
      <trkpt lat="40.08582" lon="-3.74414">
        <ele>612.2</ele>
        <time>2022-12-31 10:29:59</time>
      </trkpt>
      <trkpt lat="40.08584" lon="-3.74417">
        <ele>612.4</ele>
        <time>2022-12-31 10:30:00</time>
      </trkpt>
      <trkpt lat="40.08586" lon="-3.74419">
        <ele>612.6</ele>
        <time>2022-12-31 10:30:01</time>
      </trkpt>
      <trkpt lat="40.08588" lon="-3.74419">
        <ele>612.6</ele>
        <time>2022-12-31 10:30:02</time>
      </trkpt>
      <trkpt lat="40.0859" lon="-3.74417">
        <ele>612.6</ele>
        <time>2022-12-31 10:30:03</time>
      </trkpt>
      <trkpt lat="40.08592" lon="-3.74414">
        <ele>612.8</ele>
        <time>2022-12-31 10:30:04</time>
      </trkpt>
      <trkpt lat="40.08594" lon="-3.74411">
        <ele>613</ele>
        <time>2022-12-31 10:30:05</time>
      </trkpt>
      <trkpt lat="40.08595" lon="-3.74406">
        <ele>612.8</ele>
        <time>2022-12-31 10:30:06</time>
      </trkpt>
      <trkpt lat="40.08596" lon="-3.74402">
        <ele>613</ele>
        <time>2022-12-31 10:30:07</time>
      </trkpt>
      <trkpt lat="40.08597" lon="-3.74397">
        <ele>613</ele>
        <time>2022-12-31 10:30:08</time>
      </trkpt>
      <trkpt lat="40.08598" lon="-3.74392">
        <ele>613.2</ele>
        <time>2022-12-31 10:30:09</time>
      </trkpt>
      <trkpt lat="40.08599" lon="-3.74386">
        <ele>613.4</ele>
        <time>2022-12-31 10:30:10</time>
      </trkpt>
      <trkpt lat="40.08599" lon="-3.74381">
        <ele>613.4</ele>
        <time>2022-12-31 10:30:11</time>
      </trkpt>
      <trkpt lat="40.08599" lon="-3.74376">
        <ele>613.6</ele>
        <time>2022-12-31 10:30:12</time>
      </trkpt>
      <trkpt lat="40.08599" lon="-3.74371">
        <ele>613.4</ele>
        <time>2022-12-31 10:30:13</time>
      </trkpt>
      <trkpt lat="40.08599" lon="-3.74366">
        <ele>613.6</ele>
        <time>2022-12-31 10:30:14</time>
      </trkpt>
      <trkpt lat="40.08599" lon="-3.74361">
        <ele>613.6</ele>
        <time>2022-12-31 10:30:15</time>
      </trkpt>
      <trkpt lat="40.086" lon="-3.74356">
        <ele>613.6</ele>
        <time>2022-12-31 10:30:16</time>
      </trkpt>
      <trkpt lat="40.086" lon="-3.74351">
        <ele>613.8</ele>
        <time>2022-12-31 10:30:17</time>
      </trkpt>
      <trkpt lat="40.08601" lon="-3.74346">
        <ele>613.6</ele>
        <time>2022-12-31 10:30:18</time>
      </trkpt>
      <trkpt lat="40.08601" lon="-3.74341">
        <ele>613.8</ele>
        <time>2022-12-31 10:30:19</time>
      </trkpt>
      <trkpt lat="40.08601" lon="-3.74336">
        <ele>613.8</ele>
        <time>2022-12-31 10:30:20</time>
      </trkpt>
      <trkpt lat="40.08602" lon="-3.74331">
        <ele>614</ele>
        <time>2022-12-31 10:30:21</time>
      </trkpt>
      <trkpt lat="40.08602" lon="-3.74326">
        <ele>614</ele>
        <time>2022-12-31 10:30:22</time>
      </trkpt>
      <trkpt lat="40.08602" lon="-3.74322">
        <ele>614</ele>
        <time>2022-12-31 10:30:23</time>
      </trkpt>
      <trkpt lat="40.08602" lon="-3.74317">
        <ele>614</ele>
        <time>2022-12-31 10:30:24</time>
      </trkpt>
      <trkpt lat="40.08603" lon="-3.74312">
        <ele>614</ele>
        <time>2022-12-31 10:30:25</time>
      </trkpt>
      <trkpt lat="40.08603" lon="-3.74307">
        <ele>614</ele>
        <time>2022-12-31 10:30:26</time>
      </trkpt>
      <trkpt lat="40.08603" lon="-3.74302">
        <ele>614</ele>
        <time>2022-12-31 10:30:27</time>
      </trkpt>
      <trkpt lat="40.08603" lon="-3.74298">
        <ele>614.2</ele>
        <time>2022-12-31 10:30:28</time>
      </trkpt>
      <trkpt lat="40.08603" lon="-3.74293">
        <ele>614.4</ele>
        <time>2022-12-31 10:30:29</time>
      </trkpt>
      <trkpt lat="40.08604" lon="-3.74288">
        <ele>614.4</ele>
        <time>2022-12-31 10:30:30</time>
      </trkpt>
      <trkpt lat="40.08604" lon="-3.74283">
        <ele>614.4</ele>
        <time>2022-12-31 10:30:31</time>
      </trkpt>
      <trkpt lat="40.08604" lon="-3.74278">
        <ele>614.6</ele>
        <time>2022-12-31 10:30:32</time>
      </trkpt>
      <trkpt lat="40.08604" lon="-3.74273">
        <ele>614.6</ele>
        <time>2022-12-31 10:30:33</time>
      </trkpt>
      <trkpt lat="40.08604" lon="-3.74268">
        <ele>614.8</ele>
        <time>2022-12-31 10:30:34</time>
      </trkpt>
      <trkpt lat="40.08604" lon="-3.74263">
        <ele>615.2</ele>
        <time>2022-12-31 10:30:35</time>
      </trkpt>
      <trkpt lat="40.08605" lon="-3.74257">
        <ele>615.2</ele>
        <time>2022-12-31 10:30:36</time>
      </trkpt>
      <trkpt lat="40.08605" lon="-3.7425">
        <ele>615.4</ele>
        <time>2022-12-31 10:30:37</time>
      </trkpt>
      <trkpt lat="40.08605" lon="-3.74243">
        <ele>615.4</ele>
        <time>2022-12-31 10:30:38</time>
      </trkpt>
      <trkpt lat="40.08605" lon="-3.74236">
        <ele>615.6</ele>
        <time>2022-12-31 10:30:39</time>
      </trkpt>
      <trkpt lat="40.08606" lon="-3.74228">
        <ele>615.6</ele>
        <time>2022-12-31 10:30:40</time>
      </trkpt>
      <trkpt lat="40.08606" lon="-3.7422">
        <ele>615.6</ele>
        <time>2022-12-31 10:30:41</time>
      </trkpt>
      <trkpt lat="40.08606" lon="-3.74211">
        <ele>615.6</ele>
        <time>2022-12-31 10:30:42</time>
      </trkpt>
      <trkpt lat="40.08607" lon="-3.74203">
        <ele>615.6</ele>
        <time>2022-12-31 10:30:43</time>
      </trkpt>
      <trkpt lat="40.08606" lon="-3.74195">
        <ele>615.6</ele>
        <time>2022-12-31 10:30:44</time>
      </trkpt>
      <trkpt lat="40.08606" lon="-3.74187">
        <ele>615.8</ele>
        <time>2022-12-31 10:30:45</time>
      </trkpt>
      <trkpt lat="40.08606" lon="-3.74178">
        <ele>615.8</ele>
        <time>2022-12-31 10:30:46</time>
      </trkpt>
      <trkpt lat="40.08605" lon="-3.7417">
        <ele>615.8</ele>
        <time>2022-12-31 10:30:47</time>
      </trkpt>
      <trkpt lat="40.08605" lon="-3.74161">
        <ele>615.8</ele>
        <time>2022-12-31 10:30:48</time>
      </trkpt>
      <trkpt lat="40.08605" lon="-3.74152">
        <ele>615.4</ele>
        <time>2022-12-31 10:30:49</time>
      </trkpt>
      <trkpt lat="40.08605" lon="-3.74144">
        <ele>615.2</ele>
        <time>2022-12-31 10:30:50</time>
      </trkpt>
      <trkpt lat="40.08605" lon="-3.74135">
        <ele>615</ele>
        <time>2022-12-31 10:30:51</time>
      </trkpt>
      <trkpt lat="40.08604" lon="-3.74126">
        <ele>614.8</ele>
        <time>2022-12-31 10:30:52</time>
      </trkpt>
      <trkpt lat="40.08604" lon="-3.74118">
        <ele>614.2</ele>
        <time>2022-12-31 10:30:53</time>
      </trkpt>
      <trkpt lat="40.08604" lon="-3.74109">
        <ele>613.8</ele>
        <time>2022-12-31 10:30:54</time>
      </trkpt>
      <trkpt lat="40.08604" lon="-3.74101">
        <ele>613.6</ele>
        <time>2022-12-31 10:30:55</time>
      </trkpt>
      <trkpt lat="40.08605" lon="-3.74092">
        <ele>613.4</ele>
        <time>2022-12-31 10:30:56</time>
      </trkpt>
      <trkpt lat="40.08605" lon="-3.74084">
        <ele>613.2</ele>
        <time>2022-12-31 10:30:57</time>
      </trkpt>
      <trkpt lat="40.08604" lon="-3.74076">
        <ele>613</ele>
        <time>2022-12-31 10:30:58</time>
      </trkpt>
      <trkpt lat="40.08604" lon="-3.74067">
        <ele>612.6</ele>
        <time>2022-12-31 10:30:59</time>
      </trkpt>
      <trkpt lat="40.08604" lon="-3.74059">
        <ele>612.4</ele>
        <time>2022-12-31 10:31:00</time>
      </trkpt>
      <trkpt lat="40.08603" lon="-3.74051">
        <ele>612</ele>
        <time>2022-12-31 10:31:01</time>
      </trkpt>
      <trkpt lat="40.08602" lon="-3.74043">
        <ele>612</ele>
        <time>2022-12-31 10:31:02</time>
      </trkpt>
      <trkpt lat="40.08602" lon="-3.74036">
        <ele>612</ele>
        <time>2022-12-31 10:31:03</time>
      </trkpt>
      <trkpt lat="40.08602" lon="-3.74028">
        <ele>611.8</ele>
        <time>2022-12-31 10:31:04</time>
      </trkpt>
      <trkpt lat="40.08602" lon="-3.74021">
        <ele>611.4</ele>
        <time>2022-12-31 10:31:05</time>
      </trkpt>
      <trkpt lat="40.08602" lon="-3.74014">
        <ele>611.4</ele>
        <time>2022-12-31 10:31:06</time>
      </trkpt>
      <trkpt lat="40.08601" lon="-3.74007">
        <ele>611.4</ele>
        <time>2022-12-31 10:31:07</time>
      </trkpt>
      <trkpt lat="40.08601" lon="-3.74">
        <ele>611.4</ele>
        <time>2022-12-31 10:31:08</time>
      </trkpt>
      <trkpt lat="40.08601" lon="-3.73993">
        <ele>611.6</ele>
        <time>2022-12-31 10:31:09</time>
      </trkpt>
      <trkpt lat="40.086" lon="-3.73986">
        <ele>611.4</ele>
        <time>2022-12-31 10:31:10</time>
      </trkpt>
      <trkpt lat="40.086" lon="-3.73979">
        <ele>611.6</ele>
        <time>2022-12-31 10:31:11</time>
      </trkpt>
      <trkpt lat="40.086" lon="-3.73972">
        <ele>611.4</ele>
        <time>2022-12-31 10:31:12</time>
      </trkpt>
      <trkpt lat="40.086" lon="-3.73966">
        <ele>611.4</ele>
        <time>2022-12-31 10:31:13</time>
      </trkpt>
      <trkpt lat="40.08599" lon="-3.73959">
        <ele>611.6</ele>
        <time>2022-12-31 10:31:14</time>
      </trkpt>
      <trkpt lat="40.08599" lon="-3.73952">
        <ele>611.8</ele>
        <time>2022-12-31 10:31:15</time>
      </trkpt>
      <trkpt lat="40.08599" lon="-3.73946">
        <ele>612</ele>
        <time>2022-12-31 10:31:16</time>
      </trkpt>
      <trkpt lat="40.08598" lon="-3.73939">
        <ele>612.4</ele>
        <time>2022-12-31 10:31:17</time>
      </trkpt>
      <trkpt lat="40.08598" lon="-3.73932">
        <ele>612.8</ele>
        <time>2022-12-31 10:31:18</time>
      </trkpt>
      <trkpt lat="40.08597" lon="-3.73926">
        <ele>613</ele>
        <time>2022-12-31 10:31:19</time>
      </trkpt>
      <trkpt lat="40.08597" lon="-3.73919">
        <ele>613.2</ele>
        <time>2022-12-31 10:31:20</time>
      </trkpt>
      <trkpt lat="40.08596" lon="-3.73913">
        <ele>613.4</ele>
        <time>2022-12-31 10:31:21</time>
      </trkpt>
      <trkpt lat="40.08595" lon="-3.73907">
        <ele>613.4</ele>
        <time>2022-12-31 10:31:22</time>
      </trkpt>
      <trkpt lat="40.08593" lon="-3.739">
        <ele>613.6</ele>
        <time>2022-12-31 10:31:23</time>
      </trkpt>
      <trkpt lat="40.08591" lon="-3.73893">
        <ele>613.6</ele>
        <time>2022-12-31 10:31:24</time>
      </trkpt>
      <trkpt lat="40.0859" lon="-3.73887">
        <ele>613.4</ele>
        <time>2022-12-31 10:31:25</time>
      </trkpt>
      <trkpt lat="40.08589" lon="-3.73881">
        <ele>613.4</ele>
        <time>2022-12-31 10:31:26</time>
      </trkpt>
      <trkpt lat="40.0859" lon="-3.73874">
        <ele>613.6</ele>
        <time>2022-12-31 10:31:27</time>
      </trkpt>
      <trkpt lat="40.08592" lon="-3.73869">
        <ele>613.4</ele>
        <time>2022-12-31 10:31:28</time>
      </trkpt>
      <trkpt lat="40.08595" lon="-3.73864">
        <ele>613.4</ele>
        <time>2022-12-31 10:31:29</time>
      </trkpt>
      <trkpt lat="40.08599" lon="-3.7386">
        <ele>613.6</ele>
        <time>2022-12-31 10:31:30</time>
      </trkpt>
      <trkpt lat="40.08603" lon="-3.73856">
        <ele>613.4</ele>
        <time>2022-12-31 10:31:31</time>
      </trkpt>
      <trkpt lat="40.08606" lon="-3.73852">
        <ele>613.2</ele>
        <time>2022-12-31 10:31:32</time>
      </trkpt>
      <trkpt lat="40.0861" lon="-3.73849">
        <ele>612.8</ele>
        <time>2022-12-31 10:31:33</time>
      </trkpt>
      <trkpt lat="40.08614" lon="-3.73844">
        <ele>612.4</ele>
        <time>2022-12-31 10:31:34</time>
      </trkpt>
      <trkpt lat="40.08618" lon="-3.7384">
        <ele>612.2</ele>
        <time>2022-12-31 10:31:35</time>
      </trkpt>
      <trkpt lat="40.08622" lon="-3.73836">
        <ele>611.8</ele>
        <time>2022-12-31 10:31:36</time>
      </trkpt>
      <trkpt lat="40.08626" lon="-3.73833">
        <ele>611.8</ele>
        <time>2022-12-31 10:31:37</time>
      </trkpt>
      <trkpt lat="40.0863" lon="-3.73829">
        <ele>611.4</ele>
        <time>2022-12-31 10:31:38</time>
      </trkpt>
      <trkpt lat="40.08634" lon="-3.73825">
        <ele>611.4</ele>
        <time>2022-12-31 10:31:39</time>
      </trkpt>
      <trkpt lat="40.08639" lon="-3.73821">
        <ele>611.4</ele>
        <time>2022-12-31 10:31:40</time>
      </trkpt>
      <trkpt lat="40.08643" lon="-3.73818">
        <ele>611.4</ele>
        <time>2022-12-31 10:31:41</time>
      </trkpt>
      <trkpt lat="40.08648" lon="-3.73814">
        <ele>611.4</ele>
        <time>2022-12-31 10:31:42</time>
      </trkpt>
      <trkpt lat="40.08652" lon="-3.73811">
        <ele>611.4</ele>
        <time>2022-12-31 10:31:43</time>
      </trkpt>
      <trkpt lat="40.08656" lon="-3.73808">
        <ele>611.4</ele>
        <time>2022-12-31 10:31:44</time>
      </trkpt>
      <trkpt lat="40.08661" lon="-3.73805">
        <ele>611.2</ele>
        <time>2022-12-31 10:31:45</time>
      </trkpt>
      <trkpt lat="40.08666" lon="-3.73802">
        <ele>611.2</ele>
        <time>2022-12-31 10:31:46</time>
      </trkpt>
      <trkpt lat="40.0867" lon="-3.73799">
        <ele>611.2</ele>
        <time>2022-12-31 10:31:47</time>
      </trkpt>
      <trkpt lat="40.08675" lon="-3.73796">
        <ele>611.2</ele>
        <time>2022-12-31 10:31:48</time>
      </trkpt>
      <trkpt lat="40.0868" lon="-3.73794">
        <ele>611.4</ele>
        <time>2022-12-31 10:31:49</time>
      </trkpt>
      <trkpt lat="40.08684" lon="-3.7379">
        <ele>611.2</ele>
        <time>2022-12-31 10:31:50</time>
      </trkpt>
      <trkpt lat="40.08688" lon="-3.73786">
        <ele>611.4</ele>
        <time>2022-12-31 10:31:51</time>
      </trkpt>
      <trkpt lat="40.08692" lon="-3.73782">
        <ele>611.4</ele>
        <time>2022-12-31 10:31:52</time>
      </trkpt>
      <trkpt lat="40.08696" lon="-3.73777">
        <ele>611.4</ele>
        <time>2022-12-31 10:31:53</time>
      </trkpt>
      <trkpt lat="40.087" lon="-3.73773">
        <ele>611.6</ele>
        <time>2022-12-31 10:31:54</time>
      </trkpt>
      <trkpt lat="40.08704" lon="-3.73768">
        <ele>611.6</ele>
        <time>2022-12-31 10:31:55</time>
      </trkpt>
      <trkpt lat="40.08708" lon="-3.73763">
        <ele>611.6</ele>
        <time>2022-12-31 10:31:56</time>
      </trkpt>
      <trkpt lat="40.08713" lon="-3.73759">
        <ele>611.6</ele>
        <time>2022-12-31 10:31:57</time>
      </trkpt>
      <trkpt lat="40.08717" lon="-3.73755">
        <ele>611.6</ele>
        <time>2022-12-31 10:31:58</time>
      </trkpt>
      <trkpt lat="40.08722" lon="-3.73751">
        <ele>611.6</ele>
        <time>2022-12-31 10:31:59</time>
      </trkpt>
      <trkpt lat="40.08728" lon="-3.73748">
        <ele>611.6</ele>
        <time>2022-12-31 10:32:00</time>
      </trkpt>
      <trkpt lat="40.08734" lon="-3.73745">
        <ele>611.6</ele>
        <time>2022-12-31 10:32:01</time>
      </trkpt>
      <trkpt lat="40.0874" lon="-3.73744">
        <ele>611.4</ele>
        <time>2022-12-31 10:32:02</time>
      </trkpt>
      <trkpt lat="40.08746" lon="-3.73742">
        <ele>611.4</ele>
        <time>2022-12-31 10:32:03</time>
      </trkpt>
      <trkpt lat="40.08753" lon="-3.7374">
        <ele>611.4</ele>
        <time>2022-12-31 10:32:04</time>
      </trkpt>
      <trkpt lat="40.08759" lon="-3.73738">
        <ele>611.4</ele>
        <time>2022-12-31 10:32:05</time>
      </trkpt>
      <trkpt lat="40.08766" lon="-3.73735">
        <ele>611.2</ele>
        <time>2022-12-31 10:32:06</time>
      </trkpt>
      <trkpt lat="40.08772" lon="-3.73732">
        <ele>611.2</ele>
        <time>2022-12-31 10:32:07</time>
      </trkpt>
      <trkpt lat="40.08778" lon="-3.73728">
        <ele>611.2</ele>
        <time>2022-12-31 10:32:08</time>
      </trkpt>
      <trkpt lat="40.08783" lon="-3.73724">
        <ele>611</ele>
        <time>2022-12-31 10:32:09</time>
      </trkpt>
      <trkpt lat="40.08788" lon="-3.7372">
        <ele>611</ele>
        <time>2022-12-31 10:32:10</time>
      </trkpt>
      <trkpt lat="40.08794" lon="-3.73716">
        <ele>610.6</ele>
        <time>2022-12-31 10:32:11</time>
      </trkpt>
      <trkpt lat="40.088" lon="-3.73714">
        <ele>610.6</ele>
        <time>2022-12-31 10:32:12</time>
      </trkpt>
      <trkpt lat="40.08805" lon="-3.73712">
        <ele>610</ele>
        <time>2022-12-31 10:32:13</time>
      </trkpt>
      <trkpt lat="40.0881" lon="-3.73711">
        <ele>610</ele>
        <time>2022-12-31 10:32:14</time>
      </trkpt>
      <trkpt lat="40.08815" lon="-3.7371">
        <ele>609.8</ele>
        <time>2022-12-31 10:32:15</time>
      </trkpt>
      <trkpt lat="40.0882" lon="-3.7371">
        <ele>609.8</ele>
        <time>2022-12-31 10:32:16</time>
      </trkpt>
      <trkpt lat="40.08825" lon="-3.73711">
        <ele>609.8</ele>
        <time>2022-12-31 10:32:17</time>
      </trkpt>
      <trkpt lat="40.08831" lon="-3.73711">
        <ele>609.8</ele>
        <time>2022-12-31 10:32:18</time>
      </trkpt>
      <trkpt lat="40.08837" lon="-3.73712">
        <ele>609.4</ele>
        <time>2022-12-31 10:32:19</time>
      </trkpt>
      <trkpt lat="40.08844" lon="-3.73713">
        <ele>609.2</ele>
        <time>2022-12-31 10:32:20</time>
      </trkpt>
      <trkpt lat="40.08851" lon="-3.73714">
        <ele>609.2</ele>
        <time>2022-12-31 10:32:21</time>
      </trkpt>
      <trkpt lat="40.08858" lon="-3.73716">
        <ele>609.2</ele>
        <time>2022-12-31 10:32:22</time>
      </trkpt>
      <trkpt lat="40.08865" lon="-3.73717">
        <ele>609.2</ele>
        <time>2022-12-31 10:32:23</time>
      </trkpt>
      <trkpt lat="40.08872" lon="-3.73719">
        <ele>609</ele>
        <time>2022-12-31 10:32:24</time>
      </trkpt>
      <trkpt lat="40.08879" lon="-3.73721">
        <ele>609</ele>
        <time>2022-12-31 10:32:25</time>
      </trkpt>
      <trkpt lat="40.08885" lon="-3.73723">
        <ele>608.8</ele>
        <time>2022-12-31 10:32:26</time>
      </trkpt>
      <trkpt lat="40.08892" lon="-3.73724">
        <ele>608.8</ele>
        <time>2022-12-31 10:32:27</time>
      </trkpt>
      <trkpt lat="40.08898" lon="-3.73726">
        <ele>608.8</ele>
        <time>2022-12-31 10:32:28</time>
      </trkpt>
      <trkpt lat="40.08904" lon="-3.73728">
        <ele>608</ele>
        <time>2022-12-31 10:32:29</time>
      </trkpt>
      <trkpt lat="40.08909" lon="-3.73729">
        <ele>607.2</ele>
        <time>2022-12-31 10:32:30</time>
      </trkpt>
      <trkpt lat="40.08914" lon="-3.73731">
        <ele>607</ele>
        <time>2022-12-31 10:32:31</time>
      </trkpt>
      <trkpt lat="40.08919" lon="-3.73732">
        <ele>606.6</ele>
        <time>2022-12-31 10:32:32</time>
      </trkpt>
      <trkpt lat="40.08924" lon="-3.73734">
        <ele>606.6</ele>
        <time>2022-12-31 10:32:33</time>
      </trkpt>
      <trkpt lat="40.08929" lon="-3.73735">
        <ele>606.6</ele>
        <time>2022-12-31 10:32:34</time>
      </trkpt>
      <trkpt lat="40.08935" lon="-3.73736">
        <ele>606.2</ele>
        <time>2022-12-31 10:32:35</time>
      </trkpt>
      <trkpt lat="40.0894" lon="-3.73737">
        <ele>606.2</ele>
        <time>2022-12-31 10:32:36</time>
      </trkpt>
      <trkpt lat="40.08945" lon="-3.73738">
        <ele>606.2</ele>
        <time>2022-12-31 10:32:37</time>
      </trkpt>
      <trkpt lat="40.08951" lon="-3.7374">
        <ele>606.2</ele>
        <time>2022-12-31 10:32:38</time>
      </trkpt>
      <trkpt lat="40.08956" lon="-3.73741">
        <ele>606</ele>
        <time>2022-12-31 10:32:39</time>
      </trkpt>
      <trkpt lat="40.08962" lon="-3.73742">
        <ele>605.8</ele>
        <time>2022-12-31 10:32:40</time>
      </trkpt>
      <trkpt lat="40.08968" lon="-3.73743">
        <ele>606</ele>
        <time>2022-12-31 10:32:41</time>
      </trkpt>
      <trkpt lat="40.08974" lon="-3.73744">
        <ele>605.8</ele>
        <time>2022-12-31 10:32:42</time>
      </trkpt>
      <trkpt lat="40.0898" lon="-3.73744">
        <ele>605.8</ele>
        <time>2022-12-31 10:32:43</time>
      </trkpt>
      <trkpt lat="40.08986" lon="-3.73743">
        <ele>605.8</ele>
        <time>2022-12-31 10:32:44</time>
      </trkpt>
      <trkpt lat="40.08992" lon="-3.73742">
        <ele>605.8</ele>
        <time>2022-12-31 10:32:45</time>
      </trkpt>
      <trkpt lat="40.08999" lon="-3.73742">
        <ele>605.8</ele>
        <time>2022-12-31 10:32:46</time>
      </trkpt>
      <trkpt lat="40.09005" lon="-3.73741">
        <ele>606</ele>
        <time>2022-12-31 10:32:47</time>
      </trkpt>
      <trkpt lat="40.09012" lon="-3.73741">
        <ele>605.8</ele>
        <time>2022-12-31 10:32:48</time>
      </trkpt>
      <trkpt lat="40.09019" lon="-3.73742">
        <ele>605.8</ele>
        <time>2022-12-31 10:32:49</time>
      </trkpt>
      <trkpt lat="40.09025" lon="-3.73742">
        <ele>605.8</ele>
        <time>2022-12-31 10:32:50</time>
      </trkpt>
      <trkpt lat="40.09031" lon="-3.73741">
        <ele>605.8</ele>
        <time>2022-12-31 10:32:51</time>
      </trkpt>
      <trkpt lat="40.09037" lon="-3.73739">
        <ele>605.8</ele>
        <time>2022-12-31 10:32:52</time>
      </trkpt>
      <trkpt lat="40.09042" lon="-3.73738">
        <ele>605.4</ele>
        <time>2022-12-31 10:32:53</time>
      </trkpt>
      <trkpt lat="40.09048" lon="-3.73737">
        <ele>605.4</ele>
        <time>2022-12-31 10:32:54</time>
      </trkpt>
      <trkpt lat="40.09053" lon="-3.73736">
        <ele>605.2</ele>
        <time>2022-12-31 10:32:55</time>
      </trkpt>
      <trkpt lat="40.09059" lon="-3.73735">
        <ele>605</ele>
        <time>2022-12-31 10:32:56</time>
      </trkpt>
      <trkpt lat="40.09064" lon="-3.73735">
        <ele>604.8</ele>
        <time>2022-12-31 10:32:57</time>
      </trkpt>
      <trkpt lat="40.09069" lon="-3.73735">
        <ele>604.8</ele>
        <time>2022-12-31 10:32:58</time>
      </trkpt>
      <trkpt lat="40.09074" lon="-3.73734">
        <ele>605</ele>
        <time>2022-12-31 10:32:59</time>
      </trkpt>
      <trkpt lat="40.09079" lon="-3.73734">
        <ele>605</ele>
        <time>2022-12-31 10:33:00</time>
      </trkpt>
      <trkpt lat="40.09083" lon="-3.73734">
        <ele>605</ele>
        <time>2022-12-31 10:33:01</time>
      </trkpt>
      <trkpt lat="40.09088" lon="-3.73734">
        <ele>604.8</ele>
        <time>2022-12-31 10:33:02</time>
      </trkpt>
      <trkpt lat="40.09092" lon="-3.73734">
        <ele>604.8</ele>
        <time>2022-12-31 10:33:03</time>
      </trkpt>
      <trkpt lat="40.09097" lon="-3.73734">
        <ele>605</ele>
        <time>2022-12-31 10:33:04</time>
      </trkpt>
      <trkpt lat="40.09101" lon="-3.73733">
        <ele>605</ele>
        <time>2022-12-31 10:33:05</time>
      </trkpt>
      <trkpt lat="40.09106" lon="-3.73733">
        <ele>605</ele>
        <time>2022-12-31 10:33:06</time>
      </trkpt>
      <trkpt lat="40.0911" lon="-3.73732">
        <ele>605</ele>
        <time>2022-12-31 10:33:07</time>
      </trkpt>
      <trkpt lat="40.09114" lon="-3.73732">
        <ele>605.2</ele>
        <time>2022-12-31 10:33:08</time>
      </trkpt>
      <trkpt lat="40.09119" lon="-3.73731">
        <ele>605.6</ele>
        <time>2022-12-31 10:33:09</time>
      </trkpt>
      <trkpt lat="40.09123" lon="-3.7373">
        <ele>605.8</ele>
        <time>2022-12-31 10:33:10</time>
      </trkpt>
      <trkpt lat="40.09127" lon="-3.7373">
        <ele>606</ele>
        <time>2022-12-31 10:33:11</time>
      </trkpt>
      <trkpt lat="40.09131" lon="-3.73729">
        <ele>606.2</ele>
        <time>2022-12-31 10:33:12</time>
      </trkpt>
      <trkpt lat="40.09136" lon="-3.73728">
        <ele>606.2</ele>
        <time>2022-12-31 10:33:13</time>
      </trkpt>
      <trkpt lat="40.0914" lon="-3.73727">
        <ele>606.8</ele>
        <time>2022-12-31 10:33:14</time>
      </trkpt>
      <trkpt lat="40.09145" lon="-3.73727">
        <ele>607</ele>
        <time>2022-12-31 10:33:15</time>
      </trkpt>
      <trkpt lat="40.09149" lon="-3.73726">
        <ele>607.2</ele>
        <time>2022-12-31 10:33:16</time>
      </trkpt>
      <trkpt lat="40.09153" lon="-3.73725">
        <ele>607.2</ele>
        <time>2022-12-31 10:33:17</time>
      </trkpt>
      <trkpt lat="40.09157" lon="-3.73725">
        <ele>607.4</ele>
        <time>2022-12-31 10:33:18</time>
      </trkpt>
      <trkpt lat="40.09162" lon="-3.73724">
        <ele>607.6</ele>
        <time>2022-12-31 10:33:19</time>
      </trkpt>
      <trkpt lat="40.09166" lon="-3.73723">
        <ele>607.8</ele>
        <time>2022-12-31 10:33:20</time>
      </trkpt>
      <trkpt lat="40.0917" lon="-3.73723">
        <ele>608</ele>
        <time>2022-12-31 10:33:21</time>
      </trkpt>
      <trkpt lat="40.09175" lon="-3.73722">
        <ele>607.8</ele>
        <time>2022-12-31 10:33:22</time>
      </trkpt>
      <trkpt lat="40.09179" lon="-3.73722">
        <ele>608</ele>
        <time>2022-12-31 10:33:23</time>
      </trkpt>
      <trkpt lat="40.09183" lon="-3.73722">
        <ele>608.2</ele>
        <time>2022-12-31 10:33:24</time>
      </trkpt>
      <trkpt lat="40.09188" lon="-3.73721">
        <ele>608.2</ele>
        <time>2022-12-31 10:33:25</time>
      </trkpt>
      <trkpt lat="40.09192" lon="-3.73721">
        <ele>608.2</ele>
        <time>2022-12-31 10:33:26</time>
      </trkpt>
      <trkpt lat="40.09197" lon="-3.7372">
        <ele>608.6</ele>
        <time>2022-12-31 10:33:27</time>
      </trkpt>
      <trkpt lat="40.09201" lon="-3.7372">
        <ele>608.8</ele>
        <time>2022-12-31 10:33:28</time>
      </trkpt>
      <trkpt lat="40.09206" lon="-3.7372">
        <ele>608.8</ele>
        <time>2022-12-31 10:33:29</time>
      </trkpt>
      <trkpt lat="40.0921" lon="-3.7372">
        <ele>608.8</ele>
        <time>2022-12-31 10:33:30</time>
      </trkpt>
      <trkpt lat="40.09214" lon="-3.7372">
        <ele>609</ele>
        <time>2022-12-31 10:33:31</time>
      </trkpt>
      <trkpt lat="40.09219" lon="-3.73719">
        <ele>608.8</ele>
        <time>2022-12-31 10:33:32</time>
      </trkpt>
      <trkpt lat="40.09223" lon="-3.73719">
        <ele>609</ele>
        <time>2022-12-31 10:33:33</time>
      </trkpt>
      <trkpt lat="40.09228" lon="-3.73719">
        <ele>609</ele>
        <time>2022-12-31 10:33:34</time>
      </trkpt>
      <trkpt lat="40.09232" lon="-3.73719">
        <ele>609</ele>
        <time>2022-12-31 10:33:35</time>
      </trkpt>
      <trkpt lat="40.09236" lon="-3.73719">
        <ele>609</ele>
        <time>2022-12-31 10:33:36</time>
      </trkpt>
      <trkpt lat="40.09241" lon="-3.73719">
        <ele>609.2</ele>
        <time>2022-12-31 10:33:37</time>
      </trkpt>
      <trkpt lat="40.09245" lon="-3.73719">
        <ele>609.4</ele>
        <time>2022-12-31 10:33:38</time>
      </trkpt>
      <trkpt lat="40.0925" lon="-3.73719">
        <ele>609.2</ele>
        <time>2022-12-31 10:33:39</time>
      </trkpt>
      <trkpt lat="40.09254" lon="-3.73719">
        <ele>609.4</ele>
        <time>2022-12-31 10:33:40</time>
      </trkpt>
      <trkpt lat="40.09259" lon="-3.73719">
        <ele>609.6</ele>
        <time>2022-12-31 10:33:41</time>
      </trkpt>
      <trkpt lat="40.09264" lon="-3.73718">
        <ele>609.6</ele>
        <time>2022-12-31 10:33:42</time>
      </trkpt>
      <trkpt lat="40.0927" lon="-3.73718">
        <ele>609.6</ele>
        <time>2022-12-31 10:33:43</time>
      </trkpt>
      <trkpt lat="40.09275" lon="-3.73718">
        <ele>609.6</ele>
        <time>2022-12-31 10:33:44</time>
      </trkpt>
      <trkpt lat="40.09281" lon="-3.73718">
        <ele>609.6</ele>
        <time>2022-12-31 10:33:45</time>
      </trkpt>
      <trkpt lat="40.09286" lon="-3.73718">
        <ele>609.6</ele>
        <time>2022-12-31 10:33:46</time>
      </trkpt>
      <trkpt lat="40.09292" lon="-3.73718">
        <ele>609.8</ele>
        <time>2022-12-31 10:33:47</time>
      </trkpt>
      <trkpt lat="40.09298" lon="-3.73718">
        <ele>609.6</ele>
        <time>2022-12-31 10:33:48</time>
      </trkpt>
      <trkpt lat="40.09304" lon="-3.73718">
        <ele>609.6</ele>
        <time>2022-12-31 10:33:49</time>
      </trkpt>
      <trkpt lat="40.0931" lon="-3.73718">
        <ele>609.6</ele>
        <time>2022-12-31 10:33:50</time>
      </trkpt>
      <trkpt lat="40.09316" lon="-3.73718">
        <ele>609.6</ele>
        <time>2022-12-31 10:33:51</time>
      </trkpt>
      <trkpt lat="40.09321" lon="-3.73717">
        <ele>609.6</ele>
        <time>2022-12-31 10:33:52</time>
      </trkpt>
      <trkpt lat="40.09327" lon="-3.73717">
        <ele>609.4</ele>
        <time>2022-12-31 10:33:53</time>
      </trkpt>
      <trkpt lat="40.09332" lon="-3.73717">
        <ele>609.4</ele>
        <time>2022-12-31 10:33:54</time>
      </trkpt>
      <trkpt lat="40.09337" lon="-3.73716">
        <ele>609.6</ele>
        <time>2022-12-31 10:33:55</time>
      </trkpt>
      <trkpt lat="40.09342" lon="-3.73716">
        <ele>609.4</ele>
        <time>2022-12-31 10:33:56</time>
      </trkpt>
      <trkpt lat="40.09347" lon="-3.73715">
        <ele>609.2</ele>
        <time>2022-12-31 10:33:57</time>
      </trkpt>
      <trkpt lat="40.09351" lon="-3.73715">
        <ele>609.4</ele>
        <time>2022-12-31 10:33:58</time>
      </trkpt>
      <trkpt lat="40.09356" lon="-3.73714">
        <ele>609.4</ele>
        <time>2022-12-31 10:33:59</time>
      </trkpt>
      <trkpt lat="40.09361" lon="-3.73714">
        <ele>609.4</ele>
        <time>2022-12-31 10:34:00</time>
      </trkpt>
      <trkpt lat="40.09365" lon="-3.73713">
        <ele>609.4</ele>
        <time>2022-12-31 10:34:01</time>
      </trkpt>
      <trkpt lat="40.09369" lon="-3.73713">
        <ele>609.4</ele>
        <time>2022-12-31 10:34:02</time>
      </trkpt>
      <trkpt lat="40.09374" lon="-3.73713">
        <ele>609.4</ele>
        <time>2022-12-31 10:34:03</time>
      </trkpt>
      <trkpt lat="40.09378" lon="-3.73712">
        <ele>609.4</ele>
        <time>2022-12-31 10:34:04</time>
      </trkpt>
      <trkpt lat="40.09382" lon="-3.73712">
        <ele>609.2</ele>
        <time>2022-12-31 10:34:05</time>
      </trkpt>
      <trkpt lat="40.09386" lon="-3.73711">
        <ele>609.2</ele>
        <time>2022-12-31 10:34:06</time>
      </trkpt>
      <trkpt lat="40.0939" lon="-3.73711">
        <ele>609.4</ele>
        <time>2022-12-31 10:34:07</time>
      </trkpt>
      <trkpt lat="40.09394" lon="-3.7371">
        <ele>609.8</ele>
        <time>2022-12-31 10:34:08</time>
      </trkpt>
      <trkpt lat="40.09398" lon="-3.73709">
        <ele>609.8</ele>
        <time>2022-12-31 10:34:09</time>
      </trkpt>
      <trkpt lat="40.09401" lon="-3.73707">
        <ele>610.2</ele>
        <time>2022-12-31 10:34:10</time>
      </trkpt>
      <trkpt lat="40.09405" lon="-3.73706">
        <ele>610.6</ele>
        <time>2022-12-31 10:34:11</time>
      </trkpt>
      <trkpt lat="40.09409" lon="-3.73704">
        <ele>610.8</ele>
        <time>2022-12-31 10:34:12</time>
      </trkpt>
      <trkpt lat="40.09413" lon="-3.73703">
        <ele>611</ele>
        <time>2022-12-31 10:34:13</time>
      </trkpt>
      <trkpt lat="40.09417" lon="-3.73702">
        <ele>611.2</ele>
        <time>2022-12-31 10:34:14</time>
      </trkpt>
      <trkpt lat="40.09421" lon="-3.73701">
        <ele>611.4</ele>
        <time>2022-12-31 10:34:15</time>
      </trkpt>
      <trkpt lat="40.09425" lon="-3.737">
        <ele>611.6</ele>
        <time>2022-12-31 10:34:16</time>
      </trkpt>
      <trkpt lat="40.09429" lon="-3.737">
        <ele>611.8</ele>
        <time>2022-12-31 10:34:17</time>
      </trkpt>
      <trkpt lat="40.09433" lon="-3.73699">
        <ele>612.2</ele>
        <time>2022-12-31 10:34:18</time>
      </trkpt>
      <trkpt lat="40.09437" lon="-3.73699">
        <ele>612.4</ele>
        <time>2022-12-31 10:34:19</time>
      </trkpt>
      <trkpt lat="40.09441" lon="-3.73698">
        <ele>612.4</ele>
        <time>2022-12-31 10:34:20</time>
      </trkpt>
      <trkpt lat="40.09445" lon="-3.73698">
        <ele>612.6</ele>
        <time>2022-12-31 10:34:21</time>
      </trkpt>
      <trkpt lat="40.09449" lon="-3.73697">
        <ele>613</ele>
        <time>2022-12-31 10:34:22</time>
      </trkpt>
      <trkpt lat="40.09454" lon="-3.73696">
        <ele>613.2</ele>
        <time>2022-12-31 10:34:23</time>
      </trkpt>
      <trkpt lat="40.09458" lon="-3.73695">
        <ele>613.6</ele>
        <time>2022-12-31 10:34:24</time>
      </trkpt>
      <trkpt lat="40.09462" lon="-3.73695">
        <ele>613.6</ele>
        <time>2022-12-31 10:34:25</time>
      </trkpt>
      <trkpt lat="40.09466" lon="-3.73694">
        <ele>613.6</ele>
        <time>2022-12-31 10:34:26</time>
      </trkpt>
      <trkpt lat="40.09471" lon="-3.73693">
        <ele>613.8</ele>
        <time>2022-12-31 10:34:27</time>
      </trkpt>
      <trkpt lat="40.09475" lon="-3.73693">
        <ele>614.2</ele>
        <time>2022-12-31 10:34:28</time>
      </trkpt>
      <trkpt lat="40.09479" lon="-3.73693">
        <ele>614</ele>
        <time>2022-12-31 10:34:29</time>
      </trkpt>
      <trkpt lat="40.09483" lon="-3.73693">
        <ele>614.2</ele>
        <time>2022-12-31 10:34:30</time>
      </trkpt>
      <trkpt lat="40.09487" lon="-3.73692">
        <ele>614.2</ele>
        <time>2022-12-31 10:34:31</time>
      </trkpt>
      <trkpt lat="40.09491" lon="-3.73692">
        <ele>614.4</ele>
        <time>2022-12-31 10:34:32</time>
      </trkpt>
      <trkpt lat="40.09495" lon="-3.73692">
        <ele>614.6</ele>
        <time>2022-12-31 10:34:33</time>
      </trkpt>
      <trkpt lat="40.09499" lon="-3.73691">
        <ele>614.6</ele>
        <time>2022-12-31 10:34:34</time>
      </trkpt>
      <trkpt lat="40.09503" lon="-3.73691">
        <ele>614.8</ele>
        <time>2022-12-31 10:34:35</time>
      </trkpt>
      <trkpt lat="40.09507" lon="-3.73691">
        <ele>614.8</ele>
        <time>2022-12-31 10:34:36</time>
      </trkpt>
      <trkpt lat="40.09511" lon="-3.73691">
        <ele>615</ele>
        <time>2022-12-31 10:34:37</time>
      </trkpt>
      <trkpt lat="40.09515" lon="-3.73691">
        <ele>615.2</ele>
        <time>2022-12-31 10:34:38</time>
      </trkpt>
      <trkpt lat="40.09519" lon="-3.7369">
        <ele>615</ele>
        <time>2022-12-31 10:34:39</time>
      </trkpt>
      <trkpt lat="40.09523" lon="-3.7369">
        <ele>615.2</ele>
        <time>2022-12-31 10:34:40</time>
      </trkpt>
      <trkpt lat="40.09526" lon="-3.7369">
        <ele>615.2</ele>
        <time>2022-12-31 10:34:41</time>
      </trkpt>
      <trkpt lat="40.0953" lon="-3.7369">
        <ele>615.4</ele>
        <time>2022-12-31 10:34:42</time>
      </trkpt>
      <trkpt lat="40.09534" lon="-3.7369">
        <ele>615.4</ele>
        <time>2022-12-31 10:34:43</time>
      </trkpt>
      <trkpt lat="40.09538" lon="-3.7369">
        <ele>615.6</ele>
        <time>2022-12-31 10:34:44</time>
      </trkpt>
      <trkpt lat="40.09541" lon="-3.7369">
        <ele>615.6</ele>
        <time>2022-12-31 10:34:45</time>
      </trkpt>
      <trkpt lat="40.09545" lon="-3.7369">
        <ele>615.6</ele>
        <time>2022-12-31 10:34:46</time>
      </trkpt>
      <trkpt lat="40.09548" lon="-3.73689">
        <ele>616.2</ele>
        <time>2022-12-31 10:34:47</time>
      </trkpt>
      <trkpt lat="40.09552" lon="-3.73689">
        <ele>616.6</ele>
        <time>2022-12-31 10:34:48</time>
      </trkpt>
      <trkpt lat="40.09555" lon="-3.73689">
        <ele>616.8</ele>
        <time>2022-12-31 10:34:49</time>
      </trkpt>
      <trkpt lat="40.09559" lon="-3.73689">
        <ele>617</ele>
        <time>2022-12-31 10:34:50</time>
      </trkpt>
      <trkpt lat="40.09562" lon="-3.73689">
        <ele>617.2</ele>
        <time>2022-12-31 10:34:51</time>
      </trkpt>
      <trkpt lat="40.09566" lon="-3.73689">
        <ele>617.4</ele>
        <time>2022-12-31 10:34:52</time>
      </trkpt>
      <trkpt lat="40.0957" lon="-3.73689">
        <ele>617.6</ele>
        <time>2022-12-31 10:34:53</time>
      </trkpt>
      <trkpt lat="40.09574" lon="-3.73689">
        <ele>617.8</ele>
        <time>2022-12-31 10:34:54</time>
      </trkpt>
      <trkpt lat="40.09578" lon="-3.73689">
        <ele>618.2</ele>
        <time>2022-12-31 10:34:55</time>
      </trkpt>
      <trkpt lat="40.09582" lon="-3.73689">
        <ele>618.4</ele>
        <time>2022-12-31 10:34:56</time>
      </trkpt>
      <trkpt lat="40.09587" lon="-3.73688">
        <ele>618.4</ele>
        <time>2022-12-31 10:34:57</time>
      </trkpt>
      <trkpt lat="40.09592" lon="-3.73688">
        <ele>618.6</ele>
        <time>2022-12-31 10:34:58</time>
      </trkpt>
      <trkpt lat="40.09598" lon="-3.73688">
        <ele>618.6</ele>
        <time>2022-12-31 10:34:59</time>
      </trkpt>
      <trkpt lat="40.09603" lon="-3.73687">
        <ele>618.8</ele>
        <time>2022-12-31 10:35:00</time>
      </trkpt>
      <trkpt lat="40.09608" lon="-3.73687">
        <ele>618.8</ele>
        <time>2022-12-31 10:35:01</time>
      </trkpt>
      <trkpt lat="40.09613" lon="-3.73686">
        <ele>618.8</ele>
        <time>2022-12-31 10:35:02</time>
      </trkpt>
      <trkpt lat="40.09619" lon="-3.73686">
        <ele>618.8</ele>
        <time>2022-12-31 10:35:03</time>
      </trkpt>
      <trkpt lat="40.09625" lon="-3.73686">
        <ele>618.8</ele>
        <time>2022-12-31 10:35:04</time>
      </trkpt>
      <trkpt lat="40.09631" lon="-3.73687">
        <ele>618.6</ele>
        <time>2022-12-31 10:35:05</time>
      </trkpt>
      <trkpt lat="40.09638" lon="-3.73687">
        <ele>618.6</ele>
        <time>2022-12-31 10:35:06</time>
      </trkpt>
      <trkpt lat="40.09644" lon="-3.73688">
        <ele>618.8</ele>
        <time>2022-12-31 10:35:07</time>
      </trkpt>
      <trkpt lat="40.0965" lon="-3.73688">
        <ele>618.6</ele>
        <time>2022-12-31 10:35:08</time>
      </trkpt>
      <trkpt lat="40.09656" lon="-3.7369">
        <ele>618.4</ele>
        <time>2022-12-31 10:35:09</time>
      </trkpt>
      <trkpt lat="40.09661" lon="-3.73691">
        <ele>618.4</ele>
        <time>2022-12-31 10:35:10</time>
      </trkpt>
      <trkpt lat="40.09667" lon="-3.73692">
        <ele>617.8</ele>
        <time>2022-12-31 10:35:11</time>
      </trkpt>
      <trkpt lat="40.09673" lon="-3.73693">
        <ele>617.6</ele>
        <time>2022-12-31 10:35:12</time>
      </trkpt>
      <trkpt lat="40.09679" lon="-3.73694">
        <ele>617.2</ele>
        <time>2022-12-31 10:35:13</time>
      </trkpt>
      <trkpt lat="40.09685" lon="-3.73695">
        <ele>616.8</ele>
        <time>2022-12-31 10:35:14</time>
      </trkpt>
      <trkpt lat="40.09691" lon="-3.73696">
        <ele>616.6</ele>
        <time>2022-12-31 10:35:15</time>
      </trkpt>
      <trkpt lat="40.09698" lon="-3.73696">
        <ele>616.2</ele>
        <time>2022-12-31 10:35:16</time>
      </trkpt>
      <trkpt lat="40.09704" lon="-3.73696">
        <ele>616.2</ele>
        <time>2022-12-31 10:35:17</time>
      </trkpt>
      <trkpt lat="40.0971" lon="-3.73696">
        <ele>616</ele>
        <time>2022-12-31 10:35:18</time>
      </trkpt>
      <trkpt lat="40.09716" lon="-3.73697">
        <ele>615.8</ele>
        <time>2022-12-31 10:35:19</time>
      </trkpt>
      <trkpt lat="40.09723" lon="-3.73697">
        <ele>615.8</ele>
        <time>2022-12-31 10:35:20</time>
      </trkpt>
      <trkpt lat="40.09729" lon="-3.73698">
        <ele>615.6</ele>
        <time>2022-12-31 10:35:21</time>
      </trkpt>
      <trkpt lat="40.09734" lon="-3.73698">
        <ele>615.6</ele>
        <time>2022-12-31 10:35:22</time>
      </trkpt>
      <trkpt lat="40.0974" lon="-3.73699">
        <ele>615.6</ele>
        <time>2022-12-31 10:35:23</time>
      </trkpt>
      <trkpt lat="40.09746" lon="-3.73699">
        <ele>615.4</ele>
        <time>2022-12-31 10:35:24</time>
      </trkpt>
      <trkpt lat="40.09751" lon="-3.737">
        <ele>615.4</ele>
        <time>2022-12-31 10:35:25</time>
      </trkpt>
      <trkpt lat="40.09757" lon="-3.737">
        <ele>615.4</ele>
        <time>2022-12-31 10:35:26</time>
      </trkpt>
      <trkpt lat="40.09762" lon="-3.73701">
        <ele>615.6</ele>
        <time>2022-12-31 10:35:27</time>
      </trkpt>
      <trkpt lat="40.09767" lon="-3.73702">
        <ele>615.6</ele>
        <time>2022-12-31 10:35:28</time>
      </trkpt>
      <trkpt lat="40.09773" lon="-3.73702">
        <ele>615.8</ele>
        <time>2022-12-31 10:35:29</time>
      </trkpt>
      <trkpt lat="40.09779" lon="-3.73703">
        <ele>615.6</ele>
        <time>2022-12-31 10:35:30</time>
      </trkpt>
      <trkpt lat="40.09784" lon="-3.73703">
        <ele>616</ele>
        <time>2022-12-31 10:35:31</time>
      </trkpt>
      <trkpt lat="40.0979" lon="-3.73704">
        <ele>616</ele>
        <time>2022-12-31 10:35:32</time>
      </trkpt>
      <trkpt lat="40.09795" lon="-3.73704">
        <ele>616</ele>
        <time>2022-12-31 10:35:33</time>
      </trkpt>
      <trkpt lat="40.098" lon="-3.73705">
        <ele>616.2</ele>
        <time>2022-12-31 10:35:34</time>
      </trkpt>
      <trkpt lat="40.09805" lon="-3.73706">
        <ele>616.2</ele>
        <time>2022-12-31 10:35:35</time>
      </trkpt>
      <trkpt lat="40.0981" lon="-3.73706">
        <ele>616.2</ele>
        <time>2022-12-31 10:35:36</time>
      </trkpt>
      <trkpt lat="40.09815" lon="-3.73707">
        <ele>616.2</ele>
        <time>2022-12-31 10:35:37</time>
      </trkpt>
      <trkpt lat="40.0982" lon="-3.73707">
        <ele>616.6</ele>
        <time>2022-12-31 10:35:38</time>
      </trkpt>
      <trkpt lat="40.09825" lon="-3.73707">
        <ele>616.6</ele>
        <time>2022-12-31 10:35:39</time>
      </trkpt>
      <trkpt lat="40.0983" lon="-3.73707">
        <ele>616.8</ele>
        <time>2022-12-31 10:35:40</time>
      </trkpt>
      <trkpt lat="40.09836" lon="-3.73707">
        <ele>616.6</ele>
        <time>2022-12-31 10:35:41</time>
      </trkpt>
      <trkpt lat="40.09841" lon="-3.73706">
        <ele>616.8</ele>
        <time>2022-12-31 10:35:42</time>
      </trkpt>
      <trkpt lat="40.09846" lon="-3.73706">
        <ele>616.8</ele>
        <time>2022-12-31 10:35:43</time>
      </trkpt>
      <trkpt lat="40.09851" lon="-3.73705">
        <ele>617</ele>
        <time>2022-12-31 10:35:44</time>
      </trkpt>
      <trkpt lat="40.09857" lon="-3.73704">
        <ele>617</ele>
        <time>2022-12-31 10:35:45</time>
      </trkpt>
      <trkpt lat="40.09861" lon="-3.73703">
        <ele>617</ele>
        <time>2022-12-31 10:35:46</time>
      </trkpt>
      <trkpt lat="40.09866" lon="-3.73702">
        <ele>617.2</ele>
        <time>2022-12-31 10:35:47</time>
      </trkpt>
      <trkpt lat="40.09871" lon="-3.73701">
        <ele>617.2</ele>
        <time>2022-12-31 10:35:48</time>
      </trkpt>
      <trkpt lat="40.09876" lon="-3.73699">
        <ele>617.2</ele>
        <time>2022-12-31 10:35:49</time>
      </trkpt>
      <trkpt lat="40.09881" lon="-3.73698">
        <ele>617.2</ele>
        <time>2022-12-31 10:35:50</time>
      </trkpt>
      <trkpt lat="40.09886" lon="-3.73696">
        <ele>617</ele>
        <time>2022-12-31 10:35:51</time>
      </trkpt>
      <trkpt lat="40.09891" lon="-3.73694">
        <ele>617.2</ele>
        <time>2022-12-31 10:35:52</time>
      </trkpt>
      <trkpt lat="40.09896" lon="-3.73692">
        <ele>617</ele>
        <time>2022-12-31 10:35:53</time>
      </trkpt>
      <trkpt lat="40.09901" lon="-3.73689">
        <ele>617</ele>
        <time>2022-12-31 10:35:54</time>
      </trkpt>
      <trkpt lat="40.09906" lon="-3.73686">
        <ele>617</ele>
        <time>2022-12-31 10:35:55</time>
      </trkpt>
      <trkpt lat="40.09911" lon="-3.73682">
        <ele>617</ele>
        <time>2022-12-31 10:35:56</time>
      </trkpt>
      <trkpt lat="40.09915" lon="-3.73678">
        <ele>617</ele>
        <time>2022-12-31 10:35:57</time>
      </trkpt>
      <trkpt lat="40.0992" lon="-3.73673">
        <ele>616.8</ele>
        <time>2022-12-31 10:35:58</time>
      </trkpt>
      <trkpt lat="40.09924" lon="-3.73668">
        <ele>616.8</ele>
        <time>2022-12-31 10:35:59</time>
      </trkpt>
      <trkpt lat="40.09929" lon="-3.73663">
        <ele>616.8</ele>
        <time>2022-12-31 10:36:00</time>
      </trkpt>
      <trkpt lat="40.09933" lon="-3.73658">
        <ele>616.8</ele>
        <time>2022-12-31 10:36:01</time>
      </trkpt>
      <trkpt lat="40.09937" lon="-3.73653">
        <ele>616.6</ele>
        <time>2022-12-31 10:36:02</time>
      </trkpt>
      <trkpt lat="40.09941" lon="-3.73648">
        <ele>616.6</ele>
        <time>2022-12-31 10:36:03</time>
      </trkpt>
      <trkpt lat="40.09944" lon="-3.73643">
        <ele>616.4</ele>
        <time>2022-12-31 10:36:04</time>
      </trkpt>
      <trkpt lat="40.09948" lon="-3.73638">
        <ele>616.2</ele>
        <time>2022-12-31 10:36:05</time>
      </trkpt>
      <trkpt lat="40.09952" lon="-3.73634">
        <ele>615.8</ele>
        <time>2022-12-31 10:36:06</time>
      </trkpt>
      <trkpt lat="40.09955" lon="-3.7363">
        <ele>615.8</ele>
        <time>2022-12-31 10:36:07</time>
      </trkpt>
      <trkpt lat="40.09959" lon="-3.73626">
        <ele>615.6</ele>
        <time>2022-12-31 10:36:08</time>
      </trkpt>
      <trkpt lat="40.09962" lon="-3.73622">
        <ele>615.6</ele>
        <time>2022-12-31 10:36:09</time>
      </trkpt>
      <trkpt lat="40.09965" lon="-3.73619">
        <ele>615.4</ele>
        <time>2022-12-31 10:36:10</time>
      </trkpt>
      <trkpt lat="40.09968" lon="-3.73615">
        <ele>615.6</ele>
        <time>2022-12-31 10:36:11</time>
      </trkpt>
      <trkpt lat="40.09971" lon="-3.73611">
        <ele>615.4</ele>
        <time>2022-12-31 10:36:12</time>
      </trkpt>
      <trkpt lat="40.09974" lon="-3.73607">
        <ele>615.4</ele>
        <time>2022-12-31 10:36:13</time>
      </trkpt>
      <trkpt lat="40.09977" lon="-3.73603">
        <ele>615.4</ele>
        <time>2022-12-31 10:36:14</time>
      </trkpt>
      <trkpt lat="40.0998" lon="-3.73599">
        <ele>615.4</ele>
        <time>2022-12-31 10:36:15</time>
      </trkpt>
      <trkpt lat="40.09983" lon="-3.73595">
        <ele>615.4</ele>
        <time>2022-12-31 10:36:16</time>
      </trkpt>
      <trkpt lat="40.09986" lon="-3.73592">
        <ele>615.6</ele>
        <time>2022-12-31 10:36:17</time>
      </trkpt>
      <trkpt lat="40.09989" lon="-3.73589">
        <ele>615.6</ele>
        <time>2022-12-31 10:36:18</time>
      </trkpt>
      <trkpt lat="40.09992" lon="-3.73586">
        <ele>615.6</ele>
        <time>2022-12-31 10:36:19</time>
      </trkpt>
      <trkpt lat="40.09995" lon="-3.73583">
        <ele>615.8</ele>
        <time>2022-12-31 10:36:20</time>
      </trkpt>
      <trkpt lat="40.09998" lon="-3.73579">
        <ele>616</ele>
        <time>2022-12-31 10:36:21</time>
      </trkpt>
      <trkpt lat="40.1" lon="-3.73577">
        <ele>616.2</ele>
        <time>2022-12-31 10:36:22</time>
      </trkpt>
      <trkpt lat="40.10003" lon="-3.73574">
        <ele>616.2</ele>
        <time>2022-12-31 10:36:23</time>
      </trkpt>
      <trkpt lat="40.10005" lon="-3.73572">
        <ele>616.4</ele>
        <time>2022-12-31 10:36:24</time>
      </trkpt>
      <trkpt lat="40.10008" lon="-3.73569">
        <ele>616.4</ele>
        <time>2022-12-31 10:36:25</time>
      </trkpt>
      <trkpt lat="40.1001" lon="-3.73567">
        <ele>616.6</ele>
        <time>2022-12-31 10:36:26</time>
      </trkpt>
      <trkpt lat="40.10013" lon="-3.73564">
        <ele>616.6</ele>
        <time>2022-12-31 10:36:27</time>
      </trkpt>
      <trkpt lat="40.10016" lon="-3.73561">
        <ele>617.2</ele>
        <time>2022-12-31 10:36:28</time>
      </trkpt>
      <trkpt lat="40.10019" lon="-3.73558">
        <ele>617.4</ele>
        <time>2022-12-31 10:36:29</time>
      </trkpt>
      <trkpt lat="40.10021" lon="-3.73556">
        <ele>617.4</ele>
        <time>2022-12-31 10:36:30</time>
      </trkpt>
      <trkpt lat="40.10024" lon="-3.73553">
        <ele>617.6</ele>
        <time>2022-12-31 10:36:31</time>
      </trkpt>
      <trkpt lat="40.10026" lon="-3.73551">
        <ele>617.8</ele>
        <time>2022-12-31 10:36:32</time>
      </trkpt>
      <trkpt lat="40.10029" lon="-3.73549">
        <ele>618.2</ele>
        <time>2022-12-31 10:36:33</time>
      </trkpt>
      <trkpt lat="40.10031" lon="-3.73547">
        <ele>618.4</ele>
        <time>2022-12-31 10:36:34</time>
      </trkpt>
      <trkpt lat="40.10034" lon="-3.73544">
        <ele>618.6</ele>
        <time>2022-12-31 10:36:35</time>
      </trkpt>
      <trkpt lat="40.10036" lon="-3.73542">
        <ele>619</ele>
        <time>2022-12-31 10:36:36</time>
      </trkpt>
      <trkpt lat="40.10039" lon="-3.73539">
        <ele>619.2</ele>
        <time>2022-12-31 10:36:37</time>
      </trkpt>
      <trkpt lat="40.10041" lon="-3.73537">
        <ele>619.6</ele>
        <time>2022-12-31 10:36:38</time>
      </trkpt>
      <trkpt lat="40.10044" lon="-3.73534">
        <ele>620</ele>
        <time>2022-12-31 10:36:39</time>
      </trkpt>
      <trkpt lat="40.10046" lon="-3.73532">
        <ele>620.2</ele>
        <time>2022-12-31 10:36:40</time>
      </trkpt>
      <trkpt lat="40.10049" lon="-3.7353">
        <ele>620.8</ele>
        <time>2022-12-31 10:36:41</time>
      </trkpt>
      <trkpt lat="40.10051" lon="-3.73528">
        <ele>621</ele>
        <time>2022-12-31 10:36:42</time>
      </trkpt>
      <trkpt lat="40.10054" lon="-3.73527">
        <ele>621.6</ele>
        <time>2022-12-31 10:36:43</time>
      </trkpt>
      <trkpt lat="40.10057" lon="-3.73526">
        <ele>621.6</ele>
        <time>2022-12-31 10:36:44</time>
      </trkpt>
      <trkpt lat="40.1006" lon="-3.73525">
        <ele>621.8</ele>
        <time>2022-12-31 10:36:45</time>
      </trkpt>
      <trkpt lat="40.10063" lon="-3.73523">
        <ele>621.8</ele>
        <time>2022-12-31 10:36:46</time>
      </trkpt>
      <trkpt lat="40.10066" lon="-3.73521">
        <ele>621.8</ele>
        <time>2022-12-31 10:36:47</time>
      </trkpt>
      <trkpt lat="40.1007" lon="-3.73519">
        <ele>621.8</ele>
        <time>2022-12-31 10:36:48</time>
      </trkpt>
      <trkpt lat="40.10075" lon="-3.73517">
        <ele>621.8</ele>
        <time>2022-12-31 10:36:49</time>
      </trkpt>
      <trkpt lat="40.10079" lon="-3.73516">
        <ele>621.8</ele>
        <time>2022-12-31 10:36:50</time>
      </trkpt>
      <trkpt lat="40.10084" lon="-3.73514">
        <ele>621.8</ele>
        <time>2022-12-31 10:36:51</time>
      </trkpt>
      <trkpt lat="40.10088" lon="-3.73513">
        <ele>621.8</ele>
        <time>2022-12-31 10:36:52</time>
      </trkpt>
      <trkpt lat="40.10093" lon="-3.73511">
        <ele>621.8</ele>
        <time>2022-12-31 10:36:53</time>
      </trkpt>
      <trkpt lat="40.10098" lon="-3.7351">
        <ele>621.8</ele>
        <time>2022-12-31 10:36:54</time>
      </trkpt>
      <trkpt lat="40.10102" lon="-3.73509">
        <ele>622</ele>
        <time>2022-12-31 10:36:55</time>
      </trkpt>
      <trkpt lat="40.10107" lon="-3.73508">
        <ele>621.8</ele>
        <time>2022-12-31 10:36:56</time>
      </trkpt>
      <trkpt lat="40.10113" lon="-3.73507">
        <ele>621.2</ele>
        <time>2022-12-31 10:36:57</time>
      </trkpt>
      <trkpt lat="40.10118" lon="-3.73506">
        <ele>620.8</ele>
        <time>2022-12-31 10:36:58</time>
      </trkpt>
      <trkpt lat="40.10123" lon="-3.73505">
        <ele>620.4</ele>
        <time>2022-12-31 10:36:59</time>
      </trkpt>
      <trkpt lat="40.10128" lon="-3.73503">
        <ele>620.2</ele>
        <time>2022-12-31 10:37:00</time>
      </trkpt>
      <trkpt lat="40.10133" lon="-3.73502">
        <ele>620</ele>
        <time>2022-12-31 10:37:01</time>
      </trkpt>
      <trkpt lat="40.10138" lon="-3.73501">
        <ele>619.6</ele>
        <time>2022-12-31 10:37:02</time>
      </trkpt>
      <trkpt lat="40.10143" lon="-3.735">
        <ele>619.4</ele>
        <time>2022-12-31 10:37:03</time>
      </trkpt>
      <trkpt lat="40.10147" lon="-3.735">
        <ele>619.2</ele>
        <time>2022-12-31 10:37:04</time>
      </trkpt>
      <trkpt lat="40.1015" lon="-3.735">
        <ele>619</ele>
        <time>2022-12-31 10:37:05</time>
      </trkpt>
      <trkpt lat="40.10154" lon="-3.735">
        <ele>618.8</ele>
        <time>2022-12-31 10:37:06</time>
      </trkpt>
      <trkpt lat="40.10157" lon="-3.73499">
        <ele>618.8</ele>
        <time>2022-12-31 10:37:07</time>
      </trkpt>
      <trkpt lat="40.10161" lon="-3.73498">
        <ele>618.8</ele>
        <time>2022-12-31 10:37:08</time>
      </trkpt>
      <trkpt lat="40.10164" lon="-3.73497">
        <ele>618.6</ele>
        <time>2022-12-31 10:37:09</time>
      </trkpt>
      <trkpt lat="40.10167" lon="-3.73495">
        <ele>618.6</ele>
        <time>2022-12-31 10:37:10</time>
      </trkpt>
      <trkpt lat="40.10171" lon="-3.73494">
        <ele>618.4</ele>
        <time>2022-12-31 10:37:11</time>
      </trkpt>
      <trkpt lat="40.10175" lon="-3.73492">
        <ele>618.4</ele>
        <time>2022-12-31 10:37:12</time>
      </trkpt>
      <trkpt lat="40.10179" lon="-3.73491">
        <ele>618.2</ele>
        <time>2022-12-31 10:37:13</time>
      </trkpt>
      <trkpt lat="40.10183" lon="-3.7349">
        <ele>618.2</ele>
        <time>2022-12-31 10:37:14</time>
      </trkpt>
      <trkpt lat="40.10187" lon="-3.73488">
        <ele>618.2</ele>
        <time>2022-12-31 10:37:15</time>
      </trkpt>
      <trkpt lat="40.10191" lon="-3.73487">
        <ele>618</ele>
        <time>2022-12-31 10:37:16</time>
      </trkpt>
      <trkpt lat="40.10195" lon="-3.73485">
        <ele>618</ele>
        <time>2022-12-31 10:37:17</time>
      </trkpt>
      <trkpt lat="40.10198" lon="-3.73484">
        <ele>618.2</ele>
        <time>2022-12-31 10:37:18</time>
      </trkpt>
      <trkpt lat="40.10202" lon="-3.73482">
        <ele>618</ele>
        <time>2022-12-31 10:37:19</time>
      </trkpt>
      <trkpt lat="40.10206" lon="-3.73481">
        <ele>618</ele>
        <time>2022-12-31 10:37:20</time>
      </trkpt>
      <trkpt lat="40.1021" lon="-3.7348">
        <ele>618</ele>
        <time>2022-12-31 10:37:21</time>
      </trkpt>
      <trkpt lat="40.10214" lon="-3.73479">
        <ele>618</ele>
        <time>2022-12-31 10:37:22</time>
      </trkpt>
      <trkpt lat="40.10218" lon="-3.73477">
        <ele>618</ele>
        <time>2022-12-31 10:37:23</time>
      </trkpt>
      <trkpt lat="40.10222" lon="-3.73476">
        <ele>618</ele>
        <time>2022-12-31 10:37:24</time>
      </trkpt>
      <trkpt lat="40.10227" lon="-3.73474">
        <ele>618</ele>
        <time>2022-12-31 10:37:25</time>
      </trkpt>
      <trkpt lat="40.1023" lon="-3.73473">
        <ele>618</ele>
        <time>2022-12-31 10:37:26</time>
      </trkpt>
      <trkpt lat="40.10234" lon="-3.73472">
        <ele>618</ele>
        <time>2022-12-31 10:37:27</time>
      </trkpt>
      <trkpt lat="40.10238" lon="-3.7347">
        <ele>618</ele>
        <time>2022-12-31 10:37:28</time>
      </trkpt>
      <trkpt lat="40.10242" lon="-3.73469">
        <ele>618</ele>
        <time>2022-12-31 10:37:29</time>
      </trkpt>
      <trkpt lat="40.10246" lon="-3.73467">
        <ele>618.2</ele>
        <time>2022-12-31 10:37:30</time>
      </trkpt>
      <trkpt lat="40.1025" lon="-3.73466">
        <ele>618.6</ele>
        <time>2022-12-31 10:37:31</time>
      </trkpt>
      <trkpt lat="40.10254" lon="-3.73465">
        <ele>618.6</ele>
        <time>2022-12-31 10:37:32</time>
      </trkpt>
      <trkpt lat="40.10258" lon="-3.73464">
        <ele>618.8</ele>
        <time>2022-12-31 10:37:33</time>
      </trkpt>
      <trkpt lat="40.10262" lon="-3.73463">
        <ele>619</ele>
        <time>2022-12-31 10:37:34</time>
      </trkpt>
      <trkpt lat="40.10266" lon="-3.73463">
        <ele>618.8</ele>
        <time>2022-12-31 10:37:35</time>
      </trkpt>
      <trkpt lat="40.1027" lon="-3.73462">
        <ele>619</ele>
        <time>2022-12-31 10:37:36</time>
      </trkpt>
      <trkpt lat="40.10274" lon="-3.73461">
        <ele>619.2</ele>
        <time>2022-12-31 10:37:37</time>
      </trkpt>
      <trkpt lat="40.10277" lon="-3.7346">
        <ele>619.2</ele>
        <time>2022-12-31 10:37:38</time>
      </trkpt>
      <trkpt lat="40.10281" lon="-3.73459">
        <ele>619.4</ele>
        <time>2022-12-31 10:37:39</time>
      </trkpt>
      <trkpt lat="40.10285" lon="-3.73458">
        <ele>619.4</ele>
        <time>2022-12-31 10:37:40</time>
      </trkpt>
      <trkpt lat="40.10289" lon="-3.73458">
        <ele>619.6</ele>
        <time>2022-12-31 10:37:41</time>
      </trkpt>
      <trkpt lat="40.10292" lon="-3.73457">
        <ele>619.6</ele>
        <time>2022-12-31 10:37:42</time>
      </trkpt>
      <trkpt lat="40.10296" lon="-3.73456">
        <ele>619.8</ele>
        <time>2022-12-31 10:37:43</time>
      </trkpt>
      <trkpt lat="40.10299" lon="-3.73455">
        <ele>619.8</ele>
        <time>2022-12-31 10:37:44</time>
      </trkpt>
      <trkpt lat="40.10303" lon="-3.73454">
        <ele>620</ele>
        <time>2022-12-31 10:37:45</time>
      </trkpt>
      <trkpt lat="40.10306" lon="-3.73454">
        <ele>620.4</ele>
        <time>2022-12-31 10:37:46</time>
      </trkpt>
      <trkpt lat="40.10309" lon="-3.73453">
        <ele>620.6</ele>
        <time>2022-12-31 10:37:47</time>
      </trkpt>
      <trkpt lat="40.10312" lon="-3.73452">
        <ele>620.8</ele>
        <time>2022-12-31 10:37:48</time>
      </trkpt>
      <trkpt lat="40.10315" lon="-3.73451">
        <ele>621</ele>
        <time>2022-12-31 10:37:49</time>
      </trkpt>
      <trkpt lat="40.10318" lon="-3.73449">
        <ele>621</ele>
        <time>2022-12-31 10:37:50</time>
      </trkpt>
      <trkpt lat="40.10321" lon="-3.73448">
        <ele>621.2</ele>
        <time>2022-12-31 10:37:51</time>
      </trkpt>
      <trkpt lat="40.10324" lon="-3.73447">
        <ele>621.6</ele>
        <time>2022-12-31 10:37:52</time>
      </trkpt>
      <trkpt lat="40.10326" lon="-3.73446">
        <ele>621.8</ele>
        <time>2022-12-31 10:37:53</time>
      </trkpt>
      <trkpt lat="40.10329" lon="-3.73444">
        <ele>622</ele>
        <time>2022-12-31 10:37:54</time>
      </trkpt>
      <trkpt lat="40.10331" lon="-3.73443">
        <ele>622.2</ele>
        <time>2022-12-31 10:37:55</time>
      </trkpt>
      <trkpt lat="40.10333" lon="-3.73441">
        <ele>622.6</ele>
        <time>2022-12-31 10:37:56</time>
      </trkpt>
      <trkpt lat="40.10335" lon="-3.73439">
        <ele>623</ele>
        <time>2022-12-31 10:37:57</time>
      </trkpt>
      <trkpt lat="40.10337" lon="-3.73437">
        <ele>623.2</ele>
        <time>2022-12-31 10:37:58</time>
      </trkpt>
      <trkpt lat="40.1034" lon="-3.73435">
        <ele>623.6</ele>
        <time>2022-12-31 10:37:59</time>
      </trkpt>
      <trkpt lat="40.10342" lon="-3.73433">
        <ele>623.8</ele>
        <time>2022-12-31 10:38:00</time>
      </trkpt>
      <trkpt lat="40.10344" lon="-3.73431">
        <ele>624</ele>
        <time>2022-12-31 10:38:01</time>
      </trkpt>
      <trkpt lat="40.10347" lon="-3.73429">
        <ele>624.4</ele>
        <time>2022-12-31 10:38:02</time>
      </trkpt>
      <trkpt lat="40.1035" lon="-3.73427">
        <ele>625</ele>
        <time>2022-12-31 10:38:03</time>
      </trkpt>
      <trkpt lat="40.10352" lon="-3.73425">
        <ele>625.4</ele>
        <time>2022-12-31 10:38:04</time>
      </trkpt>
      <trkpt lat="40.10355" lon="-3.73422">
        <ele>625.6</ele>
        <time>2022-12-31 10:38:05</time>
      </trkpt>
      <trkpt lat="40.10358" lon="-3.7342">
        <ele>626</ele>
        <time>2022-12-31 10:38:06</time>
      </trkpt>
      <trkpt lat="40.10361" lon="-3.73418">
        <ele>626.2</ele>
        <time>2022-12-31 10:38:07</time>
      </trkpt>
      <trkpt lat="40.10364" lon="-3.73416">
        <ele>626.4</ele>
        <time>2022-12-31 10:38:08</time>
      </trkpt>
      <trkpt lat="40.10367" lon="-3.73414">
        <ele>626.6</ele>
        <time>2022-12-31 10:38:09</time>
      </trkpt>
      <trkpt lat="40.1037" lon="-3.73412">
        <ele>626.4</ele>
        <time>2022-12-31 10:38:10</time>
      </trkpt>
      <trkpt lat="40.10373" lon="-3.7341">
        <ele>626.4</ele>
        <time>2022-12-31 10:38:11</time>
      </trkpt>
      <trkpt lat="40.10376" lon="-3.73408">
        <ele>626.6</ele>
        <time>2022-12-31 10:38:12</time>
      </trkpt>
      <trkpt lat="40.10379" lon="-3.73407">
        <ele>626.6</ele>
        <time>2022-12-31 10:38:13</time>
      </trkpt>
      <trkpt lat="40.10383" lon="-3.73405">
        <ele>626.6</ele>
        <time>2022-12-31 10:38:14</time>
      </trkpt>
      <trkpt lat="40.10386" lon="-3.73403">
        <ele>626.6</ele>
        <time>2022-12-31 10:38:15</time>
      </trkpt>
      <trkpt lat="40.10389" lon="-3.73401">
        <ele>626.6</ele>
        <time>2022-12-31 10:38:16</time>
      </trkpt>
      <trkpt lat="40.10393" lon="-3.73398">
        <ele>626.6</ele>
        <time>2022-12-31 10:38:17</time>
      </trkpt>
      <trkpt lat="40.10396" lon="-3.73396">
        <ele>626.6</ele>
        <time>2022-12-31 10:38:18</time>
      </trkpt>
      <trkpt lat="40.10399" lon="-3.73394">
        <ele>626.8</ele>
        <time>2022-12-31 10:38:19</time>
      </trkpt>
      <trkpt lat="40.10402" lon="-3.73393">
        <ele>626.6</ele>
        <time>2022-12-31 10:38:20</time>
      </trkpt>
      <trkpt lat="40.10404" lon="-3.73392">
        <ele>626.6</ele>
        <time>2022-12-31 10:38:21</time>
      </trkpt>
      <trkpt lat="40.10406" lon="-3.73392">
        <ele>626.8</ele>
        <time>2022-12-31 10:38:22</time>
      </trkpt>
      <trkpt lat="40.10408" lon="-3.73393">
        <ele>626.6</ele>
        <time>2022-12-31 10:38:23</time>
      </trkpt>
      <trkpt lat="40.1041" lon="-3.73394">
        <ele>626.6</ele>
        <time>2022-12-31 10:38:24</time>
      </trkpt>
      <trkpt lat="40.10412" lon="-3.73395">
        <ele>626.6</ele>
        <time>2022-12-31 10:38:25</time>
      </trkpt>
      <trkpt lat="40.10415" lon="-3.73396">
        <ele>626.6</ele>
        <time>2022-12-31 10:38:26</time>
      </trkpt>
      <trkpt lat="40.10417" lon="-3.73396">
        <ele>626.4</ele>
        <time>2022-12-31 10:38:27</time>
      </trkpt>
      <trkpt lat="40.1042" lon="-3.73396">
        <ele>626.2</ele>
        <time>2022-12-31 10:38:28</time>
      </trkpt>
      <trkpt lat="40.10422" lon="-3.73396">
        <ele>626.4</ele>
        <time>2022-12-31 10:38:29</time>
      </trkpt>
      <trkpt lat="40.10426" lon="-3.73397">
        <ele>626.2</ele>
        <time>2022-12-31 10:38:30</time>
      </trkpt>
      <trkpt lat="40.1043" lon="-3.73398">
        <ele>626.2</ele>
        <time>2022-12-31 10:38:31</time>
      </trkpt>
      <trkpt lat="40.10434" lon="-3.73397">
        <ele>626</ele>
        <time>2022-12-31 10:38:32</time>
      </trkpt>
      <trkpt lat="40.10439" lon="-3.73396">
        <ele>626.2</ele>
        <time>2022-12-31 10:38:33</time>
      </trkpt>
      <trkpt lat="40.10443" lon="-3.73394">
        <ele>626</ele>
        <time>2022-12-31 10:38:34</time>
      </trkpt>
      <trkpt lat="40.10448" lon="-3.73391">
        <ele>626</ele>
        <time>2022-12-31 10:38:35</time>
      </trkpt>
      <trkpt lat="40.10454" lon="-3.73389">
        <ele>626</ele>
        <time>2022-12-31 10:38:36</time>
      </trkpt>
      <trkpt lat="40.1046" lon="-3.73386">
        <ele>626</ele>
        <time>2022-12-31 10:38:37</time>
      </trkpt>
      <trkpt lat="40.10465" lon="-3.73383">
        <ele>625.6</ele>
        <time>2022-12-31 10:38:38</time>
      </trkpt>
      <trkpt lat="40.10471" lon="-3.73379">
        <ele>625.4</ele>
        <time>2022-12-31 10:38:39</time>
      </trkpt>
      <trkpt lat="40.10476" lon="-3.73375">
        <ele>624.8</ele>
        <time>2022-12-31 10:38:40</time>
      </trkpt>
      <trkpt lat="40.1048" lon="-3.73372">
        <ele>624.2</ele>
        <time>2022-12-31 10:38:41</time>
      </trkpt>
      <trkpt lat="40.10484" lon="-3.73368">
        <ele>623.4</ele>
        <time>2022-12-31 10:38:42</time>
      </trkpt>
      <trkpt lat="40.10489" lon="-3.73364">
        <ele>623.2</ele>
        <time>2022-12-31 10:38:43</time>
      </trkpt>
      <trkpt lat="40.10493" lon="-3.73361">
        <ele>622.4</ele>
        <time>2022-12-31 10:38:44</time>
      </trkpt>
      <trkpt lat="40.10497" lon="-3.73357">
        <ele>622</ele>
        <time>2022-12-31 10:38:45</time>
      </trkpt>
      <trkpt lat="40.10501" lon="-3.73355">
        <ele>621.8</ele>
        <time>2022-12-31 10:38:46</time>
      </trkpt>
      <trkpt lat="40.10505" lon="-3.73352">
        <ele>621.6</ele>
        <time>2022-12-31 10:38:47</time>
      </trkpt>
      <trkpt lat="40.10508" lon="-3.73351">
        <ele>621.6</ele>
        <time>2022-12-31 10:38:48</time>
      </trkpt>
      <trkpt lat="40.10512" lon="-3.73349">
        <ele>621.6</ele>
        <time>2022-12-31 10:38:49</time>
      </trkpt>
      <trkpt lat="40.10515" lon="-3.73348">
        <ele>621.4</ele>
        <time>2022-12-31 10:38:50</time>
      </trkpt>
      <trkpt lat="40.10518" lon="-3.73347">
        <ele>621.4</ele>
        <time>2022-12-31 10:38:51</time>
      </trkpt>
      <trkpt lat="40.10521" lon="-3.73347">
        <ele>621.6</ele>
        <time>2022-12-31 10:38:52</time>
      </trkpt>
      <trkpt lat="40.10524" lon="-3.73346">
        <ele>621.6</ele>
        <time>2022-12-31 10:38:53</time>
      </trkpt>
      <trkpt lat="40.10526" lon="-3.73346">
        <ele>621.6</ele>
        <time>2022-12-31 10:38:54</time>
      </trkpt>
      <trkpt lat="40.10529" lon="-3.73346">
        <ele>621.6</ele>
        <time>2022-12-31 10:38:55</time>
      </trkpt>
      <trkpt lat="40.10532" lon="-3.73346">
        <ele>621.6</ele>
        <time>2022-12-31 10:38:56</time>
      </trkpt>
      <trkpt lat="40.10535" lon="-3.73346">
        <ele>622.2</ele>
        <time>2022-12-31 10:38:57</time>
      </trkpt>
      <trkpt lat="40.10537" lon="-3.73346">
        <ele>622.6</ele>
        <time>2022-12-31 10:38:58</time>
      </trkpt>
      <trkpt lat="40.1054" lon="-3.73346">
        <ele>623</ele>
        <time>2022-12-31 10:38:59</time>
      </trkpt>
      <trkpt lat="40.10542" lon="-3.73347">
        <ele>623.4</ele>
        <time>2022-12-31 10:39:00</time>
      </trkpt>
      <trkpt lat="40.10545" lon="-3.73348">
        <ele>623.8</ele>
        <time>2022-12-31 10:39:01</time>
      </trkpt>
      <trkpt lat="40.10547" lon="-3.73348">
        <ele>624.4</ele>
        <time>2022-12-31 10:39:02</time>
      </trkpt>
      <trkpt lat="40.1055" lon="-3.73349">
        <ele>625</ele>
        <time>2022-12-31 10:39:03</time>
      </trkpt>
      <trkpt lat="40.10553" lon="-3.73349">
        <ele>625.4</ele>
        <time>2022-12-31 10:39:04</time>
      </trkpt>
      <trkpt lat="40.10556" lon="-3.7335">
        <ele>625.8</ele>
        <time>2022-12-31 10:39:05</time>
      </trkpt>
      <trkpt lat="40.10558" lon="-3.7335">
        <ele>626.2</ele>
        <time>2022-12-31 10:39:06</time>
      </trkpt>
      <trkpt lat="40.10561" lon="-3.73351">
        <ele>626.4</ele>
        <time>2022-12-31 10:39:07</time>
      </trkpt>
      <trkpt lat="40.10564" lon="-3.73351">
        <ele>626.8</ele>
        <time>2022-12-31 10:39:08</time>
      </trkpt>
      <trkpt lat="40.10567" lon="-3.73351">
        <ele>627.2</ele>
        <time>2022-12-31 10:39:09</time>
      </trkpt>
      <trkpt lat="40.10569" lon="-3.73351">
        <ele>627.4</ele>
        <time>2022-12-31 10:39:10</time>
      </trkpt>
      <trkpt lat="40.10572" lon="-3.73351">
        <ele>627.8</ele>
        <time>2022-12-31 10:39:11</time>
      </trkpt>
      <trkpt lat="40.10574" lon="-3.73351">
        <ele>627.8</ele>
        <time>2022-12-31 10:39:12</time>
      </trkpt>
      <trkpt lat="40.10577" lon="-3.73351">
        <ele>628</ele>
        <time>2022-12-31 10:39:13</time>
      </trkpt>
      <trkpt lat="40.10579" lon="-3.73352">
        <ele>628.4</ele>
        <time>2022-12-31 10:39:14</time>
      </trkpt>
      <trkpt lat="40.10582" lon="-3.73352">
        <ele>628.8</ele>
        <time>2022-12-31 10:39:15</time>
      </trkpt>
      <trkpt lat="40.10584" lon="-3.73352">
        <ele>629</ele>
        <time>2022-12-31 10:39:16</time>
      </trkpt>
      <trkpt lat="40.10587" lon="-3.73353">
        <ele>629.4</ele>
        <time>2022-12-31 10:39:17</time>
      </trkpt>
      <trkpt lat="40.10589" lon="-3.73353">
        <ele>629.6</ele>
        <time>2022-12-31 10:39:18</time>
      </trkpt>
      <trkpt lat="40.10592" lon="-3.73354">
        <ele>630</ele>
        <time>2022-12-31 10:39:19</time>
      </trkpt>
      <trkpt lat="40.10594" lon="-3.73354">
        <ele>630.2</ele>
        <time>2022-12-31 10:39:20</time>
      </trkpt>
      <trkpt lat="40.10597" lon="-3.73354">
        <ele>630.4</ele>
        <time>2022-12-31 10:39:21</time>
      </trkpt>
      <trkpt lat="40.106" lon="-3.73355">
        <ele>630.8</ele>
        <time>2022-12-31 10:39:22</time>
      </trkpt>
      <trkpt lat="40.10602" lon="-3.73355">
        <ele>631.2</ele>
        <time>2022-12-31 10:39:23</time>
      </trkpt>
      <trkpt lat="40.10605" lon="-3.73356">
        <ele>631.4</ele>
        <time>2022-12-31 10:39:24</time>
      </trkpt>
      <trkpt lat="40.10607" lon="-3.73357">
        <ele>631.6</ele>
        <time>2022-12-31 10:39:25</time>
      </trkpt>
      <trkpt lat="40.1061" lon="-3.73358">
        <ele>631.8</ele>
        <time>2022-12-31 10:39:26</time>
      </trkpt>
      <trkpt lat="40.10612" lon="-3.73358">
        <ele>632.2</ele>
        <time>2022-12-31 10:39:27</time>
      </trkpt>
      <trkpt lat="40.10614" lon="-3.73359">
        <ele>632.6</ele>
        <time>2022-12-31 10:39:28</time>
      </trkpt>
      <trkpt lat="40.10617" lon="-3.7336">
        <ele>632.8</ele>
        <time>2022-12-31 10:39:29</time>
      </trkpt>
      <trkpt lat="40.10619" lon="-3.73361">
        <ele>633</ele>
        <time>2022-12-31 10:39:30</time>
      </trkpt>
      <trkpt lat="40.10622" lon="-3.73361">
        <ele>633.4</ele>
        <time>2022-12-31 10:39:31</time>
      </trkpt>
      <trkpt lat="40.10624" lon="-3.73361">
        <ele>633.4</ele>
        <time>2022-12-31 10:39:32</time>
      </trkpt>
      <trkpt lat="40.10626" lon="-3.73362">
        <ele>633.2</ele>
        <time>2022-12-31 10:39:33</time>
      </trkpt>
      <trkpt lat="40.10628" lon="-3.73363">
        <ele>633.6</ele>
        <time>2022-12-31 10:39:34</time>
      </trkpt>
      <trkpt lat="40.10631" lon="-3.73363">
        <ele>633.6</ele>
        <time>2022-12-31 10:39:35</time>
      </trkpt>
      <trkpt lat="40.10633" lon="-3.73363">
        <ele>634</ele>
        <time>2022-12-31 10:39:36</time>
      </trkpt>
      <trkpt lat="40.10635" lon="-3.73363">
        <ele>634.2</ele>
        <time>2022-12-31 10:39:37</time>
      </trkpt>
      <trkpt lat="40.10637" lon="-3.73364">
        <ele>634.2</ele>
        <time>2022-12-31 10:39:38</time>
      </trkpt>
      <trkpt lat="40.10639" lon="-3.73364">
        <ele>634.6</ele>
        <time>2022-12-31 10:39:39</time>
      </trkpt>
      <trkpt lat="40.10641" lon="-3.73365">
        <ele>635</ele>
        <time>2022-12-31 10:39:40</time>
      </trkpt>
      <trkpt lat="40.10644" lon="-3.73365">
        <ele>635.4</ele>
        <time>2022-12-31 10:39:41</time>
      </trkpt>
      <trkpt lat="40.10646" lon="-3.73364">
        <ele>635.6</ele>
        <time>2022-12-31 10:39:42</time>
      </trkpt>
      <trkpt lat="40.10649" lon="-3.73364">
        <ele>636.2</ele>
        <time>2022-12-31 10:39:43</time>
      </trkpt>
      <trkpt lat="40.10651" lon="-3.73364">
        <ele>636.4</ele>
        <time>2022-12-31 10:39:44</time>
      </trkpt>
      <trkpt lat="40.10654" lon="-3.73364">
        <ele>637</ele>
        <time>2022-12-31 10:39:45</time>
      </trkpt>
      <trkpt lat="40.10656" lon="-3.73364">
        <ele>637.4</ele>
        <time>2022-12-31 10:39:46</time>
      </trkpt>
      <trkpt lat="40.10659" lon="-3.73364">
        <ele>637.6</ele>
        <time>2022-12-31 10:39:47</time>
      </trkpt>
      <trkpt lat="40.10661" lon="-3.73364">
        <ele>637.8</ele>
        <time>2022-12-31 10:39:48</time>
      </trkpt>
      <trkpt lat="40.10664" lon="-3.73365">
        <ele>637.8</ele>
        <time>2022-12-31 10:39:49</time>
      </trkpt>
      <trkpt lat="40.10667" lon="-3.73366">
        <ele>638</ele>
        <time>2022-12-31 10:39:50</time>
      </trkpt>
      <trkpt lat="40.10669" lon="-3.73367">
        <ele>638.2</ele>
        <time>2022-12-31 10:39:51</time>
      </trkpt>
      <trkpt lat="40.10672" lon="-3.73367">
        <ele>638.2</ele>
        <time>2022-12-31 10:39:52</time>
      </trkpt>
      <trkpt lat="40.10674" lon="-3.73368">
        <ele>638.2</ele>
        <time>2022-12-31 10:39:53</time>
      </trkpt>
      <trkpt lat="40.10677" lon="-3.73368">
        <ele>638.2</ele>
        <time>2022-12-31 10:39:54</time>
      </trkpt>
      <trkpt lat="40.10679" lon="-3.73368">
        <ele>638.2</ele>
        <time>2022-12-31 10:39:55</time>
      </trkpt>
      <trkpt lat="40.10682" lon="-3.73368">
        <ele>638.4</ele>
        <time>2022-12-31 10:39:56</time>
      </trkpt>
      <trkpt lat="40.10684" lon="-3.73369">
        <ele>638.6</ele>
        <time>2022-12-31 10:39:57</time>
      </trkpt>
      <trkpt lat="40.10687" lon="-3.73369">
        <ele>638.6</ele>
        <time>2022-12-31 10:39:58</time>
      </trkpt>
      <trkpt lat="40.10689" lon="-3.73369">
        <ele>638.8</ele>
        <time>2022-12-31 10:39:59</time>
      </trkpt>
      <trkpt lat="40.10691" lon="-3.7337">
        <ele>638.8</ele>
        <time>2022-12-31 10:40:00</time>
      </trkpt>
      <trkpt lat="40.10694" lon="-3.7337">
        <ele>639</ele>
        <time>2022-12-31 10:40:01</time>
      </trkpt>
      <trkpt lat="40.10697" lon="-3.73371">
        <ele>639.2</ele>
        <time>2022-12-31 10:40:02</time>
      </trkpt>
      <trkpt lat="40.10699" lon="-3.73372">
        <ele>639.4</ele>
        <time>2022-12-31 10:40:03</time>
      </trkpt>
      <trkpt lat="40.10702" lon="-3.73372">
        <ele>639.4</ele>
        <time>2022-12-31 10:40:04</time>
      </trkpt>
      <trkpt lat="40.10705" lon="-3.73373">
        <ele>639.6</ele>
        <time>2022-12-31 10:40:05</time>
      </trkpt>
      <trkpt lat="40.10708" lon="-3.73373">
        <ele>639.6</ele>
        <time>2022-12-31 10:40:06</time>
      </trkpt>
      <trkpt lat="40.1071" lon="-3.73374">
        <ele>639.8</ele>
        <time>2022-12-31 10:40:07</time>
      </trkpt>
      <trkpt lat="40.10713" lon="-3.73374">
        <ele>640.2</ele>
        <time>2022-12-31 10:40:08</time>
      </trkpt>
      <trkpt lat="40.10715" lon="-3.73374">
        <ele>640.4</ele>
        <time>2022-12-31 10:40:09</time>
      </trkpt>
      <trkpt lat="40.10718" lon="-3.73375">
        <ele>640.4</ele>
        <time>2022-12-31 10:40:10</time>
      </trkpt>
      <trkpt lat="40.1072" lon="-3.73375">
        <ele>640.4</ele>
        <time>2022-12-31 10:40:11</time>
      </trkpt>
      <trkpt lat="40.10723" lon="-3.73375">
        <ele>640.4</ele>
        <time>2022-12-31 10:40:12</time>
      </trkpt>
      <trkpt lat="40.10725" lon="-3.73375">
        <ele>640.6</ele>
        <time>2022-12-31 10:40:13</time>
      </trkpt>
      <trkpt lat="40.10728" lon="-3.73375">
        <ele>640.8</ele>
        <time>2022-12-31 10:40:14</time>
      </trkpt>
      <trkpt lat="40.1073" lon="-3.73375">
        <ele>641</ele>
        <time>2022-12-31 10:40:15</time>
      </trkpt>
      <trkpt lat="40.10733" lon="-3.73375">
        <ele>641.4</ele>
        <time>2022-12-31 10:40:16</time>
      </trkpt>
      <trkpt lat="40.10735" lon="-3.73375">
        <ele>641.4</ele>
        <time>2022-12-31 10:40:17</time>
      </trkpt>
      <trkpt lat="40.10738" lon="-3.73375">
        <ele>641.8</ele>
        <time>2022-12-31 10:40:18</time>
      </trkpt>
      <trkpt lat="40.1074" lon="-3.73375">
        <ele>642</ele>
        <time>2022-12-31 10:40:19</time>
      </trkpt>
      <trkpt lat="40.10743" lon="-3.73376">
        <ele>642.2</ele>
        <time>2022-12-31 10:40:20</time>
      </trkpt>
      <trkpt lat="40.10746" lon="-3.73376">
        <ele>642.4</ele>
        <time>2022-12-31 10:40:21</time>
      </trkpt>
      <trkpt lat="40.10748" lon="-3.73376">
        <ele>642.6</ele>
        <time>2022-12-31 10:40:22</time>
      </trkpt>
      <trkpt lat="40.10751" lon="-3.73376">
        <ele>642.8</ele>
        <time>2022-12-31 10:40:23</time>
      </trkpt>
      <trkpt lat="40.10753" lon="-3.73377">
        <ele>643</ele>
        <time>2022-12-31 10:40:24</time>
      </trkpt>
      <trkpt lat="40.10756" lon="-3.73377">
        <ele>643.2</ele>
        <time>2022-12-31 10:40:25</time>
      </trkpt>
      <trkpt lat="40.10759" lon="-3.73378">
        <ele>643.6</ele>
        <time>2022-12-31 10:40:26</time>
      </trkpt>
      <trkpt lat="40.10761" lon="-3.73378">
        <ele>643.6</ele>
        <time>2022-12-31 10:40:27</time>
      </trkpt>
      <trkpt lat="40.10764" lon="-3.73379">
        <ele>644.2</ele>
        <time>2022-12-31 10:40:28</time>
      </trkpt>
      <trkpt lat="40.10766" lon="-3.73379">
        <ele>644.4</ele>
        <time>2022-12-31 10:40:29</time>
      </trkpt>
      <trkpt lat="40.10769" lon="-3.73379">
        <ele>644.6</ele>
        <time>2022-12-31 10:40:30</time>
      </trkpt>
      <trkpt lat="40.10772" lon="-3.73379">
        <ele>644.8</ele>
        <time>2022-12-31 10:40:31</time>
      </trkpt>
      <trkpt lat="40.10774" lon="-3.7338">
        <ele>645</ele>
        <time>2022-12-31 10:40:32</time>
      </trkpt>
      <trkpt lat="40.10777" lon="-3.7338">
        <ele>645</ele>
        <time>2022-12-31 10:40:33</time>
      </trkpt>
      <trkpt lat="40.10779" lon="-3.7338">
        <ele>645.2</ele>
        <time>2022-12-31 10:40:34</time>
      </trkpt>
      <trkpt lat="40.10782" lon="-3.7338">
        <ele>645.4</ele>
        <time>2022-12-31 10:40:35</time>
      </trkpt>
      <trkpt lat="40.10784" lon="-3.7338">
        <ele>645.6</ele>
        <time>2022-12-31 10:40:36</time>
      </trkpt>
      <trkpt lat="40.10787" lon="-3.7338">
        <ele>646</ele>
        <time>2022-12-31 10:40:37</time>
      </trkpt>
      <trkpt lat="40.10789" lon="-3.73379">
        <ele>646.4</ele>
        <time>2022-12-31 10:40:38</time>
      </trkpt>
      <trkpt lat="40.10792" lon="-3.73379">
        <ele>646.8</ele>
        <time>2022-12-31 10:40:39</time>
      </trkpt>
      <trkpt lat="40.10794" lon="-3.73379">
        <ele>647</ele>
        <time>2022-12-31 10:40:40</time>
      </trkpt>
      <trkpt lat="40.10796" lon="-3.73379">
        <ele>647.2</ele>
        <time>2022-12-31 10:40:41</time>
      </trkpt>
      <trkpt lat="40.10799" lon="-3.73378">
        <ele>647.6</ele>
        <time>2022-12-31 10:40:42</time>
      </trkpt>
      <trkpt lat="40.10802" lon="-3.73377">
        <ele>647.8</ele>
        <time>2022-12-31 10:40:43</time>
      </trkpt>
      <trkpt lat="40.10804" lon="-3.73376">
        <ele>648.2</ele>
        <time>2022-12-31 10:40:44</time>
      </trkpt>
      <trkpt lat="40.10807" lon="-3.73375">
        <ele>648.4</ele>
        <time>2022-12-31 10:40:45</time>
      </trkpt>
      <trkpt lat="40.10809" lon="-3.73373">
        <ele>648.8</ele>
        <time>2022-12-31 10:40:46</time>
      </trkpt>
      <trkpt lat="40.10812" lon="-3.73372">
        <ele>649</ele>
        <time>2022-12-31 10:40:47</time>
      </trkpt>
      <trkpt lat="40.10815" lon="-3.73371">
        <ele>649.4</ele>
        <time>2022-12-31 10:40:48</time>
      </trkpt>
      <trkpt lat="40.10817" lon="-3.7337">
        <ele>649.6</ele>
        <time>2022-12-31 10:40:49</time>
      </trkpt>
      <trkpt lat="40.1082" lon="-3.73368">
        <ele>649.8</ele>
        <time>2022-12-31 10:40:50</time>
      </trkpt>
      <trkpt lat="40.10822" lon="-3.73367">
        <ele>650</ele>
        <time>2022-12-31 10:40:51</time>
      </trkpt>
      <trkpt lat="40.10825" lon="-3.73365">
        <ele>650.4</ele>
        <time>2022-12-31 10:40:52</time>
      </trkpt>
      <trkpt lat="40.10828" lon="-3.73363">
        <ele>650.4</ele>
        <time>2022-12-31 10:40:53</time>
      </trkpt>
      <trkpt lat="40.10832" lon="-3.73361">
        <ele>650.4</ele>
        <time>2022-12-31 10:40:54</time>
      </trkpt>
      <trkpt lat="40.10835" lon="-3.73359">
        <ele>650.8</ele>
        <time>2022-12-31 10:40:55</time>
      </trkpt>
      <trkpt lat="40.10839" lon="-3.73358">
        <ele>650.8</ele>
        <time>2022-12-31 10:40:56</time>
      </trkpt>
      <trkpt lat="40.10843" lon="-3.73356">
        <ele>651</ele>
        <time>2022-12-31 10:40:57</time>
      </trkpt>
      <trkpt lat="40.10847" lon="-3.73354">
        <ele>651</ele>
        <time>2022-12-31 10:40:58</time>
      </trkpt>
      <trkpt lat="40.10852" lon="-3.73352">
        <ele>651</ele>
        <time>2022-12-31 10:40:59</time>
      </trkpt>
      <trkpt lat="40.10857" lon="-3.7335">
        <ele>651</ele>
        <time>2022-12-31 10:41:00</time>
      </trkpt>
      <trkpt lat="40.10862" lon="-3.73349">
        <ele>651.2</ele>
        <time>2022-12-31 10:41:01</time>
      </trkpt>
      <trkpt lat="40.10868" lon="-3.73347">
        <ele>651</ele>
        <time>2022-12-31 10:41:02</time>
      </trkpt>
      <trkpt lat="40.10873" lon="-3.73346">
        <ele>651.2</ele>
        <time>2022-12-31 10:41:03</time>
      </trkpt>
      <trkpt lat="40.10878" lon="-3.73344">
        <ele>651</ele>
        <time>2022-12-31 10:41:04</time>
      </trkpt>
      <trkpt lat="40.10884" lon="-3.73341">
        <ele>651</ele>
        <time>2022-12-31 10:41:05</time>
      </trkpt>
      <trkpt lat="40.1089" lon="-3.73339">
        <ele>651.2</ele>
        <time>2022-12-31 10:41:06</time>
      </trkpt>
      <trkpt lat="40.10895" lon="-3.73337">
        <ele>650.8</ele>
        <time>2022-12-31 10:41:07</time>
      </trkpt>
      <trkpt lat="40.10901" lon="-3.73335">
        <ele>650</ele>
        <time>2022-12-31 10:41:08</time>
      </trkpt>
      <trkpt lat="40.10906" lon="-3.73333">
        <ele>649.6</ele>
        <time>2022-12-31 10:41:09</time>
      </trkpt>
      <trkpt lat="40.10912" lon="-3.73331">
        <ele>649.2</ele>
        <time>2022-12-31 10:41:10</time>
      </trkpt>
      <trkpt lat="40.10917" lon="-3.73328">
        <ele>649</ele>
        <time>2022-12-31 10:41:11</time>
      </trkpt>
      <trkpt lat="40.10922" lon="-3.73326">
        <ele>648.6</ele>
        <time>2022-12-31 10:41:12</time>
      </trkpt>
      <trkpt lat="40.10927" lon="-3.73323">
        <ele>648.4</ele>
        <time>2022-12-31 10:41:13</time>
      </trkpt>
      <trkpt lat="40.10932" lon="-3.7332">
        <ele>648.4</ele>
        <time>2022-12-31 10:41:14</time>
      </trkpt>
      <trkpt lat="40.10938" lon="-3.73317">
        <ele>648.4</ele>
        <time>2022-12-31 10:41:15</time>
      </trkpt>
      <trkpt lat="40.10942" lon="-3.73313">
        <ele>648.2</ele>
        <time>2022-12-31 10:41:16</time>
      </trkpt>
      <trkpt lat="40.10948" lon="-3.7331">
        <ele>648.2</ele>
        <time>2022-12-31 10:41:17</time>
      </trkpt>
      <trkpt lat="40.10953" lon="-3.73307">
        <ele>647.8</ele>
        <time>2022-12-31 10:41:18</time>
      </trkpt>
      <trkpt lat="40.10958" lon="-3.73304">
        <ele>647.8</ele>
        <time>2022-12-31 10:41:19</time>
      </trkpt>
      <trkpt lat="40.10964" lon="-3.73303">
        <ele>647.8</ele>
        <time>2022-12-31 10:41:20</time>
      </trkpt>
      <trkpt lat="40.1097" lon="-3.73302">
        <ele>647.8</ele>
        <time>2022-12-31 10:41:21</time>
      </trkpt>
      <trkpt lat="40.10975" lon="-3.73301">
        <ele>647.6</ele>
        <time>2022-12-31 10:41:22</time>
      </trkpt>
      <trkpt lat="40.10981" lon="-3.73301">
        <ele>647.6</ele>
        <time>2022-12-31 10:41:23</time>
      </trkpt>
      <trkpt lat="40.10986" lon="-3.73301">
        <ele>647.6</ele>
        <time>2022-12-31 10:41:24</time>
      </trkpt>
      <trkpt lat="40.10992" lon="-3.73301">
        <ele>647.4</ele>
        <time>2022-12-31 10:41:25</time>
      </trkpt>
      <trkpt lat="40.10998" lon="-3.73301">
        <ele>647.6</ele>
        <time>2022-12-31 10:41:26</time>
      </trkpt>
      <trkpt lat="40.11003" lon="-3.73302">
        <ele>647.6</ele>
        <time>2022-12-31 10:41:27</time>
      </trkpt>
      <trkpt lat="40.11009" lon="-3.73303">
        <ele>647.6</ele>
        <time>2022-12-31 10:41:28</time>
      </trkpt>
      <trkpt lat="40.11014" lon="-3.73304">
        <ele>647.6</ele>
        <time>2022-12-31 10:41:29</time>
      </trkpt>
      <trkpt lat="40.1102" lon="-3.73305">
        <ele>647.6</ele>
        <time>2022-12-31 10:41:30</time>
      </trkpt>
      <trkpt lat="40.11025" lon="-3.73306">
        <ele>647.6</ele>
        <time>2022-12-31 10:41:31</time>
      </trkpt>
      <trkpt lat="40.1103" lon="-3.73307">
        <ele>647.8</ele>
        <time>2022-12-31 10:41:32</time>
      </trkpt>
      <trkpt lat="40.11035" lon="-3.73307">
        <ele>647.8</ele>
        <time>2022-12-31 10:41:33</time>
      </trkpt>
      <trkpt lat="40.1104" lon="-3.73308">
        <ele>647.6</ele>
        <time>2022-12-31 10:41:34</time>
      </trkpt>
      <trkpt lat="40.11046" lon="-3.73308">
        <ele>647.6</ele>
        <time>2022-12-31 10:41:35</time>
      </trkpt>
      <trkpt lat="40.11051" lon="-3.73308">
        <ele>647.6</ele>
        <time>2022-12-31 10:41:36</time>
      </trkpt>
      <trkpt lat="40.11057" lon="-3.73308">
        <ele>647.6</ele>
        <time>2022-12-31 10:41:37</time>
      </trkpt>
      <trkpt lat="40.11062" lon="-3.73309">
        <ele>647.8</ele>
        <time>2022-12-31 10:41:38</time>
      </trkpt>
      <trkpt lat="40.11068" lon="-3.73309">
        <ele>647.8</ele>
        <time>2022-12-31 10:41:39</time>
      </trkpt>
      <trkpt lat="40.11074" lon="-3.73309">
        <ele>647.8</ele>
        <time>2022-12-31 10:41:40</time>
      </trkpt>
      <trkpt lat="40.1108" lon="-3.73309">
        <ele>647.8</ele>
        <time>2022-12-31 10:41:41</time>
      </trkpt>
      <trkpt lat="40.11085" lon="-3.7331">
        <ele>647.8</ele>
        <time>2022-12-31 10:41:42</time>
      </trkpt>
      <trkpt lat="40.1109" lon="-3.73311">
        <ele>647.8</ele>
        <time>2022-12-31 10:41:43</time>
      </trkpt>
      <trkpt lat="40.11096" lon="-3.73312">
        <ele>647.8</ele>
        <time>2022-12-31 10:41:44</time>
      </trkpt>
      <trkpt lat="40.111" lon="-3.73313">
        <ele>647.8</ele>
        <time>2022-12-31 10:41:45</time>
      </trkpt>
      <trkpt lat="40.11105" lon="-3.73312">
        <ele>648</ele>
        <time>2022-12-31 10:41:46</time>
      </trkpt>
      <trkpt lat="40.1111" lon="-3.73312">
        <ele>648</ele>
        <time>2022-12-31 10:41:47</time>
      </trkpt>
      <trkpt lat="40.11116" lon="-3.73311">
        <ele>648.2</ele>
        <time>2022-12-31 10:41:48</time>
      </trkpt>
      <trkpt lat="40.11121" lon="-3.73311">
        <ele>648.4</ele>
        <time>2022-12-31 10:41:49</time>
      </trkpt>
      <trkpt lat="40.11126" lon="-3.7331">
        <ele>648.4</ele>
        <time>2022-12-31 10:41:50</time>
      </trkpt>
      <trkpt lat="40.11132" lon="-3.7331">
        <ele>648.4</ele>
        <time>2022-12-31 10:41:51</time>
      </trkpt>
      <trkpt lat="40.11137" lon="-3.73309">
        <ele>648.6</ele>
        <time>2022-12-31 10:41:52</time>
      </trkpt>
      <trkpt lat="40.11142" lon="-3.73309">
        <ele>648.6</ele>
        <time>2022-12-31 10:41:53</time>
      </trkpt>
      <trkpt lat="40.11148" lon="-3.73309">
        <ele>648.6</ele>
        <time>2022-12-31 10:41:54</time>
      </trkpt>
      <trkpt lat="40.11153" lon="-3.73308">
        <ele>648.6</ele>
        <time>2022-12-31 10:41:55</time>
      </trkpt>
      <trkpt lat="40.11158" lon="-3.73308">
        <ele>648.6</ele>
        <time>2022-12-31 10:41:56</time>
      </trkpt>
      <trkpt lat="40.11164" lon="-3.73308">
        <ele>648.6</ele>
        <time>2022-12-31 10:41:57</time>
      </trkpt>
      <trkpt lat="40.1117" lon="-3.73308">
        <ele>648.8</ele>
        <time>2022-12-31 10:41:58</time>
      </trkpt>
      <trkpt lat="40.11176" lon="-3.73309">
        <ele>649.4</ele>
        <time>2022-12-31 10:41:59</time>
      </trkpt>
      <trkpt lat="40.11182" lon="-3.73309">
        <ele>649.4</ele>
        <time>2022-12-31 10:42:00</time>
      </trkpt>
      <trkpt lat="40.11189" lon="-3.7331">
        <ele>649.4</ele>
        <time>2022-12-31 10:42:01</time>
      </trkpt>
      <trkpt lat="40.11195" lon="-3.73312">
        <ele>649.6</ele>
        <time>2022-12-31 10:42:02</time>
      </trkpt>
      <trkpt lat="40.11201" lon="-3.73312">
        <ele>649.4</ele>
        <time>2022-12-31 10:42:03</time>
      </trkpt>
      <trkpt lat="40.11208" lon="-3.73312">
        <ele>649.6</ele>
        <time>2022-12-31 10:42:04</time>
      </trkpt>
      <trkpt lat="40.11214" lon="-3.7331">
        <ele>649.6</ele>
        <time>2022-12-31 10:42:05</time>
      </trkpt>
      <trkpt lat="40.11219" lon="-3.73307">
        <ele>649.6</ele>
        <time>2022-12-31 10:42:06</time>
      </trkpt>
      <trkpt lat="40.11225" lon="-3.73305">
        <ele>649.6</ele>
        <time>2022-12-31 10:42:07</time>
      </trkpt>
      <trkpt lat="40.11231" lon="-3.73302">
        <ele>649.6</ele>
        <time>2022-12-31 10:42:08</time>
      </trkpt>
      <trkpt lat="40.11237" lon="-3.733">
        <ele>649.6</ele>
        <time>2022-12-31 10:42:09</time>
      </trkpt>
      <trkpt lat="40.11244" lon="-3.73297">
        <ele>649.4</ele>
        <time>2022-12-31 10:42:10</time>
      </trkpt>
      <trkpt lat="40.1125" lon="-3.73295">
        <ele>649</ele>
        <time>2022-12-31 10:42:11</time>
      </trkpt>
      <trkpt lat="40.11255" lon="-3.73292">
        <ele>648.8</ele>
        <time>2022-12-31 10:42:12</time>
      </trkpt>
      <trkpt lat="40.11261" lon="-3.7329">
        <ele>648.4</ele>
        <time>2022-12-31 10:42:13</time>
      </trkpt>
      <trkpt lat="40.11267" lon="-3.73287">
        <ele>648.2</ele>
        <time>2022-12-31 10:42:14</time>
      </trkpt>
      <trkpt lat="40.11272" lon="-3.73283">
        <ele>648</ele>
        <time>2022-12-31 10:42:15</time>
      </trkpt>
      <trkpt lat="40.11277" lon="-3.7328">
        <ele>648</ele>
        <time>2022-12-31 10:42:16</time>
      </trkpt>
      <trkpt lat="40.11282" lon="-3.73276">
        <ele>647.8</ele>
        <time>2022-12-31 10:42:17</time>
      </trkpt>
      <trkpt lat="40.11286" lon="-3.73273">
        <ele>647.6</ele>
        <time>2022-12-31 10:42:18</time>
      </trkpt>
      <trkpt lat="40.11291" lon="-3.73269">
        <ele>647.8</ele>
        <time>2022-12-31 10:42:19</time>
      </trkpt>
      <trkpt lat="40.11295" lon="-3.73264">
        <ele>647.8</ele>
        <time>2022-12-31 10:42:20</time>
      </trkpt>
      <trkpt lat="40.11299" lon="-3.7326">
        <ele>647.6</ele>
        <time>2022-12-31 10:42:21</time>
      </trkpt>
      <trkpt lat="40.11303" lon="-3.73256">
        <ele>647.6</ele>
        <time>2022-12-31 10:42:22</time>
      </trkpt>
      <trkpt lat="40.11308" lon="-3.73251">
        <ele>647.4</ele>
        <time>2022-12-31 10:42:23</time>
      </trkpt>
      <trkpt lat="40.11312" lon="-3.73247">
        <ele>647.4</ele>
        <time>2022-12-31 10:42:24</time>
      </trkpt>
      <trkpt lat="40.11315" lon="-3.73243">
        <ele>647.4</ele>
        <time>2022-12-31 10:42:25</time>
      </trkpt>
      <trkpt lat="40.11319" lon="-3.73238">
        <ele>647.4</ele>
        <time>2022-12-31 10:42:26</time>
      </trkpt>
      <trkpt lat="40.11322" lon="-3.73234">
        <ele>647.4</ele>
        <time>2022-12-31 10:42:27</time>
      </trkpt>
      <trkpt lat="40.11325" lon="-3.73229">
        <ele>647.4</ele>
        <time>2022-12-31 10:42:28</time>
      </trkpt>
      <trkpt lat="40.11327" lon="-3.73225">
        <ele>647.4</ele>
        <time>2022-12-31 10:42:29</time>
      </trkpt>
      <trkpt lat="40.11331" lon="-3.7322">
        <ele>647.6</ele>
        <time>2022-12-31 10:42:30</time>
      </trkpt>
      <trkpt lat="40.11334" lon="-3.73216">
        <ele>647.6</ele>
        <time>2022-12-31 10:42:31</time>
      </trkpt>
      <trkpt lat="40.11337" lon="-3.73213">
        <ele>647.6</ele>
        <time>2022-12-31 10:42:32</time>
      </trkpt>
      <trkpt lat="40.1134" lon="-3.73209">
        <ele>647.6</ele>
        <time>2022-12-31 10:42:33</time>
      </trkpt>
      <trkpt lat="40.11343" lon="-3.73205">
        <ele>647.8</ele>
        <time>2022-12-31 10:42:34</time>
      </trkpt>
      <trkpt lat="40.11346" lon="-3.732">
        <ele>647.8</ele>
        <time>2022-12-31 10:42:35</time>
      </trkpt>
      <trkpt lat="40.11349" lon="-3.73196">
        <ele>647.8</ele>
        <time>2022-12-31 10:42:36</time>
      </trkpt>
      <trkpt lat="40.11352" lon="-3.73193">
        <ele>647.8</ele>
        <time>2022-12-31 10:42:37</time>
      </trkpt>
      <trkpt lat="40.11355" lon="-3.73189">
        <ele>648</ele>
        <time>2022-12-31 10:42:38</time>
      </trkpt>
      <trkpt lat="40.11358" lon="-3.73185">
        <ele>648</ele>
        <time>2022-12-31 10:42:39</time>
      </trkpt>
      <trkpt lat="40.11362" lon="-3.73182">
        <ele>648.4</ele>
        <time>2022-12-31 10:42:40</time>
      </trkpt>
      <trkpt lat="40.11366" lon="-3.73178">
        <ele>648.4</ele>
        <time>2022-12-31 10:42:41</time>
      </trkpt>
      <trkpt lat="40.1137" lon="-3.73175">
        <ele>648.4</ele>
        <time>2022-12-31 10:42:42</time>
      </trkpt>
      <trkpt lat="40.11373" lon="-3.73171">
        <ele>648.8</ele>
        <time>2022-12-31 10:42:43</time>
      </trkpt>
      <trkpt lat="40.11377" lon="-3.73168">
        <ele>649</ele>
        <time>2022-12-31 10:42:44</time>
      </trkpt>
      <trkpt lat="40.11381" lon="-3.73165">
        <ele>649.2</ele>
        <time>2022-12-31 10:42:45</time>
      </trkpt>
      <trkpt lat="40.11384" lon="-3.73161">
        <ele>649.4</ele>
        <time>2022-12-31 10:42:46</time>
      </trkpt>
      <trkpt lat="40.11388" lon="-3.73158">
        <ele>649.6</ele>
        <time>2022-12-31 10:42:47</time>
      </trkpt>
      <trkpt lat="40.11391" lon="-3.73155">
        <ele>649.6</ele>
        <time>2022-12-31 10:42:48</time>
      </trkpt>
      <trkpt lat="40.11395" lon="-3.73152">
        <ele>649.8</ele>
        <time>2022-12-31 10:42:49</time>
      </trkpt>
      <trkpt lat="40.11398" lon="-3.73149">
        <ele>649.8</ele>
        <time>2022-12-31 10:42:50</time>
      </trkpt>
      <trkpt lat="40.11401" lon="-3.73146">
        <ele>650</ele>
        <time>2022-12-31 10:42:51</time>
      </trkpt>
      <trkpt lat="40.11404" lon="-3.73143">
        <ele>650.2</ele>
        <time>2022-12-31 10:42:52</time>
      </trkpt>
      <trkpt lat="40.11408" lon="-3.7314">
        <ele>650.2</ele>
        <time>2022-12-31 10:42:53</time>
      </trkpt>
      <trkpt lat="40.11411" lon="-3.73137">
        <ele>650.2</ele>
        <time>2022-12-31 10:42:54</time>
      </trkpt>
      <trkpt lat="40.11415" lon="-3.73135">
        <ele>650.2</ele>
        <time>2022-12-31 10:42:55</time>
      </trkpt>
      <trkpt lat="40.11418" lon="-3.73132">
        <ele>650.2</ele>
        <time>2022-12-31 10:42:56</time>
      </trkpt>
      <trkpt lat="40.11422" lon="-3.73129">
        <ele>650.4</ele>
        <time>2022-12-31 10:42:57</time>
      </trkpt>
      <trkpt lat="40.11426" lon="-3.73126">
        <ele>650.4</ele>
        <time>2022-12-31 10:42:58</time>
      </trkpt>
      <trkpt lat="40.1143" lon="-3.73123">
        <ele>650.4</ele>
        <time>2022-12-31 10:42:59</time>
      </trkpt>
      <trkpt lat="40.11434" lon="-3.73121">
        <ele>650.4</ele>
        <time>2022-12-31 10:43:00</time>
      </trkpt>
      <trkpt lat="40.11438" lon="-3.73119">
        <ele>650.6</ele>
        <time>2022-12-31 10:43:01</time>
      </trkpt>
      <trkpt lat="40.11442" lon="-3.73116">
        <ele>650.6</ele>
        <time>2022-12-31 10:43:02</time>
      </trkpt>
      <trkpt lat="40.11446" lon="-3.73114">
        <ele>650.6</ele>
        <time>2022-12-31 10:43:03</time>
      </trkpt>
      <trkpt lat="40.1145" lon="-3.73112">
        <ele>650.6</ele>
        <time>2022-12-31 10:43:04</time>
      </trkpt>
      <trkpt lat="40.11454" lon="-3.7311">
        <ele>650.4</ele>
        <time>2022-12-31 10:43:05</time>
      </trkpt>
      <trkpt lat="40.11458" lon="-3.73108">
        <ele>650.4</ele>
        <time>2022-12-31 10:43:06</time>
      </trkpt>
      <trkpt lat="40.11462" lon="-3.73107">
        <ele>650.4</ele>
        <time>2022-12-31 10:43:07</time>
      </trkpt>
      <trkpt lat="40.11466" lon="-3.73105">
        <ele>650.4</ele>
        <time>2022-12-31 10:43:08</time>
      </trkpt>
      <trkpt lat="40.1147" lon="-3.73103">
        <ele>650.4</ele>
        <time>2022-12-31 10:43:09</time>
      </trkpt>
      <trkpt lat="40.11474" lon="-3.731">
        <ele>650.4</ele>
        <time>2022-12-31 10:43:10</time>
      </trkpt>
      <trkpt lat="40.11479" lon="-3.73098">
        <ele>650.4</ele>
        <time>2022-12-31 10:43:11</time>
      </trkpt>
      <trkpt lat="40.11483" lon="-3.73096">
        <ele>650.2</ele>
        <time>2022-12-31 10:43:12</time>
      </trkpt>
      <trkpt lat="40.11487" lon="-3.73093">
        <ele>650.2</ele>
        <time>2022-12-31 10:43:13</time>
      </trkpt>
      <trkpt lat="40.11492" lon="-3.73091">
        <ele>650.2</ele>
        <time>2022-12-31 10:43:14</time>
      </trkpt>
      <trkpt lat="40.11497" lon="-3.73088">
        <ele>650.2</ele>
        <time>2022-12-31 10:43:15</time>
      </trkpt>
      <trkpt lat="40.11502" lon="-3.73086">
        <ele>650.2</ele>
        <time>2022-12-31 10:43:16</time>
      </trkpt>
      <trkpt lat="40.11507" lon="-3.73084">
        <ele>650.2</ele>
        <time>2022-12-31 10:43:17</time>
      </trkpt>
      <trkpt lat="40.11512" lon="-3.73083">
        <ele>650.2</ele>
        <time>2022-12-31 10:43:18</time>
      </trkpt>
      <trkpt lat="40.11517" lon="-3.73081">
        <ele>650.2</ele>
        <time>2022-12-31 10:43:19</time>
      </trkpt>
      <trkpt lat="40.11523" lon="-3.73079">
        <ele>650.2</ele>
        <time>2022-12-31 10:43:20</time>
      </trkpt>
      <trkpt lat="40.11527" lon="-3.73077">
        <ele>650.2</ele>
        <time>2022-12-31 10:43:21</time>
      </trkpt>
      <trkpt lat="40.11532" lon="-3.73074">
        <ele>650.2</ele>
        <time>2022-12-31 10:43:22</time>
      </trkpt>
      <trkpt lat="40.11536" lon="-3.7307">
        <ele>650.2</ele>
        <time>2022-12-31 10:43:23</time>
      </trkpt>
      <trkpt lat="40.1154" lon="-3.73066">
        <ele>650.2</ele>
        <time>2022-12-31 10:43:24</time>
      </trkpt>
      <trkpt lat="40.11544" lon="-3.73063">
        <ele>650.4</ele>
        <time>2022-12-31 10:43:25</time>
      </trkpt>
      <trkpt lat="40.11548" lon="-3.73059">
        <ele>650.4</ele>
        <time>2022-12-31 10:43:26</time>
      </trkpt>
      <trkpt lat="40.11552" lon="-3.73056">
        <ele>650.2</ele>
        <time>2022-12-31 10:43:27</time>
      </trkpt>
      <trkpt lat="40.11555" lon="-3.73052">
        <ele>650.4</ele>
        <time>2022-12-31 10:43:28</time>
      </trkpt>
      <trkpt lat="40.11559" lon="-3.73049">
        <ele>650.2</ele>
        <time>2022-12-31 10:43:29</time>
      </trkpt>
      <trkpt lat="40.11562" lon="-3.73046">
        <ele>650.4</ele>
        <time>2022-12-31 10:43:30</time>
      </trkpt>
      <trkpt lat="40.11565" lon="-3.73043">
        <ele>650.4</ele>
        <time>2022-12-31 10:43:31</time>
      </trkpt>
      <trkpt lat="40.11568" lon="-3.7304">
        <ele>650.4</ele>
        <time>2022-12-31 10:43:32</time>
      </trkpt>
      <trkpt lat="40.11571" lon="-3.73037">
        <ele>650.4</ele>
        <time>2022-12-31 10:43:33</time>
      </trkpt>
      <trkpt lat="40.11574" lon="-3.73034">
        <ele>650.4</ele>
        <time>2022-12-31 10:43:34</time>
      </trkpt>
      <trkpt lat="40.11577" lon="-3.73031">
        <ele>650.2</ele>
        <time>2022-12-31 10:43:35</time>
      </trkpt>
      <trkpt lat="40.1158" lon="-3.73028">
        <ele>650.4</ele>
        <time>2022-12-31 10:43:36</time>
      </trkpt>
      <trkpt lat="40.11583" lon="-3.73025">
        <ele>650.4</ele>
        <time>2022-12-31 10:43:37</time>
      </trkpt>
      <trkpt lat="40.11586" lon="-3.73023">
        <ele>650.4</ele>
        <time>2022-12-31 10:43:38</time>
      </trkpt>
      <trkpt lat="40.11589" lon="-3.7302">
        <ele>650.6</ele>
        <time>2022-12-31 10:43:39</time>
      </trkpt>
      <trkpt lat="40.11592" lon="-3.73017">
        <ele>650.8</ele>
        <time>2022-12-31 10:43:40</time>
      </trkpt>
      <trkpt lat="40.11595" lon="-3.73015">
        <ele>651.2</ele>
        <time>2022-12-31 10:43:41</time>
      </trkpt>
      <trkpt lat="40.11597" lon="-3.73013">
        <ele>651.2</ele>
        <time>2022-12-31 10:43:42</time>
      </trkpt>
      <trkpt lat="40.116" lon="-3.7301">
        <ele>651.4</ele>
        <time>2022-12-31 10:43:43</time>
      </trkpt>
      <trkpt lat="40.11602" lon="-3.73008">
        <ele>651.4</ele>
        <time>2022-12-31 10:43:44</time>
      </trkpt>
      <trkpt lat="40.11605" lon="-3.73006">
        <ele>651.8</ele>
        <time>2022-12-31 10:43:45</time>
      </trkpt>
      <trkpt lat="40.11608" lon="-3.73003">
        <ele>652</ele>
        <time>2022-12-31 10:43:46</time>
      </trkpt>
      <trkpt lat="40.1161" lon="-3.73001">
        <ele>652</ele>
        <time>2022-12-31 10:43:47</time>
      </trkpt>
      <trkpt lat="40.11613" lon="-3.72998">
        <ele>652.2</ele>
        <time>2022-12-31 10:43:48</time>
      </trkpt>
      <trkpt lat="40.11617" lon="-3.72996">
        <ele>652.8</ele>
        <time>2022-12-31 10:43:49</time>
      </trkpt>
      <trkpt lat="40.1162" lon="-3.72993">
        <ele>653</ele>
        <time>2022-12-31 10:43:50</time>
      </trkpt>
      <trkpt lat="40.11623" lon="-3.72991">
        <ele>653.2</ele>
        <time>2022-12-31 10:43:51</time>
      </trkpt>
      <trkpt lat="40.11626" lon="-3.72988">
        <ele>653.4</ele>
        <time>2022-12-31 10:43:52</time>
      </trkpt>
      <trkpt lat="40.11628" lon="-3.72986">
        <ele>653.6</ele>
        <time>2022-12-31 10:43:53</time>
      </trkpt>
      <trkpt lat="40.11631" lon="-3.72984">
        <ele>653.8</ele>
        <time>2022-12-31 10:43:54</time>
      </trkpt>
      <trkpt lat="40.11634" lon="-3.72981">
        <ele>653.8</ele>
        <time>2022-12-31 10:43:55</time>
      </trkpt>
      <trkpt lat="40.11637" lon="-3.72979">
        <ele>653.8</ele>
        <time>2022-12-31 10:43:56</time>
      </trkpt>
      <trkpt lat="40.1164" lon="-3.72977">
        <ele>653.8</ele>
        <time>2022-12-31 10:43:57</time>
      </trkpt>
      <trkpt lat="40.11644" lon="-3.72975">
        <ele>654</ele>
        <time>2022-12-31 10:43:58</time>
      </trkpt>
      <trkpt lat="40.11648" lon="-3.72972">
        <ele>654</ele>
        <time>2022-12-31 10:43:59</time>
      </trkpt>
      <trkpt lat="40.11652" lon="-3.7297">
        <ele>654</ele>
        <time>2022-12-31 10:44:00</time>
      </trkpt>
      <trkpt lat="40.11657" lon="-3.72968">
        <ele>654</ele>
        <time>2022-12-31 10:44:01</time>
      </trkpt>
      <trkpt lat="40.11661" lon="-3.72967">
        <ele>654</ele>
        <time>2022-12-31 10:44:02</time>
      </trkpt>
      <trkpt lat="40.11665" lon="-3.72966">
        <ele>654</ele>
        <time>2022-12-31 10:44:03</time>
      </trkpt>
      <trkpt lat="40.11669" lon="-3.72965">
        <ele>654</ele>
        <time>2022-12-31 10:44:04</time>
      </trkpt>
      <trkpt lat="40.11673" lon="-3.72964">
        <ele>654</ele>
        <time>2022-12-31 10:44:05</time>
      </trkpt>
      <trkpt lat="40.11677" lon="-3.72962">
        <ele>654</ele>
        <time>2022-12-31 10:44:06</time>
      </trkpt>
      <trkpt lat="40.1168" lon="-3.72961">
        <ele>654</ele>
        <time>2022-12-31 10:44:07</time>
      </trkpt>
      <trkpt lat="40.11684" lon="-3.72959">
        <ele>654</ele>
        <time>2022-12-31 10:44:08</time>
      </trkpt>
      <trkpt lat="40.11688" lon="-3.72958">
        <ele>654</ele>
        <time>2022-12-31 10:44:09</time>
      </trkpt>
      <trkpt lat="40.11692" lon="-3.72956">
        <ele>653.8</ele>
        <time>2022-12-31 10:44:10</time>
      </trkpt>
      <trkpt lat="40.11696" lon="-3.72955">
        <ele>653.6</ele>
        <time>2022-12-31 10:44:11</time>
      </trkpt>
      <trkpt lat="40.117" lon="-3.72954">
        <ele>653.8</ele>
        <time>2022-12-31 10:44:12</time>
      </trkpt>
      <trkpt lat="40.11704" lon="-3.72953">
        <ele>653.6</ele>
        <time>2022-12-31 10:44:13</time>
      </trkpt>
      <trkpt lat="40.11708" lon="-3.72951">
        <ele>653.6</ele>
        <time>2022-12-31 10:44:14</time>
      </trkpt>
      <trkpt lat="40.11712" lon="-3.72949">
        <ele>653.6</ele>
        <time>2022-12-31 10:44:15</time>
      </trkpt>
      <trkpt lat="40.11716" lon="-3.72947">
        <ele>653.4</ele>
        <time>2022-12-31 10:44:16</time>
      </trkpt>
      <trkpt lat="40.1172" lon="-3.72945">
        <ele>653.4</ele>
        <time>2022-12-31 10:44:17</time>
      </trkpt>
      <trkpt lat="40.11724" lon="-3.72942">
        <ele>653.4</ele>
        <time>2022-12-31 10:44:18</time>
      </trkpt>
      <trkpt lat="40.11728" lon="-3.7294">
        <ele>653.4</ele>
        <time>2022-12-31 10:44:19</time>
      </trkpt>
      <trkpt lat="40.11732" lon="-3.72938">
        <ele>653.4</ele>
        <time>2022-12-31 10:44:20</time>
      </trkpt>
      <trkpt lat="40.11736" lon="-3.72936">
        <ele>653.4</ele>
        <time>2022-12-31 10:44:21</time>
      </trkpt>
      <trkpt lat="40.1174" lon="-3.72933">
        <ele>653.6</ele>
        <time>2022-12-31 10:44:22</time>
      </trkpt>
      <trkpt lat="40.11744" lon="-3.7293">
        <ele>653.4</ele>
        <time>2022-12-31 10:44:23</time>
      </trkpt>
      <trkpt lat="40.11747" lon="-3.72927">
        <ele>653.2</ele>
        <time>2022-12-31 10:44:24</time>
      </trkpt>
      <trkpt lat="40.11751" lon="-3.72924">
        <ele>653.4</ele>
        <time>2022-12-31 10:44:25</time>
      </trkpt>
      <trkpt lat="40.11756" lon="-3.72921">
        <ele>653.4</ele>
        <time>2022-12-31 10:44:26</time>
      </trkpt>
      <trkpt lat="40.1176" lon="-3.72918">
        <ele>653.2</ele>
        <time>2022-12-31 10:44:27</time>
      </trkpt>
      <trkpt lat="40.11764" lon="-3.72915">
        <ele>653.2</ele>
        <time>2022-12-31 10:44:28</time>
      </trkpt>
      <trkpt lat="40.11769" lon="-3.72912">
        <ele>653</ele>
        <time>2022-12-31 10:44:29</time>
      </trkpt>
      <trkpt lat="40.11773" lon="-3.72909">
        <ele>653.2</ele>
        <time>2022-12-31 10:44:30</time>
      </trkpt>
      <trkpt lat="40.11778" lon="-3.72906">
        <ele>653</ele>
        <time>2022-12-31 10:44:31</time>
      </trkpt>
      <trkpt lat="40.11782" lon="-3.72904">
        <ele>653.2</ele>
        <time>2022-12-31 10:44:32</time>
      </trkpt>
      <trkpt lat="40.11787" lon="-3.72901">
        <ele>653</ele>
        <time>2022-12-31 10:44:33</time>
      </trkpt>
      <trkpt lat="40.11792" lon="-3.72899">
        <ele>652.8</ele>
        <time>2022-12-31 10:44:34</time>
      </trkpt>
      <trkpt lat="40.11796" lon="-3.72896">
        <ele>652.8</ele>
        <time>2022-12-31 10:44:35</time>
      </trkpt>
      <trkpt lat="40.11801" lon="-3.72893">
        <ele>652.6</ele>
        <time>2022-12-31 10:44:36</time>
      </trkpt>
      <trkpt lat="40.11806" lon="-3.7289">
        <ele>652.6</ele>
        <time>2022-12-31 10:44:37</time>
      </trkpt>
      <trkpt lat="40.1181" lon="-3.72886">
        <ele>652.6</ele>
        <time>2022-12-31 10:44:38</time>
      </trkpt>
      <trkpt lat="40.11815" lon="-3.72883">
        <ele>652.4</ele>
        <time>2022-12-31 10:44:39</time>
      </trkpt>
      <trkpt lat="40.1182" lon="-3.72879">
        <ele>652.4</ele>
        <time>2022-12-31 10:44:40</time>
      </trkpt>
      <trkpt lat="40.11826" lon="-3.72876">
        <ele>652.2</ele>
        <time>2022-12-31 10:44:41</time>
      </trkpt>
      <trkpt lat="40.11831" lon="-3.72873">
        <ele>652.2</ele>
        <time>2022-12-31 10:44:42</time>
      </trkpt>
      <trkpt lat="40.11837" lon="-3.7287">
        <ele>652.2</ele>
        <time>2022-12-31 10:44:43</time>
      </trkpt>
      <trkpt lat="40.11842" lon="-3.72867">
        <ele>651.8</ele>
        <time>2022-12-31 10:44:44</time>
      </trkpt>
      <trkpt lat="40.11848" lon="-3.72864">
        <ele>651.8</ele>
        <time>2022-12-31 10:44:45</time>
      </trkpt>
      <trkpt lat="40.11853" lon="-3.72861">
        <ele>651.8</ele>
        <time>2022-12-31 10:44:46</time>
      </trkpt>
      <trkpt lat="40.11858" lon="-3.72858">
        <ele>651.4</ele>
        <time>2022-12-31 10:44:47</time>
      </trkpt>
      <trkpt lat="40.11863" lon="-3.72854">
        <ele>651.4</ele>
        <time>2022-12-31 10:44:48</time>
      </trkpt>
      <trkpt lat="40.11868" lon="-3.7285">
        <ele>651</ele>
        <time>2022-12-31 10:44:49</time>
      </trkpt>
      <trkpt lat="40.11874" lon="-3.72846">
        <ele>651</ele>
        <time>2022-12-31 10:44:50</time>
      </trkpt>
      <trkpt lat="40.11879" lon="-3.72842">
        <ele>650.8</ele>
        <time>2022-12-31 10:44:51</time>
      </trkpt>
      <trkpt lat="40.11885" lon="-3.72837">
        <ele>650.4</ele>
        <time>2022-12-31 10:44:52</time>
      </trkpt>
      <trkpt lat="40.11891" lon="-3.72833">
        <ele>650</ele>
        <time>2022-12-31 10:44:53</time>
      </trkpt>
      <trkpt lat="40.11896" lon="-3.72829">
        <ele>649.8</ele>
        <time>2022-12-31 10:44:54</time>
      </trkpt>
      <trkpt lat="40.11902" lon="-3.72825">
        <ele>649.6</ele>
        <time>2022-12-31 10:44:55</time>
      </trkpt>
      <trkpt lat="40.11908" lon="-3.72821">
        <ele>649.6</ele>
        <time>2022-12-31 10:44:56</time>
      </trkpt>
      <trkpt lat="40.11913" lon="-3.72817">
        <ele>649.6</ele>
        <time>2022-12-31 10:44:57</time>
      </trkpt>
      <trkpt lat="40.11919" lon="-3.72813">
        <ele>649.4</ele>
        <time>2022-12-31 10:44:58</time>
      </trkpt>
      <trkpt lat="40.11925" lon="-3.72809">
        <ele>649.4</ele>
        <time>2022-12-31 10:44:59</time>
      </trkpt>
      <trkpt lat="40.1193" lon="-3.72804">
        <ele>649.4</ele>
        <time>2022-12-31 10:45:00</time>
      </trkpt>
      <trkpt lat="40.11936" lon="-3.728">
        <ele>649</ele>
        <time>2022-12-31 10:45:01</time>
      </trkpt>
      <trkpt lat="40.11942" lon="-3.72795">
        <ele>649</ele>
        <time>2022-12-31 10:45:02</time>
      </trkpt>
      <trkpt lat="40.11947" lon="-3.7279">
        <ele>648.8</ele>
        <time>2022-12-31 10:45:03</time>
      </trkpt>
      <trkpt lat="40.11953" lon="-3.72785">
        <ele>648.4</ele>
        <time>2022-12-31 10:45:04</time>
      </trkpt>
      <trkpt lat="40.11959" lon="-3.72779">
        <ele>648</ele>
        <time>2022-12-31 10:45:05</time>
      </trkpt>
      <trkpt lat="40.11965" lon="-3.72773">
        <ele>647.8</ele>
        <time>2022-12-31 10:45:06</time>
      </trkpt>
      <trkpt lat="40.11971" lon="-3.72766">
        <ele>647.4</ele>
        <time>2022-12-31 10:45:07</time>
      </trkpt>
      <trkpt lat="40.11976" lon="-3.72759">
        <ele>647</ele>
        <time>2022-12-31 10:45:08</time>
      </trkpt>
      <trkpt lat="40.11981" lon="-3.72752">
        <ele>646.4</ele>
        <time>2022-12-31 10:45:09</time>
      </trkpt>
      <trkpt lat="40.11986" lon="-3.72745">
        <ele>646.4</ele>
        <time>2022-12-31 10:45:10</time>
      </trkpt>
      <trkpt lat="40.11991" lon="-3.72738">
        <ele>646.2</ele>
        <time>2022-12-31 10:45:11</time>
      </trkpt>
      <trkpt lat="40.11996" lon="-3.72731">
        <ele>645.2</ele>
        <time>2022-12-31 10:45:12</time>
      </trkpt>
      <trkpt lat="40.12" lon="-3.72724">
        <ele>644.6</ele>
        <time>2022-12-31 10:45:13</time>
      </trkpt>
      <trkpt lat="40.12005" lon="-3.72719">
        <ele>644</ele>
        <time>2022-12-31 10:45:14</time>
      </trkpt>
      <trkpt lat="40.12009" lon="-3.72714">
        <ele>643.2</ele>
        <time>2022-12-31 10:45:15</time>
      </trkpt>
      <trkpt lat="40.12013" lon="-3.7271">
        <ele>642.8</ele>
        <time>2022-12-31 10:45:16</time>
      </trkpt>
      <trkpt lat="40.12016" lon="-3.72706">
        <ele>642.4</ele>
        <time>2022-12-31 10:45:17</time>
      </trkpt>
      <trkpt lat="40.1202" lon="-3.72704">
        <ele>642.4</ele>
        <time>2022-12-31 10:45:18</time>
      </trkpt>
      <trkpt lat="40.12024" lon="-3.72702">
        <ele>642.4</ele>
        <time>2022-12-31 10:45:19</time>
      </trkpt>
      <trkpt lat="40.12029" lon="-3.727">
        <ele>642.4</ele>
        <time>2022-12-31 10:45:20</time>
      </trkpt>
      <trkpt lat="40.12034" lon="-3.72699">
        <ele>642.2</ele>
        <time>2022-12-31 10:45:21</time>
      </trkpt>
      <trkpt lat="40.12039" lon="-3.72697">
        <ele>642.2</ele>
        <time>2022-12-31 10:45:22</time>
      </trkpt>
      <trkpt lat="40.12044" lon="-3.72694">
        <ele>642.4</ele>
        <time>2022-12-31 10:45:23</time>
      </trkpt>
      <trkpt lat="40.12049" lon="-3.72691">
        <ele>642.2</ele>
        <time>2022-12-31 10:45:24</time>
      </trkpt>
      <trkpt lat="40.12053" lon="-3.72688">
        <ele>642.4</ele>
        <time>2022-12-31 10:45:25</time>
      </trkpt>
      <trkpt lat="40.12058" lon="-3.72684">
        <ele>642.6</ele>
        <time>2022-12-31 10:45:26</time>
      </trkpt>
      <trkpt lat="40.12062" lon="-3.7268">
        <ele>643</ele>
        <time>2022-12-31 10:45:27</time>
      </trkpt>
      <trkpt lat="40.12066" lon="-3.72676">
        <ele>643.8</ele>
        <time>2022-12-31 10:45:28</time>
      </trkpt>
      <trkpt lat="40.12071" lon="-3.72672">
        <ele>644.2</ele>
        <time>2022-12-31 10:45:29</time>
      </trkpt>
      <trkpt lat="40.12075" lon="-3.72667">
        <ele>644.4</ele>
        <time>2022-12-31 10:45:30</time>
      </trkpt>
      <trkpt lat="40.12078" lon="-3.72662">
        <ele>644.6</ele>
        <time>2022-12-31 10:45:31</time>
      </trkpt>
      <trkpt lat="40.12081" lon="-3.72656">
        <ele>644.8</ele>
        <time>2022-12-31 10:45:32</time>
      </trkpt>
      <trkpt lat="40.12084" lon="-3.7265">
        <ele>645</ele>
        <time>2022-12-31 10:45:33</time>
      </trkpt>
      <trkpt lat="40.12087" lon="-3.72644">
        <ele>644.8</ele>
        <time>2022-12-31 10:45:34</time>
      </trkpt>
      <trkpt lat="40.1209" lon="-3.72637">
        <ele>645</ele>
        <time>2022-12-31 10:45:35</time>
      </trkpt>
      <trkpt lat="40.12092" lon="-3.72631">
        <ele>645.2</ele>
        <time>2022-12-31 10:45:36</time>
      </trkpt>
      <trkpt lat="40.12095" lon="-3.72625">
        <ele>645.2</ele>
        <time>2022-12-31 10:45:37</time>
      </trkpt>
      <trkpt lat="40.12098" lon="-3.7262">
        <ele>645.2</ele>
        <time>2022-12-31 10:45:38</time>
      </trkpt>
      <trkpt lat="40.12101" lon="-3.72613">
        <ele>645.2</ele>
        <time>2022-12-31 10:45:39</time>
      </trkpt>
      <trkpt lat="40.12104" lon="-3.72608">
        <ele>645.2</ele>
        <time>2022-12-31 10:45:40</time>
      </trkpt>
      <trkpt lat="40.12107" lon="-3.72602">
        <ele>645.2</ele>
        <time>2022-12-31 10:45:41</time>
      </trkpt>
      <trkpt lat="40.12111" lon="-3.72597">
        <ele>645.2</ele>
        <time>2022-12-31 10:45:42</time>
      </trkpt>
      <trkpt lat="40.12114" lon="-3.72592">
        <ele>645.4</ele>
        <time>2022-12-31 10:45:43</time>
      </trkpt>
      <trkpt lat="40.12117" lon="-3.72586">
        <ele>645.4</ele>
        <time>2022-12-31 10:45:44</time>
      </trkpt>
      <trkpt lat="40.1212" lon="-3.72581">
        <ele>645.6</ele>
        <time>2022-12-31 10:45:45</time>
      </trkpt>
      <trkpt lat="40.12123" lon="-3.72576">
        <ele>645.6</ele>
        <time>2022-12-31 10:45:46</time>
      </trkpt>
      <trkpt lat="40.12126" lon="-3.7257">
        <ele>645.6</ele>
        <time>2022-12-31 10:45:47</time>
      </trkpt>
      <trkpt lat="40.12129" lon="-3.72565">
        <ele>645.6</ele>
        <time>2022-12-31 10:45:48</time>
      </trkpt>
      <trkpt lat="40.12132" lon="-3.7256">
        <ele>645.6</ele>
        <time>2022-12-31 10:45:49</time>
      </trkpt>
      <trkpt lat="40.12134" lon="-3.72555">
        <ele>645.8</ele>
        <time>2022-12-31 10:45:50</time>
      </trkpt>
      <trkpt lat="40.12137" lon="-3.7255">
        <ele>645.8</ele>
        <time>2022-12-31 10:45:51</time>
      </trkpt>
      <trkpt lat="40.12139" lon="-3.72545">
        <ele>645.6</ele>
        <time>2022-12-31 10:45:52</time>
      </trkpt>
      <trkpt lat="40.12142" lon="-3.7254">
        <ele>645.8</ele>
        <time>2022-12-31 10:45:53</time>
      </trkpt>
      <trkpt lat="40.12144" lon="-3.72535">
        <ele>645.8</ele>
        <time>2022-12-31 10:45:54</time>
      </trkpt>
      <trkpt lat="40.12147" lon="-3.72529">
        <ele>645.8</ele>
        <time>2022-12-31 10:45:55</time>
      </trkpt>
      <trkpt lat="40.1215" lon="-3.72524">
        <ele>645.8</ele>
        <time>2022-12-31 10:45:56</time>
      </trkpt>
      <trkpt lat="40.12153" lon="-3.72519">
        <ele>646</ele>
        <time>2022-12-31 10:45:57</time>
      </trkpt>
      <trkpt lat="40.12155" lon="-3.72514">
        <ele>646</ele>
        <time>2022-12-31 10:45:58</time>
      </trkpt>
      <trkpt lat="40.12157" lon="-3.72508">
        <ele>646</ele>
        <time>2022-12-31 10:45:59</time>
      </trkpt>
      <trkpt lat="40.12159" lon="-3.72503">
        <ele>646</ele>
        <time>2022-12-31 10:46:00</time>
      </trkpt>
      <trkpt lat="40.12161" lon="-3.72498">
        <ele>646.2</ele>
        <time>2022-12-31 10:46:01</time>
      </trkpt>
      <trkpt lat="40.12163" lon="-3.72494">
        <ele>646.2</ele>
        <time>2022-12-31 10:46:02</time>
      </trkpt>
      <trkpt lat="40.12165" lon="-3.72489">
        <ele>646.2</ele>
        <time>2022-12-31 10:46:03</time>
      </trkpt>
      <trkpt lat="40.12167" lon="-3.72484">
        <ele>646.4</ele>
        <time>2022-12-31 10:46:04</time>
      </trkpt>
      <trkpt lat="40.1217" lon="-3.72479">
        <ele>646.8</ele>
        <time>2022-12-31 10:46:05</time>
      </trkpt>
      <trkpt lat="40.12172" lon="-3.72475">
        <ele>646.8</ele>
        <time>2022-12-31 10:46:06</time>
      </trkpt>
      <trkpt lat="40.12173" lon="-3.7247">
        <ele>647.2</ele>
        <time>2022-12-31 10:46:07</time>
      </trkpt>
      <trkpt lat="40.12175" lon="-3.72465">
        <ele>647.4</ele>
        <time>2022-12-31 10:46:08</time>
      </trkpt>
      <trkpt lat="40.12177" lon="-3.7246">
        <ele>647.6</ele>
        <time>2022-12-31 10:46:09</time>
      </trkpt>
      <trkpt lat="40.12179" lon="-3.72456">
        <ele>647.4</ele>
        <time>2022-12-31 10:46:10</time>
      </trkpt>
      <trkpt lat="40.1218" lon="-3.72451">
        <ele>647.6</ele>
        <time>2022-12-31 10:46:11</time>
      </trkpt>
      <trkpt lat="40.12182" lon="-3.72447">
        <ele>647.8</ele>
        <time>2022-12-31 10:46:12</time>
      </trkpt>
      <trkpt lat="40.12184" lon="-3.72442">
        <ele>648</ele>
        <time>2022-12-31 10:46:13</time>
      </trkpt>
      <trkpt lat="40.12186" lon="-3.72438">
        <ele>648.4</ele>
        <time>2022-12-31 10:46:14</time>
      </trkpt>
      <trkpt lat="40.12187" lon="-3.72433">
        <ele>648.6</ele>
        <time>2022-12-31 10:46:15</time>
      </trkpt>
      <trkpt lat="40.12189" lon="-3.72429">
        <ele>648.8</ele>
        <time>2022-12-31 10:46:16</time>
      </trkpt>
      <trkpt lat="40.12191" lon="-3.72424">
        <ele>648.8</ele>
        <time>2022-12-31 10:46:17</time>
      </trkpt>
      <trkpt lat="40.12193" lon="-3.72419">
        <ele>648.8</ele>
        <time>2022-12-31 10:46:18</time>
      </trkpt>
      <trkpt lat="40.12195" lon="-3.72414">
        <ele>649</ele>
        <time>2022-12-31 10:46:19</time>
      </trkpt>
      <trkpt lat="40.12197" lon="-3.72409">
        <ele>649</ele>
        <time>2022-12-31 10:46:20</time>
      </trkpt>
      <trkpt lat="40.12199" lon="-3.72404">
        <ele>649</ele>
        <time>2022-12-31 10:46:21</time>
      </trkpt>
      <trkpt lat="40.12201" lon="-3.72398">
        <ele>649</ele>
        <time>2022-12-31 10:46:22</time>
      </trkpt>
      <trkpt lat="40.12203" lon="-3.72393">
        <ele>649</ele>
        <time>2022-12-31 10:46:23</time>
      </trkpt>
      <trkpt lat="40.12205" lon="-3.72387">
        <ele>649.2</ele>
        <time>2022-12-31 10:46:24</time>
      </trkpt>
      <trkpt lat="40.12207" lon="-3.72382">
        <ele>649.2</ele>
        <time>2022-12-31 10:46:25</time>
      </trkpt>
      <trkpt lat="40.12209" lon="-3.72376">
        <ele>649.2</ele>
        <time>2022-12-31 10:46:26</time>
      </trkpt>
      <trkpt lat="40.12211" lon="-3.7237">
        <ele>649.2</ele>
        <time>2022-12-31 10:46:27</time>
      </trkpt>
      <trkpt lat="40.12214" lon="-3.72364">
        <ele>649.2</ele>
        <time>2022-12-31 10:46:28</time>
      </trkpt>
      <trkpt lat="40.12217" lon="-3.72358">
        <ele>649</ele>
        <time>2022-12-31 10:46:29</time>
      </trkpt>
      <trkpt lat="40.1222" lon="-3.72353">
        <ele>649.2</ele>
        <time>2022-12-31 10:46:30</time>
      </trkpt>
      <trkpt lat="40.12223" lon="-3.72346">
        <ele>649.2</ele>
        <time>2022-12-31 10:46:31</time>
      </trkpt>
      <trkpt lat="40.12226" lon="-3.7234">
        <ele>649.2</ele>
        <time>2022-12-31 10:46:32</time>
      </trkpt>
      <trkpt lat="40.12229" lon="-3.72334">
        <ele>649</ele>
        <time>2022-12-31 10:46:33</time>
      </trkpt>
      <trkpt lat="40.12232" lon="-3.72327">
        <ele>649</ele>
        <time>2022-12-31 10:46:34</time>
      </trkpt>
      <trkpt lat="40.12236" lon="-3.7232">
        <ele>648.8</ele>
        <time>2022-12-31 10:46:35</time>
      </trkpt>
      <trkpt lat="40.12239" lon="-3.72313">
        <ele>648.8</ele>
        <time>2022-12-31 10:46:36</time>
      </trkpt>
      <trkpt lat="40.12242" lon="-3.72306">
        <ele>648.8</ele>
        <time>2022-12-31 10:46:37</time>
      </trkpt>
      <trkpt lat="40.12245" lon="-3.72299">
        <ele>648.4</ele>
        <time>2022-12-31 10:46:38</time>
      </trkpt>
      <trkpt lat="40.12249" lon="-3.72292">
        <ele>648.2</ele>
        <time>2022-12-31 10:46:39</time>
      </trkpt>
      <trkpt lat="40.12252" lon="-3.72284">
        <ele>648</ele>
        <time>2022-12-31 10:46:40</time>
      </trkpt>
      <trkpt lat="40.12255" lon="-3.72277">
        <ele>647.6</ele>
        <time>2022-12-31 10:46:41</time>
      </trkpt>
      <trkpt lat="40.12258" lon="-3.72269">
        <ele>647.2</ele>
        <time>2022-12-31 10:46:42</time>
      </trkpt>
      <trkpt lat="40.12262" lon="-3.72262">
        <ele>647.2</ele>
        <time>2022-12-31 10:46:43</time>
      </trkpt>
      <trkpt lat="40.12265" lon="-3.72254">
        <ele>646.8</ele>
        <time>2022-12-31 10:46:44</time>
      </trkpt>
      <trkpt lat="40.12269" lon="-3.72247">
        <ele>646.4</ele>
        <time>2022-12-31 10:46:45</time>
      </trkpt>
      <trkpt lat="40.12272" lon="-3.7224">
        <ele>646.2</ele>
        <time>2022-12-31 10:46:46</time>
      </trkpt>
      <trkpt lat="40.12276" lon="-3.72234">
        <ele>645.6</ele>
        <time>2022-12-31 10:46:47</time>
      </trkpt>
      <trkpt lat="40.1228" lon="-3.72228">
        <ele>645.2</ele>
        <time>2022-12-31 10:46:48</time>
      </trkpt>
      <trkpt lat="40.12284" lon="-3.72222">
        <ele>644.8</ele>
        <time>2022-12-31 10:46:49</time>
      </trkpt>
      <trkpt lat="40.12287" lon="-3.72217">
        <ele>644.2</ele>
        <time>2022-12-31 10:46:50</time>
      </trkpt>
      <trkpt lat="40.1229" lon="-3.72212">
        <ele>644</ele>
        <time>2022-12-31 10:46:51</time>
      </trkpt>
      <trkpt lat="40.12293" lon="-3.72208">
        <ele>643.8</ele>
        <time>2022-12-31 10:46:52</time>
      </trkpt>
      <trkpt lat="40.12295" lon="-3.72203">
        <ele>643.8</ele>
        <time>2022-12-31 10:46:53</time>
      </trkpt>
      <trkpt lat="40.12297" lon="-3.72198">
        <ele>643.8</ele>
        <time>2022-12-31 10:46:54</time>
      </trkpt>
      <trkpt lat="40.12298" lon="-3.72194">
        <ele>643.8</ele>
        <time>2022-12-31 10:46:55</time>
      </trkpt>
      <trkpt lat="40.123" lon="-3.72189">
        <ele>643.6</ele>
        <time>2022-12-31 10:46:56</time>
      </trkpt>
      <trkpt lat="40.12302" lon="-3.72185">
        <ele>643.6</ele>
        <time>2022-12-31 10:46:57</time>
      </trkpt>
      <trkpt lat="40.12303" lon="-3.72182">
        <ele>643.6</ele>
        <time>2022-12-31 10:46:58</time>
      </trkpt>
      <trkpt lat="40.12305" lon="-3.72178">
        <ele>643.6</ele>
        <time>2022-12-31 10:46:59</time>
      </trkpt>
      <trkpt lat="40.12307" lon="-3.72174">
        <ele>643.6</ele>
        <time>2022-12-31 10:47:00</time>
      </trkpt>
      <trkpt lat="40.12309" lon="-3.72169">
        <ele>643.6</ele>
        <time>2022-12-31 10:47:01</time>
      </trkpt>
      <trkpt lat="40.12311" lon="-3.72163">
        <ele>643.6</ele>
        <time>2022-12-31 10:47:02</time>
      </trkpt>
      <trkpt lat="40.12314" lon="-3.72157">
        <ele>643.6</ele>
        <time>2022-12-31 10:47:03</time>
      </trkpt>
      <trkpt lat="40.12316" lon="-3.72152">
        <ele>643.6</ele>
        <time>2022-12-31 10:47:04</time>
      </trkpt>
      <trkpt lat="40.12319" lon="-3.72146">
        <ele>643.8</ele>
        <time>2022-12-31 10:47:05</time>
      </trkpt>
      <trkpt lat="40.12322" lon="-3.7214">
        <ele>643.8</ele>
        <time>2022-12-31 10:47:06</time>
      </trkpt>
      <trkpt lat="40.12326" lon="-3.72133">
        <ele>643.8</ele>
        <time>2022-12-31 10:47:07</time>
      </trkpt>
      <trkpt lat="40.12329" lon="-3.72127">
        <ele>643.8</ele>
        <time>2022-12-31 10:47:08</time>
      </trkpt>
      <trkpt lat="40.12332" lon="-3.7212">
        <ele>643.8</ele>
        <time>2022-12-31 10:47:09</time>
      </trkpt>
      <trkpt lat="40.12335" lon="-3.72114">
        <ele>643.6</ele>
        <time>2022-12-31 10:47:10</time>
      </trkpt>
      <trkpt lat="40.12339" lon="-3.72107">
        <ele>643.6</ele>
        <time>2022-12-31 10:47:11</time>
      </trkpt>
      <trkpt lat="40.12342" lon="-3.72101">
        <ele>643.4</ele>
        <time>2022-12-31 10:47:12</time>
      </trkpt>
      <trkpt lat="40.12346" lon="-3.72096">
        <ele>643.4</ele>
        <time>2022-12-31 10:47:13</time>
      </trkpt>
      <trkpt lat="40.1235" lon="-3.72091">
        <ele>643.2</ele>
        <time>2022-12-31 10:47:14</time>
      </trkpt>
      <trkpt lat="40.12355" lon="-3.72086">
        <ele>643.2</ele>
        <time>2022-12-31 10:47:15</time>
      </trkpt>
      <trkpt lat="40.12359" lon="-3.72081">
        <ele>643</ele>
        <time>2022-12-31 10:47:16</time>
      </trkpt>
      <trkpt lat="40.12364" lon="-3.72078">
        <ele>642.8</ele>
        <time>2022-12-31 10:47:17</time>
      </trkpt>
      <trkpt lat="40.12369" lon="-3.72075">
        <ele>642.8</ele>
        <time>2022-12-31 10:47:18</time>
      </trkpt>
      <trkpt lat="40.12373" lon="-3.72072">
        <ele>642.8</ele>
        <time>2022-12-31 10:47:19</time>
      </trkpt>
      <trkpt lat="40.12378" lon="-3.72069">
        <ele>642.6</ele>
        <time>2022-12-31 10:47:20</time>
      </trkpt>
      <trkpt lat="40.12382" lon="-3.72065">
        <ele>642.8</ele>
        <time>2022-12-31 10:47:21</time>
      </trkpt>
      <trkpt lat="40.12385" lon="-3.72061">
        <ele>642.8</ele>
        <time>2022-12-31 10:47:22</time>
      </trkpt>
      <trkpt lat="40.12388" lon="-3.72057">
        <ele>642.6</ele>
        <time>2022-12-31 10:47:23</time>
      </trkpt>
      <trkpt lat="40.1239" lon="-3.72052">
        <ele>642.6</ele>
        <time>2022-12-31 10:47:24</time>
      </trkpt>
      <trkpt lat="40.12391" lon="-3.72046">
        <ele>642.8</ele>
        <time>2022-12-31 10:47:25</time>
      </trkpt>
      <trkpt lat="40.12391" lon="-3.7204">
        <ele>642.8</ele>
        <time>2022-12-31 10:47:26</time>
      </trkpt>
      <trkpt lat="40.12391" lon="-3.72034">
        <ele>642.6</ele>
        <time>2022-12-31 10:47:27</time>
      </trkpt>
      <trkpt lat="40.12391" lon="-3.72027">
        <ele>642.6</ele>
        <time>2022-12-31 10:47:28</time>
      </trkpt>
      <trkpt lat="40.1239" lon="-3.72021">
        <ele>642.8</ele>
        <time>2022-12-31 10:47:29</time>
      </trkpt>
      <trkpt lat="40.12388" lon="-3.72014">
        <ele>643</ele>
        <time>2022-12-31 10:47:30</time>
      </trkpt>
      <trkpt lat="40.12386" lon="-3.72007">
        <ele>643.2</ele>
        <time>2022-12-31 10:47:31</time>
      </trkpt>
      <trkpt lat="40.12383" lon="-3.72">
        <ele>643.4</ele>
        <time>2022-12-31 10:47:32</time>
      </trkpt>
      <trkpt lat="40.12381" lon="-3.71993">
        <ele>643.6</ele>
        <time>2022-12-31 10:47:33</time>
      </trkpt>
      <trkpt lat="40.12378" lon="-3.71986">
        <ele>643.8</ele>
        <time>2022-12-31 10:47:34</time>
      </trkpt>
      <trkpt lat="40.12376" lon="-3.71979">
        <ele>643.6</ele>
        <time>2022-12-31 10:47:35</time>
      </trkpt>
      <trkpt lat="40.12375" lon="-3.71972">
        <ele>643.6</ele>
        <time>2022-12-31 10:47:36</time>
      </trkpt>
      <trkpt lat="40.12375" lon="-3.71965">
        <ele>643.6</ele>
        <time>2022-12-31 10:47:37</time>
      </trkpt>
      <trkpt lat="40.12375" lon="-3.71958">
        <ele>643.8</ele>
        <time>2022-12-31 10:47:38</time>
      </trkpt>
      <trkpt lat="40.12376" lon="-3.71952">
        <ele>643.6</ele>
        <time>2022-12-31 10:47:39</time>
      </trkpt>
      <trkpt lat="40.12378" lon="-3.71946">
        <ele>643.6</ele>
        <time>2022-12-31 10:47:40</time>
      </trkpt>
      <trkpt lat="40.12378" lon="-3.7194">
        <ele>643.6</ele>
        <time>2022-12-31 10:47:41</time>
      </trkpt>
      <trkpt lat="40.12379" lon="-3.71934">
        <ele>643.8</ele>
        <time>2022-12-31 10:47:42</time>
      </trkpt>
      <trkpt lat="40.1238" lon="-3.71928">
        <ele>643.8</ele>
        <time>2022-12-31 10:47:43</time>
      </trkpt>
      <trkpt lat="40.12382" lon="-3.71922">
        <ele>643.8</ele>
        <time>2022-12-31 10:47:44</time>
      </trkpt>
      <trkpt lat="40.12383" lon="-3.71915">
        <ele>643.8</ele>
        <time>2022-12-31 10:47:45</time>
      </trkpt>
      <trkpt lat="40.12384" lon="-3.71908">
        <ele>643.6</ele>
        <time>2022-12-31 10:47:46</time>
      </trkpt>
      <trkpt lat="40.12385" lon="-3.71901">
        <ele>643.6</ele>
        <time>2022-12-31 10:47:47</time>
      </trkpt>
      <trkpt lat="40.12386" lon="-3.71893">
        <ele>643.4</ele>
        <time>2022-12-31 10:47:48</time>
      </trkpt>
      <trkpt lat="40.12386" lon="-3.71886">
        <ele>643.6</ele>
        <time>2022-12-31 10:47:49</time>
      </trkpt>
      <trkpt lat="40.12387" lon="-3.71879">
        <ele>643.4</ele>
        <time>2022-12-31 10:47:50</time>
      </trkpt>
      <trkpt lat="40.12388" lon="-3.71872">
        <ele>643</ele>
        <time>2022-12-31 10:47:51</time>
      </trkpt>
      <trkpt lat="40.1239" lon="-3.71865">
        <ele>643</ele>
        <time>2022-12-31 10:47:52</time>
      </trkpt>
      <trkpt lat="40.12392" lon="-3.71858">
        <ele>643</ele>
        <time>2022-12-31 10:47:53</time>
      </trkpt>
      <trkpt lat="40.12396" lon="-3.71852">
        <ele>642.8</ele>
        <time>2022-12-31 10:47:54</time>
      </trkpt>
      <trkpt lat="40.12399" lon="-3.71847">
        <ele>643</ele>
        <time>2022-12-31 10:47:55</time>
      </trkpt>
      <trkpt lat="40.12404" lon="-3.71843">
        <ele>642.8</ele>
        <time>2022-12-31 10:47:56</time>
      </trkpt>
      <trkpt lat="40.12408" lon="-3.71838">
        <ele>642.8</ele>
        <time>2022-12-31 10:47:57</time>
      </trkpt>
      <trkpt lat="40.12411" lon="-3.71834">
        <ele>642.8</ele>
        <time>2022-12-31 10:47:58</time>
      </trkpt>
      <trkpt lat="40.12413" lon="-3.7183">
        <ele>642.8</ele>
        <time>2022-12-31 10:47:59</time>
      </trkpt>
      <trkpt lat="40.12416" lon="-3.71825">
        <ele>642.8</ele>
        <time>2022-12-31 10:48:00</time>
      </trkpt>
      <trkpt lat="40.12418" lon="-3.71821">
        <ele>642.8</ele>
        <time>2022-12-31 10:48:01</time>
      </trkpt>
      <trkpt lat="40.1242" lon="-3.71816">
        <ele>642.8</ele>
        <time>2022-12-31 10:48:02</time>
      </trkpt>
      <trkpt lat="40.12422" lon="-3.71812">
        <ele>642.8</ele>
        <time>2022-12-31 10:48:03</time>
      </trkpt>
      <trkpt lat="40.12424" lon="-3.71808">
        <ele>642.8</ele>
        <time>2022-12-31 10:48:04</time>
      </trkpt>
      <trkpt lat="40.12426" lon="-3.71803">
        <ele>643</ele>
        <time>2022-12-31 10:48:05</time>
      </trkpt>
      <trkpt lat="40.12427" lon="-3.71797">
        <ele>643</ele>
        <time>2022-12-31 10:48:06</time>
      </trkpt>
      <trkpt lat="40.12428" lon="-3.71792">
        <ele>642.8</ele>
        <time>2022-12-31 10:48:07</time>
      </trkpt>
      <trkpt lat="40.1243" lon="-3.71786">
        <ele>643</ele>
        <time>2022-12-31 10:48:08</time>
      </trkpt>
      <trkpt lat="40.12431" lon="-3.71781">
        <ele>643.2</ele>
        <time>2022-12-31 10:48:09</time>
      </trkpt>
      <trkpt lat="40.12432" lon="-3.71775">
        <ele>643.8</ele>
        <time>2022-12-31 10:48:10</time>
      </trkpt>
      <trkpt lat="40.12433" lon="-3.71769">
        <ele>644.2</ele>
        <time>2022-12-31 10:48:11</time>
      </trkpt>
      <trkpt lat="40.12434" lon="-3.71763">
        <ele>644.8</ele>
        <time>2022-12-31 10:48:12</time>
      </trkpt>
      <trkpt lat="40.12434" lon="-3.71757">
        <ele>645.2</ele>
        <time>2022-12-31 10:48:13</time>
      </trkpt>
      <trkpt lat="40.12435" lon="-3.71751">
        <ele>645.4</ele>
        <time>2022-12-31 10:48:14</time>
      </trkpt>
      <trkpt lat="40.12436" lon="-3.71745">
        <ele>645.8</ele>
        <time>2022-12-31 10:48:15</time>
      </trkpt>
      <trkpt lat="40.12437" lon="-3.71739">
        <ele>645.6</ele>
        <time>2022-12-31 10:48:16</time>
      </trkpt>
      <trkpt lat="40.12438" lon="-3.71733">
        <ele>645.8</ele>
        <time>2022-12-31 10:48:17</time>
      </trkpt>
      <trkpt lat="40.1244" lon="-3.71727">
        <ele>645.8</ele>
        <time>2022-12-31 10:48:18</time>
      </trkpt>
      <trkpt lat="40.12441" lon="-3.71721">
        <ele>646.2</ele>
        <time>2022-12-31 10:48:19</time>
      </trkpt>
      <trkpt lat="40.12442" lon="-3.71714">
        <ele>646.6</ele>
        <time>2022-12-31 10:48:20</time>
      </trkpt>
      <trkpt lat="40.12444" lon="-3.71708">
        <ele>646.4</ele>
        <time>2022-12-31 10:48:21</time>
      </trkpt>
      <trkpt lat="40.12446" lon="-3.71701">
        <ele>646.6</ele>
        <time>2022-12-31 10:48:22</time>
      </trkpt>
      <trkpt lat="40.12449" lon="-3.71694">
        <ele>646.6</ele>
        <time>2022-12-31 10:48:23</time>
      </trkpt>
      <trkpt lat="40.12451" lon="-3.71687">
        <ele>646.6</ele>
        <time>2022-12-31 10:48:24</time>
      </trkpt>
      <trkpt lat="40.12454" lon="-3.7168">
        <ele>646.6</ele>
        <time>2022-12-31 10:48:25</time>
      </trkpt>
      <trkpt lat="40.12457" lon="-3.71673">
        <ele>646.6</ele>
        <time>2022-12-31 10:48:26</time>
      </trkpt>
      <trkpt lat="40.1246" lon="-3.71666">
        <ele>646.6</ele>
        <time>2022-12-31 10:48:27</time>
      </trkpt>
      <trkpt lat="40.12463" lon="-3.71659">
        <ele>646.6</ele>
        <time>2022-12-31 10:48:28</time>
      </trkpt>
      <trkpt lat="40.12465" lon="-3.71652">
        <ele>646.6</ele>
        <time>2022-12-31 10:48:29</time>
      </trkpt>
      <trkpt lat="40.12467" lon="-3.71644">
        <ele>646.4</ele>
        <time>2022-12-31 10:48:30</time>
      </trkpt>
      <trkpt lat="40.12468" lon="-3.71637">
        <ele>646.2</ele>
        <time>2022-12-31 10:48:31</time>
      </trkpt>
      <trkpt lat="40.12469" lon="-3.7163">
        <ele>646</ele>
        <time>2022-12-31 10:48:32</time>
      </trkpt>
      <trkpt lat="40.12471" lon="-3.71624">
        <ele>645.6</ele>
        <time>2022-12-31 10:48:33</time>
      </trkpt>
      <trkpt lat="40.12474" lon="-3.71618">
        <ele>645.2</ele>
        <time>2022-12-31 10:48:34</time>
      </trkpt>
      <trkpt lat="40.12478" lon="-3.71612">
        <ele>644.8</ele>
        <time>2022-12-31 10:48:35</time>
      </trkpt>
      <trkpt lat="40.12482" lon="-3.71606">
        <ele>644.4</ele>
        <time>2022-12-31 10:48:36</time>
      </trkpt>
      <trkpt lat="40.12487" lon="-3.71602">
        <ele>643.8</ele>
        <time>2022-12-31 10:48:37</time>
      </trkpt>
      <trkpt lat="40.12493" lon="-3.71599">
        <ele>643.6</ele>
        <time>2022-12-31 10:48:38</time>
      </trkpt>
      <trkpt lat="40.12498" lon="-3.71598">
        <ele>643</ele>
        <time>2022-12-31 10:48:39</time>
      </trkpt>
      <trkpt lat="40.12504" lon="-3.71599">
        <ele>642.4</ele>
        <time>2022-12-31 10:48:40</time>
      </trkpt>
      <trkpt lat="40.12509" lon="-3.71601">
        <ele>641.6</ele>
        <time>2022-12-31 10:48:41</time>
      </trkpt>
      <trkpt lat="40.12514" lon="-3.71603">
        <ele>640.6</ele>
        <time>2022-12-31 10:48:42</time>
      </trkpt>
      <trkpt lat="40.12518" lon="-3.71604">
        <ele>639.6</ele>
        <time>2022-12-31 10:48:43</time>
      </trkpt>
      <trkpt lat="40.12523" lon="-3.71606">
        <ele>638.6</ele>
        <time>2022-12-31 10:48:44</time>
      </trkpt>
      <trkpt lat="40.12528" lon="-3.71606">
        <ele>637.8</ele>
        <time>2022-12-31 10:48:45</time>
      </trkpt>
      <trkpt lat="40.12534" lon="-3.71606">
        <ele>637.8</ele>
        <time>2022-12-31 10:48:46</time>
      </trkpt>
      <trkpt lat="40.1254" lon="-3.71604">
        <ele>636.6</ele>
        <time>2022-12-31 10:48:47</time>
      </trkpt>
      <trkpt lat="40.12545" lon="-3.71602">
        <ele>636.2</ele>
        <time>2022-12-31 10:48:48</time>
      </trkpt>
      <trkpt lat="40.1255" lon="-3.71598">
        <ele>635.8</ele>
        <time>2022-12-31 10:48:49</time>
      </trkpt>
      <trkpt lat="40.12555" lon="-3.71593">
        <ele>635.2</ele>
        <time>2022-12-31 10:48:50</time>
      </trkpt>
      <trkpt lat="40.1256" lon="-3.71587">
        <ele>634.8</ele>
        <time>2022-12-31 10:48:51</time>
      </trkpt>
      <trkpt lat="40.12565" lon="-3.71581">
        <ele>634.4</ele>
        <time>2022-12-31 10:48:52</time>
      </trkpt>
      <trkpt lat="40.1257" lon="-3.71574">
        <ele>634</ele>
        <time>2022-12-31 10:48:53</time>
      </trkpt>
      <trkpt lat="40.12576" lon="-3.71567">
        <ele>632.4</ele>
        <time>2022-12-31 10:48:54</time>
      </trkpt>
      <trkpt lat="40.12581" lon="-3.7156">
        <ele>631.6</ele>
        <time>2022-12-31 10:48:55</time>
      </trkpt>
      <trkpt lat="40.12587" lon="-3.71553">
        <ele>630.6</ele>
        <time>2022-12-31 10:48:56</time>
      </trkpt>
      <trkpt lat="40.12594" lon="-3.71547">
        <ele>629.6</ele>
        <time>2022-12-31 10:48:57</time>
      </trkpt>
      <trkpt lat="40.126" lon="-3.71541">
        <ele>628.2</ele>
        <time>2022-12-31 10:48:58</time>
      </trkpt>
      <trkpt lat="40.12607" lon="-3.71536">
        <ele>627</ele>
        <time>2022-12-31 10:48:59</time>
      </trkpt>
      <trkpt lat="40.12615" lon="-3.71531">
        <ele>626.2</ele>
        <time>2022-12-31 10:49:00</time>
      </trkpt>
      <trkpt lat="40.12622" lon="-3.71525">
        <ele>625.4</ele>
        <time>2022-12-31 10:49:01</time>
      </trkpt>
      <trkpt lat="40.1263" lon="-3.7152">
        <ele>625</ele>
        <time>2022-12-31 10:49:02</time>
      </trkpt>
      <trkpt lat="40.12638" lon="-3.71515">
        <ele>623.8</ele>
        <time>2022-12-31 10:49:03</time>
      </trkpt>
      <trkpt lat="40.12646" lon="-3.71511">
        <ele>622.8</ele>
        <time>2022-12-31 10:49:04</time>
      </trkpt>
      <trkpt lat="40.12654" lon="-3.71508">
        <ele>622.2</ele>
        <time>2022-12-31 10:49:05</time>
      </trkpt>
      <trkpt lat="40.12663" lon="-3.71505">
        <ele>622.2</ele>
        <time>2022-12-31 10:49:06</time>
      </trkpt>
      <trkpt lat="40.12671" lon="-3.71502">
        <ele>621.8</ele>
        <time>2022-12-31 10:49:07</time>
      </trkpt>
      <trkpt lat="40.12679" lon="-3.71501">
        <ele>621.4</ele>
        <time>2022-12-31 10:49:08</time>
      </trkpt>
      <trkpt lat="40.12687" lon="-3.71499">
        <ele>620.8</ele>
        <time>2022-12-31 10:49:09</time>
      </trkpt>
      <trkpt lat="40.12695" lon="-3.71496">
        <ele>619.4</ele>
        <time>2022-12-31 10:49:10</time>
      </trkpt>
      <trkpt lat="40.12702" lon="-3.71492">
        <ele>618.6</ele>
        <time>2022-12-31 10:49:11</time>
      </trkpt>
      <trkpt lat="40.12709" lon="-3.71487">
        <ele>618.2</ele>
        <time>2022-12-31 10:49:12</time>
      </trkpt>
      <trkpt lat="40.12717" lon="-3.71482">
        <ele>617.2</ele>
        <time>2022-12-31 10:49:13</time>
      </trkpt>
      <trkpt lat="40.12724" lon="-3.71477">
        <ele>616.8</ele>
        <time>2022-12-31 10:49:14</time>
      </trkpt>
      <trkpt lat="40.12732" lon="-3.71472">
        <ele>616.2</ele>
        <time>2022-12-31 10:49:15</time>
      </trkpt>
      <trkpt lat="40.12739" lon="-3.71467">
        <ele>616</ele>
        <time>2022-12-31 10:49:16</time>
      </trkpt>
      <trkpt lat="40.12746" lon="-3.71463">
        <ele>615.8</ele>
        <time>2022-12-31 10:49:17</time>
      </trkpt>
      <trkpt lat="40.12753" lon="-3.71458">
        <ele>615</ele>
        <time>2022-12-31 10:49:18</time>
      </trkpt>
      <trkpt lat="40.1276" lon="-3.71453">
        <ele>614.6</ele>
        <time>2022-12-31 10:49:19</time>
      </trkpt>
      <trkpt lat="40.12766" lon="-3.71448">
        <ele>614</ele>
        <time>2022-12-31 10:49:20</time>
      </trkpt>
      <trkpt lat="40.12772" lon="-3.71442">
        <ele>613</ele>
        <time>2022-12-31 10:49:21</time>
      </trkpt>
      <trkpt lat="40.12777" lon="-3.71436">
        <ele>612.2</ele>
        <time>2022-12-31 10:49:22</time>
      </trkpt>
      <trkpt lat="40.12782" lon="-3.71431">
        <ele>611.6</ele>
        <time>2022-12-31 10:49:23</time>
      </trkpt>
      <trkpt lat="40.12787" lon="-3.71425">
        <ele>611.2</ele>
        <time>2022-12-31 10:49:24</time>
      </trkpt>
      <trkpt lat="40.12791" lon="-3.71419">
        <ele>611</ele>
        <time>2022-12-31 10:49:25</time>
      </trkpt>
      <trkpt lat="40.12796" lon="-3.71414">
        <ele>610.8</ele>
        <time>2022-12-31 10:49:26</time>
      </trkpt>
      <trkpt lat="40.12801" lon="-3.71409">
        <ele>610.8</ele>
        <time>2022-12-31 10:49:27</time>
      </trkpt>
      <trkpt lat="40.12805" lon="-3.71404">
        <ele>610.8</ele>
        <time>2022-12-31 10:49:28</time>
      </trkpt>
      <trkpt lat="40.12809" lon="-3.714">
        <ele>610.6</ele>
        <time>2022-12-31 10:49:29</time>
      </trkpt>
      <trkpt lat="40.12813" lon="-3.71395">
        <ele>610.6</ele>
        <time>2022-12-31 10:49:30</time>
      </trkpt>
      <trkpt lat="40.12817" lon="-3.71391">
        <ele>610.8</ele>
        <time>2022-12-31 10:49:31</time>
      </trkpt>
      <trkpt lat="40.12822" lon="-3.71387">
        <ele>610.6</ele>
        <time>2022-12-31 10:49:32</time>
      </trkpt>
      <trkpt lat="40.12826" lon="-3.71384">
        <ele>610.8</ele>
        <time>2022-12-31 10:49:33</time>
      </trkpt>
      <trkpt lat="40.1283" lon="-3.7138">
        <ele>610.6</ele>
        <time>2022-12-31 10:49:34</time>
      </trkpt>
      <trkpt lat="40.12835" lon="-3.71377">
        <ele>610.8</ele>
        <time>2022-12-31 10:49:35</time>
      </trkpt>
      <trkpt lat="40.1284" lon="-3.71374">
        <ele>610.8</ele>
        <time>2022-12-31 10:49:36</time>
      </trkpt>
      <trkpt lat="40.12845" lon="-3.71371">
        <ele>611</ele>
        <time>2022-12-31 10:49:37</time>
      </trkpt>
      <trkpt lat="40.1285" lon="-3.71367">
        <ele>611.2</ele>
        <time>2022-12-31 10:49:38</time>
      </trkpt>
      <trkpt lat="40.12855" lon="-3.71364">
        <ele>611.4</ele>
        <time>2022-12-31 10:49:39</time>
      </trkpt>
      <trkpt lat="40.12861" lon="-3.71361">
        <ele>611.8</ele>
        <time>2022-12-31 10:49:40</time>
      </trkpt>
      <trkpt lat="40.12866" lon="-3.71358">
        <ele>611.8</ele>
        <time>2022-12-31 10:49:41</time>
      </trkpt>
      <trkpt lat="40.12872" lon="-3.71355">
        <ele>611.8</ele>
        <time>2022-12-31 10:49:42</time>
      </trkpt>
      <trkpt lat="40.12878" lon="-3.71353">
        <ele>611.6</ele>
        <time>2022-12-31 10:49:43</time>
      </trkpt>
      <trkpt lat="40.12883" lon="-3.7135">
        <ele>611.6</ele>
        <time>2022-12-31 10:49:44</time>
      </trkpt>
      <trkpt lat="40.12889" lon="-3.71348">
        <ele>611.6</ele>
        <time>2022-12-31 10:49:45</time>
      </trkpt>
      <trkpt lat="40.12894" lon="-3.71345">
        <ele>611.6</ele>
        <time>2022-12-31 10:49:46</time>
      </trkpt>
      <trkpt lat="40.12898" lon="-3.71342">
        <ele>612</ele>
        <time>2022-12-31 10:49:47</time>
      </trkpt>
      <trkpt lat="40.12903" lon="-3.71338">
        <ele>612</ele>
        <time>2022-12-31 10:49:48</time>
      </trkpt>
      <trkpt lat="40.12907" lon="-3.71334">
        <ele>612</ele>
        <time>2022-12-31 10:49:49</time>
      </trkpt>
      <trkpt lat="40.12911" lon="-3.7133">
        <ele>612</ele>
        <time>2022-12-31 10:49:50</time>
      </trkpt>
      <trkpt lat="40.12915" lon="-3.71327">
        <ele>612</ele>
        <time>2022-12-31 10:49:51</time>
      </trkpt>
      <trkpt lat="40.12919" lon="-3.71322">
        <ele>612</ele>
        <time>2022-12-31 10:49:52</time>
      </trkpt>
      <trkpt lat="40.12922" lon="-3.71318">
        <ele>612</ele>
        <time>2022-12-31 10:49:53</time>
      </trkpt>
      <trkpt lat="40.12925" lon="-3.71313">
        <ele>612</ele>
        <time>2022-12-31 10:49:54</time>
      </trkpt>
      <trkpt lat="40.12929" lon="-3.71309">
        <ele>612</ele>
        <time>2022-12-31 10:49:55</time>
      </trkpt>
      <trkpt lat="40.12932" lon="-3.71305">
        <ele>612</ele>
        <time>2022-12-31 10:49:56</time>
      </trkpt>
      <trkpt lat="40.12935" lon="-3.71301">
        <ele>612</ele>
        <time>2022-12-31 10:49:57</time>
      </trkpt>
      <trkpt lat="40.12939" lon="-3.71297">
        <ele>612</ele>
        <time>2022-12-31 10:49:58</time>
      </trkpt>
      <trkpt lat="40.12942" lon="-3.71294">
        <ele>612.2</ele>
        <time>2022-12-31 10:49:59</time>
      </trkpt>
      <trkpt lat="40.12945" lon="-3.71291">
        <ele>612.4</ele>
        <time>2022-12-31 10:50:00</time>
      </trkpt>
      <trkpt lat="40.12949" lon="-3.71288">
        <ele>612.4</ele>
        <time>2022-12-31 10:50:01</time>
      </trkpt>
      <trkpt lat="40.12952" lon="-3.71286">
        <ele>612.4</ele>
        <time>2022-12-31 10:50:02</time>
      </trkpt>
      <trkpt lat="40.12956" lon="-3.71284">
        <ele>612.8</ele>
        <time>2022-12-31 10:50:03</time>
      </trkpt>
      <trkpt lat="40.12959" lon="-3.71282">
        <ele>612.8</ele>
        <time>2022-12-31 10:50:04</time>
      </trkpt>
      <trkpt lat="40.12963" lon="-3.7128">
        <ele>613.2</ele>
        <time>2022-12-31 10:50:05</time>
      </trkpt>
      <trkpt lat="40.12967" lon="-3.71278">
        <ele>613.4</ele>
        <time>2022-12-31 10:50:06</time>
      </trkpt>
      <trkpt lat="40.12971" lon="-3.71276">
        <ele>613.6</ele>
        <time>2022-12-31 10:50:07</time>
      </trkpt>
      <trkpt lat="40.12975" lon="-3.71274">
        <ele>613.6</ele>
        <time>2022-12-31 10:50:08</time>
      </trkpt>
      <trkpt lat="40.12979" lon="-3.71273">
        <ele>613.8</ele>
        <time>2022-12-31 10:50:09</time>
      </trkpt>
      <trkpt lat="40.12983" lon="-3.71271">
        <ele>614.2</ele>
        <time>2022-12-31 10:50:10</time>
      </trkpt>
      <trkpt lat="40.12987" lon="-3.71269">
        <ele>614.6</ele>
        <time>2022-12-31 10:50:11</time>
      </trkpt>
      <trkpt lat="40.12991" lon="-3.71267">
        <ele>614.6</ele>
        <time>2022-12-31 10:50:12</time>
      </trkpt>
      <trkpt lat="40.12996" lon="-3.71265">
        <ele>614.6</ele>
        <time>2022-12-31 10:50:13</time>
      </trkpt>
      <trkpt lat="40.13" lon="-3.71263">
        <ele>614.6</ele>
        <time>2022-12-31 10:50:14</time>
      </trkpt>
      <trkpt lat="40.13004" lon="-3.71261">
        <ele>614.8</ele>
        <time>2022-12-31 10:50:15</time>
      </trkpt>
      <trkpt lat="40.13008" lon="-3.7126">
        <ele>615</ele>
        <time>2022-12-31 10:50:16</time>
      </trkpt>
      <trkpt lat="40.13012" lon="-3.71258">
        <ele>615</ele>
        <time>2022-12-31 10:50:17</time>
      </trkpt>
      <trkpt lat="40.13016" lon="-3.71257">
        <ele>615.2</ele>
        <time>2022-12-31 10:50:18</time>
      </trkpt>
      <trkpt lat="40.1302" lon="-3.71255">
        <ele>615.2</ele>
        <time>2022-12-31 10:50:19</time>
      </trkpt>
      <trkpt lat="40.13024" lon="-3.71254">
        <ele>615.2</ele>
        <time>2022-12-31 10:50:20</time>
      </trkpt>
      <trkpt lat="40.13028" lon="-3.71252">
        <ele>615.4</ele>
        <time>2022-12-31 10:50:21</time>
      </trkpt>
      <trkpt lat="40.13032" lon="-3.71251">
        <ele>615.4</ele>
        <time>2022-12-31 10:50:22</time>
      </trkpt>
      <trkpt lat="40.13036" lon="-3.71249">
        <ele>615.4</ele>
        <time>2022-12-31 10:50:23</time>
      </trkpt>
      <trkpt lat="40.13039" lon="-3.71248">
        <ele>615.6</ele>
        <time>2022-12-31 10:50:24</time>
      </trkpt>
      <trkpt lat="40.13043" lon="-3.71246">
        <ele>615.8</ele>
        <time>2022-12-31 10:50:25</time>
      </trkpt>
      <trkpt lat="40.13047" lon="-3.71245">
        <ele>616.2</ele>
        <time>2022-12-31 10:50:26</time>
      </trkpt>
      <trkpt lat="40.13051" lon="-3.71243">
        <ele>616.2</ele>
        <time>2022-12-31 10:50:27</time>
      </trkpt>
      <trkpt lat="40.13055" lon="-3.71241">
        <ele>616.2</ele>
        <time>2022-12-31 10:50:28</time>
      </trkpt>
      <trkpt lat="40.13058" lon="-3.71239">
        <ele>616.4</ele>
        <time>2022-12-31 10:50:29</time>
      </trkpt>
      <trkpt lat="40.13062" lon="-3.71236">
        <ele>616.4</ele>
        <time>2022-12-31 10:50:30</time>
      </trkpt>
      <trkpt lat="40.13066" lon="-3.71234">
        <ele>616.8</ele>
        <time>2022-12-31 10:50:31</time>
      </trkpt>
      <trkpt lat="40.1307" lon="-3.71231">
        <ele>617</ele>
        <time>2022-12-31 10:50:32</time>
      </trkpt>
      <trkpt lat="40.13074" lon="-3.71228">
        <ele>617</ele>
        <time>2022-12-31 10:50:33</time>
      </trkpt>
      <trkpt lat="40.13077" lon="-3.71225">
        <ele>617.2</ele>
        <time>2022-12-31 10:50:34</time>
      </trkpt>
      <trkpt lat="40.13081" lon="-3.71222">
        <ele>617.8</ele>
        <time>2022-12-31 10:50:35</time>
      </trkpt>
      <trkpt lat="40.13084" lon="-3.71219">
        <ele>617.8</ele>
        <time>2022-12-31 10:50:36</time>
      </trkpt>
      <trkpt lat="40.13087" lon="-3.71215">
        <ele>618</ele>
        <time>2022-12-31 10:50:37</time>
      </trkpt>
      <trkpt lat="40.1309" lon="-3.71212">
        <ele>618</ele>
        <time>2022-12-31 10:50:38</time>
      </trkpt>
      <trkpt lat="40.13093" lon="-3.71208">
        <ele>618.2</ele>
        <time>2022-12-31 10:50:39</time>
      </trkpt>
      <trkpt lat="40.13096" lon="-3.71205">
        <ele>618</ele>
        <time>2022-12-31 10:50:40</time>
      </trkpt>
      <trkpt lat="40.13099" lon="-3.71201">
        <ele>618.2</ele>
        <time>2022-12-31 10:50:41</time>
      </trkpt>
      <trkpt lat="40.13102" lon="-3.71197">
        <ele>618.4</ele>
        <time>2022-12-31 10:50:42</time>
      </trkpt>
      <trkpt lat="40.13105" lon="-3.71194">
        <ele>618.2</ele>
        <time>2022-12-31 10:50:43</time>
      </trkpt>
      <trkpt lat="40.13109" lon="-3.7119">
        <ele>618.4</ele>
        <time>2022-12-31 10:50:44</time>
      </trkpt>
      <trkpt lat="40.13112" lon="-3.71187">
        <ele>618.4</ele>
        <time>2022-12-31 10:50:45</time>
      </trkpt>
      <trkpt lat="40.13115" lon="-3.71183">
        <ele>618.4</ele>
        <time>2022-12-31 10:50:46</time>
      </trkpt>
      <trkpt lat="40.13119" lon="-3.7118">
        <ele>618.6</ele>
        <time>2022-12-31 10:50:47</time>
      </trkpt>
      <trkpt lat="40.13123" lon="-3.71176">
        <ele>618.6</ele>
        <time>2022-12-31 10:50:48</time>
      </trkpt>
      <trkpt lat="40.13127" lon="-3.71172">
        <ele>618.6</ele>
        <time>2022-12-31 10:50:49</time>
      </trkpt>
      <trkpt lat="40.13131" lon="-3.71169">
        <ele>618.4</ele>
        <time>2022-12-31 10:50:50</time>
      </trkpt>
      <trkpt lat="40.13136" lon="-3.71165">
        <ele>618.4</ele>
        <time>2022-12-31 10:50:51</time>
      </trkpt>
      <trkpt lat="40.1314" lon="-3.71162">
        <ele>618.6</ele>
        <time>2022-12-31 10:50:52</time>
      </trkpt>
      <trkpt lat="40.13145" lon="-3.71159">
        <ele>618.4</ele>
        <time>2022-12-31 10:50:53</time>
      </trkpt>
      <trkpt lat="40.13149" lon="-3.71155">
        <ele>618.6</ele>
        <time>2022-12-31 10:50:54</time>
      </trkpt>
      <trkpt lat="40.13154" lon="-3.7115">
        <ele>618.4</ele>
        <time>2022-12-31 10:50:55</time>
      </trkpt>
      <trkpt lat="40.13157" lon="-3.71146">
        <ele>618.6</ele>
        <time>2022-12-31 10:50:56</time>
      </trkpt>
      <trkpt lat="40.13161" lon="-3.7114">
        <ele>618.6</ele>
        <time>2022-12-31 10:50:57</time>
      </trkpt>
      <trkpt lat="40.13164" lon="-3.71135">
        <ele>618.6</ele>
        <time>2022-12-31 10:50:58</time>
      </trkpt>
      <trkpt lat="40.13166" lon="-3.71129">
        <ele>618.6</ele>
        <time>2022-12-31 10:50:59</time>
      </trkpt>
      <trkpt lat="40.13169" lon="-3.71124">
        <ele>618.6</ele>
        <time>2022-12-31 10:51:00</time>
      </trkpt>
      <trkpt lat="40.13172" lon="-3.71119">
        <ele>618.6</ele>
        <time>2022-12-31 10:51:01</time>
      </trkpt>
      <trkpt lat="40.13176" lon="-3.71113">
        <ele>618.6</ele>
        <time>2022-12-31 10:51:02</time>
      </trkpt>
      <trkpt lat="40.13179" lon="-3.71109">
        <ele>618.6</ele>
        <time>2022-12-31 10:51:03</time>
      </trkpt>
      <trkpt lat="40.13184" lon="-3.71104">
        <ele>618.6</ele>
        <time>2022-12-31 10:51:04</time>
      </trkpt>
      <trkpt lat="40.13188" lon="-3.711">
        <ele>618.6</ele>
        <time>2022-12-31 10:51:05</time>
      </trkpt>
      <trkpt lat="40.13194" lon="-3.71096">
        <ele>618.6</ele>
        <time>2022-12-31 10:51:06</time>
      </trkpt>
      <trkpt lat="40.132" lon="-3.71092">
        <ele>618.6</ele>
        <time>2022-12-31 10:51:07</time>
      </trkpt>
      <trkpt lat="40.13207" lon="-3.71089">
        <ele>618.4</ele>
        <time>2022-12-31 10:51:08</time>
      </trkpt>
      <trkpt lat="40.13216" lon="-3.71088">
        <ele>618.4</ele>
        <time>2022-12-31 10:51:09</time>
      </trkpt>
      <trkpt lat="40.13224" lon="-3.71088">
        <ele>618.4</ele>
        <time>2022-12-31 10:51:10</time>
      </trkpt>
      <trkpt lat="40.13233" lon="-3.71089">
        <ele>618.4</ele>
        <time>2022-12-31 10:51:11</time>
      </trkpt>
      <trkpt lat="40.13241" lon="-3.7109">
        <ele>618.4</ele>
        <time>2022-12-31 10:51:12</time>
      </trkpt>
      <trkpt lat="40.1325" lon="-3.71091">
        <ele>618.4</ele>
        <time>2022-12-31 10:51:13</time>
      </trkpt>
      <trkpt lat="40.13258" lon="-3.71092">
        <ele>618</ele>
        <time>2022-12-31 10:51:14</time>
      </trkpt>
      <trkpt lat="40.13266" lon="-3.71091">
        <ele>617.6</ele>
        <time>2022-12-31 10:51:15</time>
      </trkpt>
      <trkpt lat="40.13273" lon="-3.7109">
        <ele>616.6</ele>
        <time>2022-12-31 10:51:16</time>
      </trkpt>
      <trkpt lat="40.13278" lon="-3.71088">
        <ele>615.4</ele>
        <time>2022-12-31 10:51:17</time>
      </trkpt>
      <trkpt lat="40.13283" lon="-3.71087">
        <ele>615</ele>
        <time>2022-12-31 10:51:18</time>
      </trkpt>
      <trkpt lat="40.13287" lon="-3.71085">
        <ele>614.6</ele>
        <time>2022-12-31 10:51:19</time>
      </trkpt>
      <trkpt lat="40.13291" lon="-3.71083">
        <ele>614.6</ele>
        <time>2022-12-31 10:51:20</time>
      </trkpt>
      <trkpt lat="40.13295" lon="-3.71081">
        <ele>614.6</ele>
        <time>2022-12-31 10:51:21</time>
      </trkpt>
      <trkpt lat="40.13299" lon="-3.7108">
        <ele>614.4</ele>
        <time>2022-12-31 10:51:22</time>
      </trkpt>
      <trkpt lat="40.13302" lon="-3.7108">
        <ele>614.4</ele>
        <time>2022-12-31 10:51:23</time>
      </trkpt>
      <trkpt lat="40.13306" lon="-3.7108">
        <ele>614.4</ele>
        <time>2022-12-31 10:51:24</time>
      </trkpt>
      <trkpt lat="40.13309" lon="-3.71081">
        <ele>614.4</ele>
        <time>2022-12-31 10:51:25</time>
      </trkpt>
      <trkpt lat="40.13312" lon="-3.71082">
        <ele>614.6</ele>
        <time>2022-12-31 10:51:26</time>
      </trkpt>
      <trkpt lat="40.13316" lon="-3.71083">
        <ele>614.6</ele>
        <time>2022-12-31 10:51:27</time>
      </trkpt>
      <trkpt lat="40.1332" lon="-3.71084">
        <ele>614.6</ele>
        <time>2022-12-31 10:51:28</time>
      </trkpt>
      <trkpt lat="40.13324" lon="-3.71084">
        <ele>615.2</ele>
        <time>2022-12-31 10:51:29</time>
      </trkpt>
      <trkpt lat="40.13328" lon="-3.71084">
        <ele>615.8</ele>
        <time>2022-12-31 10:51:30</time>
      </trkpt>
      <trkpt lat="40.13332" lon="-3.71084">
        <ele>616.2</ele>
        <time>2022-12-31 10:51:31</time>
      </trkpt>
      <trkpt lat="40.13336" lon="-3.71083">
        <ele>616.6</ele>
        <time>2022-12-31 10:51:32</time>
      </trkpt>
      <trkpt lat="40.1334" lon="-3.71083">
        <ele>617</ele>
        <time>2022-12-31 10:51:33</time>
      </trkpt>
      <trkpt lat="40.13344" lon="-3.71082">
        <ele>617.4</ele>
        <time>2022-12-31 10:51:34</time>
      </trkpt>
      <trkpt lat="40.13349" lon="-3.71081">
        <ele>617.6</ele>
        <time>2022-12-31 10:51:35</time>
      </trkpt>
      <trkpt lat="40.13354" lon="-3.7108">
        <ele>617.6</ele>
        <time>2022-12-31 10:51:36</time>
      </trkpt>
      <trkpt lat="40.13359" lon="-3.7108">
        <ele>617.8</ele>
        <time>2022-12-31 10:51:37</time>
      </trkpt>
      <trkpt lat="40.13363" lon="-3.71079">
        <ele>617.8</ele>
        <time>2022-12-31 10:51:38</time>
      </trkpt>
      <trkpt lat="40.13368" lon="-3.71079">
        <ele>617.8</ele>
        <time>2022-12-31 10:51:39</time>
      </trkpt>
      <trkpt lat="40.13373" lon="-3.71079">
        <ele>617.8</ele>
        <time>2022-12-31 10:51:40</time>
      </trkpt>
      <trkpt lat="40.13378" lon="-3.71079">
        <ele>617.8</ele>
        <time>2022-12-31 10:51:41</time>
      </trkpt>
      <trkpt lat="40.13383" lon="-3.71079">
        <ele>617.8</ele>
        <time>2022-12-31 10:51:42</time>
      </trkpt>
      <trkpt lat="40.13387" lon="-3.71079">
        <ele>618</ele>
        <time>2022-12-31 10:51:43</time>
      </trkpt>
      <trkpt lat="40.13393" lon="-3.71079">
        <ele>618</ele>
        <time>2022-12-31 10:51:44</time>
      </trkpt>
      <trkpt lat="40.13398" lon="-3.71079">
        <ele>617.8</ele>
        <time>2022-12-31 10:51:45</time>
      </trkpt>
      <trkpt lat="40.13403" lon="-3.71079">
        <ele>617.8</ele>
        <time>2022-12-31 10:51:46</time>
      </trkpt>
      <trkpt lat="40.13408" lon="-3.71079">
        <ele>617.8</ele>
        <time>2022-12-31 10:51:47</time>
      </trkpt>
      <trkpt lat="40.13414" lon="-3.7108">
        <ele>617.8</ele>
        <time>2022-12-31 10:51:48</time>
      </trkpt>
      <trkpt lat="40.13419" lon="-3.7108">
        <ele>617.8</ele>
        <time>2022-12-31 10:51:49</time>
      </trkpt>
      <trkpt lat="40.13424" lon="-3.7108">
        <ele>617.6</ele>
        <time>2022-12-31 10:51:50</time>
      </trkpt>
      <trkpt lat="40.1343" lon="-3.7108">
        <ele>617.6</ele>
        <time>2022-12-31 10:51:51</time>
      </trkpt>
      <trkpt lat="40.13435" lon="-3.71081">
        <ele>617.6</ele>
        <time>2022-12-31 10:51:52</time>
      </trkpt>
      <trkpt lat="40.1344" lon="-3.71081">
        <ele>617.4</ele>
        <time>2022-12-31 10:51:53</time>
      </trkpt>
      <trkpt lat="40.13445" lon="-3.71082">
        <ele>617.4</ele>
        <time>2022-12-31 10:51:54</time>
      </trkpt>
      <trkpt lat="40.1345" lon="-3.71082">
        <ele>617.4</ele>
        <time>2022-12-31 10:51:55</time>
      </trkpt>
      <trkpt lat="40.13455" lon="-3.71083">
        <ele>617.2</ele>
        <time>2022-12-31 10:51:56</time>
      </trkpt>
      <trkpt lat="40.1346" lon="-3.71085">
        <ele>617.4</ele>
        <time>2022-12-31 10:51:57</time>
      </trkpt>
      <trkpt lat="40.13465" lon="-3.71086">
        <ele>617.2</ele>
        <time>2022-12-31 10:51:58</time>
      </trkpt>
      <trkpt lat="40.1347" lon="-3.71087">
        <ele>617.4</ele>
        <time>2022-12-31 10:51:59</time>
      </trkpt>
      <trkpt lat="40.13476" lon="-3.71088">
        <ele>617.4</ele>
        <time>2022-12-31 10:52:00</time>
      </trkpt>
      <trkpt lat="40.1348" lon="-3.7109">
        <ele>617.4</ele>
        <time>2022-12-31 10:52:01</time>
      </trkpt>
      <trkpt lat="40.13485" lon="-3.71092">
        <ele>617.4</ele>
        <time>2022-12-31 10:52:02</time>
      </trkpt>
      <trkpt lat="40.1349" lon="-3.71094">
        <ele>617.4</ele>
        <time>2022-12-31 10:52:03</time>
      </trkpt>
      <trkpt lat="40.13495" lon="-3.71096">
        <ele>617.4</ele>
        <time>2022-12-31 10:52:04</time>
      </trkpt>
      <trkpt lat="40.13499" lon="-3.71099">
        <ele>617.4</ele>
        <time>2022-12-31 10:52:05</time>
      </trkpt>
      <trkpt lat="40.13503" lon="-3.71102">
        <ele>617.4</ele>
        <time>2022-12-31 10:52:06</time>
      </trkpt>
      <trkpt lat="40.13508" lon="-3.71105">
        <ele>617.4</ele>
        <time>2022-12-31 10:52:07</time>
      </trkpt>
      <trkpt lat="40.13513" lon="-3.71108">
        <ele>617.6</ele>
        <time>2022-12-31 10:52:08</time>
      </trkpt>
      <trkpt lat="40.13517" lon="-3.71111">
        <ele>617.6</ele>
        <time>2022-12-31 10:52:09</time>
      </trkpt>
      <trkpt lat="40.13521" lon="-3.71114">
        <ele>617.6</ele>
        <time>2022-12-31 10:52:10</time>
      </trkpt>
      <trkpt lat="40.13526" lon="-3.71117">
        <ele>617.6</ele>
        <time>2022-12-31 10:52:11</time>
      </trkpt>
      <trkpt lat="40.1353" lon="-3.71119">
        <ele>617.6</ele>
        <time>2022-12-31 10:52:12</time>
      </trkpt>
      <trkpt lat="40.13535" lon="-3.71122">
        <ele>617.6</ele>
        <time>2022-12-31 10:52:13</time>
      </trkpt>
      <trkpt lat="40.13539" lon="-3.71124">
        <ele>617.8</ele>
        <time>2022-12-31 10:52:14</time>
      </trkpt>
      <trkpt lat="40.13544" lon="-3.71126">
        <ele>617.8</ele>
        <time>2022-12-31 10:52:15</time>
      </trkpt>
      <trkpt lat="40.13548" lon="-3.71127">
        <ele>618</ele>
        <time>2022-12-31 10:52:16</time>
      </trkpt>
      <trkpt lat="40.13553" lon="-3.71129">
        <ele>618</ele>
        <time>2022-12-31 10:52:17</time>
      </trkpt>
      <trkpt lat="40.13557" lon="-3.7113">
        <ele>618</ele>
        <time>2022-12-31 10:52:18</time>
      </trkpt>
      <trkpt lat="40.13561" lon="-3.71132">
        <ele>618</ele>
        <time>2022-12-31 10:52:19</time>
      </trkpt>
      <trkpt lat="40.13566" lon="-3.71134">
        <ele>618.2</ele>
        <time>2022-12-31 10:52:20</time>
      </trkpt>
      <trkpt lat="40.1357" lon="-3.71135">
        <ele>618.4</ele>
        <time>2022-12-31 10:52:21</time>
      </trkpt>
      <trkpt lat="40.13574" lon="-3.71137">
        <ele>618.4</ele>
        <time>2022-12-31 10:52:22</time>
      </trkpt>
      <trkpt lat="40.13579" lon="-3.71139">
        <ele>618.6</ele>
        <time>2022-12-31 10:52:23</time>
      </trkpt>
      <trkpt lat="40.13583" lon="-3.71141">
        <ele>618.6</ele>
        <time>2022-12-31 10:52:24</time>
      </trkpt>
      <trkpt lat="40.13587" lon="-3.71143">
        <ele>618.8</ele>
        <time>2022-12-31 10:52:25</time>
      </trkpt>
      <trkpt lat="40.13591" lon="-3.71145">
        <ele>619</ele>
        <time>2022-12-31 10:52:26</time>
      </trkpt>
      <trkpt lat="40.13596" lon="-3.71146">
        <ele>618.8</ele>
        <time>2022-12-31 10:52:27</time>
      </trkpt>
      <trkpt lat="40.136" lon="-3.71148">
        <ele>618.8</ele>
        <time>2022-12-31 10:52:28</time>
      </trkpt>
      <trkpt lat="40.13605" lon="-3.7115">
        <ele>619</ele>
        <time>2022-12-31 10:52:29</time>
      </trkpt>
      <trkpt lat="40.13609" lon="-3.71151">
        <ele>619.2</ele>
        <time>2022-12-31 10:52:30</time>
      </trkpt>
      <trkpt lat="40.13613" lon="-3.71152">
        <ele>619.4</ele>
        <time>2022-12-31 10:52:31</time>
      </trkpt>
      <trkpt lat="40.13618" lon="-3.71153">
        <ele>619.4</ele>
        <time>2022-12-31 10:52:32</time>
      </trkpt>
      <trkpt lat="40.13622" lon="-3.71154">
        <ele>619.6</ele>
        <time>2022-12-31 10:52:33</time>
      </trkpt>
      <trkpt lat="40.13627" lon="-3.71155">
        <ele>619.8</ele>
        <time>2022-12-31 10:52:34</time>
      </trkpt>
      <trkpt lat="40.13631" lon="-3.71156">
        <ele>619.8</ele>
        <time>2022-12-31 10:52:35</time>
      </trkpt>
      <trkpt lat="40.13636" lon="-3.71156">
        <ele>619.8</ele>
        <time>2022-12-31 10:52:36</time>
      </trkpt>
      <trkpt lat="40.1364" lon="-3.71156">
        <ele>619.8</ele>
        <time>2022-12-31 10:52:37</time>
      </trkpt>
      <trkpt lat="40.13645" lon="-3.71156">
        <ele>620</ele>
        <time>2022-12-31 10:52:38</time>
      </trkpt>
      <trkpt lat="40.13649" lon="-3.71157">
        <ele>620.2</ele>
        <time>2022-12-31 10:52:39</time>
      </trkpt>
      <trkpt lat="40.13653" lon="-3.71157">
        <ele>620.2</ele>
        <time>2022-12-31 10:52:40</time>
      </trkpt>
      <trkpt lat="40.13657" lon="-3.71157">
        <ele>620.2</ele>
        <time>2022-12-31 10:52:41</time>
      </trkpt>
      <trkpt lat="40.13661" lon="-3.71157">
        <ele>620.2</ele>
        <time>2022-12-31 10:52:42</time>
      </trkpt>
      <trkpt lat="40.13665" lon="-3.71158">
        <ele>620.4</ele>
        <time>2022-12-31 10:52:43</time>
      </trkpt>
      <trkpt lat="40.13669" lon="-3.71159">
        <ele>620.4</ele>
        <time>2022-12-31 10:52:44</time>
      </trkpt>
      <trkpt lat="40.13673" lon="-3.71159">
        <ele>620.4</ele>
        <time>2022-12-31 10:52:45</time>
      </trkpt>
      <trkpt lat="40.13677" lon="-3.7116">
        <ele>620.4</ele>
        <time>2022-12-31 10:52:46</time>
      </trkpt>
      <trkpt lat="40.13681" lon="-3.71161">
        <ele>620.4</ele>
        <time>2022-12-31 10:52:47</time>
      </trkpt>
      <trkpt lat="40.13685" lon="-3.71162">
        <ele>620.4</ele>
        <time>2022-12-31 10:52:48</time>
      </trkpt>
      <trkpt lat="40.13689" lon="-3.71163">
        <ele>620.4</ele>
        <time>2022-12-31 10:52:49</time>
      </trkpt>
      <trkpt lat="40.13693" lon="-3.71165">
        <ele>620.4</ele>
        <time>2022-12-31 10:52:50</time>
      </trkpt>
      <trkpt lat="40.13697" lon="-3.71166">
        <ele>620.8</ele>
        <time>2022-12-31 10:52:51</time>
      </trkpt>
      <trkpt lat="40.13701" lon="-3.71167">
        <ele>621.2</ele>
        <time>2022-12-31 10:52:52</time>
      </trkpt>
      <trkpt lat="40.13705" lon="-3.71169">
        <ele>621.4</ele>
        <time>2022-12-31 10:52:53</time>
      </trkpt>
      <trkpt lat="40.13709" lon="-3.7117">
        <ele>621.6</ele>
        <time>2022-12-31 10:52:54</time>
      </trkpt>
      <trkpt lat="40.13713" lon="-3.71171">
        <ele>621.6</ele>
        <time>2022-12-31 10:52:55</time>
      </trkpt>
      <trkpt lat="40.13718" lon="-3.71173">
        <ele>621.6</ele>
        <time>2022-12-31 10:52:56</time>
      </trkpt>
      <trkpt lat="40.13721" lon="-3.71175">
        <ele>621.8</ele>
        <time>2022-12-31 10:52:57</time>
      </trkpt>
      <trkpt lat="40.13726" lon="-3.71176">
        <ele>621.8</ele>
        <time>2022-12-31 10:52:58</time>
      </trkpt>
      <trkpt lat="40.1373" lon="-3.71178">
        <ele>622</ele>
        <time>2022-12-31 10:52:59</time>
      </trkpt>
      <trkpt lat="40.13734" lon="-3.7118">
        <ele>622.2</ele>
        <time>2022-12-31 10:53:00</time>
      </trkpt>
      <trkpt lat="40.13738" lon="-3.71182">
        <ele>622.4</ele>
        <time>2022-12-31 10:53:01</time>
      </trkpt>
      <trkpt lat="40.13742" lon="-3.71184">
        <ele>622.4</ele>
        <time>2022-12-31 10:53:02</time>
      </trkpt>
      <trkpt lat="40.13746" lon="-3.71186">
        <ele>622.4</ele>
        <time>2022-12-31 10:53:03</time>
      </trkpt>
      <trkpt lat="40.1375" lon="-3.71189">
        <ele>622.6</ele>
        <time>2022-12-31 10:53:04</time>
      </trkpt>
      <trkpt lat="40.13754" lon="-3.71191">
        <ele>622.6</ele>
        <time>2022-12-31 10:53:05</time>
      </trkpt>
      <trkpt lat="40.13757" lon="-3.71193">
        <ele>622.6</ele>
        <time>2022-12-31 10:53:06</time>
      </trkpt>
      <trkpt lat="40.13761" lon="-3.71196">
        <ele>622.6</ele>
        <time>2022-12-31 10:53:07</time>
      </trkpt>
      <trkpt lat="40.13765" lon="-3.71198">
        <ele>622.6</ele>
        <time>2022-12-31 10:53:08</time>
      </trkpt>
      <trkpt lat="40.13769" lon="-3.71201">
        <ele>622.6</ele>
        <time>2022-12-31 10:53:09</time>
      </trkpt>
      <trkpt lat="40.13772" lon="-3.71204">
        <ele>622.8</ele>
        <time>2022-12-31 10:53:10</time>
      </trkpt>
      <trkpt lat="40.13776" lon="-3.71206">
        <ele>622.8</ele>
        <time>2022-12-31 10:53:11</time>
      </trkpt>
      <trkpt lat="40.13779" lon="-3.71209">
        <ele>622.8</ele>
        <time>2022-12-31 10:53:12</time>
      </trkpt>
      <trkpt lat="40.13783" lon="-3.71212">
        <ele>622.8</ele>
        <time>2022-12-31 10:53:13</time>
      </trkpt>
      <trkpt lat="40.13786" lon="-3.71216">
        <ele>623</ele>
        <time>2022-12-31 10:53:14</time>
      </trkpt>
      <trkpt lat="40.13789" lon="-3.71219">
        <ele>623.2</ele>
        <time>2022-12-31 10:53:15</time>
      </trkpt>
      <trkpt lat="40.13793" lon="-3.71222">
        <ele>623.2</ele>
        <time>2022-12-31 10:53:16</time>
      </trkpt>
      <trkpt lat="40.13797" lon="-3.71225">
        <ele>623.4</ele>
        <time>2022-12-31 10:53:17</time>
      </trkpt>
      <trkpt lat="40.138" lon="-3.71228">
        <ele>623.4</ele>
        <time>2022-12-31 10:53:18</time>
      </trkpt>
      <trkpt lat="40.13804" lon="-3.7123">
        <ele>623.6</ele>
        <time>2022-12-31 10:53:19</time>
      </trkpt>
      <trkpt lat="40.13808" lon="-3.71233">
        <ele>623.6</ele>
        <time>2022-12-31 10:53:20</time>
      </trkpt>
      <trkpt lat="40.13812" lon="-3.71235">
        <ele>623.8</ele>
        <time>2022-12-31 10:53:21</time>
      </trkpt>
      <trkpt lat="40.13816" lon="-3.71238">
        <ele>624</ele>
        <time>2022-12-31 10:53:22</time>
      </trkpt>
      <trkpt lat="40.13819" lon="-3.7124">
        <ele>624</ele>
        <time>2022-12-31 10:53:23</time>
      </trkpt>
      <trkpt lat="40.13823" lon="-3.71243">
        <ele>624.2</ele>
        <time>2022-12-31 10:53:24</time>
      </trkpt>
      <trkpt lat="40.13827" lon="-3.71244">
        <ele>624</ele>
        <time>2022-12-31 10:53:25</time>
      </trkpt>
      <trkpt lat="40.13831" lon="-3.71247">
        <ele>624.2</ele>
        <time>2022-12-31 10:53:26</time>
      </trkpt>
      <trkpt lat="40.13835" lon="-3.71249">
        <ele>624.2</ele>
        <time>2022-12-31 10:53:27</time>
      </trkpt>
      <trkpt lat="40.13839" lon="-3.7125">
        <ele>624.2</ele>
        <time>2022-12-31 10:53:28</time>
      </trkpt>
      <trkpt lat="40.13843" lon="-3.71252">
        <ele>624.2</ele>
        <time>2022-12-31 10:53:29</time>
      </trkpt>
      <trkpt lat="40.13847" lon="-3.71253">
        <ele>624.4</ele>
        <time>2022-12-31 10:53:30</time>
      </trkpt>
      <trkpt lat="40.13851" lon="-3.71254">
        <ele>624.2</ele>
        <time>2022-12-31 10:53:31</time>
      </trkpt>
      <trkpt lat="40.13855" lon="-3.71255">
        <ele>624.2</ele>
        <time>2022-12-31 10:53:32</time>
      </trkpt>
      <trkpt lat="40.13859" lon="-3.71256">
        <ele>624.4</ele>
        <time>2022-12-31 10:53:33</time>
      </trkpt>
      <trkpt lat="40.13863" lon="-3.71256">
        <ele>624.2</ele>
        <time>2022-12-31 10:53:34</time>
      </trkpt>
      <trkpt lat="40.13867" lon="-3.71256">
        <ele>624.4</ele>
        <time>2022-12-31 10:53:35</time>
      </trkpt>
      <trkpt lat="40.13871" lon="-3.71256">
        <ele>624.4</ele>
        <time>2022-12-31 10:53:36</time>
      </trkpt>
      <trkpt lat="40.13875" lon="-3.71255">
        <ele>624.4</ele>
        <time>2022-12-31 10:53:37</time>
      </trkpt>
      <trkpt lat="40.13879" lon="-3.71255">
        <ele>624.4</ele>
        <time>2022-12-31 10:53:38</time>
      </trkpt>
      <trkpt lat="40.13883" lon="-3.71255">
        <ele>624.4</ele>
        <time>2022-12-31 10:53:39</time>
      </trkpt>
      <trkpt lat="40.13887" lon="-3.71254">
        <ele>624.4</ele>
        <time>2022-12-31 10:53:40</time>
      </trkpt>
      <trkpt lat="40.13891" lon="-3.71254">
        <ele>624.4</ele>
        <time>2022-12-31 10:53:41</time>
      </trkpt>
      <trkpt lat="40.13894" lon="-3.71254">
        <ele>624.4</ele>
        <time>2022-12-31 10:53:42</time>
      </trkpt>
      <trkpt lat="40.13898" lon="-3.71254">
        <ele>624.6</ele>
        <time>2022-12-31 10:53:43</time>
      </trkpt>
      <trkpt lat="40.13901" lon="-3.71254">
        <ele>624.6</ele>
        <time>2022-12-31 10:53:44</time>
      </trkpt>
      <trkpt lat="40.13904" lon="-3.71254">
        <ele>624.8</ele>
        <time>2022-12-31 10:53:45</time>
      </trkpt>
      <trkpt lat="40.13907" lon="-3.71255">
        <ele>625</ele>
        <time>2022-12-31 10:53:46</time>
      </trkpt>
      <trkpt lat="40.13909" lon="-3.71255">
        <ele>625</ele>
        <time>2022-12-31 10:53:47</time>
      </trkpt>
      <trkpt lat="40.13912" lon="-3.71255">
        <ele>625.2</ele>
        <time>2022-12-31 10:53:48</time>
      </trkpt>
      <trkpt lat="40.13914" lon="-3.71256">
        <ele>625.2</ele>
        <time>2022-12-31 10:53:49</time>
      </trkpt>
      <trkpt lat="40.13916" lon="-3.71256">
        <ele>625.4</ele>
        <time>2022-12-31 10:53:50</time>
      </trkpt>
      <trkpt lat="40.13918" lon="-3.71256">
        <ele>625.6</ele>
        <time>2022-12-31 10:53:51</time>
      </trkpt>
      <trkpt lat="40.1392" lon="-3.71256">
        <ele>625.8</ele>
        <time>2022-12-31 10:53:52</time>
      </trkpt>
      <trkpt lat="40.13922" lon="-3.71256">
        <ele>626</ele>
        <time>2022-12-31 10:53:53</time>
      </trkpt>
      <trkpt lat="40.13924" lon="-3.71256">
        <ele>626.2</ele>
        <time>2022-12-31 10:53:54</time>
      </trkpt>
      <trkpt lat="40.13926" lon="-3.71257">
        <ele>626.8</ele>
        <time>2022-12-31 10:53:55</time>
      </trkpt>
      <trkpt lat="40.13928" lon="-3.71257">
        <ele>627.2</ele>
        <time>2022-12-31 10:53:56</time>
      </trkpt>
      <trkpt lat="40.13929" lon="-3.71257">
        <ele>627.4</ele>
        <time>2022-12-31 10:53:57</time>
      </trkpt>
      <trkpt lat="40.13931" lon="-3.71257">
        <ele>628</ele>
        <time>2022-12-31 10:53:58</time>
      </trkpt>
      <trkpt lat="40.13934" lon="-3.71257">
        <ele>628.4</ele>
        <time>2022-12-31 10:53:59</time>
      </trkpt>
      <trkpt lat="40.13935" lon="-3.71257">
        <ele>628.6</ele>
        <time>2022-12-31 10:54:00</time>
      </trkpt>
      <trkpt lat="40.13937" lon="-3.71257">
        <ele>629.2</ele>
        <time>2022-12-31 10:54:01</time>
      </trkpt>
      <trkpt lat="40.13939" lon="-3.71257">
        <ele>629.4</ele>
        <time>2022-12-31 10:54:02</time>
      </trkpt>
      <trkpt lat="40.13941" lon="-3.71258">
        <ele>629.6</ele>
        <time>2022-12-31 10:54:03</time>
      </trkpt>
      <trkpt lat="40.13943" lon="-3.71258">
        <ele>630.2</ele>
        <time>2022-12-31 10:54:04</time>
      </trkpt>
      <trkpt lat="40.13945" lon="-3.71258">
        <ele>630.6</ele>
        <time>2022-12-31 10:54:05</time>
      </trkpt>
      <trkpt lat="40.13947" lon="-3.71257">
        <ele>630.6</ele>
        <time>2022-12-31 10:54:06</time>
      </trkpt>
      <trkpt lat="40.13949" lon="-3.71257">
        <ele>631</ele>
        <time>2022-12-31 10:54:07</time>
      </trkpt>
      <trkpt lat="40.1395" lon="-3.71257">
        <ele>631.4</ele>
        <time>2022-12-31 10:54:08</time>
      </trkpt>
      <trkpt lat="40.13952" lon="-3.71256">
        <ele>631.4</ele>
        <time>2022-12-31 10:54:09</time>
      </trkpt>
      <trkpt lat="40.13954" lon="-3.71256">
        <ele>631.8</ele>
        <time>2022-12-31 10:54:10</time>
      </trkpt>
      <trkpt lat="40.13956" lon="-3.71256">
        <ele>632</ele>
        <time>2022-12-31 10:54:11</time>
      </trkpt>
      <trkpt lat="40.13958" lon="-3.71256">
        <ele>632.4</ele>
        <time>2022-12-31 10:54:12</time>
      </trkpt>
      <trkpt lat="40.1396" lon="-3.71255">
        <ele>632.8</ele>
        <time>2022-12-31 10:54:13</time>
      </trkpt>
      <trkpt lat="40.13962" lon="-3.71255">
        <ele>633.2</ele>
        <time>2022-12-31 10:54:14</time>
      </trkpt>
      <trkpt lat="40.13964" lon="-3.71255">
        <ele>633.4</ele>
        <time>2022-12-31 10:54:15</time>
      </trkpt>
      <trkpt lat="40.13966" lon="-3.71254">
        <ele>633.6</ele>
        <time>2022-12-31 10:54:16</time>
      </trkpt>
      <trkpt lat="40.13968" lon="-3.71253">
        <ele>634.2</ele>
        <time>2022-12-31 10:54:17</time>
      </trkpt>
      <trkpt lat="40.1397" lon="-3.71252">
        <ele>634.4</ele>
        <time>2022-12-31 10:54:18</time>
      </trkpt>
      <trkpt lat="40.13972" lon="-3.71252">
        <ele>635</ele>
        <time>2022-12-31 10:54:19</time>
      </trkpt>
      <trkpt lat="40.13974" lon="-3.71252">
        <ele>635.4</ele>
        <time>2022-12-31 10:54:20</time>
      </trkpt>
      <trkpt lat="40.13976" lon="-3.71252">
        <ele>635.8</ele>
        <time>2022-12-31 10:54:21</time>
      </trkpt>
      <trkpt lat="40.13978" lon="-3.71251">
        <ele>636</ele>
        <time>2022-12-31 10:54:22</time>
      </trkpt>
      <trkpt lat="40.1398" lon="-3.71251">
        <ele>636.2</ele>
        <time>2022-12-31 10:54:23</time>
      </trkpt>
      <trkpt lat="40.13983" lon="-3.71251">
        <ele>636.6</ele>
        <time>2022-12-31 10:54:24</time>
      </trkpt>
      <trkpt lat="40.13985" lon="-3.71251">
        <ele>636.8</ele>
        <time>2022-12-31 10:54:25</time>
      </trkpt>
      <trkpt lat="40.13988" lon="-3.71251">
        <ele>637.2</ele>
        <time>2022-12-31 10:54:26</time>
      </trkpt>
      <trkpt lat="40.13991" lon="-3.71251">
        <ele>637.2</ele>
        <time>2022-12-31 10:54:27</time>
      </trkpt>
      <trkpt lat="40.13995" lon="-3.7125">
        <ele>637.4</ele>
        <time>2022-12-31 10:54:28</time>
      </trkpt>
      <trkpt lat="40.13998" lon="-3.7125">
        <ele>637.4</ele>
        <time>2022-12-31 10:54:29</time>
      </trkpt>
      <trkpt lat="40.14001" lon="-3.7125">
        <ele>637.4</ele>
        <time>2022-12-31 10:54:30</time>
      </trkpt>
      <trkpt lat="40.14005" lon="-3.7125">
        <ele>637.6</ele>
        <time>2022-12-31 10:54:31</time>
      </trkpt>
      <trkpt lat="40.14009" lon="-3.7125">
        <ele>637.6</ele>
        <time>2022-12-31 10:54:32</time>
      </trkpt>
      <trkpt lat="40.14012" lon="-3.7125">
        <ele>637.6</ele>
        <time>2022-12-31 10:54:33</time>
      </trkpt>
      <trkpt lat="40.14016" lon="-3.7125">
        <ele>637.6</ele>
        <time>2022-12-31 10:54:34</time>
      </trkpt>
      <trkpt lat="40.1402" lon="-3.71251">
        <ele>637.6</ele>
        <time>2022-12-31 10:54:35</time>
      </trkpt>
      <trkpt lat="40.14024" lon="-3.71251">
        <ele>637.6</ele>
        <time>2022-12-31 10:54:36</time>
      </trkpt>
      <trkpt lat="40.14028" lon="-3.71251">
        <ele>637.6</ele>
        <time>2022-12-31 10:54:37</time>
      </trkpt>
      <trkpt lat="40.14032" lon="-3.71252">
        <ele>637.4</ele>
        <time>2022-12-31 10:54:38</time>
      </trkpt>
      <trkpt lat="40.14035" lon="-3.71252">
        <ele>637.6</ele>
        <time>2022-12-31 10:54:39</time>
      </trkpt>
      <trkpt lat="40.14039" lon="-3.71253">
        <ele>637.6</ele>
        <time>2022-12-31 10:54:40</time>
      </trkpt>
      <trkpt lat="40.14044" lon="-3.71254">
        <ele>637.6</ele>
        <time>2022-12-31 10:54:41</time>
      </trkpt>
      <trkpt lat="40.14048" lon="-3.71255">
        <ele>637.6</ele>
        <time>2022-12-31 10:54:42</time>
      </trkpt>
      <trkpt lat="40.14052" lon="-3.71256">
        <ele>637.6</ele>
        <time>2022-12-31 10:54:43</time>
      </trkpt>
      <trkpt lat="40.14056" lon="-3.71258">
        <ele>637.6</ele>
        <time>2022-12-31 10:54:44</time>
      </trkpt>
      <trkpt lat="40.1406" lon="-3.71259">
        <ele>637.6</ele>
        <time>2022-12-31 10:54:45</time>
      </trkpt>
      <trkpt lat="40.14063" lon="-3.7126">
        <ele>637.6</ele>
        <time>2022-12-31 10:54:46</time>
      </trkpt>
      <trkpt lat="40.14067" lon="-3.71262">
        <ele>637.6</ele>
        <time>2022-12-31 10:54:47</time>
      </trkpt>
      <trkpt lat="40.14071" lon="-3.71264">
        <ele>637.8</ele>
        <time>2022-12-31 10:54:48</time>
      </trkpt>
      <trkpt lat="40.14075" lon="-3.71266">
        <ele>637.8</ele>
        <time>2022-12-31 10:54:49</time>
      </trkpt>
      <trkpt lat="40.14079" lon="-3.71268">
        <ele>638</ele>
        <time>2022-12-31 10:54:50</time>
      </trkpt>
      <trkpt lat="40.14082" lon="-3.71271">
        <ele>638</ele>
        <time>2022-12-31 10:54:51</time>
      </trkpt>
      <trkpt lat="40.14086" lon="-3.71274">
        <ele>638</ele>
        <time>2022-12-31 10:54:52</time>
      </trkpt>
      <trkpt lat="40.14089" lon="-3.71277">
        <ele>638.2</ele>
        <time>2022-12-31 10:54:53</time>
      </trkpt>
      <trkpt lat="40.14092" lon="-3.71281">
        <ele>638.2</ele>
        <time>2022-12-31 10:54:54</time>
      </trkpt>
      <trkpt lat="40.14095" lon="-3.71285">
        <ele>638.2</ele>
        <time>2022-12-31 10:54:55</time>
      </trkpt>
      <trkpt lat="40.14098" lon="-3.71289">
        <ele>638.2</ele>
        <time>2022-12-31 10:54:56</time>
      </trkpt>
      <trkpt lat="40.141" lon="-3.71293">
        <ele>638.4</ele>
        <time>2022-12-31 10:54:57</time>
      </trkpt>
      <trkpt lat="40.14103" lon="-3.71297">
        <ele>638.4</ele>
        <time>2022-12-31 10:54:58</time>
      </trkpt>
      <trkpt lat="40.14105" lon="-3.71301">
        <ele>638.4</ele>
        <time>2022-12-31 10:54:59</time>
      </trkpt>
      <trkpt lat="40.14107" lon="-3.71305">
        <ele>638.6</ele>
        <time>2022-12-31 10:55:00</time>
      </trkpt>
      <trkpt lat="40.14109" lon="-3.71309">
        <ele>638.8</ele>
        <time>2022-12-31 10:55:01</time>
      </trkpt>
      <trkpt lat="40.14111" lon="-3.71312">
        <ele>639</ele>
        <time>2022-12-31 10:55:02</time>
      </trkpt>
      <trkpt lat="40.14113" lon="-3.71316">
        <ele>639</ele>
        <time>2022-12-31 10:55:03</time>
      </trkpt>
      <trkpt lat="40.14115" lon="-3.71319">
        <ele>639</ele>
        <time>2022-12-31 10:55:04</time>
      </trkpt>
      <trkpt lat="40.14117" lon="-3.71323">
        <ele>639</ele>
        <time>2022-12-31 10:55:05</time>
      </trkpt>
      <trkpt lat="40.14119" lon="-3.71327">
        <ele>639</ele>
        <time>2022-12-31 10:55:06</time>
      </trkpt>
      <trkpt lat="40.1412" lon="-3.7133">
        <ele>639.2</ele>
        <time>2022-12-31 10:55:07</time>
      </trkpt>
      <trkpt lat="40.14122" lon="-3.71334">
        <ele>639.4</ele>
        <time>2022-12-31 10:55:08</time>
      </trkpt>
      <trkpt lat="40.14123" lon="-3.71338">
        <ele>639.4</ele>
        <time>2022-12-31 10:55:09</time>
      </trkpt>
      <trkpt lat="40.14125" lon="-3.71342">
        <ele>639.8</ele>
        <time>2022-12-31 10:55:10</time>
      </trkpt>
      <trkpt lat="40.14126" lon="-3.71346">
        <ele>639.8</ele>
        <time>2022-12-31 10:55:11</time>
      </trkpt>
      <trkpt lat="40.14127" lon="-3.7135">
        <ele>640</ele>
        <time>2022-12-31 10:55:12</time>
      </trkpt>
      <trkpt lat="40.14129" lon="-3.71355">
        <ele>640.2</ele>
        <time>2022-12-31 10:55:13</time>
      </trkpt>
      <trkpt lat="40.1413" lon="-3.71359">
        <ele>640.4</ele>
        <time>2022-12-31 10:55:14</time>
      </trkpt>
      <trkpt lat="40.14131" lon="-3.71364">
        <ele>640.8</ele>
        <time>2022-12-31 10:55:15</time>
      </trkpt>
      <trkpt lat="40.14132" lon="-3.71368">
        <ele>641</ele>
        <time>2022-12-31 10:55:16</time>
      </trkpt>
      <trkpt lat="40.14134" lon="-3.71373">
        <ele>641.2</ele>
        <time>2022-12-31 10:55:17</time>
      </trkpt>
      <trkpt lat="40.14135" lon="-3.71378">
        <ele>641.4</ele>
        <time>2022-12-31 10:55:18</time>
      </trkpt>
      <trkpt lat="40.14136" lon="-3.71382">
        <ele>641.8</ele>
        <time>2022-12-31 10:55:19</time>
      </trkpt>
      <trkpt lat="40.14138" lon="-3.71386">
        <ele>642.2</ele>
        <time>2022-12-31 10:55:20</time>
      </trkpt>
      <trkpt lat="40.1414" lon="-3.7139">
        <ele>642.2</ele>
        <time>2022-12-31 10:55:21</time>
      </trkpt>
      <trkpt lat="40.14142" lon="-3.71394">
        <ele>642.4</ele>
        <time>2022-12-31 10:55:22</time>
      </trkpt>
      <trkpt lat="40.14145" lon="-3.71398">
        <ele>642.4</ele>
        <time>2022-12-31 10:55:23</time>
      </trkpt>
      <trkpt lat="40.14147" lon="-3.71401">
        <ele>642.6</ele>
        <time>2022-12-31 10:55:24</time>
      </trkpt>
      <trkpt lat="40.1415" lon="-3.71405">
        <ele>642.6</ele>
        <time>2022-12-31 10:55:25</time>
      </trkpt>
      <trkpt lat="40.14153" lon="-3.71408">
        <ele>642.6</ele>
        <time>2022-12-31 10:55:26</time>
      </trkpt>
      <trkpt lat="40.14156" lon="-3.71412">
        <ele>642.8</ele>
        <time>2022-12-31 10:55:27</time>
      </trkpt>
      <trkpt lat="40.1416" lon="-3.71417">
        <ele>642.8</ele>
        <time>2022-12-31 10:55:28</time>
      </trkpt>
      <trkpt lat="40.14163" lon="-3.71421">
        <ele>643</ele>
        <time>2022-12-31 10:55:29</time>
      </trkpt>
      <trkpt lat="40.14167" lon="-3.71426">
        <ele>642.8</ele>
        <time>2022-12-31 10:55:30</time>
      </trkpt>
      <trkpt lat="40.14171" lon="-3.71432">
        <ele>642.8</ele>
        <time>2022-12-31 10:55:31</time>
      </trkpt>
      <trkpt lat="40.14176" lon="-3.71438">
        <ele>643</ele>
        <time>2022-12-31 10:55:32</time>
      </trkpt>
      <trkpt lat="40.1418" lon="-3.71444">
        <ele>643</ele>
        <time>2022-12-31 10:55:33</time>
      </trkpt>
      <trkpt lat="40.14185" lon="-3.71451">
        <ele>643</ele>
        <time>2022-12-31 10:55:34</time>
      </trkpt>
      <trkpt lat="40.1419" lon="-3.71458">
        <ele>643</ele>
        <time>2022-12-31 10:55:35</time>
      </trkpt>
      <trkpt lat="40.14194" lon="-3.71464">
        <ele>643</ele>
        <time>2022-12-31 10:55:36</time>
      </trkpt>
      <trkpt lat="40.14199" lon="-3.71471">
        <ele>643</ele>
        <time>2022-12-31 10:55:37</time>
      </trkpt>
      <trkpt lat="40.14204" lon="-3.71477">
        <ele>642.4</ele>
        <time>2022-12-31 10:55:38</time>
      </trkpt>
      <trkpt lat="40.14209" lon="-3.71483">
        <ele>642</ele>
        <time>2022-12-31 10:55:39</time>
      </trkpt>
      <trkpt lat="40.14214" lon="-3.71489">
        <ele>641.6</ele>
        <time>2022-12-31 10:55:40</time>
      </trkpt>
      <trkpt lat="40.14219" lon="-3.71494">
        <ele>640.8</ele>
        <time>2022-12-31 10:55:41</time>
      </trkpt>
      <trkpt lat="40.14223" lon="-3.71498">
        <ele>640.2</ele>
        <time>2022-12-31 10:55:42</time>
      </trkpt>
      <trkpt lat="40.14227" lon="-3.715">
        <ele>639.6</ele>
        <time>2022-12-31 10:55:43</time>
      </trkpt>
      <trkpt lat="40.14229" lon="-3.71503">
        <ele>639</ele>
        <time>2022-12-31 10:55:44</time>
      </trkpt>
      <trkpt lat="40.14231" lon="-3.71506">
        <ele>638.6</ele>
        <time>2022-12-31 10:55:45</time>
      </trkpt>
      <trkpt lat="40.14234" lon="-3.71508">
        <ele>638.4</ele>
        <time>2022-12-31 10:55:46</time>
      </trkpt>
      <trkpt lat="40.14236" lon="-3.71511">
        <ele>638.2</ele>
        <time>2022-12-31 10:55:47</time>
      </trkpt>
      <trkpt lat="40.14238" lon="-3.71513">
        <ele>638.4</ele>
        <time>2022-12-31 10:55:48</time>
      </trkpt>
      <trkpt lat="40.1424" lon="-3.71515">
        <ele>638.2</ele>
        <time>2022-12-31 10:55:49</time>
      </trkpt>
      <trkpt lat="40.14242" lon="-3.71518">
        <ele>638.2</ele>
        <time>2022-12-31 10:55:50</time>
      </trkpt>
      <trkpt lat="40.14245" lon="-3.71521">
        <ele>638.2</ele>
        <time>2022-12-31 10:55:51</time>
      </trkpt>
      <trkpt lat="40.14248" lon="-3.71525">
        <ele>638</ele>
        <time>2022-12-31 10:55:52</time>
      </trkpt>
      <trkpt lat="40.14252" lon="-3.71528">
        <ele>638</ele>
        <time>2022-12-31 10:55:53</time>
      </trkpt>
      <trkpt lat="40.14256" lon="-3.71531">
        <ele>638</ele>
        <time>2022-12-31 10:55:54</time>
      </trkpt>
      <trkpt lat="40.1426" lon="-3.71535">
        <ele>637.8</ele>
        <time>2022-12-31 10:55:55</time>
      </trkpt>
      <trkpt lat="40.14264" lon="-3.71538">
        <ele>637.8</ele>
        <time>2022-12-31 10:55:56</time>
      </trkpt>
      <trkpt lat="40.14269" lon="-3.71541">
        <ele>637.8</ele>
        <time>2022-12-31 10:55:57</time>
      </trkpt>
      <trkpt lat="40.14273" lon="-3.71544">
        <ele>637.6</ele>
        <time>2022-12-31 10:55:58</time>
      </trkpt>
      <trkpt lat="40.14278" lon="-3.71547">
        <ele>637.6</ele>
        <time>2022-12-31 10:55:59</time>
      </trkpt>
      <trkpt lat="40.14282" lon="-3.71551">
        <ele>637.8</ele>
        <time>2022-12-31 10:56:00</time>
      </trkpt>
      <trkpt lat="40.14286" lon="-3.71554">
        <ele>637.6</ele>
        <time>2022-12-31 10:56:01</time>
      </trkpt>
      <trkpt lat="40.1429" lon="-3.71557">
        <ele>637.4</ele>
        <time>2022-12-31 10:56:02</time>
      </trkpt>
      <trkpt lat="40.14294" lon="-3.7156">
        <ele>637.6</ele>
        <time>2022-12-31 10:56:03</time>
      </trkpt>
      <trkpt lat="40.14298" lon="-3.71563">
        <ele>637.4</ele>
        <time>2022-12-31 10:56:04</time>
      </trkpt>
      <trkpt lat="40.14301" lon="-3.71566">
        <ele>637.2</ele>
        <time>2022-12-31 10:56:05</time>
      </trkpt>
      <trkpt lat="40.14305" lon="-3.71569">
        <ele>637.2</ele>
        <time>2022-12-31 10:56:06</time>
      </trkpt>
      <trkpt lat="40.14309" lon="-3.71572">
        <ele>637.2</ele>
        <time>2022-12-31 10:56:07</time>
      </trkpt>
      <trkpt lat="40.14313" lon="-3.71574">
        <ele>637.2</ele>
        <time>2022-12-31 10:56:08</time>
      </trkpt>
      <trkpt lat="40.14317" lon="-3.71577">
        <ele>637.2</ele>
        <time>2022-12-31 10:56:09</time>
      </trkpt>
      <trkpt lat="40.14321" lon="-3.71581">
        <ele>637</ele>
        <time>2022-12-31 10:56:10</time>
      </trkpt>
      <trkpt lat="40.14325" lon="-3.71584">
        <ele>637</ele>
        <time>2022-12-31 10:56:11</time>
      </trkpt>
      <trkpt lat="40.14328" lon="-3.71587">
        <ele>637.2</ele>
        <time>2022-12-31 10:56:12</time>
      </trkpt>
      <trkpt lat="40.14332" lon="-3.71591">
        <ele>637.2</ele>
        <time>2022-12-31 10:56:13</time>
      </trkpt>
      <trkpt lat="40.14336" lon="-3.71595">
        <ele>637</ele>
        <time>2022-12-31 10:56:14</time>
      </trkpt>
      <trkpt lat="40.14339" lon="-3.71599">
        <ele>637</ele>
        <time>2022-12-31 10:56:15</time>
      </trkpt>
      <trkpt lat="40.14343" lon="-3.71603">
        <ele>637</ele>
        <time>2022-12-31 10:56:16</time>
      </trkpt>
      <trkpt lat="40.14347" lon="-3.71607">
        <ele>637.2</ele>
        <time>2022-12-31 10:56:17</time>
      </trkpt>
      <trkpt lat="40.1435" lon="-3.71611">
        <ele>637</ele>
        <time>2022-12-31 10:56:18</time>
      </trkpt>
      <trkpt lat="40.14354" lon="-3.71614">
        <ele>637.2</ele>
        <time>2022-12-31 10:56:19</time>
      </trkpt>
      <trkpt lat="40.14358" lon="-3.71618">
        <ele>637.2</ele>
        <time>2022-12-31 10:56:20</time>
      </trkpt>
      <trkpt lat="40.14361" lon="-3.71621">
        <ele>637.4</ele>
        <time>2022-12-31 10:56:21</time>
      </trkpt>
      <trkpt lat="40.14365" lon="-3.71625">
        <ele>637.2</ele>
        <time>2022-12-31 10:56:22</time>
      </trkpt>
      <trkpt lat="40.14369" lon="-3.71628">
        <ele>637.4</ele>
        <time>2022-12-31 10:56:23</time>
      </trkpt>
      <trkpt lat="40.14372" lon="-3.71632">
        <ele>637.4</ele>
        <time>2022-12-31 10:56:24</time>
      </trkpt>
      <trkpt lat="40.14375" lon="-3.71636">
        <ele>637.4</ele>
        <time>2022-12-31 10:56:25</time>
      </trkpt>
      <trkpt lat="40.14378" lon="-3.71639">
        <ele>637.4</ele>
        <time>2022-12-31 10:56:26</time>
      </trkpt>
      <trkpt lat="40.14382" lon="-3.71643">
        <ele>637.4</ele>
        <time>2022-12-31 10:56:27</time>
      </trkpt>
      <trkpt lat="40.14385" lon="-3.71647">
        <ele>637.6</ele>
        <time>2022-12-31 10:56:28</time>
      </trkpt>
      <trkpt lat="40.14389" lon="-3.7165">
        <ele>637.8</ele>
        <time>2022-12-31 10:56:29</time>
      </trkpt>
      <trkpt lat="40.14393" lon="-3.71653">
        <ele>637.8</ele>
        <time>2022-12-31 10:56:30</time>
      </trkpt>
      <trkpt lat="40.14397" lon="-3.71656">
        <ele>638</ele>
        <time>2022-12-31 10:56:31</time>
      </trkpt>
      <trkpt lat="40.14401" lon="-3.71659">
        <ele>638.2</ele>
        <time>2022-12-31 10:56:32</time>
      </trkpt>
      <trkpt lat="40.14405" lon="-3.71662">
        <ele>638.2</ele>
        <time>2022-12-31 10:56:33</time>
      </trkpt>
      <trkpt lat="40.14409" lon="-3.71664">
        <ele>638.2</ele>
        <time>2022-12-31 10:56:34</time>
      </trkpt>
      <trkpt lat="40.14413" lon="-3.71667">
        <ele>638.2</ele>
        <time>2022-12-31 10:56:35</time>
      </trkpt>
      <trkpt lat="40.14417" lon="-3.71669">
        <ele>638.2</ele>
        <time>2022-12-31 10:56:36</time>
      </trkpt>
      <trkpt lat="40.14421" lon="-3.71672">
        <ele>638.2</ele>
        <time>2022-12-31 10:56:37</time>
      </trkpt>
      <trkpt lat="40.14424" lon="-3.71675">
        <ele>638.4</ele>
        <time>2022-12-31 10:56:38</time>
      </trkpt>
      <trkpt lat="40.14428" lon="-3.71678">
        <ele>638.4</ele>
        <time>2022-12-31 10:56:39</time>
      </trkpt>
      <trkpt lat="40.14431" lon="-3.71682">
        <ele>638.4</ele>
        <time>2022-12-31 10:56:40</time>
      </trkpt>
      <trkpt lat="40.14435" lon="-3.71685">
        <ele>638.4</ele>
        <time>2022-12-31 10:56:41</time>
      </trkpt>
      <trkpt lat="40.14438" lon="-3.71689">
        <ele>638.6</ele>
        <time>2022-12-31 10:56:42</time>
      </trkpt>
      <trkpt lat="40.14441" lon="-3.71694">
        <ele>638.6</ele>
        <time>2022-12-31 10:56:43</time>
      </trkpt>
      <trkpt lat="40.14443" lon="-3.71698">
        <ele>638.6</ele>
        <time>2022-12-31 10:56:44</time>
      </trkpt>
      <trkpt lat="40.14446" lon="-3.71703">
        <ele>638.8</ele>
        <time>2022-12-31 10:56:45</time>
      </trkpt>
      <trkpt lat="40.14449" lon="-3.71708">
        <ele>638.8</ele>
        <time>2022-12-31 10:56:46</time>
      </trkpt>
      <trkpt lat="40.14452" lon="-3.71713">
        <ele>638.8</ele>
        <time>2022-12-31 10:56:47</time>
      </trkpt>
      <trkpt lat="40.14455" lon="-3.71717">
        <ele>639</ele>
        <time>2022-12-31 10:56:48</time>
      </trkpt>
      <trkpt lat="40.14458" lon="-3.71722">
        <ele>639</ele>
        <time>2022-12-31 10:56:49</time>
      </trkpt>
      <trkpt lat="40.14461" lon="-3.71727">
        <ele>639</ele>
        <time>2022-12-31 10:56:50</time>
      </trkpt>
      <trkpt lat="40.14464" lon="-3.71731">
        <ele>639.4</ele>
        <time>2022-12-31 10:56:51</time>
      </trkpt>
      <trkpt lat="40.14467" lon="-3.71736">
        <ele>639.6</ele>
        <time>2022-12-31 10:56:52</time>
      </trkpt>
      <trkpt lat="40.1447" lon="-3.7174">
        <ele>639.6</ele>
        <time>2022-12-31 10:56:53</time>
      </trkpt>
      <trkpt lat="40.14473" lon="-3.71744">
        <ele>639.6</ele>
        <time>2022-12-31 10:56:54</time>
      </trkpt>
      <trkpt lat="40.14476" lon="-3.71748">
        <ele>639.6</ele>
        <time>2022-12-31 10:56:55</time>
      </trkpt>
      <trkpt lat="40.14479" lon="-3.71751">
        <ele>639.8</ele>
        <time>2022-12-31 10:56:56</time>
      </trkpt>
      <trkpt lat="40.14482" lon="-3.71754">
        <ele>640</ele>
        <time>2022-12-31 10:56:57</time>
      </trkpt>
      <trkpt lat="40.14485" lon="-3.71758">
        <ele>640</ele>
        <time>2022-12-31 10:56:58</time>
      </trkpt>
      <trkpt lat="40.14488" lon="-3.71761">
        <ele>640.2</ele>
        <time>2022-12-31 10:56:59</time>
      </trkpt>
      <trkpt lat="40.14491" lon="-3.71765">
        <ele>640.2</ele>
        <time>2022-12-31 10:57:00</time>
      </trkpt>
      <trkpt lat="40.14494" lon="-3.71768">
        <ele>640.4</ele>
        <time>2022-12-31 10:57:01</time>
      </trkpt>
      <trkpt lat="40.14497" lon="-3.71772">
        <ele>640.6</ele>
        <time>2022-12-31 10:57:02</time>
      </trkpt>
      <trkpt lat="40.145" lon="-3.71776">
        <ele>640.6</ele>
        <time>2022-12-31 10:57:03</time>
      </trkpt>
      <trkpt lat="40.14503" lon="-3.71779">
        <ele>640.8</ele>
        <time>2022-12-31 10:57:04</time>
      </trkpt>
      <trkpt lat="40.14505" lon="-3.71783">
        <ele>641.2</ele>
        <time>2022-12-31 10:57:05</time>
      </trkpt>
      <trkpt lat="40.14508" lon="-3.71787">
        <ele>641.4</ele>
        <time>2022-12-31 10:57:06</time>
      </trkpt>
      <trkpt lat="40.14511" lon="-3.7179">
        <ele>641.6</ele>
        <time>2022-12-31 10:57:07</time>
      </trkpt>
      <trkpt lat="40.14514" lon="-3.71794">
        <ele>641.6</ele>
        <time>2022-12-31 10:57:08</time>
      </trkpt>
      <trkpt lat="40.14517" lon="-3.71797">
        <ele>641.8</ele>
        <time>2022-12-31 10:57:09</time>
      </trkpt>
      <trkpt lat="40.1452" lon="-3.71801">
        <ele>641.8</ele>
        <time>2022-12-31 10:57:10</time>
      </trkpt>
      <trkpt lat="40.14523" lon="-3.71804">
        <ele>642</ele>
        <time>2022-12-31 10:57:11</time>
      </trkpt>
      <trkpt lat="40.14525" lon="-3.71808">
        <ele>642</ele>
        <time>2022-12-31 10:57:12</time>
      </trkpt>
      <trkpt lat="40.14528" lon="-3.71812">
        <ele>642</ele>
        <time>2022-12-31 10:57:13</time>
      </trkpt>
      <trkpt lat="40.14532" lon="-3.71816">
        <ele>642.2</ele>
        <time>2022-12-31 10:57:14</time>
      </trkpt>
      <trkpt lat="40.14534" lon="-3.71819">
        <ele>642.2</ele>
        <time>2022-12-31 10:57:15</time>
      </trkpt>
      <trkpt lat="40.14537" lon="-3.71823">
        <ele>642.4</ele>
        <time>2022-12-31 10:57:16</time>
      </trkpt>
      <trkpt lat="40.1454" lon="-3.71827">
        <ele>642.4</ele>
        <time>2022-12-31 10:57:17</time>
      </trkpt>
      <trkpt lat="40.14543" lon="-3.71831">
        <ele>642.4</ele>
        <time>2022-12-31 10:57:18</time>
      </trkpt>
      <trkpt lat="40.14546" lon="-3.71834">
        <ele>642.6</ele>
        <time>2022-12-31 10:57:19</time>
      </trkpt>
      <trkpt lat="40.14548" lon="-3.71839">
        <ele>642.8</ele>
        <time>2022-12-31 10:57:20</time>
      </trkpt>
      <trkpt lat="40.14551" lon="-3.71843">
        <ele>643</ele>
        <time>2022-12-31 10:57:21</time>
      </trkpt>
      <trkpt lat="40.14553" lon="-3.71847">
        <ele>643</ele>
        <time>2022-12-31 10:57:22</time>
      </trkpt>
      <trkpt lat="40.14556" lon="-3.71851">
        <ele>643.2</ele>
        <time>2022-12-31 10:57:23</time>
      </trkpt>
      <trkpt lat="40.14558" lon="-3.71855">
        <ele>643.6</ele>
        <time>2022-12-31 10:57:24</time>
      </trkpt>
      <trkpt lat="40.14561" lon="-3.71859">
        <ele>643.4</ele>
        <time>2022-12-31 10:57:25</time>
      </trkpt>
      <trkpt lat="40.14563" lon="-3.71864">
        <ele>643.8</ele>
        <time>2022-12-31 10:57:26</time>
      </trkpt>
      <trkpt lat="40.14565" lon="-3.71868">
        <ele>643.8</ele>
        <time>2022-12-31 10:57:27</time>
      </trkpt>
      <trkpt lat="40.14567" lon="-3.71873">
        <ele>644</ele>
        <time>2022-12-31 10:57:28</time>
      </trkpt>
      <trkpt lat="40.1457" lon="-3.71877">
        <ele>644</ele>
        <time>2022-12-31 10:57:29</time>
      </trkpt>
      <trkpt lat="40.14572" lon="-3.71882">
        <ele>644.2</ele>
        <time>2022-12-31 10:57:30</time>
      </trkpt>
      <trkpt lat="40.14574" lon="-3.71886">
        <ele>644.4</ele>
        <time>2022-12-31 10:57:31</time>
      </trkpt>
      <trkpt lat="40.14576" lon="-3.7189">
        <ele>644.6</ele>
        <time>2022-12-31 10:57:32</time>
      </trkpt>
      <trkpt lat="40.14579" lon="-3.71895">
        <ele>644.6</ele>
        <time>2022-12-31 10:57:33</time>
      </trkpt>
      <trkpt lat="40.14581" lon="-3.71899">
        <ele>644.6</ele>
        <time>2022-12-31 10:57:34</time>
      </trkpt>
      <trkpt lat="40.14583" lon="-3.71903">
        <ele>644.8</ele>
        <time>2022-12-31 10:57:35</time>
      </trkpt>
      <trkpt lat="40.14585" lon="-3.71907">
        <ele>645.2</ele>
        <time>2022-12-31 10:57:36</time>
      </trkpt>
      <trkpt lat="40.14588" lon="-3.71912">
        <ele>645.2</ele>
        <time>2022-12-31 10:57:37</time>
      </trkpt>
      <trkpt lat="40.1459" lon="-3.71916">
        <ele>645.6</ele>
        <time>2022-12-31 10:57:38</time>
      </trkpt>
      <trkpt lat="40.14592" lon="-3.71921">
        <ele>645.6</ele>
        <time>2022-12-31 10:57:39</time>
      </trkpt>
      <trkpt lat="40.14594" lon="-3.71926">
        <ele>645.8</ele>
        <time>2022-12-31 10:57:40</time>
      </trkpt>
      <trkpt lat="40.14597" lon="-3.7193">
        <ele>646</ele>
        <time>2022-12-31 10:57:41</time>
      </trkpt>
      <trkpt lat="40.14599" lon="-3.71934">
        <ele>646</ele>
        <time>2022-12-31 10:57:42</time>
      </trkpt>
      <trkpt lat="40.14602" lon="-3.71939">
        <ele>646.2</ele>
        <time>2022-12-31 10:57:43</time>
      </trkpt>
      <trkpt lat="40.14605" lon="-3.71943">
        <ele>646.4</ele>
        <time>2022-12-31 10:57:44</time>
      </trkpt>
      <trkpt lat="40.14607" lon="-3.71947">
        <ele>646.6</ele>
        <time>2022-12-31 10:57:45</time>
      </trkpt>
      <trkpt lat="40.1461" lon="-3.71951">
        <ele>646.6</ele>
        <time>2022-12-31 10:57:46</time>
      </trkpt>
      <trkpt lat="40.14613" lon="-3.71956">
        <ele>646.8</ele>
        <time>2022-12-31 10:57:47</time>
      </trkpt>
      <trkpt lat="40.14615" lon="-3.7196">
        <ele>646.8</ele>
        <time>2022-12-31 10:57:48</time>
      </trkpt>
      <trkpt lat="40.14617" lon="-3.71964">
        <ele>646.8</ele>
        <time>2022-12-31 10:57:49</time>
      </trkpt>
      <trkpt lat="40.1462" lon="-3.71968">
        <ele>646.8</ele>
        <time>2022-12-31 10:57:50</time>
      </trkpt>
      <trkpt lat="40.14622" lon="-3.71972">
        <ele>646.8</ele>
        <time>2022-12-31 10:57:51</time>
      </trkpt>
      <trkpt lat="40.14625" lon="-3.71976">
        <ele>647</ele>
        <time>2022-12-31 10:57:52</time>
      </trkpt>
      <trkpt lat="40.14628" lon="-3.7198">
        <ele>647.2</ele>
        <time>2022-12-31 10:57:53</time>
      </trkpt>
      <trkpt lat="40.14631" lon="-3.71984">
        <ele>647.4</ele>
        <time>2022-12-31 10:57:54</time>
      </trkpt>
      <trkpt lat="40.14633" lon="-3.71989">
        <ele>647.4</ele>
        <time>2022-12-31 10:57:55</time>
      </trkpt>
      <trkpt lat="40.14636" lon="-3.71993">
        <ele>647.8</ele>
        <time>2022-12-31 10:57:56</time>
      </trkpt>
      <trkpt lat="40.14639" lon="-3.71997">
        <ele>648</ele>
        <time>2022-12-31 10:57:57</time>
      </trkpt>
      <trkpt lat="40.14641" lon="-3.72001">
        <ele>648.4</ele>
        <time>2022-12-31 10:57:58</time>
      </trkpt>
      <trkpt lat="40.14644" lon="-3.72005">
        <ele>648.4</ele>
        <time>2022-12-31 10:57:59</time>
      </trkpt>
      <trkpt lat="40.14647" lon="-3.72009">
        <ele>648.6</ele>
        <time>2022-12-31 10:58:00</time>
      </trkpt>
      <trkpt lat="40.14649" lon="-3.72013">
        <ele>648.6</ele>
        <time>2022-12-31 10:58:01</time>
      </trkpt>
      <trkpt lat="40.14652" lon="-3.72017">
        <ele>648.8</ele>
        <time>2022-12-31 10:58:02</time>
      </trkpt>
      <trkpt lat="40.14655" lon="-3.72021">
        <ele>648.8</ele>
        <time>2022-12-31 10:58:03</time>
      </trkpt>
      <trkpt lat="40.14658" lon="-3.72025">
        <ele>648.8</ele>
        <time>2022-12-31 10:58:04</time>
      </trkpt>
      <trkpt lat="40.1466" lon="-3.72029">
        <ele>649.2</ele>
        <time>2022-12-31 10:58:05</time>
      </trkpt>
      <trkpt lat="40.14663" lon="-3.72032">
        <ele>649</ele>
        <time>2022-12-31 10:58:06</time>
      </trkpt>
      <trkpt lat="40.14665" lon="-3.72036">
        <ele>649.2</ele>
        <time>2022-12-31 10:58:07</time>
      </trkpt>
      <trkpt lat="40.14667" lon="-3.7204">
        <ele>649.6</ele>
        <time>2022-12-31 10:58:08</time>
      </trkpt>
      <trkpt lat="40.14669" lon="-3.72044">
        <ele>649.6</ele>
        <time>2022-12-31 10:58:09</time>
      </trkpt>
      <trkpt lat="40.14672" lon="-3.72048">
        <ele>650</ele>
        <time>2022-12-31 10:58:10</time>
      </trkpt>
      <trkpt lat="40.14674" lon="-3.72052">
        <ele>650</ele>
        <time>2022-12-31 10:58:11</time>
      </trkpt>
      <trkpt lat="40.14677" lon="-3.72055">
        <ele>650.2</ele>
        <time>2022-12-31 10:58:12</time>
      </trkpt>
      <trkpt lat="40.14679" lon="-3.72059">
        <ele>650.4</ele>
        <time>2022-12-31 10:58:13</time>
      </trkpt>
      <trkpt lat="40.14682" lon="-3.72063">
        <ele>650.6</ele>
        <time>2022-12-31 10:58:14</time>
      </trkpt>
      <trkpt lat="40.14684" lon="-3.72066">
        <ele>650.6</ele>
        <time>2022-12-31 10:58:15</time>
      </trkpt>
      <trkpt lat="40.14687" lon="-3.72069">
        <ele>650.8</ele>
        <time>2022-12-31 10:58:16</time>
      </trkpt>
      <trkpt lat="40.14689" lon="-3.72073">
        <ele>651</ele>
        <time>2022-12-31 10:58:17</time>
      </trkpt>
      <trkpt lat="40.14692" lon="-3.72076">
        <ele>651.2</ele>
        <time>2022-12-31 10:58:18</time>
      </trkpt>
      <trkpt lat="40.14694" lon="-3.7208">
        <ele>651.4</ele>
        <time>2022-12-31 10:58:19</time>
      </trkpt>
      <trkpt lat="40.14696" lon="-3.72083">
        <ele>651.6</ele>
        <time>2022-12-31 10:58:20</time>
      </trkpt>
      <trkpt lat="40.14698" lon="-3.72087">
        <ele>651.6</ele>
        <time>2022-12-31 10:58:21</time>
      </trkpt>
      <trkpt lat="40.147" lon="-3.72091">
        <ele>651.6</ele>
        <time>2022-12-31 10:58:22</time>
      </trkpt>
      <trkpt lat="40.14702" lon="-3.72095">
        <ele>651.8</ele>
        <time>2022-12-31 10:58:23</time>
      </trkpt>
      <trkpt lat="40.14704" lon="-3.72098">
        <ele>651.8</ele>
        <time>2022-12-31 10:58:24</time>
      </trkpt>
      <trkpt lat="40.14705" lon="-3.72102">
        <ele>652.2</ele>
        <time>2022-12-31 10:58:25</time>
      </trkpt>
      <trkpt lat="40.14707" lon="-3.72106">
        <ele>652.2</ele>
        <time>2022-12-31 10:58:26</time>
      </trkpt>
      <trkpt lat="40.14708" lon="-3.7211">
        <ele>652.2</ele>
        <time>2022-12-31 10:58:27</time>
      </trkpt>
      <trkpt lat="40.1471" lon="-3.72115">
        <ele>652.4</ele>
        <time>2022-12-31 10:58:28</time>
      </trkpt>
      <trkpt lat="40.14712" lon="-3.72119">
        <ele>652.6</ele>
        <time>2022-12-31 10:58:29</time>
      </trkpt>
      <trkpt lat="40.14714" lon="-3.72123">
        <ele>652.8</ele>
        <time>2022-12-31 10:58:30</time>
      </trkpt>
      <trkpt lat="40.14716" lon="-3.72126">
        <ele>653.2</ele>
        <time>2022-12-31 10:58:31</time>
      </trkpt>
      <trkpt lat="40.14719" lon="-3.7213">
        <ele>653.4</ele>
        <time>2022-12-31 10:58:32</time>
      </trkpt>
      <trkpt lat="40.14721" lon="-3.72133">
        <ele>653.6</ele>
        <time>2022-12-31 10:58:33</time>
      </trkpt>
      <trkpt lat="40.14724" lon="-3.72137">
        <ele>653.8</ele>
        <time>2022-12-31 10:58:34</time>
      </trkpt>
      <trkpt lat="40.14726" lon="-3.7214">
        <ele>653.8</ele>
        <time>2022-12-31 10:58:35</time>
      </trkpt>
      <trkpt lat="40.14728" lon="-3.72142">
        <ele>653.8</ele>
        <time>2022-12-31 10:58:36</time>
      </trkpt>
      <trkpt lat="40.14729" lon="-3.72145">
        <ele>654</ele>
        <time>2022-12-31 10:58:37</time>
      </trkpt>
      <trkpt lat="40.14731" lon="-3.72147">
        <ele>654</ele>
        <time>2022-12-31 10:58:38</time>
      </trkpt>
      <trkpt lat="40.14732" lon="-3.72149">
        <ele>654.2</ele>
        <time>2022-12-31 10:58:39</time>
      </trkpt>
      <trkpt lat="40.14733" lon="-3.72151">
        <ele>654.2</ele>
        <time>2022-12-31 10:58:40</time>
      </trkpt>
      <trkpt lat="40.14735" lon="-3.72154">
        <ele>654.4</ele>
        <time>2022-12-31 10:58:41</time>
      </trkpt>
      <trkpt lat="40.14736" lon="-3.72155">
        <ele>654.6</ele>
        <time>2022-12-31 10:58:42</time>
      </trkpt>
      <trkpt lat="40.14738" lon="-3.72157">
        <ele>654.6</ele>
        <time>2022-12-31 10:58:43</time>
      </trkpt>
      <trkpt lat="40.14739" lon="-3.72159">
        <ele>655</ele>
        <time>2022-12-31 10:58:44</time>
      </trkpt>
      <trkpt lat="40.1474" lon="-3.72161">
        <ele>655.4</ele>
        <time>2022-12-31 10:58:45</time>
      </trkpt>
      <trkpt lat="40.14742" lon="-3.72163">
        <ele>656</ele>
        <time>2022-12-31 10:58:46</time>
      </trkpt>
      <trkpt lat="40.14743" lon="-3.72165">
        <ele>656.2</ele>
        <time>2022-12-31 10:58:47</time>
      </trkpt>
      <trkpt lat="40.14745" lon="-3.72167">
        <ele>656.6</ele>
        <time>2022-12-31 10:58:48</time>
      </trkpt>
      <trkpt lat="40.14746" lon="-3.72169">
        <ele>656.8</ele>
        <time>2022-12-31 10:58:49</time>
      </trkpt>
      <trkpt lat="40.14748" lon="-3.72171">
        <ele>657.2</ele>
        <time>2022-12-31 10:58:50</time>
      </trkpt>
      <trkpt lat="40.14749" lon="-3.72173">
        <ele>657.2</ele>
        <time>2022-12-31 10:58:51</time>
      </trkpt>
      <trkpt lat="40.1475" lon="-3.72175">
        <ele>657.4</ele>
        <time>2022-12-31 10:58:52</time>
      </trkpt>
      <trkpt lat="40.14751" lon="-3.72177">
        <ele>657.8</ele>
        <time>2022-12-31 10:58:53</time>
      </trkpt>
      <trkpt lat="40.14752" lon="-3.72179">
        <ele>658</ele>
        <time>2022-12-31 10:58:54</time>
      </trkpt>
      <trkpt lat="40.14753" lon="-3.72182">
        <ele>658.2</ele>
        <time>2022-12-31 10:58:55</time>
      </trkpt>
      <trkpt lat="40.14755" lon="-3.72185">
        <ele>658.2</ele>
        <time>2022-12-31 10:58:56</time>
      </trkpt>
      <trkpt lat="40.14756" lon="-3.72187">
        <ele>658.4</ele>
        <time>2022-12-31 10:58:57</time>
      </trkpt>
      <trkpt lat="40.14758" lon="-3.7219">
        <ele>659</ele>
        <time>2022-12-31 10:58:58</time>
      </trkpt>
      <trkpt lat="40.14759" lon="-3.72192">
        <ele>659.2</ele>
        <time>2022-12-31 10:58:59</time>
      </trkpt>
      <trkpt lat="40.14761" lon="-3.72195">
        <ele>659.6</ele>
        <time>2022-12-31 10:59:00</time>
      </trkpt>
      <trkpt lat="40.14763" lon="-3.72199">
        <ele>660</ele>
        <time>2022-12-31 10:59:01</time>
      </trkpt>
      <trkpt lat="40.14765" lon="-3.72202">
        <ele>660</ele>
        <time>2022-12-31 10:59:02</time>
      </trkpt>
      <trkpt lat="40.14766" lon="-3.72206">
        <ele>660.4</ele>
        <time>2022-12-31 10:59:03</time>
      </trkpt>
      <trkpt lat="40.14768" lon="-3.72209">
        <ele>661</ele>
        <time>2022-12-31 10:59:04</time>
      </trkpt>
      <trkpt lat="40.1477" lon="-3.72213">
        <ele>661</ele>
        <time>2022-12-31 10:59:05</time>
      </trkpt>
      <trkpt lat="40.14773" lon="-3.72217">
        <ele>661.4</ele>
        <time>2022-12-31 10:59:06</time>
      </trkpt>
      <trkpt lat="40.14775" lon="-3.72221">
        <ele>661.4</ele>
        <time>2022-12-31 10:59:07</time>
      </trkpt>
      <trkpt lat="40.14777" lon="-3.72225">
        <ele>661.4</ele>
        <time>2022-12-31 10:59:08</time>
      </trkpt>
      <trkpt lat="40.1478" lon="-3.7223">
        <ele>661.4</ele>
        <time>2022-12-31 10:59:09</time>
      </trkpt>
      <trkpt lat="40.14782" lon="-3.72235">
        <ele>661.4</ele>
        <time>2022-12-31 10:59:10</time>
      </trkpt>
      <trkpt lat="40.14786" lon="-3.72241">
        <ele>661.6</ele>
        <time>2022-12-31 10:59:11</time>
      </trkpt>
      <trkpt lat="40.14789" lon="-3.72247">
        <ele>661.6</ele>
        <time>2022-12-31 10:59:12</time>
      </trkpt>
      <trkpt lat="40.14792" lon="-3.72253">
        <ele>661.4</ele>
        <time>2022-12-31 10:59:13</time>
      </trkpt>
      <trkpt lat="40.14796" lon="-3.72258">
        <ele>661.4</ele>
        <time>2022-12-31 10:59:14</time>
      </trkpt>
      <trkpt lat="40.14799" lon="-3.72262">
        <ele>661.6</ele>
        <time>2022-12-31 10:59:15</time>
      </trkpt>
      <trkpt lat="40.14802" lon="-3.72267">
        <ele>661.6</ele>
        <time>2022-12-31 10:59:16</time>
      </trkpt>
      <trkpt lat="40.14806" lon="-3.72272">
        <ele>661.6</ele>
        <time>2022-12-31 10:59:17</time>
      </trkpt>
      <trkpt lat="40.14808" lon="-3.72277">
        <ele>661.4</ele>
        <time>2022-12-31 10:59:18</time>
      </trkpt>
      <trkpt lat="40.1481" lon="-3.72283">
        <ele>661.4</ele>
        <time>2022-12-31 10:59:19</time>
      </trkpt>
      <trkpt lat="40.14811" lon="-3.72289">
        <ele>661.6</ele>
        <time>2022-12-31 10:59:20</time>
      </trkpt>
      <trkpt lat="40.14813" lon="-3.72294">
        <ele>661.4</ele>
        <time>2022-12-31 10:59:21</time>
      </trkpt>
      <trkpt lat="40.14814" lon="-3.72299">
        <ele>661.4</ele>
        <time>2022-12-31 10:59:22</time>
      </trkpt>
      <trkpt lat="40.14815" lon="-3.72304">
        <ele>661.4</ele>
        <time>2022-12-31 10:59:23</time>
      </trkpt>
      <trkpt lat="40.14816" lon="-3.7231">
        <ele>661.4</ele>
        <time>2022-12-31 10:59:24</time>
      </trkpt>
      <trkpt lat="40.14818" lon="-3.72315">
        <ele>661.4</ele>
        <time>2022-12-31 10:59:25</time>
      </trkpt>
      <trkpt lat="40.14819" lon="-3.72321">
        <ele>661.6</ele>
        <time>2022-12-31 10:59:26</time>
      </trkpt>
      <trkpt lat="40.1482" lon="-3.72326">
        <ele>661.4</ele>
        <time>2022-12-31 10:59:27</time>
      </trkpt>
      <trkpt lat="40.1482" lon="-3.72332">
        <ele>661.6</ele>
        <time>2022-12-31 10:59:28</time>
      </trkpt>
      <trkpt lat="40.14821" lon="-3.72337">
        <ele>661.8</ele>
        <time>2022-12-31 10:59:29</time>
      </trkpt>
      <trkpt lat="40.14822" lon="-3.72342">
        <ele>662.2</ele>
        <time>2022-12-31 10:59:30</time>
      </trkpt>
      <trkpt lat="40.14823" lon="-3.72347">
        <ele>662.4</ele>
        <time>2022-12-31 10:59:31</time>
      </trkpt>
      <trkpt lat="40.14824" lon="-3.72353">
        <ele>662.8</ele>
        <time>2022-12-31 10:59:32</time>
      </trkpt>
      <trkpt lat="40.14825" lon="-3.72358">
        <ele>663</ele>
        <time>2022-12-31 10:59:33</time>
      </trkpt>
      <trkpt lat="40.14826" lon="-3.72363">
        <ele>663.2</ele>
        <time>2022-12-31 10:59:34</time>
      </trkpt>
      <trkpt lat="40.14826" lon="-3.72368">
        <ele>663.2</ele>
        <time>2022-12-31 10:59:35</time>
      </trkpt>
      <trkpt lat="40.14827" lon="-3.72373">
        <ele>663.2</ele>
        <time>2022-12-31 10:59:36</time>
      </trkpt>
      <trkpt lat="40.14828" lon="-3.72378">
        <ele>663.2</ele>
        <time>2022-12-31 10:59:37</time>
      </trkpt>
      <trkpt lat="40.14829" lon="-3.72384">
        <ele>663.4</ele>
        <time>2022-12-31 10:59:38</time>
      </trkpt>
      <trkpt lat="40.1483" lon="-3.72389">
        <ele>663.4</ele>
        <time>2022-12-31 10:59:39</time>
      </trkpt>
      <trkpt lat="40.14831" lon="-3.72394">
        <ele>663.8</ele>
        <time>2022-12-31 10:59:40</time>
      </trkpt>
      <trkpt lat="40.14832" lon="-3.72398">
        <ele>663.8</ele>
        <time>2022-12-31 10:59:41</time>
      </trkpt>
      <trkpt lat="40.14834" lon="-3.72403">
        <ele>663.8</ele>
        <time>2022-12-31 10:59:42</time>
      </trkpt>
      <trkpt lat="40.14835" lon="-3.72408">
        <ele>664</ele>
        <time>2022-12-31 10:59:43</time>
      </trkpt>
      <trkpt lat="40.14836" lon="-3.72413">
        <ele>664.2</ele>
        <time>2022-12-31 10:59:44</time>
      </trkpt>
      <trkpt lat="40.14838" lon="-3.72418">
        <ele>664.4</ele>
        <time>2022-12-31 10:59:45</time>
      </trkpt>
      <trkpt lat="40.14839" lon="-3.72423">
        <ele>664.2</ele>
        <time>2022-12-31 10:59:46</time>
      </trkpt>
      <trkpt lat="40.14841" lon="-3.72428">
        <ele>664.4</ele>
        <time>2022-12-31 10:59:47</time>
      </trkpt>
      <trkpt lat="40.14842" lon="-3.72433">
        <ele>664.4</ele>
        <time>2022-12-31 10:59:48</time>
      </trkpt>
      <trkpt lat="40.14843" lon="-3.72438">
        <ele>664.6</ele>
        <time>2022-12-31 10:59:49</time>
      </trkpt>
      <trkpt lat="40.14845" lon="-3.72443">
        <ele>664.6</ele>
        <time>2022-12-31 10:59:50</time>
      </trkpt>
      <trkpt lat="40.14846" lon="-3.72448">
        <ele>664.4</ele>
        <time>2022-12-31 10:59:51</time>
      </trkpt>
      <trkpt lat="40.14847" lon="-3.72453">
        <ele>664.6</ele>
        <time>2022-12-31 10:59:52</time>
      </trkpt>
      <trkpt lat="40.14849" lon="-3.72458">
        <ele>664.6</ele>
        <time>2022-12-31 10:59:53</time>
      </trkpt>
      <trkpt lat="40.1485" lon="-3.72463">
        <ele>664.8</ele>
        <time>2022-12-31 10:59:54</time>
      </trkpt>
      <trkpt lat="40.14851" lon="-3.72469">
        <ele>665</ele>
        <time>2022-12-31 10:59:55</time>
      </trkpt>
      <trkpt lat="40.14852" lon="-3.72474">
        <ele>665</ele>
        <time>2022-12-31 10:59:56</time>
      </trkpt>
      <trkpt lat="40.14853" lon="-3.72479">
        <ele>665</ele>
        <time>2022-12-31 10:59:57</time>
      </trkpt>
      <trkpt lat="40.14855" lon="-3.72483">
        <ele>665.2</ele>
        <time>2022-12-31 10:59:58</time>
      </trkpt>
      <trkpt lat="40.14856" lon="-3.72488">
        <ele>665.2</ele>
        <time>2022-12-31 10:59:59</time>
      </trkpt>
      <trkpt lat="40.14858" lon="-3.72493">
        <ele>665.4</ele>
        <time>2022-12-31 11:00:00</time>
      </trkpt>
      <trkpt lat="40.14859" lon="-3.72497">
        <ele>665.4</ele>
        <time>2022-12-31 11:00:01</time>
      </trkpt>
      <trkpt lat="40.14861" lon="-3.72502">
        <ele>665.6</ele>
        <time>2022-12-31 11:00:02</time>
      </trkpt>
      <trkpt lat="40.14862" lon="-3.72506">
        <ele>665.4</ele>
        <time>2022-12-31 11:00:03</time>
      </trkpt>
      <trkpt lat="40.14864" lon="-3.7251">
        <ele>665.8</ele>
        <time>2022-12-31 11:00:04</time>
      </trkpt>
      <trkpt lat="40.14865" lon="-3.72514">
        <ele>666</ele>
        <time>2022-12-31 11:00:05</time>
      </trkpt>
      <trkpt lat="40.14867" lon="-3.72518">
        <ele>666</ele>
        <time>2022-12-31 11:00:06</time>
      </trkpt>
      <trkpt lat="40.14868" lon="-3.72522">
        <ele>666</ele>
        <time>2022-12-31 11:00:07</time>
      </trkpt>
      <trkpt lat="40.14869" lon="-3.72527">
        <ele>666.2</ele>
        <time>2022-12-31 11:00:08</time>
      </trkpt>
      <trkpt lat="40.14871" lon="-3.72531">
        <ele>666.4</ele>
        <time>2022-12-31 11:00:09</time>
      </trkpt>
      <trkpt lat="40.14872" lon="-3.72534">
        <ele>666.6</ele>
        <time>2022-12-31 11:00:10</time>
      </trkpt>
      <trkpt lat="40.14874" lon="-3.72538">
        <ele>666.6</ele>
        <time>2022-12-31 11:00:11</time>
      </trkpt>
      <trkpt lat="40.14875" lon="-3.72541">
        <ele>667.2</ele>
        <time>2022-12-31 11:00:12</time>
      </trkpt>
      <trkpt lat="40.14876" lon="-3.72544">
        <ele>667.2</ele>
        <time>2022-12-31 11:00:13</time>
      </trkpt>
      <trkpt lat="40.14877" lon="-3.72547">
        <ele>667.6</ele>
        <time>2022-12-31 11:00:14</time>
      </trkpt>
      <trkpt lat="40.14878" lon="-3.7255">
        <ele>667.6</ele>
        <time>2022-12-31 11:00:15</time>
      </trkpt>
      <trkpt lat="40.1488" lon="-3.72553">
        <ele>667.8</ele>
        <time>2022-12-31 11:00:16</time>
      </trkpt>
      <trkpt lat="40.14881" lon="-3.72555">
        <ele>667.8</ele>
        <time>2022-12-31 11:00:17</time>
      </trkpt>
      <trkpt lat="40.14882" lon="-3.72559">
        <ele>668</ele>
        <time>2022-12-31 11:00:18</time>
      </trkpt>
      <trkpt lat="40.14882" lon="-3.72562">
        <ele>668.4</ele>
        <time>2022-12-31 11:00:19</time>
      </trkpt>
      <trkpt lat="40.14883" lon="-3.72564">
        <ele>668.4</ele>
        <time>2022-12-31 11:00:20</time>
      </trkpt>
      <trkpt lat="40.14884" lon="-3.72567">
        <ele>668.8</ele>
        <time>2022-12-31 11:00:21</time>
      </trkpt>
      <trkpt lat="40.14885" lon="-3.72571">
        <ele>668.8</ele>
        <time>2022-12-31 11:00:22</time>
      </trkpt>
      <trkpt lat="40.14886" lon="-3.72574">
        <ele>668.8</ele>
        <time>2022-12-31 11:00:23</time>
      </trkpt>
      <trkpt lat="40.14887" lon="-3.72577">
        <ele>669</ele>
        <time>2022-12-31 11:00:24</time>
      </trkpt>
      <trkpt lat="40.14888" lon="-3.7258">
        <ele>669</ele>
        <time>2022-12-31 11:00:25</time>
      </trkpt>
      <trkpt lat="40.14889" lon="-3.72584">
        <ele>669.2</ele>
        <time>2022-12-31 11:00:26</time>
      </trkpt>
      <trkpt lat="40.1489" lon="-3.72587">
        <ele>669.4</ele>
        <time>2022-12-31 11:00:27</time>
      </trkpt>
      <trkpt lat="40.1489" lon="-3.72591">
        <ele>669.8</ele>
        <time>2022-12-31 11:00:28</time>
      </trkpt>
      <trkpt lat="40.14891" lon="-3.72594">
        <ele>670</ele>
        <time>2022-12-31 11:00:29</time>
      </trkpt>
      <trkpt lat="40.14891" lon="-3.72597">
        <ele>670.2</ele>
        <time>2022-12-31 11:00:30</time>
      </trkpt>
      <trkpt lat="40.14892" lon="-3.726">
        <ele>670.4</ele>
        <time>2022-12-31 11:00:31</time>
      </trkpt>
      <trkpt lat="40.14892" lon="-3.72603">
        <ele>670.6</ele>
        <time>2022-12-31 11:00:32</time>
      </trkpt>
      <trkpt lat="40.14893" lon="-3.72605">
        <ele>670.8</ele>
        <time>2022-12-31 11:00:33</time>
      </trkpt>
      <trkpt lat="40.14893" lon="-3.72608">
        <ele>670.8</ele>
        <time>2022-12-31 11:00:34</time>
      </trkpt>
      <trkpt lat="40.14894" lon="-3.72611">
        <ele>671</ele>
        <time>2022-12-31 11:00:35</time>
      </trkpt>
      <trkpt lat="40.14894" lon="-3.72613">
        <ele>671.4</ele>
        <time>2022-12-31 11:00:36</time>
      </trkpt>
      <trkpt lat="40.14894" lon="-3.72615">
        <ele>671.6</ele>
        <time>2022-12-31 11:00:37</time>
      </trkpt>
      <trkpt lat="40.14894" lon="-3.72618">
        <ele>671.6</ele>
        <time>2022-12-31 11:00:38</time>
      </trkpt>
      <trkpt lat="40.14895" lon="-3.7262">
        <ele>671.6</ele>
        <time>2022-12-31 11:00:39</time>
      </trkpt>
      <trkpt lat="40.14896" lon="-3.72622">
        <ele>671.8</ele>
        <time>2022-12-31 11:00:40</time>
      </trkpt>
      <trkpt lat="40.14896" lon="-3.72625">
        <ele>672.2</ele>
        <time>2022-12-31 11:00:41</time>
      </trkpt>
      <trkpt lat="40.14897" lon="-3.72628">
        <ele>672.6</ele>
        <time>2022-12-31 11:00:42</time>
      </trkpt>
      <trkpt lat="40.14897" lon="-3.7263">
        <ele>672.8</ele>
        <time>2022-12-31 11:00:43</time>
      </trkpt>
      <trkpt lat="40.14898" lon="-3.72633">
        <ele>673</ele>
        <time>2022-12-31 11:00:44</time>
      </trkpt>
      <trkpt lat="40.14898" lon="-3.72636">
        <ele>673.4</ele>
        <time>2022-12-31 11:00:45</time>
      </trkpt>
      <trkpt lat="40.14899" lon="-3.72638">
        <ele>673.8</ele>
        <time>2022-12-31 11:00:46</time>
      </trkpt>
      <trkpt lat="40.14899" lon="-3.72641">
        <ele>674</ele>
        <time>2022-12-31 11:00:47</time>
      </trkpt>
      <trkpt lat="40.149" lon="-3.72643">
        <ele>674.2</ele>
        <time>2022-12-31 11:00:48</time>
      </trkpt>
      <trkpt lat="40.14901" lon="-3.72646">
        <ele>674.2</ele>
        <time>2022-12-31 11:00:49</time>
      </trkpt>
      <trkpt lat="40.14901" lon="-3.72649">
        <ele>674.6</ele>
        <time>2022-12-31 11:00:50</time>
      </trkpt>
      <trkpt lat="40.14902" lon="-3.72651">
        <ele>674.8</ele>
        <time>2022-12-31 11:00:51</time>
      </trkpt>
      <trkpt lat="40.14903" lon="-3.72654">
        <ele>674.8</ele>
        <time>2022-12-31 11:00:52</time>
      </trkpt>
      <trkpt lat="40.14903" lon="-3.72657">
        <ele>674.8</ele>
        <time>2022-12-31 11:00:53</time>
      </trkpt>
      <trkpt lat="40.14904" lon="-3.72659">
        <ele>675.2</ele>
        <time>2022-12-31 11:00:54</time>
      </trkpt>
      <trkpt lat="40.14905" lon="-3.72662">
        <ele>675.6</ele>
        <time>2022-12-31 11:00:55</time>
      </trkpt>
      <trkpt lat="40.14906" lon="-3.72664">
        <ele>675.6</ele>
        <time>2022-12-31 11:00:56</time>
      </trkpt>
      <trkpt lat="40.14907" lon="-3.72667">
        <ele>675.8</ele>
        <time>2022-12-31 11:00:57</time>
      </trkpt>
      <trkpt lat="40.14908" lon="-3.72669">
        <ele>675.8</ele>
        <time>2022-12-31 11:00:58</time>
      </trkpt>
      <trkpt lat="40.14908" lon="-3.72671">
        <ele>676</ele>
        <time>2022-12-31 11:00:59</time>
      </trkpt>
      <trkpt lat="40.14909" lon="-3.72674">
        <ele>676.2</ele>
        <time>2022-12-31 11:01:00</time>
      </trkpt>
      <trkpt lat="40.1491" lon="-3.72676">
        <ele>676.4</ele>
        <time>2022-12-31 11:01:01</time>
      </trkpt>
      <trkpt lat="40.14911" lon="-3.72678">
        <ele>676.6</ele>
        <time>2022-12-31 11:01:02</time>
      </trkpt>
      <trkpt lat="40.14912" lon="-3.7268">
        <ele>677</ele>
        <time>2022-12-31 11:01:03</time>
      </trkpt>
      <trkpt lat="40.14913" lon="-3.72682">
        <ele>677</ele>
        <time>2022-12-31 11:01:04</time>
      </trkpt>
      <trkpt lat="40.14913" lon="-3.72683">
        <ele>677.2</ele>
        <time>2022-12-31 11:01:05</time>
      </trkpt>
      <trkpt lat="40.14914" lon="-3.72686">
        <ele>677.2</ele>
        <time>2022-12-31 11:01:06</time>
      </trkpt>
      <trkpt lat="40.14914" lon="-3.72688">
        <ele>677.6</ele>
        <time>2022-12-31 11:01:07</time>
      </trkpt>
      <trkpt lat="40.14914" lon="-3.72691">
        <ele>677.8</ele>
        <time>2022-12-31 11:01:08</time>
      </trkpt>
      <trkpt lat="40.14915" lon="-3.72693">
        <ele>678</ele>
        <time>2022-12-31 11:01:09</time>
      </trkpt>
      <trkpt lat="40.14916" lon="-3.72696">
        <ele>678.2</ele>
        <time>2022-12-31 11:01:10</time>
      </trkpt>
      <trkpt lat="40.14917" lon="-3.72697">
        <ele>678.8</ele>
        <time>2022-12-31 11:01:11</time>
      </trkpt>
      <trkpt lat="40.14919" lon="-3.72699">
        <ele>679.4</ele>
        <time>2022-12-31 11:01:12</time>
      </trkpt>
      <trkpt lat="40.14921" lon="-3.72702">
        <ele>679.8</ele>
        <time>2022-12-31 11:01:13</time>
      </trkpt>
      <trkpt lat="40.14924" lon="-3.72704">
        <ele>680</ele>
        <time>2022-12-31 11:01:14</time>
      </trkpt>
      <trkpt lat="40.14928" lon="-3.72707">
        <ele>680.2</ele>
        <time>2022-12-31 11:01:15</time>
      </trkpt>
      <trkpt lat="40.14931" lon="-3.72711">
        <ele>680.2</ele>
        <time>2022-12-31 11:01:16</time>
      </trkpt>
      <trkpt lat="40.14935" lon="-3.72716">
        <ele>680.2</ele>
        <time>2022-12-31 11:01:17</time>
      </trkpt>
      <trkpt lat="40.14939" lon="-3.72721">
        <ele>680.2</ele>
        <time>2022-12-31 11:01:18</time>
      </trkpt>
      <trkpt lat="40.14943" lon="-3.72728">
        <ele>680.2</ele>
        <time>2022-12-31 11:01:19</time>
      </trkpt>
      <trkpt lat="40.14947" lon="-3.72735">
        <ele>680.2</ele>
        <time>2022-12-31 11:01:20</time>
      </trkpt>
      <trkpt lat="40.14951" lon="-3.72744">
        <ele>680.2</ele>
        <time>2022-12-31 11:01:21</time>
      </trkpt>
      <trkpt lat="40.14956" lon="-3.72753">
        <ele>680.2</ele>
        <time>2022-12-31 11:01:22</time>
      </trkpt>
      <trkpt lat="40.14961" lon="-3.72762">
        <ele>680.2</ele>
        <time>2022-12-31 11:01:23</time>
      </trkpt>
      <trkpt lat="40.14967" lon="-3.72772">
        <ele>680</ele>
        <time>2022-12-31 11:01:24</time>
      </trkpt>
      <trkpt lat="40.14973" lon="-3.72783">
        <ele>680</ele>
        <time>2022-12-31 11:01:25</time>
      </trkpt>
      <trkpt lat="40.14979" lon="-3.72793">
        <ele>679.2</ele>
        <time>2022-12-31 11:01:26</time>
      </trkpt>
      <trkpt lat="40.14986" lon="-3.72804">
        <ele>678.6</ele>
        <time>2022-12-31 11:01:27</time>
      </trkpt>
      <trkpt lat="40.14992" lon="-3.72814">
        <ele>678</ele>
        <time>2022-12-31 11:01:28</time>
      </trkpt>
      <trkpt lat="40.14998" lon="-3.72825">
        <ele>676.8</ele>
        <time>2022-12-31 11:01:29</time>
      </trkpt>
      <trkpt lat="40.15005" lon="-3.72835">
        <ele>675.8</ele>
        <time>2022-12-31 11:01:30</time>
      </trkpt>
      <trkpt lat="40.1501" lon="-3.72845">
        <ele>674.8</ele>
        <time>2022-12-31 11:01:31</time>
      </trkpt>
      <trkpt lat="40.15015" lon="-3.72854">
        <ele>672.8</ele>
        <time>2022-12-31 11:01:32</time>
      </trkpt>
      <trkpt lat="40.15019" lon="-3.72863">
        <ele>671</ele>
        <time>2022-12-31 11:01:33</time>
      </trkpt>
      <trkpt lat="40.15022" lon="-3.72871">
        <ele>669.2</ele>
        <time>2022-12-31 11:01:34</time>
      </trkpt>
      <trkpt lat="40.15025" lon="-3.72879">
        <ele>668.4</ele>
        <time>2022-12-31 11:01:35</time>
      </trkpt>
      <trkpt lat="40.15029" lon="-3.72885">
        <ele>667.6</ele>
        <time>2022-12-31 11:01:36</time>
      </trkpt>
      <trkpt lat="40.15034" lon="-3.72892">
        <ele>667.2</ele>
        <time>2022-12-31 11:01:37</time>
      </trkpt>
      <trkpt lat="40.15041" lon="-3.72899">
        <ele>667.2</ele>
        <time>2022-12-31 11:01:38</time>
      </trkpt>
      <trkpt lat="40.15048" lon="-3.72906">
        <ele>667</ele>
        <time>2022-12-31 11:01:39</time>
      </trkpt>
      <trkpt lat="40.15055" lon="-3.72911">
        <ele>666.6</ele>
        <time>2022-12-31 11:01:40</time>
      </trkpt>
      <trkpt lat="40.15062" lon="-3.72918">
        <ele>666.2</ele>
        <time>2022-12-31 11:01:41</time>
      </trkpt>
      <trkpt lat="40.15069" lon="-3.72925">
        <ele>666.2</ele>
        <time>2022-12-31 11:01:42</time>
      </trkpt>
      <trkpt lat="40.15076" lon="-3.72932">
        <ele>666</ele>
        <time>2022-12-31 11:01:43</time>
      </trkpt>
      <trkpt lat="40.15082" lon="-3.7294">
        <ele>665.6</ele>
        <time>2022-12-31 11:01:44</time>
      </trkpt>
      <trkpt lat="40.15088" lon="-3.72948">
        <ele>665.4</ele>
        <time>2022-12-31 11:01:45</time>
      </trkpt>
      <trkpt lat="40.15094" lon="-3.72956">
        <ele>665</ele>
        <time>2022-12-31 11:01:46</time>
      </trkpt>
      <trkpt lat="40.15101" lon="-3.72964">
        <ele>663.8</ele>
        <time>2022-12-31 11:01:47</time>
      </trkpt>
      <trkpt lat="40.15107" lon="-3.72972">
        <ele>662.4</ele>
        <time>2022-12-31 11:01:48</time>
      </trkpt>
      <trkpt lat="40.15114" lon="-3.72979">
        <ele>661.4</ele>
        <time>2022-12-31 11:01:49</time>
      </trkpt>
      <trkpt lat="40.1512" lon="-3.72985">
        <ele>660</ele>
        <time>2022-12-31 11:01:50</time>
      </trkpt>
      <trkpt lat="40.15124" lon="-3.72989">
        <ele>658.6</ele>
        <time>2022-12-31 11:01:51</time>
      </trkpt>
      <trkpt lat="40.15127" lon="-3.72992">
        <ele>657.2</ele>
        <time>2022-12-31 11:01:52</time>
      </trkpt>
      <trkpt lat="40.1513" lon="-3.72995">
        <ele>656.4</ele>
        <time>2022-12-31 11:01:53</time>
      </trkpt>
      <trkpt lat="40.15134" lon="-3.72999">
        <ele>655.6</ele>
        <time>2022-12-31 11:01:54</time>
      </trkpt>
      <trkpt lat="40.15138" lon="-3.73003">
        <ele>655.2</ele>
        <time>2022-12-31 11:01:55</time>
      </trkpt>
      <trkpt lat="40.15142" lon="-3.73009">
        <ele>654</ele>
        <time>2022-12-31 11:01:56</time>
      </trkpt>
      <trkpt lat="40.15146" lon="-3.73015">
        <ele>653.4</ele>
        <time>2022-12-31 11:01:57</time>
      </trkpt>
      <trkpt lat="40.15151" lon="-3.73021">
        <ele>653.4</ele>
        <time>2022-12-31 11:01:58</time>
      </trkpt>
      <trkpt lat="40.15155" lon="-3.73029">
        <ele>653.4</ele>
        <time>2022-12-31 11:01:59</time>
      </trkpt>
      <trkpt lat="40.15161" lon="-3.73036">
        <ele>653</ele>
        <time>2022-12-31 11:02:00</time>
      </trkpt>
      <trkpt lat="40.15166" lon="-3.73044">
        <ele>653</ele>
        <time>2022-12-31 11:02:01</time>
      </trkpt>
      <trkpt lat="40.15172" lon="-3.73052">
        <ele>652.8</ele>
        <time>2022-12-31 11:02:02</time>
      </trkpt>
      <trkpt lat="40.15177" lon="-3.7306">
        <ele>652.6</ele>
        <time>2022-12-31 11:02:03</time>
      </trkpt>
      <trkpt lat="40.15182" lon="-3.73069">
        <ele>652.2</ele>
        <time>2022-12-31 11:02:04</time>
      </trkpt>
      <trkpt lat="40.15187" lon="-3.73078">
        <ele>652</ele>
        <time>2022-12-31 11:02:05</time>
      </trkpt>
      <trkpt lat="40.15191" lon="-3.73087">
        <ele>651.4</ele>
        <time>2022-12-31 11:02:06</time>
      </trkpt>
      <trkpt lat="40.15195" lon="-3.73097">
        <ele>651</ele>
        <time>2022-12-31 11:02:07</time>
      </trkpt>
      <trkpt lat="40.152" lon="-3.73106">
        <ele>650.6</ele>
        <time>2022-12-31 11:02:08</time>
      </trkpt>
      <trkpt lat="40.15205" lon="-3.73114">
        <ele>650</ele>
        <time>2022-12-31 11:02:09</time>
      </trkpt>
      <trkpt lat="40.15211" lon="-3.73121">
        <ele>649</ele>
        <time>2022-12-31 11:02:10</time>
      </trkpt>
      <trkpt lat="40.15217" lon="-3.73126">
        <ele>648.6</ele>
        <time>2022-12-31 11:02:11</time>
      </trkpt>
      <trkpt lat="40.15223" lon="-3.73131">
        <ele>647.8</ele>
        <time>2022-12-31 11:02:12</time>
      </trkpt>
      <trkpt lat="40.1523" lon="-3.73134">
        <ele>646.4</ele>
        <time>2022-12-31 11:02:13</time>
      </trkpt>
      <trkpt lat="40.15236" lon="-3.73136">
        <ele>645.6</ele>
        <time>2022-12-31 11:02:14</time>
      </trkpt>
      <trkpt lat="40.15243" lon="-3.73138">
        <ele>645</ele>
        <time>2022-12-31 11:02:15</time>
      </trkpt>
      <trkpt lat="40.1525" lon="-3.73139">
        <ele>644.6</ele>
        <time>2022-12-31 11:02:16</time>
      </trkpt>
      <trkpt lat="40.15258" lon="-3.73142">
        <ele>644.6</ele>
        <time>2022-12-31 11:02:17</time>
      </trkpt>
      <trkpt lat="40.15265" lon="-3.73145">
        <ele>644.6</ele>
        <time>2022-12-31 11:02:18</time>
      </trkpt>
      <trkpt lat="40.15272" lon="-3.73149">
        <ele>644.4</ele>
        <time>2022-12-31 11:02:19</time>
      </trkpt>
      <trkpt lat="40.15279" lon="-3.73152">
        <ele>644.2</ele>
        <time>2022-12-31 11:02:20</time>
      </trkpt>
      <trkpt lat="40.15287" lon="-3.73156">
        <ele>644.2</ele>
        <time>2022-12-31 11:02:21</time>
      </trkpt>
      <trkpt lat="40.15293" lon="-3.73159">
        <ele>644</ele>
        <time>2022-12-31 11:02:22</time>
      </trkpt>
      <trkpt lat="40.15301" lon="-3.73163">
        <ele>643.8</ele>
        <time>2022-12-31 11:02:23</time>
      </trkpt>
      <trkpt lat="40.15308" lon="-3.73167">
        <ele>643.6</ele>
        <time>2022-12-31 11:02:24</time>
      </trkpt>
      <trkpt lat="40.15315" lon="-3.73172">
        <ele>643.2</ele>
        <time>2022-12-31 11:02:25</time>
      </trkpt>
      <trkpt lat="40.15322" lon="-3.73176">
        <ele>642.8</ele>
        <time>2022-12-31 11:02:26</time>
      </trkpt>
      <trkpt lat="40.1533" lon="-3.73182">
        <ele>642.4</ele>
        <time>2022-12-31 11:02:27</time>
      </trkpt>
      <trkpt lat="40.15337" lon="-3.73187">
        <ele>641.6</ele>
        <time>2022-12-31 11:02:28</time>
      </trkpt>
      <trkpt lat="40.15344" lon="-3.73193">
        <ele>641.2</ele>
        <time>2022-12-31 11:02:29</time>
      </trkpt>
      <trkpt lat="40.15352" lon="-3.732">
        <ele>641</ele>
        <time>2022-12-31 11:02:30</time>
      </trkpt>
      <trkpt lat="40.15359" lon="-3.73206">
        <ele>640.8</ele>
        <time>2022-12-31 11:02:31</time>
      </trkpt>
      <trkpt lat="40.15366" lon="-3.73213">
        <ele>640.6</ele>
        <time>2022-12-31 11:02:32</time>
      </trkpt>
      <trkpt lat="40.15373" lon="-3.73219">
        <ele>640.4</ele>
        <time>2022-12-31 11:02:33</time>
      </trkpt>
      <trkpt lat="40.1538" lon="-3.73225">
        <ele>640.2</ele>
        <time>2022-12-31 11:02:34</time>
      </trkpt>
      <trkpt lat="40.15387" lon="-3.73231">
        <ele>639.8</ele>
        <time>2022-12-31 11:02:35</time>
      </trkpt>
      <trkpt lat="40.15395" lon="-3.73237">
        <ele>639.4</ele>
        <time>2022-12-31 11:02:36</time>
      </trkpt>
      <trkpt lat="40.15402" lon="-3.73243">
        <ele>638.8</ele>
        <time>2022-12-31 11:02:37</time>
      </trkpt>
      <trkpt lat="40.15409" lon="-3.73249">
        <ele>638</ele>
        <time>2022-12-31 11:02:38</time>
      </trkpt>
      <trkpt lat="40.15416" lon="-3.73254">
        <ele>638</ele>
        <time>2022-12-31 11:02:39</time>
      </trkpt>
      <trkpt lat="40.15424" lon="-3.7326">
        <ele>637.6</ele>
        <time>2022-12-31 11:02:40</time>
      </trkpt>
      <trkpt lat="40.1543" lon="-3.73267">
        <ele>637.4</ele>
        <time>2022-12-31 11:02:41</time>
      </trkpt>
      <trkpt lat="40.15437" lon="-3.73274">
        <ele>637</ele>
        <time>2022-12-31 11:02:42</time>
      </trkpt>
      <trkpt lat="40.15443" lon="-3.73281">
        <ele>636.4</ele>
        <time>2022-12-31 11:02:43</time>
      </trkpt>
      <trkpt lat="40.1545" lon="-3.73289">
        <ele>636</ele>
        <time>2022-12-31 11:02:44</time>
      </trkpt>
      <trkpt lat="40.15457" lon="-3.73296">
        <ele>635.8</ele>
        <time>2022-12-31 11:02:45</time>
      </trkpt>
      <trkpt lat="40.15464" lon="-3.73303">
        <ele>635.2</ele>
        <time>2022-12-31 11:02:46</time>
      </trkpt>
      <trkpt lat="40.1547" lon="-3.73309">
        <ele>634.8</ele>
        <time>2022-12-31 11:02:47</time>
      </trkpt>
      <trkpt lat="40.15475" lon="-3.73316">
        <ele>634.2</ele>
        <time>2022-12-31 11:02:48</time>
      </trkpt>
      <trkpt lat="40.15482" lon="-3.73322">
        <ele>633.6</ele>
        <time>2022-12-31 11:02:49</time>
      </trkpt>
      <trkpt lat="40.15488" lon="-3.73328">
        <ele>633.4</ele>
        <time>2022-12-31 11:02:50</time>
      </trkpt>
      <trkpt lat="40.15495" lon="-3.73334">
        <ele>632.4</ele>
        <time>2022-12-31 11:02:51</time>
      </trkpt>
      <trkpt lat="40.15503" lon="-3.73339">
        <ele>631.4</ele>
        <time>2022-12-31 11:02:52</time>
      </trkpt>
      <trkpt lat="40.1551" lon="-3.73346">
        <ele>631</ele>
        <time>2022-12-31 11:02:53</time>
      </trkpt>
      <trkpt lat="40.15518" lon="-3.73353">
        <ele>630.8</ele>
        <time>2022-12-31 11:02:54</time>
      </trkpt>
      <trkpt lat="40.15524" lon="-3.73362">
        <ele>630</ele>
        <time>2022-12-31 11:02:55</time>
      </trkpt>
      <trkpt lat="40.15531" lon="-3.73371">
        <ele>629.6</ele>
        <time>2022-12-31 11:02:56</time>
      </trkpt>
      <trkpt lat="40.15538" lon="-3.7338">
        <ele>629</ele>
        <time>2022-12-31 11:02:57</time>
      </trkpt>
      <trkpt lat="40.15545" lon="-3.73389">
        <ele>628.8</ele>
        <time>2022-12-31 11:02:58</time>
      </trkpt>
      <trkpt lat="40.15551" lon="-3.73397">
        <ele>628.8</ele>
        <time>2022-12-31 11:02:59</time>
      </trkpt>
      <trkpt lat="40.15558" lon="-3.73405">
        <ele>628</ele>
        <time>2022-12-31 11:03:00</time>
      </trkpt>
      <trkpt lat="40.15565" lon="-3.73414">
        <ele>627.4</ele>
        <time>2022-12-31 11:03:01</time>
      </trkpt>
      <trkpt lat="40.15571" lon="-3.73422">
        <ele>626.4</ele>
        <time>2022-12-31 11:03:02</time>
      </trkpt>
      <trkpt lat="40.15578" lon="-3.7343">
        <ele>625.8</ele>
        <time>2022-12-31 11:03:03</time>
      </trkpt>
      <trkpt lat="40.15585" lon="-3.73438">
        <ele>624.8</ele>
        <time>2022-12-31 11:03:04</time>
      </trkpt>
      <trkpt lat="40.15592" lon="-3.73444">
        <ele>623.6</ele>
        <time>2022-12-31 11:03:05</time>
      </trkpt>
      <trkpt lat="40.15599" lon="-3.73451">
        <ele>622.6</ele>
        <time>2022-12-31 11:03:06</time>
      </trkpt>
      <trkpt lat="40.15606" lon="-3.73457">
        <ele>621.6</ele>
        <time>2022-12-31 11:03:07</time>
      </trkpt>
      <trkpt lat="40.15612" lon="-3.73463">
        <ele>620.8</ele>
        <time>2022-12-31 11:03:08</time>
      </trkpt>
      <trkpt lat="40.15618" lon="-3.73469">
        <ele>620</ele>
        <time>2022-12-31 11:03:09</time>
      </trkpt>
      <trkpt lat="40.15622" lon="-3.73475">
        <ele>619.4</ele>
        <time>2022-12-31 11:03:10</time>
      </trkpt>
      <trkpt lat="40.15626" lon="-3.73481">
        <ele>619</ele>
        <time>2022-12-31 11:03:11</time>
      </trkpt>
      <trkpt lat="40.1563" lon="-3.73486">
        <ele>618</ele>
        <time>2022-12-31 11:03:12</time>
      </trkpt>
      <trkpt lat="40.15635" lon="-3.73489">
        <ele>617.2</ele>
        <time>2022-12-31 11:03:13</time>
      </trkpt>
      <trkpt lat="40.15641" lon="-3.7349">
        <ele>616.8</ele>
        <time>2022-12-31 11:03:14</time>
      </trkpt>
      <trkpt lat="40.15646" lon="-3.7349">
        <ele>616</ele>
        <time>2022-12-31 11:03:15</time>
      </trkpt>
      <trkpt lat="40.15651" lon="-3.73489">
        <ele>615.4</ele>
        <time>2022-12-31 11:03:16</time>
      </trkpt>
      <trkpt lat="40.15656" lon="-3.7349">
        <ele>615.2</ele>
        <time>2022-12-31 11:03:17</time>
      </trkpt>
      <trkpt lat="40.15661" lon="-3.73493">
        <ele>615</ele>
        <time>2022-12-31 11:03:18</time>
      </trkpt>
      <trkpt lat="40.15665" lon="-3.73497">
        <ele>615</ele>
        <time>2022-12-31 11:03:19</time>
      </trkpt>
      <trkpt lat="40.15668" lon="-3.73504">
        <ele>614.8</ele>
        <time>2022-12-31 11:03:20</time>
      </trkpt>
      <trkpt lat="40.15669" lon="-3.73512">
        <ele>614.4</ele>
        <time>2022-12-31 11:03:21</time>
      </trkpt>
      <trkpt lat="40.1567" lon="-3.73521">
        <ele>614.4</ele>
        <time>2022-12-31 11:03:22</time>
      </trkpt>
      <trkpt lat="40.1567" lon="-3.7353">
        <ele>614.2</ele>
        <time>2022-12-31 11:03:23</time>
      </trkpt>
      <trkpt lat="40.15671" lon="-3.7354">
        <ele>614</ele>
        <time>2022-12-31 11:03:24</time>
      </trkpt>
      <trkpt lat="40.15673" lon="-3.7355">
        <ele>613.6</ele>
        <time>2022-12-31 11:03:25</time>
      </trkpt>
      <trkpt lat="40.15675" lon="-3.73561">
        <ele>613.6</ele>
        <time>2022-12-31 11:03:26</time>
      </trkpt>
      <trkpt lat="40.15678" lon="-3.73572">
        <ele>613.4</ele>
        <time>2022-12-31 11:03:27</time>
      </trkpt>
      <trkpt lat="40.15682" lon="-3.73582">
        <ele>613.4</ele>
        <time>2022-12-31 11:03:28</time>
      </trkpt>
      <trkpt lat="40.15686" lon="-3.73593">
        <ele>613.4</ele>
        <time>2022-12-31 11:03:29</time>
      </trkpt>
      <trkpt lat="40.15691" lon="-3.73603">
        <ele>613.4</ele>
        <time>2022-12-31 11:03:30</time>
      </trkpt>
      <trkpt lat="40.15696" lon="-3.73613">
        <ele>613.2</ele>
        <time>2022-12-31 11:03:31</time>
      </trkpt>
      <trkpt lat="40.15701" lon="-3.73623">
        <ele>612.8</ele>
        <time>2022-12-31 11:03:32</time>
      </trkpt>
      <trkpt lat="40.15707" lon="-3.73633">
        <ele>612.6</ele>
        <time>2022-12-31 11:03:33</time>
      </trkpt>
      <trkpt lat="40.15712" lon="-3.73643">
        <ele>612</ele>
        <time>2022-12-31 11:03:34</time>
      </trkpt>
      <trkpt lat="40.15718" lon="-3.73652">
        <ele>611.8</ele>
        <time>2022-12-31 11:03:35</time>
      </trkpt>
      <trkpt lat="40.15725" lon="-3.7366">
        <ele>611.2</ele>
        <time>2022-12-31 11:03:36</time>
      </trkpt>
      <trkpt lat="40.15732" lon="-3.73667">
        <ele>610.4</ele>
        <time>2022-12-31 11:03:37</time>
      </trkpt>
      <trkpt lat="40.15739" lon="-3.73674">
        <ele>609.8</ele>
        <time>2022-12-31 11:03:38</time>
      </trkpt>
      <trkpt lat="40.15746" lon="-3.7368">
        <ele>609.2</ele>
        <time>2022-12-31 11:03:39</time>
      </trkpt>
      <trkpt lat="40.15754" lon="-3.73686">
        <ele>609.2</ele>
        <time>2022-12-31 11:03:40</time>
      </trkpt>
      <trkpt lat="40.15762" lon="-3.73691">
        <ele>608.4</ele>
        <time>2022-12-31 11:03:41</time>
      </trkpt>
      <trkpt lat="40.15769" lon="-3.73695">
        <ele>608</ele>
        <time>2022-12-31 11:03:42</time>
      </trkpt>
      <trkpt lat="40.15777" lon="-3.73699">
        <ele>607.6</ele>
        <time>2022-12-31 11:03:43</time>
      </trkpt>
      <trkpt lat="40.15785" lon="-3.73703">
        <ele>607.4</ele>
        <time>2022-12-31 11:03:44</time>
      </trkpt>
      <trkpt lat="40.15793" lon="-3.73707">
        <ele>607</ele>
        <time>2022-12-31 11:03:45</time>
      </trkpt>
      <trkpt lat="40.158" lon="-3.73712">
        <ele>606.4</ele>
        <time>2022-12-31 11:03:46</time>
      </trkpt>
      <trkpt lat="40.15808" lon="-3.73717">
        <ele>606</ele>
        <time>2022-12-31 11:03:47</time>
      </trkpt>
      <trkpt lat="40.15815" lon="-3.73722">
        <ele>605.8</ele>
        <time>2022-12-31 11:03:48</time>
      </trkpt>
      <trkpt lat="40.15822" lon="-3.73728">
        <ele>605.8</ele>
        <time>2022-12-31 11:03:49</time>
      </trkpt>
      <trkpt lat="40.15828" lon="-3.73734">
        <ele>605.8</ele>
        <time>2022-12-31 11:03:50</time>
      </trkpt>
      <trkpt lat="40.15835" lon="-3.73741">
        <ele>605.6</ele>
        <time>2022-12-31 11:03:51</time>
      </trkpt>
      <trkpt lat="40.15841" lon="-3.73747">
        <ele>605.4</ele>
        <time>2022-12-31 11:03:52</time>
      </trkpt>
      <trkpt lat="40.15848" lon="-3.73753">
        <ele>605</ele>
        <time>2022-12-31 11:03:53</time>
      </trkpt>
      <trkpt lat="40.15855" lon="-3.73758">
        <ele>604.8</ele>
        <time>2022-12-31 11:03:54</time>
      </trkpt>
      <trkpt lat="40.15862" lon="-3.73763">
        <ele>604.6</ele>
        <time>2022-12-31 11:03:55</time>
      </trkpt>
      <trkpt lat="40.15869" lon="-3.73767">
        <ele>604.6</ele>
        <time>2022-12-31 11:03:56</time>
      </trkpt>
      <trkpt lat="40.15877" lon="-3.7377">
        <ele>604.4</ele>
        <time>2022-12-31 11:03:57</time>
      </trkpt>
      <trkpt lat="40.15884" lon="-3.73773">
        <ele>604.4</ele>
        <time>2022-12-31 11:03:58</time>
      </trkpt>
      <trkpt lat="40.15892" lon="-3.73775">
        <ele>604.2</ele>
        <time>2022-12-31 11:03:59</time>
      </trkpt>
      <trkpt lat="40.15899" lon="-3.73777">
        <ele>604.2</ele>
        <time>2022-12-31 11:04:00</time>
      </trkpt>
      <trkpt lat="40.15906" lon="-3.7378">
        <ele>604.2</ele>
        <time>2022-12-31 11:04:01</time>
      </trkpt>
      <trkpt lat="40.15913" lon="-3.73783">
        <ele>604.4</ele>
        <time>2022-12-31 11:04:02</time>
      </trkpt>
      <trkpt lat="40.1592" lon="-3.73786">
        <ele>604</ele>
        <time>2022-12-31 11:04:03</time>
      </trkpt>
      <trkpt lat="40.15927" lon="-3.73789">
        <ele>604</ele>
        <time>2022-12-31 11:04:04</time>
      </trkpt>
      <trkpt lat="40.15934" lon="-3.73792">
        <ele>604</ele>
        <time>2022-12-31 11:04:05</time>
      </trkpt>
      <trkpt lat="40.15941" lon="-3.73795">
        <ele>604</ele>
        <time>2022-12-31 11:04:06</time>
      </trkpt>
      <trkpt lat="40.15947" lon="-3.73799">
        <ele>604.2</ele>
        <time>2022-12-31 11:04:07</time>
      </trkpt>
      <trkpt lat="40.15953" lon="-3.73802">
        <ele>604</ele>
        <time>2022-12-31 11:04:08</time>
      </trkpt>
      <trkpt lat="40.1596" lon="-3.73806">
        <ele>604.2</ele>
        <time>2022-12-31 11:04:09</time>
      </trkpt>
      <trkpt lat="40.15966" lon="-3.73809">
        <ele>604</ele>
        <time>2022-12-31 11:04:10</time>
      </trkpt>
      <trkpt lat="40.15972" lon="-3.73813">
        <ele>604</ele>
        <time>2022-12-31 11:04:11</time>
      </trkpt>
      <trkpt lat="40.15978" lon="-3.73816">
        <ele>604.2</ele>
        <time>2022-12-31 11:04:12</time>
      </trkpt>
      <trkpt lat="40.15984" lon="-3.7382">
        <ele>604.2</ele>
        <time>2022-12-31 11:04:13</time>
      </trkpt>
      <trkpt lat="40.1599" lon="-3.73824">
        <ele>604.2</ele>
        <time>2022-12-31 11:04:14</time>
      </trkpt>
      <trkpt lat="40.15996" lon="-3.73829">
        <ele>604.4</ele>
        <time>2022-12-31 11:04:15</time>
      </trkpt>
      <trkpt lat="40.16001" lon="-3.73833">
        <ele>604.8</ele>
        <time>2022-12-31 11:04:16</time>
      </trkpt>
      <trkpt lat="40.16007" lon="-3.73837">
        <ele>605</ele>
        <time>2022-12-31 11:04:17</time>
      </trkpt>
      <trkpt lat="40.16013" lon="-3.73841">
        <ele>605</ele>
        <time>2022-12-31 11:04:18</time>
      </trkpt>
      <trkpt lat="40.16018" lon="-3.73846">
        <ele>605.2</ele>
        <time>2022-12-31 11:04:19</time>
      </trkpt>
      <trkpt lat="40.16023" lon="-3.73851">
        <ele>605.2</ele>
        <time>2022-12-31 11:04:20</time>
      </trkpt>
      <trkpt lat="40.16028" lon="-3.73856">
        <ele>605.4</ele>
        <time>2022-12-31 11:04:21</time>
      </trkpt>
      <trkpt lat="40.16033" lon="-3.73861">
        <ele>605.6</ele>
        <time>2022-12-31 11:04:22</time>
      </trkpt>
      <trkpt lat="40.16038" lon="-3.73866">
        <ele>605.8</ele>
        <time>2022-12-31 11:04:23</time>
      </trkpt>
      <trkpt lat="40.16042" lon="-3.73873">
        <ele>606</ele>
        <time>2022-12-31 11:04:24</time>
      </trkpt>
      <trkpt lat="40.16047" lon="-3.7388">
        <ele>606</ele>
        <time>2022-12-31 11:04:25</time>
      </trkpt>
      <trkpt lat="40.16052" lon="-3.73887">
        <ele>606.2</ele>
        <time>2022-12-31 11:04:26</time>
      </trkpt>
      <trkpt lat="40.16056" lon="-3.73894">
        <ele>606.4</ele>
        <time>2022-12-31 11:04:27</time>
      </trkpt>
      <trkpt lat="40.16061" lon="-3.73901">
        <ele>606.6</ele>
        <time>2022-12-31 11:04:28</time>
      </trkpt>
      <trkpt lat="40.16066" lon="-3.73909">
        <ele>606.4</ele>
        <time>2022-12-31 11:04:29</time>
      </trkpt>
      <trkpt lat="40.16071" lon="-3.73916">
        <ele>606.6</ele>
        <time>2022-12-31 11:04:30</time>
      </trkpt>
      <trkpt lat="40.16077" lon="-3.73923">
        <ele>606.6</ele>
        <time>2022-12-31 11:04:31</time>
      </trkpt>
      <trkpt lat="40.16082" lon="-3.73929">
        <ele>606.6</ele>
        <time>2022-12-31 11:04:32</time>
      </trkpt>
      <trkpt lat="40.16087" lon="-3.73935">
        <ele>606.6</ele>
        <time>2022-12-31 11:04:33</time>
      </trkpt>
      <trkpt lat="40.16092" lon="-3.73942">
        <ele>606.8</ele>
        <time>2022-12-31 11:04:34</time>
      </trkpt>
      <trkpt lat="40.16098" lon="-3.73948">
        <ele>606.8</ele>
        <time>2022-12-31 11:04:35</time>
      </trkpt>
      <trkpt lat="40.16103" lon="-3.73955">
        <ele>606.6</ele>
        <time>2022-12-31 11:04:36</time>
      </trkpt>
      <trkpt lat="40.16108" lon="-3.73961">
        <ele>606.6</ele>
        <time>2022-12-31 11:04:37</time>
      </trkpt>
      <trkpt lat="40.16114" lon="-3.73967">
        <ele>606.6</ele>
        <time>2022-12-31 11:04:38</time>
      </trkpt>
      <trkpt lat="40.1612" lon="-3.73973">
        <ele>606.6</ele>
        <time>2022-12-31 11:04:39</time>
      </trkpt>
      <trkpt lat="40.16126" lon="-3.73978">
        <ele>606.6</ele>
        <time>2022-12-31 11:04:40</time>
      </trkpt>
      <trkpt lat="40.16132" lon="-3.73984">
        <ele>606.6</ele>
        <time>2022-12-31 11:04:41</time>
      </trkpt>
      <trkpt lat="40.16137" lon="-3.73989">
        <ele>606.4</ele>
        <time>2022-12-31 11:04:42</time>
      </trkpt>
      <trkpt lat="40.16143" lon="-3.73994">
        <ele>606.2</ele>
        <time>2022-12-31 11:04:43</time>
      </trkpt>
      <trkpt lat="40.16149" lon="-3.73999">
        <ele>606.2</ele>
        <time>2022-12-31 11:04:44</time>
      </trkpt>
      <trkpt lat="40.16155" lon="-3.74004">
        <ele>606.2</ele>
        <time>2022-12-31 11:04:45</time>
      </trkpt>
      <trkpt lat="40.1616" lon="-3.74009">
        <ele>606.2</ele>
        <time>2022-12-31 11:04:46</time>
      </trkpt>
      <trkpt lat="40.16165" lon="-3.74015">
        <ele>605.8</ele>
        <time>2022-12-31 11:04:47</time>
      </trkpt>
      <trkpt lat="40.1617" lon="-3.7402">
        <ele>605.8</ele>
        <time>2022-12-31 11:04:48</time>
      </trkpt>
      <trkpt lat="40.16176" lon="-3.74026">
        <ele>606</ele>
        <time>2022-12-31 11:04:49</time>
      </trkpt>
      <trkpt lat="40.16181" lon="-3.74032">
        <ele>605.8</ele>
        <time>2022-12-31 11:04:50</time>
      </trkpt>
      <trkpt lat="40.16187" lon="-3.74038">
        <ele>605.8</ele>
        <time>2022-12-31 11:04:51</time>
      </trkpt>
      <trkpt lat="40.16193" lon="-3.74045">
        <ele>605.6</ele>
        <time>2022-12-31 11:04:52</time>
      </trkpt>
      <trkpt lat="40.16198" lon="-3.74051">
        <ele>605.6</ele>
        <time>2022-12-31 11:04:53</time>
      </trkpt>
      <trkpt lat="40.16204" lon="-3.74058">
        <ele>605.6</ele>
        <time>2022-12-31 11:04:54</time>
      </trkpt>
      <trkpt lat="40.1621" lon="-3.74065">
        <ele>605.6</ele>
        <time>2022-12-31 11:04:55</time>
      </trkpt>
      <trkpt lat="40.16215" lon="-3.74072">
        <ele>605.4</ele>
        <time>2022-12-31 11:04:56</time>
      </trkpt>
      <trkpt lat="40.16221" lon="-3.74079">
        <ele>605.4</ele>
        <time>2022-12-31 11:04:57</time>
      </trkpt>
      <trkpt lat="40.16226" lon="-3.74086">
        <ele>605.2</ele>
        <time>2022-12-31 11:04:58</time>
      </trkpt>
      <trkpt lat="40.16232" lon="-3.74092">
        <ele>605.2</ele>
        <time>2022-12-31 11:04:59</time>
      </trkpt>
      <trkpt lat="40.16238" lon="-3.74099">
        <ele>604.8</ele>
        <time>2022-12-31 11:05:00</time>
      </trkpt>
      <trkpt lat="40.16244" lon="-3.74106">
        <ele>604.8</ele>
        <time>2022-12-31 11:05:01</time>
      </trkpt>
      <trkpt lat="40.1625" lon="-3.74113">
        <ele>604.8</ele>
        <time>2022-12-31 11:05:02</time>
      </trkpt>
      <trkpt lat="40.16255" lon="-3.7412">
        <ele>604.4</ele>
        <time>2022-12-31 11:05:03</time>
      </trkpt>
      <trkpt lat="40.16261" lon="-3.74127">
        <ele>604</ele>
        <time>2022-12-31 11:05:04</time>
      </trkpt>
      <trkpt lat="40.16266" lon="-3.74134">
        <ele>603.8</ele>
        <time>2022-12-31 11:05:05</time>
      </trkpt>
      <trkpt lat="40.16272" lon="-3.74141">
        <ele>603.6</ele>
        <time>2022-12-31 11:05:06</time>
      </trkpt>
      <trkpt lat="40.16277" lon="-3.74149">
        <ele>603.2</ele>
        <time>2022-12-31 11:05:07</time>
      </trkpt>
      <trkpt lat="40.16282" lon="-3.74156">
        <ele>603.2</ele>
        <time>2022-12-31 11:05:08</time>
      </trkpt>
      <trkpt lat="40.16287" lon="-3.74164">
        <ele>602.8</ele>
        <time>2022-12-31 11:05:09</time>
      </trkpt>
      <trkpt lat="40.16292" lon="-3.74172">
        <ele>602.8</ele>
        <time>2022-12-31 11:05:10</time>
      </trkpt>
      <trkpt lat="40.16297" lon="-3.7418">
        <ele>602.6</ele>
        <time>2022-12-31 11:05:11</time>
      </trkpt>
      <trkpt lat="40.16302" lon="-3.74188">
        <ele>602.2</ele>
        <time>2022-12-31 11:05:12</time>
      </trkpt>
      <trkpt lat="40.16307" lon="-3.74196">
        <ele>602</ele>
        <time>2022-12-31 11:05:13</time>
      </trkpt>
      <trkpt lat="40.16312" lon="-3.74204">
        <ele>602</ele>
        <time>2022-12-31 11:05:14</time>
      </trkpt>
      <trkpt lat="40.16317" lon="-3.74212">
        <ele>601.8</ele>
        <time>2022-12-31 11:05:15</time>
      </trkpt>
      <trkpt lat="40.16322" lon="-3.7422">
        <ele>601.8</ele>
        <time>2022-12-31 11:05:16</time>
      </trkpt>
      <trkpt lat="40.16327" lon="-3.74228">
        <ele>601.6</ele>
        <time>2022-12-31 11:05:17</time>
      </trkpt>
      <trkpt lat="40.16331" lon="-3.74236">
        <ele>601.6</ele>
        <time>2022-12-31 11:05:18</time>
      </trkpt>
      <trkpt lat="40.16336" lon="-3.74244">
        <ele>601.4</ele>
        <time>2022-12-31 11:05:19</time>
      </trkpt>
      <trkpt lat="40.16341" lon="-3.74251">
        <ele>601.2</ele>
        <time>2022-12-31 11:05:20</time>
      </trkpt>
      <trkpt lat="40.16346" lon="-3.74259">
        <ele>601.2</ele>
        <time>2022-12-31 11:05:21</time>
      </trkpt>
      <trkpt lat="40.1635" lon="-3.74266">
        <ele>601.2</ele>
        <time>2022-12-31 11:05:22</time>
      </trkpt>
      <trkpt lat="40.16355" lon="-3.74274">
        <ele>600.8</ele>
        <time>2022-12-31 11:05:23</time>
      </trkpt>
      <trkpt lat="40.1636" lon="-3.74282">
        <ele>600.6</ele>
        <time>2022-12-31 11:05:24</time>
      </trkpt>
      <trkpt lat="40.16365" lon="-3.74289">
        <ele>600.6</ele>
        <time>2022-12-31 11:05:25</time>
      </trkpt>
      <trkpt lat="40.16371" lon="-3.74295">
        <ele>600.6</ele>
        <time>2022-12-31 11:05:26</time>
      </trkpt>
      <trkpt lat="40.16376" lon="-3.74302">
        <ele>600.6</ele>
        <time>2022-12-31 11:05:27</time>
      </trkpt>
      <trkpt lat="40.16381" lon="-3.74309">
        <ele>600.4</ele>
        <time>2022-12-31 11:05:28</time>
      </trkpt>
      <trkpt lat="40.16387" lon="-3.74316">
        <ele>600.2</ele>
        <time>2022-12-31 11:05:29</time>
      </trkpt>
      <trkpt lat="40.16392" lon="-3.74323">
        <ele>600.2</ele>
        <time>2022-12-31 11:05:30</time>
      </trkpt>
      <trkpt lat="40.16397" lon="-3.7433">
        <ele>600.2</ele>
        <time>2022-12-31 11:05:31</time>
      </trkpt>
      <trkpt lat="40.16402" lon="-3.74338">
        <ele>600.2</ele>
        <time>2022-12-31 11:05:32</time>
      </trkpt>
      <trkpt lat="40.16407" lon="-3.74347">
        <ele>600</ele>
        <time>2022-12-31 11:05:33</time>
      </trkpt>
      <trkpt lat="40.16412" lon="-3.74356">
        <ele>599.8</ele>
        <time>2022-12-31 11:05:34</time>
      </trkpt>
      <trkpt lat="40.16417" lon="-3.74365">
        <ele>599.8</ele>
        <time>2022-12-31 11:05:35</time>
      </trkpt>
      <trkpt lat="40.16422" lon="-3.74375">
        <ele>599.8</ele>
        <time>2022-12-31 11:05:36</time>
      </trkpt>
      <trkpt lat="40.16427" lon="-3.74385">
        <ele>599.8</ele>
        <time>2022-12-31 11:05:37</time>
      </trkpt>
      <trkpt lat="40.16431" lon="-3.74395">
        <ele>599.6</ele>
        <time>2022-12-31 11:05:38</time>
      </trkpt>
      <trkpt lat="40.16436" lon="-3.74406">
        <ele>599.4</ele>
        <time>2022-12-31 11:05:39</time>
      </trkpt>
      <trkpt lat="40.16441" lon="-3.74417">
        <ele>599.2</ele>
        <time>2022-12-31 11:05:40</time>
      </trkpt>
      <trkpt lat="40.16445" lon="-3.74427">
        <ele>598.8</ele>
        <time>2022-12-31 11:05:41</time>
      </trkpt>
      <trkpt lat="40.1645" lon="-3.74438">
        <ele>598.8</ele>
        <time>2022-12-31 11:05:42</time>
      </trkpt>
      <trkpt lat="40.16455" lon="-3.74449">
        <ele>598.4</ele>
        <time>2022-12-31 11:05:43</time>
      </trkpt>
      <trkpt lat="40.1646" lon="-3.74459">
        <ele>598</ele>
        <time>2022-12-31 11:05:44</time>
      </trkpt>
      <trkpt lat="40.16465" lon="-3.7447">
        <ele>597.8</ele>
        <time>2022-12-31 11:05:45</time>
      </trkpt>
      <trkpt lat="40.1647" lon="-3.74479">
        <ele>597.2</ele>
        <time>2022-12-31 11:05:46</time>
      </trkpt>
      <trkpt lat="40.16476" lon="-3.74488">
        <ele>596.8</ele>
        <time>2022-12-31 11:05:47</time>
      </trkpt>
      <trkpt lat="40.16482" lon="-3.74497">
        <ele>596.6</ele>
        <time>2022-12-31 11:05:48</time>
      </trkpt>
      <trkpt lat="40.16488" lon="-3.74505">
        <ele>596</ele>
        <time>2022-12-31 11:05:49</time>
      </trkpt>
      <trkpt lat="40.16495" lon="-3.74513">
        <ele>595.6</ele>
        <time>2022-12-31 11:05:50</time>
      </trkpt>
      <trkpt lat="40.16502" lon="-3.7452">
        <ele>595</ele>
        <time>2022-12-31 11:05:51</time>
      </trkpt>
      <trkpt lat="40.16509" lon="-3.74527">
        <ele>594.4</ele>
        <time>2022-12-31 11:05:52</time>
      </trkpt>
      <trkpt lat="40.16517" lon="-3.74533">
        <ele>594</ele>
        <time>2022-12-31 11:05:53</time>
      </trkpt>
      <trkpt lat="40.16525" lon="-3.74538">
        <ele>593.8</ele>
        <time>2022-12-31 11:05:54</time>
      </trkpt>
      <trkpt lat="40.16533" lon="-3.74542">
        <ele>593.6</ele>
        <time>2022-12-31 11:05:55</time>
      </trkpt>
      <trkpt lat="40.16541" lon="-3.74545">
        <ele>593.2</ele>
        <time>2022-12-31 11:05:56</time>
      </trkpt>
      <trkpt lat="40.16549" lon="-3.74547">
        <ele>593</ele>
        <time>2022-12-31 11:05:57</time>
      </trkpt>
      <trkpt lat="40.16557" lon="-3.74549">
        <ele>592.8</ele>
        <time>2022-12-31 11:05:58</time>
      </trkpt>
      <trkpt lat="40.16565" lon="-3.7455">
        <ele>592.6</ele>
        <time>2022-12-31 11:05:59</time>
      </trkpt>
      <trkpt lat="40.16573" lon="-3.74552">
        <ele>592.4</ele>
        <time>2022-12-31 11:06:00</time>
      </trkpt>
      <trkpt lat="40.16581" lon="-3.74553">
        <ele>592.4</ele>
        <time>2022-12-31 11:06:01</time>
      </trkpt>
      <trkpt lat="40.16589" lon="-3.74555">
        <ele>592</ele>
        <time>2022-12-31 11:06:02</time>
      </trkpt>
      <trkpt lat="40.16597" lon="-3.74557">
        <ele>591.6</ele>
        <time>2022-12-31 11:06:03</time>
      </trkpt>
      <trkpt lat="40.16604" lon="-3.74558">
        <ele>590.8</ele>
        <time>2022-12-31 11:06:04</time>
      </trkpt>
      <trkpt lat="40.16612" lon="-3.74559">
        <ele>590.6</ele>
        <time>2022-12-31 11:06:05</time>
      </trkpt>
      <trkpt lat="40.16619" lon="-3.74561">
        <ele>590.2</ele>
        <time>2022-12-31 11:06:06</time>
      </trkpt>
      <trkpt lat="40.16627" lon="-3.74562">
        <ele>590</ele>
        <time>2022-12-31 11:06:07</time>
      </trkpt>
      <trkpt lat="40.16634" lon="-3.74564">
        <ele>590</ele>
        <time>2022-12-31 11:06:08</time>
      </trkpt>
      <trkpt lat="40.16641" lon="-3.74566">
        <ele>590</ele>
        <time>2022-12-31 11:06:09</time>
      </trkpt>
      <trkpt lat="40.16647" lon="-3.74568">
        <ele>590</ele>
        <time>2022-12-31 11:06:10</time>
      </trkpt>
      <trkpt lat="40.16653" lon="-3.74571">
        <ele>590</ele>
        <time>2022-12-31 11:06:11</time>
      </trkpt>
      <trkpt lat="40.1666" lon="-3.74573">
        <ele>590</ele>
        <time>2022-12-31 11:06:12</time>
      </trkpt>
      <trkpt lat="40.16667" lon="-3.74576">
        <ele>590</ele>
        <time>2022-12-31 11:06:13</time>
      </trkpt>
      <trkpt lat="40.16673" lon="-3.74579">
        <ele>590</ele>
        <time>2022-12-31 11:06:14</time>
      </trkpt>
      <trkpt lat="40.1668" lon="-3.74582">
        <ele>590.2</ele>
        <time>2022-12-31 11:06:15</time>
      </trkpt>
      <trkpt lat="40.16686" lon="-3.74585">
        <ele>590.6</ele>
        <time>2022-12-31 11:06:16</time>
      </trkpt>
      <trkpt lat="40.16693" lon="-3.74588">
        <ele>591</ele>
        <time>2022-12-31 11:06:17</time>
      </trkpt>
      <trkpt lat="40.167" lon="-3.74591">
        <ele>591.2</ele>
        <time>2022-12-31 11:06:18</time>
      </trkpt>
      <trkpt lat="40.16707" lon="-3.74594">
        <ele>591.6</ele>
        <time>2022-12-31 11:06:19</time>
      </trkpt>
      <trkpt lat="40.16714" lon="-3.74598">
        <ele>591.6</ele>
        <time>2022-12-31 11:06:20</time>
      </trkpt>
      <trkpt lat="40.16721" lon="-3.74601">
        <ele>591.6</ele>
        <time>2022-12-31 11:06:21</time>
      </trkpt>
      <trkpt lat="40.16727" lon="-3.74605">
        <ele>591.8</ele>
        <time>2022-12-31 11:06:22</time>
      </trkpt>
      <trkpt lat="40.16734" lon="-3.74608">
        <ele>592</ele>
        <time>2022-12-31 11:06:23</time>
      </trkpt>
      <trkpt lat="40.1674" lon="-3.74611">
        <ele>592</ele>
        <time>2022-12-31 11:06:24</time>
      </trkpt>
      <trkpt lat="40.16745" lon="-3.74615">
        <ele>592</ele>
        <time>2022-12-31 11:06:25</time>
      </trkpt>
      <trkpt lat="40.16751" lon="-3.74618">
        <ele>592</ele>
        <time>2022-12-31 11:06:26</time>
      </trkpt>
      <trkpt lat="40.16757" lon="-3.74622">
        <ele>592.2</ele>
        <time>2022-12-31 11:06:27</time>
      </trkpt>
      <trkpt lat="40.16762" lon="-3.74626">
        <ele>592.2</ele>
        <time>2022-12-31 11:06:28</time>
      </trkpt>
      <trkpt lat="40.16768" lon="-3.74631">
        <ele>592.4</ele>
        <time>2022-12-31 11:06:29</time>
      </trkpt>
      <trkpt lat="40.16773" lon="-3.74635">
        <ele>592.4</ele>
        <time>2022-12-31 11:06:30</time>
      </trkpt>
      <trkpt lat="40.16779" lon="-3.74638">
        <ele>592.4</ele>
        <time>2022-12-31 11:06:31</time>
      </trkpt>
      <trkpt lat="40.16785" lon="-3.74642">
        <ele>592.6</ele>
        <time>2022-12-31 11:06:32</time>
      </trkpt>
      <trkpt lat="40.16791" lon="-3.74644">
        <ele>592.8</ele>
        <time>2022-12-31 11:06:33</time>
      </trkpt>
      <trkpt lat="40.16798" lon="-3.74646">
        <ele>592.8</ele>
        <time>2022-12-31 11:06:34</time>
      </trkpt>
      <trkpt lat="40.16806" lon="-3.74647">
        <ele>592.8</ele>
        <time>2022-12-31 11:06:35</time>
      </trkpt>
      <trkpt lat="40.16813" lon="-3.74648">
        <ele>592.8</ele>
        <time>2022-12-31 11:06:36</time>
      </trkpt>
      <trkpt lat="40.16821" lon="-3.74648">
        <ele>592.8</ele>
        <time>2022-12-31 11:06:37</time>
      </trkpt>
      <trkpt lat="40.16829" lon="-3.74648">
        <ele>592.8</ele>
        <time>2022-12-31 11:06:38</time>
      </trkpt>
      <trkpt lat="40.16837" lon="-3.74648">
        <ele>592.8</ele>
        <time>2022-12-31 11:06:39</time>
      </trkpt>
      <trkpt lat="40.16844" lon="-3.7465">
        <ele>592.8</ele>
        <time>2022-12-31 11:06:40</time>
      </trkpt>
      <trkpt lat="40.16852" lon="-3.74652">
        <ele>592.6</ele>
        <time>2022-12-31 11:06:41</time>
      </trkpt>
      <trkpt lat="40.1686" lon="-3.74655">
        <ele>592.6</ele>
        <time>2022-12-31 11:06:42</time>
      </trkpt>
      <trkpt lat="40.16867" lon="-3.74659">
        <ele>592.6</ele>
        <time>2022-12-31 11:06:43</time>
      </trkpt>
      <trkpt lat="40.16875" lon="-3.74663">
        <ele>592.4</ele>
        <time>2022-12-31 11:06:44</time>
      </trkpt>
      <trkpt lat="40.16881" lon="-3.74668">
        <ele>592.2</ele>
        <time>2022-12-31 11:06:45</time>
      </trkpt>
      <trkpt lat="40.16888" lon="-3.74673">
        <ele>591.8</ele>
        <time>2022-12-31 11:06:46</time>
      </trkpt>
      <trkpt lat="40.16895" lon="-3.74679">
        <ele>591</ele>
        <time>2022-12-31 11:06:47</time>
      </trkpt>
      <trkpt lat="40.16901" lon="-3.74685">
        <ele>590.6</ele>
        <time>2022-12-31 11:06:48</time>
      </trkpt>
      <trkpt lat="40.16907" lon="-3.74692">
        <ele>590.2</ele>
        <time>2022-12-31 11:06:49</time>
      </trkpt>
      <trkpt lat="40.16913" lon="-3.74699">
        <ele>589.8</ele>
        <time>2022-12-31 11:06:50</time>
      </trkpt>
      <trkpt lat="40.16919" lon="-3.74706">
        <ele>589.4</ele>
        <time>2022-12-31 11:06:51</time>
      </trkpt>
      <trkpt lat="40.16925" lon="-3.74713">
        <ele>589</ele>
        <time>2022-12-31 11:06:52</time>
      </trkpt>
      <trkpt lat="40.16931" lon="-3.74719">
        <ele>589</ele>
        <time>2022-12-31 11:06:53</time>
      </trkpt>
      <trkpt lat="40.16936" lon="-3.74726">
        <ele>588.8</ele>
        <time>2022-12-31 11:06:54</time>
      </trkpt>
      <trkpt lat="40.16942" lon="-3.74732">
        <ele>588.6</ele>
        <time>2022-12-31 11:06:55</time>
      </trkpt>
      <trkpt lat="40.16948" lon="-3.74737">
        <ele>588.6</ele>
        <time>2022-12-31 11:06:56</time>
      </trkpt>
      <trkpt lat="40.16954" lon="-3.74742">
        <ele>588.6</ele>
        <time>2022-12-31 11:06:57</time>
      </trkpt>
      <trkpt lat="40.1696" lon="-3.74747">
        <ele>588.6</ele>
        <time>2022-12-31 11:06:58</time>
      </trkpt>
      <trkpt lat="40.16966" lon="-3.74752">
        <ele>588.6</ele>
        <time>2022-12-31 11:06:59</time>
      </trkpt>
      <trkpt lat="40.16972" lon="-3.74756">
        <ele>588.6</ele>
        <time>2022-12-31 11:07:00</time>
      </trkpt>
      <trkpt lat="40.16978" lon="-3.7476">
        <ele>588.6</ele>
        <time>2022-12-31 11:07:01</time>
      </trkpt>
      <trkpt lat="40.16984" lon="-3.74763">
        <ele>588.6</ele>
        <time>2022-12-31 11:07:02</time>
      </trkpt>
      <trkpt lat="40.1699" lon="-3.74767">
        <ele>588.6</ele>
        <time>2022-12-31 11:07:03</time>
      </trkpt>
      <trkpt lat="40.16996" lon="-3.7477">
        <ele>588.6</ele>
        <time>2022-12-31 11:07:04</time>
      </trkpt>
      <trkpt lat="40.17002" lon="-3.74774">
        <ele>588.6</ele>
        <time>2022-12-31 11:07:05</time>
      </trkpt>
      <trkpt lat="40.17008" lon="-3.74776">
        <ele>588.8</ele>
        <time>2022-12-31 11:07:06</time>
      </trkpt>
      <trkpt lat="40.17014" lon="-3.74779">
        <ele>588.8</ele>
        <time>2022-12-31 11:07:07</time>
      </trkpt>
      <trkpt lat="40.1702" lon="-3.74781">
        <ele>589</ele>
        <time>2022-12-31 11:07:08</time>
      </trkpt>
      <trkpt lat="40.17027" lon="-3.74782">
        <ele>589</ele>
        <time>2022-12-31 11:07:09</time>
      </trkpt>
      <trkpt lat="40.17034" lon="-3.74784">
        <ele>589.2</ele>
        <time>2022-12-31 11:07:10</time>
      </trkpt>
      <trkpt lat="40.17041" lon="-3.74784">
        <ele>589.4</ele>
        <time>2022-12-31 11:07:11</time>
      </trkpt>
      <trkpt lat="40.17048" lon="-3.74786">
        <ele>589.4</ele>
        <time>2022-12-31 11:07:12</time>
      </trkpt>
      <trkpt lat="40.17055" lon="-3.74788">
        <ele>589.4</ele>
        <time>2022-12-31 11:07:13</time>
      </trkpt>
      <trkpt lat="40.17063" lon="-3.7479">
        <ele>589.6</ele>
        <time>2022-12-31 11:07:14</time>
      </trkpt>
      <trkpt lat="40.1707" lon="-3.74792">
        <ele>589.4</ele>
        <time>2022-12-31 11:07:15</time>
      </trkpt>
      <trkpt lat="40.17077" lon="-3.74795">
        <ele>589.4</ele>
        <time>2022-12-31 11:07:16</time>
      </trkpt>
      <trkpt lat="40.17084" lon="-3.74798">
        <ele>589.4</ele>
        <time>2022-12-31 11:07:17</time>
      </trkpt>
      <trkpt lat="40.17091" lon="-3.74801">
        <ele>589.4</ele>
        <time>2022-12-31 11:07:18</time>
      </trkpt>
      <trkpt lat="40.17097" lon="-3.74805">
        <ele>589.6</ele>
        <time>2022-12-31 11:07:19</time>
      </trkpt>
      <trkpt lat="40.17104" lon="-3.74809">
        <ele>589.4</ele>
        <time>2022-12-31 11:07:20</time>
      </trkpt>
      <trkpt lat="40.17111" lon="-3.74813">
        <ele>589.4</ele>
        <time>2022-12-31 11:07:21</time>
      </trkpt>
      <trkpt lat="40.17118" lon="-3.74817">
        <ele>589.4</ele>
        <time>2022-12-31 11:07:22</time>
      </trkpt>
      <trkpt lat="40.17124" lon="-3.74821">
        <ele>589</ele>
        <time>2022-12-31 11:07:23</time>
      </trkpt>
      <trkpt lat="40.1713" lon="-3.74825">
        <ele>589</ele>
        <time>2022-12-31 11:07:24</time>
      </trkpt>
      <trkpt lat="40.17135" lon="-3.74829">
        <ele>588.8</ele>
        <time>2022-12-31 11:07:25</time>
      </trkpt>
      <trkpt lat="40.17141" lon="-3.74834">
        <ele>588.6</ele>
        <time>2022-12-31 11:07:26</time>
      </trkpt>
      <trkpt lat="40.17147" lon="-3.74839">
        <ele>588.6</ele>
        <time>2022-12-31 11:07:27</time>
      </trkpt>
      <trkpt lat="40.17152" lon="-3.74845">
        <ele>588.4</ele>
        <time>2022-12-31 11:07:28</time>
      </trkpt>
      <trkpt lat="40.17156" lon="-3.74851">
        <ele>588.2</ele>
        <time>2022-12-31 11:07:29</time>
      </trkpt>
      <trkpt lat="40.17161" lon="-3.74857">
        <ele>588.2</ele>
        <time>2022-12-31 11:07:30</time>
      </trkpt>
      <trkpt lat="40.17165" lon="-3.74862">
        <ele>588</ele>
        <time>2022-12-31 11:07:31</time>
      </trkpt>
      <trkpt lat="40.17171" lon="-3.74867">
        <ele>587.8</ele>
        <time>2022-12-31 11:07:32</time>
      </trkpt>
      <trkpt lat="40.17176" lon="-3.74871">
        <ele>587.8</ele>
        <time>2022-12-31 11:07:33</time>
      </trkpt>
      <trkpt lat="40.17181" lon="-3.74875">
        <ele>587.6</ele>
        <time>2022-12-31 11:07:34</time>
      </trkpt>
      <trkpt lat="40.17186" lon="-3.7488">
        <ele>587.6</ele>
        <time>2022-12-31 11:07:35</time>
      </trkpt>
      <trkpt lat="40.17192" lon="-3.74883">
        <ele>587.6</ele>
        <time>2022-12-31 11:07:36</time>
      </trkpt>
      <trkpt lat="40.17197" lon="-3.74887">
        <ele>587.6</ele>
        <time>2022-12-31 11:07:37</time>
      </trkpt>
      <trkpt lat="40.17202" lon="-3.7489">
        <ele>587.6</ele>
        <time>2022-12-31 11:07:38</time>
      </trkpt>
      <trkpt lat="40.17207" lon="-3.74894">
        <ele>587.6</ele>
        <time>2022-12-31 11:07:39</time>
      </trkpt>
      <trkpt lat="40.17212" lon="-3.74897">
        <ele>587.6</ele>
        <time>2022-12-31 11:07:40</time>
      </trkpt>
      <trkpt lat="40.17217" lon="-3.74901">
        <ele>587.6</ele>
        <time>2022-12-31 11:07:41</time>
      </trkpt>
      <trkpt lat="40.17221" lon="-3.74904">
        <ele>587.6</ele>
        <time>2022-12-31 11:07:42</time>
      </trkpt>
      <trkpt lat="40.17226" lon="-3.74907">
        <ele>587.6</ele>
        <time>2022-12-31 11:07:43</time>
      </trkpt>
      <trkpt lat="40.1723" lon="-3.74911">
        <ele>587.8</ele>
        <time>2022-12-31 11:07:44</time>
      </trkpt>
      <trkpt lat="40.17234" lon="-3.74915">
        <ele>587.6</ele>
        <time>2022-12-31 11:07:45</time>
      </trkpt>
      <trkpt lat="40.17238" lon="-3.74919">
        <ele>587.6</ele>
        <time>2022-12-31 11:07:46</time>
      </trkpt>
      <trkpt lat="40.17243" lon="-3.74924">
        <ele>587.8</ele>
        <time>2022-12-31 11:07:47</time>
      </trkpt>
      <trkpt lat="40.17247" lon="-3.74929">
        <ele>588</ele>
        <time>2022-12-31 11:07:48</time>
      </trkpt>
      <trkpt lat="40.17251" lon="-3.74933">
        <ele>588.2</ele>
        <time>2022-12-31 11:07:49</time>
      </trkpt>
      <trkpt lat="40.17256" lon="-3.74938">
        <ele>588.2</ele>
        <time>2022-12-31 11:07:50</time>
      </trkpt>
      <trkpt lat="40.1726" lon="-3.74943">
        <ele>588.4</ele>
        <time>2022-12-31 11:07:51</time>
      </trkpt>
      <trkpt lat="40.17263" lon="-3.74949">
        <ele>588.8</ele>
        <time>2022-12-31 11:07:52</time>
      </trkpt>
      <trkpt lat="40.17267" lon="-3.74954">
        <ele>589.2</ele>
        <time>2022-12-31 11:07:53</time>
      </trkpt>
      <trkpt lat="40.17271" lon="-3.7496">
        <ele>589.2</ele>
        <time>2022-12-31 11:07:54</time>
      </trkpt>
      <trkpt lat="40.17275" lon="-3.74966">
        <ele>589.6</ele>
        <time>2022-12-31 11:07:55</time>
      </trkpt>
      <trkpt lat="40.17278" lon="-3.74972">
        <ele>589.6</ele>
        <time>2022-12-31 11:07:56</time>
      </trkpt>
      <trkpt lat="40.17282" lon="-3.74978">
        <ele>589.8</ele>
        <time>2022-12-31 11:07:57</time>
      </trkpt>
      <trkpt lat="40.17286" lon="-3.74984">
        <ele>589.8</ele>
        <time>2022-12-31 11:07:58</time>
      </trkpt>
      <trkpt lat="40.17289" lon="-3.74991">
        <ele>589.8</ele>
        <time>2022-12-31 11:07:59</time>
      </trkpt>
      <trkpt lat="40.17292" lon="-3.74997">
        <ele>590</ele>
        <time>2022-12-31 11:08:00</time>
      </trkpt>
      <trkpt lat="40.17296" lon="-3.75004">
        <ele>590</ele>
        <time>2022-12-31 11:08:01</time>
      </trkpt>
      <trkpt lat="40.17299" lon="-3.7501">
        <ele>590</ele>
        <time>2022-12-31 11:08:02</time>
      </trkpt>
      <trkpt lat="40.17302" lon="-3.75017">
        <ele>590</ele>
        <time>2022-12-31 11:08:03</time>
      </trkpt>
      <trkpt lat="40.17306" lon="-3.75024">
        <ele>590</ele>
        <time>2022-12-31 11:08:04</time>
      </trkpt>
      <trkpt lat="40.1731" lon="-3.75031">
        <ele>590</ele>
        <time>2022-12-31 11:08:05</time>
      </trkpt>
      <trkpt lat="40.17313" lon="-3.75038">
        <ele>590</ele>
        <time>2022-12-31 11:08:06</time>
      </trkpt>
      <trkpt lat="40.17317" lon="-3.75046">
        <ele>589.8</ele>
        <time>2022-12-31 11:08:07</time>
      </trkpt>
      <trkpt lat="40.17321" lon="-3.75054">
        <ele>590</ele>
        <time>2022-12-31 11:08:08</time>
      </trkpt>
      <trkpt lat="40.17324" lon="-3.75061">
        <ele>589.8</ele>
        <time>2022-12-31 11:08:09</time>
      </trkpt>
      <trkpt lat="40.17328" lon="-3.75068">
        <ele>589.8</ele>
        <time>2022-12-31 11:08:10</time>
      </trkpt>
      <trkpt lat="40.17331" lon="-3.75074">
        <ele>589.8</ele>
        <time>2022-12-31 11:08:11</time>
      </trkpt>
      <trkpt lat="40.17334" lon="-3.7508">
        <ele>589.8</ele>
        <time>2022-12-31 11:08:12</time>
      </trkpt>
      <trkpt lat="40.17336" lon="-3.75086">
        <ele>589.8</ele>
        <time>2022-12-31 11:08:13</time>
      </trkpt>
      <trkpt lat="40.17338" lon="-3.75092">
        <ele>589.8</ele>
        <time>2022-12-31 11:08:14</time>
      </trkpt>
      <trkpt lat="40.17341" lon="-3.75098">
        <ele>589.8</ele>
        <time>2022-12-31 11:08:15</time>
      </trkpt>
      <trkpt lat="40.17343" lon="-3.75103">
        <ele>589.8</ele>
        <time>2022-12-31 11:08:16</time>
      </trkpt>
      <trkpt lat="40.17345" lon="-3.75107">
        <ele>589.8</ele>
        <time>2022-12-31 11:08:17</time>
      </trkpt>
      <trkpt lat="40.17348" lon="-3.75112">
        <ele>589.8</ele>
        <time>2022-12-31 11:08:18</time>
      </trkpt>
      <trkpt lat="40.17351" lon="-3.75116">
        <ele>589.8</ele>
        <time>2022-12-31 11:08:19</time>
      </trkpt>
      <trkpt lat="40.17354" lon="-3.7512">
        <ele>590</ele>
        <time>2022-12-31 11:08:20</time>
      </trkpt>
      <trkpt lat="40.17357" lon="-3.75124">
        <ele>590</ele>
        <time>2022-12-31 11:08:21</time>
      </trkpt>
      <trkpt lat="40.1736" lon="-3.75128">
        <ele>590.6</ele>
        <time>2022-12-31 11:08:22</time>
      </trkpt>
      <trkpt lat="40.17362" lon="-3.75132">
        <ele>590.6</ele>
        <time>2022-12-31 11:08:23</time>
      </trkpt>
      <trkpt lat="40.17364" lon="-3.75137">
        <ele>591.2</ele>
        <time>2022-12-31 11:08:24</time>
      </trkpt>
      <trkpt lat="40.17367" lon="-3.75142">
        <ele>591.6</ele>
        <time>2022-12-31 11:08:25</time>
      </trkpt>
      <trkpt lat="40.17369" lon="-3.75146">
        <ele>592</ele>
        <time>2022-12-31 11:08:26</time>
      </trkpt>
      <trkpt lat="40.17371" lon="-3.7515">
        <ele>592.4</ele>
        <time>2022-12-31 11:08:27</time>
      </trkpt>
      <trkpt lat="40.17373" lon="-3.75155">
        <ele>592.4</ele>
        <time>2022-12-31 11:08:28</time>
      </trkpt>
      <trkpt lat="40.17375" lon="-3.75159">
        <ele>592.8</ele>
        <time>2022-12-31 11:08:29</time>
      </trkpt>
      <trkpt lat="40.17377" lon="-3.75164">
        <ele>593</ele>
        <time>2022-12-31 11:08:30</time>
      </trkpt>
      <trkpt lat="40.17379" lon="-3.75169">
        <ele>593.2</ele>
        <time>2022-12-31 11:08:31</time>
      </trkpt>
      <trkpt lat="40.17381" lon="-3.75174">
        <ele>593.4</ele>
        <time>2022-12-31 11:08:32</time>
      </trkpt>
      <trkpt lat="40.17383" lon="-3.75179">
        <ele>593.6</ele>
        <time>2022-12-31 11:08:33</time>
      </trkpt>
      <trkpt lat="40.17385" lon="-3.75183">
        <ele>593.6</ele>
        <time>2022-12-31 11:08:34</time>
      </trkpt>
      <trkpt lat="40.17387" lon="-3.75189">
        <ele>594</ele>
        <time>2022-12-31 11:08:35</time>
      </trkpt>
      <trkpt lat="40.17389" lon="-3.75193">
        <ele>594.2</ele>
        <time>2022-12-31 11:08:36</time>
      </trkpt>
      <trkpt lat="40.17391" lon="-3.75198">
        <ele>594.4</ele>
        <time>2022-12-31 11:08:37</time>
      </trkpt>
      <trkpt lat="40.17393" lon="-3.75202">
        <ele>594.6</ele>
        <time>2022-12-31 11:08:38</time>
      </trkpt>
      <trkpt lat="40.17395" lon="-3.75207">
        <ele>595</ele>
        <time>2022-12-31 11:08:39</time>
      </trkpt>
      <trkpt lat="40.17397" lon="-3.75213">
        <ele>595.2</ele>
        <time>2022-12-31 11:08:40</time>
      </trkpt>
      <trkpt lat="40.17399" lon="-3.75218">
        <ele>595.4</ele>
        <time>2022-12-31 11:08:41</time>
      </trkpt>
      <trkpt lat="40.17401" lon="-3.75222">
        <ele>595.6</ele>
        <time>2022-12-31 11:08:42</time>
      </trkpt>
      <trkpt lat="40.17403" lon="-3.75227">
        <ele>595.8</ele>
        <time>2022-12-31 11:08:43</time>
      </trkpt>
      <trkpt lat="40.17405" lon="-3.75232">
        <ele>595.8</ele>
        <time>2022-12-31 11:08:44</time>
      </trkpt>
      <trkpt lat="40.17407" lon="-3.75237">
        <ele>595.8</ele>
        <time>2022-12-31 11:08:45</time>
      </trkpt>
      <trkpt lat="40.17409" lon="-3.75242">
        <ele>596.2</ele>
        <time>2022-12-31 11:08:46</time>
      </trkpt>
      <trkpt lat="40.17411" lon="-3.75248">
        <ele>596.4</ele>
        <time>2022-12-31 11:08:47</time>
      </trkpt>
      <trkpt lat="40.17413" lon="-3.75254">
        <ele>596.2</ele>
        <time>2022-12-31 11:08:48</time>
      </trkpt>
      <trkpt lat="40.17415" lon="-3.7526">
        <ele>596.4</ele>
        <time>2022-12-31 11:08:49</time>
      </trkpt>
      <trkpt lat="40.17417" lon="-3.75266">
        <ele>596.4</ele>
        <time>2022-12-31 11:08:50</time>
      </trkpt>
      <trkpt lat="40.17419" lon="-3.75273">
        <ele>596.4</ele>
        <time>2022-12-31 11:08:51</time>
      </trkpt>
      <trkpt lat="40.17422" lon="-3.75279">
        <ele>596.2</ele>
        <time>2022-12-31 11:08:52</time>
      </trkpt>
      <trkpt lat="40.17424" lon="-3.75286">
        <ele>596.4</ele>
        <time>2022-12-31 11:08:53</time>
      </trkpt>
      <trkpt lat="40.17427" lon="-3.75293">
        <ele>596.4</ele>
        <time>2022-12-31 11:08:54</time>
      </trkpt>
      <trkpt lat="40.17431" lon="-3.753">
        <ele>596.4</ele>
        <time>2022-12-31 11:08:55</time>
      </trkpt>
      <trkpt lat="40.17434" lon="-3.75307">
        <ele>596.2</ele>
        <time>2022-12-31 11:08:56</time>
      </trkpt>
      <trkpt lat="40.17438" lon="-3.75314">
        <ele>596</ele>
        <time>2022-12-31 11:08:57</time>
      </trkpt>
      <trkpt lat="40.17442" lon="-3.75322">
        <ele>595.6</ele>
        <time>2022-12-31 11:08:58</time>
      </trkpt>
      <trkpt lat="40.17446" lon="-3.75331">
        <ele>595.2</ele>
        <time>2022-12-31 11:08:59</time>
      </trkpt>
      <trkpt lat="40.1745" lon="-3.75339">
        <ele>595</ele>
        <time>2022-12-31 11:09:00</time>
      </trkpt>
      <trkpt lat="40.17455" lon="-3.75348">
        <ele>594.8</ele>
        <time>2022-12-31 11:09:01</time>
      </trkpt>
      <trkpt lat="40.17459" lon="-3.75357">
        <ele>594.4</ele>
        <time>2022-12-31 11:09:02</time>
      </trkpt>
      <trkpt lat="40.17465" lon="-3.75367">
        <ele>593.8</ele>
        <time>2022-12-31 11:09:03</time>
      </trkpt>
      <trkpt lat="40.1747" lon="-3.75376">
        <ele>593.8</ele>
        <time>2022-12-31 11:09:04</time>
      </trkpt>
      <trkpt lat="40.17476" lon="-3.75386">
        <ele>593.4</ele>
        <time>2022-12-31 11:09:05</time>
      </trkpt>
      <trkpt lat="40.17482" lon="-3.75396">
        <ele>592.8</ele>
        <time>2022-12-31 11:09:06</time>
      </trkpt>
      <trkpt lat="40.17488" lon="-3.75407">
        <ele>592</ele>
        <time>2022-12-31 11:09:07</time>
      </trkpt>
      <trkpt lat="40.17494" lon="-3.75417">
        <ele>591.6</ele>
        <time>2022-12-31 11:09:08</time>
      </trkpt>
      <trkpt lat="40.175" lon="-3.75427">
        <ele>591.2</ele>
        <time>2022-12-31 11:09:09</time>
      </trkpt>
      <trkpt lat="40.17506" lon="-3.75438">
        <ele>590.4</ele>
        <time>2022-12-31 11:09:10</time>
      </trkpt>
      <trkpt lat="40.17513" lon="-3.75449">
        <ele>590</ele>
        <time>2022-12-31 11:09:11</time>
      </trkpt>
      <trkpt lat="40.17519" lon="-3.75461">
        <ele>589</ele>
        <time>2022-12-31 11:09:12</time>
      </trkpt>
      <trkpt lat="40.17525" lon="-3.75472">
        <ele>587.6</ele>
        <time>2022-12-31 11:09:13</time>
      </trkpt>
      <trkpt lat="40.17531" lon="-3.75483">
        <ele>586.4</ele>
        <time>2022-12-31 11:09:14</time>
      </trkpt>
      <trkpt lat="40.17537" lon="-3.75494">
        <ele>585.4</ele>
        <time>2022-12-31 11:09:15</time>
      </trkpt>
      <trkpt lat="40.17543" lon="-3.75505">
        <ele>584.6</ele>
        <time>2022-12-31 11:09:16</time>
      </trkpt>
      <trkpt lat="40.17548" lon="-3.75516">
        <ele>583.6</ele>
        <time>2022-12-31 11:09:17</time>
      </trkpt>
      <trkpt lat="40.17554" lon="-3.75527">
        <ele>582.6</ele>
        <time>2022-12-31 11:09:18</time>
      </trkpt>
      <trkpt lat="40.1756" lon="-3.75537">
        <ele>581.4</ele>
        <time>2022-12-31 11:09:19</time>
      </trkpt>
      <trkpt lat="40.17566" lon="-3.75547">
        <ele>580.6</ele>
        <time>2022-12-31 11:09:20</time>
      </trkpt>
      <trkpt lat="40.17574" lon="-3.75555">
        <ele>579.6</ele>
        <time>2022-12-31 11:09:21</time>
      </trkpt>
      <trkpt lat="40.17582" lon="-3.75562">
        <ele>578.6</ele>
        <time>2022-12-31 11:09:22</time>
      </trkpt>
      <trkpt lat="40.17589" lon="-3.75568">
        <ele>577.8</ele>
        <time>2022-12-31 11:09:23</time>
      </trkpt>
      <trkpt lat="40.17597" lon="-3.75574">
        <ele>577.4</ele>
        <time>2022-12-31 11:09:24</time>
      </trkpt>
      <trkpt lat="40.17605" lon="-3.75579">
        <ele>577.4</ele>
        <time>2022-12-31 11:09:25</time>
      </trkpt>
      <trkpt lat="40.17613" lon="-3.75585">
        <ele>577</ele>
        <time>2022-12-31 11:09:26</time>
      </trkpt>
      <trkpt lat="40.17621" lon="-3.75591">
        <ele>576.6</ele>
        <time>2022-12-31 11:09:27</time>
      </trkpt>
      <trkpt lat="40.17628" lon="-3.75597">
        <ele>576.4</ele>
        <time>2022-12-31 11:09:28</time>
      </trkpt>
      <trkpt lat="40.17636" lon="-3.75604">
        <ele>576.2</ele>
        <time>2022-12-31 11:09:29</time>
      </trkpt>
      <trkpt lat="40.17644" lon="-3.7561">
        <ele>575.8</ele>
        <time>2022-12-31 11:09:30</time>
      </trkpt>
      <trkpt lat="40.17651" lon="-3.75615">
        <ele>575.8</ele>
        <time>2022-12-31 11:09:31</time>
      </trkpt>
      <trkpt lat="40.17658" lon="-3.75621">
        <ele>575.8</ele>
        <time>2022-12-31 11:09:32</time>
      </trkpt>
      <trkpt lat="40.17665" lon="-3.75627">
        <ele>575.6</ele>
        <time>2022-12-31 11:09:33</time>
      </trkpt>
      <trkpt lat="40.17672" lon="-3.75633">
        <ele>575.4</ele>
        <time>2022-12-31 11:09:34</time>
      </trkpt>
      <trkpt lat="40.17679" lon="-3.75639">
        <ele>575.4</ele>
        <time>2022-12-31 11:09:35</time>
      </trkpt>
      <trkpt lat="40.17685" lon="-3.75644">
        <ele>575.4</ele>
        <time>2022-12-31 11:09:36</time>
      </trkpt>
      <trkpt lat="40.17692" lon="-3.7565">
        <ele>575.4</ele>
        <time>2022-12-31 11:09:37</time>
      </trkpt>
      <trkpt lat="40.17699" lon="-3.75655">
        <ele>575.4</ele>
        <time>2022-12-31 11:09:38</time>
      </trkpt>
      <trkpt lat="40.17705" lon="-3.7566">
        <ele>575.4</ele>
        <time>2022-12-31 11:09:39</time>
      </trkpt>
      <trkpt lat="40.17711" lon="-3.75666">
        <ele>575.4</ele>
        <time>2022-12-31 11:09:40</time>
      </trkpt>
      <trkpt lat="40.17716" lon="-3.75671">
        <ele>575.4</ele>
        <time>2022-12-31 11:09:41</time>
      </trkpt>
      <trkpt lat="40.17721" lon="-3.75677">
        <ele>575.4</ele>
        <time>2022-12-31 11:09:42</time>
      </trkpt>
      <trkpt lat="40.17726" lon="-3.75684">
        <ele>575.4</ele>
        <time>2022-12-31 11:09:43</time>
      </trkpt>
      <trkpt lat="40.17731" lon="-3.75691">
        <ele>575.6</ele>
        <time>2022-12-31 11:09:44</time>
      </trkpt>
      <trkpt lat="40.17734" lon="-3.75699">
        <ele>575.6</ele>
        <time>2022-12-31 11:09:45</time>
      </trkpt>
      <trkpt lat="40.17738" lon="-3.75707">
        <ele>575.6</ele>
        <time>2022-12-31 11:09:46</time>
      </trkpt>
      <trkpt lat="40.17741" lon="-3.75716">
        <ele>575.8</ele>
        <time>2022-12-31 11:09:47</time>
      </trkpt>
      <trkpt lat="40.17745" lon="-3.75724">
        <ele>576</ele>
        <time>2022-12-31 11:09:48</time>
      </trkpt>
      <trkpt lat="40.17748" lon="-3.75733">
        <ele>576.4</ele>
        <time>2022-12-31 11:09:49</time>
      </trkpt>
      <trkpt lat="40.1775" lon="-3.75742">
        <ele>576.4</ele>
        <time>2022-12-31 11:09:50</time>
      </trkpt>
      <trkpt lat="40.17753" lon="-3.75751">
        <ele>576.6</ele>
        <time>2022-12-31 11:09:51</time>
      </trkpt>
      <trkpt lat="40.17756" lon="-3.75759">
        <ele>576.8</ele>
        <time>2022-12-31 11:09:52</time>
      </trkpt>
      <trkpt lat="40.17758" lon="-3.75768">
        <ele>576.6</ele>
        <time>2022-12-31 11:09:53</time>
      </trkpt>
      <trkpt lat="40.1776" lon="-3.75776">
        <ele>577</ele>
        <time>2022-12-31 11:09:54</time>
      </trkpt>
      <trkpt lat="40.17762" lon="-3.75785">
        <ele>577</ele>
        <time>2022-12-31 11:09:55</time>
      </trkpt>
      <trkpt lat="40.17764" lon="-3.75794">
        <ele>577.2</ele>
        <time>2022-12-31 11:09:56</time>
      </trkpt>
      <trkpt lat="40.17766" lon="-3.75802">
        <ele>577.2</ele>
        <time>2022-12-31 11:09:57</time>
      </trkpt>
      <trkpt lat="40.17768" lon="-3.7581">
        <ele>577.4</ele>
        <time>2022-12-31 11:09:58</time>
      </trkpt>
      <trkpt lat="40.1777" lon="-3.75818">
        <ele>577.4</ele>
        <time>2022-12-31 11:09:59</time>
      </trkpt>
      <trkpt lat="40.17772" lon="-3.75826">
        <ele>577.4</ele>
        <time>2022-12-31 11:10:00</time>
      </trkpt>
      <trkpt lat="40.17773" lon="-3.75834">
        <ele>577.8</ele>
        <time>2022-12-31 11:10:01</time>
      </trkpt>
      <trkpt lat="40.17774" lon="-3.75843">
        <ele>577.8</ele>
        <time>2022-12-31 11:10:02</time>
      </trkpt>
      <trkpt lat="40.17775" lon="-3.75851">
        <ele>578</ele>
        <time>2022-12-31 11:10:03</time>
      </trkpt>
      <trkpt lat="40.17777" lon="-3.7586">
        <ele>578</ele>
        <time>2022-12-31 11:10:04</time>
      </trkpt>
      <trkpt lat="40.17778" lon="-3.75868">
        <ele>578</ele>
        <time>2022-12-31 11:10:05</time>
      </trkpt>
      <trkpt lat="40.1778" lon="-3.75876">
        <ele>578</ele>
        <time>2022-12-31 11:10:06</time>
      </trkpt>
      <trkpt lat="40.17781" lon="-3.75884">
        <ele>578</ele>
        <time>2022-12-31 11:10:07</time>
      </trkpt>
      <trkpt lat="40.17783" lon="-3.75892">
        <ele>578</ele>
        <time>2022-12-31 11:10:08</time>
      </trkpt>
      <trkpt lat="40.17785" lon="-3.75901">
        <ele>578</ele>
        <time>2022-12-31 11:10:09</time>
      </trkpt>
      <trkpt lat="40.17786" lon="-3.75909">
        <ele>578</ele>
        <time>2022-12-31 11:10:10</time>
      </trkpt>
      <trkpt lat="40.17788" lon="-3.75917">
        <ele>578.2</ele>
        <time>2022-12-31 11:10:11</time>
      </trkpt>
      <trkpt lat="40.1779" lon="-3.75925">
        <ele>578.2</ele>
        <time>2022-12-31 11:10:12</time>
      </trkpt>
      <trkpt lat="40.17791" lon="-3.75934">
        <ele>578.4</ele>
        <time>2022-12-31 11:10:13</time>
      </trkpt>
      <trkpt lat="40.17793" lon="-3.75942">
        <ele>578.2</ele>
        <time>2022-12-31 11:10:14</time>
      </trkpt>
      <trkpt lat="40.17796" lon="-3.7595">
        <ele>578.4</ele>
        <time>2022-12-31 11:10:15</time>
      </trkpt>
      <trkpt lat="40.17799" lon="-3.75958">
        <ele>578.4</ele>
        <time>2022-12-31 11:10:16</time>
      </trkpt>
      <trkpt lat="40.17802" lon="-3.75965">
        <ele>578.6</ele>
        <time>2022-12-31 11:10:17</time>
      </trkpt>
      <trkpt lat="40.17805" lon="-3.75973">
        <ele>578.4</ele>
        <time>2022-12-31 11:10:18</time>
      </trkpt>
      <trkpt lat="40.17809" lon="-3.7598">
        <ele>578.6</ele>
        <time>2022-12-31 11:10:19</time>
      </trkpt>
      <trkpt lat="40.17812" lon="-3.75988">
        <ele>578.4</ele>
        <time>2022-12-31 11:10:20</time>
      </trkpt>
      <trkpt lat="40.17815" lon="-3.75996">
        <ele>578.6</ele>
        <time>2022-12-31 11:10:21</time>
      </trkpt>
      <trkpt lat="40.17818" lon="-3.76003">
        <ele>578.6</ele>
        <time>2022-12-31 11:10:22</time>
      </trkpt>
      <trkpt lat="40.1782" lon="-3.76011">
        <ele>578.6</ele>
        <time>2022-12-31 11:10:23</time>
      </trkpt>
      <trkpt lat="40.17824" lon="-3.76019">
        <ele>578.6</ele>
        <time>2022-12-31 11:10:24</time>
      </trkpt>
      <trkpt lat="40.17827" lon="-3.76027">
        <ele>578.6</ele>
        <time>2022-12-31 11:10:25</time>
      </trkpt>
      <trkpt lat="40.1783" lon="-3.76035">
        <ele>578.6</ele>
        <time>2022-12-31 11:10:26</time>
      </trkpt>
      <trkpt lat="40.17833" lon="-3.76042">
        <ele>578.8</ele>
        <time>2022-12-31 11:10:27</time>
      </trkpt>
      <trkpt lat="40.17836" lon="-3.7605">
        <ele>578.8</ele>
        <time>2022-12-31 11:10:28</time>
      </trkpt>
      <trkpt lat="40.17839" lon="-3.76058">
        <ele>579</ele>
        <time>2022-12-31 11:10:29</time>
      </trkpt>
      <trkpt lat="40.17842" lon="-3.76065">
        <ele>579</ele>
        <time>2022-12-31 11:10:30</time>
      </trkpt>
      <trkpt lat="40.17845" lon="-3.76072">
        <ele>578.8</ele>
        <time>2022-12-31 11:10:31</time>
      </trkpt>
      <trkpt lat="40.17849" lon="-3.76079">
        <ele>579</ele>
        <time>2022-12-31 11:10:32</time>
      </trkpt>
      <trkpt lat="40.17852" lon="-3.76087">
        <ele>579</ele>
        <time>2022-12-31 11:10:33</time>
      </trkpt>
      <trkpt lat="40.17855" lon="-3.76095">
        <ele>579</ele>
        <time>2022-12-31 11:10:34</time>
      </trkpt>
      <trkpt lat="40.17858" lon="-3.76102">
        <ele>579.2</ele>
        <time>2022-12-31 11:10:35</time>
      </trkpt>
      <trkpt lat="40.1786" lon="-3.7611">
        <ele>579.2</ele>
        <time>2022-12-31 11:10:36</time>
      </trkpt>
      <trkpt lat="40.17863" lon="-3.76118">
        <ele>579.2</ele>
        <time>2022-12-31 11:10:37</time>
      </trkpt>
      <trkpt lat="40.17865" lon="-3.76127">
        <ele>579.2</ele>
        <time>2022-12-31 11:10:38</time>
      </trkpt>
      <trkpt lat="40.17867" lon="-3.76135">
        <ele>579.4</ele>
        <time>2022-12-31 11:10:39</time>
      </trkpt>
      <trkpt lat="40.17868" lon="-3.76143">
        <ele>579.2</ele>
        <time>2022-12-31 11:10:40</time>
      </trkpt>
      <trkpt lat="40.17869" lon="-3.76151">
        <ele>579.4</ele>
        <time>2022-12-31 11:10:41</time>
      </trkpt>
      <trkpt lat="40.17871" lon="-3.76159">
        <ele>579.4</ele>
        <time>2022-12-31 11:10:42</time>
      </trkpt>
      <trkpt lat="40.17872" lon="-3.76168">
        <ele>579.6</ele>
        <time>2022-12-31 11:10:43</time>
      </trkpt>
      <trkpt lat="40.17874" lon="-3.76176">
        <ele>579.4</ele>
        <time>2022-12-31 11:10:44</time>
      </trkpt>
      <trkpt lat="40.17875" lon="-3.76184">
        <ele>579.6</ele>
        <time>2022-12-31 11:10:45</time>
      </trkpt>
      <trkpt lat="40.17877" lon="-3.76192">
        <ele>579.4</ele>
        <time>2022-12-31 11:10:46</time>
      </trkpt>
      <trkpt lat="40.17878" lon="-3.76201">
        <ele>579.6</ele>
        <time>2022-12-31 11:10:47</time>
      </trkpt>
      <trkpt lat="40.1788" lon="-3.76209">
        <ele>579.6</ele>
        <time>2022-12-31 11:10:48</time>
      </trkpt>
      <trkpt lat="40.17881" lon="-3.76216">
        <ele>579.6</ele>
        <time>2022-12-31 11:10:49</time>
      </trkpt>
      <trkpt lat="40.17883" lon="-3.76224">
        <ele>579.4</ele>
        <time>2022-12-31 11:10:50</time>
      </trkpt>
      <trkpt lat="40.17884" lon="-3.76233">
        <ele>579.6</ele>
        <time>2022-12-31 11:10:51</time>
      </trkpt>
      <trkpt lat="40.17886" lon="-3.76241">
        <ele>579.6</ele>
        <time>2022-12-31 11:10:52</time>
      </trkpt>
      <trkpt lat="40.17888" lon="-3.76249">
        <ele>579.6</ele>
        <time>2022-12-31 11:10:53</time>
      </trkpt>
      <trkpt lat="40.17889" lon="-3.76257">
        <ele>579.8</ele>
        <time>2022-12-31 11:10:54</time>
      </trkpt>
      <trkpt lat="40.17891" lon="-3.76266">
        <ele>579.8</ele>
        <time>2022-12-31 11:10:55</time>
      </trkpt>
      <trkpt lat="40.17892" lon="-3.76274">
        <ele>579.8</ele>
        <time>2022-12-31 11:10:56</time>
      </trkpt>
      <trkpt lat="40.17894" lon="-3.76282">
        <ele>579.8</ele>
        <time>2022-12-31 11:10:57</time>
      </trkpt>
      <trkpt lat="40.17895" lon="-3.76291">
        <ele>579.8</ele>
        <time>2022-12-31 11:10:58</time>
      </trkpt>
      <trkpt lat="40.17897" lon="-3.76299">
        <ele>580</ele>
        <time>2022-12-31 11:10:59</time>
      </trkpt>
      <trkpt lat="40.17899" lon="-3.76307">
        <ele>580</ele>
        <time>2022-12-31 11:11:00</time>
      </trkpt>
      <trkpt lat="40.179" lon="-3.76315">
        <ele>579.8</ele>
        <time>2022-12-31 11:11:01</time>
      </trkpt>
      <trkpt lat="40.17902" lon="-3.76323">
        <ele>579.8</ele>
        <time>2022-12-31 11:11:02</time>
      </trkpt>
      <trkpt lat="40.17904" lon="-3.7633">
        <ele>579.8</ele>
        <time>2022-12-31 11:11:03</time>
      </trkpt>
      <trkpt lat="40.17907" lon="-3.76338">
        <ele>580</ele>
        <time>2022-12-31 11:11:04</time>
      </trkpt>
      <trkpt lat="40.1791" lon="-3.76345">
        <ele>579.8</ele>
        <time>2022-12-31 11:11:05</time>
      </trkpt>
      <trkpt lat="40.17913" lon="-3.76352">
        <ele>579.8</ele>
        <time>2022-12-31 11:11:06</time>
      </trkpt>
      <trkpt lat="40.17916" lon="-3.7636">
        <ele>580</ele>
        <time>2022-12-31 11:11:07</time>
      </trkpt>
      <trkpt lat="40.17919" lon="-3.76367">
        <ele>580</ele>
        <time>2022-12-31 11:11:08</time>
      </trkpt>
      <trkpt lat="40.17922" lon="-3.76374">
        <ele>579.8</ele>
        <time>2022-12-31 11:11:09</time>
      </trkpt>
      <trkpt lat="40.17925" lon="-3.76382">
        <ele>580</ele>
        <time>2022-12-31 11:11:10</time>
      </trkpt>
      <trkpt lat="40.17929" lon="-3.76389">
        <ele>580</ele>
        <time>2022-12-31 11:11:11</time>
      </trkpt>
      <trkpt lat="40.17932" lon="-3.76396">
        <ele>579.8</ele>
        <time>2022-12-31 11:11:12</time>
      </trkpt>
      <trkpt lat="40.17935" lon="-3.76404">
        <ele>580</ele>
        <time>2022-12-31 11:11:13</time>
      </trkpt>
      <trkpt lat="40.17939" lon="-3.76411">
        <ele>580</ele>
        <time>2022-12-31 11:11:14</time>
      </trkpt>
      <trkpt lat="40.17942" lon="-3.76418">
        <ele>580</ele>
        <time>2022-12-31 11:11:15</time>
      </trkpt>
      <trkpt lat="40.17945" lon="-3.76425">
        <ele>580</ele>
        <time>2022-12-31 11:11:16</time>
      </trkpt>
      <trkpt lat="40.17948" lon="-3.76433">
        <ele>580</ele>
        <time>2022-12-31 11:11:17</time>
      </trkpt>
      <trkpt lat="40.17951" lon="-3.7644">
        <ele>579.8</ele>
        <time>2022-12-31 11:11:18</time>
      </trkpt>
      <trkpt lat="40.17953" lon="-3.76448">
        <ele>580</ele>
        <time>2022-12-31 11:11:19</time>
      </trkpt>
      <trkpt lat="40.17955" lon="-3.76456">
        <ele>580</ele>
        <time>2022-12-31 11:11:20</time>
      </trkpt>
      <trkpt lat="40.17957" lon="-3.76464">
        <ele>580</ele>
        <time>2022-12-31 11:11:21</time>
      </trkpt>
      <trkpt lat="40.17959" lon="-3.76472">
        <ele>580</ele>
        <time>2022-12-31 11:11:22</time>
      </trkpt>
      <trkpt lat="40.17961" lon="-3.7648">
        <ele>580.2</ele>
        <time>2022-12-31 11:11:23</time>
      </trkpt>
      <trkpt lat="40.17963" lon="-3.76488">
        <ele>580</ele>
        <time>2022-12-31 11:11:24</time>
      </trkpt>
      <trkpt lat="40.17965" lon="-3.76496">
        <ele>580</ele>
        <time>2022-12-31 11:11:25</time>
      </trkpt>
      <trkpt lat="40.17966" lon="-3.76504">
        <ele>580.2</ele>
        <time>2022-12-31 11:11:26</time>
      </trkpt>
      <trkpt lat="40.17968" lon="-3.76512">
        <ele>580.4</ele>
        <time>2022-12-31 11:11:27</time>
      </trkpt>
      <trkpt lat="40.17969" lon="-3.7652">
        <ele>580.4</ele>
        <time>2022-12-31 11:11:28</time>
      </trkpt>
      <trkpt lat="40.1797" lon="-3.76528">
        <ele>580.4</ele>
        <time>2022-12-31 11:11:29</time>
      </trkpt>
      <trkpt lat="40.17972" lon="-3.76537">
        <ele>580.6</ele>
        <time>2022-12-31 11:11:30</time>
      </trkpt>
      <trkpt lat="40.17973" lon="-3.76545">
        <ele>580.4</ele>
        <time>2022-12-31 11:11:31</time>
      </trkpt>
      <trkpt lat="40.17975" lon="-3.76553">
        <ele>580.6</ele>
        <time>2022-12-31 11:11:32</time>
      </trkpt>
      <trkpt lat="40.17976" lon="-3.76562">
        <ele>580.6</ele>
        <time>2022-12-31 11:11:33</time>
      </trkpt>
      <trkpt lat="40.17978" lon="-3.7657">
        <ele>580.8</ele>
        <time>2022-12-31 11:11:34</time>
      </trkpt>
      <trkpt lat="40.1798" lon="-3.76579">
        <ele>580.6</ele>
        <time>2022-12-31 11:11:35</time>
      </trkpt>
      <trkpt lat="40.17982" lon="-3.76587">
        <ele>580.6</ele>
        <time>2022-12-31 11:11:36</time>
      </trkpt>
      <trkpt lat="40.17984" lon="-3.76595">
        <ele>580.6</ele>
        <time>2022-12-31 11:11:37</time>
      </trkpt>
      <trkpt lat="40.17986" lon="-3.76603">
        <ele>580.8</ele>
        <time>2022-12-31 11:11:38</time>
      </trkpt>
      <trkpt lat="40.17988" lon="-3.76611">
        <ele>580.8</ele>
        <time>2022-12-31 11:11:39</time>
      </trkpt>
      <trkpt lat="40.1799" lon="-3.76619">
        <ele>580.8</ele>
        <time>2022-12-31 11:11:40</time>
      </trkpt>
      <trkpt lat="40.17993" lon="-3.76627">
        <ele>581</ele>
        <time>2022-12-31 11:11:41</time>
      </trkpt>
      <trkpt lat="40.17995" lon="-3.76635">
        <ele>581</ele>
        <time>2022-12-31 11:11:42</time>
      </trkpt>
      <trkpt lat="40.17999" lon="-3.76643">
        <ele>580.8</ele>
        <time>2022-12-31 11:11:43</time>
      </trkpt>
      <trkpt lat="40.18002" lon="-3.7665">
        <ele>580.8</ele>
        <time>2022-12-31 11:11:44</time>
      </trkpt>
      <trkpt lat="40.18005" lon="-3.76658">
        <ele>580.8</ele>
        <time>2022-12-31 11:11:45</time>
      </trkpt>
      <trkpt lat="40.18009" lon="-3.76665">
        <ele>580.8</ele>
        <time>2022-12-31 11:11:46</time>
      </trkpt>
      <trkpt lat="40.18012" lon="-3.76673">
        <ele>580.8</ele>
        <time>2022-12-31 11:11:47</time>
      </trkpt>
      <trkpt lat="40.18015" lon="-3.7668">
        <ele>580.8</ele>
        <time>2022-12-31 11:11:48</time>
      </trkpt>
      <trkpt lat="40.18018" lon="-3.76687">
        <ele>580.8</ele>
        <time>2022-12-31 11:11:49</time>
      </trkpt>
      <trkpt lat="40.18021" lon="-3.76694">
        <ele>581</ele>
        <time>2022-12-31 11:11:50</time>
      </trkpt>
      <trkpt lat="40.18024" lon="-3.76701">
        <ele>581</ele>
        <time>2022-12-31 11:11:51</time>
      </trkpt>
      <trkpt lat="40.18027" lon="-3.76708">
        <ele>581</ele>
        <time>2022-12-31 11:11:52</time>
      </trkpt>
      <trkpt lat="40.18031" lon="-3.76716">
        <ele>581</ele>
        <time>2022-12-31 11:11:53</time>
      </trkpt>
      <trkpt lat="40.18034" lon="-3.76723">
        <ele>581</ele>
        <time>2022-12-31 11:11:54</time>
      </trkpt>
      <trkpt lat="40.18038" lon="-3.76729">
        <ele>581</ele>
        <time>2022-12-31 11:11:55</time>
      </trkpt>
      <trkpt lat="40.18041" lon="-3.76736">
        <ele>581.2</ele>
        <time>2022-12-31 11:11:56</time>
      </trkpt>
      <trkpt lat="40.18044" lon="-3.76743">
        <ele>581</ele>
        <time>2022-12-31 11:11:57</time>
      </trkpt>
      <trkpt lat="40.18047" lon="-3.7675">
        <ele>581</ele>
        <time>2022-12-31 11:11:58</time>
      </trkpt>
      <trkpt lat="40.18051" lon="-3.76757">
        <ele>581.2</ele>
        <time>2022-12-31 11:11:59</time>
      </trkpt>
      <trkpt lat="40.18054" lon="-3.76763">
        <ele>581.2</ele>
        <time>2022-12-31 11:12:00</time>
      </trkpt>
      <trkpt lat="40.18057" lon="-3.7677">
        <ele>581.2</ele>
        <time>2022-12-31 11:12:01</time>
      </trkpt>
      <trkpt lat="40.18061" lon="-3.76776">
        <ele>581.2</ele>
        <time>2022-12-31 11:12:02</time>
      </trkpt>
      <trkpt lat="40.18064" lon="-3.76783">
        <ele>581.2</ele>
        <time>2022-12-31 11:12:03</time>
      </trkpt>
      <trkpt lat="40.18068" lon="-3.7679">
        <ele>581.4</ele>
        <time>2022-12-31 11:12:04</time>
      </trkpt>
      <trkpt lat="40.18071" lon="-3.76797">
        <ele>581.4</ele>
        <time>2022-12-31 11:12:05</time>
      </trkpt>
      <trkpt lat="40.18074" lon="-3.76804">
        <ele>581.6</ele>
        <time>2022-12-31 11:12:06</time>
      </trkpt>
      <trkpt lat="40.18077" lon="-3.76811">
        <ele>581.8</ele>
        <time>2022-12-31 11:12:07</time>
      </trkpt>
      <trkpt lat="40.1808" lon="-3.76818">
        <ele>581.8</ele>
        <time>2022-12-31 11:12:08</time>
      </trkpt>
      <trkpt lat="40.18083" lon="-3.76825">
        <ele>581.8</ele>
        <time>2022-12-31 11:12:09</time>
      </trkpt>
      <trkpt lat="40.18085" lon="-3.76833">
        <ele>582</ele>
        <time>2022-12-31 11:12:10</time>
      </trkpt>
      <trkpt lat="40.18087" lon="-3.7684">
        <ele>582</ele>
        <time>2022-12-31 11:12:11</time>
      </trkpt>
      <trkpt lat="40.18089" lon="-3.76848">
        <ele>582</ele>
        <time>2022-12-31 11:12:12</time>
      </trkpt>
      <trkpt lat="40.18092" lon="-3.76855">
        <ele>582</ele>
        <time>2022-12-31 11:12:13</time>
      </trkpt>
      <trkpt lat="40.18094" lon="-3.76862">
        <ele>582</ele>
        <time>2022-12-31 11:12:14</time>
      </trkpt>
      <trkpt lat="40.18096" lon="-3.7687">
        <ele>582.2</ele>
        <time>2022-12-31 11:12:15</time>
      </trkpt>
      <trkpt lat="40.18099" lon="-3.76877">
        <ele>582</ele>
        <time>2022-12-31 11:12:16</time>
      </trkpt>
      <trkpt lat="40.18101" lon="-3.76885">
        <ele>582.2</ele>
        <time>2022-12-31 11:12:17</time>
      </trkpt>
      <trkpt lat="40.18103" lon="-3.76892">
        <ele>582.2</ele>
        <time>2022-12-31 11:12:18</time>
      </trkpt>
      <trkpt lat="40.18105" lon="-3.76899">
        <ele>582.4</ele>
        <time>2022-12-31 11:12:19</time>
      </trkpt>
      <trkpt lat="40.18108" lon="-3.76907">
        <ele>582.4</ele>
        <time>2022-12-31 11:12:20</time>
      </trkpt>
      <trkpt lat="40.1811" lon="-3.76914">
        <ele>582.6</ele>
        <time>2022-12-31 11:12:21</time>
      </trkpt>
      <trkpt lat="40.18113" lon="-3.76922">
        <ele>582.6</ele>
        <time>2022-12-31 11:12:22</time>
      </trkpt>
      <trkpt lat="40.18115" lon="-3.76929">
        <ele>582.8</ele>
        <time>2022-12-31 11:12:23</time>
      </trkpt>
      <trkpt lat="40.18117" lon="-3.76937">
        <ele>583.2</ele>
        <time>2022-12-31 11:12:24</time>
      </trkpt>
      <trkpt lat="40.18119" lon="-3.76944">
        <ele>583.2</ele>
        <time>2022-12-31 11:12:25</time>
      </trkpt>
      <trkpt lat="40.18122" lon="-3.76952">
        <ele>583.2</ele>
        <time>2022-12-31 11:12:26</time>
      </trkpt>
      <trkpt lat="40.18125" lon="-3.76959">
        <ele>583.2</ele>
        <time>2022-12-31 11:12:27</time>
      </trkpt>
      <trkpt lat="40.18127" lon="-3.76966">
        <ele>583.2</ele>
        <time>2022-12-31 11:12:28</time>
      </trkpt>
      <trkpt lat="40.1813" lon="-3.76973">
        <ele>583.2</ele>
        <time>2022-12-31 11:12:29</time>
      </trkpt>
      <trkpt lat="40.18133" lon="-3.76981">
        <ele>583.2</ele>
        <time>2022-12-31 11:12:30</time>
      </trkpt>
      <trkpt lat="40.18137" lon="-3.76988">
        <ele>583.2</ele>
        <time>2022-12-31 11:12:31</time>
      </trkpt>
      <trkpt lat="40.18141" lon="-3.76995">
        <ele>583.4</ele>
        <time>2022-12-31 11:12:32</time>
      </trkpt>
      <trkpt lat="40.18145" lon="-3.77001">
        <ele>583.6</ele>
        <time>2022-12-31 11:12:33</time>
      </trkpt>
      <trkpt lat="40.18149" lon="-3.77007">
        <ele>583.6</ele>
        <time>2022-12-31 11:12:34</time>
      </trkpt>
      <trkpt lat="40.18154" lon="-3.77012">
        <ele>583.8</ele>
        <time>2022-12-31 11:12:35</time>
      </trkpt>
      <trkpt lat="40.18158" lon="-3.77018">
        <ele>583.8</ele>
        <time>2022-12-31 11:12:36</time>
      </trkpt>
      <trkpt lat="40.18162" lon="-3.77023">
        <ele>583.8</ele>
        <time>2022-12-31 11:12:37</time>
      </trkpt>
      <trkpt lat="40.18167" lon="-3.77028">
        <ele>583.8</ele>
        <time>2022-12-31 11:12:38</time>
      </trkpt>
      <trkpt lat="40.18171" lon="-3.77033">
        <ele>584</ele>
        <time>2022-12-31 11:12:39</time>
      </trkpt>
      <trkpt lat="40.18176" lon="-3.77039">
        <ele>584</ele>
        <time>2022-12-31 11:12:40</time>
      </trkpt>
      <trkpt lat="40.18181" lon="-3.77044">
        <ele>584.2</ele>
        <time>2022-12-31 11:12:41</time>
      </trkpt>
      <trkpt lat="40.18185" lon="-3.77049">
        <ele>584</ele>
        <time>2022-12-31 11:12:42</time>
      </trkpt>
      <trkpt lat="40.1819" lon="-3.77054">
        <ele>584.2</ele>
        <time>2022-12-31 11:12:43</time>
      </trkpt>
      <trkpt lat="40.18194" lon="-3.77059">
        <ele>584.2</ele>
        <time>2022-12-31 11:12:44</time>
      </trkpt>
      <trkpt lat="40.18199" lon="-3.77064">
        <ele>584.4</ele>
        <time>2022-12-31 11:12:45</time>
      </trkpt>
      <trkpt lat="40.18203" lon="-3.77069">
        <ele>584.4</ele>
        <time>2022-12-31 11:12:46</time>
      </trkpt>
      <trkpt lat="40.18207" lon="-3.77075">
        <ele>584.4</ele>
        <time>2022-12-31 11:12:47</time>
      </trkpt>
      <trkpt lat="40.18211" lon="-3.7708">
        <ele>584.4</ele>
        <time>2022-12-31 11:12:48</time>
      </trkpt>
      <trkpt lat="40.18215" lon="-3.77087">
        <ele>584.4</ele>
        <time>2022-12-31 11:12:49</time>
      </trkpt>
      <trkpt lat="40.18218" lon="-3.77093">
        <ele>584.8</ele>
        <time>2022-12-31 11:12:50</time>
      </trkpt>
      <trkpt lat="40.18222" lon="-3.771">
        <ele>584.8</ele>
        <time>2022-12-31 11:12:51</time>
      </trkpt>
      <trkpt lat="40.18226" lon="-3.77106">
        <ele>584.8</ele>
        <time>2022-12-31 11:12:52</time>
      </trkpt>
      <trkpt lat="40.1823" lon="-3.77112">
        <ele>585</ele>
        <time>2022-12-31 11:12:53</time>
      </trkpt>
      <trkpt lat="40.18235" lon="-3.77118">
        <ele>584.8</ele>
        <time>2022-12-31 11:12:54</time>
      </trkpt>
      <trkpt lat="40.1824" lon="-3.77123">
        <ele>585</ele>
        <time>2022-12-31 11:12:55</time>
      </trkpt>
      <trkpt lat="40.18245" lon="-3.77128">
        <ele>585</ele>
        <time>2022-12-31 11:12:56</time>
      </trkpt>
      <trkpt lat="40.18251" lon="-3.77132">
        <ele>585</ele>
        <time>2022-12-31 11:12:57</time>
      </trkpt>
      <trkpt lat="40.18256" lon="-3.77137">
        <ele>585</ele>
        <time>2022-12-31 11:12:58</time>
      </trkpt>
      <trkpt lat="40.18261" lon="-3.77141">
        <ele>585</ele>
        <time>2022-12-31 11:12:59</time>
      </trkpt>
      <trkpt lat="40.18266" lon="-3.77145">
        <ele>585</ele>
        <time>2022-12-31 11:13:00</time>
      </trkpt>
      <trkpt lat="40.18271" lon="-3.7715">
        <ele>585</ele>
        <time>2022-12-31 11:13:01</time>
      </trkpt>
      <trkpt lat="40.18276" lon="-3.77154">
        <ele>584.8</ele>
        <time>2022-12-31 11:13:02</time>
      </trkpt>
      <trkpt lat="40.18281" lon="-3.77159">
        <ele>584.8</ele>
        <time>2022-12-31 11:13:03</time>
      </trkpt>
      <trkpt lat="40.18285" lon="-3.77163">
        <ele>584.6</ele>
        <time>2022-12-31 11:13:04</time>
      </trkpt>
      <trkpt lat="40.1829" lon="-3.77168">
        <ele>584.6</ele>
        <time>2022-12-31 11:13:05</time>
      </trkpt>
      <trkpt lat="40.18295" lon="-3.77173">
        <ele>584.6</ele>
        <time>2022-12-31 11:13:06</time>
      </trkpt>
      <trkpt lat="40.183" lon="-3.77177">
        <ele>584.6</ele>
        <time>2022-12-31 11:13:07</time>
      </trkpt>
      <trkpt lat="40.18304" lon="-3.77182">
        <ele>584.6</ele>
        <time>2022-12-31 11:13:08</time>
      </trkpt>
      <trkpt lat="40.18309" lon="-3.77187">
        <ele>584.6</ele>
        <time>2022-12-31 11:13:09</time>
      </trkpt>
      <trkpt lat="40.18314" lon="-3.77192">
        <ele>584.8</ele>
        <time>2022-12-31 11:13:10</time>
      </trkpt>
      <trkpt lat="40.18319" lon="-3.77196">
        <ele>584.6</ele>
        <time>2022-12-31 11:13:11</time>
      </trkpt>
      <trkpt lat="40.18324" lon="-3.772">
        <ele>584.6</ele>
        <time>2022-12-31 11:13:12</time>
      </trkpt>
      <trkpt lat="40.18329" lon="-3.77204">
        <ele>584.6</ele>
        <time>2022-12-31 11:13:13</time>
      </trkpt>
      <trkpt lat="40.18334" lon="-3.77208">
        <ele>584.6</ele>
        <time>2022-12-31 11:13:14</time>
      </trkpt>
      <trkpt lat="40.18339" lon="-3.77212">
        <ele>584.8</ele>
        <time>2022-12-31 11:13:15</time>
      </trkpt>
      <trkpt lat="40.18344" lon="-3.77215">
        <ele>585</ele>
        <time>2022-12-31 11:13:16</time>
      </trkpt>
      <trkpt lat="40.18349" lon="-3.7722">
        <ele>585</ele>
        <time>2022-12-31 11:13:17</time>
      </trkpt>
      <trkpt lat="40.18353" lon="-3.77225">
        <ele>585</ele>
        <time>2022-12-31 11:13:18</time>
      </trkpt>
      <trkpt lat="40.18357" lon="-3.7723">
        <ele>585.2</ele>
        <time>2022-12-31 11:13:19</time>
      </trkpt>
      <trkpt lat="40.1836" lon="-3.77236">
        <ele>585.2</ele>
        <time>2022-12-31 11:13:20</time>
      </trkpt>
      <trkpt lat="40.18361" lon="-3.77243">
        <ele>585.4</ele>
        <time>2022-12-31 11:13:21</time>
      </trkpt>
      <trkpt lat="40.18362" lon="-3.77252">
        <ele>585.4</ele>
        <time>2022-12-31 11:13:22</time>
      </trkpt>
      <trkpt lat="40.18362" lon="-3.7726">
        <ele>585.2</ele>
        <time>2022-12-31 11:13:23</time>
      </trkpt>
      <trkpt lat="40.18363" lon="-3.77267">
        <ele>585.4</ele>
        <time>2022-12-31 11:13:24</time>
      </trkpt>
      <trkpt lat="40.18364" lon="-3.77274">
        <ele>585.4</ele>
        <time>2022-12-31 11:13:25</time>
      </trkpt>
      <trkpt lat="40.18366" lon="-3.77281">
        <ele>585.4</ele>
        <time>2022-12-31 11:13:26</time>
      </trkpt>
      <trkpt lat="40.18368" lon="-3.77288">
        <ele>585.4</ele>
        <time>2022-12-31 11:13:27</time>
      </trkpt>
      <trkpt lat="40.18369" lon="-3.77294">
        <ele>585.4</ele>
        <time>2022-12-31 11:13:28</time>
      </trkpt>
      <trkpt lat="40.18371" lon="-3.77301">
        <ele>585.4</ele>
        <time>2022-12-31 11:13:29</time>
      </trkpt>
      <trkpt lat="40.18372" lon="-3.77308">
        <ele>585.4</ele>
        <time>2022-12-31 11:13:30</time>
      </trkpt>
      <trkpt lat="40.18374" lon="-3.77315">
        <ele>585.6</ele>
        <time>2022-12-31 11:13:31</time>
      </trkpt>
      <trkpt lat="40.18376" lon="-3.77323">
        <ele>585.6</ele>
        <time>2022-12-31 11:13:32</time>
      </trkpt>
      <trkpt lat="40.18378" lon="-3.7733">
        <ele>585.6</ele>
        <time>2022-12-31 11:13:33</time>
      </trkpt>
      <trkpt lat="40.18379" lon="-3.77337">
        <ele>585.6</ele>
        <time>2022-12-31 11:13:34</time>
      </trkpt>
      <trkpt lat="40.18381" lon="-3.77344">
        <ele>585.8</ele>
        <time>2022-12-31 11:13:35</time>
      </trkpt>
      <trkpt lat="40.18383" lon="-3.77351">
        <ele>585.8</ele>
        <time>2022-12-31 11:13:36</time>
      </trkpt>
      <trkpt lat="40.18385" lon="-3.77357">
        <ele>585.6</ele>
        <time>2022-12-31 11:13:37</time>
      </trkpt>
      <trkpt lat="40.18387" lon="-3.77364">
        <ele>585.6</ele>
        <time>2022-12-31 11:13:38</time>
      </trkpt>
      <trkpt lat="40.1839" lon="-3.77371">
        <ele>585.8</ele>
        <time>2022-12-31 11:13:39</time>
      </trkpt>
      <trkpt lat="40.18392" lon="-3.77378">
        <ele>585.6</ele>
        <time>2022-12-31 11:13:40</time>
      </trkpt>
      <trkpt lat="40.18395" lon="-3.77385">
        <ele>585.8</ele>
        <time>2022-12-31 11:13:41</time>
      </trkpt>
      <trkpt lat="40.18397" lon="-3.77391">
        <ele>585.8</ele>
        <time>2022-12-31 11:13:42</time>
      </trkpt>
      <trkpt lat="40.18399" lon="-3.77398">
        <ele>585.8</ele>
        <time>2022-12-31 11:13:43</time>
      </trkpt>
      <trkpt lat="40.18402" lon="-3.77404">
        <ele>585.8</ele>
        <time>2022-12-31 11:13:44</time>
      </trkpt>
      <trkpt lat="40.18405" lon="-3.77411">
        <ele>585.8</ele>
        <time>2022-12-31 11:13:45</time>
      </trkpt>
      <trkpt lat="40.18408" lon="-3.77417">
        <ele>586</ele>
        <time>2022-12-31 11:13:46</time>
      </trkpt>
      <trkpt lat="40.18411" lon="-3.77423">
        <ele>586</ele>
        <time>2022-12-31 11:13:47</time>
      </trkpt>
      <trkpt lat="40.18416" lon="-3.77428">
        <ele>586</ele>
        <time>2022-12-31 11:13:48</time>
      </trkpt>
      <trkpt lat="40.1842" lon="-3.77433">
        <ele>586</ele>
        <time>2022-12-31 11:13:49</time>
      </trkpt>
      <trkpt lat="40.18424" lon="-3.77437">
        <ele>586.2</ele>
        <time>2022-12-31 11:13:50</time>
      </trkpt>
      <trkpt lat="40.18428" lon="-3.77442">
        <ele>586.2</ele>
        <time>2022-12-31 11:13:51</time>
      </trkpt>
      <trkpt lat="40.18432" lon="-3.77447">
        <ele>586</ele>
        <time>2022-12-31 11:13:52</time>
      </trkpt>
      <trkpt lat="40.18436" lon="-3.77451">
        <ele>586</ele>
        <time>2022-12-31 11:13:53</time>
      </trkpt>
      <trkpt lat="40.1844" lon="-3.77456">
        <ele>586.2</ele>
        <time>2022-12-31 11:13:54</time>
      </trkpt>
      <trkpt lat="40.18444" lon="-3.77461">
        <ele>586.2</ele>
        <time>2022-12-31 11:13:55</time>
      </trkpt>
      <trkpt lat="40.18448" lon="-3.77467">
        <ele>586.2</ele>
        <time>2022-12-31 11:13:56</time>
      </trkpt>
      <trkpt lat="40.18451" lon="-3.77473">
        <ele>586.2</ele>
        <time>2022-12-31 11:13:57</time>
      </trkpt>
      <trkpt lat="40.18455" lon="-3.77478">
        <ele>586.4</ele>
        <time>2022-12-31 11:13:58</time>
      </trkpt>
      <trkpt lat="40.18458" lon="-3.77484">
        <ele>586.4</ele>
        <time>2022-12-31 11:13:59</time>
      </trkpt>
      <trkpt lat="40.18461" lon="-3.7749">
        <ele>586.4</ele>
        <time>2022-12-31 11:14:00</time>
      </trkpt>
      <trkpt lat="40.18463" lon="-3.77496">
        <ele>586.6</ele>
        <time>2022-12-31 11:14:01</time>
      </trkpt>
      <trkpt lat="40.18465" lon="-3.77503">
        <ele>586.4</ele>
        <time>2022-12-31 11:14:02</time>
      </trkpt>
      <trkpt lat="40.18466" lon="-3.77509">
        <ele>586.4</ele>
        <time>2022-12-31 11:14:03</time>
      </trkpt>
      <trkpt lat="40.18467" lon="-3.77515">
        <ele>586.6</ele>
        <time>2022-12-31 11:14:04</time>
      </trkpt>
      <trkpt lat="40.18468" lon="-3.77522">
        <ele>586.4</ele>
        <time>2022-12-31 11:14:05</time>
      </trkpt>
      <trkpt lat="40.18469" lon="-3.77528">
        <ele>586.4</ele>
        <time>2022-12-31 11:14:06</time>
      </trkpt>
      <trkpt lat="40.1847" lon="-3.77534">
        <ele>586.6</ele>
        <time>2022-12-31 11:14:07</time>
      </trkpt>
      <trkpt lat="40.18471" lon="-3.7754">
        <ele>586.6</ele>
        <time>2022-12-31 11:14:08</time>
      </trkpt>
      <trkpt lat="40.18471" lon="-3.77547">
        <ele>587</ele>
        <time>2022-12-31 11:14:09</time>
      </trkpt>
      <trkpt lat="40.18472" lon="-3.77553">
        <ele>587.2</ele>
        <time>2022-12-31 11:14:10</time>
      </trkpt>
      <trkpt lat="40.18473" lon="-3.7756">
        <ele>587.2</ele>
        <time>2022-12-31 11:14:11</time>
      </trkpt>
      <trkpt lat="40.18474" lon="-3.77565">
        <ele>587.4</ele>
        <time>2022-12-31 11:14:12</time>
      </trkpt>
      <trkpt lat="40.18475" lon="-3.7757">
        <ele>587.4</ele>
        <time>2022-12-31 11:14:13</time>
      </trkpt>
      <trkpt lat="40.18478" lon="-3.77573">
        <ele>587.6</ele>
        <time>2022-12-31 11:14:14</time>
      </trkpt>
      <trkpt lat="40.18482" lon="-3.77575">
        <ele>587.4</ele>
        <time>2022-12-31 11:14:15</time>
      </trkpt>
      <trkpt lat="40.18486" lon="-3.77576">
        <ele>587.6</ele>
        <time>2022-12-31 11:14:16</time>
      </trkpt>
      <trkpt lat="40.1849" lon="-3.77577">
        <ele>587.4</ele>
        <time>2022-12-31 11:14:17</time>
      </trkpt>
      <trkpt lat="40.18494" lon="-3.77578">
        <ele>587.6</ele>
        <time>2022-12-31 11:14:18</time>
      </trkpt>
      <trkpt lat="40.185" lon="-3.77577">
        <ele>587.6</ele>
        <time>2022-12-31 11:14:19</time>
      </trkpt>
      <trkpt lat="40.18505" lon="-3.77576">
        <ele>587.6</ele>
        <time>2022-12-31 11:14:20</time>
      </trkpt>
      <trkpt lat="40.18511" lon="-3.77576">
        <ele>587.6</ele>
        <time>2022-12-31 11:14:21</time>
      </trkpt>
      <trkpt lat="40.18516" lon="-3.77578">
        <ele>587.4</ele>
        <time>2022-12-31 11:14:22</time>
      </trkpt>
      <trkpt lat="40.18521" lon="-3.77579">
        <ele>587.4</ele>
        <time>2022-12-31 11:14:23</time>
      </trkpt>
      <trkpt lat="40.18526" lon="-3.7758">
        <ele>587.4</ele>
        <time>2022-12-31 11:14:24</time>
      </trkpt>
      <trkpt lat="40.1853" lon="-3.77582">
        <ele>587.2</ele>
        <time>2022-12-31 11:14:25</time>
      </trkpt>
      <trkpt lat="40.18535" lon="-3.77583">
        <ele>587</ele>
        <time>2022-12-31 11:14:26</time>
      </trkpt>
      <trkpt lat="40.1854" lon="-3.77584">
        <ele>587</ele>
        <time>2022-12-31 11:14:27</time>
      </trkpt>
      <trkpt lat="40.18545" lon="-3.77585">
        <ele>586.8</ele>
        <time>2022-12-31 11:14:28</time>
      </trkpt>
      <trkpt lat="40.18551" lon="-3.77585">
        <ele>586.8</ele>
        <time>2022-12-31 11:14:29</time>
      </trkpt>
      <trkpt lat="40.18555" lon="-3.77585">
        <ele>586.8</ele>
        <time>2022-12-31 11:14:30</time>
      </trkpt>
      <trkpt lat="40.1856" lon="-3.77586">
        <ele>586.8</ele>
        <time>2022-12-31 11:14:31</time>
      </trkpt>
      <trkpt lat="40.18565" lon="-3.77587">
        <ele>586.8</ele>
        <time>2022-12-31 11:14:32</time>
      </trkpt>
      <trkpt lat="40.1857" lon="-3.77587">
        <ele>586.8</ele>
        <time>2022-12-31 11:14:33</time>
      </trkpt>
      <trkpt lat="40.18575" lon="-3.77587">
        <ele>586.6</ele>
        <time>2022-12-31 11:14:34</time>
      </trkpt>
      <trkpt lat="40.1858" lon="-3.77588">
        <ele>586.6</ele>
        <time>2022-12-31 11:14:35</time>
      </trkpt>
      <trkpt lat="40.18584" lon="-3.77589">
        <ele>586.6</ele>
        <time>2022-12-31 11:14:36</time>
      </trkpt>
      <trkpt lat="40.18589" lon="-3.7759">
        <ele>586.6</ele>
        <time>2022-12-31 11:14:37</time>
      </trkpt>
      <trkpt lat="40.18592" lon="-3.77593">
        <ele>586.8</ele>
        <time>2022-12-31 11:14:38</time>
      </trkpt>
      <trkpt lat="40.18594" lon="-3.77597">
        <ele>586.8</ele>
        <time>2022-12-31 11:14:39</time>
      </trkpt>
      <trkpt lat="40.18595" lon="-3.77603">
        <ele>586.8</ele>
        <time>2022-12-31 11:14:40</time>
      </trkpt>
      <trkpt lat="40.18595" lon="-3.77609">
        <ele>587</ele>
        <time>2022-12-31 11:14:41</time>
      </trkpt>
      <trkpt lat="40.18594" lon="-3.77616">
        <ele>587.2</ele>
        <time>2022-12-31 11:14:42</time>
      </trkpt>
      <trkpt lat="40.18593" lon="-3.77623">
        <ele>587.2</ele>
        <time>2022-12-31 11:14:43</time>
      </trkpt>
      <trkpt lat="40.18592" lon="-3.7763">
        <ele>587.2</ele>
        <time>2022-12-31 11:14:44</time>
      </trkpt>
      <trkpt lat="40.18591" lon="-3.77637">
        <ele>587.4</ele>
        <time>2022-12-31 11:14:45</time>
      </trkpt>
      <trkpt lat="40.1859" lon="-3.77644">
        <ele>587.4</ele>
        <time>2022-12-31 11:14:46</time>
      </trkpt>
      <trkpt lat="40.18589" lon="-3.77652">
        <ele>587.4</ele>
        <time>2022-12-31 11:14:47</time>
      </trkpt>
      <trkpt lat="40.18588" lon="-3.77659">
        <ele>587.4</ele>
        <time>2022-12-31 11:14:48</time>
      </trkpt>
      <trkpt lat="40.18588" lon="-3.77667">
        <ele>587.4</ele>
        <time>2022-12-31 11:14:49</time>
      </trkpt>
      <trkpt lat="40.18587" lon="-3.77676">
        <ele>587.4</ele>
        <time>2022-12-31 11:14:50</time>
      </trkpt>
      <trkpt lat="40.18586" lon="-3.77684">
        <ele>587.6</ele>
        <time>2022-12-31 11:14:51</time>
      </trkpt>
      <trkpt lat="40.18585" lon="-3.77692">
        <ele>587.4</ele>
        <time>2022-12-31 11:14:52</time>
      </trkpt>
      <trkpt lat="40.18585" lon="-3.777">
        <ele>587.4</ele>
        <time>2022-12-31 11:14:53</time>
      </trkpt>
      <trkpt lat="40.18583" lon="-3.77708">
        <ele>587.4</ele>
        <time>2022-12-31 11:14:54</time>
      </trkpt>
      <trkpt lat="40.18582" lon="-3.77715">
        <ele>587.4</ele>
        <time>2022-12-31 11:14:55</time>
      </trkpt>
      <trkpt lat="40.1858" lon="-3.77723">
        <ele>587.2</ele>
        <time>2022-12-31 11:14:56</time>
      </trkpt>
      <trkpt lat="40.18578" lon="-3.77731">
        <ele>587.4</ele>
        <time>2022-12-31 11:14:57</time>
      </trkpt>
      <trkpt lat="40.18576" lon="-3.77739">
        <ele>587.2</ele>
        <time>2022-12-31 11:14:58</time>
      </trkpt>
      <trkpt lat="40.18574" lon="-3.77746">
        <ele>587</ele>
        <time>2022-12-31 11:14:59</time>
      </trkpt>
      <trkpt lat="40.18571" lon="-3.77753">
        <ele>587.2</ele>
        <time>2022-12-31 11:15:00</time>
      </trkpt>
      <trkpt lat="40.18569" lon="-3.7776">
        <ele>587</ele>
        <time>2022-12-31 11:15:01</time>
      </trkpt>
      <trkpt lat="40.18566" lon="-3.77768">
        <ele>587.2</ele>
        <time>2022-12-31 11:15:02</time>
      </trkpt>
      <trkpt lat="40.18564" lon="-3.77775">
        <ele>587.2</ele>
        <time>2022-12-31 11:15:03</time>
      </trkpt>
      <trkpt lat="40.18562" lon="-3.77783">
        <ele>587.2</ele>
        <time>2022-12-31 11:15:04</time>
      </trkpt>
      <trkpt lat="40.18561" lon="-3.77791">
        <ele>587</ele>
        <time>2022-12-31 11:15:05</time>
      </trkpt>
      <trkpt lat="40.18559" lon="-3.77799">
        <ele>587</ele>
        <time>2022-12-31 11:15:06</time>
      </trkpt>
      <trkpt lat="40.18558" lon="-3.77808">
        <ele>587</ele>
        <time>2022-12-31 11:15:07</time>
      </trkpt>
      <trkpt lat="40.18556" lon="-3.77816">
        <ele>587</ele>
        <time>2022-12-31 11:15:08</time>
      </trkpt>
      <trkpt lat="40.18555" lon="-3.77824">
        <ele>587</ele>
        <time>2022-12-31 11:15:09</time>
      </trkpt>
      <trkpt lat="40.18553" lon="-3.77831">
        <ele>587.2</ele>
        <time>2022-12-31 11:15:10</time>
      </trkpt>
      <trkpt lat="40.18552" lon="-3.77839">
        <ele>587</ele>
        <time>2022-12-31 11:15:11</time>
      </trkpt>
      <trkpt lat="40.18551" lon="-3.77847">
        <ele>587</ele>
        <time>2022-12-31 11:15:12</time>
      </trkpt>
      <trkpt lat="40.18551" lon="-3.77854">
        <ele>587</ele>
        <time>2022-12-31 11:15:13</time>
      </trkpt>
      <trkpt lat="40.18551" lon="-3.77862">
        <ele>587</ele>
        <time>2022-12-31 11:15:14</time>
      </trkpt>
      <trkpt lat="40.18551" lon="-3.7787">
        <ele>587.2</ele>
        <time>2022-12-31 11:15:15</time>
      </trkpt>
      <trkpt lat="40.18551" lon="-3.77878">
        <ele>587.2</ele>
        <time>2022-12-31 11:15:16</time>
      </trkpt>
      <trkpt lat="40.18551" lon="-3.77886">
        <ele>587.2</ele>
        <time>2022-12-31 11:15:17</time>
      </trkpt>
      <trkpt lat="40.18552" lon="-3.77893">
        <ele>587.2</ele>
        <time>2022-12-31 11:15:18</time>
      </trkpt>
      <trkpt lat="40.18553" lon="-3.77901">
        <ele>587.4</ele>
        <time>2022-12-31 11:15:19</time>
      </trkpt>
      <trkpt lat="40.18554" lon="-3.77909">
        <ele>587.6</ele>
        <time>2022-12-31 11:15:20</time>
      </trkpt>
      <trkpt lat="40.18555" lon="-3.77916">
        <ele>587.6</ele>
        <time>2022-12-31 11:15:21</time>
      </trkpt>
      <trkpt lat="40.18556" lon="-3.77923">
        <ele>587.6</ele>
        <time>2022-12-31 11:15:22</time>
      </trkpt>
      <trkpt lat="40.18557" lon="-3.77931">
        <ele>588</ele>
        <time>2022-12-31 11:15:23</time>
      </trkpt>
      <trkpt lat="40.18558" lon="-3.77938">
        <ele>588</ele>
        <time>2022-12-31 11:15:24</time>
      </trkpt>
      <trkpt lat="40.18559" lon="-3.77945">
        <ele>588</ele>
        <time>2022-12-31 11:15:25</time>
      </trkpt>
      <trkpt lat="40.18561" lon="-3.77954">
        <ele>588</ele>
        <time>2022-12-31 11:15:26</time>
      </trkpt>
      <trkpt lat="40.18562" lon="-3.77961">
        <ele>588.2</ele>
        <time>2022-12-31 11:15:27</time>
      </trkpt>
      <trkpt lat="40.18563" lon="-3.77968">
        <ele>588</ele>
        <time>2022-12-31 11:15:28</time>
      </trkpt>
      <trkpt lat="40.18563" lon="-3.77976">
        <ele>588.2</ele>
        <time>2022-12-31 11:15:29</time>
      </trkpt>
      <trkpt lat="40.18561" lon="-3.77982">
        <ele>588.2</ele>
        <time>2022-12-31 11:15:30</time>
      </trkpt>
      <trkpt lat="40.1856" lon="-3.77988">
        <ele>588.4</ele>
        <time>2022-12-31 11:15:31</time>
      </trkpt>
      <trkpt lat="40.18558" lon="-3.77995">
        <ele>588.2</ele>
        <time>2022-12-31 11:15:32</time>
      </trkpt>
      <trkpt lat="40.18557" lon="-3.78001">
        <ele>588.2</ele>
        <time>2022-12-31 11:15:33</time>
      </trkpt>
      <trkpt lat="40.18557" lon="-3.78007">
        <ele>588.2</ele>
        <time>2022-12-31 11:15:34</time>
      </trkpt>
      <trkpt lat="40.18558" lon="-3.78014">
        <ele>588.2</ele>
        <time>2022-12-31 11:15:35</time>
      </trkpt>
      <trkpt lat="40.18559" lon="-3.7802">
        <ele>588.4</ele>
        <time>2022-12-31 11:15:36</time>
      </trkpt>
      <trkpt lat="40.1856" lon="-3.78027">
        <ele>588.4</ele>
        <time>2022-12-31 11:15:37</time>
      </trkpt>
      <trkpt lat="40.18561" lon="-3.78034">
        <ele>588.4</ele>
        <time>2022-12-31 11:15:38</time>
      </trkpt>
      <trkpt lat="40.18562" lon="-3.78041">
        <ele>588.4</ele>
        <time>2022-12-31 11:15:39</time>
      </trkpt>
      <trkpt lat="40.18563" lon="-3.78048">
        <ele>588.4</ele>
        <time>2022-12-31 11:15:40</time>
      </trkpt>
      <trkpt lat="40.18565" lon="-3.78055">
        <ele>588.6</ele>
        <time>2022-12-31 11:15:41</time>
      </trkpt>
      <trkpt lat="40.18567" lon="-3.78062">
        <ele>588.6</ele>
        <time>2022-12-31 11:15:42</time>
      </trkpt>
      <trkpt lat="40.18569" lon="-3.78069">
        <ele>588.4</ele>
        <time>2022-12-31 11:15:43</time>
      </trkpt>
      <trkpt lat="40.18571" lon="-3.78075">
        <ele>588.4</ele>
        <time>2022-12-31 11:15:44</time>
      </trkpt>
      <trkpt lat="40.18574" lon="-3.78082">
        <ele>588.4</ele>
        <time>2022-12-31 11:15:45</time>
      </trkpt>
      <trkpt lat="40.18575" lon="-3.78089">
        <ele>588.6</ele>
        <time>2022-12-31 11:15:46</time>
      </trkpt>
      <trkpt lat="40.18577" lon="-3.78097">
        <ele>588.6</ele>
        <time>2022-12-31 11:15:47</time>
      </trkpt>
      <trkpt lat="40.18578" lon="-3.78104">
        <ele>588.6</ele>
        <time>2022-12-31 11:15:48</time>
      </trkpt>
      <trkpt lat="40.1858" lon="-3.78111">
        <ele>588.6</ele>
        <time>2022-12-31 11:15:49</time>
      </trkpt>
      <trkpt lat="40.18583" lon="-3.78118">
        <ele>588.6</ele>
        <time>2022-12-31 11:15:50</time>
      </trkpt>
      <trkpt lat="40.18586" lon="-3.78126">
        <ele>588.6</ele>
        <time>2022-12-31 11:15:51</time>
      </trkpt>
      <trkpt lat="40.18589" lon="-3.78132">
        <ele>588.6</ele>
        <time>2022-12-31 11:15:52</time>
      </trkpt>
      <trkpt lat="40.18592" lon="-3.78139">
        <ele>588.4</ele>
        <time>2022-12-31 11:15:53</time>
      </trkpt>
      <trkpt lat="40.18595" lon="-3.78146">
        <ele>588.4</ele>
        <time>2022-12-31 11:15:54</time>
      </trkpt>
      <trkpt lat="40.18599" lon="-3.78152">
        <ele>588.8</ele>
        <time>2022-12-31 11:15:55</time>
      </trkpt>
      <trkpt lat="40.18602" lon="-3.78158">
        <ele>588.8</ele>
        <time>2022-12-31 11:15:56</time>
      </trkpt>
      <trkpt lat="40.18606" lon="-3.78165">
        <ele>588.4</ele>
        <time>2022-12-31 11:15:57</time>
      </trkpt>
      <trkpt lat="40.1861" lon="-3.78171">
        <ele>588.8</ele>
        <time>2022-12-31 11:15:58</time>
      </trkpt>
      <trkpt lat="40.18613" lon="-3.78176">
        <ele>588.6</ele>
        <time>2022-12-31 11:15:59</time>
      </trkpt>
      <trkpt lat="40.18616" lon="-3.78182">
        <ele>588.6</ele>
        <time>2022-12-31 11:16:00</time>
      </trkpt>
      <trkpt lat="40.1862" lon="-3.78189">
        <ele>588.6</ele>
        <time>2022-12-31 11:16:01</time>
      </trkpt>
      <trkpt lat="40.18623" lon="-3.78195">
        <ele>588.6</ele>
        <time>2022-12-31 11:16:02</time>
      </trkpt>
      <trkpt lat="40.18626" lon="-3.78201">
        <ele>588.6</ele>
        <time>2022-12-31 11:16:03</time>
      </trkpt>
      <trkpt lat="40.1863" lon="-3.78207">
        <ele>588.6</ele>
        <time>2022-12-31 11:16:04</time>
      </trkpt>
      <trkpt lat="40.18633" lon="-3.78212">
        <ele>588.6</ele>
        <time>2022-12-31 11:16:05</time>
      </trkpt>
      <trkpt lat="40.18637" lon="-3.78217">
        <ele>588.6</ele>
        <time>2022-12-31 11:16:06</time>
      </trkpt>
      <trkpt lat="40.18641" lon="-3.78223">
        <ele>588.4</ele>
        <time>2022-12-31 11:16:07</time>
      </trkpt>
      <trkpt lat="40.18645" lon="-3.78227">
        <ele>588.6</ele>
        <time>2022-12-31 11:16:08</time>
      </trkpt>
      <trkpt lat="40.1865" lon="-3.78232">
        <ele>588.6</ele>
        <time>2022-12-31 11:16:09</time>
      </trkpt>
      <trkpt lat="40.18655" lon="-3.78236">
        <ele>588.6</ele>
        <time>2022-12-31 11:16:10</time>
      </trkpt>
      <trkpt lat="40.1866" lon="-3.78239">
        <ele>588.6</ele>
        <time>2022-12-31 11:16:11</time>
      </trkpt>
      <trkpt lat="40.18665" lon="-3.78243">
        <ele>588.8</ele>
        <time>2022-12-31 11:16:12</time>
      </trkpt>
      <trkpt lat="40.1867" lon="-3.78247">
        <ele>588.8</ele>
        <time>2022-12-31 11:16:13</time>
      </trkpt>
      <trkpt lat="40.18675" lon="-3.7825">
        <ele>588.8</ele>
        <time>2022-12-31 11:16:14</time>
      </trkpt>
      <trkpt lat="40.1868" lon="-3.78254">
        <ele>588.8</ele>
        <time>2022-12-31 11:16:15</time>
      </trkpt>
      <trkpt lat="40.18685" lon="-3.78258">
        <ele>588.8</ele>
        <time>2022-12-31 11:16:16</time>
      </trkpt>
      <trkpt lat="40.18689" lon="-3.78262">
        <ele>588.8</ele>
        <time>2022-12-31 11:16:17</time>
      </trkpt>
      <trkpt lat="40.18693" lon="-3.78267">
        <ele>589</ele>
        <time>2022-12-31 11:16:18</time>
      </trkpt>
      <trkpt lat="40.18696" lon="-3.78272">
        <ele>589</ele>
        <time>2022-12-31 11:16:19</time>
      </trkpt>
      <trkpt lat="40.18699" lon="-3.78279">
        <ele>589</ele>
        <time>2022-12-31 11:16:20</time>
      </trkpt>
      <trkpt lat="40.18701" lon="-3.78286">
        <ele>589</ele>
        <time>2022-12-31 11:16:21</time>
      </trkpt>
      <trkpt lat="40.18702" lon="-3.78292">
        <ele>589</ele>
        <time>2022-12-31 11:16:22</time>
      </trkpt>
      <trkpt lat="40.18705" lon="-3.78299">
        <ele>589</ele>
        <time>2022-12-31 11:16:23</time>
      </trkpt>
      <trkpt lat="40.18707" lon="-3.78305">
        <ele>589.2</ele>
        <time>2022-12-31 11:16:24</time>
      </trkpt>
      <trkpt lat="40.1871" lon="-3.78311">
        <ele>589.4</ele>
        <time>2022-12-31 11:16:25</time>
      </trkpt>
      <trkpt lat="40.18714" lon="-3.78317">
        <ele>589.4</ele>
        <time>2022-12-31 11:16:26</time>
      </trkpt>
      <trkpt lat="40.18717" lon="-3.78322">
        <ele>589.6</ele>
        <time>2022-12-31 11:16:27</time>
      </trkpt>
      <trkpt lat="40.18721" lon="-3.78326">
        <ele>589.8</ele>
        <time>2022-12-31 11:16:28</time>
      </trkpt>
      <trkpt lat="40.18726" lon="-3.7833">
        <ele>590.2</ele>
        <time>2022-12-31 11:16:29</time>
      </trkpt>
      <trkpt lat="40.18731" lon="-3.78333">
        <ele>590.2</ele>
        <time>2022-12-31 11:16:30</time>
      </trkpt>
      <trkpt lat="40.18736" lon="-3.78336">
        <ele>590.4</ele>
        <time>2022-12-31 11:16:31</time>
      </trkpt>
      <trkpt lat="40.1874" lon="-3.78339">
        <ele>590.4</ele>
        <time>2022-12-31 11:16:32</time>
      </trkpt>
      <trkpt lat="40.18745" lon="-3.78342">
        <ele>590.4</ele>
        <time>2022-12-31 11:16:33</time>
      </trkpt>
      <trkpt lat="40.18749" lon="-3.78346">
        <ele>590.4</ele>
        <time>2022-12-31 11:16:34</time>
      </trkpt>
      <trkpt lat="40.18753" lon="-3.78351">
        <ele>590.6</ele>
        <time>2022-12-31 11:16:35</time>
      </trkpt>
      <trkpt lat="40.18757" lon="-3.78356">
        <ele>590.6</ele>
        <time>2022-12-31 11:16:36</time>
      </trkpt>
      <trkpt lat="40.18762" lon="-3.7836">
        <ele>590.6</ele>
        <time>2022-12-31 11:16:37</time>
      </trkpt>
      <trkpt lat="40.18766" lon="-3.78365">
        <ele>590.8</ele>
        <time>2022-12-31 11:16:38</time>
      </trkpt>
      <trkpt lat="40.1877" lon="-3.7837">
        <ele>590.8</ele>
        <time>2022-12-31 11:16:39</time>
      </trkpt>
      <trkpt lat="40.18774" lon="-3.78375">
        <ele>590.8</ele>
        <time>2022-12-31 11:16:40</time>
      </trkpt>
      <trkpt lat="40.18778" lon="-3.7838">
        <ele>590.8</ele>
        <time>2022-12-31 11:16:41</time>
      </trkpt>
      <trkpt lat="40.18782" lon="-3.78385">
        <ele>590.8</ele>
        <time>2022-12-31 11:16:42</time>
      </trkpt>
      <trkpt lat="40.18786" lon="-3.78391">
        <ele>591</ele>
        <time>2022-12-31 11:16:43</time>
      </trkpt>
      <trkpt lat="40.1879" lon="-3.78396">
        <ele>591</ele>
        <time>2022-12-31 11:16:44</time>
      </trkpt>
      <trkpt lat="40.18793" lon="-3.784">
        <ele>591</ele>
        <time>2022-12-31 11:16:45</time>
      </trkpt>
      <trkpt lat="40.18798" lon="-3.78404">
        <ele>591</ele>
        <time>2022-12-31 11:16:46</time>
      </trkpt>
      <trkpt lat="40.18803" lon="-3.78409">
        <ele>591.2</ele>
        <time>2022-12-31 11:16:47</time>
      </trkpt>
      <trkpt lat="40.18807" lon="-3.78414">
        <ele>591</ele>
        <time>2022-12-31 11:16:48</time>
      </trkpt>
      <trkpt lat="40.18811" lon="-3.7842">
        <ele>591.2</ele>
        <time>2022-12-31 11:16:49</time>
      </trkpt>
      <trkpt lat="40.18815" lon="-3.78426">
        <ele>591.2</ele>
        <time>2022-12-31 11:16:50</time>
      </trkpt>
      <trkpt lat="40.18818" lon="-3.78432">
        <ele>591</ele>
        <time>2022-12-31 11:16:51</time>
      </trkpt>
      <trkpt lat="40.1882" lon="-3.78439">
        <ele>591.2</ele>
        <time>2022-12-31 11:16:52</time>
      </trkpt>
      <trkpt lat="40.18822" lon="-3.78446">
        <ele>591.2</ele>
        <time>2022-12-31 11:16:53</time>
      </trkpt>
      <trkpt lat="40.18824" lon="-3.78454">
        <ele>591.2</ele>
        <time>2022-12-31 11:16:54</time>
      </trkpt>
      <trkpt lat="40.18826" lon="-3.78461">
        <ele>591.2</ele>
        <time>2022-12-31 11:16:55</time>
      </trkpt>
      <trkpt lat="40.18827" lon="-3.78469">
        <ele>591</ele>
        <time>2022-12-31 11:16:56</time>
      </trkpt>
      <trkpt lat="40.18828" lon="-3.78476">
        <ele>591</ele>
        <time>2022-12-31 11:16:57</time>
      </trkpt>
      <trkpt lat="40.18829" lon="-3.78483">
        <ele>590.8</ele>
        <time>2022-12-31 11:16:58</time>
      </trkpt>
      <trkpt lat="40.1883" lon="-3.7849">
        <ele>590.8</ele>
        <time>2022-12-31 11:16:59</time>
      </trkpt>
      <trkpt lat="40.18831" lon="-3.78497">
        <ele>590.8</ele>
        <time>2022-12-31 11:17:00</time>
      </trkpt>
      <trkpt lat="40.18831" lon="-3.78504">
        <ele>590.8</ele>
        <time>2022-12-31 11:17:01</time>
      </trkpt>
      <trkpt lat="40.18831" lon="-3.78512">
        <ele>590.8</ele>
        <time>2022-12-31 11:17:02</time>
      </trkpt>
      <trkpt lat="40.18831" lon="-3.78519">
        <ele>590.8</ele>
        <time>2022-12-31 11:17:03</time>
      </trkpt>
      <trkpt lat="40.18831" lon="-3.78527">
        <ele>590.8</ele>
        <time>2022-12-31 11:17:04</time>
      </trkpt>
      <trkpt lat="40.18832" lon="-3.78534">
        <ele>590.8</ele>
        <time>2022-12-31 11:17:05</time>
      </trkpt>
      <trkpt lat="40.18833" lon="-3.78541">
        <ele>590.8</ele>
        <time>2022-12-31 11:17:06</time>
      </trkpt>
      <trkpt lat="40.18833" lon="-3.78549">
        <ele>590.8</ele>
        <time>2022-12-31 11:17:07</time>
      </trkpt>
      <trkpt lat="40.18834" lon="-3.78557">
        <ele>590.8</ele>
        <time>2022-12-31 11:17:08</time>
      </trkpt>
      <trkpt lat="40.18835" lon="-3.78564">
        <ele>590.8</ele>
        <time>2022-12-31 11:17:09</time>
      </trkpt>
      <trkpt lat="40.18835" lon="-3.78572">
        <ele>591</ele>
        <time>2022-12-31 11:17:10</time>
      </trkpt>
      <trkpt lat="40.18837" lon="-3.7858">
        <ele>591.2</ele>
        <time>2022-12-31 11:17:11</time>
      </trkpt>
      <trkpt lat="40.18839" lon="-3.78587">
        <ele>591.2</ele>
        <time>2022-12-31 11:17:12</time>
      </trkpt>
      <trkpt lat="40.1884" lon="-3.78595">
        <ele>591.4</ele>
        <time>2022-12-31 11:17:13</time>
      </trkpt>
      <trkpt lat="40.18842" lon="-3.78602">
        <ele>591.4</ele>
        <time>2022-12-31 11:17:14</time>
      </trkpt>
      <trkpt lat="40.18843" lon="-3.7861">
        <ele>591.4</ele>
        <time>2022-12-31 11:17:15</time>
      </trkpt>
      <trkpt lat="40.18845" lon="-3.78618">
        <ele>591.6</ele>
        <time>2022-12-31 11:17:16</time>
      </trkpt>
      <trkpt lat="40.18846" lon="-3.78625">
        <ele>591.6</ele>
        <time>2022-12-31 11:17:17</time>
      </trkpt>
      <trkpt lat="40.18847" lon="-3.78633">
        <ele>591.8</ele>
        <time>2022-12-31 11:17:18</time>
      </trkpt>
      <trkpt lat="40.18848" lon="-3.7864">
        <ele>592</ele>
        <time>2022-12-31 11:17:19</time>
      </trkpt>
      <trkpt lat="40.18849" lon="-3.78648">
        <ele>591.8</ele>
        <time>2022-12-31 11:17:20</time>
      </trkpt>
      <trkpt lat="40.1885" lon="-3.78655">
        <ele>591.8</ele>
        <time>2022-12-31 11:17:21</time>
      </trkpt>
      <trkpt lat="40.18851" lon="-3.78663">
        <ele>592</ele>
        <time>2022-12-31 11:17:22</time>
      </trkpt>
      <trkpt lat="40.18852" lon="-3.7867">
        <ele>591.8</ele>
        <time>2022-12-31 11:17:23</time>
      </trkpt>
      <trkpt lat="40.18852" lon="-3.78678">
        <ele>592</ele>
        <time>2022-12-31 11:17:24</time>
      </trkpt>
      <trkpt lat="40.18854" lon="-3.78685">
        <ele>592</ele>
        <time>2022-12-31 11:17:25</time>
      </trkpt>
      <trkpt lat="40.18855" lon="-3.78693">
        <ele>592.2</ele>
        <time>2022-12-31 11:17:26</time>
      </trkpt>
      <trkpt lat="40.18856" lon="-3.787">
        <ele>592</ele>
        <time>2022-12-31 11:17:27</time>
      </trkpt>
      <trkpt lat="40.18857" lon="-3.78707">
        <ele>592.2</ele>
        <time>2022-12-31 11:17:28</time>
      </trkpt>
      <trkpt lat="40.18858" lon="-3.78714">
        <ele>592.2</ele>
        <time>2022-12-31 11:17:29</time>
      </trkpt>
      <trkpt lat="40.1886" lon="-3.78721">
        <ele>592.4</ele>
        <time>2022-12-31 11:17:30</time>
      </trkpt>
      <trkpt lat="40.18861" lon="-3.78728">
        <ele>592.4</ele>
        <time>2022-12-31 11:17:31</time>
      </trkpt>
      <trkpt lat="40.18863" lon="-3.78735">
        <ele>592.4</ele>
        <time>2022-12-31 11:17:32</time>
      </trkpt>
      <trkpt lat="40.18865" lon="-3.78742">
        <ele>592.4</ele>
        <time>2022-12-31 11:17:33</time>
      </trkpt>
      <trkpt lat="40.18867" lon="-3.78749">
        <ele>592.6</ele>
        <time>2022-12-31 11:17:34</time>
      </trkpt>
      <trkpt lat="40.18869" lon="-3.78756">
        <ele>592.6</ele>
        <time>2022-12-31 11:17:35</time>
      </trkpt>
      <trkpt lat="40.18871" lon="-3.78763">
        <ele>592.6</ele>
        <time>2022-12-31 11:17:36</time>
      </trkpt>
      <trkpt lat="40.18874" lon="-3.7877">
        <ele>592.6</ele>
        <time>2022-12-31 11:17:37</time>
      </trkpt>
      <trkpt lat="40.18876" lon="-3.78777">
        <ele>592.6</ele>
        <time>2022-12-31 11:17:38</time>
      </trkpt>
      <trkpt lat="40.18878" lon="-3.78783">
        <ele>592.6</ele>
        <time>2022-12-31 11:17:39</time>
      </trkpt>
      <trkpt lat="40.1888" lon="-3.7879">
        <ele>592.6</ele>
        <time>2022-12-31 11:17:40</time>
      </trkpt>
      <trkpt lat="40.18882" lon="-3.78797">
        <ele>592.6</ele>
        <time>2022-12-31 11:17:41</time>
      </trkpt>
      <trkpt lat="40.18884" lon="-3.78804">
        <ele>592.8</ele>
        <time>2022-12-31 11:17:42</time>
      </trkpt>
      <trkpt lat="40.18886" lon="-3.78811">
        <ele>592.6</ele>
        <time>2022-12-31 11:17:43</time>
      </trkpt>
      <trkpt lat="40.18888" lon="-3.78818">
        <ele>592.8</ele>
        <time>2022-12-31 11:17:44</time>
      </trkpt>
      <trkpt lat="40.18891" lon="-3.78825">
        <ele>592.6</ele>
        <time>2022-12-31 11:17:45</time>
      </trkpt>
      <trkpt lat="40.18894" lon="-3.78832">
        <ele>592.6</ele>
        <time>2022-12-31 11:17:46</time>
      </trkpt>
      <trkpt lat="40.18897" lon="-3.78839">
        <ele>592.8</ele>
        <time>2022-12-31 11:17:47</time>
      </trkpt>
      <trkpt lat="40.18898" lon="-3.78846">
        <ele>592.8</ele>
        <time>2022-12-31 11:17:48</time>
      </trkpt>
      <trkpt lat="40.18898" lon="-3.78853">
        <ele>592.6</ele>
        <time>2022-12-31 11:17:49</time>
      </trkpt>
      <trkpt lat="40.18898" lon="-3.7886">
        <ele>592.8</ele>
        <time>2022-12-31 11:17:50</time>
      </trkpt>
      <trkpt lat="40.18897" lon="-3.78867">
        <ele>593</ele>
        <time>2022-12-31 11:17:51</time>
      </trkpt>
      <trkpt lat="40.18897" lon="-3.78873">
        <ele>593</ele>
        <time>2022-12-31 11:17:52</time>
      </trkpt>
      <trkpt lat="40.18896" lon="-3.7888">
        <ele>593</ele>
        <time>2022-12-31 11:17:53</time>
      </trkpt>
      <trkpt lat="40.18895" lon="-3.78887">
        <ele>593.2</ele>
        <time>2022-12-31 11:17:54</time>
      </trkpt>
      <trkpt lat="40.18894" lon="-3.78894">
        <ele>593.2</ele>
        <time>2022-12-31 11:17:55</time>
      </trkpt>
      <trkpt lat="40.18893" lon="-3.78901">
        <ele>593.2</ele>
        <time>2022-12-31 11:17:56</time>
      </trkpt>
      <trkpt lat="40.18892" lon="-3.78908">
        <ele>593.2</ele>
        <time>2022-12-31 11:17:57</time>
      </trkpt>
      <trkpt lat="40.18891" lon="-3.78915">
        <ele>593.4</ele>
        <time>2022-12-31 11:17:58</time>
      </trkpt>
      <trkpt lat="40.1889" lon="-3.78922">
        <ele>593.4</ele>
        <time>2022-12-31 11:17:59</time>
      </trkpt>
      <trkpt lat="40.18889" lon="-3.78929">
        <ele>593.4</ele>
        <time>2022-12-31 11:18:00</time>
      </trkpt>
      <trkpt lat="40.18888" lon="-3.78936">
        <ele>593.4</ele>
        <time>2022-12-31 11:18:01</time>
      </trkpt>
      <trkpt lat="40.18888" lon="-3.78943">
        <ele>593.6</ele>
        <time>2022-12-31 11:18:02</time>
      </trkpt>
      <trkpt lat="40.18888" lon="-3.7895">
        <ele>593.6</ele>
        <time>2022-12-31 11:18:03</time>
      </trkpt>
      <trkpt lat="40.18888" lon="-3.78958">
        <ele>593.6</ele>
        <time>2022-12-31 11:18:04</time>
      </trkpt>
      <trkpt lat="40.18888" lon="-3.78965">
        <ele>593.6</ele>
        <time>2022-12-31 11:18:05</time>
      </trkpt>
      <trkpt lat="40.18887" lon="-3.78972">
        <ele>593.6</ele>
        <time>2022-12-31 11:18:06</time>
      </trkpt>
      <trkpt lat="40.18885" lon="-3.78979">
        <ele>593.8</ele>
        <time>2022-12-31 11:18:07</time>
      </trkpt>
      <trkpt lat="40.18884" lon="-3.78986">
        <ele>593.8</ele>
        <time>2022-12-31 11:18:08</time>
      </trkpt>
      <trkpt lat="40.18882" lon="-3.78993">
        <ele>594</ele>
        <time>2022-12-31 11:18:09</time>
      </trkpt>
      <trkpt lat="40.1888" lon="-3.79">
        <ele>594</ele>
        <time>2022-12-31 11:18:10</time>
      </trkpt>
      <trkpt lat="40.18878" lon="-3.79006">
        <ele>594</ele>
        <time>2022-12-31 11:18:11</time>
      </trkpt>
      <trkpt lat="40.18876" lon="-3.79013">
        <ele>594</ele>
        <time>2022-12-31 11:18:12</time>
      </trkpt>
      <trkpt lat="40.18874" lon="-3.79019">
        <ele>594</ele>
        <time>2022-12-31 11:18:13</time>
      </trkpt>
      <trkpt lat="40.18872" lon="-3.79025">
        <ele>594.2</ele>
        <time>2022-12-31 11:18:14</time>
      </trkpt>
      <trkpt lat="40.1887" lon="-3.79032">
        <ele>594.4</ele>
        <time>2022-12-31 11:18:15</time>
      </trkpt>
      <trkpt lat="40.18867" lon="-3.79038">
        <ele>594.4</ele>
        <time>2022-12-31 11:18:16</time>
      </trkpt>
      <trkpt lat="40.18865" lon="-3.79044">
        <ele>594.6</ele>
        <time>2022-12-31 11:18:17</time>
      </trkpt>
      <trkpt lat="40.18862" lon="-3.79049">
        <ele>594.6</ele>
        <time>2022-12-31 11:18:18</time>
      </trkpt>
      <trkpt lat="40.1886" lon="-3.79054">
        <ele>594.4</ele>
        <time>2022-12-31 11:18:19</time>
      </trkpt>
      <trkpt lat="40.18859" lon="-3.7906">
        <ele>594.6</ele>
        <time>2022-12-31 11:18:20</time>
      </trkpt>
      <trkpt lat="40.18857" lon="-3.79065">
        <ele>595</ele>
        <time>2022-12-31 11:18:21</time>
      </trkpt>
      <trkpt lat="40.18856" lon="-3.79071">
        <ele>595.2</ele>
        <time>2022-12-31 11:18:22</time>
      </trkpt>
      <trkpt lat="40.18854" lon="-3.79076">
        <ele>595.2</ele>
        <time>2022-12-31 11:18:23</time>
      </trkpt>
      <trkpt lat="40.18852" lon="-3.79081">
        <ele>595.4</ele>
        <time>2022-12-31 11:18:24</time>
      </trkpt>
      <trkpt lat="40.18851" lon="-3.79085">
        <ele>595.4</ele>
        <time>2022-12-31 11:18:25</time>
      </trkpt>
      <trkpt lat="40.18849" lon="-3.7909">
        <ele>595.6</ele>
        <time>2022-12-31 11:18:26</time>
      </trkpt>
      <trkpt lat="40.18848" lon="-3.79096">
        <ele>595.8</ele>
        <time>2022-12-31 11:18:27</time>
      </trkpt>
      <trkpt lat="40.18847" lon="-3.79101">
        <ele>596</ele>
        <time>2022-12-31 11:18:28</time>
      </trkpt>
      <trkpt lat="40.18846" lon="-3.79106">
        <ele>596.2</ele>
        <time>2022-12-31 11:18:29</time>
      </trkpt>
      <trkpt lat="40.18845" lon="-3.79111">
        <ele>596.4</ele>
        <time>2022-12-31 11:18:30</time>
      </trkpt>
      <trkpt lat="40.18844" lon="-3.79116">
        <ele>596.6</ele>
        <time>2022-12-31 11:18:31</time>
      </trkpt>
      <trkpt lat="40.18842" lon="-3.79121">
        <ele>596.8</ele>
        <time>2022-12-31 11:18:32</time>
      </trkpt>
      <trkpt lat="40.18841" lon="-3.79126">
        <ele>597</ele>
        <time>2022-12-31 11:18:33</time>
      </trkpt>
      <trkpt lat="40.18839" lon="-3.79131">
        <ele>597.2</ele>
        <time>2022-12-31 11:18:34</time>
      </trkpt>
      <trkpt lat="40.18838" lon="-3.79136">
        <ele>597.2</ele>
        <time>2022-12-31 11:18:35</time>
      </trkpt>
      <trkpt lat="40.18836" lon="-3.79142">
        <ele>597.6</ele>
        <time>2022-12-31 11:18:36</time>
      </trkpt>
      <trkpt lat="40.18835" lon="-3.79147">
        <ele>597.8</ele>
        <time>2022-12-31 11:18:37</time>
      </trkpt>
      <trkpt lat="40.18834" lon="-3.79152">
        <ele>597.8</ele>
        <time>2022-12-31 11:18:38</time>
      </trkpt>
      <trkpt lat="40.18833" lon="-3.79158">
        <ele>597.8</ele>
        <time>2022-12-31 11:18:39</time>
      </trkpt>
      <trkpt lat="40.18832" lon="-3.79164">
        <ele>598.2</ele>
        <time>2022-12-31 11:18:40</time>
      </trkpt>
      <trkpt lat="40.18832" lon="-3.79169">
        <ele>598.4</ele>
        <time>2022-12-31 11:18:41</time>
      </trkpt>
      <trkpt lat="40.18831" lon="-3.79175">
        <ele>598.4</ele>
        <time>2022-12-31 11:18:42</time>
      </trkpt>
      <trkpt lat="40.1883" lon="-3.79181">
        <ele>598.6</ele>
        <time>2022-12-31 11:18:43</time>
      </trkpt>
      <trkpt lat="40.18829" lon="-3.79188">
        <ele>598.8</ele>
        <time>2022-12-31 11:18:44</time>
      </trkpt>
      <trkpt lat="40.18829" lon="-3.79194">
        <ele>599.2</ele>
        <time>2022-12-31 11:18:45</time>
      </trkpt>
      <trkpt lat="40.18828" lon="-3.792">
        <ele>599.4</ele>
        <time>2022-12-31 11:18:46</time>
      </trkpt>
      <trkpt lat="40.18827" lon="-3.79207">
        <ele>599.4</ele>
        <time>2022-12-31 11:18:47</time>
      </trkpt>
      <trkpt lat="40.18826" lon="-3.79213">
        <ele>599.6</ele>
        <time>2022-12-31 11:18:48</time>
      </trkpt>
      <trkpt lat="40.18825" lon="-3.7922">
        <ele>599.4</ele>
        <time>2022-12-31 11:18:49</time>
      </trkpt>
      <trkpt lat="40.18824" lon="-3.79226">
        <ele>599.6</ele>
        <time>2022-12-31 11:18:50</time>
      </trkpt>
      <trkpt lat="40.18823" lon="-3.79233">
        <ele>599.6</ele>
        <time>2022-12-31 11:18:51</time>
      </trkpt>
      <trkpt lat="40.18822" lon="-3.79239">
        <ele>599.6</ele>
        <time>2022-12-31 11:18:52</time>
      </trkpt>
      <trkpt lat="40.18821" lon="-3.79246">
        <ele>599.8</ele>
        <time>2022-12-31 11:18:53</time>
      </trkpt>
      <trkpt lat="40.18819" lon="-3.79252">
        <ele>600</ele>
        <time>2022-12-31 11:18:54</time>
      </trkpt>
      <trkpt lat="40.18818" lon="-3.79259">
        <ele>599.8</ele>
        <time>2022-12-31 11:18:55</time>
      </trkpt>
      <trkpt lat="40.18817" lon="-3.79265">
        <ele>600</ele>
        <time>2022-12-31 11:18:56</time>
      </trkpt>
      <trkpt lat="40.18817" lon="-3.79272">
        <ele>600</ele>
        <time>2022-12-31 11:18:57</time>
      </trkpt>
      <trkpt lat="40.18817" lon="-3.79279">
        <ele>600</ele>
        <time>2022-12-31 11:18:58</time>
      </trkpt>
      <trkpt lat="40.18817" lon="-3.79286">
        <ele>600</ele>
        <time>2022-12-31 11:18:59</time>
      </trkpt>
      <trkpt lat="40.18817" lon="-3.79293">
        <ele>600</ele>
        <time>2022-12-31 11:19:00</time>
      </trkpt>
      <trkpt lat="40.18818" lon="-3.793">
        <ele>600</ele>
        <time>2022-12-31 11:19:01</time>
      </trkpt>
      <trkpt lat="40.18819" lon="-3.79307">
        <ele>600.2</ele>
        <time>2022-12-31 11:19:02</time>
      </trkpt>
      <trkpt lat="40.18821" lon="-3.79313">
        <ele>600.2</ele>
        <time>2022-12-31 11:19:03</time>
      </trkpt>
      <trkpt lat="40.18822" lon="-3.7932">
        <ele>600.2</ele>
        <time>2022-12-31 11:19:04</time>
      </trkpt>
      <trkpt lat="40.18823" lon="-3.79327">
        <ele>600.2</ele>
        <time>2022-12-31 11:19:05</time>
      </trkpt>
      <trkpt lat="40.18824" lon="-3.79334">
        <ele>600.2</ele>
        <time>2022-12-31 11:19:06</time>
      </trkpt>
      <trkpt lat="40.18826" lon="-3.79341">
        <ele>600.4</ele>
        <time>2022-12-31 11:19:07</time>
      </trkpt>
      <trkpt lat="40.18828" lon="-3.79348">
        <ele>600.4</ele>
        <time>2022-12-31 11:19:08</time>
      </trkpt>
      <trkpt lat="40.18829" lon="-3.79355">
        <ele>600.4</ele>
        <time>2022-12-31 11:19:09</time>
      </trkpt>
      <trkpt lat="40.18831" lon="-3.79362">
        <ele>600.2</ele>
        <time>2022-12-31 11:19:10</time>
      </trkpt>
      <trkpt lat="40.18832" lon="-3.79369">
        <ele>600.2</ele>
        <time>2022-12-31 11:19:11</time>
      </trkpt>
      <trkpt lat="40.18834" lon="-3.79377">
        <ele>600.4</ele>
        <time>2022-12-31 11:19:12</time>
      </trkpt>
      <trkpt lat="40.18835" lon="-3.79384">
        <ele>600.4</ele>
        <time>2022-12-31 11:19:13</time>
      </trkpt>
      <trkpt lat="40.18837" lon="-3.79391">
        <ele>600.4</ele>
        <time>2022-12-31 11:19:14</time>
      </trkpt>
      <trkpt lat="40.18839" lon="-3.79398">
        <ele>600.4</ele>
        <time>2022-12-31 11:19:15</time>
      </trkpt>
      <trkpt lat="40.18841" lon="-3.79406">
        <ele>600.6</ele>
        <time>2022-12-31 11:19:16</time>
      </trkpt>
      <trkpt lat="40.18842" lon="-3.79413">
        <ele>600.6</ele>
        <time>2022-12-31 11:19:17</time>
      </trkpt>
      <trkpt lat="40.18844" lon="-3.7942">
        <ele>600.6</ele>
        <time>2022-12-31 11:19:18</time>
      </trkpt>
      <trkpt lat="40.18845" lon="-3.79427">
        <ele>600.6</ele>
        <time>2022-12-31 11:19:19</time>
      </trkpt>
      <trkpt lat="40.18847" lon="-3.79434">
        <ele>600.8</ele>
        <time>2022-12-31 11:19:20</time>
      </trkpt>
      <trkpt lat="40.18849" lon="-3.79441">
        <ele>600.8</ele>
        <time>2022-12-31 11:19:21</time>
      </trkpt>
      <trkpt lat="40.18851" lon="-3.79446">
        <ele>600.8</ele>
        <time>2022-12-31 11:19:22</time>
      </trkpt>
      <trkpt lat="40.18853" lon="-3.79451">
        <ele>600.8</ele>
        <time>2022-12-31 11:19:23</time>
      </trkpt>
      <trkpt lat="40.18854" lon="-3.79455">
        <ele>601</ele>
        <time>2022-12-31 11:19:24</time>
      </trkpt>
      <trkpt lat="40.18856" lon="-3.79459">
        <ele>601</ele>
        <time>2022-12-31 11:19:25</time>
      </trkpt>
      <trkpt lat="40.18857" lon="-3.79463">
        <ele>600.8</ele>
        <time>2022-12-31 11:19:26</time>
      </trkpt>
      <trkpt lat="40.18859" lon="-3.79467">
        <ele>601</ele>
        <time>2022-12-31 11:19:27</time>
      </trkpt>
      <trkpt lat="40.18861" lon="-3.79472">
        <ele>601.2</ele>
        <time>2022-12-31 11:19:28</time>
      </trkpt>
      <trkpt lat="40.18862" lon="-3.79477">
        <ele>601.2</ele>
        <time>2022-12-31 11:19:29</time>
      </trkpt>
      <trkpt lat="40.18864" lon="-3.79482">
        <ele>601.2</ele>
        <time>2022-12-31 11:19:30</time>
      </trkpt>
      <trkpt lat="40.18866" lon="-3.79488">
        <ele>601.4</ele>
        <time>2022-12-31 11:19:31</time>
      </trkpt>
      <trkpt lat="40.18867" lon="-3.79493">
        <ele>601.4</ele>
        <time>2022-12-31 11:19:32</time>
      </trkpt>
      <trkpt lat="40.18869" lon="-3.79499">
        <ele>601.4</ele>
        <time>2022-12-31 11:19:33</time>
      </trkpt>
      <trkpt lat="40.1887" lon="-3.79504">
        <ele>601.6</ele>
        <time>2022-12-31 11:19:34</time>
      </trkpt>
      <trkpt lat="40.18872" lon="-3.7951">
        <ele>601.6</ele>
        <time>2022-12-31 11:19:35</time>
      </trkpt>
      <trkpt lat="40.18874" lon="-3.79516">
        <ele>601.6</ele>
        <time>2022-12-31 11:19:36</time>
      </trkpt>
      <trkpt lat="40.18876" lon="-3.79522">
        <ele>601.8</ele>
        <time>2022-12-31 11:19:37</time>
      </trkpt>
      <trkpt lat="40.18878" lon="-3.79528">
        <ele>601.8</ele>
        <time>2022-12-31 11:19:38</time>
      </trkpt>
      <trkpt lat="40.1888" lon="-3.79534">
        <ele>601.8</ele>
        <time>2022-12-31 11:19:39</time>
      </trkpt>
      <trkpt lat="40.18882" lon="-3.7954">
        <ele>601.6</ele>
        <time>2022-12-31 11:19:40</time>
      </trkpt>
      <trkpt lat="40.18883" lon="-3.79547">
        <ele>601.6</ele>
        <time>2022-12-31 11:19:41</time>
      </trkpt>
      <trkpt lat="40.18885" lon="-3.79553">
        <ele>601.6</ele>
        <time>2022-12-31 11:19:42</time>
      </trkpt>
      <trkpt lat="40.18887" lon="-3.7956">
        <ele>601.6</ele>
        <time>2022-12-31 11:19:43</time>
      </trkpt>
      <trkpt lat="40.18889" lon="-3.79567">
        <ele>601.6</ele>
        <time>2022-12-31 11:19:44</time>
      </trkpt>
      <trkpt lat="40.1889" lon="-3.79574">
        <ele>601.4</ele>
        <time>2022-12-31 11:19:45</time>
      </trkpt>
      <trkpt lat="40.18892" lon="-3.79581">
        <ele>601.6</ele>
        <time>2022-12-31 11:19:46</time>
      </trkpt>
      <trkpt lat="40.18894" lon="-3.79588">
        <ele>601.6</ele>
        <time>2022-12-31 11:19:47</time>
      </trkpt>
      <trkpt lat="40.18896" lon="-3.79595">
        <ele>601.4</ele>
        <time>2022-12-31 11:19:48</time>
      </trkpt>
      <trkpt lat="40.18897" lon="-3.79602">
        <ele>601.4</ele>
        <time>2022-12-31 11:19:49</time>
      </trkpt>
      <trkpt lat="40.18899" lon="-3.7961">
        <ele>601.2</ele>
        <time>2022-12-31 11:19:50</time>
      </trkpt>
      <trkpt lat="40.189" lon="-3.79617">
        <ele>601.4</ele>
        <time>2022-12-31 11:19:51</time>
      </trkpt>
      <trkpt lat="40.18902" lon="-3.79624">
        <ele>601.2</ele>
        <time>2022-12-31 11:19:52</time>
      </trkpt>
      <trkpt lat="40.18903" lon="-3.79631">
        <ele>601.2</ele>
        <time>2022-12-31 11:19:53</time>
      </trkpt>
      <trkpt lat="40.18904" lon="-3.79638">
        <ele>601.4</ele>
        <time>2022-12-31 11:19:54</time>
      </trkpt>
      <trkpt lat="40.18905" lon="-3.79646">
        <ele>601.4</ele>
        <time>2022-12-31 11:19:55</time>
      </trkpt>
      <trkpt lat="40.18907" lon="-3.79653">
        <ele>601.2</ele>
        <time>2022-12-31 11:19:56</time>
      </trkpt>
      <trkpt lat="40.18908" lon="-3.7966">
        <ele>601.2</ele>
        <time>2022-12-31 11:19:57</time>
      </trkpt>
      <trkpt lat="40.18909" lon="-3.79667">
        <ele>601.2</ele>
        <time>2022-12-31 11:19:58</time>
      </trkpt>
      <trkpt lat="40.1891" lon="-3.79674">
        <ele>601.2</ele>
        <time>2022-12-31 11:19:59</time>
      </trkpt>
      <trkpt lat="40.18911" lon="-3.79682">
        <ele>601.2</ele>
        <time>2022-12-31 11:20:00</time>
      </trkpt>
      <trkpt lat="40.18911" lon="-3.7969">
        <ele>601.2</ele>
        <time>2022-12-31 11:20:01</time>
      </trkpt>
      <trkpt lat="40.18912" lon="-3.79697">
        <ele>601.4</ele>
        <time>2022-12-31 11:20:02</time>
      </trkpt>
      <trkpt lat="40.18912" lon="-3.79705">
        <ele>601.4</ele>
        <time>2022-12-31 11:20:03</time>
      </trkpt>
      <trkpt lat="40.18913" lon="-3.79712">
        <ele>601.2</ele>
        <time>2022-12-31 11:20:04</time>
      </trkpt>
      <trkpt lat="40.18913" lon="-3.79719">
        <ele>601.4</ele>
        <time>2022-12-31 11:20:05</time>
      </trkpt>
      <trkpt lat="40.18912" lon="-3.79727">
        <ele>601.4</ele>
        <time>2022-12-31 11:20:06</time>
      </trkpt>
      <trkpt lat="40.18912" lon="-3.79735">
        <ele>601.6</ele>
        <time>2022-12-31 11:20:07</time>
      </trkpt>
      <trkpt lat="40.18911" lon="-3.79743">
        <ele>601.4</ele>
        <time>2022-12-31 11:20:08</time>
      </trkpt>
      <trkpt lat="40.18911" lon="-3.79751">
        <ele>601.4</ele>
        <time>2022-12-31 11:20:09</time>
      </trkpt>
      <trkpt lat="40.1891" lon="-3.79758">
        <ele>601.6</ele>
        <time>2022-12-31 11:20:10</time>
      </trkpt>
      <trkpt lat="40.18909" lon="-3.79766">
        <ele>601.6</ele>
        <time>2022-12-31 11:20:11</time>
      </trkpt>
      <trkpt lat="40.18908" lon="-3.79773">
        <ele>601.6</ele>
        <time>2022-12-31 11:20:12</time>
      </trkpt>
      <trkpt lat="40.18906" lon="-3.79781">
        <ele>601.8</ele>
        <time>2022-12-31 11:20:13</time>
      </trkpt>
      <trkpt lat="40.18905" lon="-3.79788">
        <ele>601.6</ele>
        <time>2022-12-31 11:20:14</time>
      </trkpt>
      <trkpt lat="40.18903" lon="-3.79796">
        <ele>601.8</ele>
        <time>2022-12-31 11:20:15</time>
      </trkpt>
      <trkpt lat="40.18901" lon="-3.79803">
        <ele>601.8</ele>
        <time>2022-12-31 11:20:16</time>
      </trkpt>
      <trkpt lat="40.18899" lon="-3.7981">
        <ele>601.8</ele>
        <time>2022-12-31 11:20:17</time>
      </trkpt>
      <trkpt lat="40.18897" lon="-3.79817">
        <ele>602</ele>
        <time>2022-12-31 11:20:18</time>
      </trkpt>
      <trkpt lat="40.18895" lon="-3.79825">
        <ele>602</ele>
        <time>2022-12-31 11:20:19</time>
      </trkpt>
      <trkpt lat="40.18893" lon="-3.79832">
        <ele>602.2</ele>
        <time>2022-12-31 11:20:20</time>
      </trkpt>
      <trkpt lat="40.18892" lon="-3.79839">
        <ele>602.2</ele>
        <time>2022-12-31 11:20:21</time>
      </trkpt>
      <trkpt lat="40.1889" lon="-3.79847">
        <ele>602.4</ele>
        <time>2022-12-31 11:20:22</time>
      </trkpt>
      <trkpt lat="40.18888" lon="-3.79854">
        <ele>602.2</ele>
        <time>2022-12-31 11:20:23</time>
      </trkpt>
      <trkpt lat="40.18885" lon="-3.7986">
        <ele>602.4</ele>
        <time>2022-12-31 11:20:24</time>
      </trkpt>
      <trkpt lat="40.18883" lon="-3.79868">
        <ele>602.4</ele>
        <time>2022-12-31 11:20:25</time>
      </trkpt>
      <trkpt lat="40.18881" lon="-3.79874">
        <ele>602.4</ele>
        <time>2022-12-31 11:20:26</time>
      </trkpt>
      <trkpt lat="40.18879" lon="-3.79882">
        <ele>602.4</ele>
        <time>2022-12-31 11:20:27</time>
      </trkpt>
      <trkpt lat="40.18877" lon="-3.79889">
        <ele>602.4</ele>
        <time>2022-12-31 11:20:28</time>
      </trkpt>
      <trkpt lat="40.18875" lon="-3.79896">
        <ele>602.6</ele>
        <time>2022-12-31 11:20:29</time>
      </trkpt>
      <trkpt lat="40.18874" lon="-3.79903">
        <ele>602.4</ele>
        <time>2022-12-31 11:20:30</time>
      </trkpt>
      <trkpt lat="40.18872" lon="-3.7991">
        <ele>602.4</ele>
        <time>2022-12-31 11:20:31</time>
      </trkpt>
      <trkpt lat="40.1887" lon="-3.79917">
        <ele>602.6</ele>
        <time>2022-12-31 11:20:32</time>
      </trkpt>
      <trkpt lat="40.18868" lon="-3.79924">
        <ele>602.6</ele>
        <time>2022-12-31 11:20:33</time>
      </trkpt>
      <trkpt lat="40.18866" lon="-3.79932">
        <ele>602.6</ele>
        <time>2022-12-31 11:20:34</time>
      </trkpt>
      <trkpt lat="40.18863" lon="-3.79939">
        <ele>602.8</ele>
        <time>2022-12-31 11:20:35</time>
      </trkpt>
      <trkpt lat="40.18861" lon="-3.79947">
        <ele>602.8</ele>
        <time>2022-12-31 11:20:36</time>
      </trkpt>
      <trkpt lat="40.18859" lon="-3.79955">
        <ele>602.8</ele>
        <time>2022-12-31 11:20:37</time>
      </trkpt>
      <trkpt lat="40.18857" lon="-3.79962">
        <ele>603</ele>
        <time>2022-12-31 11:20:38</time>
      </trkpt>
      <trkpt lat="40.18855" lon="-3.7997">
        <ele>602.8</ele>
        <time>2022-12-31 11:20:39</time>
      </trkpt>
      <trkpt lat="40.18853" lon="-3.79977">
        <ele>603</ele>
        <time>2022-12-31 11:20:40</time>
      </trkpt>
      <trkpt lat="40.18852" lon="-3.79985">
        <ele>603</ele>
        <time>2022-12-31 11:20:41</time>
      </trkpt>
      <trkpt lat="40.1885" lon="-3.79993">
        <ele>603</ele>
        <time>2022-12-31 11:20:42</time>
      </trkpt>
      <trkpt lat="40.18848" lon="-3.80001">
        <ele>603</ele>
        <time>2022-12-31 11:20:43</time>
      </trkpt>
      <trkpt lat="40.18847" lon="-3.80008">
        <ele>603</ele>
        <time>2022-12-31 11:20:44</time>
      </trkpt>
      <trkpt lat="40.18846" lon="-3.80016">
        <ele>603.2</ele>
        <time>2022-12-31 11:20:45</time>
      </trkpt>
      <trkpt lat="40.18846" lon="-3.80024">
        <ele>603.4</ele>
        <time>2022-12-31 11:20:46</time>
      </trkpt>
      <trkpt lat="40.18845" lon="-3.80032">
        <ele>603.4</ele>
        <time>2022-12-31 11:20:47</time>
      </trkpt>
      <trkpt lat="40.18845" lon="-3.8004">
        <ele>603.6</ele>
        <time>2022-12-31 11:20:48</time>
      </trkpt>
      <trkpt lat="40.18845" lon="-3.80047">
        <ele>603.4</ele>
        <time>2022-12-31 11:20:49</time>
      </trkpt>
      <trkpt lat="40.18845" lon="-3.80055">
        <ele>603.4</ele>
        <time>2022-12-31 11:20:50</time>
      </trkpt>
      <trkpt lat="40.18845" lon="-3.80063">
        <ele>603.6</ele>
        <time>2022-12-31 11:20:51</time>
      </trkpt>
      <trkpt lat="40.18846" lon="-3.80071">
        <ele>603.6</ele>
        <time>2022-12-31 11:20:52</time>
      </trkpt>
      <trkpt lat="40.18847" lon="-3.80079">
        <ele>603.6</ele>
        <time>2022-12-31 11:20:53</time>
      </trkpt>
      <trkpt lat="40.18847" lon="-3.80087">
        <ele>603.6</ele>
        <time>2022-12-31 11:20:54</time>
      </trkpt>
      <trkpt lat="40.18847" lon="-3.80094">
        <ele>603.8</ele>
        <time>2022-12-31 11:20:55</time>
      </trkpt>
      <trkpt lat="40.18848" lon="-3.80102">
        <ele>603.8</ele>
        <time>2022-12-31 11:20:56</time>
      </trkpt>
      <trkpt lat="40.18848" lon="-3.80109">
        <ele>603.8</ele>
        <time>2022-12-31 11:20:57</time>
      </trkpt>
      <trkpt lat="40.18848" lon="-3.80117">
        <ele>603.8</ele>
        <time>2022-12-31 11:20:58</time>
      </trkpt>
      <trkpt lat="40.18849" lon="-3.80124">
        <ele>603.8</ele>
        <time>2022-12-31 11:20:59</time>
      </trkpt>
      <trkpt lat="40.1885" lon="-3.80132">
        <ele>604.2</ele>
        <time>2022-12-31 11:21:00</time>
      </trkpt>
      <trkpt lat="40.1885" lon="-3.8014">
        <ele>604.4</ele>
        <time>2022-12-31 11:21:01</time>
      </trkpt>
      <trkpt lat="40.18851" lon="-3.80148">
        <ele>604.6</ele>
        <time>2022-12-31 11:21:02</time>
      </trkpt>
      <trkpt lat="40.18851" lon="-3.80156">
        <ele>604.6</ele>
        <time>2022-12-31 11:21:03</time>
      </trkpt>
      <trkpt lat="40.18852" lon="-3.80164">
        <ele>604.6</ele>
        <time>2022-12-31 11:21:04</time>
      </trkpt>
      <trkpt lat="40.18852" lon="-3.80172">
        <ele>604.6</ele>
        <time>2022-12-31 11:21:05</time>
      </trkpt>
      <trkpt lat="40.18853" lon="-3.8018">
        <ele>604.8</ele>
        <time>2022-12-31 11:21:06</time>
      </trkpt>
      <trkpt lat="40.18854" lon="-3.80188">
        <ele>604.8</ele>
        <time>2022-12-31 11:21:07</time>
      </trkpt>
      <trkpt lat="40.18854" lon="-3.80196">
        <ele>605</ele>
        <time>2022-12-31 11:21:08</time>
      </trkpt>
      <trkpt lat="40.18854" lon="-3.80204">
        <ele>605</ele>
        <time>2022-12-31 11:21:09</time>
      </trkpt>
      <trkpt lat="40.18855" lon="-3.80212">
        <ele>605</ele>
        <time>2022-12-31 11:21:10</time>
      </trkpt>
      <trkpt lat="40.18855" lon="-3.8022">
        <ele>605</ele>
        <time>2022-12-31 11:21:11</time>
      </trkpt>
      <trkpt lat="40.18856" lon="-3.80228">
        <ele>605.2</ele>
        <time>2022-12-31 11:21:12</time>
      </trkpt>
      <trkpt lat="40.18856" lon="-3.80236">
        <ele>605.2</ele>
        <time>2022-12-31 11:21:13</time>
      </trkpt>
      <trkpt lat="40.18857" lon="-3.80244">
        <ele>605.2</ele>
        <time>2022-12-31 11:21:14</time>
      </trkpt>
      <trkpt lat="40.18857" lon="-3.80252">
        <ele>605.2</ele>
        <time>2022-12-31 11:21:15</time>
      </trkpt>
      <trkpt lat="40.18858" lon="-3.8026">
        <ele>605.4</ele>
        <time>2022-12-31 11:21:16</time>
      </trkpt>
      <trkpt lat="40.18858" lon="-3.80268">
        <ele>605.2</ele>
        <time>2022-12-31 11:21:17</time>
      </trkpt>
      <trkpt lat="40.18859" lon="-3.80276">
        <ele>605.4</ele>
        <time>2022-12-31 11:21:18</time>
      </trkpt>
      <trkpt lat="40.1886" lon="-3.80284">
        <ele>605.4</ele>
        <time>2022-12-31 11:21:19</time>
      </trkpt>
      <trkpt lat="40.18861" lon="-3.80292">
        <ele>605.4</ele>
        <time>2022-12-31 11:21:20</time>
      </trkpt>
      <trkpt lat="40.18861" lon="-3.80299">
        <ele>605.4</ele>
        <time>2022-12-31 11:21:21</time>
      </trkpt>
      <trkpt lat="40.18861" lon="-3.80307">
        <ele>605.4</ele>
        <time>2022-12-31 11:21:22</time>
      </trkpt>
      <trkpt lat="40.18862" lon="-3.80315">
        <ele>605.6</ele>
        <time>2022-12-31 11:21:23</time>
      </trkpt>
      <trkpt lat="40.18863" lon="-3.80323">
        <ele>605.6</ele>
        <time>2022-12-31 11:21:24</time>
      </trkpt>
      <trkpt lat="40.18864" lon="-3.80331">
        <ele>605.4</ele>
        <time>2022-12-31 11:21:25</time>
      </trkpt>
      <trkpt lat="40.18865" lon="-3.80339">
        <ele>605.6</ele>
        <time>2022-12-31 11:21:26</time>
      </trkpt>
      <trkpt lat="40.18867" lon="-3.80346">
        <ele>605.4</ele>
        <time>2022-12-31 11:21:27</time>
      </trkpt>
      <trkpt lat="40.18869" lon="-3.80352">
        <ele>605.8</ele>
        <time>2022-12-31 11:21:28</time>
      </trkpt>
      <trkpt lat="40.18871" lon="-3.80358">
        <ele>605.8</ele>
        <time>2022-12-31 11:21:29</time>
      </trkpt>
      <trkpt lat="40.18873" lon="-3.80364">
        <ele>605.8</ele>
        <time>2022-12-31 11:21:30</time>
      </trkpt>
      <trkpt lat="40.18875" lon="-3.8037">
        <ele>606</ele>
        <time>2022-12-31 11:21:31</time>
      </trkpt>
      <trkpt lat="40.18877" lon="-3.80375">
        <ele>606</ele>
        <time>2022-12-31 11:21:32</time>
      </trkpt>
      <trkpt lat="40.18878" lon="-3.80381">
        <ele>606</ele>
        <time>2022-12-31 11:21:33</time>
      </trkpt>
      <trkpt lat="40.1888" lon="-3.80386">
        <ele>606.2</ele>
        <time>2022-12-31 11:21:34</time>
      </trkpt>
      <trkpt lat="40.18881" lon="-3.80391">
        <ele>606.2</ele>
        <time>2022-12-31 11:21:35</time>
      </trkpt>
      <trkpt lat="40.18883" lon="-3.80395">
        <ele>606.2</ele>
        <time>2022-12-31 11:21:36</time>
      </trkpt>
      <trkpt lat="40.18884" lon="-3.804">
        <ele>606.6</ele>
        <time>2022-12-31 11:21:37</time>
      </trkpt>
      <trkpt lat="40.18885" lon="-3.80405">
        <ele>606.8</ele>
        <time>2022-12-31 11:21:38</time>
      </trkpt>
      <trkpt lat="40.18886" lon="-3.80409">
        <ele>607.2</ele>
        <time>2022-12-31 11:21:39</time>
      </trkpt>
      <trkpt lat="40.18887" lon="-3.80413">
        <ele>607.4</ele>
        <time>2022-12-31 11:21:40</time>
      </trkpt>
      <trkpt lat="40.18888" lon="-3.80417">
        <ele>607.8</ele>
        <time>2022-12-31 11:21:41</time>
      </trkpt>
      <trkpt lat="40.18889" lon="-3.80422">
        <ele>608.2</ele>
        <time>2022-12-31 11:21:42</time>
      </trkpt>
      <trkpt lat="40.18891" lon="-3.80426">
        <ele>608.8</ele>
        <time>2022-12-31 11:21:43</time>
      </trkpt>
      <trkpt lat="40.18892" lon="-3.80431">
        <ele>609</ele>
        <time>2022-12-31 11:21:44</time>
      </trkpt>
      <trkpt lat="40.18893" lon="-3.80435">
        <ele>609</ele>
        <time>2022-12-31 11:21:45</time>
      </trkpt>
      <trkpt lat="40.18894" lon="-3.80439">
        <ele>609.2</ele>
        <time>2022-12-31 11:21:46</time>
      </trkpt>
      <trkpt lat="40.18895" lon="-3.80443">
        <ele>609.6</ele>
        <time>2022-12-31 11:21:47</time>
      </trkpt>
      <trkpt lat="40.18896" lon="-3.80448">
        <ele>610</ele>
        <time>2022-12-31 11:21:48</time>
      </trkpt>
      <trkpt lat="40.18897" lon="-3.80451">
        <ele>610.2</ele>
        <time>2022-12-31 11:21:49</time>
      </trkpt>
      <trkpt lat="40.18897" lon="-3.80455">
        <ele>610.6</ele>
        <time>2022-12-31 11:21:50</time>
      </trkpt>
      <trkpt lat="40.18898" lon="-3.80459">
        <ele>610.8</ele>
        <time>2022-12-31 11:21:51</time>
      </trkpt>
      <trkpt lat="40.18899" lon="-3.80463">
        <ele>611</ele>
        <time>2022-12-31 11:21:52</time>
      </trkpt>
      <trkpt lat="40.18899" lon="-3.80467">
        <ele>611.4</ele>
        <time>2022-12-31 11:21:53</time>
      </trkpt>
      <trkpt lat="40.189" lon="-3.80472">
        <ele>611.6</ele>
        <time>2022-12-31 11:21:54</time>
      </trkpt>
      <trkpt lat="40.18901" lon="-3.80476">
        <ele>612</ele>
        <time>2022-12-31 11:21:55</time>
      </trkpt>
      <trkpt lat="40.18901" lon="-3.8048">
        <ele>612.4</ele>
        <time>2022-12-31 11:21:56</time>
      </trkpt>
      <trkpt lat="40.18903" lon="-3.80484">
        <ele>612.6</ele>
        <time>2022-12-31 11:21:57</time>
      </trkpt>
      <trkpt lat="40.18903" lon="-3.80489">
        <ele>612.8</ele>
        <time>2022-12-31 11:21:58</time>
      </trkpt>
      <trkpt lat="40.18904" lon="-3.80494">
        <ele>613.2</ele>
        <time>2022-12-31 11:21:59</time>
      </trkpt>
      <trkpt lat="40.18904" lon="-3.80499">
        <ele>613.4</ele>
        <time>2022-12-31 11:22:00</time>
      </trkpt>
      <trkpt lat="40.18904" lon="-3.80504">
        <ele>613.6</ele>
        <time>2022-12-31 11:22:01</time>
      </trkpt>
      <trkpt lat="40.18905" lon="-3.8051">
        <ele>613.8</ele>
        <time>2022-12-31 11:22:02</time>
      </trkpt>
      <trkpt lat="40.18906" lon="-3.80515">
        <ele>614.2</ele>
        <time>2022-12-31 11:22:03</time>
      </trkpt>
      <trkpt lat="40.18907" lon="-3.80521">
        <ele>614.2</ele>
        <time>2022-12-31 11:22:04</time>
      </trkpt>
      <trkpt lat="40.18908" lon="-3.80527">
        <ele>614.4</ele>
        <time>2022-12-31 11:22:05</time>
      </trkpt>
      <trkpt lat="40.18909" lon="-3.80534">
        <ele>614.4</ele>
        <time>2022-12-31 11:22:06</time>
      </trkpt>
      <trkpt lat="40.1891" lon="-3.8054">
        <ele>614.6</ele>
        <time>2022-12-31 11:22:07</time>
      </trkpt>
      <trkpt lat="40.18911" lon="-3.80547">
        <ele>614.6</ele>
        <time>2022-12-31 11:22:08</time>
      </trkpt>
      <trkpt lat="40.18911" lon="-3.80554">
        <ele>614.6</ele>
        <time>2022-12-31 11:22:09</time>
      </trkpt>
      <trkpt lat="40.18912" lon="-3.80562">
        <ele>614.6</ele>
        <time>2022-12-31 11:22:10</time>
      </trkpt>
      <trkpt lat="40.18913" lon="-3.80569">
        <ele>614.6</ele>
        <time>2022-12-31 11:22:11</time>
      </trkpt>
      <trkpt lat="40.18914" lon="-3.80577">
        <ele>614.8</ele>
        <time>2022-12-31 11:22:12</time>
      </trkpt>
      <trkpt lat="40.18915" lon="-3.80585">
        <ele>614.6</ele>
        <time>2022-12-31 11:22:13</time>
      </trkpt>
      <trkpt lat="40.18916" lon="-3.80594">
        <ele>614.6</ele>
        <time>2022-12-31 11:22:14</time>
      </trkpt>
      <trkpt lat="40.18916" lon="-3.80603">
        <ele>614.8</ele>
        <time>2022-12-31 11:22:15</time>
      </trkpt>
      <trkpt lat="40.18916" lon="-3.80612">
        <ele>614.6</ele>
        <time>2022-12-31 11:22:16</time>
      </trkpt>
      <trkpt lat="40.18916" lon="-3.80623">
        <ele>614.6</ele>
        <time>2022-12-31 11:22:17</time>
      </trkpt>
      <trkpt lat="40.18917" lon="-3.80633">
        <ele>614.4</ele>
        <time>2022-12-31 11:22:18</time>
      </trkpt>
      <trkpt lat="40.18917" lon="-3.80644">
        <ele>614.2</ele>
        <time>2022-12-31 11:22:19</time>
      </trkpt>
      <trkpt lat="40.18918" lon="-3.80656">
        <ele>613.8</ele>
        <time>2022-12-31 11:22:20</time>
      </trkpt>
      <trkpt lat="40.18918" lon="-3.80667">
        <ele>613.2</ele>
        <time>2022-12-31 11:22:21</time>
      </trkpt>
      <trkpt lat="40.18918" lon="-3.80678">
        <ele>612.8</ele>
        <time>2022-12-31 11:22:22</time>
      </trkpt>
      <trkpt lat="40.18918" lon="-3.80689">
        <ele>612.4</ele>
        <time>2022-12-31 11:22:23</time>
      </trkpt>
      <trkpt lat="40.18918" lon="-3.80699">
        <ele>611.6</ele>
        <time>2022-12-31 11:22:24</time>
      </trkpt>
      <trkpt lat="40.18919" lon="-3.80707">
        <ele>611</ele>
        <time>2022-12-31 11:22:25</time>
      </trkpt>
      <trkpt lat="40.1892" lon="-3.80715">
        <ele>611</ele>
        <time>2022-12-31 11:22:26</time>
      </trkpt>
      <trkpt lat="40.18922" lon="-3.80721">
        <ele>610.2</ele>
        <time>2022-12-31 11:22:27</time>
      </trkpt>
      <trkpt lat="40.18926" lon="-3.80725">
        <ele>609.6</ele>
        <time>2022-12-31 11:22:28</time>
      </trkpt>
      <trkpt lat="40.18929" lon="-3.80726">
        <ele>609.4</ele>
        <time>2022-12-31 11:22:29</time>
      </trkpt>
      <trkpt lat="40.18933" lon="-3.80726">
        <ele>609.2</ele>
        <time>2022-12-31 11:22:30</time>
      </trkpt>
      <trkpt lat="40.18937" lon="-3.80725">
        <ele>609</ele>
        <time>2022-12-31 11:22:31</time>
      </trkpt>
      <trkpt lat="40.18942" lon="-3.80723">
        <ele>608.8</ele>
        <time>2022-12-31 11:22:32</time>
      </trkpt>
      <trkpt lat="40.18947" lon="-3.80721">
        <ele>608.8</ele>
        <time>2022-12-31 11:22:33</time>
      </trkpt>
      <trkpt lat="40.18952" lon="-3.80719">
        <ele>608.6</ele>
        <time>2022-12-31 11:22:34</time>
      </trkpt>
      <trkpt lat="40.18957" lon="-3.80717">
        <ele>608.4</ele>
        <time>2022-12-31 11:22:35</time>
      </trkpt>
      <trkpt lat="40.18963" lon="-3.80716">
        <ele>608.4</ele>
        <time>2022-12-31 11:22:36</time>
      </trkpt>
      <trkpt lat="40.18968" lon="-3.80714">
        <ele>608.2</ele>
        <time>2022-12-31 11:22:37</time>
      </trkpt>
      <trkpt lat="40.18973" lon="-3.80712">
        <ele>608.2</ele>
        <time>2022-12-31 11:22:38</time>
      </trkpt>
      <trkpt lat="40.18978" lon="-3.8071">
        <ele>608.2</ele>
        <time>2022-12-31 11:22:39</time>
      </trkpt>
      <trkpt lat="40.18984" lon="-3.80708">
        <ele>608</ele>
        <time>2022-12-31 11:22:40</time>
      </trkpt>
      <trkpt lat="40.18989" lon="-3.80706">
        <ele>607.8</ele>
        <time>2022-12-31 11:22:41</time>
      </trkpt>
      <trkpt lat="40.18995" lon="-3.80704">
        <ele>608</ele>
        <time>2022-12-31 11:22:42</time>
      </trkpt>
      <trkpt lat="40.19001" lon="-3.80702">
        <ele>607.8</ele>
        <time>2022-12-31 11:22:43</time>
      </trkpt>
      <trkpt lat="40.19006" lon="-3.807">
        <ele>608</ele>
        <time>2022-12-31 11:22:44</time>
      </trkpt>
      <trkpt lat="40.19012" lon="-3.80697">
        <ele>608</ele>
        <time>2022-12-31 11:22:45</time>
      </trkpt>
      <trkpt lat="40.19019" lon="-3.80695">
        <ele>607.8</ele>
        <time>2022-12-31 11:22:46</time>
      </trkpt>
      <trkpt lat="40.19025" lon="-3.80693">
        <ele>607.8</ele>
        <time>2022-12-31 11:22:47</time>
      </trkpt>
      <trkpt lat="40.1903" lon="-3.80691">
        <ele>607.8</ele>
        <time>2022-12-31 11:22:48</time>
      </trkpt>
      <trkpt lat="40.19036" lon="-3.80689">
        <ele>607.6</ele>
        <time>2022-12-31 11:22:49</time>
      </trkpt>
      <trkpt lat="40.19042" lon="-3.80686">
        <ele>607.6</ele>
        <time>2022-12-31 11:22:50</time>
      </trkpt>
      <trkpt lat="40.19048" lon="-3.80684">
        <ele>607.4</ele>
        <time>2022-12-31 11:22:51</time>
      </trkpt>
      <trkpt lat="40.19054" lon="-3.80683">
        <ele>607.4</ele>
        <time>2022-12-31 11:22:52</time>
      </trkpt>
      <trkpt lat="40.19059" lon="-3.80681">
        <ele>607.2</ele>
        <time>2022-12-31 11:22:53</time>
      </trkpt>
      <trkpt lat="40.19065" lon="-3.8068">
        <ele>607.2</ele>
        <time>2022-12-31 11:22:54</time>
      </trkpt>
      <trkpt lat="40.1907" lon="-3.80679">
        <ele>607.2</ele>
        <time>2022-12-31 11:22:55</time>
      </trkpt>
      <trkpt lat="40.19076" lon="-3.80678">
        <ele>607.2</ele>
        <time>2022-12-31 11:22:56</time>
      </trkpt>
      <trkpt lat="40.19082" lon="-3.80676">
        <ele>607</ele>
        <time>2022-12-31 11:22:57</time>
      </trkpt>
      <trkpt lat="40.19088" lon="-3.80675">
        <ele>607.2</ele>
        <time>2022-12-31 11:22:58</time>
      </trkpt>
      <trkpt lat="40.19093" lon="-3.80673">
        <ele>607.2</ele>
        <time>2022-12-31 11:22:59</time>
      </trkpt>
      <trkpt lat="40.19099" lon="-3.80672">
        <ele>607</ele>
        <time>2022-12-31 11:23:00</time>
      </trkpt>
      <trkpt lat="40.19105" lon="-3.8067">
        <ele>607</ele>
        <time>2022-12-31 11:23:01</time>
      </trkpt>
      <trkpt lat="40.1911" lon="-3.80669">
        <ele>606.8</ele>
        <time>2022-12-31 11:23:02</time>
      </trkpt>
      <trkpt lat="40.19116" lon="-3.80667">
        <ele>607</ele>
        <time>2022-12-31 11:23:03</time>
      </trkpt>
      <trkpt lat="40.19122" lon="-3.80665">
        <ele>607</ele>
        <time>2022-12-31 11:23:04</time>
      </trkpt>
      <trkpt lat="40.19128" lon="-3.80664">
        <ele>607</ele>
        <time>2022-12-31 11:23:05</time>
      </trkpt>
      <trkpt lat="40.19134" lon="-3.80662">
        <ele>607</ele>
        <time>2022-12-31 11:23:06</time>
      </trkpt>
      <trkpt lat="40.1914" lon="-3.80661">
        <ele>607</ele>
        <time>2022-12-31 11:23:07</time>
      </trkpt>
      <trkpt lat="40.19146" lon="-3.8066">
        <ele>607</ele>
        <time>2022-12-31 11:23:08</time>
      </trkpt>
      <trkpt lat="40.19152" lon="-3.80658">
        <ele>607</ele>
        <time>2022-12-31 11:23:09</time>
      </trkpt>
      <trkpt lat="40.19157" lon="-3.80657">
        <ele>606.8</ele>
        <time>2022-12-31 11:23:10</time>
      </trkpt>
      <trkpt lat="40.19163" lon="-3.80655">
        <ele>607</ele>
        <time>2022-12-31 11:23:11</time>
      </trkpt>
      <trkpt lat="40.19169" lon="-3.80654">
        <ele>607</ele>
        <time>2022-12-31 11:23:12</time>
      </trkpt>
      <trkpt lat="40.19175" lon="-3.80653">
        <ele>607</ele>
        <time>2022-12-31 11:23:13</time>
      </trkpt>
      <trkpt lat="40.19181" lon="-3.80651">
        <ele>607</ele>
        <time>2022-12-31 11:23:14</time>
      </trkpt>
      <trkpt lat="40.19187" lon="-3.8065">
        <ele>607.2</ele>
        <time>2022-12-31 11:23:15</time>
      </trkpt>
      <trkpt lat="40.19192" lon="-3.80647">
        <ele>607</ele>
        <time>2022-12-31 11:23:16</time>
      </trkpt>
      <trkpt lat="40.19197" lon="-3.80645">
        <ele>607</ele>
        <time>2022-12-31 11:23:17</time>
      </trkpt>
      <trkpt lat="40.19203" lon="-3.80643">
        <ele>607</ele>
        <time>2022-12-31 11:23:18</time>
      </trkpt>
      <trkpt lat="40.19209" lon="-3.80643">
        <ele>607.2</ele>
        <time>2022-12-31 11:23:19</time>
      </trkpt>
      <trkpt lat="40.19216" lon="-3.80642">
        <ele>607.2</ele>
        <time>2022-12-31 11:23:20</time>
      </trkpt>
      <trkpt lat="40.19222" lon="-3.80642">
        <ele>607.2</ele>
        <time>2022-12-31 11:23:21</time>
      </trkpt>
      <trkpt lat="40.19228" lon="-3.80641">
        <ele>607.2</ele>
        <time>2022-12-31 11:23:22</time>
      </trkpt>
      <trkpt lat="40.19234" lon="-3.8064">
        <ele>607</ele>
        <time>2022-12-31 11:23:23</time>
      </trkpt>
      <trkpt lat="40.1924" lon="-3.80639">
        <ele>607.2</ele>
        <time>2022-12-31 11:23:24</time>
      </trkpt>
      <trkpt lat="40.19245" lon="-3.80638">
        <ele>607.2</ele>
        <time>2022-12-31 11:23:25</time>
      </trkpt>
      <trkpt lat="40.19251" lon="-3.80638">
        <ele>607.2</ele>
        <time>2022-12-31 11:23:26</time>
      </trkpt>
      <trkpt lat="40.19257" lon="-3.80637">
        <ele>607.2</ele>
        <time>2022-12-31 11:23:27</time>
      </trkpt>
      <trkpt lat="40.19263" lon="-3.80636">
        <ele>607.2</ele>
        <time>2022-12-31 11:23:28</time>
      </trkpt>
      <trkpt lat="40.19269" lon="-3.80634">
        <ele>607.2</ele>
        <time>2022-12-31 11:23:29</time>
      </trkpt>
      <trkpt lat="40.19275" lon="-3.80633">
        <ele>607.2</ele>
        <time>2022-12-31 11:23:30</time>
      </trkpt>
      <trkpt lat="40.1928" lon="-3.80632">
        <ele>607.2</ele>
        <time>2022-12-31 11:23:31</time>
      </trkpt>
      <trkpt lat="40.19286" lon="-3.8063">
        <ele>607.2</ele>
        <time>2022-12-31 11:23:32</time>
      </trkpt>
      <trkpt lat="40.19292" lon="-3.80629">
        <ele>607.2</ele>
        <time>2022-12-31 11:23:33</time>
      </trkpt>
      <trkpt lat="40.19298" lon="-3.80627">
        <ele>607.2</ele>
        <time>2022-12-31 11:23:34</time>
      </trkpt>
      <trkpt lat="40.19304" lon="-3.80626">
        <ele>607</ele>
        <time>2022-12-31 11:23:35</time>
      </trkpt>
      <trkpt lat="40.19309" lon="-3.80624">
        <ele>607.2</ele>
        <time>2022-12-31 11:23:36</time>
      </trkpt>
      <trkpt lat="40.19316" lon="-3.80623">
        <ele>607.2</ele>
        <time>2022-12-31 11:23:37</time>
      </trkpt>
      <trkpt lat="40.19322" lon="-3.80622">
        <ele>607.2</ele>
        <time>2022-12-31 11:23:38</time>
      </trkpt>
      <trkpt lat="40.19327" lon="-3.8062">
        <ele>607.2</ele>
        <time>2022-12-31 11:23:39</time>
      </trkpt>
      <trkpt lat="40.19333" lon="-3.80618">
        <ele>607.2</ele>
        <time>2022-12-31 11:23:40</time>
      </trkpt>
      <trkpt lat="40.19339" lon="-3.80616">
        <ele>607.2</ele>
        <time>2022-12-31 11:23:41</time>
      </trkpt>
      <trkpt lat="40.19345" lon="-3.80614">
        <ele>607</ele>
        <time>2022-12-31 11:23:42</time>
      </trkpt>
      <trkpt lat="40.1935" lon="-3.80612">
        <ele>607</ele>
        <time>2022-12-31 11:23:43</time>
      </trkpt>
      <trkpt lat="40.19356" lon="-3.8061">
        <ele>607</ele>
        <time>2022-12-31 11:23:44</time>
      </trkpt>
      <trkpt lat="40.19362" lon="-3.80608">
        <ele>607</ele>
        <time>2022-12-31 11:23:45</time>
      </trkpt>
      <trkpt lat="40.19369" lon="-3.80605">
        <ele>607</ele>
        <time>2022-12-31 11:23:46</time>
      </trkpt>
      <trkpt lat="40.19375" lon="-3.80602">
        <ele>607</ele>
        <time>2022-12-31 11:23:47</time>
      </trkpt>
      <trkpt lat="40.19381" lon="-3.80597">
        <ele>607</ele>
        <time>2022-12-31 11:23:48</time>
      </trkpt>
      <trkpt lat="40.19386" lon="-3.80595">
        <ele>607</ele>
        <time>2022-12-31 11:23:49</time>
      </trkpt>
      <trkpt lat="40.19392" lon="-3.80592">
        <ele>606.8</ele>
        <time>2022-12-31 11:23:50</time>
      </trkpt>
      <trkpt lat="40.19399" lon="-3.8059">
        <ele>607</ele>
        <time>2022-12-31 11:23:51</time>
      </trkpt>
      <trkpt lat="40.19405" lon="-3.80588">
        <ele>606.8</ele>
        <time>2022-12-31 11:23:52</time>
      </trkpt>
      <trkpt lat="40.19411" lon="-3.80586">
        <ele>607</ele>
        <time>2022-12-31 11:23:53</time>
      </trkpt>
      <trkpt lat="40.19417" lon="-3.80583">
        <ele>606.8</ele>
        <time>2022-12-31 11:23:54</time>
      </trkpt>
      <trkpt lat="40.19422" lon="-3.8058">
        <ele>606.8</ele>
        <time>2022-12-31 11:23:55</time>
      </trkpt>
      <trkpt lat="40.19427" lon="-3.80575">
        <ele>606.6</ele>
        <time>2022-12-31 11:23:56</time>
      </trkpt>
      <trkpt lat="40.19432" lon="-3.8057">
        <ele>606.6</ele>
        <time>2022-12-31 11:23:57</time>
      </trkpt>
      <trkpt lat="40.19436" lon="-3.80565">
        <ele>606.2</ele>
        <time>2022-12-31 11:23:58</time>
      </trkpt>
      <trkpt lat="40.19441" lon="-3.80559">
        <ele>606.2</ele>
        <time>2022-12-31 11:23:59</time>
      </trkpt>
      <trkpt lat="40.19445" lon="-3.80553">
        <ele>606</ele>
        <time>2022-12-31 11:24:00</time>
      </trkpt>
      <trkpt lat="40.19448" lon="-3.80546">
        <ele>605.8</ele>
        <time>2022-12-31 11:24:01</time>
      </trkpt>
      <trkpt lat="40.19452" lon="-3.8054">
        <ele>605.6</ele>
        <time>2022-12-31 11:24:02</time>
      </trkpt>
      <trkpt lat="40.19457" lon="-3.80534">
        <ele>605.6</ele>
        <time>2022-12-31 11:24:03</time>
      </trkpt>
      <trkpt lat="40.19461" lon="-3.80527">
        <ele>605.6</ele>
        <time>2022-12-31 11:24:04</time>
      </trkpt>
      <trkpt lat="40.19465" lon="-3.80521">
        <ele>605.6</ele>
        <time>2022-12-31 11:24:05</time>
      </trkpt>
      <trkpt lat="40.19469" lon="-3.80515">
        <ele>605.4</ele>
        <time>2022-12-31 11:24:06</time>
      </trkpt>
      <trkpt lat="40.19473" lon="-3.80509">
        <ele>605.4</ele>
        <time>2022-12-31 11:24:07</time>
      </trkpt>
      <trkpt lat="40.19478" lon="-3.80503">
        <ele>605.4</ele>
        <time>2022-12-31 11:24:08</time>
      </trkpt>
      <trkpt lat="40.19483" lon="-3.80499">
        <ele>605.4</ele>
        <time>2022-12-31 11:24:09</time>
      </trkpt>
      <trkpt lat="40.19488" lon="-3.80495">
        <ele>605.4</ele>
        <time>2022-12-31 11:24:10</time>
      </trkpt>
      <trkpt lat="40.19494" lon="-3.80494">
        <ele>605.4</ele>
        <time>2022-12-31 11:24:11</time>
      </trkpt>
      <trkpt lat="40.19499" lon="-3.80495">
        <ele>605.6</ele>
        <time>2022-12-31 11:24:12</time>
      </trkpt>
      <trkpt lat="40.19504" lon="-3.80499">
        <ele>605.6</ele>
        <time>2022-12-31 11:24:13</time>
      </trkpt>
      <trkpt lat="40.19508" lon="-3.80504">
        <ele>605.6</ele>
        <time>2022-12-31 11:24:14</time>
      </trkpt>
      <trkpt lat="40.19512" lon="-3.8051">
        <ele>605.8</ele>
        <time>2022-12-31 11:24:15</time>
      </trkpt>
      <trkpt lat="40.19516" lon="-3.80515">
        <ele>605.6</ele>
        <time>2022-12-31 11:24:16</time>
      </trkpt>
      <trkpt lat="40.19519" lon="-3.80522">
        <ele>605.8</ele>
        <time>2022-12-31 11:24:17</time>
      </trkpt>
      <trkpt lat="40.19522" lon="-3.80528">
        <ele>606</ele>
        <time>2022-12-31 11:24:18</time>
      </trkpt>
      <trkpt lat="40.19526" lon="-3.80534">
        <ele>606.4</ele>
        <time>2022-12-31 11:24:19</time>
      </trkpt>
      <trkpt lat="40.19529" lon="-3.80539">
        <ele>606.4</ele>
        <time>2022-12-31 11:24:20</time>
      </trkpt>
      <trkpt lat="40.19532" lon="-3.80545">
        <ele>606.6</ele>
        <time>2022-12-31 11:24:21</time>
      </trkpt>
      <trkpt lat="40.19536" lon="-3.8055">
        <ele>607</ele>
        <time>2022-12-31 11:24:22</time>
      </trkpt>
      <trkpt lat="40.19539" lon="-3.80555">
        <ele>607.2</ele>
        <time>2022-12-31 11:24:23</time>
      </trkpt>
      <trkpt lat="40.19543" lon="-3.80561">
        <ele>607.6</ele>
        <time>2022-12-31 11:24:24</time>
      </trkpt>
      <trkpt lat="40.19546" lon="-3.80566">
        <ele>607.6</ele>
        <time>2022-12-31 11:24:25</time>
      </trkpt>
      <trkpt lat="40.19549" lon="-3.80572">
        <ele>607.8</ele>
        <time>2022-12-31 11:24:26</time>
      </trkpt>
      <trkpt lat="40.19552" lon="-3.80578">
        <ele>607.8</ele>
        <time>2022-12-31 11:24:27</time>
      </trkpt>
      <trkpt lat="40.19556" lon="-3.80584">
        <ele>608</ele>
        <time>2022-12-31 11:24:28</time>
      </trkpt>
      <trkpt lat="40.19559" lon="-3.80589">
        <ele>608.2</ele>
        <time>2022-12-31 11:24:29</time>
      </trkpt>
      <trkpt lat="40.19563" lon="-3.80595">
        <ele>608.4</ele>
        <time>2022-12-31 11:24:30</time>
      </trkpt>
      <trkpt lat="40.19566" lon="-3.80601">
        <ele>608.4</ele>
        <time>2022-12-31 11:24:31</time>
      </trkpt>
      <trkpt lat="40.19569" lon="-3.80607">
        <ele>608.6</ele>
        <time>2022-12-31 11:24:32</time>
      </trkpt>
      <trkpt lat="40.19573" lon="-3.80613">
        <ele>608.8</ele>
        <time>2022-12-31 11:24:33</time>
      </trkpt>
      <trkpt lat="40.19576" lon="-3.80619">
        <ele>608.8</ele>
        <time>2022-12-31 11:24:34</time>
      </trkpt>
      <trkpt lat="40.1958" lon="-3.80625">
        <ele>609</ele>
        <time>2022-12-31 11:24:35</time>
      </trkpt>
      <trkpt lat="40.19583" lon="-3.80631">
        <ele>609</ele>
        <time>2022-12-31 11:24:36</time>
      </trkpt>
      <trkpt lat="40.19586" lon="-3.80638">
        <ele>609</ele>
        <time>2022-12-31 11:24:37</time>
      </trkpt>
      <trkpt lat="40.19589" lon="-3.80645">
        <ele>609</ele>
        <time>2022-12-31 11:24:38</time>
      </trkpt>
      <trkpt lat="40.19592" lon="-3.80652">
        <ele>609</ele>
        <time>2022-12-31 11:24:39</time>
      </trkpt>
      <trkpt lat="40.19595" lon="-3.80658">
        <ele>609.2</ele>
        <time>2022-12-31 11:24:40</time>
      </trkpt>
      <trkpt lat="40.19599" lon="-3.80665">
        <ele>609</ele>
        <time>2022-12-31 11:24:41</time>
      </trkpt>
      <trkpt lat="40.19602" lon="-3.80672">
        <ele>609</ele>
        <time>2022-12-31 11:24:42</time>
      </trkpt>
      <trkpt lat="40.19605" lon="-3.80679">
        <ele>609.2</ele>
        <time>2022-12-31 11:24:43</time>
      </trkpt>
      <trkpt lat="40.19608" lon="-3.80686">
        <ele>609</ele>
        <time>2022-12-31 11:24:44</time>
      </trkpt>
      <trkpt lat="40.19611" lon="-3.80693">
        <ele>609</ele>
        <time>2022-12-31 11:24:45</time>
      </trkpt>
      <trkpt lat="40.19615" lon="-3.807">
        <ele>609.2</ele>
        <time>2022-12-31 11:24:46</time>
      </trkpt>
      <trkpt lat="40.19618" lon="-3.80707">
        <ele>609.2</ele>
        <time>2022-12-31 11:24:47</time>
      </trkpt>
      <trkpt lat="40.19621" lon="-3.80713">
        <ele>609.2</ele>
        <time>2022-12-31 11:24:48</time>
      </trkpt>
      <trkpt lat="40.19624" lon="-3.8072">
        <ele>609</ele>
        <time>2022-12-31 11:24:49</time>
      </trkpt>
      <trkpt lat="40.19627" lon="-3.80727">
        <ele>608.8</ele>
        <time>2022-12-31 11:24:50</time>
      </trkpt>
      <trkpt lat="40.1963" lon="-3.80733">
        <ele>608.8</ele>
        <time>2022-12-31 11:24:51</time>
      </trkpt>
      <trkpt lat="40.19634" lon="-3.80739">
        <ele>608.8</ele>
        <time>2022-12-31 11:24:52</time>
      </trkpt>
      <trkpt lat="40.19639" lon="-3.80744">
        <ele>608.8</ele>
        <time>2022-12-31 11:24:53</time>
      </trkpt>
      <trkpt lat="40.19644" lon="-3.80748">
        <ele>609</ele>
        <time>2022-12-31 11:24:54</time>
      </trkpt>
      <trkpt lat="40.19649" lon="-3.80751">
        <ele>608.8</ele>
        <time>2022-12-31 11:24:55</time>
      </trkpt>
      <trkpt lat="40.19655" lon="-3.80753">
        <ele>608.8</ele>
        <time>2022-12-31 11:24:56</time>
      </trkpt>
      <trkpt lat="40.1966" lon="-3.80755">
        <ele>608.8</ele>
        <time>2022-12-31 11:24:57</time>
      </trkpt>
      <trkpt lat="40.19665" lon="-3.80757">
        <ele>608.8</ele>
        <time>2022-12-31 11:24:58</time>
      </trkpt>
      <trkpt lat="40.1967" lon="-3.80758">
        <ele>608.8</ele>
        <time>2022-12-31 11:24:59</time>
      </trkpt>
      <trkpt lat="40.19674" lon="-3.80759">
        <ele>608.8</ele>
        <time>2022-12-31 11:25:00</time>
      </trkpt>
      <trkpt lat="40.19679" lon="-3.8076">
        <ele>608.8</ele>
        <time>2022-12-31 11:25:01</time>
      </trkpt>
      <trkpt lat="40.19684" lon="-3.8076">
        <ele>608.8</ele>
        <time>2022-12-31 11:25:02</time>
      </trkpt>
      <trkpt lat="40.19688" lon="-3.80762">
        <ele>608.8</ele>
        <time>2022-12-31 11:25:03</time>
      </trkpt>
      <trkpt lat="40.19692" lon="-3.80763">
        <ele>608.8</ele>
        <time>2022-12-31 11:25:04</time>
      </trkpt>
      <trkpt lat="40.19696" lon="-3.80765">
        <ele>608.8</ele>
        <time>2022-12-31 11:25:05</time>
      </trkpt>
      <trkpt lat="40.19701" lon="-3.80766">
        <ele>609.2</ele>
        <time>2022-12-31 11:25:06</time>
      </trkpt>
      <trkpt lat="40.19705" lon="-3.80768">
        <ele>609.4</ele>
        <time>2022-12-31 11:25:07</time>
      </trkpt>
      <trkpt lat="40.19709" lon="-3.80769">
        <ele>609.6</ele>
        <time>2022-12-31 11:25:08</time>
      </trkpt>
      <trkpt lat="40.19714" lon="-3.80771">
        <ele>609.8</ele>
        <time>2022-12-31 11:25:09</time>
      </trkpt>
      <trkpt lat="40.19718" lon="-3.80772">
        <ele>610</ele>
        <time>2022-12-31 11:25:10</time>
      </trkpt>
      <trkpt lat="40.19723" lon="-3.80772">
        <ele>610</ele>
        <time>2022-12-31 11:25:11</time>
      </trkpt>
      <trkpt lat="40.19727" lon="-3.80773">
        <ele>610.2</ele>
        <time>2022-12-31 11:25:12</time>
      </trkpt>
      <trkpt lat="40.19731" lon="-3.80774">
        <ele>610.6</ele>
        <time>2022-12-31 11:25:13</time>
      </trkpt>
      <trkpt lat="40.19735" lon="-3.80776">
        <ele>611</ele>
        <time>2022-12-31 11:25:14</time>
      </trkpt>
      <trkpt lat="40.19738" lon="-3.80777">
        <ele>611.2</ele>
        <time>2022-12-31 11:25:15</time>
      </trkpt>
      <trkpt lat="40.19742" lon="-3.80778">
        <ele>611.6</ele>
        <time>2022-12-31 11:25:16</time>
      </trkpt>
      <trkpt lat="40.19745" lon="-3.80779">
        <ele>611.8</ele>
        <time>2022-12-31 11:25:17</time>
      </trkpt>
      <trkpt lat="40.19749" lon="-3.8078">
        <ele>612</ele>
        <time>2022-12-31 11:25:18</time>
      </trkpt>
      <trkpt lat="40.19753" lon="-3.8078">
        <ele>612</ele>
        <time>2022-12-31 11:25:19</time>
      </trkpt>
      <trkpt lat="40.19757" lon="-3.80781">
        <ele>612.4</ele>
        <time>2022-12-31 11:25:20</time>
      </trkpt>
      <trkpt lat="40.19761" lon="-3.80782">
        <ele>612.4</ele>
        <time>2022-12-31 11:25:21</time>
      </trkpt>
      <trkpt lat="40.19765" lon="-3.80783">
        <ele>612.4</ele>
        <time>2022-12-31 11:25:22</time>
      </trkpt>
      <trkpt lat="40.19768" lon="-3.80784">
        <ele>612.6</ele>
        <time>2022-12-31 11:25:23</time>
      </trkpt>
      <trkpt lat="40.19772" lon="-3.80784">
        <ele>613</ele>
        <time>2022-12-31 11:25:24</time>
      </trkpt>
      <trkpt lat="40.19776" lon="-3.80785">
        <ele>613.2</ele>
        <time>2022-12-31 11:25:25</time>
      </trkpt>
      <trkpt lat="40.19779" lon="-3.80786">
        <ele>613.4</ele>
        <time>2022-12-31 11:25:26</time>
      </trkpt>
      <trkpt lat="40.19783" lon="-3.80788">
        <ele>613.4</ele>
        <time>2022-12-31 11:25:27</time>
      </trkpt>
      <trkpt lat="40.19787" lon="-3.80789">
        <ele>613.6</ele>
        <time>2022-12-31 11:25:28</time>
      </trkpt>
      <trkpt lat="40.19791" lon="-3.80789">
        <ele>613.6</ele>
        <time>2022-12-31 11:25:29</time>
      </trkpt>
      <trkpt lat="40.19795" lon="-3.8079">
        <ele>613.8</ele>
        <time>2022-12-31 11:25:30</time>
      </trkpt>
      <trkpt lat="40.19799" lon="-3.80791">
        <ele>614.2</ele>
        <time>2022-12-31 11:25:31</time>
      </trkpt>
      <trkpt lat="40.19802" lon="-3.80791">
        <ele>614.2</ele>
        <time>2022-12-31 11:25:32</time>
      </trkpt>
      <trkpt lat="40.19806" lon="-3.80792">
        <ele>614.4</ele>
        <time>2022-12-31 11:25:33</time>
      </trkpt>
      <trkpt lat="40.1981" lon="-3.80793">
        <ele>614.6</ele>
        <time>2022-12-31 11:25:34</time>
      </trkpt>
      <trkpt lat="40.19813" lon="-3.80794">
        <ele>614.8</ele>
        <time>2022-12-31 11:25:35</time>
      </trkpt>
      <trkpt lat="40.19816" lon="-3.80795">
        <ele>615</ele>
        <time>2022-12-31 11:25:36</time>
      </trkpt>
      <trkpt lat="40.1982" lon="-3.80797">
        <ele>615.2</ele>
        <time>2022-12-31 11:25:37</time>
      </trkpt>
      <trkpt lat="40.19824" lon="-3.80798">
        <ele>615.2</ele>
        <time>2022-12-31 11:25:38</time>
      </trkpt>
      <trkpt lat="40.19827" lon="-3.80799">
        <ele>615.6</ele>
        <time>2022-12-31 11:25:39</time>
      </trkpt>
      <trkpt lat="40.19831" lon="-3.808">
        <ele>615.4</ele>
        <time>2022-12-31 11:25:40</time>
      </trkpt>
      <trkpt lat="40.19835" lon="-3.80801">
        <ele>615.8</ele>
        <time>2022-12-31 11:25:41</time>
      </trkpt>
      <trkpt lat="40.19839" lon="-3.80801">
        <ele>615.8</ele>
        <time>2022-12-31 11:25:42</time>
      </trkpt>
      <trkpt lat="40.19843" lon="-3.80802">
        <ele>616</ele>
        <time>2022-12-31 11:25:43</time>
      </trkpt>
      <trkpt lat="40.19847" lon="-3.80803">
        <ele>616.2</ele>
        <time>2022-12-31 11:25:44</time>
      </trkpt>
      <trkpt lat="40.19851" lon="-3.80804">
        <ele>616.4</ele>
        <time>2022-12-31 11:25:45</time>
      </trkpt>
      <trkpt lat="40.19855" lon="-3.80805">
        <ele>616.4</ele>
        <time>2022-12-31 11:25:46</time>
      </trkpt>
      <trkpt lat="40.19859" lon="-3.80806">
        <ele>616.8</ele>
        <time>2022-12-31 11:25:47</time>
      </trkpt>
      <trkpt lat="40.19863" lon="-3.80807">
        <ele>617</ele>
        <time>2022-12-31 11:25:48</time>
      </trkpt>
      <trkpt lat="40.19868" lon="-3.80807">
        <ele>617</ele>
        <time>2022-12-31 11:25:49</time>
      </trkpt>
      <trkpt lat="40.19872" lon="-3.80808">
        <ele>617.2</ele>
        <time>2022-12-31 11:25:50</time>
      </trkpt>
      <trkpt lat="40.19876" lon="-3.80808">
        <ele>617.6</ele>
        <time>2022-12-31 11:25:51</time>
      </trkpt>
      <trkpt lat="40.1988" lon="-3.80809">
        <ele>617.8</ele>
        <time>2022-12-31 11:25:52</time>
      </trkpt>
      <trkpt lat="40.19884" lon="-3.8081">
        <ele>617.8</ele>
        <time>2022-12-31 11:25:53</time>
      </trkpt>
      <trkpt lat="40.19888" lon="-3.8081">
        <ele>618.2</ele>
        <time>2022-12-31 11:25:54</time>
      </trkpt>
      <trkpt lat="40.19893" lon="-3.8081">
        <ele>618.2</ele>
        <time>2022-12-31 11:25:55</time>
      </trkpt>
      <trkpt lat="40.19897" lon="-3.80811">
        <ele>618.2</ele>
        <time>2022-12-31 11:25:56</time>
      </trkpt>
      <trkpt lat="40.19902" lon="-3.80812">
        <ele>618.4</ele>
        <time>2022-12-31 11:25:57</time>
      </trkpt>
      <trkpt lat="40.19906" lon="-3.80812">
        <ele>618.4</ele>
        <time>2022-12-31 11:25:58</time>
      </trkpt>
      <trkpt lat="40.19911" lon="-3.80812">
        <ele>618.4</ele>
        <time>2022-12-31 11:25:59</time>
      </trkpt>
      <trkpt lat="40.19915" lon="-3.80813">
        <ele>618.4</ele>
        <time>2022-12-31 11:26:00</time>
      </trkpt>
      <trkpt lat="40.19919" lon="-3.80814">
        <ele>618.4</ele>
        <time>2022-12-31 11:26:01</time>
      </trkpt>
      <trkpt lat="40.19922" lon="-3.80817">
        <ele>618.6</ele>
        <time>2022-12-31 11:26:02</time>
      </trkpt>
      <trkpt lat="40.19924" lon="-3.80822">
        <ele>618.4</ele>
        <time>2022-12-31 11:26:03</time>
      </trkpt>
      <trkpt lat="40.19925" lon="-3.80827">
        <ele>618.4</ele>
        <time>2022-12-31 11:26:04</time>
      </trkpt>
      <trkpt lat="40.19924" lon="-3.80833">
        <ele>618.4</ele>
        <time>2022-12-31 11:26:05</time>
      </trkpt>
      <trkpt lat="40.19923" lon="-3.80839">
        <ele>618.6</ele>
        <time>2022-12-31 11:26:06</time>
      </trkpt>
      <trkpt lat="40.1992" lon="-3.80844">
        <ele>618.6</ele>
        <time>2022-12-31 11:26:07</time>
      </trkpt>
      <trkpt lat="40.19918" lon="-3.8085">
        <ele>618.4</ele>
        <time>2022-12-31 11:26:08</time>
      </trkpt>
      <trkpt lat="40.19915" lon="-3.80855">
        <ele>618.4</ele>
        <time>2022-12-31 11:26:09</time>
      </trkpt>
      <trkpt lat="40.19912" lon="-3.8086">
        <ele>618.6</ele>
        <time>2022-12-31 11:26:10</time>
      </trkpt>
      <trkpt lat="40.19909" lon="-3.80865">
        <ele>618.6</ele>
        <time>2022-12-31 11:26:11</time>
      </trkpt>
      <trkpt lat="40.19907" lon="-3.8087">
        <ele>618.6</ele>
        <time>2022-12-31 11:26:12</time>
      </trkpt>
      <trkpt lat="40.19903" lon="-3.80875">
        <ele>618.6</ele>
        <time>2022-12-31 11:26:13</time>
      </trkpt>
      <trkpt lat="40.199" lon="-3.8088">
        <ele>618.6</ele>
        <time>2022-12-31 11:26:14</time>
      </trkpt>
      <trkpt lat="40.19897" lon="-3.80885">
        <ele>618.8</ele>
        <time>2022-12-31 11:26:15</time>
      </trkpt>
      <trkpt lat="40.19895" lon="-3.8089">
        <ele>619</ele>
        <time>2022-12-31 11:26:16</time>
      </trkpt>
      <trkpt lat="40.19892" lon="-3.80896">
        <ele>619</ele>
        <time>2022-12-31 11:26:17</time>
      </trkpt>
      <trkpt lat="40.19889" lon="-3.80902">
        <ele>619</ele>
        <time>2022-12-31 11:26:18</time>
      </trkpt>
      <trkpt lat="40.19876" lon="-3.80925">
        <ele>631.2</ele>
        <time>2022-12-31 07:41:27</time>
      </trkpt>
      <trkpt lat="40.19877" lon="-3.80922">
        <ele>631.4</ele>
        <time>2022-12-31 07:41:28</time>
      </trkpt>
      <trkpt lat="40.19879" lon="-3.80919">
        <ele>631.6</ele>
        <time>2022-12-31 07:41:29</time>
      </trkpt>
      <trkpt lat="40.19881" lon="-3.80917">
        <ele>631.8</ele>
        <time>2022-12-31 07:41:30</time>
      </trkpt>
      <trkpt lat="40.19882" lon="-3.80914">
        <ele>632.2</ele>
        <time>2022-12-31 07:41:31</time>
      </trkpt>
      <trkpt lat="40.19884" lon="-3.80912">
        <ele>632.2</ele>
        <time>2022-12-31 07:41:32</time>
      </trkpt>
      <trkpt lat="40.19885" lon="-3.80909">
        <ele>632.2</ele>
        <time>2022-12-31 07:41:33</time>
      </trkpt>
      <trkpt lat="40.19887" lon="-3.80907">
        <ele>632.2</ele>
        <time>2022-12-31 07:41:34</time>
      </trkpt>
      <trkpt lat="40.19888" lon="-3.80904">
        <ele>632.4</ele>
        <time>2022-12-31 07:41:35</time>
      </trkpt>
      <trkpt lat="40.1989" lon="-3.80901">
        <ele>632.4</ele>
        <time>2022-12-31 07:41:36</time>
      </trkpt>
      <trkpt lat="40.19891" lon="-3.80899">
        <ele>632.6</ele>
        <time>2022-12-31 07:41:37</time>
      </trkpt>
      <trkpt lat="40.19893" lon="-3.80896">
        <ele>632.6</ele>
        <time>2022-12-31 07:41:38</time>
      </trkpt>
      <trkpt lat="40.19895" lon="-3.80894">
        <ele>632.6</ele>
        <time>2022-12-31 07:41:39</time>
      </trkpt>
      <trkpt lat="40.19897" lon="-3.80891">
        <ele>632.6</ele>
        <time>2022-12-31 07:41:40</time>
      </trkpt>
      <trkpt lat="40.19898" lon="-3.80887">
        <ele>632.6</ele>
        <time>2022-12-31 07:41:41</time>
      </trkpt>
      <trkpt lat="40.199" lon="-3.80883">
        <ele>632.4</ele>
        <time>2022-12-31 07:41:42</time>
      </trkpt>
      <trkpt lat="40.19902" lon="-3.80879">
        <ele>632.4</ele>
        <time>2022-12-31 07:41:43</time>
      </trkpt>
      <trkpt lat="40.19904" lon="-3.80875">
        <ele>632.4</ele>
        <time>2022-12-31 07:41:44</time>
      </trkpt>
      <trkpt lat="40.19906" lon="-3.8087">
        <ele>632.2</ele>
        <time>2022-12-31 07:41:45</time>
      </trkpt>
      <trkpt lat="40.19909" lon="-3.80866">
        <ele>632.2</ele>
        <time>2022-12-31 07:41:46</time>
      </trkpt>
      <trkpt lat="40.19911" lon="-3.80861">
        <ele>632.2</ele>
        <time>2022-12-31 07:41:47</time>
      </trkpt>
      <trkpt lat="40.19913" lon="-3.80856">
        <ele>632.2</ele>
        <time>2022-12-31 07:41:48</time>
      </trkpt>
      <trkpt lat="40.19915" lon="-3.80852">
        <ele>632.2</ele>
        <time>2022-12-31 07:41:49</time>
      </trkpt>
      <trkpt lat="40.19916" lon="-3.80847">
        <ele>632.2</ele>
        <time>2022-12-31 07:41:50</time>
      </trkpt>
      <trkpt lat="40.19918" lon="-3.80842">
        <ele>632.2</ele>
        <time>2022-12-31 07:41:51</time>
      </trkpt>
      <trkpt lat="40.19918" lon="-3.80837">
        <ele>632.2</ele>
        <time>2022-12-31 07:41:52</time>
      </trkpt>
      <trkpt lat="40.19917" lon="-3.80832">
        <ele>632</ele>
        <time>2022-12-31 07:41:53</time>
      </trkpt>
      <trkpt lat="40.19915" lon="-3.80827">
        <ele>632.2</ele>
        <time>2022-12-31 07:41:54</time>
      </trkpt>
      <trkpt lat="40.19912" lon="-3.80823">
        <ele>632.2</ele>
        <time>2022-12-31 07:41:55</time>
      </trkpt>
      <trkpt lat="40.19908" lon="-3.8082">
        <ele>632</ele>
        <time>2022-12-31 07:41:56</time>
      </trkpt>
      <trkpt lat="40.19904" lon="-3.80817">
        <ele>632.2</ele>
        <time>2022-12-31 07:41:57</time>
      </trkpt>
      <trkpt lat="40.19899" lon="-3.80815">
        <ele>632</ele>
        <time>2022-12-31 07:41:58</time>
      </trkpt>
      <trkpt lat="40.19894" lon="-3.80814">
        <ele>632</ele>
        <time>2022-12-31 07:41:59</time>
      </trkpt>
      <trkpt lat="40.19888" lon="-3.80813">
        <ele>632</ele>
        <time>2022-12-31 07:42:00</time>
      </trkpt>
      <trkpt lat="40.19883" lon="-3.80811">
        <ele>632</ele>
        <time>2022-12-31 07:42:01</time>
      </trkpt>
      <trkpt lat="40.19877" lon="-3.8081">
        <ele>631.8</ele>
        <time>2022-12-31 07:42:02</time>
      </trkpt>
      <trkpt lat="40.19871" lon="-3.80808">
        <ele>632</ele>
        <time>2022-12-31 07:42:03</time>
      </trkpt>
      <trkpt lat="40.19865" lon="-3.80806">
        <ele>631.8</ele>
        <time>2022-12-31 07:42:04</time>
      </trkpt>
      <trkpt lat="40.19859" lon="-3.80803">
        <ele>631.8</ele>
        <time>2022-12-31 07:42:05</time>
      </trkpt>
      <trkpt lat="40.19853" lon="-3.80801">
        <ele>631.8</ele>
        <time>2022-12-31 07:42:06</time>
      </trkpt>
      <trkpt lat="40.19847" lon="-3.808">
        <ele>631.6</ele>
        <time>2022-12-31 07:42:07</time>
      </trkpt>
      <trkpt lat="40.19841" lon="-3.80799">
        <ele>631.6</ele>
        <time>2022-12-31 07:42:08</time>
      </trkpt>
      <trkpt lat="40.19835" lon="-3.80797">
        <ele>631.6</ele>
        <time>2022-12-31 07:42:09</time>
      </trkpt>
      <trkpt lat="40.19829" lon="-3.80796">
        <ele>631.2</ele>
        <time>2022-12-31 07:42:10</time>
      </trkpt>
      <trkpt lat="40.19822" lon="-3.80794">
        <ele>631.2</ele>
        <time>2022-12-31 07:42:11</time>
      </trkpt>
      <trkpt lat="40.19815" lon="-3.80793">
        <ele>631.2</ele>
        <time>2022-12-31 07:42:12</time>
      </trkpt>
      <trkpt lat="40.19808" lon="-3.80791">
        <ele>631</ele>
        <time>2022-12-31 07:42:13</time>
      </trkpt>
      <trkpt lat="40.19802" lon="-3.8079">
        <ele>631</ele>
        <time>2022-12-31 07:42:14</time>
      </trkpt>
      <trkpt lat="40.19796" lon="-3.80789">
        <ele>630.8</ele>
        <time>2022-12-31 07:42:15</time>
      </trkpt>
      <trkpt lat="40.19791" lon="-3.80788">
        <ele>630.6</ele>
        <time>2022-12-31 07:42:16</time>
      </trkpt>
      <trkpt lat="40.19786" lon="-3.80787">
        <ele>630.6</ele>
        <time>2022-12-31 07:42:17</time>
      </trkpt>
      <trkpt lat="40.1978" lon="-3.80786">
        <ele>630.4</ele>
        <time>2022-12-31 07:42:18</time>
      </trkpt>
      <trkpt lat="40.19775" lon="-3.80784">
        <ele>630</ele>
        <time>2022-12-31 07:42:19</time>
      </trkpt>
      <trkpt lat="40.1977" lon="-3.80783">
        <ele>630</ele>
        <time>2022-12-31 07:42:20</time>
      </trkpt>
      <trkpt lat="40.19765" lon="-3.80781">
        <ele>629.8</ele>
        <time>2022-12-31 07:42:21</time>
      </trkpt>
      <trkpt lat="40.19759" lon="-3.8078">
        <ele>629.8</ele>
        <time>2022-12-31 07:42:22</time>
      </trkpt>
      <trkpt lat="40.19753" lon="-3.80778">
        <ele>629.6</ele>
        <time>2022-12-31 07:42:23</time>
      </trkpt>
      <trkpt lat="40.19747" lon="-3.80777">
        <ele>629.6</ele>
        <time>2022-12-31 07:42:24</time>
      </trkpt>
      <trkpt lat="40.1974" lon="-3.80776">
        <ele>629.4</ele>
        <time>2022-12-31 07:42:25</time>
      </trkpt>
      <trkpt lat="40.19733" lon="-3.80774">
        <ele>629</ele>
        <time>2022-12-31 07:42:26</time>
      </trkpt>
      <trkpt lat="40.19726" lon="-3.80773">
        <ele>628.8</ele>
        <time>2022-12-31 07:42:27</time>
      </trkpt>
      <trkpt lat="40.19719" lon="-3.80771">
        <ele>628.4</ele>
        <time>2022-12-31 07:42:28</time>
      </trkpt>
      <trkpt lat="40.19712" lon="-3.80768">
        <ele>628</ele>
        <time>2022-12-31 07:42:29</time>
      </trkpt>
      <trkpt lat="40.19705" lon="-3.80765">
        <ele>627.8</ele>
        <time>2022-12-31 07:42:30</time>
      </trkpt>
      <trkpt lat="40.19697" lon="-3.80763">
        <ele>627.2</ele>
        <time>2022-12-31 07:42:31</time>
      </trkpt>
      <trkpt lat="40.1969" lon="-3.80761">
        <ele>626.8</ele>
        <time>2022-12-31 07:42:32</time>
      </trkpt>
      <trkpt lat="40.19681" lon="-3.80759">
        <ele>626.4</ele>
        <time>2022-12-31 07:42:33</time>
      </trkpt>
      <trkpt lat="40.19674" lon="-3.80757">
        <ele>625.8</ele>
        <time>2022-12-31 07:42:34</time>
      </trkpt>
      <trkpt lat="40.19666" lon="-3.80754">
        <ele>625.4</ele>
        <time>2022-12-31 07:42:35</time>
      </trkpt>
      <trkpt lat="40.19658" lon="-3.80752">
        <ele>624.8</ele>
        <time>2022-12-31 07:42:36</time>
      </trkpt>
      <trkpt lat="40.1965" lon="-3.8075">
        <ele>624.2</ele>
        <time>2022-12-31 07:42:37</time>
      </trkpt>
      <trkpt lat="40.19642" lon="-3.80746">
        <ele>624</ele>
        <time>2022-12-31 07:42:38</time>
      </trkpt>
      <trkpt lat="40.19635" lon="-3.80742">
        <ele>623.6</ele>
        <time>2022-12-31 07:42:39</time>
      </trkpt>
      <trkpt lat="40.19628" lon="-3.80737">
        <ele>623.4</ele>
        <time>2022-12-31 07:42:40</time>
      </trkpt>
      <trkpt lat="40.19622" lon="-3.8073">
        <ele>623.4</ele>
        <time>2022-12-31 07:42:41</time>
      </trkpt>
      <trkpt lat="40.19617" lon="-3.80723">
        <ele>623.2</ele>
        <time>2022-12-31 07:42:42</time>
      </trkpt>
      <trkpt lat="40.19614" lon="-3.80715">
        <ele>622.8</ele>
        <time>2022-12-31 07:42:43</time>
      </trkpt>
      <trkpt lat="40.1961" lon="-3.80707">
        <ele>622.2</ele>
        <time>2022-12-31 07:42:44</time>
      </trkpt>
      <trkpt lat="40.19607" lon="-3.80699">
        <ele>621.8</ele>
        <time>2022-12-31 07:42:45</time>
      </trkpt>
      <trkpt lat="40.19604" lon="-3.80692">
        <ele>621.4</ele>
        <time>2022-12-31 07:42:46</time>
      </trkpt>
      <trkpt lat="40.19602" lon="-3.80683">
        <ele>621.4</ele>
        <time>2022-12-31 07:42:47</time>
      </trkpt>
      <trkpt lat="40.19599" lon="-3.80676">
        <ele>621.4</ele>
        <time>2022-12-31 07:42:48</time>
      </trkpt>
      <trkpt lat="40.19596" lon="-3.80668">
        <ele>621.4</ele>
        <time>2022-12-31 07:42:49</time>
      </trkpt>
      <trkpt lat="40.19593" lon="-3.80661">
        <ele>621.2</ele>
        <time>2022-12-31 07:42:50</time>
      </trkpt>
      <trkpt lat="40.1959" lon="-3.80654">
        <ele>621.4</ele>
        <time>2022-12-31 07:42:51</time>
      </trkpt>
      <trkpt lat="40.19587" lon="-3.80646">
        <ele>621.2</ele>
        <time>2022-12-31 07:42:52</time>
      </trkpt>
      <trkpt lat="40.19584" lon="-3.80638">
        <ele>621.4</ele>
        <time>2022-12-31 07:42:53</time>
      </trkpt>
      <trkpt lat="40.19581" lon="-3.80631">
        <ele>621.4</ele>
        <time>2022-12-31 07:42:54</time>
      </trkpt>
      <trkpt lat="40.19577" lon="-3.80624">
        <ele>621.2</ele>
        <time>2022-12-31 07:42:55</time>
      </trkpt>
      <trkpt lat="40.19573" lon="-3.80617">
        <ele>621.4</ele>
        <time>2022-12-31 07:42:56</time>
      </trkpt>
      <trkpt lat="40.19569" lon="-3.8061">
        <ele>621.6</ele>
        <time>2022-12-31 07:42:57</time>
      </trkpt>
      <trkpt lat="40.19565" lon="-3.80603">
        <ele>621.6</ele>
        <time>2022-12-31 07:42:58</time>
      </trkpt>
      <trkpt lat="40.19561" lon="-3.80597">
        <ele>621.8</ele>
        <time>2022-12-31 07:42:59</time>
      </trkpt>
      <trkpt lat="40.19557" lon="-3.8059">
        <ele>621.8</ele>
        <time>2022-12-31 07:43:00</time>
      </trkpt>
      <trkpt lat="40.19553" lon="-3.80583">
        <ele>621.8</ele>
        <time>2022-12-31 07:43:01</time>
      </trkpt>
      <trkpt lat="40.19549" lon="-3.80576">
        <ele>622</ele>
        <time>2022-12-31 07:43:02</time>
      </trkpt>
      <trkpt lat="40.19545" lon="-3.80569">
        <ele>621.8</ele>
        <time>2022-12-31 07:43:03</time>
      </trkpt>
      <trkpt lat="40.19541" lon="-3.80563">
        <ele>621.8</ele>
        <time>2022-12-31 07:43:04</time>
      </trkpt>
      <trkpt lat="40.19537" lon="-3.80555">
        <ele>621.8</ele>
        <time>2022-12-31 07:43:05</time>
      </trkpt>
      <trkpt lat="40.19533" lon="-3.80548">
        <ele>621.8</ele>
        <time>2022-12-31 07:43:06</time>
      </trkpt>
      <trkpt lat="40.19528" lon="-3.80541">
        <ele>622</ele>
        <time>2022-12-31 07:43:07</time>
      </trkpt>
      <trkpt lat="40.19525" lon="-3.80533">
        <ele>621.8</ele>
        <time>2022-12-31 07:43:08</time>
      </trkpt>
      <trkpt lat="40.19521" lon="-3.80525">
        <ele>621.8</ele>
        <time>2022-12-31 07:43:09</time>
      </trkpt>
      <trkpt lat="40.19517" lon="-3.80517">
        <ele>621.8</ele>
        <time>2022-12-31 07:43:10</time>
      </trkpt>
      <trkpt lat="40.19513" lon="-3.80511">
        <ele>621.8</ele>
        <time>2022-12-31 07:43:11</time>
      </trkpt>
      <trkpt lat="40.19509" lon="-3.80505">
        <ele>621.6</ele>
        <time>2022-12-31 07:43:12</time>
      </trkpt>
      <trkpt lat="40.19505" lon="-3.80501">
        <ele>621.6</ele>
        <time>2022-12-31 07:43:13</time>
      </trkpt>
      <trkpt lat="40.19501" lon="-3.80499">
        <ele>621.4</ele>
        <time>2022-12-31 07:43:14</time>
      </trkpt>
      <trkpt lat="40.19496" lon="-3.80497">
        <ele>621.2</ele>
        <time>2022-12-31 07:43:15</time>
      </trkpt>
      <trkpt lat="40.19492" lon="-3.80497">
        <ele>621</ele>
        <time>2022-12-31 07:43:16</time>
      </trkpt>
      <trkpt lat="40.19487" lon="-3.80499">
        <ele>621</ele>
        <time>2022-12-31 07:43:17</time>
      </trkpt>
      <trkpt lat="40.19482" lon="-3.80503">
        <ele>620.6</ele>
        <time>2022-12-31 07:43:18</time>
      </trkpt>
      <trkpt lat="40.19478" lon="-3.80507">
        <ele>620.4</ele>
        <time>2022-12-31 07:43:19</time>
      </trkpt>
      <trkpt lat="40.19474" lon="-3.80512">
        <ele>620.4</ele>
        <time>2022-12-31 07:43:20</time>
      </trkpt>
      <trkpt lat="40.19471" lon="-3.80517">
        <ele>620.4</ele>
        <time>2022-12-31 07:43:21</time>
      </trkpt>
      <trkpt lat="40.19467" lon="-3.80524">
        <ele>620.4</ele>
        <time>2022-12-31 07:43:22</time>
      </trkpt>
      <trkpt lat="40.19463" lon="-3.80529">
        <ele>620.2</ele>
        <time>2022-12-31 07:43:23</time>
      </trkpt>
      <trkpt lat="40.19461" lon="-3.80533">
        <ele>620.2</ele>
        <time>2022-12-31 07:43:24</time>
      </trkpt>
      <trkpt lat="40.19458" lon="-3.80537">
        <ele>620.2</ele>
        <time>2022-12-31 07:43:25</time>
      </trkpt>
      <trkpt lat="40.19455" lon="-3.80542">
        <ele>620.2</ele>
        <time>2022-12-31 07:43:26</time>
      </trkpt>
      <trkpt lat="40.19453" lon="-3.80546">
        <ele>620.2</ele>
        <time>2022-12-31 07:43:27</time>
      </trkpt>
      <trkpt lat="40.19451" lon="-3.80549">
        <ele>620.2</ele>
        <time>2022-12-31 07:43:28</time>
      </trkpt>
      <trkpt lat="40.19449" lon="-3.80552">
        <ele>620.2</ele>
        <time>2022-12-31 07:43:29</time>
      </trkpt>
      <trkpt lat="40.19447" lon="-3.80555">
        <ele>620.2</ele>
        <time>2022-12-31 07:43:30</time>
      </trkpt>
      <trkpt lat="40.19444" lon="-3.80558">
        <ele>620</ele>
        <time>2022-12-31 07:43:31</time>
      </trkpt>
      <trkpt lat="40.19442" lon="-3.80561">
        <ele>620.2</ele>
        <time>2022-12-31 07:43:32</time>
      </trkpt>
      <trkpt lat="40.1944" lon="-3.80565">
        <ele>620.4</ele>
        <time>2022-12-31 07:43:33</time>
      </trkpt>
      <trkpt lat="40.19437" lon="-3.80569">
        <ele>620.4</ele>
        <time>2022-12-31 07:43:34</time>
      </trkpt>
      <trkpt lat="40.19434" lon="-3.80574">
        <ele>620.6</ele>
        <time>2022-12-31 07:43:35</time>
      </trkpt>
      <trkpt lat="40.19431" lon="-3.80578">
        <ele>620.6</ele>
        <time>2022-12-31 07:43:36</time>
      </trkpt>
      <trkpt lat="40.19428" lon="-3.80582">
        <ele>620.6</ele>
        <time>2022-12-31 07:43:37</time>
      </trkpt>
      <trkpt lat="40.19424" lon="-3.80585">
        <ele>620.8</ele>
        <time>2022-12-31 07:43:38</time>
      </trkpt>
      <trkpt lat="40.1942" lon="-3.80587">
        <ele>620.8</ele>
        <time>2022-12-31 07:43:39</time>
      </trkpt>
      <trkpt lat="40.19416" lon="-3.80589">
        <ele>620.8</ele>
        <time>2022-12-31 07:43:40</time>
      </trkpt>
      <trkpt lat="40.19411" lon="-3.80591">
        <ele>620.8</ele>
        <time>2022-12-31 07:43:41</time>
      </trkpt>
      <trkpt lat="40.19406" lon="-3.80594">
        <ele>620.8</ele>
        <time>2022-12-31 07:43:42</time>
      </trkpt>
      <trkpt lat="40.19402" lon="-3.80596">
        <ele>620.8</ele>
        <time>2022-12-31 07:43:43</time>
      </trkpt>
      <trkpt lat="40.19397" lon="-3.80598">
        <ele>620.8</ele>
        <time>2022-12-31 07:43:44</time>
      </trkpt>
      <trkpt lat="40.19393" lon="-3.80599">
        <ele>620.8</ele>
        <time>2022-12-31 07:43:45</time>
      </trkpt>
      <trkpt lat="40.19388" lon="-3.80601">
        <ele>621</ele>
        <time>2022-12-31 07:43:46</time>
      </trkpt>
      <trkpt lat="40.19383" lon="-3.80603">
        <ele>621</ele>
        <time>2022-12-31 07:43:47</time>
      </trkpt>
      <trkpt lat="40.19377" lon="-3.80605">
        <ele>621</ele>
        <time>2022-12-31 07:43:48</time>
      </trkpt>
      <trkpt lat="40.19372" lon="-3.80606">
        <ele>621</ele>
        <time>2022-12-31 07:43:49</time>
      </trkpt>
      <trkpt lat="40.19366" lon="-3.8061">
        <ele>621</ele>
        <time>2022-12-31 07:43:50</time>
      </trkpt>
      <trkpt lat="40.19361" lon="-3.80611">
        <ele>621.2</ele>
        <time>2022-12-31 07:43:51</time>
      </trkpt>
      <trkpt lat="40.19355" lon="-3.80613">
        <ele>621</ele>
        <time>2022-12-31 07:43:52</time>
      </trkpt>
      <trkpt lat="40.1935" lon="-3.80615">
        <ele>621.2</ele>
        <time>2022-12-31 07:43:53</time>
      </trkpt>
      <trkpt lat="40.19344" lon="-3.80617">
        <ele>621.2</ele>
        <time>2022-12-31 07:43:54</time>
      </trkpt>
      <trkpt lat="40.19338" lon="-3.80619">
        <ele>621.2</ele>
        <time>2022-12-31 07:43:55</time>
      </trkpt>
      <trkpt lat="40.19332" lon="-3.80621">
        <ele>621.2</ele>
        <time>2022-12-31 07:43:56</time>
      </trkpt>
      <trkpt lat="40.19327" lon="-3.80623">
        <ele>621.2</ele>
        <time>2022-12-31 07:43:57</time>
      </trkpt>
      <trkpt lat="40.19321" lon="-3.80625">
        <ele>621.4</ele>
        <time>2022-12-31 07:43:58</time>
      </trkpt>
      <trkpt lat="40.19315" lon="-3.80627">
        <ele>621.4</ele>
        <time>2022-12-31 07:43:59</time>
      </trkpt>
      <trkpt lat="40.19309" lon="-3.80628">
        <ele>621.4</ele>
        <time>2022-12-31 07:44:00</time>
      </trkpt>
      <trkpt lat="40.19303" lon="-3.8063">
        <ele>621.4</ele>
        <time>2022-12-31 07:44:01</time>
      </trkpt>
      <trkpt lat="40.19297" lon="-3.80632">
        <ele>621.4</ele>
        <time>2022-12-31 07:44:02</time>
      </trkpt>
      <trkpt lat="40.19292" lon="-3.80633">
        <ele>621.4</ele>
        <time>2022-12-31 07:44:03</time>
      </trkpt>
      <trkpt lat="40.19286" lon="-3.80635">
        <ele>621.4</ele>
        <time>2022-12-31 07:44:04</time>
      </trkpt>
      <trkpt lat="40.1928" lon="-3.80636">
        <ele>621.4</ele>
        <time>2022-12-31 07:44:05</time>
      </trkpt>
      <trkpt lat="40.19274" lon="-3.80637">
        <ele>621.2</ele>
        <time>2022-12-31 07:44:06</time>
      </trkpt>
      <trkpt lat="40.19268" lon="-3.80639">
        <ele>621.4</ele>
        <time>2022-12-31 07:44:07</time>
      </trkpt>
      <trkpt lat="40.19262" lon="-3.8064">
        <ele>621.2</ele>
        <time>2022-12-31 07:44:08</time>
      </trkpt>
      <trkpt lat="40.19256" lon="-3.8064">
        <ele>621.2</ele>
        <time>2022-12-31 07:44:09</time>
      </trkpt>
      <trkpt lat="40.1925" lon="-3.80641">
        <ele>621.2</ele>
        <time>2022-12-31 07:44:10</time>
      </trkpt>
      <trkpt lat="40.19244" lon="-3.80642">
        <ele>621.2</ele>
        <time>2022-12-31 07:44:11</time>
      </trkpt>
      <trkpt lat="40.19238" lon="-3.80643">
        <ele>621</ele>
        <time>2022-12-31 07:44:12</time>
      </trkpt>
      <trkpt lat="40.19233" lon="-3.80643">
        <ele>621</ele>
        <time>2022-12-31 07:44:13</time>
      </trkpt>
      <trkpt lat="40.19227" lon="-3.80645">
        <ele>621</ele>
        <time>2022-12-31 07:44:14</time>
      </trkpt>
      <trkpt lat="40.19221" lon="-3.80647">
        <ele>621</ele>
        <time>2022-12-31 07:44:15</time>
      </trkpt>
      <trkpt lat="40.19216" lon="-3.8065">
        <ele>621</ele>
        <time>2022-12-31 07:44:16</time>
      </trkpt>
      <trkpt lat="40.1921" lon="-3.80652">
        <ele>621</ele>
        <time>2022-12-31 07:44:17</time>
      </trkpt>
      <trkpt lat="40.19205" lon="-3.80654">
        <ele>621</ele>
        <time>2022-12-31 07:44:18</time>
      </trkpt>
      <trkpt lat="40.19199" lon="-3.80655">
        <ele>621</ele>
        <time>2022-12-31 07:44:19</time>
      </trkpt>
      <trkpt lat="40.19193" lon="-3.80655">
        <ele>621</ele>
        <time>2022-12-31 07:44:20</time>
      </trkpt>
      <trkpt lat="40.19187" lon="-3.80655">
        <ele>621</ele>
        <time>2022-12-31 07:44:21</time>
      </trkpt>
      <trkpt lat="40.1918" lon="-3.80656">
        <ele>621</ele>
        <time>2022-12-31 07:44:22</time>
      </trkpt>
      <trkpt lat="40.19174" lon="-3.80657">
        <ele>621</ele>
        <time>2022-12-31 07:44:23</time>
      </trkpt>
      <trkpt lat="40.19168" lon="-3.80658">
        <ele>620.8</ele>
        <time>2022-12-31 07:44:24</time>
      </trkpt>
      <trkpt lat="40.19162" lon="-3.80658">
        <ele>621</ele>
        <time>2022-12-31 07:44:25</time>
      </trkpt>
      <trkpt lat="40.19156" lon="-3.8066">
        <ele>621</ele>
        <time>2022-12-31 07:44:26</time>
      </trkpt>
      <trkpt lat="40.19149" lon="-3.80661">
        <ele>620.8</ele>
        <time>2022-12-31 07:44:27</time>
      </trkpt>
      <trkpt lat="40.19143" lon="-3.80663">
        <ele>620.8</ele>
        <time>2022-12-31 07:44:28</time>
      </trkpt>
      <trkpt lat="40.19137" lon="-3.80665">
        <ele>620.8</ele>
        <time>2022-12-31 07:44:29</time>
      </trkpt>
      <trkpt lat="40.19131" lon="-3.80666">
        <ele>620.8</ele>
        <time>2022-12-31 07:44:30</time>
      </trkpt>
      <trkpt lat="40.19125" lon="-3.80668">
        <ele>620.8</ele>
        <time>2022-12-31 07:44:31</time>
      </trkpt>
      <trkpt lat="40.19119" lon="-3.80669">
        <ele>620.6</ele>
        <time>2022-12-31 07:44:32</time>
      </trkpt>
      <trkpt lat="40.19113" lon="-3.8067">
        <ele>620.8</ele>
        <time>2022-12-31 07:44:33</time>
      </trkpt>
      <trkpt lat="40.19107" lon="-3.80672">
        <ele>620.6</ele>
        <time>2022-12-31 07:44:34</time>
      </trkpt>
      <trkpt lat="40.19101" lon="-3.80673">
        <ele>620.6</ele>
        <time>2022-12-31 07:44:35</time>
      </trkpt>
      <trkpt lat="40.19095" lon="-3.80674">
        <ele>620.8</ele>
        <time>2022-12-31 07:44:36</time>
      </trkpt>
      <trkpt lat="40.19089" lon="-3.80676">
        <ele>620.6</ele>
        <time>2022-12-31 07:44:37</time>
      </trkpt>
      <trkpt lat="40.19084" lon="-3.80676">
        <ele>620.8</ele>
        <time>2022-12-31 07:44:38</time>
      </trkpt>
      <trkpt lat="40.19078" lon="-3.80677">
        <ele>620.6</ele>
        <time>2022-12-31 07:44:39</time>
      </trkpt>
      <trkpt lat="40.19072" lon="-3.80679">
        <ele>620.8</ele>
        <time>2022-12-31 07:44:40</time>
      </trkpt>
      <trkpt lat="40.19066" lon="-3.8068">
        <ele>620.8</ele>
        <time>2022-12-31 07:44:41</time>
      </trkpt>
      <trkpt lat="40.1906" lon="-3.8068">
        <ele>620.8</ele>
        <time>2022-12-31 07:44:42</time>
      </trkpt>
      <trkpt lat="40.19054" lon="-3.80681">
        <ele>620.8</ele>
        <time>2022-12-31 07:44:43</time>
      </trkpt>
      <trkpt lat="40.19048" lon="-3.80683">
        <ele>621</ele>
        <time>2022-12-31 07:44:44</time>
      </trkpt>
      <trkpt lat="40.19043" lon="-3.80684">
        <ele>620.8</ele>
        <time>2022-12-31 07:44:45</time>
      </trkpt>
      <trkpt lat="40.19036" lon="-3.80685">
        <ele>620.8</ele>
        <time>2022-12-31 07:44:46</time>
      </trkpt>
      <trkpt lat="40.19031" lon="-3.80687">
        <ele>620.8</ele>
        <time>2022-12-31 07:44:47</time>
      </trkpt>
      <trkpt lat="40.19025" lon="-3.80689">
        <ele>620.8</ele>
        <time>2022-12-31 07:44:48</time>
      </trkpt>
      <trkpt lat="40.19019" lon="-3.8069">
        <ele>621</ele>
        <time>2022-12-31 07:44:49</time>
      </trkpt>
      <trkpt lat="40.19013" lon="-3.80692">
        <ele>621</ele>
        <time>2022-12-31 07:44:50</time>
      </trkpt>
      <trkpt lat="40.19007" lon="-3.80694">
        <ele>621</ele>
        <time>2022-12-31 07:44:51</time>
      </trkpt>
      <trkpt lat="40.19001" lon="-3.80696">
        <ele>621</ele>
        <time>2022-12-31 07:44:52</time>
      </trkpt>
      <trkpt lat="40.18995" lon="-3.80697">
        <ele>621.2</ele>
        <time>2022-12-31 07:44:53</time>
      </trkpt>
      <trkpt lat="40.1899" lon="-3.80699">
        <ele>621</ele>
        <time>2022-12-31 07:44:54</time>
      </trkpt>
      <trkpt lat="40.18984" lon="-3.80701">
        <ele>621</ele>
        <time>2022-12-31 07:44:55</time>
      </trkpt>
      <trkpt lat="40.18978" lon="-3.80703">
        <ele>621.2</ele>
        <time>2022-12-31 07:44:56</time>
      </trkpt>
      <trkpt lat="40.18972" lon="-3.80705">
        <ele>621</ele>
        <time>2022-12-31 07:44:57</time>
      </trkpt>
      <trkpt lat="40.18967" lon="-3.80707">
        <ele>621</ele>
        <time>2022-12-31 07:44:58</time>
      </trkpt>
      <trkpt lat="40.18961" lon="-3.80709">
        <ele>621</ele>
        <time>2022-12-31 07:44:59</time>
      </trkpt>
      <trkpt lat="40.18955" lon="-3.80711">
        <ele>621</ele>
        <time>2022-12-31 07:45:00</time>
      </trkpt>
      <trkpt lat="40.1895" lon="-3.80713">
        <ele>621.2</ele>
        <time>2022-12-31 07:45:01</time>
      </trkpt>
      <trkpt lat="40.18944" lon="-3.80715">
        <ele>621.2</ele>
        <time>2022-12-31 07:45:02</time>
      </trkpt>
      <trkpt lat="40.18939" lon="-3.80717">
        <ele>621.2</ele>
        <time>2022-12-31 07:45:03</time>
      </trkpt>
      <trkpt lat="40.18934" lon="-3.80719">
        <ele>621.2</ele>
        <time>2022-12-31 07:45:04</time>
      </trkpt>
      <trkpt lat="40.1893" lon="-3.8072">
        <ele>621.4</ele>
        <time>2022-12-31 07:45:05</time>
      </trkpt>
      <trkpt lat="40.18926" lon="-3.8072">
        <ele>621.4</ele>
        <time>2022-12-31 07:45:06</time>
      </trkpt>
      <trkpt lat="40.18923" lon="-3.8072">
        <ele>621.4</ele>
        <time>2022-12-31 07:45:07</time>
      </trkpt>
      <trkpt lat="40.18921" lon="-3.80718">
        <ele>621.6</ele>
        <time>2022-12-31 07:45:08</time>
      </trkpt>
      <trkpt lat="40.18919" lon="-3.80715">
        <ele>621.6</ele>
        <time>2022-12-31 07:45:09</time>
      </trkpt>
      <trkpt lat="40.18918" lon="-3.80712">
        <ele>622</ele>
        <time>2022-12-31 07:45:10</time>
      </trkpt>
      <trkpt lat="40.18917" lon="-3.80708">
        <ele>622</ele>
        <time>2022-12-31 07:45:11</time>
      </trkpt>
      <trkpt lat="40.18917" lon="-3.80703">
        <ele>622.2</ele>
        <time>2022-12-31 07:45:12</time>
      </trkpt>
      <trkpt lat="40.18917" lon="-3.80698">
        <ele>622.6</ele>
        <time>2022-12-31 07:45:13</time>
      </trkpt>
      <trkpt lat="40.18917" lon="-3.80692">
        <ele>622.6</ele>
        <time>2022-12-31 07:45:14</time>
      </trkpt>
      <trkpt lat="40.18917" lon="-3.80686">
        <ele>623</ele>
        <time>2022-12-31 07:45:15</time>
      </trkpt>
      <trkpt lat="40.18917" lon="-3.8068">
        <ele>623</ele>
        <time>2022-12-31 07:45:16</time>
      </trkpt>
      <trkpt lat="40.18916" lon="-3.80674">
        <ele>623.2</ele>
        <time>2022-12-31 07:45:17</time>
      </trkpt>
      <trkpt lat="40.18916" lon="-3.80668">
        <ele>623</ele>
        <time>2022-12-31 07:45:18</time>
      </trkpt>
      <trkpt lat="40.18916" lon="-3.80661">
        <ele>623.2</ele>
        <time>2022-12-31 07:45:19</time>
      </trkpt>
      <trkpt lat="40.18916" lon="-3.80655">
        <ele>623.2</ele>
        <time>2022-12-31 07:45:20</time>
      </trkpt>
      <trkpt lat="40.18916" lon="-3.80649">
        <ele>623.2</ele>
        <time>2022-12-31 07:45:21</time>
      </trkpt>
      <trkpt lat="40.18916" lon="-3.80644">
        <ele>623.2</ele>
        <time>2022-12-31 07:45:22</time>
      </trkpt>
      <trkpt lat="40.18916" lon="-3.80638">
        <ele>623.4</ele>
        <time>2022-12-31 07:45:23</time>
      </trkpt>
      <trkpt lat="40.18916" lon="-3.80633">
        <ele>623.2</ele>
        <time>2022-12-31 07:45:24</time>
      </trkpt>
      <trkpt lat="40.18916" lon="-3.80627">
        <ele>623.4</ele>
        <time>2022-12-31 07:45:25</time>
      </trkpt>
      <trkpt lat="40.18916" lon="-3.80622">
        <ele>623.4</ele>
        <time>2022-12-31 07:45:26</time>
      </trkpt>
      <trkpt lat="40.18915" lon="-3.80617">
        <ele>623.6</ele>
        <time>2022-12-31 07:45:27</time>
      </trkpt>
      <trkpt lat="40.18915" lon="-3.80612">
        <ele>623.4</ele>
        <time>2022-12-31 07:45:28</time>
      </trkpt>
      <trkpt lat="40.18915" lon="-3.80607">
        <ele>623.4</ele>
        <time>2022-12-31 07:45:29</time>
      </trkpt>
      <trkpt lat="40.18915" lon="-3.80603">
        <ele>623.6</ele>
        <time>2022-12-31 07:45:30</time>
      </trkpt>
      <trkpt lat="40.18914" lon="-3.80598">
        <ele>623.6</ele>
        <time>2022-12-31 07:45:31</time>
      </trkpt>
      <trkpt lat="40.18914" lon="-3.80594">
        <ele>623.6</ele>
        <time>2022-12-31 07:45:32</time>
      </trkpt>
      <trkpt lat="40.18914" lon="-3.8059">
        <ele>623.8</ele>
        <time>2022-12-31 07:45:33</time>
      </trkpt>
      <trkpt lat="40.18913" lon="-3.80585">
        <ele>623.8</ele>
        <time>2022-12-31 07:45:34</time>
      </trkpt>
      <trkpt lat="40.18913" lon="-3.8058">
        <ele>624</ele>
        <time>2022-12-31 07:45:35</time>
      </trkpt>
      <trkpt lat="40.18912" lon="-3.80576">
        <ele>624.2</ele>
        <time>2022-12-31 07:45:36</time>
      </trkpt>
      <trkpt lat="40.18912" lon="-3.80571">
        <ele>624.6</ele>
        <time>2022-12-31 07:45:37</time>
      </trkpt>
      <trkpt lat="40.18912" lon="-3.80567">
        <ele>625</ele>
        <time>2022-12-31 07:45:38</time>
      </trkpt>
      <trkpt lat="40.18911" lon="-3.80563">
        <ele>625.4</ele>
        <time>2022-12-31 07:45:39</time>
      </trkpt>
      <trkpt lat="40.18911" lon="-3.80558">
        <ele>625.8</ele>
        <time>2022-12-31 07:45:40</time>
      </trkpt>
      <trkpt lat="40.18911" lon="-3.80553">
        <ele>626</ele>
        <time>2022-12-31 07:45:41</time>
      </trkpt>
      <trkpt lat="40.1891" lon="-3.80548">
        <ele>626.2</ele>
        <time>2022-12-31 07:45:42</time>
      </trkpt>
      <trkpt lat="40.1891" lon="-3.80544">
        <ele>626.6</ele>
        <time>2022-12-31 07:45:43</time>
      </trkpt>
      <trkpt lat="40.18909" lon="-3.8054">
        <ele>626.8</ele>
        <time>2022-12-31 07:45:44</time>
      </trkpt>
      <trkpt lat="40.18909" lon="-3.80535">
        <ele>627</ele>
        <time>2022-12-31 07:45:45</time>
      </trkpt>
      <trkpt lat="40.18908" lon="-3.8053">
        <ele>627.4</ele>
        <time>2022-12-31 07:45:46</time>
      </trkpt>
      <trkpt lat="40.18907" lon="-3.80525">
        <ele>627.4</ele>
        <time>2022-12-31 07:45:47</time>
      </trkpt>
      <trkpt lat="40.18907" lon="-3.8052">
        <ele>627.6</ele>
        <time>2022-12-31 07:45:48</time>
      </trkpt>
      <trkpt lat="40.18906" lon="-3.80515">
        <ele>628</ele>
        <time>2022-12-31 07:45:49</time>
      </trkpt>
      <trkpt lat="40.18905" lon="-3.8051">
        <ele>628</ele>
        <time>2022-12-31 07:45:50</time>
      </trkpt>
      <trkpt lat="40.18904" lon="-3.80505">
        <ele>628.2</ele>
        <time>2022-12-31 07:45:51</time>
      </trkpt>
      <trkpt lat="40.18903" lon="-3.80499">
        <ele>628.4</ele>
        <time>2022-12-31 07:45:52</time>
      </trkpt>
      <trkpt lat="40.18902" lon="-3.80494">
        <ele>628.6</ele>
        <time>2022-12-31 07:45:53</time>
      </trkpt>
      <trkpt lat="40.18901" lon="-3.80488">
        <ele>628.6</ele>
        <time>2022-12-31 07:45:54</time>
      </trkpt>
      <trkpt lat="40.189" lon="-3.80483">
        <ele>628.8</ele>
        <time>2022-12-31 07:45:55</time>
      </trkpt>
      <trkpt lat="40.18899" lon="-3.80477">
        <ele>628.8</ele>
        <time>2022-12-31 07:45:56</time>
      </trkpt>
      <trkpt lat="40.18898" lon="-3.80471">
        <ele>628.8</ele>
        <time>2022-12-31 07:45:57</time>
      </trkpt>
      <trkpt lat="40.18897" lon="-3.80464">
        <ele>628.8</ele>
        <time>2022-12-31 07:45:58</time>
      </trkpt>
      <trkpt lat="40.18896" lon="-3.80457">
        <ele>628.8</ele>
        <time>2022-12-31 07:45:59</time>
      </trkpt>
      <trkpt lat="40.18894" lon="-3.8045">
        <ele>628.8</ele>
        <time>2022-12-31 07:46:00</time>
      </trkpt>
      <trkpt lat="40.18893" lon="-3.80441">
        <ele>628.8</ele>
        <time>2022-12-31 07:46:01</time>
      </trkpt>
      <trkpt lat="40.18891" lon="-3.80433">
        <ele>628.8</ele>
        <time>2022-12-31 07:46:02</time>
      </trkpt>
      <trkpt lat="40.18889" lon="-3.80424">
        <ele>628.8</ele>
        <time>2022-12-31 07:46:03</time>
      </trkpt>
      <trkpt lat="40.18887" lon="-3.80416">
        <ele>628.6</ele>
        <time>2022-12-31 07:46:04</time>
      </trkpt>
      <trkpt lat="40.18885" lon="-3.80409">
        <ele>628.4</ele>
        <time>2022-12-31 07:46:05</time>
      </trkpt>
      <trkpt lat="40.18883" lon="-3.80402">
        <ele>628.4</ele>
        <time>2022-12-31 07:46:06</time>
      </trkpt>
      <trkpt lat="40.18881" lon="-3.80395">
        <ele>628.4</ele>
        <time>2022-12-31 07:46:07</time>
      </trkpt>
      <trkpt lat="40.18879" lon="-3.80387">
        <ele>628</ele>
        <time>2022-12-31 07:46:08</time>
      </trkpt>
      <trkpt lat="40.18877" lon="-3.80379">
        <ele>627.6</ele>
        <time>2022-12-31 07:46:09</time>
      </trkpt>
      <trkpt lat="40.18875" lon="-3.8037">
        <ele>627</ele>
        <time>2022-12-31 07:46:10</time>
      </trkpt>
      <trkpt lat="40.18873" lon="-3.80362">
        <ele>626.2</ele>
        <time>2022-12-31 07:46:11</time>
      </trkpt>
      <trkpt lat="40.1887" lon="-3.80355">
        <ele>625.4</ele>
        <time>2022-12-31 07:46:12</time>
      </trkpt>
      <trkpt lat="40.18868" lon="-3.80348">
        <ele>624.8</ele>
        <time>2022-12-31 07:46:13</time>
      </trkpt>
      <trkpt lat="40.18865" lon="-3.8034">
        <ele>624.6</ele>
        <time>2022-12-31 07:46:14</time>
      </trkpt>
      <trkpt lat="40.18863" lon="-3.80332">
        <ele>624.4</ele>
        <time>2022-12-31 07:46:15</time>
      </trkpt>
      <trkpt lat="40.18861" lon="-3.80325">
        <ele>624</ele>
        <time>2022-12-31 07:46:16</time>
      </trkpt>
      <trkpt lat="40.18859" lon="-3.80317">
        <ele>623.6</ele>
        <time>2022-12-31 07:46:17</time>
      </trkpt>
      <trkpt lat="40.18857" lon="-3.80309">
        <ele>623</ele>
        <time>2022-12-31 07:46:18</time>
      </trkpt>
      <trkpt lat="40.18855" lon="-3.80301">
        <ele>622.4</ele>
        <time>2022-12-31 07:46:19</time>
      </trkpt>
      <trkpt lat="40.18853" lon="-3.80292">
        <ele>621.8</ele>
        <time>2022-12-31 07:46:20</time>
      </trkpt>
      <trkpt lat="40.18852" lon="-3.80284">
        <ele>621.4</ele>
        <time>2022-12-31 07:46:21</time>
      </trkpt>
      <trkpt lat="40.18851" lon="-3.80275">
        <ele>620.8</ele>
        <time>2022-12-31 07:46:22</time>
      </trkpt>
      <trkpt lat="40.1885" lon="-3.80266">
        <ele>620.6</ele>
        <time>2022-12-31 07:46:23</time>
      </trkpt>
      <trkpt lat="40.18849" lon="-3.80257">
        <ele>620.2</ele>
        <time>2022-12-31 07:46:24</time>
      </trkpt>
      <trkpt lat="40.18849" lon="-3.80248">
        <ele>620</ele>
        <time>2022-12-31 07:46:25</time>
      </trkpt>
      <trkpt lat="40.18849" lon="-3.80239">
        <ele>619.8</ele>
        <time>2022-12-31 07:46:26</time>
      </trkpt>
      <trkpt lat="40.18848" lon="-3.80231">
        <ele>619.8</ele>
        <time>2022-12-31 07:46:27</time>
      </trkpt>
      <trkpt lat="40.18847" lon="-3.80221">
        <ele>619.8</ele>
        <time>2022-12-31 07:46:28</time>
      </trkpt>
      <trkpt lat="40.18847" lon="-3.80212">
        <ele>619.6</ele>
        <time>2022-12-31 07:46:29</time>
      </trkpt>
      <trkpt lat="40.18847" lon="-3.80203">
        <ele>619.4</ele>
        <time>2022-12-31 07:46:30</time>
      </trkpt>
      <trkpt lat="40.18847" lon="-3.80194">
        <ele>619.4</ele>
        <time>2022-12-31 07:46:31</time>
      </trkpt>
      <trkpt lat="40.18846" lon="-3.80184">
        <ele>619.4</ele>
        <time>2022-12-31 07:46:32</time>
      </trkpt>
      <trkpt lat="40.18846" lon="-3.80175">
        <ele>619.4</ele>
        <time>2022-12-31 07:46:33</time>
      </trkpt>
      <trkpt lat="40.18846" lon="-3.80166">
        <ele>619.2</ele>
        <time>2022-12-31 07:46:34</time>
      </trkpt>
      <trkpt lat="40.18845" lon="-3.80157">
        <ele>619.2</ele>
        <time>2022-12-31 07:46:35</time>
      </trkpt>
      <trkpt lat="40.18845" lon="-3.80149">
        <ele>619.2</ele>
        <time>2022-12-31 07:46:36</time>
      </trkpt>
      <trkpt lat="40.18844" lon="-3.8014">
        <ele>619</ele>
        <time>2022-12-31 07:46:37</time>
      </trkpt>
      <trkpt lat="40.18843" lon="-3.80131">
        <ele>619</ele>
        <time>2022-12-31 07:46:38</time>
      </trkpt>
      <trkpt lat="40.18843" lon="-3.80122">
        <ele>619.2</ele>
        <time>2022-12-31 07:46:39</time>
      </trkpt>
      <trkpt lat="40.18842" lon="-3.80114">
        <ele>619</ele>
        <time>2022-12-31 07:46:40</time>
      </trkpt>
      <trkpt lat="40.18842" lon="-3.80105">
        <ele>619</ele>
        <time>2022-12-31 07:46:41</time>
      </trkpt>
      <trkpt lat="40.18841" lon="-3.80096">
        <ele>618.8</ele>
        <time>2022-12-31 07:46:42</time>
      </trkpt>
      <trkpt lat="40.1884" lon="-3.80087">
        <ele>619</ele>
        <time>2022-12-31 07:46:43</time>
      </trkpt>
      <trkpt lat="40.1884" lon="-3.80078">
        <ele>618.8</ele>
        <time>2022-12-31 07:46:44</time>
      </trkpt>
      <trkpt lat="40.1884" lon="-3.80069">
        <ele>618.8</ele>
        <time>2022-12-31 07:46:45</time>
      </trkpt>
      <trkpt lat="40.18839" lon="-3.8006">
        <ele>618.8</ele>
        <time>2022-12-31 07:46:46</time>
      </trkpt>
      <trkpt lat="40.18839" lon="-3.8005">
        <ele>618.8</ele>
        <time>2022-12-31 07:46:47</time>
      </trkpt>
      <trkpt lat="40.18839" lon="-3.80041">
        <ele>618.8</ele>
        <time>2022-12-31 07:46:48</time>
      </trkpt>
      <trkpt lat="40.18839" lon="-3.80032">
        <ele>618.6</ele>
        <time>2022-12-31 07:46:49</time>
      </trkpt>
      <trkpt lat="40.1884" lon="-3.80022">
        <ele>618.8</ele>
        <time>2022-12-31 07:46:50</time>
      </trkpt>
      <trkpt lat="40.18841" lon="-3.80013">
        <ele>618.8</ele>
        <time>2022-12-31 07:46:51</time>
      </trkpt>
      <trkpt lat="40.18842" lon="-3.80004">
        <ele>618.4</ele>
        <time>2022-12-31 07:46:52</time>
      </trkpt>
      <trkpt lat="40.18842" lon="-3.79995">
        <ele>618.4</ele>
        <time>2022-12-31 07:46:53</time>
      </trkpt>
      <trkpt lat="40.18843" lon="-3.79986">
        <ele>618.4</ele>
        <time>2022-12-31 07:46:54</time>
      </trkpt>
      <trkpt lat="40.18845" lon="-3.79977">
        <ele>618.2</ele>
        <time>2022-12-31 07:46:55</time>
      </trkpt>
      <trkpt lat="40.18847" lon="-3.79969">
        <ele>617.8</ele>
        <time>2022-12-31 07:46:56</time>
      </trkpt>
      <trkpt lat="40.18848" lon="-3.79961">
        <ele>617.8</ele>
        <time>2022-12-31 07:46:57</time>
      </trkpt>
      <trkpt lat="40.1885" lon="-3.79953">
        <ele>617.6</ele>
        <time>2022-12-31 07:46:58</time>
      </trkpt>
      <trkpt lat="40.18852" lon="-3.79945">
        <ele>617.6</ele>
        <time>2022-12-31 07:46:59</time>
      </trkpt>
      <trkpt lat="40.18854" lon="-3.79937">
        <ele>617.6</ele>
        <time>2022-12-31 07:47:00</time>
      </trkpt>
      <trkpt lat="40.18856" lon="-3.79929">
        <ele>617.6</ele>
        <time>2022-12-31 07:47:01</time>
      </trkpt>
      <trkpt lat="40.18859" lon="-3.79921">
        <ele>617.6</ele>
        <time>2022-12-31 07:47:02</time>
      </trkpt>
      <trkpt lat="40.18861" lon="-3.79913">
        <ele>617.4</ele>
        <time>2022-12-31 07:47:03</time>
      </trkpt>
      <trkpt lat="40.18863" lon="-3.79905">
        <ele>617.4</ele>
        <time>2022-12-31 07:47:04</time>
      </trkpt>
      <trkpt lat="40.18866" lon="-3.79897">
        <ele>617.2</ele>
        <time>2022-12-31 07:47:05</time>
      </trkpt>
      <trkpt lat="40.18868" lon="-3.79889">
        <ele>617</ele>
        <time>2022-12-31 07:47:06</time>
      </trkpt>
      <trkpt lat="40.1887" lon="-3.7988">
        <ele>617</ele>
        <time>2022-12-31 07:47:07</time>
      </trkpt>
      <trkpt lat="40.18872" lon="-3.79872">
        <ele>616.8</ele>
        <time>2022-12-31 07:47:08</time>
      </trkpt>
      <trkpt lat="40.18875" lon="-3.79864">
        <ele>616.8</ele>
        <time>2022-12-31 07:47:09</time>
      </trkpt>
      <trkpt lat="40.18877" lon="-3.79856">
        <ele>616.8</ele>
        <time>2022-12-31 07:47:10</time>
      </trkpt>
      <trkpt lat="40.18879" lon="-3.79848">
        <ele>616.8</ele>
        <time>2022-12-31 07:47:11</time>
      </trkpt>
      <trkpt lat="40.18882" lon="-3.7984">
        <ele>616.6</ele>
        <time>2022-12-31 07:47:12</time>
      </trkpt>
      <trkpt lat="40.18885" lon="-3.79832">
        <ele>616.6</ele>
        <time>2022-12-31 07:47:13</time>
      </trkpt>
      <trkpt lat="40.18887" lon="-3.79824">
        <ele>616.6</ele>
        <time>2022-12-31 07:47:14</time>
      </trkpt>
      <trkpt lat="40.1889" lon="-3.79816">
        <ele>616.6</ele>
        <time>2022-12-31 07:47:15</time>
      </trkpt>
      <trkpt lat="40.18892" lon="-3.79807">
        <ele>616.6</ele>
        <time>2022-12-31 07:47:16</time>
      </trkpt>
      <trkpt lat="40.18894" lon="-3.79799">
        <ele>616.4</ele>
        <time>2022-12-31 07:47:17</time>
      </trkpt>
      <trkpt lat="40.18896" lon="-3.79791">
        <ele>616.4</ele>
        <time>2022-12-31 07:47:18</time>
      </trkpt>
      <trkpt lat="40.18898" lon="-3.79783">
        <ele>616.4</ele>
        <time>2022-12-31 07:47:19</time>
      </trkpt>
      <trkpt lat="40.189" lon="-3.79774">
        <ele>616.4</ele>
        <time>2022-12-31 07:47:20</time>
      </trkpt>
      <trkpt lat="40.18902" lon="-3.79766">
        <ele>616.4</ele>
        <time>2022-12-31 07:47:21</time>
      </trkpt>
      <trkpt lat="40.18903" lon="-3.79757">
        <ele>616.4</ele>
        <time>2022-12-31 07:47:22</time>
      </trkpt>
      <trkpt lat="40.18905" lon="-3.79749">
        <ele>616.2</ele>
        <time>2022-12-31 07:47:23</time>
      </trkpt>
      <trkpt lat="40.18906" lon="-3.7974">
        <ele>616.2</ele>
        <time>2022-12-31 07:47:24</time>
      </trkpt>
      <trkpt lat="40.18907" lon="-3.79732">
        <ele>616.2</ele>
        <time>2022-12-31 07:47:25</time>
      </trkpt>
      <trkpt lat="40.18908" lon="-3.79724">
        <ele>616</ele>
        <time>2022-12-31 07:47:26</time>
      </trkpt>
      <trkpt lat="40.18908" lon="-3.79715">
        <ele>616.2</ele>
        <time>2022-12-31 07:47:27</time>
      </trkpt>
      <trkpt lat="40.18909" lon="-3.79706">
        <ele>616.2</ele>
        <time>2022-12-31 07:47:28</time>
      </trkpt>
      <trkpt lat="40.18909" lon="-3.79698">
        <ele>616.2</ele>
        <time>2022-12-31 07:47:29</time>
      </trkpt>
      <trkpt lat="40.18909" lon="-3.79689">
        <ele>616</ele>
        <time>2022-12-31 07:47:30</time>
      </trkpt>
      <trkpt lat="40.18909" lon="-3.7968">
        <ele>616</ele>
        <time>2022-12-31 07:47:31</time>
      </trkpt>
      <trkpt lat="40.18908" lon="-3.79672">
        <ele>616</ele>
        <time>2022-12-31 07:47:32</time>
      </trkpt>
      <trkpt lat="40.18908" lon="-3.79663">
        <ele>615.8</ele>
        <time>2022-12-31 07:47:33</time>
      </trkpt>
      <trkpt lat="40.18907" lon="-3.79655">
        <ele>616</ele>
        <time>2022-12-31 07:47:34</time>
      </trkpt>
      <trkpt lat="40.18907" lon="-3.79647">
        <ele>615.8</ele>
        <time>2022-12-31 07:47:35</time>
      </trkpt>
      <trkpt lat="40.18906" lon="-3.79638">
        <ele>616</ele>
        <time>2022-12-31 07:47:36</time>
      </trkpt>
      <trkpt lat="40.18905" lon="-3.7963">
        <ele>615.8</ele>
        <time>2022-12-31 07:47:37</time>
      </trkpt>
      <trkpt lat="40.18903" lon="-3.79622">
        <ele>615.6</ele>
        <time>2022-12-31 07:47:38</time>
      </trkpt>
      <trkpt lat="40.18902" lon="-3.79613">
        <ele>615.4</ele>
        <time>2022-12-31 07:47:39</time>
      </trkpt>
      <trkpt lat="40.189" lon="-3.79605">
        <ele>615.6</ele>
        <time>2022-12-31 07:47:40</time>
      </trkpt>
      <trkpt lat="40.18898" lon="-3.79597">
        <ele>615.4</ele>
        <time>2022-12-31 07:47:41</time>
      </trkpt>
      <trkpt lat="40.18897" lon="-3.79589">
        <ele>615.4</ele>
        <time>2022-12-31 07:47:42</time>
      </trkpt>
      <trkpt lat="40.18895" lon="-3.79581">
        <ele>615.4</ele>
        <time>2022-12-31 07:47:43</time>
      </trkpt>
      <trkpt lat="40.18893" lon="-3.79573">
        <ele>615.4</ele>
        <time>2022-12-31 07:47:44</time>
      </trkpt>
      <trkpt lat="40.18892" lon="-3.79566">
        <ele>615.4</ele>
        <time>2022-12-31 07:47:45</time>
      </trkpt>
      <trkpt lat="40.1889" lon="-3.79558">
        <ele>615.4</ele>
        <time>2022-12-31 07:47:46</time>
      </trkpt>
      <trkpt lat="40.18888" lon="-3.7955">
        <ele>615.2</ele>
        <time>2022-12-31 07:47:47</time>
      </trkpt>
      <trkpt lat="40.18886" lon="-3.79542">
        <ele>615.4</ele>
        <time>2022-12-31 07:47:48</time>
      </trkpt>
      <trkpt lat="40.18885" lon="-3.79535">
        <ele>615.4</ele>
        <time>2022-12-31 07:47:49</time>
      </trkpt>
      <trkpt lat="40.18883" lon="-3.79528">
        <ele>615.4</ele>
        <time>2022-12-31 07:47:50</time>
      </trkpt>
      <trkpt lat="40.18882" lon="-3.79521">
        <ele>615.4</ele>
        <time>2022-12-31 07:47:51</time>
      </trkpt>
      <trkpt lat="40.18879" lon="-3.79515">
        <ele>615.4</ele>
        <time>2022-12-31 07:47:52</time>
      </trkpt>
      <trkpt lat="40.18877" lon="-3.79508">
        <ele>615.4</ele>
        <time>2022-12-31 07:47:53</time>
      </trkpt>
      <trkpt lat="40.18875" lon="-3.79501">
        <ele>615.4</ele>
        <time>2022-12-31 07:47:54</time>
      </trkpt>
      <trkpt lat="40.18873" lon="-3.79495">
        <ele>615.4</ele>
        <time>2022-12-31 07:47:55</time>
      </trkpt>
      <trkpt lat="40.18871" lon="-3.79489">
        <ele>615.4</ele>
        <time>2022-12-31 07:47:56</time>
      </trkpt>
      <trkpt lat="40.18869" lon="-3.79482">
        <ele>615.4</ele>
        <time>2022-12-31 07:47:57</time>
      </trkpt>
      <trkpt lat="40.18867" lon="-3.79476">
        <ele>615.4</ele>
        <time>2022-12-31 07:47:58</time>
      </trkpt>
      <trkpt lat="40.18865" lon="-3.7947">
        <ele>615.4</ele>
        <time>2022-12-31 07:47:59</time>
      </trkpt>
      <trkpt lat="40.18863" lon="-3.79464">
        <ele>615.4</ele>
        <time>2022-12-31 07:48:00</time>
      </trkpt>
      <trkpt lat="40.18861" lon="-3.79458">
        <ele>615.4</ele>
        <time>2022-12-31 07:48:01</time>
      </trkpt>
      <trkpt lat="40.1886" lon="-3.79453">
        <ele>615.4</ele>
        <time>2022-12-31 07:48:02</time>
      </trkpt>
      <trkpt lat="40.18858" lon="-3.7945">
        <ele>615.4</ele>
        <time>2022-12-31 07:48:03</time>
      </trkpt>
      <trkpt lat="40.18857" lon="-3.79446">
        <ele>615.4</ele>
        <time>2022-12-31 07:48:04</time>
      </trkpt>
      <trkpt lat="40.18856" lon="-3.79443">
        <ele>615.4</ele>
        <time>2022-12-31 07:48:05</time>
      </trkpt>
      <trkpt lat="40.18854" lon="-3.7944">
        <ele>615.4</ele>
        <time>2022-12-31 07:48:06</time>
      </trkpt>
      <trkpt lat="40.18853" lon="-3.79437">
        <ele>615.4</ele>
        <time>2022-12-31 07:48:07</time>
      </trkpt>
      <trkpt lat="40.18851" lon="-3.79433">
        <ele>615.4</ele>
        <time>2022-12-31 07:48:08</time>
      </trkpt>
      <trkpt lat="40.1885" lon="-3.79429">
        <ele>615.4</ele>
        <time>2022-12-31 07:48:09</time>
      </trkpt>
      <trkpt lat="40.18849" lon="-3.79424">
        <ele>615.4</ele>
        <time>2022-12-31 07:48:10</time>
      </trkpt>
      <trkpt lat="40.18847" lon="-3.79418">
        <ele>615.6</ele>
        <time>2022-12-31 07:48:11</time>
      </trkpt>
      <trkpt lat="40.18846" lon="-3.79412">
        <ele>615.4</ele>
        <time>2022-12-31 07:48:12</time>
      </trkpt>
      <trkpt lat="40.18844" lon="-3.79406">
        <ele>615.4</ele>
        <time>2022-12-31 07:48:13</time>
      </trkpt>
      <trkpt lat="40.18843" lon="-3.79399">
        <ele>615.6</ele>
        <time>2022-12-31 07:48:14</time>
      </trkpt>
      <trkpt lat="40.18841" lon="-3.79393">
        <ele>615.4</ele>
        <time>2022-12-31 07:48:15</time>
      </trkpt>
      <trkpt lat="40.1884" lon="-3.79386">
        <ele>615.4</ele>
        <time>2022-12-31 07:48:16</time>
      </trkpt>
      <trkpt lat="40.18838" lon="-3.79379">
        <ele>615.4</ele>
        <time>2022-12-31 07:48:17</time>
      </trkpt>
      <trkpt lat="40.18837" lon="-3.79372">
        <ele>615.6</ele>
        <time>2022-12-31 07:48:18</time>
      </trkpt>
      <trkpt lat="40.18835" lon="-3.79365">
        <ele>615.4</ele>
        <time>2022-12-31 07:48:19</time>
      </trkpt>
      <trkpt lat="40.18834" lon="-3.79358">
        <ele>615.4</ele>
        <time>2022-12-31 07:48:20</time>
      </trkpt>
      <trkpt lat="40.18833" lon="-3.79351">
        <ele>615.2</ele>
        <time>2022-12-31 07:48:21</time>
      </trkpt>
      <trkpt lat="40.18831" lon="-3.79344">
        <ele>615</ele>
        <time>2022-12-31 07:48:22</time>
      </trkpt>
      <trkpt lat="40.1883" lon="-3.79336">
        <ele>615</ele>
        <time>2022-12-31 07:48:23</time>
      </trkpt>
      <trkpt lat="40.18828" lon="-3.79329">
        <ele>614.8</ele>
        <time>2022-12-31 07:48:24</time>
      </trkpt>
      <trkpt lat="40.18827" lon="-3.79321">
        <ele>614.8</ele>
        <time>2022-12-31 07:48:25</time>
      </trkpt>
      <trkpt lat="40.18826" lon="-3.79314">
        <ele>614.8</ele>
        <time>2022-12-31 07:48:26</time>
      </trkpt>
      <trkpt lat="40.18824" lon="-3.79306">
        <ele>614.8</ele>
        <time>2022-12-31 07:48:27</time>
      </trkpt>
      <trkpt lat="40.18824" lon="-3.79298">
        <ele>614.6</ele>
        <time>2022-12-31 07:48:28</time>
      </trkpt>
      <trkpt lat="40.18823" lon="-3.79291">
        <ele>614.6</ele>
        <time>2022-12-31 07:48:29</time>
      </trkpt>
      <trkpt lat="40.18822" lon="-3.79283">
        <ele>614.6</ele>
        <time>2022-12-31 07:48:30</time>
      </trkpt>
      <trkpt lat="40.18822" lon="-3.79276">
        <ele>614.6</ele>
        <time>2022-12-31 07:48:31</time>
      </trkpt>
      <trkpt lat="40.18822" lon="-3.79268">
        <ele>614.6</ele>
        <time>2022-12-31 07:48:32</time>
      </trkpt>
      <trkpt lat="40.18823" lon="-3.7926">
        <ele>614.4</ele>
        <time>2022-12-31 07:48:33</time>
      </trkpt>
      <trkpt lat="40.18824" lon="-3.79253">
        <ele>614.4</ele>
        <time>2022-12-31 07:48:34</time>
      </trkpt>
      <trkpt lat="40.18825" lon="-3.79246">
        <ele>614.4</ele>
        <time>2022-12-31 07:48:35</time>
      </trkpt>
      <trkpt lat="40.18826" lon="-3.7924">
        <ele>614.2</ele>
        <time>2022-12-31 07:48:36</time>
      </trkpt>
      <trkpt lat="40.18827" lon="-3.79233">
        <ele>614</ele>
        <time>2022-12-31 07:48:37</time>
      </trkpt>
      <trkpt lat="40.18829" lon="-3.79227">
        <ele>613.8</ele>
        <time>2022-12-31 07:48:38</time>
      </trkpt>
      <trkpt lat="40.1883" lon="-3.7922">
        <ele>614</ele>
        <time>2022-12-31 07:48:39</time>
      </trkpt>
      <trkpt lat="40.18831" lon="-3.79213">
        <ele>613.8</ele>
        <time>2022-12-31 07:48:40</time>
      </trkpt>
      <trkpt lat="40.18832" lon="-3.79206">
        <ele>613.8</ele>
        <time>2022-12-31 07:48:41</time>
      </trkpt>
      <trkpt lat="40.18832" lon="-3.79199">
        <ele>613.8</ele>
        <time>2022-12-31 07:48:42</time>
      </trkpt>
      <trkpt lat="40.18834" lon="-3.79191">
        <ele>613.8</ele>
        <time>2022-12-31 07:48:43</time>
      </trkpt>
      <trkpt lat="40.18835" lon="-3.79184">
        <ele>613.8</ele>
        <time>2022-12-31 07:48:44</time>
      </trkpt>
      <trkpt lat="40.18836" lon="-3.79176">
        <ele>613.8</ele>
        <time>2022-12-31 07:48:45</time>
      </trkpt>
      <trkpt lat="40.18836" lon="-3.79168">
        <ele>613.6</ele>
        <time>2022-12-31 07:48:46</time>
      </trkpt>
      <trkpt lat="40.18837" lon="-3.79161">
        <ele>613.4</ele>
        <time>2022-12-31 07:48:47</time>
      </trkpt>
      <trkpt lat="40.18838" lon="-3.79154">
        <ele>613.4</ele>
        <time>2022-12-31 07:48:48</time>
      </trkpt>
      <trkpt lat="40.18839" lon="-3.79147">
        <ele>613.4</ele>
        <time>2022-12-31 07:48:49</time>
      </trkpt>
      <trkpt lat="40.18841" lon="-3.79139">
        <ele>613.4</ele>
        <time>2022-12-31 07:48:50</time>
      </trkpt>
      <trkpt lat="40.18842" lon="-3.79132">
        <ele>613.2</ele>
        <time>2022-12-31 07:48:51</time>
      </trkpt>
      <trkpt lat="40.18844" lon="-3.79124">
        <ele>613.2</ele>
        <time>2022-12-31 07:48:52</time>
      </trkpt>
      <trkpt lat="40.18846" lon="-3.79116">
        <ele>613</ele>
        <time>2022-12-31 07:48:53</time>
      </trkpt>
      <trkpt lat="40.18848" lon="-3.79109">
        <ele>613</ele>
        <time>2022-12-31 07:48:54</time>
      </trkpt>
      <trkpt lat="40.1885" lon="-3.79101">
        <ele>612.8</ele>
        <time>2022-12-31 07:48:55</time>
      </trkpt>
      <trkpt lat="40.18852" lon="-3.79093">
        <ele>612.8</ele>
        <time>2022-12-31 07:48:56</time>
      </trkpt>
      <trkpt lat="40.18854" lon="-3.79084">
        <ele>612.8</ele>
        <time>2022-12-31 07:48:57</time>
      </trkpt>
      <trkpt lat="40.18856" lon="-3.79076">
        <ele>612.8</ele>
        <time>2022-12-31 07:48:58</time>
      </trkpt>
      <trkpt lat="40.18859" lon="-3.79067">
        <ele>612.8</ele>
        <time>2022-12-31 07:48:59</time>
      </trkpt>
      <trkpt lat="40.18862" lon="-3.79059">
        <ele>612.6</ele>
        <time>2022-12-31 07:49:00</time>
      </trkpt>
      <trkpt lat="40.18865" lon="-3.7905">
        <ele>612.4</ele>
        <time>2022-12-31 07:49:01</time>
      </trkpt>
      <trkpt lat="40.18868" lon="-3.79041">
        <ele>612</ele>
        <time>2022-12-31 07:49:02</time>
      </trkpt>
      <trkpt lat="40.18871" lon="-3.79033">
        <ele>611.8</ele>
        <time>2022-12-31 07:49:03</time>
      </trkpt>
      <trkpt lat="40.18874" lon="-3.79025">
        <ele>611.4</ele>
        <time>2022-12-31 07:49:04</time>
      </trkpt>
      <trkpt lat="40.18877" lon="-3.79017">
        <ele>611</ele>
        <time>2022-12-31 07:49:05</time>
      </trkpt>
      <trkpt lat="40.1888" lon="-3.79009">
        <ele>610.8</ele>
        <time>2022-12-31 07:49:06</time>
      </trkpt>
      <trkpt lat="40.18883" lon="-3.79">
        <ele>610.4</ele>
        <time>2022-12-31 07:49:07</time>
      </trkpt>
      <trkpt lat="40.18885" lon="-3.78993">
        <ele>610</ele>
        <time>2022-12-31 07:49:08</time>
      </trkpt>
      <trkpt lat="40.18888" lon="-3.78985">
        <ele>609.6</ele>
        <time>2022-12-31 07:49:09</time>
      </trkpt>
      <trkpt lat="40.1889" lon="-3.78977">
        <ele>609</ele>
        <time>2022-12-31 07:49:10</time>
      </trkpt>
      <trkpt lat="40.18891" lon="-3.78969">
        <ele>609</ele>
        <time>2022-12-31 07:49:11</time>
      </trkpt>
      <trkpt lat="40.18892" lon="-3.78961">
        <ele>608.6</ele>
        <time>2022-12-31 07:49:12</time>
      </trkpt>
      <trkpt lat="40.18893" lon="-3.78953">
        <ele>608.4</ele>
        <time>2022-12-31 07:49:13</time>
      </trkpt>
      <trkpt lat="40.18893" lon="-3.78944">
        <ele>608.2</ele>
        <time>2022-12-31 07:49:14</time>
      </trkpt>
      <trkpt lat="40.18893" lon="-3.78936">
        <ele>608.2</ele>
        <time>2022-12-31 07:49:15</time>
      </trkpt>
      <trkpt lat="40.18893" lon="-3.78928">
        <ele>608</ele>
        <time>2022-12-31 07:49:16</time>
      </trkpt>
      <trkpt lat="40.18894" lon="-3.7892">
        <ele>608</ele>
        <time>2022-12-31 07:49:17</time>
      </trkpt>
      <trkpt lat="40.18895" lon="-3.78912">
        <ele>607.8</ele>
        <time>2022-12-31 07:49:18</time>
      </trkpt>
      <trkpt lat="40.18896" lon="-3.78904">
        <ele>607.6</ele>
        <time>2022-12-31 07:49:19</time>
      </trkpt>
      <trkpt lat="40.18897" lon="-3.78895">
        <ele>607.6</ele>
        <time>2022-12-31 07:49:20</time>
      </trkpt>
      <trkpt lat="40.18898" lon="-3.78887">
        <ele>607.2</ele>
        <time>2022-12-31 07:49:21</time>
      </trkpt>
      <trkpt lat="40.18899" lon="-3.78879">
        <ele>607.4</ele>
        <time>2022-12-31 07:49:22</time>
      </trkpt>
      <trkpt lat="40.189" lon="-3.78871">
        <ele>607.4</ele>
        <time>2022-12-31 07:49:23</time>
      </trkpt>
      <trkpt lat="40.189" lon="-3.78863">
        <ele>607.2</ele>
        <time>2022-12-31 07:49:24</time>
      </trkpt>
      <trkpt lat="40.189" lon="-3.78855">
        <ele>607.2</ele>
        <time>2022-12-31 07:49:25</time>
      </trkpt>
      <trkpt lat="40.18901" lon="-3.78848">
        <ele>607.2</ele>
        <time>2022-12-31 07:49:26</time>
      </trkpt>
      <trkpt lat="40.189" lon="-3.78841">
        <ele>607.2</ele>
        <time>2022-12-31 07:49:27</time>
      </trkpt>
      <trkpt lat="40.18899" lon="-3.78836">
        <ele>607</ele>
        <time>2022-12-31 07:49:28</time>
      </trkpt>
      <trkpt lat="40.18899" lon="-3.78831">
        <ele>606.8</ele>
        <time>2022-12-31 07:49:29</time>
      </trkpt>
      <trkpt lat="40.18897" lon="-3.78827">
        <ele>606.8</ele>
        <time>2022-12-31 07:49:30</time>
      </trkpt>
      <trkpt lat="40.18896" lon="-3.78823">
        <ele>606.8</ele>
        <time>2022-12-31 07:49:31</time>
      </trkpt>
      <trkpt lat="40.18894" lon="-3.78819">
        <ele>606.8</ele>
        <time>2022-12-31 07:49:32</time>
      </trkpt>
      <trkpt lat="40.18892" lon="-3.78815">
        <ele>606.8</ele>
        <time>2022-12-31 07:49:33</time>
      </trkpt>
      <trkpt lat="40.18891" lon="-3.78811">
        <ele>606.8</ele>
        <time>2022-12-31 07:49:34</time>
      </trkpt>
      <trkpt lat="40.18889" lon="-3.78807">
        <ele>606.8</ele>
        <time>2022-12-31 07:49:35</time>
      </trkpt>
      <trkpt lat="40.18888" lon="-3.78802">
        <ele>607</ele>
        <time>2022-12-31 07:49:36</time>
      </trkpt>
      <trkpt lat="40.18887" lon="-3.78796">
        <ele>606.8</ele>
        <time>2022-12-31 07:49:37</time>
      </trkpt>
      <trkpt lat="40.18885" lon="-3.78791">
        <ele>607</ele>
        <time>2022-12-31 07:49:38</time>
      </trkpt>
      <trkpt lat="40.18883" lon="-3.78786">
        <ele>607</ele>
        <time>2022-12-31 07:49:39</time>
      </trkpt>
      <trkpt lat="40.18882" lon="-3.7878">
        <ele>607</ele>
        <time>2022-12-31 07:49:40</time>
      </trkpt>
      <trkpt lat="40.1888" lon="-3.78774">
        <ele>606.8</ele>
        <time>2022-12-31 07:49:41</time>
      </trkpt>
      <trkpt lat="40.18878" lon="-3.78768">
        <ele>607</ele>
        <time>2022-12-31 07:49:42</time>
      </trkpt>
      <trkpt lat="40.18876" lon="-3.78762">
        <ele>607</ele>
        <time>2022-12-31 07:49:43</time>
      </trkpt>
      <trkpt lat="40.18874" lon="-3.78756">
        <ele>607</ele>
        <time>2022-12-31 07:49:44</time>
      </trkpt>
      <trkpt lat="40.18872" lon="-3.78749">
        <ele>607</ele>
        <time>2022-12-31 07:49:45</time>
      </trkpt>
      <trkpt lat="40.1887" lon="-3.78742">
        <ele>606.8</ele>
        <time>2022-12-31 07:49:46</time>
      </trkpt>
      <trkpt lat="40.18867" lon="-3.78736">
        <ele>607</ele>
        <time>2022-12-31 07:49:47</time>
      </trkpt>
      <trkpt lat="40.18865" lon="-3.78729">
        <ele>607</ele>
        <time>2022-12-31 07:49:48</time>
      </trkpt>
      <trkpt lat="40.18863" lon="-3.78722">
        <ele>607</ele>
        <time>2022-12-31 07:49:49</time>
      </trkpt>
      <trkpt lat="40.18862" lon="-3.78714">
        <ele>607</ele>
        <time>2022-12-31 07:49:50</time>
      </trkpt>
      <trkpt lat="40.1886" lon="-3.78707">
        <ele>607</ele>
        <time>2022-12-31 07:49:51</time>
      </trkpt>
      <trkpt lat="40.18859" lon="-3.787">
        <ele>607</ele>
        <time>2022-12-31 07:49:52</time>
      </trkpt>
      <trkpt lat="40.18858" lon="-3.78692">
        <ele>607</ele>
        <time>2022-12-31 07:49:53</time>
      </trkpt>
      <trkpt lat="40.18857" lon="-3.78685">
        <ele>607</ele>
        <time>2022-12-31 07:49:54</time>
      </trkpt>
      <trkpt lat="40.18855" lon="-3.78677">
        <ele>606.8</ele>
        <time>2022-12-31 07:49:55</time>
      </trkpt>
      <trkpt lat="40.18854" lon="-3.78669">
        <ele>606.6</ele>
        <time>2022-12-31 07:49:56</time>
      </trkpt>
      <trkpt lat="40.18853" lon="-3.7866">
        <ele>606.6</ele>
        <time>2022-12-31 07:49:57</time>
      </trkpt>
      <trkpt lat="40.18852" lon="-3.78653">
        <ele>606.4</ele>
        <time>2022-12-31 07:49:58</time>
      </trkpt>
      <trkpt lat="40.18851" lon="-3.78645">
        <ele>606.4</ele>
        <time>2022-12-31 07:49:59</time>
      </trkpt>
      <trkpt lat="40.1885" lon="-3.78637">
        <ele>606.2</ele>
        <time>2022-12-31 07:50:00</time>
      </trkpt>
      <trkpt lat="40.18849" lon="-3.78629">
        <ele>606.2</ele>
        <time>2022-12-31 07:50:01</time>
      </trkpt>
      <trkpt lat="40.18849" lon="-3.78621">
        <ele>606</ele>
        <time>2022-12-31 07:50:02</time>
      </trkpt>
      <trkpt lat="40.18848" lon="-3.78613">
        <ele>606.2</ele>
        <time>2022-12-31 07:50:03</time>
      </trkpt>
      <trkpt lat="40.18846" lon="-3.78605">
        <ele>606</ele>
        <time>2022-12-31 07:50:04</time>
      </trkpt>
      <trkpt lat="40.18845" lon="-3.78598">
        <ele>606</ele>
        <time>2022-12-31 07:50:05</time>
      </trkpt>
      <trkpt lat="40.18843" lon="-3.7859">
        <ele>605.8</ele>
        <time>2022-12-31 07:50:06</time>
      </trkpt>
      <trkpt lat="40.18842" lon="-3.78582">
        <ele>605.8</ele>
        <time>2022-12-31 07:50:07</time>
      </trkpt>
      <trkpt lat="40.1884" lon="-3.78575">
        <ele>606</ele>
        <time>2022-12-31 07:50:08</time>
      </trkpt>
      <trkpt lat="40.18839" lon="-3.78567">
        <ele>605.8</ele>
        <time>2022-12-31 07:50:09</time>
      </trkpt>
      <trkpt lat="40.18838" lon="-3.78559">
        <ele>605.8</ele>
        <time>2022-12-31 07:50:10</time>
      </trkpt>
      <trkpt lat="40.18838" lon="-3.78551">
        <ele>605.8</ele>
        <time>2022-12-31 07:50:11</time>
      </trkpt>
      <trkpt lat="40.18837" lon="-3.78542">
        <ele>605.8</ele>
        <time>2022-12-31 07:50:12</time>
      </trkpt>
      <trkpt lat="40.18836" lon="-3.78534">
        <ele>605.8</ele>
        <time>2022-12-31 07:50:13</time>
      </trkpt>
      <trkpt lat="40.18835" lon="-3.78525">
        <ele>605.6</ele>
        <time>2022-12-31 07:50:14</time>
      </trkpt>
      <trkpt lat="40.18835" lon="-3.78517">
        <ele>605.8</ele>
        <time>2022-12-31 07:50:15</time>
      </trkpt>
      <trkpt lat="40.18835" lon="-3.78509">
        <ele>605.6</ele>
        <time>2022-12-31 07:50:16</time>
      </trkpt>
      <trkpt lat="40.18835" lon="-3.785">
        <ele>605.8</ele>
        <time>2022-12-31 07:50:17</time>
      </trkpt>
      <trkpt lat="40.18835" lon="-3.78492">
        <ele>605.6</ele>
        <time>2022-12-31 07:50:18</time>
      </trkpt>
      <trkpt lat="40.18834" lon="-3.78484">
        <ele>605.4</ele>
        <time>2022-12-31 07:50:19</time>
      </trkpt>
      <trkpt lat="40.18833" lon="-3.78475">
        <ele>605.4</ele>
        <time>2022-12-31 07:50:20</time>
      </trkpt>
      <trkpt lat="40.18832" lon="-3.78467">
        <ele>605.2</ele>
        <time>2022-12-31 07:50:21</time>
      </trkpt>
      <trkpt lat="40.18831" lon="-3.7846">
        <ele>605</ele>
        <time>2022-12-31 07:50:22</time>
      </trkpt>
      <trkpt lat="40.18829" lon="-3.78452">
        <ele>605</ele>
        <time>2022-12-31 07:50:23</time>
      </trkpt>
      <trkpt lat="40.18827" lon="-3.78444">
        <ele>604.8</ele>
        <time>2022-12-31 07:50:24</time>
      </trkpt>
      <trkpt lat="40.18824" lon="-3.78437">
        <ele>604.6</ele>
        <time>2022-12-31 07:50:25</time>
      </trkpt>
      <trkpt lat="40.18822" lon="-3.78429">
        <ele>604.6</ele>
        <time>2022-12-31 07:50:26</time>
      </trkpt>
      <trkpt lat="40.18819" lon="-3.78422">
        <ele>604.6</ele>
        <time>2022-12-31 07:50:27</time>
      </trkpt>
      <trkpt lat="40.18816" lon="-3.78416">
        <ele>604.6</ele>
        <time>2022-12-31 07:50:28</time>
      </trkpt>
      <trkpt lat="40.18812" lon="-3.7841">
        <ele>604.8</ele>
        <time>2022-12-31 07:50:29</time>
      </trkpt>
      <trkpt lat="40.18807" lon="-3.78405">
        <ele>604.6</ele>
        <time>2022-12-31 07:50:30</time>
      </trkpt>
      <trkpt lat="40.18803" lon="-3.78401">
        <ele>604.6</ele>
        <time>2022-12-31 07:50:31</time>
      </trkpt>
      <trkpt lat="40.18798" lon="-3.78397">
        <ele>604.6</ele>
        <time>2022-12-31 07:50:32</time>
      </trkpt>
      <trkpt lat="40.18794" lon="-3.78393">
        <ele>604.6</ele>
        <time>2022-12-31 07:50:33</time>
      </trkpt>
      <trkpt lat="40.18791" lon="-3.78389">
        <ele>604.6</ele>
        <time>2022-12-31 07:50:34</time>
      </trkpt>
      <trkpt lat="40.18786" lon="-3.78384">
        <ele>604.6</ele>
        <time>2022-12-31 07:50:35</time>
      </trkpt>
      <trkpt lat="40.18782" lon="-3.78379">
        <ele>604.8</ele>
        <time>2022-12-31 07:50:36</time>
      </trkpt>
      <trkpt lat="40.18778" lon="-3.78374">
        <ele>604.6</ele>
        <time>2022-12-31 07:50:37</time>
      </trkpt>
      <trkpt lat="40.18774" lon="-3.78369">
        <ele>604.8</ele>
        <time>2022-12-31 07:50:38</time>
      </trkpt>
      <trkpt lat="40.1877" lon="-3.78364">
        <ele>604.6</ele>
        <time>2022-12-31 07:50:39</time>
      </trkpt>
      <trkpt lat="40.18766" lon="-3.78359">
        <ele>604.8</ele>
        <time>2022-12-31 07:50:40</time>
      </trkpt>
      <trkpt lat="40.18762" lon="-3.78353">
        <ele>604.8</ele>
        <time>2022-12-31 07:50:41</time>
      </trkpt>
      <trkpt lat="40.18758" lon="-3.78348">
        <ele>605</ele>
        <time>2022-12-31 07:50:42</time>
      </trkpt>
      <trkpt lat="40.18754" lon="-3.78343">
        <ele>605</ele>
        <time>2022-12-31 07:50:43</time>
      </trkpt>
      <trkpt lat="40.18749" lon="-3.78338">
        <ele>605.2</ele>
        <time>2022-12-31 07:50:44</time>
      </trkpt>
      <trkpt lat="40.18745" lon="-3.78333">
        <ele>605</ele>
        <time>2022-12-31 07:50:45</time>
      </trkpt>
      <trkpt lat="40.1874" lon="-3.78329">
        <ele>605</ele>
        <time>2022-12-31 07:50:46</time>
      </trkpt>
      <trkpt lat="40.18734" lon="-3.78326">
        <ele>605</ele>
        <time>2022-12-31 07:50:47</time>
      </trkpt>
      <trkpt lat="40.18729" lon="-3.78322">
        <ele>605</ele>
        <time>2022-12-31 07:50:48</time>
      </trkpt>
      <trkpt lat="40.18724" lon="-3.78319">
        <ele>605</ele>
        <time>2022-12-31 07:50:49</time>
      </trkpt>
      <trkpt lat="40.1872" lon="-3.78314">
        <ele>605</ele>
        <time>2022-12-31 07:50:50</time>
      </trkpt>
      <trkpt lat="40.18716" lon="-3.78309">
        <ele>604.8</ele>
        <time>2022-12-31 07:50:51</time>
      </trkpt>
      <trkpt lat="40.18713" lon="-3.78303">
        <ele>604.8</ele>
        <time>2022-12-31 07:50:52</time>
      </trkpt>
      <trkpt lat="40.18709" lon="-3.78298">
        <ele>604.6</ele>
        <time>2022-12-31 07:50:53</time>
      </trkpt>
      <trkpt lat="40.18706" lon="-3.78291">
        <ele>604.6</ele>
        <time>2022-12-31 07:50:54</time>
      </trkpt>
      <trkpt lat="40.18704" lon="-3.78285">
        <ele>604.4</ele>
        <time>2022-12-31 07:50:55</time>
      </trkpt>
      <trkpt lat="40.18702" lon="-3.78278">
        <ele>604.4</ele>
        <time>2022-12-31 07:50:56</time>
      </trkpt>
      <trkpt lat="40.187" lon="-3.78272">
        <ele>604.4</ele>
        <time>2022-12-31 07:50:57</time>
      </trkpt>
      <trkpt lat="40.18697" lon="-3.78266">
        <ele>604.2</ele>
        <time>2022-12-31 07:50:58</time>
      </trkpt>
      <trkpt lat="40.18694" lon="-3.78261">
        <ele>604.2</ele>
        <time>2022-12-31 07:50:59</time>
      </trkpt>
      <trkpt lat="40.1869" lon="-3.78256">
        <ele>604.2</ele>
        <time>2022-12-31 07:51:00</time>
      </trkpt>
      <trkpt lat="40.18685" lon="-3.78253">
        <ele>604</ele>
        <time>2022-12-31 07:51:01</time>
      </trkpt>
      <trkpt lat="40.1868" lon="-3.7825">
        <ele>604</ele>
        <time>2022-12-31 07:51:02</time>
      </trkpt>
      <trkpt lat="40.18675" lon="-3.78247">
        <ele>603.8</ele>
        <time>2022-12-31 07:51:03</time>
      </trkpt>
      <trkpt lat="40.18669" lon="-3.78243">
        <ele>603.8</ele>
        <time>2022-12-31 07:51:04</time>
      </trkpt>
      <trkpt lat="40.18664" lon="-3.78239">
        <ele>603.6</ele>
        <time>2022-12-31 07:51:05</time>
      </trkpt>
      <trkpt lat="40.1866" lon="-3.78235">
        <ele>603.6</ele>
        <time>2022-12-31 07:51:06</time>
      </trkpt>
      <trkpt lat="40.18655" lon="-3.78231">
        <ele>603.6</ele>
        <time>2022-12-31 07:51:07</time>
      </trkpt>
      <trkpt lat="40.18651" lon="-3.78227">
        <ele>603.6</ele>
        <time>2022-12-31 07:51:08</time>
      </trkpt>
      <trkpt lat="40.18646" lon="-3.78222">
        <ele>603.4</ele>
        <time>2022-12-31 07:51:09</time>
      </trkpt>
      <trkpt lat="40.18642" lon="-3.78218">
        <ele>603.4</ele>
        <time>2022-12-31 07:51:10</time>
      </trkpt>
      <trkpt lat="40.18638" lon="-3.78214">
        <ele>603.2</ele>
        <time>2022-12-31 07:51:11</time>
      </trkpt>
      <trkpt lat="40.18634" lon="-3.78209">
        <ele>603.2</ele>
        <time>2022-12-31 07:51:12</time>
      </trkpt>
      <trkpt lat="40.1863" lon="-3.78204">
        <ele>603.2</ele>
        <time>2022-12-31 07:51:13</time>
      </trkpt>
      <trkpt lat="40.18627" lon="-3.78198">
        <ele>603.2</ele>
        <time>2022-12-31 07:51:14</time>
      </trkpt>
      <trkpt lat="40.18624" lon="-3.78193">
        <ele>603.2</ele>
        <time>2022-12-31 07:51:15</time>
      </trkpt>
      <trkpt lat="40.18621" lon="-3.78187">
        <ele>603.2</ele>
        <time>2022-12-31 07:51:16</time>
      </trkpt>
      <trkpt lat="40.18617" lon="-3.78181">
        <ele>603</ele>
        <time>2022-12-31 07:51:17</time>
      </trkpt>
      <trkpt lat="40.18614" lon="-3.78176">
        <ele>603.2</ele>
        <time>2022-12-31 07:51:18</time>
      </trkpt>
      <trkpt lat="40.18611" lon="-3.7817">
        <ele>603.2</ele>
        <time>2022-12-31 07:51:19</time>
      </trkpt>
      <trkpt lat="40.18608" lon="-3.78164">
        <ele>603</ele>
        <time>2022-12-31 07:51:20</time>
      </trkpt>
      <trkpt lat="40.18605" lon="-3.78158">
        <ele>603</ele>
        <time>2022-12-31 07:51:21</time>
      </trkpt>
      <trkpt lat="40.18602" lon="-3.78152">
        <ele>603</ele>
        <time>2022-12-31 07:51:22</time>
      </trkpt>
      <trkpt lat="40.18599" lon="-3.78145">
        <ele>603</ele>
        <time>2022-12-31 07:51:23</time>
      </trkpt>
      <trkpt lat="40.18596" lon="-3.78139">
        <ele>603</ele>
        <time>2022-12-31 07:51:24</time>
      </trkpt>
      <trkpt lat="40.18593" lon="-3.78133">
        <ele>603</ele>
        <time>2022-12-31 07:51:25</time>
      </trkpt>
      <trkpt lat="40.1859" lon="-3.78127">
        <ele>603</ele>
        <time>2022-12-31 07:51:26</time>
      </trkpt>
      <trkpt lat="40.18588" lon="-3.7812">
        <ele>603</ele>
        <time>2022-12-31 07:51:27</time>
      </trkpt>
      <trkpt lat="40.18586" lon="-3.78113">
        <ele>603</ele>
        <time>2022-12-31 07:51:28</time>
      </trkpt>
      <trkpt lat="40.18584" lon="-3.78107">
        <ele>603</ele>
        <time>2022-12-31 07:51:29</time>
      </trkpt>
      <trkpt lat="40.18582" lon="-3.781">
        <ele>603</ele>
        <time>2022-12-31 07:51:30</time>
      </trkpt>
      <trkpt lat="40.1858" lon="-3.78094">
        <ele>603</ele>
        <time>2022-12-31 07:51:31</time>
      </trkpt>
      <trkpt lat="40.18578" lon="-3.78088">
        <ele>602.8</ele>
        <time>2022-12-31 07:51:32</time>
      </trkpt>
      <trkpt lat="40.18577" lon="-3.78082">
        <ele>602.8</ele>
        <time>2022-12-31 07:51:33</time>
      </trkpt>
      <trkpt lat="40.18575" lon="-3.78076">
        <ele>602.8</ele>
        <time>2022-12-31 07:51:34</time>
      </trkpt>
      <trkpt lat="40.18574" lon="-3.78071">
        <ele>602.6</ele>
        <time>2022-12-31 07:51:35</time>
      </trkpt>
      <trkpt lat="40.18572" lon="-3.78065">
        <ele>602.8</ele>
        <time>2022-12-31 07:51:36</time>
      </trkpt>
      <trkpt lat="40.18571" lon="-3.78059">
        <ele>602.8</ele>
        <time>2022-12-31 07:51:37</time>
      </trkpt>
      <trkpt lat="40.18569" lon="-3.78052">
        <ele>602.6</ele>
        <time>2022-12-31 07:51:38</time>
      </trkpt>
      <trkpt lat="40.18568" lon="-3.78046">
        <ele>602.6</ele>
        <time>2022-12-31 07:51:39</time>
      </trkpt>
      <trkpt lat="40.18567" lon="-3.7804">
        <ele>602.6</ele>
        <time>2022-12-31 07:51:40</time>
      </trkpt>
      <trkpt lat="40.18565" lon="-3.78033">
        <ele>602.6</ele>
        <time>2022-12-31 07:51:41</time>
      </trkpt>
      <trkpt lat="40.18564" lon="-3.78026">
        <ele>602.6</ele>
        <time>2022-12-31 07:51:42</time>
      </trkpt>
      <trkpt lat="40.18563" lon="-3.7802">
        <ele>602.6</ele>
        <time>2022-12-31 07:51:43</time>
      </trkpt>
      <trkpt lat="40.18561" lon="-3.78013">
        <ele>602.4</ele>
        <time>2022-12-31 07:51:44</time>
      </trkpt>
      <trkpt lat="40.1856" lon="-3.78007">
        <ele>602.6</ele>
        <time>2022-12-31 07:51:45</time>
      </trkpt>
      <trkpt lat="40.18559" lon="-3.78001">
        <ele>602.6</ele>
        <time>2022-12-31 07:51:46</time>
      </trkpt>
      <trkpt lat="40.18559" lon="-3.77996">
        <ele>602.4</ele>
        <time>2022-12-31 07:51:47</time>
      </trkpt>
      <trkpt lat="40.1856" lon="-3.7799">
        <ele>602.6</ele>
        <time>2022-12-31 07:51:48</time>
      </trkpt>
      <trkpt lat="40.18562" lon="-3.77984">
        <ele>602.4</ele>
        <time>2022-12-31 07:51:49</time>
      </trkpt>
      <trkpt lat="40.18564" lon="-3.77979">
        <ele>602.4</ele>
        <time>2022-12-31 07:51:50</time>
      </trkpt>
      <trkpt lat="40.18565" lon="-3.77974">
        <ele>602.4</ele>
        <time>2022-12-31 07:51:51</time>
      </trkpt>
      <trkpt lat="40.18565" lon="-3.77969">
        <ele>602.2</ele>
        <time>2022-12-31 07:51:52</time>
      </trkpt>
      <trkpt lat="40.18564" lon="-3.77964">
        <ele>602.2</ele>
        <time>2022-12-31 07:51:53</time>
      </trkpt>
      <trkpt lat="40.18563" lon="-3.77958">
        <ele>602.2</ele>
        <time>2022-12-31 07:51:54</time>
      </trkpt>
      <trkpt lat="40.18562" lon="-3.77953">
        <ele>602.4</ele>
        <time>2022-12-31 07:51:55</time>
      </trkpt>
      <trkpt lat="40.18561" lon="-3.77948">
        <ele>602.2</ele>
        <time>2022-12-31 07:51:56</time>
      </trkpt>
      <trkpt lat="40.1856" lon="-3.77943">
        <ele>602.2</ele>
        <time>2022-12-31 07:51:57</time>
      </trkpt>
      <trkpt lat="40.1856" lon="-3.77937">
        <ele>602.2</ele>
        <time>2022-12-31 07:51:58</time>
      </trkpt>
      <trkpt lat="40.18559" lon="-3.77931">
        <ele>602.4</ele>
        <time>2022-12-31 07:51:59</time>
      </trkpt>
      <trkpt lat="40.18559" lon="-3.77924">
        <ele>602.4</ele>
        <time>2022-12-31 07:52:00</time>
      </trkpt>
      <trkpt lat="40.18558" lon="-3.77918">
        <ele>602.2</ele>
        <time>2022-12-31 07:52:01</time>
      </trkpt>
      <trkpt lat="40.18557" lon="-3.77911">
        <ele>602.2</ele>
        <time>2022-12-31 07:52:02</time>
      </trkpt>
      <trkpt lat="40.18557" lon="-3.77905">
        <ele>602.2</ele>
        <time>2022-12-31 07:52:03</time>
      </trkpt>
      <trkpt lat="40.18557" lon="-3.77899">
        <ele>602.2</ele>
        <time>2022-12-31 07:52:04</time>
      </trkpt>
      <trkpt lat="40.18556" lon="-3.77893">
        <ele>602.2</ele>
        <time>2022-12-31 07:52:05</time>
      </trkpt>
      <trkpt lat="40.18555" lon="-3.77888">
        <ele>602.4</ele>
        <time>2022-12-31 07:52:06</time>
      </trkpt>
      <trkpt lat="40.18552" lon="-3.77884">
        <ele>602.2</ele>
        <time>2022-12-31 07:52:07</time>
      </trkpt>
      <trkpt lat="40.18548" lon="-3.77885">
        <ele>602.2</ele>
        <time>2022-12-31 07:52:08</time>
      </trkpt>
      <trkpt lat="40.18544" lon="-3.77887">
        <ele>602.2</ele>
        <time>2022-12-31 07:52:09</time>
      </trkpt>
      <trkpt lat="40.1854" lon="-3.7789">
        <ele>602.2</ele>
        <time>2022-12-31 07:52:10</time>
      </trkpt>
      <trkpt lat="40.18535" lon="-3.77893">
        <ele>602.2</ele>
        <time>2022-12-31 07:52:11</time>
      </trkpt>
      <trkpt lat="40.18531" lon="-3.77896">
        <ele>602.2</ele>
        <time>2022-12-31 07:52:12</time>
      </trkpt>
      <trkpt lat="40.18526" lon="-3.77899">
        <ele>602.2</ele>
        <time>2022-12-31 07:52:13</time>
      </trkpt>
      <trkpt lat="40.18521" lon="-3.77902">
        <ele>602.2</ele>
        <time>2022-12-31 07:52:14</time>
      </trkpt>
      <trkpt lat="40.18516" lon="-3.77905">
        <ele>602.2</ele>
        <time>2022-12-31 07:52:15</time>
      </trkpt>
      <trkpt lat="40.18511" lon="-3.77908">
        <ele>602.2</ele>
        <time>2022-12-31 07:52:16</time>
      </trkpt>
      <trkpt lat="40.18505" lon="-3.77911">
        <ele>602.2</ele>
        <time>2022-12-31 07:52:17</time>
      </trkpt>
      <trkpt lat="40.185" lon="-3.77914">
        <ele>602.2</ele>
        <time>2022-12-31 07:52:18</time>
      </trkpt>
      <trkpt lat="40.18496" lon="-3.77917">
        <ele>602.2</ele>
        <time>2022-12-31 07:52:19</time>
      </trkpt>
      <trkpt lat="40.18491" lon="-3.77921">
        <ele>602.2</ele>
        <time>2022-12-31 07:52:20</time>
      </trkpt>
      <trkpt lat="40.18486" lon="-3.77924">
        <ele>602.2</ele>
        <time>2022-12-31 07:52:21</time>
      </trkpt>
      <trkpt lat="40.18481" lon="-3.77927">
        <ele>602.2</ele>
        <time>2022-12-31 07:52:22</time>
      </trkpt>
      <trkpt lat="40.18476" lon="-3.7793">
        <ele>602.2</ele>
        <time>2022-12-31 07:52:23</time>
      </trkpt>
      <trkpt lat="40.18471" lon="-3.77934">
        <ele>602.2</ele>
        <time>2022-12-31 07:52:24</time>
      </trkpt>
      <trkpt lat="40.18466" lon="-3.77937">
        <ele>602.2</ele>
        <time>2022-12-31 07:52:25</time>
      </trkpt>
      <trkpt lat="40.18461" lon="-3.7794">
        <ele>602.2</ele>
        <time>2022-12-31 07:52:26</time>
      </trkpt>
      <trkpt lat="40.18457" lon="-3.77943">
        <ele>602.2</ele>
        <time>2022-12-31 07:52:27</time>
      </trkpt>
      <trkpt lat="40.18452" lon="-3.77946">
        <ele>602.2</ele>
        <time>2022-12-31 07:52:28</time>
      </trkpt>
      <trkpt lat="40.18447" lon="-3.7795">
        <ele>602.2</ele>
        <time>2022-12-31 07:52:29</time>
      </trkpt>
      <trkpt lat="40.18443" lon="-3.77953">
        <ele>602.4</ele>
        <time>2022-12-31 07:52:30</time>
      </trkpt>
      <trkpt lat="40.18438" lon="-3.77956">
        <ele>602.4</ele>
        <time>2022-12-31 07:52:31</time>
      </trkpt>
      <trkpt lat="40.18433" lon="-3.77958">
        <ele>602.2</ele>
        <time>2022-12-31 07:52:32</time>
      </trkpt>
      <trkpt lat="40.18428" lon="-3.7796">
        <ele>602.2</ele>
        <time>2022-12-31 07:52:33</time>
      </trkpt>
      <trkpt lat="40.18423" lon="-3.77961">
        <ele>602.4</ele>
        <time>2022-12-31 07:52:34</time>
      </trkpt>
      <trkpt lat="40.18418" lon="-3.77961">
        <ele>602.4</ele>
        <time>2022-12-31 07:52:35</time>
      </trkpt>
      <trkpt lat="40.18412" lon="-3.77962">
        <ele>602.6</ele>
        <time>2022-12-31 07:52:36</time>
      </trkpt>
      <trkpt lat="40.18407" lon="-3.77963">
        <ele>602.4</ele>
        <time>2022-12-31 07:52:37</time>
      </trkpt>
      <trkpt lat="40.18402" lon="-3.77965">
        <ele>602.6</ele>
        <time>2022-12-31 07:52:38</time>
      </trkpt>
      <trkpt lat="40.18398" lon="-3.77967">
        <ele>602.8</ele>
        <time>2022-12-31 07:52:39</time>
      </trkpt>
      <trkpt lat="40.18393" lon="-3.77969">
        <ele>602.8</ele>
        <time>2022-12-31 07:52:40</time>
      </trkpt>
      <trkpt lat="40.18388" lon="-3.77972">
        <ele>603</ele>
        <time>2022-12-31 07:52:41</time>
      </trkpt>
      <trkpt lat="40.18383" lon="-3.77974">
        <ele>603</ele>
        <time>2022-12-31 07:52:42</time>
      </trkpt>
      <trkpt lat="40.18379" lon="-3.77977">
        <ele>603</ele>
        <time>2022-12-31 07:52:43</time>
      </trkpt>
      <trkpt lat="40.18374" lon="-3.7798">
        <ele>603.2</ele>
        <time>2022-12-31 07:52:44</time>
      </trkpt>
      <trkpt lat="40.18369" lon="-3.77982">
        <ele>603.2</ele>
        <time>2022-12-31 07:52:45</time>
      </trkpt>
      <trkpt lat="40.18365" lon="-3.77985">
        <ele>603.2</ele>
        <time>2022-12-31 07:52:46</time>
      </trkpt>
      <trkpt lat="40.18361" lon="-3.77988">
        <ele>603.2</ele>
        <time>2022-12-31 07:52:47</time>
      </trkpt>
      <trkpt lat="40.18356" lon="-3.77991">
        <ele>603.4</ele>
        <time>2022-12-31 07:52:48</time>
      </trkpt>
      <trkpt lat="40.18352" lon="-3.77994">
        <ele>603.4</ele>
        <time>2022-12-31 07:52:49</time>
      </trkpt>
      <trkpt lat="40.18347" lon="-3.77996">
        <ele>603.4</ele>
        <time>2022-12-31 07:52:50</time>
      </trkpt>
      <trkpt lat="40.18342" lon="-3.77998">
        <ele>603.4</ele>
        <time>2022-12-31 07:52:51</time>
      </trkpt>
      <trkpt lat="40.18337" lon="-3.78">
        <ele>603.6</ele>
        <time>2022-12-31 07:52:52</time>
      </trkpt>
      <trkpt lat="40.18332" lon="-3.78001">
        <ele>603.6</ele>
        <time>2022-12-31 07:52:53</time>
      </trkpt>
      <trkpt lat="40.18327" lon="-3.78003">
        <ele>603.4</ele>
        <time>2022-12-31 07:52:54</time>
      </trkpt>
      <trkpt lat="40.18323" lon="-3.78004">
        <ele>603.6</ele>
        <time>2022-12-31 07:52:55</time>
      </trkpt>
      <trkpt lat="40.18318" lon="-3.78005">
        <ele>603.6</ele>
        <time>2022-12-31 07:52:56</time>
      </trkpt>
      <trkpt lat="40.18314" lon="-3.78006">
        <ele>603.6</ele>
        <time>2022-12-31 07:52:57</time>
      </trkpt>
      <trkpt lat="40.18309" lon="-3.78007">
        <ele>603.8</ele>
        <time>2022-12-31 07:52:58</time>
      </trkpt>
      <trkpt lat="40.18305" lon="-3.78008">
        <ele>603.6</ele>
        <time>2022-12-31 07:52:59</time>
      </trkpt>
      <trkpt lat="40.183" lon="-3.78008">
        <ele>603.8</ele>
        <time>2022-12-31 07:53:00</time>
      </trkpt>
      <trkpt lat="40.18296" lon="-3.78009">
        <ele>603.8</ele>
        <time>2022-12-31 07:53:01</time>
      </trkpt>
      <trkpt lat="40.18292" lon="-3.78009">
        <ele>603.8</ele>
        <time>2022-12-31 07:53:02</time>
      </trkpt>
      <trkpt lat="40.18287" lon="-3.7801">
        <ele>603.8</ele>
        <time>2022-12-31 07:53:03</time>
      </trkpt>
      <trkpt lat="40.18283" lon="-3.78011">
        <ele>603.8</ele>
        <time>2022-12-31 07:53:04</time>
      </trkpt>
      <trkpt lat="40.18279" lon="-3.78012">
        <ele>603.8</ele>
        <time>2022-12-31 07:53:05</time>
      </trkpt>
      <trkpt lat="40.18275" lon="-3.78012">
        <ele>604</ele>
        <time>2022-12-31 07:53:06</time>
      </trkpt>
      <trkpt lat="40.1827" lon="-3.78012">
        <ele>604.2</ele>
        <time>2022-12-31 07:53:07</time>
      </trkpt>
      <trkpt lat="40.18266" lon="-3.78013">
        <ele>604.2</ele>
        <time>2022-12-31 07:53:08</time>
      </trkpt>
      <trkpt lat="40.18262" lon="-3.78014">
        <ele>604.4</ele>
        <time>2022-12-31 07:53:09</time>
      </trkpt>
      <trkpt lat="40.18257" lon="-3.78015">
        <ele>604.4</ele>
        <time>2022-12-31 07:53:10</time>
      </trkpt>
      <trkpt lat="40.18253" lon="-3.78016">
        <ele>604.4</ele>
        <time>2022-12-31 07:53:11</time>
      </trkpt>
      <trkpt lat="40.18249" lon="-3.78016">
        <ele>604.4</ele>
        <time>2022-12-31 07:53:12</time>
      </trkpt>
      <trkpt lat="40.18245" lon="-3.78017">
        <ele>604.8</ele>
        <time>2022-12-31 07:53:13</time>
      </trkpt>
      <trkpt lat="40.18241" lon="-3.78018">
        <ele>604.8</ele>
        <time>2022-12-31 07:53:14</time>
      </trkpt>
      <trkpt lat="40.18238" lon="-3.78018">
        <ele>604.8</ele>
        <time>2022-12-31 07:53:15</time>
      </trkpt>
      <trkpt lat="40.18234" lon="-3.78019">
        <ele>604.8</ele>
        <time>2022-12-31 07:53:16</time>
      </trkpt>
      <trkpt lat="40.1823" lon="-3.78019">
        <ele>605</ele>
        <time>2022-12-31 07:53:17</time>
      </trkpt>
      <trkpt lat="40.18225" lon="-3.7802">
        <ele>605</ele>
        <time>2022-12-31 07:53:18</time>
      </trkpt>
      <trkpt lat="40.18221" lon="-3.7802">
        <ele>605</ele>
        <time>2022-12-31 07:53:19</time>
      </trkpt>
      <trkpt lat="40.18217" lon="-3.78021">
        <ele>605.2</ele>
        <time>2022-12-31 07:53:20</time>
      </trkpt>
      <trkpt lat="40.18213" lon="-3.78021">
        <ele>605.6</ele>
        <time>2022-12-31 07:53:21</time>
      </trkpt>
      <trkpt lat="40.18209" lon="-3.78021">
        <ele>605.6</ele>
        <time>2022-12-31 07:53:22</time>
      </trkpt>
      <trkpt lat="40.18204" lon="-3.78022">
        <ele>605.8</ele>
        <time>2022-12-31 07:53:23</time>
      </trkpt>
      <trkpt lat="40.182" lon="-3.78022">
        <ele>606</ele>
        <time>2022-12-31 07:53:24</time>
      </trkpt>
      <trkpt lat="40.18196" lon="-3.78023">
        <ele>606.2</ele>
        <time>2022-12-31 07:53:25</time>
      </trkpt>
      <trkpt lat="40.18192" lon="-3.78023">
        <ele>606.2</ele>
        <time>2022-12-31 07:53:26</time>
      </trkpt>
      <trkpt lat="40.18187" lon="-3.78024">
        <ele>606.4</ele>
        <time>2022-12-31 07:53:27</time>
      </trkpt>
      <trkpt lat="40.18183" lon="-3.78025">
        <ele>606.4</ele>
        <time>2022-12-31 07:53:28</time>
      </trkpt>
      <trkpt lat="40.18179" lon="-3.78025">
        <ele>606.6</ele>
        <time>2022-12-31 07:53:29</time>
      </trkpt>
      <trkpt lat="40.18175" lon="-3.78026">
        <ele>606.6</ele>
        <time>2022-12-31 07:53:30</time>
      </trkpt>
      <trkpt lat="40.1817" lon="-3.78026">
        <ele>606.6</ele>
        <time>2022-12-31 07:53:31</time>
      </trkpt>
      <trkpt lat="40.18166" lon="-3.78027">
        <ele>606.8</ele>
        <time>2022-12-31 07:53:32</time>
      </trkpt>
      <trkpt lat="40.18162" lon="-3.78027">
        <ele>606.8</ele>
        <time>2022-12-31 07:53:33</time>
      </trkpt>
      <trkpt lat="40.18158" lon="-3.78028">
        <ele>606.8</ele>
        <time>2022-12-31 07:53:34</time>
      </trkpt>
      <trkpt lat="40.18154" lon="-3.78029">
        <ele>606.8</ele>
        <time>2022-12-31 07:53:35</time>
      </trkpt>
      <trkpt lat="40.18149" lon="-3.78029">
        <ele>607</ele>
        <time>2022-12-31 07:53:36</time>
      </trkpt>
      <trkpt lat="40.18145" lon="-3.7803">
        <ele>607</ele>
        <time>2022-12-31 07:53:37</time>
      </trkpt>
      <trkpt lat="40.18141" lon="-3.7803">
        <ele>607.2</ele>
        <time>2022-12-31 07:53:38</time>
      </trkpt>
      <trkpt lat="40.18137" lon="-3.78031">
        <ele>607.2</ele>
        <time>2022-12-31 07:53:39</time>
      </trkpt>
      <trkpt lat="40.18133" lon="-3.78031">
        <ele>607.2</ele>
        <time>2022-12-31 07:53:40</time>
      </trkpt>
      <trkpt lat="40.18129" lon="-3.78031">
        <ele>607.2</ele>
        <time>2022-12-31 07:53:41</time>
      </trkpt>
      <trkpt lat="40.18125" lon="-3.78032">
        <ele>607.2</ele>
        <time>2022-12-31 07:53:42</time>
      </trkpt>
      <trkpt lat="40.18121" lon="-3.78032">
        <ele>607.4</ele>
        <time>2022-12-31 07:53:43</time>
      </trkpt>
      <trkpt lat="40.18117" lon="-3.78032">
        <ele>607.4</ele>
        <time>2022-12-31 07:53:44</time>
      </trkpt>
      <trkpt lat="40.18112" lon="-3.78033">
        <ele>607.6</ele>
        <time>2022-12-31 07:53:45</time>
      </trkpt>
      <trkpt lat="40.18108" lon="-3.78033">
        <ele>607.6</ele>
        <time>2022-12-31 07:53:46</time>
      </trkpt>
      <trkpt lat="40.18104" lon="-3.78033">
        <ele>607.6</ele>
        <time>2022-12-31 07:53:47</time>
      </trkpt>
      <trkpt lat="40.181" lon="-3.78033">
        <ele>607.6</ele>
        <time>2022-12-31 07:53:48</time>
      </trkpt>
      <trkpt lat="40.18096" lon="-3.78033">
        <ele>607.8</ele>
        <time>2022-12-31 07:53:49</time>
      </trkpt>
      <trkpt lat="40.18092" lon="-3.78033">
        <ele>608</ele>
        <time>2022-12-31 07:53:50</time>
      </trkpt>
      <trkpt lat="40.18088" lon="-3.78033">
        <ele>608</ele>
        <time>2022-12-31 07:53:51</time>
      </trkpt>
      <trkpt lat="40.18084" lon="-3.78033">
        <ele>608.2</ele>
        <time>2022-12-31 07:53:52</time>
      </trkpt>
      <trkpt lat="40.1808" lon="-3.78034">
        <ele>608.2</ele>
        <time>2022-12-31 07:53:53</time>
      </trkpt>
      <trkpt lat="40.18076" lon="-3.78034">
        <ele>608.4</ele>
        <time>2022-12-31 07:53:54</time>
      </trkpt>
      <trkpt lat="40.18072" lon="-3.78034">
        <ele>608.4</ele>
        <time>2022-12-31 07:53:55</time>
      </trkpt>
      <trkpt lat="40.18068" lon="-3.78034">
        <ele>608.4</ele>
        <time>2022-12-31 07:53:56</time>
      </trkpt>
      <trkpt lat="40.18064" lon="-3.78034">
        <ele>608.4</ele>
        <time>2022-12-31 07:53:57</time>
      </trkpt>
      <trkpt lat="40.1806" lon="-3.78034">
        <ele>608.6</ele>
        <time>2022-12-31 07:53:58</time>
      </trkpt>
      <trkpt lat="40.18057" lon="-3.78034">
        <ele>608.6</ele>
        <time>2022-12-31 07:53:59</time>
      </trkpt>
      <trkpt lat="40.18053" lon="-3.78034">
        <ele>608.8</ele>
        <time>2022-12-31 07:54:00</time>
      </trkpt>
      <trkpt lat="40.1805" lon="-3.78034">
        <ele>609</ele>
        <time>2022-12-31 07:54:01</time>
      </trkpt>
      <trkpt lat="40.18046" lon="-3.78035">
        <ele>609</ele>
        <time>2022-12-31 07:54:02</time>
      </trkpt>
      <trkpt lat="40.18043" lon="-3.78035">
        <ele>609.2</ele>
        <time>2022-12-31 07:54:03</time>
      </trkpt>
      <trkpt lat="40.18039" lon="-3.78036">
        <ele>609.4</ele>
        <time>2022-12-31 07:54:04</time>
      </trkpt>
      <trkpt lat="40.18036" lon="-3.78036">
        <ele>609.4</ele>
        <time>2022-12-31 07:54:05</time>
      </trkpt>
      <trkpt lat="40.18032" lon="-3.78036">
        <ele>609.4</ele>
        <time>2022-12-31 07:54:06</time>
      </trkpt>
      <trkpt lat="40.18028" lon="-3.78037">
        <ele>609.6</ele>
        <time>2022-12-31 07:54:07</time>
      </trkpt>
      <trkpt lat="40.18025" lon="-3.78037">
        <ele>609.8</ele>
        <time>2022-12-31 07:54:08</time>
      </trkpt>
      <trkpt lat="40.18021" lon="-3.78038">
        <ele>610</ele>
        <time>2022-12-31 07:54:09</time>
      </trkpt>
      <trkpt lat="40.18017" lon="-3.78038">
        <ele>610</ele>
        <time>2022-12-31 07:54:10</time>
      </trkpt>
      <trkpt lat="40.18014" lon="-3.78039">
        <ele>610.2</ele>
        <time>2022-12-31 07:54:11</time>
      </trkpt>
      <trkpt lat="40.1801" lon="-3.78039">
        <ele>610.4</ele>
        <time>2022-12-31 07:54:12</time>
      </trkpt>
      <trkpt lat="40.18007" lon="-3.78039">
        <ele>610.4</ele>
        <time>2022-12-31 07:54:13</time>
      </trkpt>
      <trkpt lat="40.18003" lon="-3.78038">
        <ele>610.6</ele>
        <time>2022-12-31 07:54:14</time>
      </trkpt>
      <trkpt lat="40.17999" lon="-3.78038">
        <ele>610.6</ele>
        <time>2022-12-31 07:54:15</time>
      </trkpt>
      <trkpt lat="40.17996" lon="-3.78038">
        <ele>610.6</ele>
        <time>2022-12-31 07:54:16</time>
      </trkpt>
      <trkpt lat="40.17992" lon="-3.78038">
        <ele>610.6</ele>
        <time>2022-12-31 07:54:17</time>
      </trkpt>
      <trkpt lat="40.17988" lon="-3.78038">
        <ele>610.8</ele>
        <time>2022-12-31 07:54:18</time>
      </trkpt>
      <trkpt lat="40.17985" lon="-3.78038">
        <ele>611</ele>
        <time>2022-12-31 07:54:19</time>
      </trkpt>
      <trkpt lat="40.17981" lon="-3.78038">
        <ele>611.2</ele>
        <time>2022-12-31 07:54:20</time>
      </trkpt>
      <trkpt lat="40.17978" lon="-3.78037">
        <ele>611.2</ele>
        <time>2022-12-31 07:54:21</time>
      </trkpt>
      <trkpt lat="40.17974" lon="-3.78037">
        <ele>611.4</ele>
        <time>2022-12-31 07:54:22</time>
      </trkpt>
      <trkpt lat="40.17971" lon="-3.78037">
        <ele>611.6</ele>
        <time>2022-12-31 07:54:23</time>
      </trkpt>
      <trkpt lat="40.17967" lon="-3.78037">
        <ele>611.6</ele>
        <time>2022-12-31 07:54:24</time>
      </trkpt>
      <trkpt lat="40.17964" lon="-3.78037">
        <ele>611.8</ele>
        <time>2022-12-31 07:54:25</time>
      </trkpt>
      <trkpt lat="40.1796" lon="-3.78037">
        <ele>611.8</ele>
        <time>2022-12-31 07:54:26</time>
      </trkpt>
      <trkpt lat="40.17957" lon="-3.78038">
        <ele>611.8</ele>
        <time>2022-12-31 07:54:27</time>
      </trkpt>
      <trkpt lat="40.17953" lon="-3.78038">
        <ele>612</ele>
        <time>2022-12-31 07:54:28</time>
      </trkpt>
      <trkpt lat="40.1795" lon="-3.78039">
        <ele>612</ele>
        <time>2022-12-31 07:54:29</time>
      </trkpt>
      <trkpt lat="40.17946" lon="-3.78039">
        <ele>612.2</ele>
        <time>2022-12-31 07:54:30</time>
      </trkpt>
      <trkpt lat="40.17943" lon="-3.7804">
        <ele>612.4</ele>
        <time>2022-12-31 07:54:31</time>
      </trkpt>
      <trkpt lat="40.17939" lon="-3.78041">
        <ele>612.2</ele>
        <time>2022-12-31 07:54:32</time>
      </trkpt>
      <trkpt lat="40.17936" lon="-3.78042">
        <ele>612.4</ele>
        <time>2022-12-31 07:54:33</time>
      </trkpt>
      <trkpt lat="40.17932" lon="-3.78043">
        <ele>612.4</ele>
        <time>2022-12-31 07:54:34</time>
      </trkpt>
      <trkpt lat="40.17928" lon="-3.78043">
        <ele>612.6</ele>
        <time>2022-12-31 07:54:35</time>
      </trkpt>
      <trkpt lat="40.17925" lon="-3.78044">
        <ele>612.6</ele>
        <time>2022-12-31 07:54:36</time>
      </trkpt>
      <trkpt lat="40.17921" lon="-3.78045">
        <ele>612.6</ele>
        <time>2022-12-31 07:54:37</time>
      </trkpt>
      <trkpt lat="40.17917" lon="-3.78046">
        <ele>612.8</ele>
        <time>2022-12-31 07:54:38</time>
      </trkpt>
      <trkpt lat="40.17913" lon="-3.78047">
        <ele>612.8</ele>
        <time>2022-12-31 07:54:39</time>
      </trkpt>
      <trkpt lat="40.17908" lon="-3.78048">
        <ele>612.8</ele>
        <time>2022-12-31 07:54:40</time>
      </trkpt>
      <trkpt lat="40.17904" lon="-3.78049">
        <ele>613</ele>
        <time>2022-12-31 07:54:41</time>
      </trkpt>
      <trkpt lat="40.179" lon="-3.7805">
        <ele>613.2</ele>
        <time>2022-12-31 07:54:42</time>
      </trkpt>
      <trkpt lat="40.17896" lon="-3.78051">
        <ele>613.2</ele>
        <time>2022-12-31 07:54:43</time>
      </trkpt>
      <trkpt lat="40.17892" lon="-3.78052">
        <ele>613.2</ele>
        <time>2022-12-31 07:54:44</time>
      </trkpt>
      <trkpt lat="40.17888" lon="-3.78052">
        <ele>613.4</ele>
        <time>2022-12-31 07:54:45</time>
      </trkpt>
      <trkpt lat="40.17883" lon="-3.78052">
        <ele>613.4</ele>
        <time>2022-12-31 07:54:46</time>
      </trkpt>
      <trkpt lat="40.17879" lon="-3.78053">
        <ele>613.4</ele>
        <time>2022-12-31 07:54:47</time>
      </trkpt>
      <trkpt lat="40.17875" lon="-3.78053">
        <ele>613.6</ele>
        <time>2022-12-31 07:54:48</time>
      </trkpt>
      <trkpt lat="40.17871" lon="-3.78054">
        <ele>613.8</ele>
        <time>2022-12-31 07:54:49</time>
      </trkpt>
      <trkpt lat="40.17866" lon="-3.78054">
        <ele>613.8</ele>
        <time>2022-12-31 07:54:50</time>
      </trkpt>
      <trkpt lat="40.17862" lon="-3.78055">
        <ele>613.8</ele>
        <time>2022-12-31 07:54:51</time>
      </trkpt>
      <trkpt lat="40.17858" lon="-3.78055">
        <ele>614</ele>
        <time>2022-12-31 07:54:52</time>
      </trkpt>
      <trkpt lat="40.17854" lon="-3.78056">
        <ele>614.2</ele>
        <time>2022-12-31 07:54:53</time>
      </trkpt>
      <trkpt lat="40.1785" lon="-3.78057">
        <ele>614.2</ele>
        <time>2022-12-31 07:54:54</time>
      </trkpt>
      <trkpt lat="40.17845" lon="-3.78058">
        <ele>614.2</ele>
        <time>2022-12-31 07:54:55</time>
      </trkpt>
      <trkpt lat="40.17841" lon="-3.78058">
        <ele>614.2</ele>
        <time>2022-12-31 07:54:56</time>
      </trkpt>
      <trkpt lat="40.17836" lon="-3.78058">
        <ele>614.2</ele>
        <time>2022-12-31 07:54:57</time>
      </trkpt>
      <trkpt lat="40.17831" lon="-3.78059">
        <ele>614.4</ele>
        <time>2022-12-31 07:54:58</time>
      </trkpt>
      <trkpt lat="40.17826" lon="-3.78059">
        <ele>614.4</ele>
        <time>2022-12-31 07:54:59</time>
      </trkpt>
      <trkpt lat="40.17821" lon="-3.7806">
        <ele>614.4</ele>
        <time>2022-12-31 07:55:00</time>
      </trkpt>
      <trkpt lat="40.17816" lon="-3.7806">
        <ele>614.6</ele>
        <time>2022-12-31 07:55:01</time>
      </trkpt>
      <trkpt lat="40.17811" lon="-3.78061">
        <ele>614.4</ele>
        <time>2022-12-31 07:55:02</time>
      </trkpt>
      <trkpt lat="40.17805" lon="-3.78062">
        <ele>614.4</ele>
        <time>2022-12-31 07:55:03</time>
      </trkpt>
      <trkpt lat="40.178" lon="-3.78063">
        <ele>614.6</ele>
        <time>2022-12-31 07:55:04</time>
      </trkpt>
      <trkpt lat="40.17794" lon="-3.78063">
        <ele>614.4</ele>
        <time>2022-12-31 07:55:05</time>
      </trkpt>
      <trkpt lat="40.17789" lon="-3.78064">
        <ele>614.4</ele>
        <time>2022-12-31 07:55:06</time>
      </trkpt>
      <trkpt lat="40.17783" lon="-3.78065">
        <ele>614.4</ele>
        <time>2022-12-31 07:55:07</time>
      </trkpt>
      <trkpt lat="40.17777" lon="-3.78066">
        <ele>614.4</ele>
        <time>2022-12-31 07:55:08</time>
      </trkpt>
      <trkpt lat="40.17771" lon="-3.78068">
        <ele>614.2</ele>
        <time>2022-12-31 07:55:09</time>
      </trkpt>
      <trkpt lat="40.17766" lon="-3.78069">
        <ele>614.2</ele>
        <time>2022-12-31 07:55:10</time>
      </trkpt>
      <trkpt lat="40.1776" lon="-3.7807">
        <ele>614.2</ele>
        <time>2022-12-31 07:55:11</time>
      </trkpt>
      <trkpt lat="40.17754" lon="-3.78072">
        <ele>614</ele>
        <time>2022-12-31 07:55:12</time>
      </trkpt>
      <trkpt lat="40.17749" lon="-3.78074">
        <ele>613.8</ele>
        <time>2022-12-31 07:55:13</time>
      </trkpt>
      <trkpt lat="40.17743" lon="-3.78076">
        <ele>613.6</ele>
        <time>2022-12-31 07:55:14</time>
      </trkpt>
      <trkpt lat="40.17738" lon="-3.78079">
        <ele>613.4</ele>
        <time>2022-12-31 07:55:15</time>
      </trkpt>
      <trkpt lat="40.17732" lon="-3.78082">
        <ele>613.4</ele>
        <time>2022-12-31 07:55:16</time>
      </trkpt>
      <trkpt lat="40.17727" lon="-3.78084">
        <ele>613.4</ele>
        <time>2022-12-31 07:55:17</time>
      </trkpt>
      <trkpt lat="40.17721" lon="-3.78087">
        <ele>613.2</ele>
        <time>2022-12-31 07:55:18</time>
      </trkpt>
      <trkpt lat="40.17716" lon="-3.7809">
        <ele>612.6</ele>
        <time>2022-12-31 07:55:19</time>
      </trkpt>
      <trkpt lat="40.1771" lon="-3.78093">
        <ele>612.4</ele>
        <time>2022-12-31 07:55:20</time>
      </trkpt>
      <trkpt lat="40.17705" lon="-3.78097">
        <ele>612.2</ele>
        <time>2022-12-31 07:55:21</time>
      </trkpt>
      <trkpt lat="40.177" lon="-3.781">
        <ele>612</ele>
        <time>2022-12-31 07:55:22</time>
      </trkpt>
      <trkpt lat="40.17695" lon="-3.78104">
        <ele>612</ele>
        <time>2022-12-31 07:55:23</time>
      </trkpt>
      <trkpt lat="40.17689" lon="-3.78108">
        <ele>611.8</ele>
        <time>2022-12-31 07:55:24</time>
      </trkpt>
      <trkpt lat="40.17684" lon="-3.78112">
        <ele>612</ele>
        <time>2022-12-31 07:55:25</time>
      </trkpt>
      <trkpt lat="40.17679" lon="-3.78116">
        <ele>611.6</ele>
        <time>2022-12-31 07:55:26</time>
      </trkpt>
      <trkpt lat="40.17674" lon="-3.7812">
        <ele>611.8</ele>
        <time>2022-12-31 07:55:27</time>
      </trkpt>
      <trkpt lat="40.17669" lon="-3.78125">
        <ele>611.6</ele>
        <time>2022-12-31 07:55:28</time>
      </trkpt>
      <trkpt lat="40.17664" lon="-3.78129">
        <ele>611.6</ele>
        <time>2022-12-31 07:55:29</time>
      </trkpt>
      <trkpt lat="40.17659" lon="-3.78134">
        <ele>611.6</ele>
        <time>2022-12-31 07:55:30</time>
      </trkpt>
      <trkpt lat="40.17654" lon="-3.78139">
        <ele>611.4</ele>
        <time>2022-12-31 07:55:31</time>
      </trkpt>
      <trkpt lat="40.1765" lon="-3.78144">
        <ele>611.4</ele>
        <time>2022-12-31 07:55:32</time>
      </trkpt>
      <trkpt lat="40.17645" lon="-3.78148">
        <ele>611</ele>
        <time>2022-12-31 07:55:33</time>
      </trkpt>
      <trkpt lat="40.1764" lon="-3.78153">
        <ele>610.8</ele>
        <time>2022-12-31 07:55:34</time>
      </trkpt>
      <trkpt lat="40.17636" lon="-3.78158">
        <ele>610.4</ele>
        <time>2022-12-31 07:55:35</time>
      </trkpt>
      <trkpt lat="40.17631" lon="-3.78163">
        <ele>610.4</ele>
        <time>2022-12-31 07:55:36</time>
      </trkpt>
      <trkpt lat="40.17627" lon="-3.78168">
        <ele>610.2</ele>
        <time>2022-12-31 07:55:37</time>
      </trkpt>
      <trkpt lat="40.17622" lon="-3.78173">
        <ele>610.2</ele>
        <time>2022-12-31 07:55:38</time>
      </trkpt>
      <trkpt lat="40.17618" lon="-3.78179">
        <ele>610</ele>
        <time>2022-12-31 07:55:39</time>
      </trkpt>
      <trkpt lat="40.17613" lon="-3.78184">
        <ele>610</ele>
        <time>2022-12-31 07:55:40</time>
      </trkpt>
      <trkpt lat="40.17608" lon="-3.78189">
        <ele>609.8</ele>
        <time>2022-12-31 07:55:41</time>
      </trkpt>
      <trkpt lat="40.17603" lon="-3.78194">
        <ele>609.8</ele>
        <time>2022-12-31 07:55:42</time>
      </trkpt>
      <trkpt lat="40.17598" lon="-3.78199">
        <ele>609.6</ele>
        <time>2022-12-31 07:55:43</time>
      </trkpt>
      <trkpt lat="40.17593" lon="-3.78203">
        <ele>609.4</ele>
        <time>2022-12-31 07:55:44</time>
      </trkpt>
      <trkpt lat="40.17588" lon="-3.78207">
        <ele>609.6</ele>
        <time>2022-12-31 07:55:45</time>
      </trkpt>
      <trkpt lat="40.17583" lon="-3.78212">
        <ele>609.4</ele>
        <time>2022-12-31 07:55:46</time>
      </trkpt>
      <trkpt lat="40.17578" lon="-3.78216">
        <ele>609.4</ele>
        <time>2022-12-31 07:55:47</time>
      </trkpt>
      <trkpt lat="40.17573" lon="-3.78221">
        <ele>609.4</ele>
        <time>2022-12-31 07:55:48</time>
      </trkpt>
      <trkpt lat="40.17568" lon="-3.78225">
        <ele>609.4</ele>
        <time>2022-12-31 07:55:49</time>
      </trkpt>
      <trkpt lat="40.17562" lon="-3.78228">
        <ele>609.4</ele>
        <time>2022-12-31 07:55:50</time>
      </trkpt>
      <trkpt lat="40.17557" lon="-3.78233">
        <ele>609.2</ele>
        <time>2022-12-31 07:55:51</time>
      </trkpt>
      <trkpt lat="40.17552" lon="-3.78238">
        <ele>609.4</ele>
        <time>2022-12-31 07:55:52</time>
      </trkpt>
      <trkpt lat="40.17547" lon="-3.78243">
        <ele>609.4</ele>
        <time>2022-12-31 07:55:53</time>
      </trkpt>
      <trkpt lat="40.17542" lon="-3.78248">
        <ele>609.2</ele>
        <time>2022-12-31 07:55:54</time>
      </trkpt>
      <trkpt lat="40.17537" lon="-3.78252">
        <ele>609.2</ele>
        <time>2022-12-31 07:55:55</time>
      </trkpt>
      <trkpt lat="40.17532" lon="-3.78257">
        <ele>609.2</ele>
        <time>2022-12-31 07:55:56</time>
      </trkpt>
      <trkpt lat="40.17527" lon="-3.78262">
        <ele>609.2</ele>
        <time>2022-12-31 07:55:57</time>
      </trkpt>
      <trkpt lat="40.17523" lon="-3.78267">
        <ele>609.2</ele>
        <time>2022-12-31 07:55:58</time>
      </trkpt>
      <trkpt lat="40.17518" lon="-3.78271">
        <ele>609.2</ele>
        <time>2022-12-31 07:55:59</time>
      </trkpt>
      <trkpt lat="40.17513" lon="-3.78276">
        <ele>609.2</ele>
        <time>2022-12-31 07:56:00</time>
      </trkpt>
      <trkpt lat="40.17508" lon="-3.78281">
        <ele>609.2</ele>
        <time>2022-12-31 07:56:01</time>
      </trkpt>
      <trkpt lat="40.17503" lon="-3.78286">
        <ele>609.2</ele>
        <time>2022-12-31 07:56:02</time>
      </trkpt>
      <trkpt lat="40.17498" lon="-3.78291">
        <ele>609.4</ele>
        <time>2022-12-31 07:56:03</time>
      </trkpt>
      <trkpt lat="40.17492" lon="-3.78295">
        <ele>609.4</ele>
        <time>2022-12-31 07:56:04</time>
      </trkpt>
      <trkpt lat="40.17487" lon="-3.783">
        <ele>609.4</ele>
        <time>2022-12-31 07:56:05</time>
      </trkpt>
      <trkpt lat="40.17482" lon="-3.78305">
        <ele>609.2</ele>
        <time>2022-12-31 07:56:06</time>
      </trkpt>
      <trkpt lat="40.17477" lon="-3.7831">
        <ele>609.2</ele>
        <time>2022-12-31 07:56:07</time>
      </trkpt>
      <trkpt lat="40.17472" lon="-3.78315">
        <ele>609.2</ele>
        <time>2022-12-31 07:56:08</time>
      </trkpt>
      <trkpt lat="40.17467" lon="-3.78319">
        <ele>609.2</ele>
        <time>2022-12-31 07:56:09</time>
      </trkpt>
      <trkpt lat="40.17461" lon="-3.78324">
        <ele>609.2</ele>
        <time>2022-12-31 07:56:10</time>
      </trkpt>
      <trkpt lat="40.17456" lon="-3.78328">
        <ele>609.4</ele>
        <time>2022-12-31 07:56:11</time>
      </trkpt>
      <trkpt lat="40.1745" lon="-3.78332">
        <ele>609.4</ele>
        <time>2022-12-31 07:56:12</time>
      </trkpt>
      <trkpt lat="40.17444" lon="-3.78336">
        <ele>609.4</ele>
        <time>2022-12-31 07:56:13</time>
      </trkpt>
      <trkpt lat="40.17439" lon="-3.78339">
        <ele>609.4</ele>
        <time>2022-12-31 07:56:14</time>
      </trkpt>
      <trkpt lat="40.17433" lon="-3.78342">
        <ele>609.4</ele>
        <time>2022-12-31 07:56:15</time>
      </trkpt>
      <trkpt lat="40.17427" lon="-3.78346">
        <ele>609.4</ele>
        <time>2022-12-31 07:56:16</time>
      </trkpt>
      <trkpt lat="40.17421" lon="-3.7835">
        <ele>609.4</ele>
        <time>2022-12-31 07:56:17</time>
      </trkpt>
      <trkpt lat="40.17416" lon="-3.78353">
        <ele>609.4</ele>
        <time>2022-12-31 07:56:18</time>
      </trkpt>
      <trkpt lat="40.1741" lon="-3.78356">
        <ele>609.4</ele>
        <time>2022-12-31 07:56:19</time>
      </trkpt>
      <trkpt lat="40.17404" lon="-3.78358">
        <ele>609.4</ele>
        <time>2022-12-31 07:56:20</time>
      </trkpt>
      <trkpt lat="40.17397" lon="-3.7836">
        <ele>609.4</ele>
        <time>2022-12-31 07:56:21</time>
      </trkpt>
      <trkpt lat="40.17391" lon="-3.78363">
        <ele>609.4</ele>
        <time>2022-12-31 07:56:22</time>
      </trkpt>
      <trkpt lat="40.17385" lon="-3.78366">
        <ele>609.4</ele>
        <time>2022-12-31 07:56:23</time>
      </trkpt>
      <trkpt lat="40.1738" lon="-3.78369">
        <ele>609.4</ele>
        <time>2022-12-31 07:56:24</time>
      </trkpt>
      <trkpt lat="40.17374" lon="-3.78371">
        <ele>609.4</ele>
        <time>2022-12-31 07:56:25</time>
      </trkpt>
      <trkpt lat="40.17368" lon="-3.78374">
        <ele>609.2</ele>
        <time>2022-12-31 07:56:26</time>
      </trkpt>
      <trkpt lat="40.17362" lon="-3.78376">
        <ele>609.4</ele>
        <time>2022-12-31 07:56:27</time>
      </trkpt>
      <trkpt lat="40.17357" lon="-3.78379">
        <ele>609.4</ele>
        <time>2022-12-31 07:56:28</time>
      </trkpt>
      <trkpt lat="40.17351" lon="-3.78382">
        <ele>609.4</ele>
        <time>2022-12-31 07:56:29</time>
      </trkpt>
      <trkpt lat="40.17345" lon="-3.78385">
        <ele>609.6</ele>
        <time>2022-12-31 07:56:30</time>
      </trkpt>
      <trkpt lat="40.17339" lon="-3.78388">
        <ele>609.4</ele>
        <time>2022-12-31 07:56:31</time>
      </trkpt>
      <trkpt lat="40.17334" lon="-3.78392">
        <ele>609.4</ele>
        <time>2022-12-31 07:56:32</time>
      </trkpt>
      <trkpt lat="40.17328" lon="-3.78395">
        <ele>609.4</ele>
        <time>2022-12-31 07:56:33</time>
      </trkpt>
      <trkpt lat="40.17323" lon="-3.78398">
        <ele>609.4</ele>
        <time>2022-12-31 07:56:34</time>
      </trkpt>
      <trkpt lat="40.17317" lon="-3.78401">
        <ele>609.4</ele>
        <time>2022-12-31 07:56:35</time>
      </trkpt>
      <trkpt lat="40.17311" lon="-3.78404">
        <ele>609.6</ele>
        <time>2022-12-31 07:56:36</time>
      </trkpt>
      <trkpt lat="40.17306" lon="-3.78407">
        <ele>609.6</ele>
        <time>2022-12-31 07:56:37</time>
      </trkpt>
      <trkpt lat="40.173" lon="-3.7841">
        <ele>609.6</ele>
        <time>2022-12-31 07:56:38</time>
      </trkpt>
      <trkpt lat="40.17295" lon="-3.78413">
        <ele>609.4</ele>
        <time>2022-12-31 07:56:39</time>
      </trkpt>
      <trkpt lat="40.1729" lon="-3.78416">
        <ele>609.4</ele>
        <time>2022-12-31 07:56:40</time>
      </trkpt>
      <trkpt lat="40.17284" lon="-3.78419">
        <ele>609.6</ele>
        <time>2022-12-31 07:56:41</time>
      </trkpt>
      <trkpt lat="40.17278" lon="-3.78421">
        <ele>609.6</ele>
        <time>2022-12-31 07:56:42</time>
      </trkpt>
      <trkpt lat="40.17273" lon="-3.78425">
        <ele>609.6</ele>
        <time>2022-12-31 07:56:43</time>
      </trkpt>
      <trkpt lat="40.17268" lon="-3.78428">
        <ele>609.6</ele>
        <time>2022-12-31 07:56:44</time>
      </trkpt>
      <trkpt lat="40.17263" lon="-3.78432">
        <ele>609.6</ele>
        <time>2022-12-31 07:56:45</time>
      </trkpt>
      <trkpt lat="40.17258" lon="-3.78436">
        <ele>609.6</ele>
        <time>2022-12-31 07:56:46</time>
      </trkpt>
      <trkpt lat="40.17254" lon="-3.7844">
        <ele>609.6</ele>
        <time>2022-12-31 07:56:47</time>
      </trkpt>
      <trkpt lat="40.17249" lon="-3.78444">
        <ele>609.6</ele>
        <time>2022-12-31 07:56:48</time>
      </trkpt>
      <trkpt lat="40.17244" lon="-3.78448">
        <ele>609.8</ele>
        <time>2022-12-31 07:56:49</time>
      </trkpt>
      <trkpt lat="40.1724" lon="-3.78452">
        <ele>609.8</ele>
        <time>2022-12-31 07:56:50</time>
      </trkpt>
      <trkpt lat="40.17235" lon="-3.78456">
        <ele>610.2</ele>
        <time>2022-12-31 07:56:51</time>
      </trkpt>
      <trkpt lat="40.17231" lon="-3.7846">
        <ele>610</ele>
        <time>2022-12-31 07:56:52</time>
      </trkpt>
      <trkpt lat="40.17226" lon="-3.78464">
        <ele>610</ele>
        <time>2022-12-31 07:56:53</time>
      </trkpt>
      <trkpt lat="40.17222" lon="-3.78468">
        <ele>610.2</ele>
        <time>2022-12-31 07:56:54</time>
      </trkpt>
      <trkpt lat="40.17217" lon="-3.78472">
        <ele>610.4</ele>
        <time>2022-12-31 07:56:55</time>
      </trkpt>
      <trkpt lat="40.17213" lon="-3.78475">
        <ele>610.4</ele>
        <time>2022-12-31 07:56:56</time>
      </trkpt>
      <trkpt lat="40.17208" lon="-3.78479">
        <ele>610.4</ele>
        <time>2022-12-31 07:56:57</time>
      </trkpt>
      <trkpt lat="40.17204" lon="-3.78483">
        <ele>610.4</ele>
        <time>2022-12-31 07:56:58</time>
      </trkpt>
      <trkpt lat="40.17199" lon="-3.78487">
        <ele>610.4</ele>
        <time>2022-12-31 07:56:59</time>
      </trkpt>
      <trkpt lat="40.17194" lon="-3.78491">
        <ele>610.8</ele>
        <time>2022-12-31 07:57:00</time>
      </trkpt>
      <trkpt lat="40.1719" lon="-3.78495">
        <ele>611</ele>
        <time>2022-12-31 07:57:01</time>
      </trkpt>
      <trkpt lat="40.17185" lon="-3.78499">
        <ele>611</ele>
        <time>2022-12-31 07:57:02</time>
      </trkpt>
      <trkpt lat="40.17181" lon="-3.78503">
        <ele>611.2</ele>
        <time>2022-12-31 07:57:03</time>
      </trkpt>
      <trkpt lat="40.17176" lon="-3.78508">
        <ele>611.2</ele>
        <time>2022-12-31 07:57:04</time>
      </trkpt>
      <trkpt lat="40.17172" lon="-3.78512">
        <ele>611.6</ele>
        <time>2022-12-31 07:57:05</time>
      </trkpt>
      <trkpt lat="40.17167" lon="-3.78516">
        <ele>611.6</ele>
        <time>2022-12-31 07:57:06</time>
      </trkpt>
      <trkpt lat="40.17163" lon="-3.78521">
        <ele>611.8</ele>
        <time>2022-12-31 07:57:07</time>
      </trkpt>
      <trkpt lat="40.17158" lon="-3.78526">
        <ele>612.2</ele>
        <time>2022-12-31 07:57:08</time>
      </trkpt>
      <trkpt lat="40.17153" lon="-3.7853">
        <ele>612.2</ele>
        <time>2022-12-31 07:57:09</time>
      </trkpt>
      <trkpt lat="40.17148" lon="-3.78534">
        <ele>612.2</ele>
        <time>2022-12-31 07:57:10</time>
      </trkpt>
      <trkpt lat="40.17143" lon="-3.78538">
        <ele>612.4</ele>
        <time>2022-12-31 07:57:11</time>
      </trkpt>
      <trkpt lat="40.17137" lon="-3.78542">
        <ele>612.4</ele>
        <time>2022-12-31 07:57:12</time>
      </trkpt>
      <trkpt lat="40.17132" lon="-3.78546">
        <ele>612.4</ele>
        <time>2022-12-31 07:57:13</time>
      </trkpt>
      <trkpt lat="40.17126" lon="-3.78551">
        <ele>612.4</ele>
        <time>2022-12-31 07:57:14</time>
      </trkpt>
      <trkpt lat="40.1712" lon="-3.78556">
        <ele>612.4</ele>
        <time>2022-12-31 07:57:15</time>
      </trkpt>
      <trkpt lat="40.17115" lon="-3.7856">
        <ele>612.2</ele>
        <time>2022-12-31 07:57:16</time>
      </trkpt>
      <trkpt lat="40.17109" lon="-3.78565">
        <ele>612.4</ele>
        <time>2022-12-31 07:57:17</time>
      </trkpt>
      <trkpt lat="40.17104" lon="-3.7857">
        <ele>612.4</ele>
        <time>2022-12-31 07:57:18</time>
      </trkpt>
      <trkpt lat="40.17098" lon="-3.78575">
        <ele>612.4</ele>
        <time>2022-12-31 07:57:19</time>
      </trkpt>
      <trkpt lat="40.17093" lon="-3.7858">
        <ele>612.4</ele>
        <time>2022-12-31 07:57:20</time>
      </trkpt>
      <trkpt lat="40.17088" lon="-3.78584">
        <ele>612</ele>
        <time>2022-12-31 07:57:21</time>
      </trkpt>
      <trkpt lat="40.17082" lon="-3.78588">
        <ele>611.8</ele>
        <time>2022-12-31 07:57:22</time>
      </trkpt>
      <trkpt lat="40.17077" lon="-3.78592">
        <ele>611.4</ele>
        <time>2022-12-31 07:57:23</time>
      </trkpt>
      <trkpt lat="40.17073" lon="-3.78596">
        <ele>611.2</ele>
        <time>2022-12-31 07:57:24</time>
      </trkpt>
      <trkpt lat="40.17068" lon="-3.78599">
        <ele>611.2</ele>
        <time>2022-12-31 07:57:25</time>
      </trkpt>
      <trkpt lat="40.17063" lon="-3.78603">
        <ele>611</ele>
        <time>2022-12-31 07:57:26</time>
      </trkpt>
      <trkpt lat="40.17058" lon="-3.78607">
        <ele>611.2</ele>
        <time>2022-12-31 07:57:27</time>
      </trkpt>
      <trkpt lat="40.17053" lon="-3.78611">
        <ele>611</ele>
        <time>2022-12-31 07:57:28</time>
      </trkpt>
      <trkpt lat="40.17049" lon="-3.78615">
        <ele>611</ele>
        <time>2022-12-31 07:57:29</time>
      </trkpt>
      <trkpt lat="40.17044" lon="-3.78619">
        <ele>611</ele>
        <time>2022-12-31 07:57:30</time>
      </trkpt>
      <trkpt lat="40.1704" lon="-3.78623">
        <ele>611</ele>
        <time>2022-12-31 07:57:31</time>
      </trkpt>
      <trkpt lat="40.17036" lon="-3.78626">
        <ele>611</ele>
        <time>2022-12-31 07:57:32</time>
      </trkpt>
      <trkpt lat="40.17031" lon="-3.7863">
        <ele>611</ele>
        <time>2022-12-31 07:57:33</time>
      </trkpt>
      <trkpt lat="40.17027" lon="-3.78633">
        <ele>611</ele>
        <time>2022-12-31 07:57:34</time>
      </trkpt>
      <trkpt lat="40.17023" lon="-3.78637">
        <ele>611</ele>
        <time>2022-12-31 07:57:35</time>
      </trkpt>
      <trkpt lat="40.17018" lon="-3.7864">
        <ele>611</ele>
        <time>2022-12-31 07:57:36</time>
      </trkpt>
      <trkpt lat="40.17014" lon="-3.78644">
        <ele>611.2</ele>
        <time>2022-12-31 07:57:37</time>
      </trkpt>
      <trkpt lat="40.17009" lon="-3.78648">
        <ele>611.2</ele>
        <time>2022-12-31 07:57:38</time>
      </trkpt>
      <trkpt lat="40.17005" lon="-3.78651">
        <ele>611.4</ele>
        <time>2022-12-31 07:57:39</time>
      </trkpt>
      <trkpt lat="40.17001" lon="-3.78655">
        <ele>611.2</ele>
        <time>2022-12-31 07:57:40</time>
      </trkpt>
      <trkpt lat="40.16996" lon="-3.78658">
        <ele>611.4</ele>
        <time>2022-12-31 07:57:41</time>
      </trkpt>
      <trkpt lat="40.16991" lon="-3.78661">
        <ele>611.4</ele>
        <time>2022-12-31 07:57:42</time>
      </trkpt>
      <trkpt lat="40.16986" lon="-3.78664">
        <ele>611.6</ele>
        <time>2022-12-31 07:57:43</time>
      </trkpt>
      <trkpt lat="40.16981" lon="-3.78667">
        <ele>611.6</ele>
        <time>2022-12-31 07:57:44</time>
      </trkpt>
      <trkpt lat="40.16977" lon="-3.78672">
        <ele>611.6</ele>
        <time>2022-12-31 07:57:45</time>
      </trkpt>
      <trkpt lat="40.16972" lon="-3.78676">
        <ele>611.4</ele>
        <time>2022-12-31 07:57:46</time>
      </trkpt>
      <trkpt lat="40.16967" lon="-3.7868">
        <ele>611.4</ele>
        <time>2022-12-31 07:57:47</time>
      </trkpt>
      <trkpt lat="40.16961" lon="-3.78685">
        <ele>611.6</ele>
        <time>2022-12-31 07:57:48</time>
      </trkpt>
      <trkpt lat="40.16956" lon="-3.7869">
        <ele>611.4</ele>
        <time>2022-12-31 07:57:49</time>
      </trkpt>
      <trkpt lat="40.16951" lon="-3.78694">
        <ele>611.4</ele>
        <time>2022-12-31 07:57:50</time>
      </trkpt>
      <trkpt lat="40.16945" lon="-3.78699">
        <ele>611.2</ele>
        <time>2022-12-31 07:57:51</time>
      </trkpt>
      <trkpt lat="40.1694" lon="-3.78704">
        <ele>611.4</ele>
        <time>2022-12-31 07:57:52</time>
      </trkpt>
      <trkpt lat="40.16934" lon="-3.78709">
        <ele>611</ele>
        <time>2022-12-31 07:57:53</time>
      </trkpt>
      <trkpt lat="40.16929" lon="-3.78714">
        <ele>610.8</ele>
        <time>2022-12-31 07:57:54</time>
      </trkpt>
      <trkpt lat="40.16923" lon="-3.78719">
        <ele>610.8</ele>
        <time>2022-12-31 07:57:55</time>
      </trkpt>
      <trkpt lat="40.16917" lon="-3.78724">
        <ele>610.6</ele>
        <time>2022-12-31 07:57:56</time>
      </trkpt>
      <trkpt lat="40.16912" lon="-3.78728">
        <ele>610.4</ele>
        <time>2022-12-31 07:57:57</time>
      </trkpt>
      <trkpt lat="40.16906" lon="-3.78734">
        <ele>610</ele>
        <time>2022-12-31 07:57:58</time>
      </trkpt>
      <trkpt lat="40.16901" lon="-3.78739">
        <ele>609.6</ele>
        <time>2022-12-31 07:57:59</time>
      </trkpt>
      <trkpt lat="40.16896" lon="-3.78745">
        <ele>609.2</ele>
        <time>2022-12-31 07:58:00</time>
      </trkpt>
      <trkpt lat="40.16891" lon="-3.7875">
        <ele>609</ele>
        <time>2022-12-31 07:58:01</time>
      </trkpt>
      <trkpt lat="40.16886" lon="-3.78755">
        <ele>608.8</ele>
        <time>2022-12-31 07:58:02</time>
      </trkpt>
      <trkpt lat="40.16882" lon="-3.7876">
        <ele>608.4</ele>
        <time>2022-12-31 07:58:03</time>
      </trkpt>
      <trkpt lat="40.16877" lon="-3.78765">
        <ele>608.2</ele>
        <time>2022-12-31 07:58:04</time>
      </trkpt>
      <trkpt lat="40.16872" lon="-3.7877">
        <ele>608.2</ele>
        <time>2022-12-31 07:58:05</time>
      </trkpt>
      <trkpt lat="40.16867" lon="-3.78775">
        <ele>608</ele>
        <time>2022-12-31 07:58:06</time>
      </trkpt>
      <trkpt lat="40.16862" lon="-3.7878">
        <ele>608</ele>
        <time>2022-12-31 07:58:07</time>
      </trkpt>
      <trkpt lat="40.16858" lon="-3.78785">
        <ele>607.8</ele>
        <time>2022-12-31 07:58:08</time>
      </trkpt>
      <trkpt lat="40.16853" lon="-3.7879">
        <ele>607.8</ele>
        <time>2022-12-31 07:58:09</time>
      </trkpt>
      <trkpt lat="40.16849" lon="-3.78795">
        <ele>607.8</ele>
        <time>2022-12-31 07:58:10</time>
      </trkpt>
      <trkpt lat="40.16844" lon="-3.788">
        <ele>607.6</ele>
        <time>2022-12-31 07:58:11</time>
      </trkpt>
      <trkpt lat="40.1684" lon="-3.78805">
        <ele>607.6</ele>
        <time>2022-12-31 07:58:12</time>
      </trkpt>
      <trkpt lat="40.16835" lon="-3.78809">
        <ele>607.4</ele>
        <time>2022-12-31 07:58:13</time>
      </trkpt>
      <trkpt lat="40.16831" lon="-3.78814">
        <ele>607.4</ele>
        <time>2022-12-31 07:58:14</time>
      </trkpt>
      <trkpt lat="40.16826" lon="-3.78818">
        <ele>607.6</ele>
        <time>2022-12-31 07:58:15</time>
      </trkpt>
      <trkpt lat="40.16822" lon="-3.78822">
        <ele>607.4</ele>
        <time>2022-12-31 07:58:16</time>
      </trkpt>
      <trkpt lat="40.16817" lon="-3.78827">
        <ele>607.2</ele>
        <time>2022-12-31 07:58:17</time>
      </trkpt>
      <trkpt lat="40.16813" lon="-3.78831">
        <ele>607.2</ele>
        <time>2022-12-31 07:58:18</time>
      </trkpt>
      <trkpt lat="40.16808" lon="-3.78836">
        <ele>607.2</ele>
        <time>2022-12-31 07:58:19</time>
      </trkpt>
      <trkpt lat="40.16803" lon="-3.7884">
        <ele>607.2</ele>
        <time>2022-12-31 07:58:20</time>
      </trkpt>
      <trkpt lat="40.16799" lon="-3.78845">
        <ele>607</ele>
        <time>2022-12-31 07:58:21</time>
      </trkpt>
      <trkpt lat="40.16794" lon="-3.78849">
        <ele>607</ele>
        <time>2022-12-31 07:58:22</time>
      </trkpt>
      <trkpt lat="40.1679" lon="-3.78854">
        <ele>607</ele>
        <time>2022-12-31 07:58:23</time>
      </trkpt>
      <trkpt lat="40.16786" lon="-3.78858">
        <ele>606.8</ele>
        <time>2022-12-31 07:58:24</time>
      </trkpt>
      <trkpt lat="40.16781" lon="-3.78863">
        <ele>606.8</ele>
        <time>2022-12-31 07:58:25</time>
      </trkpt>
      <trkpt lat="40.16777" lon="-3.78868">
        <ele>606.8</ele>
        <time>2022-12-31 07:58:26</time>
      </trkpt>
      <trkpt lat="40.16773" lon="-3.78873">
        <ele>606.8</ele>
        <time>2022-12-31 07:58:27</time>
      </trkpt>
      <trkpt lat="40.16769" lon="-3.78878">
        <ele>606.6</ele>
        <time>2022-12-31 07:58:28</time>
      </trkpt>
      <trkpt lat="40.16765" lon="-3.78883">
        <ele>606.6</ele>
        <time>2022-12-31 07:58:29</time>
      </trkpt>
      <trkpt lat="40.16761" lon="-3.78888">
        <ele>606.4</ele>
        <time>2022-12-31 07:58:30</time>
      </trkpt>
      <trkpt lat="40.16757" lon="-3.78894">
        <ele>606.4</ele>
        <time>2022-12-31 07:58:31</time>
      </trkpt>
      <trkpt lat="40.16753" lon="-3.78899">
        <ele>606.2</ele>
        <time>2022-12-31 07:58:32</time>
      </trkpt>
      <trkpt lat="40.16749" lon="-3.78904">
        <ele>606.2</ele>
        <time>2022-12-31 07:58:33</time>
      </trkpt>
      <trkpt lat="40.16746" lon="-3.78909">
        <ele>606.2</ele>
        <time>2022-12-31 07:58:34</time>
      </trkpt>
      <trkpt lat="40.16742" lon="-3.78915">
        <ele>606</ele>
        <time>2022-12-31 07:58:35</time>
      </trkpt>
      <trkpt lat="40.16739" lon="-3.7892">
        <ele>606</ele>
        <time>2022-12-31 07:58:36</time>
      </trkpt>
      <trkpt lat="40.16735" lon="-3.78926">
        <ele>605.8</ele>
        <time>2022-12-31 07:58:37</time>
      </trkpt>
      <trkpt lat="40.16732" lon="-3.78932">
        <ele>605.8</ele>
        <time>2022-12-31 07:58:38</time>
      </trkpt>
      <trkpt lat="40.16729" lon="-3.78938">
        <ele>605.8</ele>
        <time>2022-12-31 07:58:39</time>
      </trkpt>
      <trkpt lat="40.16726" lon="-3.78944">
        <ele>605.6</ele>
        <time>2022-12-31 07:58:40</time>
      </trkpt>
      <trkpt lat="40.16722" lon="-3.7895">
        <ele>605.8</ele>
        <time>2022-12-31 07:58:41</time>
      </trkpt>
      <trkpt lat="40.16719" lon="-3.78956">
        <ele>605.8</ele>
        <time>2022-12-31 07:58:42</time>
      </trkpt>
      <trkpt lat="40.16715" lon="-3.78962">
        <ele>605.8</ele>
        <time>2022-12-31 07:58:43</time>
      </trkpt>
      <trkpt lat="40.16712" lon="-3.78967">
        <ele>605.8</ele>
        <time>2022-12-31 07:58:44</time>
      </trkpt>
      <trkpt lat="40.16708" lon="-3.78973">
        <ele>605.6</ele>
        <time>2022-12-31 07:58:45</time>
      </trkpt>
      <trkpt lat="40.16704" lon="-3.78979">
        <ele>605.6</ele>
        <time>2022-12-31 07:58:46</time>
      </trkpt>
      <trkpt lat="40.167" lon="-3.78985">
        <ele>605.6</ele>
        <time>2022-12-31 07:58:47</time>
      </trkpt>
      <trkpt lat="40.16697" lon="-3.78991">
        <ele>605.6</ele>
        <time>2022-12-31 07:58:48</time>
      </trkpt>
      <trkpt lat="40.16693" lon="-3.78997">
        <ele>605.4</ele>
        <time>2022-12-31 07:58:49</time>
      </trkpt>
      <trkpt lat="40.16689" lon="-3.79003">
        <ele>605.4</ele>
        <time>2022-12-31 07:58:50</time>
      </trkpt>
      <trkpt lat="40.16686" lon="-3.79009">
        <ele>605.4</ele>
        <time>2022-12-31 07:58:51</time>
      </trkpt>
      <trkpt lat="40.16682" lon="-3.79015">
        <ele>605.4</ele>
        <time>2022-12-31 07:58:52</time>
      </trkpt>
      <trkpt lat="40.16678" lon="-3.79021">
        <ele>605.2</ele>
        <time>2022-12-31 07:58:53</time>
      </trkpt>
      <trkpt lat="40.16675" lon="-3.79026">
        <ele>605.2</ele>
        <time>2022-12-31 07:58:54</time>
      </trkpt>
      <trkpt lat="40.16672" lon="-3.79032">
        <ele>605.2</ele>
        <time>2022-12-31 07:58:55</time>
      </trkpt>
      <trkpt lat="40.16669" lon="-3.79038">
        <ele>605.2</ele>
        <time>2022-12-31 07:58:56</time>
      </trkpt>
      <trkpt lat="40.16666" lon="-3.79044">
        <ele>605.2</ele>
        <time>2022-12-31 07:58:57</time>
      </trkpt>
      <trkpt lat="40.16663" lon="-3.79051">
        <ele>605.2</ele>
        <time>2022-12-31 07:58:58</time>
      </trkpt>
      <trkpt lat="40.16659" lon="-3.79058">
        <ele>605.2</ele>
        <time>2022-12-31 07:58:59</time>
      </trkpt>
      <trkpt lat="40.16655" lon="-3.79065">
        <ele>605.2</ele>
        <time>2022-12-31 07:59:00</time>
      </trkpt>
      <trkpt lat="40.16652" lon="-3.79071">
        <ele>605.2</ele>
        <time>2022-12-31 07:59:01</time>
      </trkpt>
      <trkpt lat="40.16648" lon="-3.79078">
        <ele>605</ele>
        <time>2022-12-31 07:59:02</time>
      </trkpt>
      <trkpt lat="40.16645" lon="-3.79085">
        <ele>605</ele>
        <time>2022-12-31 07:59:03</time>
      </trkpt>
      <trkpt lat="40.16641" lon="-3.79092">
        <ele>605</ele>
        <time>2022-12-31 07:59:04</time>
      </trkpt>
      <trkpt lat="40.16637" lon="-3.79099">
        <ele>605</ele>
        <time>2022-12-31 07:59:05</time>
      </trkpt>
      <trkpt lat="40.16633" lon="-3.79106">
        <ele>604.8</ele>
        <time>2022-12-31 07:59:06</time>
      </trkpt>
      <trkpt lat="40.1663" lon="-3.79113">
        <ele>604.8</ele>
        <time>2022-12-31 07:59:07</time>
      </trkpt>
      <trkpt lat="40.16626" lon="-3.7912">
        <ele>604.6</ele>
        <time>2022-12-31 07:59:08</time>
      </trkpt>
      <trkpt lat="40.16623" lon="-3.79127">
        <ele>604.6</ele>
        <time>2022-12-31 07:59:09</time>
      </trkpt>
      <trkpt lat="40.16619" lon="-3.79133">
        <ele>604.4</ele>
        <time>2022-12-31 07:59:10</time>
      </trkpt>
      <trkpt lat="40.16616" lon="-3.7914">
        <ele>604.2</ele>
        <time>2022-12-31 07:59:11</time>
      </trkpt>
      <trkpt lat="40.16612" lon="-3.79146">
        <ele>604.2</ele>
        <time>2022-12-31 07:59:12</time>
      </trkpt>
      <trkpt lat="40.16609" lon="-3.79153">
        <ele>604.2</ele>
        <time>2022-12-31 07:59:13</time>
      </trkpt>
      <trkpt lat="40.16605" lon="-3.79159">
        <ele>604.2</ele>
        <time>2022-12-31 07:59:14</time>
      </trkpt>
      <trkpt lat="40.16602" lon="-3.79166">
        <ele>604.2</ele>
        <time>2022-12-31 07:59:15</time>
      </trkpt>
      <trkpt lat="40.16598" lon="-3.79173">
        <ele>604</ele>
        <time>2022-12-31 07:59:16</time>
      </trkpt>
      <trkpt lat="40.16595" lon="-3.79181">
        <ele>603.8</ele>
        <time>2022-12-31 07:59:17</time>
      </trkpt>
      <trkpt lat="40.16592" lon="-3.79188">
        <ele>603.6</ele>
        <time>2022-12-31 07:59:18</time>
      </trkpt>
      <trkpt lat="40.16589" lon="-3.79196">
        <ele>603.4</ele>
        <time>2022-12-31 07:59:19</time>
      </trkpt>
      <trkpt lat="40.16586" lon="-3.79204">
        <ele>603.4</ele>
        <time>2022-12-31 07:59:20</time>
      </trkpt>
      <trkpt lat="40.16583" lon="-3.79213">
        <ele>603.2</ele>
        <time>2022-12-31 07:59:21</time>
      </trkpt>
      <trkpt lat="40.16579" lon="-3.79221">
        <ele>603</ele>
        <time>2022-12-31 07:59:22</time>
      </trkpt>
      <trkpt lat="40.16576" lon="-3.7923">
        <ele>602.8</ele>
        <time>2022-12-31 07:59:23</time>
      </trkpt>
      <trkpt lat="40.16572" lon="-3.79238">
        <ele>602.6</ele>
        <time>2022-12-31 07:59:24</time>
      </trkpt>
      <trkpt lat="40.16569" lon="-3.79246">
        <ele>602.4</ele>
        <time>2022-12-31 07:59:25</time>
      </trkpt>
      <trkpt lat="40.16566" lon="-3.79255">
        <ele>602.2</ele>
        <time>2022-12-31 07:59:26</time>
      </trkpt>
      <trkpt lat="40.16563" lon="-3.79264">
        <ele>601.8</ele>
        <time>2022-12-31 07:59:27</time>
      </trkpt>
      <trkpt lat="40.16559" lon="-3.79272">
        <ele>601.6</ele>
        <time>2022-12-31 07:59:28</time>
      </trkpt>
      <trkpt lat="40.16556" lon="-3.79281">
        <ele>601.4</ele>
        <time>2022-12-31 07:59:29</time>
      </trkpt>
      <trkpt lat="40.16552" lon="-3.79289">
        <ele>601.2</ele>
        <time>2022-12-31 07:59:30</time>
      </trkpt>
      <trkpt lat="40.16549" lon="-3.79298">
        <ele>601</ele>
        <time>2022-12-31 07:59:31</time>
      </trkpt>
      <trkpt lat="40.16546" lon="-3.79306">
        <ele>601</ele>
        <time>2022-12-31 07:59:32</time>
      </trkpt>
      <trkpt lat="40.16542" lon="-3.79315">
        <ele>600.8</ele>
        <time>2022-12-31 07:59:33</time>
      </trkpt>
      <trkpt lat="40.16539" lon="-3.79323">
        <ele>600.6</ele>
        <time>2022-12-31 07:59:34</time>
      </trkpt>
      <trkpt lat="40.16536" lon="-3.79331">
        <ele>600.6</ele>
        <time>2022-12-31 07:59:35</time>
      </trkpt>
      <trkpt lat="40.16532" lon="-3.79339">
        <ele>600.6</ele>
        <time>2022-12-31 07:59:36</time>
      </trkpt>
      <trkpt lat="40.16528" lon="-3.79347">
        <ele>600.4</ele>
        <time>2022-12-31 07:59:37</time>
      </trkpt>
      <trkpt lat="40.16525" lon="-3.79356">
        <ele>600.2</ele>
        <time>2022-12-31 07:59:38</time>
      </trkpt>
      <trkpt lat="40.16521" lon="-3.79364">
        <ele>600</ele>
        <time>2022-12-31 07:59:39</time>
      </trkpt>
      <trkpt lat="40.16517" lon="-3.79373">
        <ele>600</ele>
        <time>2022-12-31 07:59:40</time>
      </trkpt>
      <trkpt lat="40.16514" lon="-3.79381">
        <ele>599.8</ele>
        <time>2022-12-31 07:59:41</time>
      </trkpt>
      <trkpt lat="40.1651" lon="-3.79389">
        <ele>599.8</ele>
        <time>2022-12-31 07:59:42</time>
      </trkpt>
      <trkpt lat="40.16507" lon="-3.79397">
        <ele>599.6</ele>
        <time>2022-12-31 07:59:43</time>
      </trkpt>
      <trkpt lat="40.16504" lon="-3.79405">
        <ele>599.6</ele>
        <time>2022-12-31 07:59:44</time>
      </trkpt>
      <trkpt lat="40.16501" lon="-3.79413">
        <ele>599.4</ele>
        <time>2022-12-31 07:59:45</time>
      </trkpt>
      <trkpt lat="40.16497" lon="-3.7942">
        <ele>599</ele>
        <time>2022-12-31 07:59:46</time>
      </trkpt>
      <trkpt lat="40.16493" lon="-3.79427">
        <ele>599</ele>
        <time>2022-12-31 07:59:47</time>
      </trkpt>
      <trkpt lat="40.16489" lon="-3.79434">
        <ele>599</ele>
        <time>2022-12-31 07:59:48</time>
      </trkpt>
      <trkpt lat="40.16485" lon="-3.79441">
        <ele>598.8</ele>
        <time>2022-12-31 07:59:49</time>
      </trkpt>
      <trkpt lat="40.1648" lon="-3.79447">
        <ele>598.6</ele>
        <time>2022-12-31 07:59:50</time>
      </trkpt>
      <trkpt lat="40.16476" lon="-3.79454">
        <ele>598.6</ele>
        <time>2022-12-31 07:59:51</time>
      </trkpt>
      <trkpt lat="40.16472" lon="-3.7946">
        <ele>598.6</ele>
        <time>2022-12-31 07:59:52</time>
      </trkpt>
      <trkpt lat="40.16468" lon="-3.79466">
        <ele>598.4</ele>
        <time>2022-12-31 07:59:53</time>
      </trkpt>
      <trkpt lat="40.16464" lon="-3.79471">
        <ele>598.4</ele>
        <time>2022-12-31 07:59:54</time>
      </trkpt>
      <trkpt lat="40.1646" lon="-3.79476">
        <ele>598.4</ele>
        <time>2022-12-31 07:59:55</time>
      </trkpt>
      <trkpt lat="40.16455" lon="-3.79481">
        <ele>598.2</ele>
        <time>2022-12-31 07:59:56</time>
      </trkpt>
      <trkpt lat="40.16451" lon="-3.79487">
        <ele>598.2</ele>
        <time>2022-12-31 07:59:57</time>
      </trkpt>
      <trkpt lat="40.16446" lon="-3.79491">
        <ele>598.4</ele>
        <time>2022-12-31 07:59:58</time>
      </trkpt>
      <trkpt lat="40.16442" lon="-3.79496">
        <ele>598.2</ele>
        <time>2022-12-31 07:59:59</time>
      </trkpt>
      <trkpt lat="40.16438" lon="-3.79501">
        <ele>598.2</ele>
        <time>2022-12-31 08:00:00</time>
      </trkpt>
      <trkpt lat="40.16434" lon="-3.79506">
        <ele>598</ele>
        <time>2022-12-31 08:00:01</time>
      </trkpt>
      <trkpt lat="40.1643" lon="-3.79511">
        <ele>598</ele>
        <time>2022-12-31 08:00:02</time>
      </trkpt>
      <trkpt lat="40.16427" lon="-3.79516">
        <ele>598</ele>
        <time>2022-12-31 08:00:03</time>
      </trkpt>
      <trkpt lat="40.16423" lon="-3.79521">
        <ele>597.6</ele>
        <time>2022-12-31 08:00:04</time>
      </trkpt>
      <trkpt lat="40.16418" lon="-3.79526">
        <ele>597.2</ele>
        <time>2022-12-31 08:00:05</time>
      </trkpt>
      <trkpt lat="40.16414" lon="-3.79531">
        <ele>597.2</ele>
        <time>2022-12-31 08:00:06</time>
      </trkpt>
      <trkpt lat="40.1641" lon="-3.79537">
        <ele>597</ele>
        <time>2022-12-31 08:00:07</time>
      </trkpt>
      <trkpt lat="40.16406" lon="-3.79543">
        <ele>596.8</ele>
        <time>2022-12-31 08:00:08</time>
      </trkpt>
      <trkpt lat="40.16402" lon="-3.79548">
        <ele>596.6</ele>
        <time>2022-12-31 08:00:09</time>
      </trkpt>
      <trkpt lat="40.16398" lon="-3.79553">
        <ele>596.4</ele>
        <time>2022-12-31 08:00:10</time>
      </trkpt>
      <trkpt lat="40.16393" lon="-3.79558">
        <ele>596.2</ele>
        <time>2022-12-31 08:00:11</time>
      </trkpt>
      <trkpt lat="40.16389" lon="-3.79563">
        <ele>596</ele>
        <time>2022-12-31 08:00:12</time>
      </trkpt>
      <trkpt lat="40.16385" lon="-3.79567">
        <ele>595.8</ele>
        <time>2022-12-31 08:00:13</time>
      </trkpt>
      <trkpt lat="40.1638" lon="-3.79572">
        <ele>595.8</ele>
        <time>2022-12-31 08:00:14</time>
      </trkpt>
      <trkpt lat="40.16377" lon="-3.79577">
        <ele>595.6</ele>
        <time>2022-12-31 08:00:15</time>
      </trkpt>
      <trkpt lat="40.16373" lon="-3.79582">
        <ele>595.2</ele>
        <time>2022-12-31 08:00:16</time>
      </trkpt>
      <trkpt lat="40.1637" lon="-3.79587">
        <ele>595.2</ele>
        <time>2022-12-31 08:00:17</time>
      </trkpt>
      <trkpt lat="40.16366" lon="-3.79593">
        <ele>595</ele>
        <time>2022-12-31 08:00:18</time>
      </trkpt>
      <trkpt lat="40.16363" lon="-3.79598">
        <ele>595</ele>
        <time>2022-12-31 08:00:19</time>
      </trkpt>
      <trkpt lat="40.1636" lon="-3.79604">
        <ele>594.8</ele>
        <time>2022-12-31 08:00:20</time>
      </trkpt>
      <trkpt lat="40.16358" lon="-3.79609">
        <ele>594.8</ele>
        <time>2022-12-31 08:00:21</time>
      </trkpt>
      <trkpt lat="40.16356" lon="-3.79615">
        <ele>594.8</ele>
        <time>2022-12-31 08:00:22</time>
      </trkpt>
      <trkpt lat="40.16355" lon="-3.7962">
        <ele>594.6</ele>
        <time>2022-12-31 08:00:23</time>
      </trkpt>
      <trkpt lat="40.16353" lon="-3.79625">
        <ele>594.6</ele>
        <time>2022-12-31 08:00:24</time>
      </trkpt>
      <trkpt lat="40.16351" lon="-3.7963">
        <ele>594.6</ele>
        <time>2022-12-31 08:00:25</time>
      </trkpt>
      <trkpt lat="40.16349" lon="-3.79635">
        <ele>594.6</ele>
        <time>2022-12-31 08:00:26</time>
      </trkpt>
      <trkpt lat="40.16346" lon="-3.79639">
        <ele>594.6</ele>
        <time>2022-12-31 08:00:27</time>
      </trkpt>
      <trkpt lat="40.16343" lon="-3.79643">
        <ele>594.6</ele>
        <time>2022-12-31 08:00:28</time>
      </trkpt>
      <trkpt lat="40.1634" lon="-3.79647">
        <ele>594.6</ele>
        <time>2022-12-31 08:00:29</time>
      </trkpt>
      <trkpt lat="40.16337" lon="-3.79652">
        <ele>594.8</ele>
        <time>2022-12-31 08:00:30</time>
      </trkpt>
      <trkpt lat="40.16333" lon="-3.79656">
        <ele>594.6</ele>
        <time>2022-12-31 08:00:31</time>
      </trkpt>
      <trkpt lat="40.1633" lon="-3.7966">
        <ele>594.6</ele>
        <time>2022-12-31 08:00:32</time>
      </trkpt>
      <trkpt lat="40.16327" lon="-3.79664">
        <ele>594.6</ele>
        <time>2022-12-31 08:00:33</time>
      </trkpt>
      <trkpt lat="40.16324" lon="-3.79668">
        <ele>594.6</ele>
        <time>2022-12-31 08:00:34</time>
      </trkpt>
      <trkpt lat="40.1632" lon="-3.79672">
        <ele>594.8</ele>
        <time>2022-12-31 08:00:35</time>
      </trkpt>
      <trkpt lat="40.16317" lon="-3.79676">
        <ele>594.8</ele>
        <time>2022-12-31 08:00:36</time>
      </trkpt>
      <trkpt lat="40.16313" lon="-3.7968">
        <ele>594.8</ele>
        <time>2022-12-31 08:00:37</time>
      </trkpt>
      <trkpt lat="40.1631" lon="-3.79684">
        <ele>595</ele>
        <time>2022-12-31 08:00:38</time>
      </trkpt>
      <trkpt lat="40.16306" lon="-3.79687">
        <ele>595</ele>
        <time>2022-12-31 08:00:39</time>
      </trkpt>
      <trkpt lat="40.16303" lon="-3.79691">
        <ele>595</ele>
        <time>2022-12-31 08:00:40</time>
      </trkpt>
      <trkpt lat="40.16299" lon="-3.79694">
        <ele>595.2</ele>
        <time>2022-12-31 08:00:41</time>
      </trkpt>
      <trkpt lat="40.16296" lon="-3.79697">
        <ele>595.2</ele>
        <time>2022-12-31 08:00:42</time>
      </trkpt>
      <trkpt lat="40.16292" lon="-3.797">
        <ele>595.2</ele>
        <time>2022-12-31 08:00:43</time>
      </trkpt>
      <trkpt lat="40.16289" lon="-3.79703">
        <ele>595.4</ele>
        <time>2022-12-31 08:00:44</time>
      </trkpt>
      <trkpt lat="40.16286" lon="-3.79706">
        <ele>595.8</ele>
        <time>2022-12-31 08:00:45</time>
      </trkpt>
      <trkpt lat="40.16282" lon="-3.79709">
        <ele>596</ele>
        <time>2022-12-31 08:00:46</time>
      </trkpt>
      <trkpt lat="40.16279" lon="-3.79712">
        <ele>596.2</ele>
        <time>2022-12-31 08:00:47</time>
      </trkpt>
      <trkpt lat="40.16276" lon="-3.79715">
        <ele>596.4</ele>
        <time>2022-12-31 08:00:48</time>
      </trkpt>
      <trkpt lat="40.16273" lon="-3.79718">
        <ele>596.8</ele>
        <time>2022-12-31 08:00:49</time>
      </trkpt>
      <trkpt lat="40.16269" lon="-3.79721">
        <ele>597</ele>
        <time>2022-12-31 08:00:50</time>
      </trkpt>
      <trkpt lat="40.16266" lon="-3.79724">
        <ele>597.2</ele>
        <time>2022-12-31 08:00:51</time>
      </trkpt>
      <trkpt lat="40.16262" lon="-3.79726">
        <ele>597.4</ele>
        <time>2022-12-31 08:00:52</time>
      </trkpt>
      <trkpt lat="40.16259" lon="-3.79729">
        <ele>597.6</ele>
        <time>2022-12-31 08:00:53</time>
      </trkpt>
      <trkpt lat="40.16256" lon="-3.79732">
        <ele>597.6</ele>
        <time>2022-12-31 08:00:54</time>
      </trkpt>
      <trkpt lat="40.16252" lon="-3.79735">
        <ele>597.6</ele>
        <time>2022-12-31 08:00:55</time>
      </trkpt>
      <trkpt lat="40.16249" lon="-3.79738">
        <ele>597.8</ele>
        <time>2022-12-31 08:00:56</time>
      </trkpt>
      <trkpt lat="40.16246" lon="-3.79741">
        <ele>598.2</ele>
        <time>2022-12-31 08:00:57</time>
      </trkpt>
      <trkpt lat="40.16243" lon="-3.79744">
        <ele>598.4</ele>
        <time>2022-12-31 08:00:58</time>
      </trkpt>
      <trkpt lat="40.16239" lon="-3.79746">
        <ele>598.6</ele>
        <time>2022-12-31 08:00:59</time>
      </trkpt>
      <trkpt lat="40.16236" lon="-3.79749">
        <ele>598.8</ele>
        <time>2022-12-31 08:01:00</time>
      </trkpt>
      <trkpt lat="40.16232" lon="-3.79752">
        <ele>599</ele>
        <time>2022-12-31 08:01:01</time>
      </trkpt>
      <trkpt lat="40.16229" lon="-3.79755">
        <ele>599.2</ele>
        <time>2022-12-31 08:01:02</time>
      </trkpt>
      <trkpt lat="40.16225" lon="-3.79758">
        <ele>599.6</ele>
        <time>2022-12-31 08:01:03</time>
      </trkpt>
      <trkpt lat="40.16222" lon="-3.7976">
        <ele>599.8</ele>
        <time>2022-12-31 08:01:04</time>
      </trkpt>
      <trkpt lat="40.16218" lon="-3.79763">
        <ele>600</ele>
        <time>2022-12-31 08:01:05</time>
      </trkpt>
      <trkpt lat="40.16214" lon="-3.79766">
        <ele>600.4</ele>
        <time>2022-12-31 08:01:06</time>
      </trkpt>
      <trkpt lat="40.1621" lon="-3.7977">
        <ele>600.4</ele>
        <time>2022-12-31 08:01:07</time>
      </trkpt>
      <trkpt lat="40.16206" lon="-3.79773">
        <ele>600.8</ele>
        <time>2022-12-31 08:01:08</time>
      </trkpt>
      <trkpt lat="40.16202" lon="-3.79777">
        <ele>601</ele>
        <time>2022-12-31 08:01:09</time>
      </trkpt>
      <trkpt lat="40.16198" lon="-3.7978">
        <ele>601</ele>
        <time>2022-12-31 08:01:10</time>
      </trkpt>
      <trkpt lat="40.16193" lon="-3.79784">
        <ele>601.2</ele>
        <time>2022-12-31 08:01:11</time>
      </trkpt>
      <trkpt lat="40.16189" lon="-3.79789">
        <ele>601</ele>
        <time>2022-12-31 08:01:12</time>
      </trkpt>
      <trkpt lat="40.16184" lon="-3.79793">
        <ele>601.2</ele>
        <time>2022-12-31 08:01:13</time>
      </trkpt>
      <trkpt lat="40.16179" lon="-3.79798">
        <ele>601.2</ele>
        <time>2022-12-31 08:01:14</time>
      </trkpt>
      <trkpt lat="40.16174" lon="-3.79802">
        <ele>601.2</ele>
        <time>2022-12-31 08:01:15</time>
      </trkpt>
      <trkpt lat="40.16169" lon="-3.79807">
        <ele>601.2</ele>
        <time>2022-12-31 08:01:16</time>
      </trkpt>
      <trkpt lat="40.16164" lon="-3.79812">
        <ele>601</ele>
        <time>2022-12-31 08:01:17</time>
      </trkpt>
      <trkpt lat="40.16159" lon="-3.79816">
        <ele>601.2</ele>
        <time>2022-12-31 08:01:18</time>
      </trkpt>
      <trkpt lat="40.16153" lon="-3.79821">
        <ele>601</ele>
        <time>2022-12-31 08:01:19</time>
      </trkpt>
      <trkpt lat="40.16148" lon="-3.79826">
        <ele>601</ele>
        <time>2022-12-31 08:01:20</time>
      </trkpt>
      <trkpt lat="40.16143" lon="-3.79831">
        <ele>600.8</ele>
        <time>2022-12-31 08:01:21</time>
      </trkpt>
      <trkpt lat="40.16138" lon="-3.79836">
        <ele>600.6</ele>
        <time>2022-12-31 08:01:22</time>
      </trkpt>
      <trkpt lat="40.16133" lon="-3.79841">
        <ele>600.4</ele>
        <time>2022-12-31 08:01:23</time>
      </trkpt>
      <trkpt lat="40.16127" lon="-3.79846">
        <ele>600.2</ele>
        <time>2022-12-31 08:01:24</time>
      </trkpt>
      <trkpt lat="40.16122" lon="-3.7985">
        <ele>600</ele>
        <time>2022-12-31 08:01:25</time>
      </trkpt>
      <trkpt lat="40.16117" lon="-3.79856">
        <ele>599.8</ele>
        <time>2022-12-31 08:01:26</time>
      </trkpt>
      <trkpt lat="40.16112" lon="-3.7986">
        <ele>599.8</ele>
        <time>2022-12-31 08:01:27</time>
      </trkpt>
      <trkpt lat="40.16107" lon="-3.79865">
        <ele>599.4</ele>
        <time>2022-12-31 08:01:28</time>
      </trkpt>
      <trkpt lat="40.16101" lon="-3.7987">
        <ele>599.4</ele>
        <time>2022-12-31 08:01:29</time>
      </trkpt>
      <trkpt lat="40.16096" lon="-3.79875">
        <ele>599.2</ele>
        <time>2022-12-31 08:01:30</time>
      </trkpt>
      <trkpt lat="40.16091" lon="-3.7988">
        <ele>599.2</ele>
        <time>2022-12-31 08:01:31</time>
      </trkpt>
      <trkpt lat="40.16085" lon="-3.79885">
        <ele>599.2</ele>
        <time>2022-12-31 08:01:32</time>
      </trkpt>
      <trkpt lat="40.1608" lon="-3.7989">
        <ele>599.2</ele>
        <time>2022-12-31 08:01:33</time>
      </trkpt>
      <trkpt lat="40.16075" lon="-3.79895">
        <ele>599.2</ele>
        <time>2022-12-31 08:01:34</time>
      </trkpt>
      <trkpt lat="40.16069" lon="-3.79899">
        <ele>599.2</ele>
        <time>2022-12-31 08:01:35</time>
      </trkpt>
      <trkpt lat="40.16064" lon="-3.79904">
        <ele>599</ele>
        <time>2022-12-31 08:01:36</time>
      </trkpt>
      <trkpt lat="40.16058" lon="-3.79909">
        <ele>598.8</ele>
        <time>2022-12-31 08:01:37</time>
      </trkpt>
      <trkpt lat="40.16052" lon="-3.79913">
        <ele>598.6</ele>
        <time>2022-12-31 08:01:38</time>
      </trkpt>
      <trkpt lat="40.16047" lon="-3.79917">
        <ele>598.6</ele>
        <time>2022-12-31 08:01:39</time>
      </trkpt>
      <trkpt lat="40.16042" lon="-3.79922">
        <ele>598.6</ele>
        <time>2022-12-31 08:01:40</time>
      </trkpt>
      <trkpt lat="40.16037" lon="-3.79926">
        <ele>598.4</ele>
        <time>2022-12-31 08:01:41</time>
      </trkpt>
      <trkpt lat="40.16033" lon="-3.79931">
        <ele>598.2</ele>
        <time>2022-12-31 08:01:42</time>
      </trkpt>
      <trkpt lat="40.16028" lon="-3.79935">
        <ele>598</ele>
        <time>2022-12-31 08:01:43</time>
      </trkpt>
      <trkpt lat="40.16023" lon="-3.79939">
        <ele>598</ele>
        <time>2022-12-31 08:01:44</time>
      </trkpt>
      <trkpt lat="40.16019" lon="-3.79943">
        <ele>598</ele>
        <time>2022-12-31 08:01:45</time>
      </trkpt>
      <trkpt lat="40.16014" lon="-3.79947">
        <ele>597.8</ele>
        <time>2022-12-31 08:01:46</time>
      </trkpt>
      <trkpt lat="40.1601" lon="-3.79951">
        <ele>597.6</ele>
        <time>2022-12-31 08:01:47</time>
      </trkpt>
      <trkpt lat="40.16006" lon="-3.79955">
        <ele>597.8</ele>
        <time>2022-12-31 08:01:48</time>
      </trkpt>
      <trkpt lat="40.16002" lon="-3.79958">
        <ele>597.8</ele>
        <time>2022-12-31 08:01:49</time>
      </trkpt>
      <trkpt lat="40.15998" lon="-3.79961">
        <ele>597.6</ele>
        <time>2022-12-31 08:01:50</time>
      </trkpt>
      <trkpt lat="40.15993" lon="-3.79964">
        <ele>597.6</ele>
        <time>2022-12-31 08:01:51</time>
      </trkpt>
      <trkpt lat="40.15988" lon="-3.79966">
        <ele>597.8</ele>
        <time>2022-12-31 08:01:52</time>
      </trkpt>
      <trkpt lat="40.15982" lon="-3.79967">
        <ele>597.8</ele>
        <time>2022-12-31 08:01:53</time>
      </trkpt>
      <trkpt lat="40.15977" lon="-3.79968">
        <ele>597.8</ele>
        <time>2022-12-31 08:01:54</time>
      </trkpt>
      <trkpt lat="40.15971" lon="-3.79967">
        <ele>597.8</ele>
        <time>2022-12-31 08:01:55</time>
      </trkpt>
      <trkpt lat="40.15966" lon="-3.79966">
        <ele>597.6</ele>
        <time>2022-12-31 08:01:56</time>
      </trkpt>
      <trkpt lat="40.1596" lon="-3.79964">
        <ele>597.8</ele>
        <time>2022-12-31 08:01:57</time>
      </trkpt>
      <trkpt lat="40.15955" lon="-3.79962">
        <ele>597.8</ele>
        <time>2022-12-31 08:01:58</time>
      </trkpt>
      <trkpt lat="40.1595" lon="-3.7996">
        <ele>597.8</ele>
        <time>2022-12-31 08:01:59</time>
      </trkpt>
      <trkpt lat="40.15944" lon="-3.79959">
        <ele>597.8</ele>
        <time>2022-12-31 08:02:00</time>
      </trkpt>
      <trkpt lat="40.15939" lon="-3.7996">
        <ele>597.8</ele>
        <time>2022-12-31 08:02:01</time>
      </trkpt>
      <trkpt lat="40.15934" lon="-3.79962">
        <ele>597.8</ele>
        <time>2022-12-31 08:02:02</time>
      </trkpt>
      <trkpt lat="40.15929" lon="-3.79965">
        <ele>597.6</ele>
        <time>2022-12-31 08:02:03</time>
      </trkpt>
      <trkpt lat="40.15924" lon="-3.79968">
        <ele>597.8</ele>
        <time>2022-12-31 08:02:04</time>
      </trkpt>
      <trkpt lat="40.1592" lon="-3.79973">
        <ele>597.8</ele>
        <time>2022-12-31 08:02:05</time>
      </trkpt>
      <trkpt lat="40.15915" lon="-3.79977">
        <ele>597.8</ele>
        <time>2022-12-31 08:02:06</time>
      </trkpt>
      <trkpt lat="40.15911" lon="-3.79981">
        <ele>597.8</ele>
        <time>2022-12-31 08:02:07</time>
      </trkpt>
      <trkpt lat="40.15907" lon="-3.79986">
        <ele>597.8</ele>
        <time>2022-12-31 08:02:08</time>
      </trkpt>
      <trkpt lat="40.15903" lon="-3.7999">
        <ele>597.8</ele>
        <time>2022-12-31 08:02:09</time>
      </trkpt>
      <trkpt lat="40.15899" lon="-3.79995">
        <ele>597.8</ele>
        <time>2022-12-31 08:02:10</time>
      </trkpt>
      <trkpt lat="40.15895" lon="-3.8">
        <ele>597.8</ele>
        <time>2022-12-31 08:02:11</time>
      </trkpt>
      <trkpt lat="40.15892" lon="-3.80004">
        <ele>597.8</ele>
        <time>2022-12-31 08:02:12</time>
      </trkpt>
      <trkpt lat="40.15888" lon="-3.80009">
        <ele>597.8</ele>
        <time>2022-12-31 08:02:13</time>
      </trkpt>
      <trkpt lat="40.15884" lon="-3.80014">
        <ele>597.8</ele>
        <time>2022-12-31 08:02:14</time>
      </trkpt>
      <trkpt lat="40.1588" lon="-3.80019">
        <ele>597.8</ele>
        <time>2022-12-31 08:02:15</time>
      </trkpt>
      <trkpt lat="40.15877" lon="-3.80024">
        <ele>597.8</ele>
        <time>2022-12-31 08:02:16</time>
      </trkpt>
      <trkpt lat="40.15873" lon="-3.80029">
        <ele>597.8</ele>
        <time>2022-12-31 08:02:17</time>
      </trkpt>
      <trkpt lat="40.15869" lon="-3.80035">
        <ele>598</ele>
        <time>2022-12-31 08:02:18</time>
      </trkpt>
      <trkpt lat="40.15866" lon="-3.8004">
        <ele>598.2</ele>
        <time>2022-12-31 08:02:19</time>
      </trkpt>
      <trkpt lat="40.15863" lon="-3.80046">
        <ele>598.2</ele>
        <time>2022-12-31 08:02:20</time>
      </trkpt>
      <trkpt lat="40.15861" lon="-3.80053">
        <ele>598.4</ele>
        <time>2022-12-31 08:02:21</time>
      </trkpt>
      <trkpt lat="40.1586" lon="-3.80059">
        <ele>598.4</ele>
        <time>2022-12-31 08:02:22</time>
      </trkpt>
      <trkpt lat="40.15858" lon="-3.80066">
        <ele>598.6</ele>
        <time>2022-12-31 08:02:23</time>
      </trkpt>
      <trkpt lat="40.15858" lon="-3.80073">
        <ele>598.8</ele>
        <time>2022-12-31 08:02:24</time>
      </trkpt>
      <trkpt lat="40.15858" lon="-3.8008">
        <ele>598.8</ele>
        <time>2022-12-31 08:02:25</time>
      </trkpt>
      <trkpt lat="40.15859" lon="-3.80086">
        <ele>598.8</ele>
        <time>2022-12-31 08:02:26</time>
      </trkpt>
      <trkpt lat="40.1586" lon="-3.80093">
        <ele>599</ele>
        <time>2022-12-31 08:02:27</time>
      </trkpt>
      <trkpt lat="40.15861" lon="-3.80099">
        <ele>598.8</ele>
        <time>2022-12-31 08:02:28</time>
      </trkpt>
      <trkpt lat="40.15861" lon="-3.80104">
        <ele>598.8</ele>
        <time>2022-12-31 08:02:29</time>
      </trkpt>
      <trkpt lat="40.15861" lon="-3.8011">
        <ele>599</ele>
        <time>2022-12-31 08:02:30</time>
      </trkpt>
      <trkpt lat="40.15862" lon="-3.80116">
        <ele>599</ele>
        <time>2022-12-31 08:02:31</time>
      </trkpt>
      <trkpt lat="40.15861" lon="-3.80122">
        <ele>599</ele>
        <time>2022-12-31 08:02:32</time>
      </trkpt>
      <trkpt lat="40.15861" lon="-3.80128">
        <ele>599</ele>
        <time>2022-12-31 08:02:33</time>
      </trkpt>
      <trkpt lat="40.15861" lon="-3.80134">
        <ele>599</ele>
        <time>2022-12-31 08:02:34</time>
      </trkpt>
      <trkpt lat="40.1586" lon="-3.80141">
        <ele>599.2</ele>
        <time>2022-12-31 08:02:35</time>
      </trkpt>
      <trkpt lat="40.15858" lon="-3.80147">
        <ele>599.2</ele>
        <time>2022-12-31 08:02:36</time>
      </trkpt>
      <trkpt lat="40.15857" lon="-3.80154">
        <ele>599.2</ele>
        <time>2022-12-31 08:02:37</time>
      </trkpt>
      <trkpt lat="40.15855" lon="-3.8016">
        <ele>599.2</ele>
        <time>2022-12-31 08:02:38</time>
      </trkpt>
      <trkpt lat="40.15853" lon="-3.80166">
        <ele>599.2</ele>
        <time>2022-12-31 08:02:39</time>
      </trkpt>
      <trkpt lat="40.15849" lon="-3.80172">
        <ele>599.2</ele>
        <time>2022-12-31 08:02:40</time>
      </trkpt>
      <trkpt lat="40.15846" lon="-3.80177">
        <ele>599.2</ele>
        <time>2022-12-31 08:02:41</time>
      </trkpt>
      <trkpt lat="40.15842" lon="-3.80182">
        <ele>599.2</ele>
        <time>2022-12-31 08:02:42</time>
      </trkpt>
      <trkpt lat="40.15839" lon="-3.80187">
        <ele>599.2</ele>
        <time>2022-12-31 08:02:43</time>
      </trkpt>
      <trkpt lat="40.15835" lon="-3.80192">
        <ele>599.2</ele>
        <time>2022-12-31 08:02:44</time>
      </trkpt>
      <trkpt lat="40.15831" lon="-3.80197">
        <ele>599.2</ele>
        <time>2022-12-31 08:02:45</time>
      </trkpt>
      <trkpt lat="40.15827" lon="-3.80202">
        <ele>599.4</ele>
        <time>2022-12-31 08:02:46</time>
      </trkpt>
      <trkpt lat="40.15823" lon="-3.80207">
        <ele>599.4</ele>
        <time>2022-12-31 08:02:47</time>
      </trkpt>
      <trkpt lat="40.1582" lon="-3.80211">
        <ele>599.2</ele>
        <time>2022-12-31 08:02:48</time>
      </trkpt>
      <trkpt lat="40.15817" lon="-3.80214">
        <ele>599.4</ele>
        <time>2022-12-31 08:02:49</time>
      </trkpt>
      <trkpt lat="40.15814" lon="-3.80217">
        <ele>599.4</ele>
        <time>2022-12-31 08:02:50</time>
      </trkpt>
      <trkpt lat="40.1581" lon="-3.8022">
        <ele>599.4</ele>
        <time>2022-12-31 08:02:51</time>
      </trkpt>
      <trkpt lat="40.15807" lon="-3.80224">
        <ele>599.4</ele>
        <time>2022-12-31 08:02:52</time>
      </trkpt>
      <trkpt lat="40.15804" lon="-3.80229">
        <ele>599.4</ele>
        <time>2022-12-31 08:02:53</time>
      </trkpt>
      <trkpt lat="40.15801" lon="-3.80234">
        <ele>599.6</ele>
        <time>2022-12-31 08:02:54</time>
      </trkpt>
      <trkpt lat="40.15798" lon="-3.80239">
        <ele>599.4</ele>
        <time>2022-12-31 08:02:55</time>
      </trkpt>
      <trkpt lat="40.15795" lon="-3.80244">
        <ele>599.4</ele>
        <time>2022-12-31 08:02:56</time>
      </trkpt>
      <trkpt lat="40.15792" lon="-3.80249">
        <ele>599.6</ele>
        <time>2022-12-31 08:02:57</time>
      </trkpt>
      <trkpt lat="40.15788" lon="-3.80254">
        <ele>599.4</ele>
        <time>2022-12-31 08:02:58</time>
      </trkpt>
      <trkpt lat="40.15784" lon="-3.8026">
        <ele>599.4</ele>
        <time>2022-12-31 08:02:59</time>
      </trkpt>
      <trkpt lat="40.1578" lon="-3.80265">
        <ele>599.4</ele>
        <time>2022-12-31 08:03:00</time>
      </trkpt>
      <trkpt lat="40.15775" lon="-3.80271">
        <ele>599.2</ele>
        <time>2022-12-31 08:03:01</time>
      </trkpt>
      <trkpt lat="40.15771" lon="-3.80277">
        <ele>599.2</ele>
        <time>2022-12-31 08:03:02</time>
      </trkpt>
      <trkpt lat="40.15765" lon="-3.80283">
        <ele>599.2</ele>
        <time>2022-12-31 08:03:03</time>
      </trkpt>
      <trkpt lat="40.1576" lon="-3.8029">
        <ele>599.2</ele>
        <time>2022-12-31 08:03:04</time>
      </trkpt>
      <trkpt lat="40.15754" lon="-3.80297">
        <ele>599</ele>
        <time>2022-12-31 08:03:05</time>
      </trkpt>
      <trkpt lat="40.15748" lon="-3.80303">
        <ele>599</ele>
        <time>2022-12-31 08:03:06</time>
      </trkpt>
      <trkpt lat="40.15743" lon="-3.8031">
        <ele>599</ele>
        <time>2022-12-31 08:03:07</time>
      </trkpt>
      <trkpt lat="40.15737" lon="-3.80316">
        <ele>598.6</ele>
        <time>2022-12-31 08:03:08</time>
      </trkpt>
      <trkpt lat="40.1573" lon="-3.80322">
        <ele>598.2</ele>
        <time>2022-12-31 08:03:09</time>
      </trkpt>
      <trkpt lat="40.15724" lon="-3.80328">
        <ele>597.6</ele>
        <time>2022-12-31 08:03:10</time>
      </trkpt>
      <trkpt lat="40.15718" lon="-3.80334">
        <ele>597.2</ele>
        <time>2022-12-31 08:03:11</time>
      </trkpt>
      <trkpt lat="40.15711" lon="-3.80341">
        <ele>597.2</ele>
        <time>2022-12-31 08:03:12</time>
      </trkpt>
      <trkpt lat="40.15705" lon="-3.80347">
        <ele>596.4</ele>
        <time>2022-12-31 08:03:13</time>
      </trkpt>
      <trkpt lat="40.15698" lon="-3.80353">
        <ele>595.6</ele>
        <time>2022-12-31 08:03:14</time>
      </trkpt>
      <trkpt lat="40.15692" lon="-3.8036">
        <ele>595</ele>
        <time>2022-12-31 08:03:15</time>
      </trkpt>
      <trkpt lat="40.15685" lon="-3.80367">
        <ele>594.4</ele>
        <time>2022-12-31 08:03:16</time>
      </trkpt>
      <trkpt lat="40.15679" lon="-3.80374">
        <ele>594</ele>
        <time>2022-12-31 08:03:17</time>
      </trkpt>
      <trkpt lat="40.15673" lon="-3.8038">
        <ele>593.4</ele>
        <time>2022-12-31 08:03:18</time>
      </trkpt>
      <trkpt lat="40.15667" lon="-3.80387">
        <ele>592.8</ele>
        <time>2022-12-31 08:03:19</time>
      </trkpt>
      <trkpt lat="40.1566" lon="-3.80394">
        <ele>592.4</ele>
        <time>2022-12-31 08:03:20</time>
      </trkpt>
      <trkpt lat="40.15654" lon="-3.80401">
        <ele>592</ele>
        <time>2022-12-31 08:03:21</time>
      </trkpt>
      <trkpt lat="40.15648" lon="-3.80408">
        <ele>591.6</ele>
        <time>2022-12-31 08:03:22</time>
      </trkpt>
      <trkpt lat="40.15642" lon="-3.80415">
        <ele>591.4</ele>
        <time>2022-12-31 08:03:23</time>
      </trkpt>
      <trkpt lat="40.15636" lon="-3.80422">
        <ele>591.2</ele>
        <time>2022-12-31 08:03:24</time>
      </trkpt>
      <trkpt lat="40.1563" lon="-3.80429">
        <ele>591</ele>
        <time>2022-12-31 08:03:25</time>
      </trkpt>
      <trkpt lat="40.15624" lon="-3.80435">
        <ele>590.4</ele>
        <time>2022-12-31 08:03:26</time>
      </trkpt>
      <trkpt lat="40.15618" lon="-3.80441">
        <ele>590.2</ele>
        <time>2022-12-31 08:03:27</time>
      </trkpt>
      <trkpt lat="40.15613" lon="-3.80447">
        <ele>589.8</ele>
        <time>2022-12-31 08:03:28</time>
      </trkpt>
      <trkpt lat="40.15607" lon="-3.80452">
        <ele>589.6</ele>
        <time>2022-12-31 08:03:29</time>
      </trkpt>
      <trkpt lat="40.15601" lon="-3.80458">
        <ele>589</ele>
        <time>2022-12-31 08:03:30</time>
      </trkpt>
      <trkpt lat="40.15595" lon="-3.80464">
        <ele>588.8</ele>
        <time>2022-12-31 08:03:31</time>
      </trkpt>
      <trkpt lat="40.15589" lon="-3.80469">
        <ele>588.8</ele>
        <time>2022-12-31 08:03:32</time>
      </trkpt>
      <trkpt lat="40.15584" lon="-3.80475">
        <ele>588.4</ele>
        <time>2022-12-31 08:03:33</time>
      </trkpt>
      <trkpt lat="40.15578" lon="-3.80481">
        <ele>588.2</ele>
        <time>2022-12-31 08:03:34</time>
      </trkpt>
      <trkpt lat="40.15572" lon="-3.80486">
        <ele>587.8</ele>
        <time>2022-12-31 08:03:35</time>
      </trkpt>
      <trkpt lat="40.15565" lon="-3.80491">
        <ele>588</ele>
        <time>2022-12-31 08:03:36</time>
      </trkpt>
      <trkpt lat="40.15559" lon="-3.80495">
        <ele>587.6</ele>
        <time>2022-12-31 08:03:37</time>
      </trkpt>
      <trkpt lat="40.15552" lon="-3.80498">
        <ele>587.4</ele>
        <time>2022-12-31 08:03:38</time>
      </trkpt>
      <trkpt lat="40.15546" lon="-3.80501">
        <ele>587.2</ele>
        <time>2022-12-31 08:03:39</time>
      </trkpt>
      <trkpt lat="40.1554" lon="-3.80504">
        <ele>587</ele>
        <time>2022-12-31 08:03:40</time>
      </trkpt>
      <trkpt lat="40.15535" lon="-3.80506">
        <ele>586.6</ele>
        <time>2022-12-31 08:03:41</time>
      </trkpt>
      <trkpt lat="40.15531" lon="-3.80509">
        <ele>586.4</ele>
        <time>2022-12-31 08:03:42</time>
      </trkpt>
      <trkpt lat="40.15526" lon="-3.80512">
        <ele>586.2</ele>
        <time>2022-12-31 08:03:43</time>
      </trkpt>
      <trkpt lat="40.15521" lon="-3.80515">
        <ele>586</ele>
        <time>2022-12-31 08:03:44</time>
      </trkpt>
      <trkpt lat="40.15516" lon="-3.80519">
        <ele>585.8</ele>
        <time>2022-12-31 08:03:45</time>
      </trkpt>
      <trkpt lat="40.15511" lon="-3.80523">
        <ele>585.2</ele>
        <time>2022-12-31 08:03:46</time>
      </trkpt>
      <trkpt lat="40.15505" lon="-3.80527">
        <ele>585</ele>
        <time>2022-12-31 08:03:47</time>
      </trkpt>
      <trkpt lat="40.15499" lon="-3.80532">
        <ele>585</ele>
        <time>2022-12-31 08:03:48</time>
      </trkpt>
      <trkpt lat="40.15494" lon="-3.80535">
        <ele>584.6</ele>
        <time>2022-12-31 08:03:49</time>
      </trkpt>
      <trkpt lat="40.15488" lon="-3.80539">
        <ele>584.6</ele>
        <time>2022-12-31 08:03:50</time>
      </trkpt>
      <trkpt lat="40.15481" lon="-3.80542">
        <ele>584.4</ele>
        <time>2022-12-31 08:03:51</time>
      </trkpt>
      <trkpt lat="40.15475" lon="-3.80545">
        <ele>584.4</ele>
        <time>2022-12-31 08:03:52</time>
      </trkpt>
      <trkpt lat="40.1547" lon="-3.80548">
        <ele>584</ele>
        <time>2022-12-31 08:03:53</time>
      </trkpt>
      <trkpt lat="40.15465" lon="-3.8055">
        <ele>583.4</ele>
        <time>2022-12-31 08:03:54</time>
      </trkpt>
      <trkpt lat="40.1546" lon="-3.80552">
        <ele>582.8</ele>
        <time>2022-12-31 08:03:55</time>
      </trkpt>
      <trkpt lat="40.15457" lon="-3.80554">
        <ele>582.4</ele>
        <time>2022-12-31 08:03:56</time>
      </trkpt>
      <trkpt lat="40.15453" lon="-3.80556">
        <ele>581.8</ele>
        <time>2022-12-31 08:03:57</time>
      </trkpt>
      <trkpt lat="40.1545" lon="-3.80557">
        <ele>581.6</ele>
        <time>2022-12-31 08:03:58</time>
      </trkpt>
      <trkpt lat="40.15448" lon="-3.80558">
        <ele>581.4</ele>
        <time>2022-12-31 08:03:59</time>
      </trkpt>
      <trkpt lat="40.15447" lon="-3.8056">
        <ele>581.2</ele>
        <time>2022-12-31 08:04:00</time>
      </trkpt>
      <trkpt lat="40.15446" lon="-3.80561">
        <ele>581</ele>
        <time>2022-12-31 08:04:01</time>
      </trkpt>
      <trkpt lat="40.15445" lon="-3.80562">
        <ele>580.8</ele>
        <time>2022-12-31 08:04:02</time>
      </trkpt>
      <trkpt lat="40.15443" lon="-3.80564">
        <ele>580.8</ele>
        <time>2022-12-31 08:04:03</time>
      </trkpt>
      <trkpt lat="40.15441" lon="-3.80565">
        <ele>580.8</ele>
        <time>2022-12-31 08:04:04</time>
      </trkpt>
      <trkpt lat="40.1544" lon="-3.80567">
        <ele>580.6</ele>
        <time>2022-12-31 08:04:05</time>
      </trkpt>
      <trkpt lat="40.15439" lon="-3.80569">
        <ele>580.6</ele>
        <time>2022-12-31 08:04:06</time>
      </trkpt>
      <trkpt lat="40.15437" lon="-3.80571">
        <ele>580.6</ele>
        <time>2022-12-31 08:04:07</time>
      </trkpt>
      <trkpt lat="40.15435" lon="-3.80574">
        <ele>580.6</ele>
        <time>2022-12-31 08:04:08</time>
      </trkpt>
      <trkpt lat="40.15432" lon="-3.80577">
        <ele>580.6</ele>
        <time>2022-12-31 08:04:09</time>
      </trkpt>
      <trkpt lat="40.1543" lon="-3.8058">
        <ele>580.8</ele>
        <time>2022-12-31 08:04:10</time>
      </trkpt>
      <trkpt lat="40.15427" lon="-3.80583">
        <ele>580.6</ele>
        <time>2022-12-31 08:04:11</time>
      </trkpt>
      <trkpt lat="40.15425" lon="-3.80586">
        <ele>580.6</ele>
        <time>2022-12-31 08:04:12</time>
      </trkpt>
      <trkpt lat="40.15422" lon="-3.80589">
        <ele>580.8</ele>
        <time>2022-12-31 08:04:13</time>
      </trkpt>
      <trkpt lat="40.15419" lon="-3.80592">
        <ele>580.6</ele>
        <time>2022-12-31 08:04:14</time>
      </trkpt>
      <trkpt lat="40.15416" lon="-3.80596">
        <ele>580.8</ele>
        <time>2022-12-31 08:04:15</time>
      </trkpt>
      <trkpt lat="40.15413" lon="-3.80599">
        <ele>580.8</ele>
        <time>2022-12-31 08:04:16</time>
      </trkpt>
      <trkpt lat="40.1541" lon="-3.80602">
        <ele>580.8</ele>
        <time>2022-12-31 08:04:17</time>
      </trkpt>
      <trkpt lat="40.15407" lon="-3.80605">
        <ele>580.8</ele>
        <time>2022-12-31 08:04:18</time>
      </trkpt>
      <trkpt lat="40.15404" lon="-3.80608">
        <ele>580.8</ele>
        <time>2022-12-31 08:04:19</time>
      </trkpt>
      <trkpt lat="40.15401" lon="-3.80611">
        <ele>580.8</ele>
        <time>2022-12-31 08:04:20</time>
      </trkpt>
      <trkpt lat="40.15398" lon="-3.80615">
        <ele>581</ele>
        <time>2022-12-31 08:04:21</time>
      </trkpt>
      <trkpt lat="40.15395" lon="-3.80618">
        <ele>580.8</ele>
        <time>2022-12-31 08:04:22</time>
      </trkpt>
      <trkpt lat="40.15392" lon="-3.80622">
        <ele>581</ele>
        <time>2022-12-31 08:04:23</time>
      </trkpt>
      <trkpt lat="40.15389" lon="-3.80625">
        <ele>581</ele>
        <time>2022-12-31 08:04:24</time>
      </trkpt>
      <trkpt lat="40.15386" lon="-3.80629">
        <ele>581.2</ele>
        <time>2022-12-31 08:04:25</time>
      </trkpt>
      <trkpt lat="40.15383" lon="-3.80632">
        <ele>581.2</ele>
        <time>2022-12-31 08:04:26</time>
      </trkpt>
      <trkpt lat="40.1538" lon="-3.80635">
        <ele>581</ele>
        <time>2022-12-31 08:04:27</time>
      </trkpt>
      <trkpt lat="40.15377" lon="-3.80638">
        <ele>581.2</ele>
        <time>2022-12-31 08:04:28</time>
      </trkpt>
      <trkpt lat="40.15374" lon="-3.80641">
        <ele>581</ele>
        <time>2022-12-31 08:04:29</time>
      </trkpt>
      <trkpt lat="40.15371" lon="-3.80645">
        <ele>581.2</ele>
        <time>2022-12-31 08:04:30</time>
      </trkpt>
      <trkpt lat="40.15368" lon="-3.80648">
        <ele>581.2</ele>
        <time>2022-12-31 08:04:31</time>
      </trkpt>
      <trkpt lat="40.15365" lon="-3.80652">
        <ele>581.4</ele>
        <time>2022-12-31 08:04:32</time>
      </trkpt>
      <trkpt lat="40.15363" lon="-3.80655">
        <ele>581.4</ele>
        <time>2022-12-31 08:04:33</time>
      </trkpt>
      <trkpt lat="40.1536" lon="-3.80659">
        <ele>581.6</ele>
        <time>2022-12-31 08:04:34</time>
      </trkpt>
      <trkpt lat="40.15357" lon="-3.80662">
        <ele>581.6</ele>
        <time>2022-12-31 08:04:35</time>
      </trkpt>
      <trkpt lat="40.15354" lon="-3.80666">
        <ele>581.8</ele>
        <time>2022-12-31 08:04:36</time>
      </trkpt>
      <trkpt lat="40.15351" lon="-3.8067">
        <ele>581.8</ele>
        <time>2022-12-31 08:04:37</time>
      </trkpt>
      <trkpt lat="40.15349" lon="-3.80674">
        <ele>581.8</ele>
        <time>2022-12-31 08:04:38</time>
      </trkpt>
      <trkpt lat="40.15345" lon="-3.80678">
        <ele>582</ele>
        <time>2022-12-31 08:04:39</time>
      </trkpt>
      <trkpt lat="40.15342" lon="-3.80682">
        <ele>582.2</ele>
        <time>2022-12-31 08:04:40</time>
      </trkpt>
      <trkpt lat="40.15339" lon="-3.80686">
        <ele>582.4</ele>
        <time>2022-12-31 08:04:41</time>
      </trkpt>
      <trkpt lat="40.15336" lon="-3.8069">
        <ele>582.4</ele>
        <time>2022-12-31 08:04:42</time>
      </trkpt>
      <trkpt lat="40.15333" lon="-3.80693">
        <ele>582.4</ele>
        <time>2022-12-31 08:04:43</time>
      </trkpt>
      <trkpt lat="40.1533" lon="-3.80697">
        <ele>582.4</ele>
        <time>2022-12-31 08:04:44</time>
      </trkpt>
      <trkpt lat="40.15327" lon="-3.807">
        <ele>582.8</ele>
        <time>2022-12-31 08:04:45</time>
      </trkpt>
      <trkpt lat="40.15325" lon="-3.80704">
        <ele>582.8</ele>
        <time>2022-12-31 08:04:46</time>
      </trkpt>
      <trkpt lat="40.15322" lon="-3.80707">
        <ele>582.8</ele>
        <time>2022-12-31 08:04:47</time>
      </trkpt>
      <trkpt lat="40.15319" lon="-3.8071">
        <ele>582.8</ele>
        <time>2022-12-31 08:04:48</time>
      </trkpt>
      <trkpt lat="40.15316" lon="-3.80714">
        <ele>583</ele>
        <time>2022-12-31 08:04:49</time>
      </trkpt>
      <trkpt lat="40.15313" lon="-3.80717">
        <ele>583.4</ele>
        <time>2022-12-31 08:04:50</time>
      </trkpt>
      <trkpt lat="40.1531" lon="-3.80721">
        <ele>583.4</ele>
        <time>2022-12-31 08:04:51</time>
      </trkpt>
      <trkpt lat="40.15307" lon="-3.80725">
        <ele>583.6</ele>
        <time>2022-12-31 08:04:52</time>
      </trkpt>
      <trkpt lat="40.15303" lon="-3.80728">
        <ele>584.2</ele>
        <time>2022-12-31 08:04:53</time>
      </trkpt>
      <trkpt lat="40.153" lon="-3.80732">
        <ele>584.2</ele>
        <time>2022-12-31 08:04:54</time>
      </trkpt>
      <trkpt lat="40.15297" lon="-3.80736">
        <ele>584.2</ele>
        <time>2022-12-31 08:04:55</time>
      </trkpt>
      <trkpt lat="40.15294" lon="-3.80739">
        <ele>584.8</ele>
        <time>2022-12-31 08:04:56</time>
      </trkpt>
      <trkpt lat="40.1529" lon="-3.80743">
        <ele>585</ele>
        <time>2022-12-31 08:04:57</time>
      </trkpt>
      <trkpt lat="40.15287" lon="-3.80747">
        <ele>585.4</ele>
        <time>2022-12-31 08:04:58</time>
      </trkpt>
      <trkpt lat="40.15283" lon="-3.8075">
        <ele>585.6</ele>
        <time>2022-12-31 08:04:59</time>
      </trkpt>
      <trkpt lat="40.15279" lon="-3.80754">
        <ele>586</ele>
        <time>2022-12-31 08:05:00</time>
      </trkpt>
      <trkpt lat="40.15275" lon="-3.80757">
        <ele>586</ele>
        <time>2022-12-31 08:05:01</time>
      </trkpt>
      <trkpt lat="40.15272" lon="-3.80761">
        <ele>586.2</ele>
        <time>2022-12-31 08:05:02</time>
      </trkpt>
      <trkpt lat="40.15268" lon="-3.80764">
        <ele>586.4</ele>
        <time>2022-12-31 08:05:03</time>
      </trkpt>
      <trkpt lat="40.15264" lon="-3.80768">
        <ele>586.8</ele>
        <time>2022-12-31 08:05:04</time>
      </trkpt>
      <trkpt lat="40.15261" lon="-3.80771">
        <ele>587</ele>
        <time>2022-12-31 08:05:05</time>
      </trkpt>
      <trkpt lat="40.15256" lon="-3.80774">
        <ele>587.2</ele>
        <time>2022-12-31 08:05:06</time>
      </trkpt>
      <trkpt lat="40.15252" lon="-3.80778">
        <ele>587.2</ele>
        <time>2022-12-31 08:05:07</time>
      </trkpt>
      <trkpt lat="40.15248" lon="-3.80781">
        <ele>587.2</ele>
        <time>2022-12-31 08:05:08</time>
      </trkpt>
      <trkpt lat="40.15244" lon="-3.80784">
        <ele>587.4</ele>
        <time>2022-12-31 08:05:09</time>
      </trkpt>
      <trkpt lat="40.15239" lon="-3.80788">
        <ele>587.4</ele>
        <time>2022-12-31 08:05:10</time>
      </trkpt>
      <trkpt lat="40.15235" lon="-3.80792">
        <ele>587.4</ele>
        <time>2022-12-31 08:05:11</time>
      </trkpt>
      <trkpt lat="40.15231" lon="-3.80796">
        <ele>587.6</ele>
        <time>2022-12-31 08:05:12</time>
      </trkpt>
      <trkpt lat="40.15226" lon="-3.808">
        <ele>587.6</ele>
        <time>2022-12-31 08:05:13</time>
      </trkpt>
      <trkpt lat="40.15222" lon="-3.80804">
        <ele>587.8</ele>
        <time>2022-12-31 08:05:14</time>
      </trkpt>
      <trkpt lat="40.15218" lon="-3.80808">
        <ele>588</ele>
        <time>2022-12-31 08:05:15</time>
      </trkpt>
      <trkpt lat="40.15214" lon="-3.80813">
        <ele>588</ele>
        <time>2022-12-31 08:05:16</time>
      </trkpt>
      <trkpt lat="40.15209" lon="-3.80817">
        <ele>588.4</ele>
        <time>2022-12-31 08:05:17</time>
      </trkpt>
      <trkpt lat="40.15205" lon="-3.80821">
        <ele>588.6</ele>
        <time>2022-12-31 08:05:18</time>
      </trkpt>
      <trkpt lat="40.15201" lon="-3.80825">
        <ele>588.6</ele>
        <time>2022-12-31 08:05:19</time>
      </trkpt>
      <trkpt lat="40.15196" lon="-3.80829">
        <ele>589</ele>
        <time>2022-12-31 08:05:20</time>
      </trkpt>
      <trkpt lat="40.15192" lon="-3.80834">
        <ele>589</ele>
        <time>2022-12-31 08:05:21</time>
      </trkpt>
      <trkpt lat="40.15188" lon="-3.80838">
        <ele>589</ele>
        <time>2022-12-31 08:05:22</time>
      </trkpt>
      <trkpt lat="40.15184" lon="-3.80843">
        <ele>589</ele>
        <time>2022-12-31 08:05:23</time>
      </trkpt>
      <trkpt lat="40.1518" lon="-3.80847">
        <ele>589.2</ele>
        <time>2022-12-31 08:05:24</time>
      </trkpt>
      <trkpt lat="40.15176" lon="-3.80851">
        <ele>589.4</ele>
        <time>2022-12-31 08:05:25</time>
      </trkpt>
      <trkpt lat="40.15172" lon="-3.80855">
        <ele>589.2</ele>
        <time>2022-12-31 08:05:26</time>
      </trkpt>
      <trkpt lat="40.15167" lon="-3.8086">
        <ele>589.6</ele>
        <time>2022-12-31 08:05:27</time>
      </trkpt>
      <trkpt lat="40.15163" lon="-3.80864">
        <ele>589.6</ele>
        <time>2022-12-31 08:05:28</time>
      </trkpt>
      <trkpt lat="40.15159" lon="-3.80869">
        <ele>589.6</ele>
        <time>2022-12-31 08:05:29</time>
      </trkpt>
      <trkpt lat="40.15155" lon="-3.80874">
        <ele>589.8</ele>
        <time>2022-12-31 08:05:30</time>
      </trkpt>
      <trkpt lat="40.15151" lon="-3.80878">
        <ele>589.8</ele>
        <time>2022-12-31 08:05:31</time>
      </trkpt>
      <trkpt lat="40.15146" lon="-3.80883">
        <ele>589.8</ele>
        <time>2022-12-31 08:05:32</time>
      </trkpt>
      <trkpt lat="40.15142" lon="-3.80888">
        <ele>590</ele>
        <time>2022-12-31 08:05:33</time>
      </trkpt>
      <trkpt lat="40.15138" lon="-3.80893">
        <ele>590</ele>
        <time>2022-12-31 08:05:34</time>
      </trkpt>
      <trkpt lat="40.15135" lon="-3.80898">
        <ele>590.2</ele>
        <time>2022-12-31 08:05:35</time>
      </trkpt>
      <trkpt lat="40.15131" lon="-3.80903">
        <ele>590.6</ele>
        <time>2022-12-31 08:05:36</time>
      </trkpt>
      <trkpt lat="40.15127" lon="-3.80907">
        <ele>590.6</ele>
        <time>2022-12-31 08:05:37</time>
      </trkpt>
      <trkpt lat="40.15123" lon="-3.80912">
        <ele>590.8</ele>
        <time>2022-12-31 08:05:38</time>
      </trkpt>
      <trkpt lat="40.15119" lon="-3.80916">
        <ele>591.2</ele>
        <time>2022-12-31 08:05:39</time>
      </trkpt>
      <trkpt lat="40.15115" lon="-3.8092">
        <ele>591.4</ele>
        <time>2022-12-31 08:05:40</time>
      </trkpt>
      <trkpt lat="40.1511" lon="-3.80925">
        <ele>591.4</ele>
        <time>2022-12-31 08:05:41</time>
      </trkpt>
      <trkpt lat="40.15106" lon="-3.80929">
        <ele>591.6</ele>
        <time>2022-12-31 08:05:42</time>
      </trkpt>
      <trkpt lat="40.15102" lon="-3.80933">
        <ele>591.6</ele>
        <time>2022-12-31 08:05:43</time>
      </trkpt>
      <trkpt lat="40.15098" lon="-3.80938">
        <ele>591.6</ele>
        <time>2022-12-31 08:05:44</time>
      </trkpt>
      <trkpt lat="40.15094" lon="-3.80942">
        <ele>591.8</ele>
        <time>2022-12-31 08:05:45</time>
      </trkpt>
      <trkpt lat="40.15089" lon="-3.80946">
        <ele>592</ele>
        <time>2022-12-31 08:05:46</time>
      </trkpt>
      <trkpt lat="40.15085" lon="-3.8095">
        <ele>592</ele>
        <time>2022-12-31 08:05:47</time>
      </trkpt>
      <trkpt lat="40.15081" lon="-3.80954">
        <ele>592.2</ele>
        <time>2022-12-31 08:05:48</time>
      </trkpt>
      <trkpt lat="40.15076" lon="-3.80959">
        <ele>592.4</ele>
        <time>2022-12-31 08:05:49</time>
      </trkpt>
      <trkpt lat="40.15071" lon="-3.80964">
        <ele>592.4</ele>
        <time>2022-12-31 08:05:50</time>
      </trkpt>
      <trkpt lat="40.15066" lon="-3.80969">
        <ele>592.8</ele>
        <time>2022-12-31 08:05:51</time>
      </trkpt>
      <trkpt lat="40.1506" lon="-3.80974">
        <ele>592.8</ele>
        <time>2022-12-31 08:05:52</time>
      </trkpt>
      <trkpt lat="40.15054" lon="-3.80979">
        <ele>592.8</ele>
        <time>2022-12-31 08:05:53</time>
      </trkpt>
      <trkpt lat="40.15048" lon="-3.80985">
        <ele>593</ele>
        <time>2022-12-31 08:05:54</time>
      </trkpt>
      <trkpt lat="40.15042" lon="-3.80991">
        <ele>593</ele>
        <time>2022-12-31 08:05:55</time>
      </trkpt>
      <trkpt lat="40.15036" lon="-3.80997">
        <ele>593</ele>
        <time>2022-12-31 08:05:56</time>
      </trkpt>
      <trkpt lat="40.1503" lon="-3.81003">
        <ele>593</ele>
        <time>2022-12-31 08:05:57</time>
      </trkpt>
      <trkpt lat="40.15024" lon="-3.81009">
        <ele>593</ele>
        <time>2022-12-31 08:05:58</time>
      </trkpt>
      <trkpt lat="40.15017" lon="-3.81014">
        <ele>593</ele>
        <time>2022-12-31 08:05:59</time>
      </trkpt>
      <trkpt lat="40.15011" lon="-3.8102">
        <ele>593</ele>
        <time>2022-12-31 08:06:00</time>
      </trkpt>
      <trkpt lat="40.15004" lon="-3.81025">
        <ele>592.8</ele>
        <time>2022-12-31 08:06:01</time>
      </trkpt>
      <trkpt lat="40.14998" lon="-3.8103">
        <ele>592.8</ele>
        <time>2022-12-31 08:06:02</time>
      </trkpt>
      <trkpt lat="40.14991" lon="-3.81034">
        <ele>592.6</ele>
        <time>2022-12-31 08:06:03</time>
      </trkpt>
      <trkpt lat="40.14984" lon="-3.81038">
        <ele>591.8</ele>
        <time>2022-12-31 08:06:04</time>
      </trkpt>
      <trkpt lat="40.14977" lon="-3.81042">
        <ele>591.6</ele>
        <time>2022-12-31 08:06:05</time>
      </trkpt>
      <trkpt lat="40.1497" lon="-3.81046">
        <ele>591.4</ele>
        <time>2022-12-31 08:06:06</time>
      </trkpt>
      <trkpt lat="40.14964" lon="-3.81051">
        <ele>591.2</ele>
        <time>2022-12-31 08:06:07</time>
      </trkpt>
      <trkpt lat="40.14957" lon="-3.81054">
        <ele>590.8</ele>
        <time>2022-12-31 08:06:08</time>
      </trkpt>
      <trkpt lat="40.1495" lon="-3.81057">
        <ele>590.6</ele>
        <time>2022-12-31 08:06:09</time>
      </trkpt>
      <trkpt lat="40.14942" lon="-3.81059">
        <ele>590.6</ele>
        <time>2022-12-31 08:06:10</time>
      </trkpt>
      <trkpt lat="40.14935" lon="-3.8106">
        <ele>590.4</ele>
        <time>2022-12-31 08:06:11</time>
      </trkpt>
      <trkpt lat="40.14927" lon="-3.81061">
        <ele>590.4</ele>
        <time>2022-12-31 08:06:12</time>
      </trkpt>
      <trkpt lat="40.1492" lon="-3.81062">
        <ele>590.4</ele>
        <time>2022-12-31 08:06:13</time>
      </trkpt>
      <trkpt lat="40.14913" lon="-3.81063">
        <ele>590.2</ele>
        <time>2022-12-31 08:06:14</time>
      </trkpt>
      <trkpt lat="40.14906" lon="-3.81066">
        <ele>590.2</ele>
        <time>2022-12-31 08:06:15</time>
      </trkpt>
      <trkpt lat="40.14899" lon="-3.81069">
        <ele>590.2</ele>
        <time>2022-12-31 08:06:16</time>
      </trkpt>
      <trkpt lat="40.14893" lon="-3.81073">
        <ele>590.2</ele>
        <time>2022-12-31 08:06:17</time>
      </trkpt>
      <trkpt lat="40.14887" lon="-3.81078">
        <ele>589.8</ele>
        <time>2022-12-31 08:06:18</time>
      </trkpt>
      <trkpt lat="40.14881" lon="-3.81083">
        <ele>589.6</ele>
        <time>2022-12-31 08:06:19</time>
      </trkpt>
      <trkpt lat="40.14876" lon="-3.81088">
        <ele>589.2</ele>
        <time>2022-12-31 08:06:20</time>
      </trkpt>
      <trkpt lat="40.14872" lon="-3.81093">
        <ele>589.2</ele>
        <time>2022-12-31 08:06:21</time>
      </trkpt>
      <trkpt lat="40.14868" lon="-3.81097">
        <ele>589.2</ele>
        <time>2022-12-31 08:06:22</time>
      </trkpt>
      <trkpt lat="40.14864" lon="-3.811">
        <ele>589.2</ele>
        <time>2022-12-31 08:06:23</time>
      </trkpt>
      <trkpt lat="40.1486" lon="-3.81104">
        <ele>589</ele>
        <time>2022-12-31 08:06:24</time>
      </trkpt>
      <trkpt lat="40.14857" lon="-3.81106">
        <ele>589.2</ele>
        <time>2022-12-31 08:06:25</time>
      </trkpt>
      <trkpt lat="40.14855" lon="-3.81109">
        <ele>589</ele>
        <time>2022-12-31 08:06:26</time>
      </trkpt>
      <trkpt lat="40.14852" lon="-3.81112">
        <ele>589.2</ele>
        <time>2022-12-31 08:06:27</time>
      </trkpt>
      <trkpt lat="40.1485" lon="-3.81113">
        <ele>589</ele>
        <time>2022-12-31 08:06:28</time>
      </trkpt>
      <trkpt lat="40.14848" lon="-3.81113">
        <ele>589</ele>
        <time>2022-12-31 08:06:29</time>
      </trkpt>
      <trkpt lat="40.14845" lon="-3.81112">
        <ele>589.2</ele>
        <time>2022-12-31 08:06:30</time>
      </trkpt>
      <trkpt lat="40.14842" lon="-3.8111">
        <ele>589.2</ele>
        <time>2022-12-31 08:06:31</time>
      </trkpt>
      <trkpt lat="40.14839" lon="-3.81108">
        <ele>589.4</ele>
        <time>2022-12-31 08:06:32</time>
      </trkpt>
      <trkpt lat="40.14835" lon="-3.81106">
        <ele>589.2</ele>
        <time>2022-12-31 08:06:33</time>
      </trkpt>
      <trkpt lat="40.14831" lon="-3.81104">
        <ele>589.4</ele>
        <time>2022-12-31 08:06:34</time>
      </trkpt>
      <trkpt lat="40.14826" lon="-3.81103">
        <ele>589.4</ele>
        <time>2022-12-31 08:06:35</time>
      </trkpt>
      <trkpt lat="40.14821" lon="-3.81103">
        <ele>589.6</ele>
        <time>2022-12-31 08:06:36</time>
      </trkpt>
      <trkpt lat="40.14816" lon="-3.81104">
        <ele>589.4</ele>
        <time>2022-12-31 08:06:37</time>
      </trkpt>
      <trkpt lat="40.14811" lon="-3.81105">
        <ele>589.4</ele>
        <time>2022-12-31 08:06:38</time>
      </trkpt>
      <trkpt lat="40.14806" lon="-3.81107">
        <ele>589.6</ele>
        <time>2022-12-31 08:06:39</time>
      </trkpt>
      <trkpt lat="40.14801" lon="-3.8111">
        <ele>589.6</ele>
        <time>2022-12-31 08:06:40</time>
      </trkpt>
      <trkpt lat="40.14796" lon="-3.81113">
        <ele>589.4</ele>
        <time>2022-12-31 08:06:41</time>
      </trkpt>
      <trkpt lat="40.14791" lon="-3.81117">
        <ele>589.6</ele>
        <time>2022-12-31 08:06:42</time>
      </trkpt>
      <trkpt lat="40.14786" lon="-3.8112">
        <ele>589.4</ele>
        <time>2022-12-31 08:06:43</time>
      </trkpt>
      <trkpt lat="40.14781" lon="-3.81123">
        <ele>589.4</ele>
        <time>2022-12-31 08:06:44</time>
      </trkpt>
      <trkpt lat="40.14776" lon="-3.81127">
        <ele>589.4</ele>
        <time>2022-12-31 08:06:45</time>
      </trkpt>
      <trkpt lat="40.14771" lon="-3.8113">
        <ele>589.4</ele>
        <time>2022-12-31 08:06:46</time>
      </trkpt>
      <trkpt lat="40.14765" lon="-3.81134">
        <ele>589.2</ele>
        <time>2022-12-31 08:06:47</time>
      </trkpt>
      <trkpt lat="40.1476" lon="-3.81137">
        <ele>589</ele>
        <time>2022-12-31 08:06:48</time>
      </trkpt>
      <trkpt lat="40.14755" lon="-3.8114">
        <ele>589</ele>
        <time>2022-12-31 08:06:49</time>
      </trkpt>
      <trkpt lat="40.1475" lon="-3.81143">
        <ele>589</ele>
        <time>2022-12-31 08:06:50</time>
      </trkpt>
      <trkpt lat="40.14744" lon="-3.81146">
        <ele>588.8</ele>
        <time>2022-12-31 08:06:51</time>
      </trkpt>
      <trkpt lat="40.14739" lon="-3.8115">
        <ele>588.8</ele>
        <time>2022-12-31 08:06:52</time>
      </trkpt>
      <trkpt lat="40.14734" lon="-3.81153">
        <ele>588.8</ele>
        <time>2022-12-31 08:06:53</time>
      </trkpt>
      <trkpt lat="40.14728" lon="-3.81156">
        <ele>588.6</ele>
        <time>2022-12-31 08:06:54</time>
      </trkpt>
      <trkpt lat="40.14723" lon="-3.81159">
        <ele>588.6</ele>
        <time>2022-12-31 08:06:55</time>
      </trkpt>
      <trkpt lat="40.14717" lon="-3.81162">
        <ele>588.6</ele>
        <time>2022-12-31 08:06:56</time>
      </trkpt>
      <trkpt lat="40.14711" lon="-3.81164">
        <ele>588.6</ele>
        <time>2022-12-31 08:06:57</time>
      </trkpt>
      <trkpt lat="40.14705" lon="-3.81166">
        <ele>588.6</ele>
        <time>2022-12-31 08:06:58</time>
      </trkpt>
      <trkpt lat="40.14699" lon="-3.81168">
        <ele>588.4</ele>
        <time>2022-12-31 08:06:59</time>
      </trkpt>
      <trkpt lat="40.14693" lon="-3.8117">
        <ele>588.4</ele>
        <time>2022-12-31 08:07:00</time>
      </trkpt>
      <trkpt lat="40.14686" lon="-3.81172">
        <ele>588.4</ele>
        <time>2022-12-31 08:07:01</time>
      </trkpt>
      <trkpt lat="40.1468" lon="-3.81174">
        <ele>588.4</ele>
        <time>2022-12-31 08:07:02</time>
      </trkpt>
      <trkpt lat="40.14674" lon="-3.81176">
        <ele>588.2</ele>
        <time>2022-12-31 08:07:03</time>
      </trkpt>
      <trkpt lat="40.14668" lon="-3.81178">
        <ele>588.2</ele>
        <time>2022-12-31 08:07:04</time>
      </trkpt>
      <trkpt lat="40.14662" lon="-3.8118">
        <ele>588.4</ele>
        <time>2022-12-31 08:07:05</time>
      </trkpt>
      <trkpt lat="40.14657" lon="-3.81182">
        <ele>588.2</ele>
        <time>2022-12-31 08:07:06</time>
      </trkpt>
      <trkpt lat="40.14651" lon="-3.81184">
        <ele>588.2</ele>
        <time>2022-12-31 08:07:07</time>
      </trkpt>
      <trkpt lat="40.14645" lon="-3.81186">
        <ele>588.2</ele>
        <time>2022-12-31 08:07:08</time>
      </trkpt>
      <trkpt lat="40.1464" lon="-3.81188">
        <ele>588.2</ele>
        <time>2022-12-31 08:07:09</time>
      </trkpt>
      <trkpt lat="40.14634" lon="-3.81189">
        <ele>588</ele>
        <time>2022-12-31 08:07:10</time>
      </trkpt>
      <trkpt lat="40.14628" lon="-3.81189">
        <ele>588</ele>
        <time>2022-12-31 08:07:11</time>
      </trkpt>
      <trkpt lat="40.14622" lon="-3.81189">
        <ele>588</ele>
        <time>2022-12-31 08:07:12</time>
      </trkpt>
      <trkpt lat="40.14615" lon="-3.81189">
        <ele>587.8</ele>
        <time>2022-12-31 08:07:13</time>
      </trkpt>
      <trkpt lat="40.14609" lon="-3.81188">
        <ele>587.8</ele>
        <time>2022-12-31 08:07:14</time>
      </trkpt>
      <trkpt lat="40.14603" lon="-3.81187">
        <ele>587.8</ele>
        <time>2022-12-31 08:07:15</time>
      </trkpt>
      <trkpt lat="40.14596" lon="-3.81185">
        <ele>587.8</ele>
        <time>2022-12-31 08:07:16</time>
      </trkpt>
      <trkpt lat="40.1459" lon="-3.81183">
        <ele>587.8</ele>
        <time>2022-12-31 08:07:17</time>
      </trkpt>
      <trkpt lat="40.14585" lon="-3.81181">
        <ele>587.8</ele>
        <time>2022-12-31 08:07:18</time>
      </trkpt>
      <trkpt lat="40.14579" lon="-3.81179">
        <ele>587.8</ele>
        <time>2022-12-31 08:07:19</time>
      </trkpt>
      <trkpt lat="40.14574" lon="-3.81176">
        <ele>587.8</ele>
        <time>2022-12-31 08:07:20</time>
      </trkpt>
      <trkpt lat="40.14569" lon="-3.81173">
        <ele>587.8</ele>
        <time>2022-12-31 08:07:21</time>
      </trkpt>
      <trkpt lat="40.14564" lon="-3.81171">
        <ele>587.8</ele>
        <time>2022-12-31 08:07:22</time>
      </trkpt>
      <trkpt lat="40.14559" lon="-3.81169">
        <ele>587.8</ele>
        <time>2022-12-31 08:07:23</time>
      </trkpt>
      <trkpt lat="40.14554" lon="-3.81166">
        <ele>587.8</ele>
        <time>2022-12-31 08:07:24</time>
      </trkpt>
      <trkpt lat="40.14549" lon="-3.81164">
        <ele>588</ele>
        <time>2022-12-31 08:07:25</time>
      </trkpt>
      <trkpt lat="40.14545" lon="-3.81161">
        <ele>588</ele>
        <time>2022-12-31 08:07:26</time>
      </trkpt>
      <trkpt lat="40.1454" lon="-3.81158">
        <ele>588.2</ele>
        <time>2022-12-31 08:07:27</time>
      </trkpt>
      <trkpt lat="40.14536" lon="-3.81155">
        <ele>588.4</ele>
        <time>2022-12-31 08:07:28</time>
      </trkpt>
      <trkpt lat="40.14531" lon="-3.81152">
        <ele>588.2</ele>
        <time>2022-12-31 08:07:29</time>
      </trkpt>
      <trkpt lat="40.14527" lon="-3.8115">
        <ele>588.2</ele>
        <time>2022-12-31 08:07:30</time>
      </trkpt>
      <trkpt lat="40.14523" lon="-3.81147">
        <ele>588.4</ele>
        <time>2022-12-31 08:07:31</time>
      </trkpt>
      <trkpt lat="40.14518" lon="-3.81144">
        <ele>588.6</ele>
        <time>2022-12-31 08:07:32</time>
      </trkpt>
      <trkpt lat="40.14514" lon="-3.8114">
        <ele>588.8</ele>
        <time>2022-12-31 08:07:33</time>
      </trkpt>
      <trkpt lat="40.1451" lon="-3.81137">
        <ele>589</ele>
        <time>2022-12-31 08:07:34</time>
      </trkpt>
      <trkpt lat="40.14506" lon="-3.81133">
        <ele>589</ele>
        <time>2022-12-31 08:07:35</time>
      </trkpt>
      <trkpt lat="40.14502" lon="-3.81129">
        <ele>589.4</ele>
        <time>2022-12-31 08:07:36</time>
      </trkpt>
      <trkpt lat="40.14498" lon="-3.81126">
        <ele>589.8</ele>
        <time>2022-12-31 08:07:37</time>
      </trkpt>
      <trkpt lat="40.14494" lon="-3.81122">
        <ele>589.8</ele>
        <time>2022-12-31 08:07:38</time>
      </trkpt>
      <trkpt lat="40.1449" lon="-3.81118">
        <ele>590.2</ele>
        <time>2022-12-31 08:07:39</time>
      </trkpt>
      <trkpt lat="40.14486" lon="-3.81114">
        <ele>590.4</ele>
        <time>2022-12-31 08:07:40</time>
      </trkpt>
      <trkpt lat="40.14482" lon="-3.8111">
        <ele>590.6</ele>
        <time>2022-12-31 08:07:41</time>
      </trkpt>
      <trkpt lat="40.14478" lon="-3.81106">
        <ele>591</ele>
        <time>2022-12-31 08:07:42</time>
      </trkpt>
      <trkpt lat="40.14473" lon="-3.81102">
        <ele>591</ele>
        <time>2022-12-31 08:07:43</time>
      </trkpt>
      <trkpt lat="40.14469" lon="-3.81098">
        <ele>591.2</ele>
        <time>2022-12-31 08:07:44</time>
      </trkpt>
      <trkpt lat="40.14463" lon="-3.81095">
        <ele>591.2</ele>
        <time>2022-12-31 08:07:45</time>
      </trkpt>
      <trkpt lat="40.14458" lon="-3.81093">
        <ele>591.4</ele>
        <time>2022-12-31 08:07:46</time>
      </trkpt>
      <trkpt lat="40.14453" lon="-3.8109">
        <ele>591.4</ele>
        <time>2022-12-31 08:07:47</time>
      </trkpt>
      <trkpt lat="40.14447" lon="-3.81087">
        <ele>591.4</ele>
        <time>2022-12-31 08:07:48</time>
      </trkpt>
      <trkpt lat="40.14441" lon="-3.81083">
        <ele>591.4</ele>
        <time>2022-12-31 08:07:49</time>
      </trkpt>
      <trkpt lat="40.14435" lon="-3.8108">
        <ele>591.2</ele>
        <time>2022-12-31 08:07:50</time>
      </trkpt>
      <trkpt lat="40.14429" lon="-3.81076">
        <ele>591.2</ele>
        <time>2022-12-31 08:07:51</time>
      </trkpt>
      <trkpt lat="40.14422" lon="-3.81072">
        <ele>591.4</ele>
        <time>2022-12-31 08:07:52</time>
      </trkpt>
      <trkpt lat="40.14416" lon="-3.81068">
        <ele>591.4</ele>
        <time>2022-12-31 08:07:53</time>
      </trkpt>
      <trkpt lat="40.14409" lon="-3.81064">
        <ele>591.2</ele>
        <time>2022-12-31 08:07:54</time>
      </trkpt>
      <trkpt lat="40.14403" lon="-3.81059">
        <ele>591.2</ele>
        <time>2022-12-31 08:07:55</time>
      </trkpt>
      <trkpt lat="40.14396" lon="-3.81055">
        <ele>590.8</ele>
        <time>2022-12-31 08:07:56</time>
      </trkpt>
      <trkpt lat="40.1439" lon="-3.8105">
        <ele>590.6</ele>
        <time>2022-12-31 08:07:57</time>
      </trkpt>
      <trkpt lat="40.14383" lon="-3.81045">
        <ele>590.2</ele>
        <time>2022-12-31 08:07:58</time>
      </trkpt>
      <trkpt lat="40.14377" lon="-3.81039">
        <ele>590</ele>
        <time>2022-12-31 08:07:59</time>
      </trkpt>
      <trkpt lat="40.1437" lon="-3.81034">
        <ele>589.8</ele>
        <time>2022-12-31 08:08:00</time>
      </trkpt>
      <trkpt lat="40.14364" lon="-3.81028">
        <ele>589.2</ele>
        <time>2022-12-31 08:08:01</time>
      </trkpt>
      <trkpt lat="40.14358" lon="-3.81023">
        <ele>588.8</ele>
        <time>2022-12-31 08:08:02</time>
      </trkpt>
      <trkpt lat="40.14351" lon="-3.81017">
        <ele>588.6</ele>
        <time>2022-12-31 08:08:03</time>
      </trkpt>
      <trkpt lat="40.14344" lon="-3.81012">
        <ele>588.2</ele>
        <time>2022-12-31 08:08:04</time>
      </trkpt>
      <trkpt lat="40.14338" lon="-3.81007">
        <ele>587.6</ele>
        <time>2022-12-31 08:08:05</time>
      </trkpt>
      <trkpt lat="40.14332" lon="-3.81002">
        <ele>587.4</ele>
        <time>2022-12-31 08:08:06</time>
      </trkpt>
      <trkpt lat="40.14325" lon="-3.80996">
        <ele>587</ele>
        <time>2022-12-31 08:08:07</time>
      </trkpt>
      <trkpt lat="40.14319" lon="-3.80991">
        <ele>587</ele>
        <time>2022-12-31 08:08:08</time>
      </trkpt>
      <trkpt lat="40.14313" lon="-3.80986">
        <ele>586.6</ele>
        <time>2022-12-31 08:08:09</time>
      </trkpt>
      <trkpt lat="40.14307" lon="-3.80981">
        <ele>586.6</ele>
        <time>2022-12-31 08:08:10</time>
      </trkpt>
      <trkpt lat="40.14301" lon="-3.80976">
        <ele>586.6</ele>
        <time>2022-12-31 08:08:11</time>
      </trkpt>
      <trkpt lat="40.14295" lon="-3.80971">
        <ele>586.6</ele>
        <time>2022-12-31 08:08:12</time>
      </trkpt>
      <trkpt lat="40.14289" lon="-3.80966">
        <ele>586.6</ele>
        <time>2022-12-31 08:08:13</time>
      </trkpt>
      <trkpt lat="40.14283" lon="-3.80961">
        <ele>586.4</ele>
        <time>2022-12-31 08:08:14</time>
      </trkpt>
      <trkpt lat="40.14277" lon="-3.80956">
        <ele>586.4</ele>
        <time>2022-12-31 08:08:15</time>
      </trkpt>
      <trkpt lat="40.14271" lon="-3.80952">
        <ele>586.4</ele>
        <time>2022-12-31 08:08:16</time>
      </trkpt>
      <trkpt lat="40.14264" lon="-3.80949">
        <ele>586.6</ele>
        <time>2022-12-31 08:08:17</time>
      </trkpt>
      <trkpt lat="40.14258" lon="-3.80946">
        <ele>586.4</ele>
        <time>2022-12-31 08:08:18</time>
      </trkpt>
      <trkpt lat="40.14251" lon="-3.80943">
        <ele>586.4</ele>
        <time>2022-12-31 08:08:19</time>
      </trkpt>
      <trkpt lat="40.14245" lon="-3.80941">
        <ele>586.6</ele>
        <time>2022-12-31 08:08:20</time>
      </trkpt>
      <trkpt lat="40.14238" lon="-3.80939">
        <ele>586.6</ele>
        <time>2022-12-31 08:08:21</time>
      </trkpt>
      <trkpt lat="40.14232" lon="-3.80937">
        <ele>586.8</ele>
        <time>2022-12-31 08:08:22</time>
      </trkpt>
      <trkpt lat="40.14226" lon="-3.80936">
        <ele>587</ele>
        <time>2022-12-31 08:08:23</time>
      </trkpt>
      <trkpt lat="40.14219" lon="-3.80934">
        <ele>587.2</ele>
        <time>2022-12-31 08:08:24</time>
      </trkpt>
      <trkpt lat="40.14213" lon="-3.80933">
        <ele>587.2</ele>
        <time>2022-12-31 08:08:25</time>
      </trkpt>
      <trkpt lat="40.14207" lon="-3.80932">
        <ele>587.4</ele>
        <time>2022-12-31 08:08:26</time>
      </trkpt>
      <trkpt lat="40.142" lon="-3.80931">
        <ele>587.2</ele>
        <time>2022-12-31 08:08:27</time>
      </trkpt>
      <trkpt lat="40.14194" lon="-3.8093">
        <ele>587.2</ele>
        <time>2022-12-31 08:08:28</time>
      </trkpt>
      <trkpt lat="40.14188" lon="-3.80929">
        <ele>587.2</ele>
        <time>2022-12-31 08:08:29</time>
      </trkpt>
      <trkpt lat="40.14181" lon="-3.80927">
        <ele>587.4</ele>
        <time>2022-12-31 08:08:30</time>
      </trkpt>
      <trkpt lat="40.14175" lon="-3.80926">
        <ele>587.6</ele>
        <time>2022-12-31 08:08:31</time>
      </trkpt>
      <trkpt lat="40.14169" lon="-3.80924">
        <ele>587.8</ele>
        <time>2022-12-31 08:08:32</time>
      </trkpt>
      <trkpt lat="40.14163" lon="-3.80923">
        <ele>588.2</ele>
        <time>2022-12-31 08:08:33</time>
      </trkpt>
      <trkpt lat="40.14157" lon="-3.80922">
        <ele>588.4</ele>
        <time>2022-12-31 08:08:34</time>
      </trkpt>
      <trkpt lat="40.14151" lon="-3.80921">
        <ele>588.6</ele>
        <time>2022-12-31 08:08:35</time>
      </trkpt>
      <trkpt lat="40.14144" lon="-3.8092">
        <ele>588.6</ele>
        <time>2022-12-31 08:08:36</time>
      </trkpt>
      <trkpt lat="40.14138" lon="-3.80919">
        <ele>588.8</ele>
        <time>2022-12-31 08:08:37</time>
      </trkpt>
      <trkpt lat="40.14132" lon="-3.80918">
        <ele>588.8</ele>
        <time>2022-12-31 08:08:38</time>
      </trkpt>
      <trkpt lat="40.14126" lon="-3.80917">
        <ele>589</ele>
        <time>2022-12-31 08:08:39</time>
      </trkpt>
      <trkpt lat="40.1412" lon="-3.80916">
        <ele>589.2</ele>
        <time>2022-12-31 08:08:40</time>
      </trkpt>
      <trkpt lat="40.14114" lon="-3.80916">
        <ele>589.4</ele>
        <time>2022-12-31 08:08:41</time>
      </trkpt>
      <trkpt lat="40.14108" lon="-3.80915">
        <ele>589.6</ele>
        <time>2022-12-31 08:08:42</time>
      </trkpt>
      <trkpt lat="40.14102" lon="-3.80915">
        <ele>589.8</ele>
        <time>2022-12-31 08:08:43</time>
      </trkpt>
      <trkpt lat="40.14096" lon="-3.80915">
        <ele>590</ele>
        <time>2022-12-31 08:08:44</time>
      </trkpt>
      <trkpt lat="40.14089" lon="-3.80915">
        <ele>590</ele>
        <time>2022-12-31 08:08:45</time>
      </trkpt>
      <trkpt lat="40.14083" lon="-3.80916">
        <ele>590</ele>
        <time>2022-12-31 08:08:46</time>
      </trkpt>
      <trkpt lat="40.14076" lon="-3.80917">
        <ele>590</ele>
        <time>2022-12-31 08:08:47</time>
      </trkpt>
      <trkpt lat="40.14069" lon="-3.80917">
        <ele>590</ele>
        <time>2022-12-31 08:08:48</time>
      </trkpt>
      <trkpt lat="40.14063" lon="-3.80917">
        <ele>590</ele>
        <time>2022-12-31 08:08:49</time>
      </trkpt>
      <trkpt lat="40.14056" lon="-3.80917">
        <ele>590</ele>
        <time>2022-12-31 08:08:50</time>
      </trkpt>
      <trkpt lat="40.14049" lon="-3.80917">
        <ele>589.8</ele>
        <time>2022-12-31 08:08:51</time>
      </trkpt>
      <trkpt lat="40.14042" lon="-3.80916">
        <ele>590</ele>
        <time>2022-12-31 08:08:52</time>
      </trkpt>
      <trkpt lat="40.14035" lon="-3.80916">
        <ele>590</ele>
        <time>2022-12-31 08:08:53</time>
      </trkpt>
      <trkpt lat="40.14028" lon="-3.80915">
        <ele>589.8</ele>
        <time>2022-12-31 08:08:54</time>
      </trkpt>
      <trkpt lat="40.14021" lon="-3.80913">
        <ele>589.6</ele>
        <time>2022-12-31 08:08:55</time>
      </trkpt>
      <trkpt lat="40.14014" lon="-3.80912">
        <ele>589.4</ele>
        <time>2022-12-31 08:08:56</time>
      </trkpt>
      <trkpt lat="40.14006" lon="-3.8091">
        <ele>589</ele>
        <time>2022-12-31 08:08:57</time>
      </trkpt>
      <trkpt lat="40.13999" lon="-3.80907">
        <ele>588.4</ele>
        <time>2022-12-31 08:08:58</time>
      </trkpt>
      <trkpt lat="40.13993" lon="-3.80904">
        <ele>588.4</ele>
        <time>2022-12-31 08:08:59</time>
      </trkpt>
      <trkpt lat="40.13986" lon="-3.809">
        <ele>588.2</ele>
        <time>2022-12-31 08:09:00</time>
      </trkpt>
      <trkpt lat="40.13979" lon="-3.80896">
        <ele>588.2</ele>
        <time>2022-12-31 08:09:01</time>
      </trkpt>
      <trkpt lat="40.13972" lon="-3.80891">
        <ele>587.6</ele>
        <time>2022-12-31 08:09:02</time>
      </trkpt>
      <trkpt lat="40.13966" lon="-3.80885">
        <ele>587.4</ele>
        <time>2022-12-31 08:09:03</time>
      </trkpt>
      <trkpt lat="40.13961" lon="-3.8088">
        <ele>587.4</ele>
        <time>2022-12-31 08:09:04</time>
      </trkpt>
      <trkpt lat="40.13954" lon="-3.80875">
        <ele>587.2</ele>
        <time>2022-12-31 08:09:05</time>
      </trkpt>
      <trkpt lat="40.13948" lon="-3.8087">
        <ele>586.8</ele>
        <time>2022-12-31 08:09:06</time>
      </trkpt>
      <trkpt lat="40.13942" lon="-3.80864">
        <ele>586.8</ele>
        <time>2022-12-31 08:09:07</time>
      </trkpt>
      <trkpt lat="40.13935" lon="-3.80859">
        <ele>586.2</ele>
        <time>2022-12-31 08:09:08</time>
      </trkpt>
      <trkpt lat="40.13929" lon="-3.80853">
        <ele>585.8</ele>
        <time>2022-12-31 08:09:09</time>
      </trkpt>
      <trkpt lat="40.13922" lon="-3.80848">
        <ele>585.4</ele>
        <time>2022-12-31 08:09:10</time>
      </trkpt>
      <trkpt lat="40.13915" lon="-3.80843">
        <ele>585.2</ele>
        <time>2022-12-31 08:09:11</time>
      </trkpt>
      <trkpt lat="40.13909" lon="-3.80838">
        <ele>584.8</ele>
        <time>2022-12-31 08:09:12</time>
      </trkpt>
      <trkpt lat="40.13902" lon="-3.80833">
        <ele>584.6</ele>
        <time>2022-12-31 08:09:13</time>
      </trkpt>
      <trkpt lat="40.13895" lon="-3.80828">
        <ele>584.4</ele>
        <time>2022-12-31 08:09:14</time>
      </trkpt>
      <trkpt lat="40.13888" lon="-3.80823">
        <ele>584</ele>
        <time>2022-12-31 08:09:15</time>
      </trkpt>
      <trkpt lat="40.13881" lon="-3.80819">
        <ele>583.6</ele>
        <time>2022-12-31 08:09:16</time>
      </trkpt>
      <trkpt lat="40.13873" lon="-3.80814">
        <ele>583.2</ele>
        <time>2022-12-31 08:09:17</time>
      </trkpt>
      <trkpt lat="40.13865" lon="-3.8081">
        <ele>582.6</ele>
        <time>2022-12-31 08:09:18</time>
      </trkpt>
      <trkpt lat="40.13857" lon="-3.80806">
        <ele>582</ele>
        <time>2022-12-31 08:09:19</time>
      </trkpt>
      <trkpt lat="40.13849" lon="-3.80802">
        <ele>581.6</ele>
        <time>2022-12-31 08:09:20</time>
      </trkpt>
      <trkpt lat="40.13843" lon="-3.80799">
        <ele>581</ele>
        <time>2022-12-31 08:09:21</time>
      </trkpt>
      <trkpt lat="40.13836" lon="-3.80795">
        <ele>580.2</ele>
        <time>2022-12-31 08:09:22</time>
      </trkpt>
      <trkpt lat="40.13829" lon="-3.80792">
        <ele>579.6</ele>
        <time>2022-12-31 08:09:23</time>
      </trkpt>
      <trkpt lat="40.13821" lon="-3.80789">
        <ele>578.8</ele>
        <time>2022-12-31 08:09:24</time>
      </trkpt>
      <trkpt lat="40.13814" lon="-3.80785">
        <ele>577.6</ele>
        <time>2022-12-31 08:09:25</time>
      </trkpt>
      <trkpt lat="40.13807" lon="-3.80781">
        <ele>576.8</ele>
        <time>2022-12-31 08:09:26</time>
      </trkpt>
      <trkpt lat="40.13799" lon="-3.80776">
        <ele>576.8</ele>
        <time>2022-12-31 08:09:27</time>
      </trkpt>
      <trkpt lat="40.13792" lon="-3.80771">
        <ele>576.2</ele>
        <time>2022-12-31 08:09:28</time>
      </trkpt>
      <trkpt lat="40.13785" lon="-3.80765">
        <ele>575.4</ele>
        <time>2022-12-31 08:09:29</time>
      </trkpt>
      <trkpt lat="40.13778" lon="-3.80759">
        <ele>574.8</ele>
        <time>2022-12-31 08:09:30</time>
      </trkpt>
      <trkpt lat="40.13771" lon="-3.80754">
        <ele>574.2</ele>
        <time>2022-12-31 08:09:31</time>
      </trkpt>
      <trkpt lat="40.13764" lon="-3.80748">
        <ele>573.4</ele>
        <time>2022-12-31 08:09:32</time>
      </trkpt>
      <trkpt lat="40.13757" lon="-3.80743">
        <ele>572.8</ele>
        <time>2022-12-31 08:09:33</time>
      </trkpt>
      <trkpt lat="40.1375" lon="-3.80737">
        <ele>572.4</ele>
        <time>2022-12-31 08:09:34</time>
      </trkpt>
      <trkpt lat="40.13743" lon="-3.80732">
        <ele>571.6</ele>
        <time>2022-12-31 08:09:35</time>
      </trkpt>
      <trkpt lat="40.13736" lon="-3.80726">
        <ele>571.2</ele>
        <time>2022-12-31 08:09:36</time>
      </trkpt>
      <trkpt lat="40.1373" lon="-3.80721">
        <ele>571</ele>
        <time>2022-12-31 08:09:37</time>
      </trkpt>
      <trkpt lat="40.13723" lon="-3.80715">
        <ele>570.6</ele>
        <time>2022-12-31 08:09:38</time>
      </trkpt>
      <trkpt lat="40.13717" lon="-3.80708">
        <ele>570.4</ele>
        <time>2022-12-31 08:09:39</time>
      </trkpt>
      <trkpt lat="40.1371" lon="-3.80702">
        <ele>570.2</ele>
        <time>2022-12-31 08:09:40</time>
      </trkpt>
      <trkpt lat="40.13704" lon="-3.80696">
        <ele>570</ele>
        <time>2022-12-31 08:09:41</time>
      </trkpt>
      <trkpt lat="40.13697" lon="-3.80689">
        <ele>570</ele>
        <time>2022-12-31 08:09:42</time>
      </trkpt>
      <trkpt lat="40.13691" lon="-3.80683">
        <ele>569.8</ele>
        <time>2022-12-31 08:09:43</time>
      </trkpt>
      <trkpt lat="40.13685" lon="-3.80677">
        <ele>569.4</ele>
        <time>2022-12-31 08:09:44</time>
      </trkpt>
      <trkpt lat="40.13678" lon="-3.80671">
        <ele>569.2</ele>
        <time>2022-12-31 08:09:45</time>
      </trkpt>
      <trkpt lat="40.13672" lon="-3.80665">
        <ele>569.2</ele>
        <time>2022-12-31 08:09:46</time>
      </trkpt>
      <trkpt lat="40.13665" lon="-3.80659">
        <ele>569</ele>
        <time>2022-12-31 08:09:47</time>
      </trkpt>
      <trkpt lat="40.13659" lon="-3.80655">
        <ele>568.8</ele>
        <time>2022-12-31 08:09:48</time>
      </trkpt>
      <trkpt lat="40.13652" lon="-3.8065">
        <ele>568.6</ele>
        <time>2022-12-31 08:09:49</time>
      </trkpt>
      <trkpt lat="40.13645" lon="-3.80647">
        <ele>568.2</ele>
        <time>2022-12-31 08:09:50</time>
      </trkpt>
      <trkpt lat="40.13638" lon="-3.80644">
        <ele>567.8</ele>
        <time>2022-12-31 08:09:51</time>
      </trkpt>
      <trkpt lat="40.13631" lon="-3.80642">
        <ele>567.4</ele>
        <time>2022-12-31 08:09:52</time>
      </trkpt>
      <trkpt lat="40.13624" lon="-3.80641">
        <ele>567</ele>
        <time>2022-12-31 08:09:53</time>
      </trkpt>
      <trkpt lat="40.13617" lon="-3.8064">
        <ele>566.4</ele>
        <time>2022-12-31 08:09:54</time>
      </trkpt>
      <trkpt lat="40.1361" lon="-3.80639">
        <ele>566.2</ele>
        <time>2022-12-31 08:09:55</time>
      </trkpt>
      <trkpt lat="40.13603" lon="-3.80639">
        <ele>566.2</ele>
        <time>2022-12-31 08:09:56</time>
      </trkpt>
      <trkpt lat="40.13597" lon="-3.8064">
        <ele>566</ele>
        <time>2022-12-31 08:09:57</time>
      </trkpt>
      <trkpt lat="40.1359" lon="-3.8064">
        <ele>565.6</ele>
        <time>2022-12-31 08:09:58</time>
      </trkpt>
      <trkpt lat="40.13583" lon="-3.80641">
        <ele>565.6</ele>
        <time>2022-12-31 08:09:59</time>
      </trkpt>
      <trkpt lat="40.13576" lon="-3.80642">
        <ele>565.4</ele>
        <time>2022-12-31 08:10:00</time>
      </trkpt>
      <trkpt lat="40.13569" lon="-3.80643">
        <ele>565.2</ele>
        <time>2022-12-31 08:10:01</time>
      </trkpt>
      <trkpt lat="40.13563" lon="-3.80644">
        <ele>565.4</ele>
        <time>2022-12-31 08:10:02</time>
      </trkpt>
      <trkpt lat="40.13558" lon="-3.80646">
        <ele>565.2</ele>
        <time>2022-12-31 08:10:03</time>
      </trkpt>
      <trkpt lat="40.13553" lon="-3.80647">
        <ele>565</ele>
        <time>2022-12-31 08:10:04</time>
      </trkpt>
      <trkpt lat="40.13547" lon="-3.80648">
        <ele>565</ele>
        <time>2022-12-31 08:10:05</time>
      </trkpt>
      <trkpt lat="40.13542" lon="-3.80648">
        <ele>565</ele>
        <time>2022-12-31 08:10:06</time>
      </trkpt>
      <trkpt lat="40.13538" lon="-3.80648">
        <ele>565</ele>
        <time>2022-12-31 08:10:07</time>
      </trkpt>
      <trkpt lat="40.13533" lon="-3.80646">
        <ele>564.8</ele>
        <time>2022-12-31 08:10:08</time>
      </trkpt>
      <trkpt lat="40.13529" lon="-3.80646">
        <ele>565</ele>
        <time>2022-12-31 08:10:09</time>
      </trkpt>
      <trkpt lat="40.13524" lon="-3.80646">
        <ele>565</ele>
        <time>2022-12-31 08:10:10</time>
      </trkpt>
      <trkpt lat="40.13519" lon="-3.80647">
        <ele>564.8</ele>
        <time>2022-12-31 08:10:11</time>
      </trkpt>
      <trkpt lat="40.13515" lon="-3.80648">
        <ele>565</ele>
        <time>2022-12-31 08:10:12</time>
      </trkpt>
      <trkpt lat="40.1351" lon="-3.8065">
        <ele>564.8</ele>
        <time>2022-12-31 08:10:13</time>
      </trkpt>
      <trkpt lat="40.13505" lon="-3.80652">
        <ele>565</ele>
        <time>2022-12-31 08:10:14</time>
      </trkpt>
      <trkpt lat="40.13501" lon="-3.80654">
        <ele>565</ele>
        <time>2022-12-31 08:10:15</time>
      </trkpt>
      <trkpt lat="40.13496" lon="-3.80656">
        <ele>564.8</ele>
        <time>2022-12-31 08:10:16</time>
      </trkpt>
      <trkpt lat="40.13492" lon="-3.80659">
        <ele>564.8</ele>
        <time>2022-12-31 08:10:17</time>
      </trkpt>
      <trkpt lat="40.13487" lon="-3.80661">
        <ele>565</ele>
        <time>2022-12-31 08:10:18</time>
      </trkpt>
      <trkpt lat="40.13482" lon="-3.80664">
        <ele>565.4</ele>
        <time>2022-12-31 08:10:19</time>
      </trkpt>
      <trkpt lat="40.13477" lon="-3.80666">
        <ele>565.4</ele>
        <time>2022-12-31 08:10:20</time>
      </trkpt>
      <trkpt lat="40.13471" lon="-3.80669">
        <ele>565.4</ele>
        <time>2022-12-31 08:10:21</time>
      </trkpt>
      <trkpt lat="40.13465" lon="-3.80671">
        <ele>565.6</ele>
        <time>2022-12-31 08:10:22</time>
      </trkpt>
      <trkpt lat="40.13459" lon="-3.80672">
        <ele>565.6</ele>
        <time>2022-12-31 08:10:23</time>
      </trkpt>
      <trkpt lat="40.13453" lon="-3.80673">
        <ele>565.6</ele>
        <time>2022-12-31 08:10:24</time>
      </trkpt>
      <trkpt lat="40.13447" lon="-3.80673">
        <ele>565.6</ele>
        <time>2022-12-31 08:10:25</time>
      </trkpt>
      <trkpt lat="40.13441" lon="-3.80673">
        <ele>565.6</ele>
        <time>2022-12-31 08:10:26</time>
      </trkpt>
      <trkpt lat="40.13435" lon="-3.80672">
        <ele>565.6</ele>
        <time>2022-12-31 08:10:27</time>
      </trkpt>
      <trkpt lat="40.13429" lon="-3.80671">
        <ele>565.6</ele>
        <time>2022-12-31 08:10:28</time>
      </trkpt>
      <trkpt lat="40.13423" lon="-3.8067">
        <ele>565.6</ele>
        <time>2022-12-31 08:10:29</time>
      </trkpt>
      <trkpt lat="40.13417" lon="-3.80668">
        <ele>565.4</ele>
        <time>2022-12-31 08:10:30</time>
      </trkpt>
      <trkpt lat="40.13412" lon="-3.80667">
        <ele>565.2</ele>
        <time>2022-12-31 08:10:31</time>
      </trkpt>
      <trkpt lat="40.13406" lon="-3.80665">
        <ele>565.2</ele>
        <time>2022-12-31 08:10:32</time>
      </trkpt>
      <trkpt lat="40.13401" lon="-3.80664">
        <ele>565.2</ele>
        <time>2022-12-31 08:10:33</time>
      </trkpt>
      <trkpt lat="40.13396" lon="-3.80663">
        <ele>565.2</ele>
        <time>2022-12-31 08:10:34</time>
      </trkpt>
      <trkpt lat="40.1339" lon="-3.80662">
        <ele>565.2</ele>
        <time>2022-12-31 08:10:35</time>
      </trkpt>
      <trkpt lat="40.13385" lon="-3.80661">
        <ele>565.2</ele>
        <time>2022-12-31 08:10:36</time>
      </trkpt>
      <trkpt lat="40.1338" lon="-3.80659">
        <ele>565.2</ele>
        <time>2022-12-31 08:10:37</time>
      </trkpt>
      <trkpt lat="40.13375" lon="-3.80658">
        <ele>565.2</ele>
        <time>2022-12-31 08:10:38</time>
      </trkpt>
      <trkpt lat="40.13369" lon="-3.80658">
        <ele>565</ele>
        <time>2022-12-31 08:10:39</time>
      </trkpt>
      <trkpt lat="40.13364" lon="-3.80658">
        <ele>565.2</ele>
        <time>2022-12-31 08:10:40</time>
      </trkpt>
      <trkpt lat="40.13358" lon="-3.80658">
        <ele>565.6</ele>
        <time>2022-12-31 08:10:41</time>
      </trkpt>
      <trkpt lat="40.13352" lon="-3.80659">
        <ele>565.6</ele>
        <time>2022-12-31 08:10:42</time>
      </trkpt>
      <trkpt lat="40.13347" lon="-3.80659">
        <ele>565.8</ele>
        <time>2022-12-31 08:10:43</time>
      </trkpt>
      <trkpt lat="40.13341" lon="-3.80659">
        <ele>565.8</ele>
        <time>2022-12-31 08:10:44</time>
      </trkpt>
      <trkpt lat="40.13336" lon="-3.80659">
        <ele>566</ele>
        <time>2022-12-31 08:10:45</time>
      </trkpt>
      <trkpt lat="40.1333" lon="-3.80659">
        <ele>566</ele>
        <time>2022-12-31 08:10:46</time>
      </trkpt>
      <trkpt lat="40.13325" lon="-3.80659">
        <ele>566</ele>
        <time>2022-12-31 08:10:47</time>
      </trkpt>
      <trkpt lat="40.13319" lon="-3.80659">
        <ele>566.2</ele>
        <time>2022-12-31 08:10:48</time>
      </trkpt>
      <trkpt lat="40.13314" lon="-3.80659">
        <ele>566.2</ele>
        <time>2022-12-31 08:10:49</time>
      </trkpt>
      <trkpt lat="40.1331" lon="-3.8066">
        <ele>566.4</ele>
        <time>2022-12-31 08:10:50</time>
      </trkpt>
      <trkpt lat="40.13305" lon="-3.8066">
        <ele>566.4</ele>
        <time>2022-12-31 08:10:51</time>
      </trkpt>
      <trkpt lat="40.13301" lon="-3.80661">
        <ele>566.6</ele>
        <time>2022-12-31 08:10:52</time>
      </trkpt>
      <trkpt lat="40.13297" lon="-3.80661">
        <ele>566.8</ele>
        <time>2022-12-31 08:10:53</time>
      </trkpt>
      <trkpt lat="40.13293" lon="-3.80662">
        <ele>566.8</ele>
        <time>2022-12-31 08:10:54</time>
      </trkpt>
      <trkpt lat="40.13289" lon="-3.80662">
        <ele>567</ele>
        <time>2022-12-31 08:10:55</time>
      </trkpt>
      <trkpt lat="40.13286" lon="-3.80663">
        <ele>567.2</ele>
        <time>2022-12-31 08:10:56</time>
      </trkpt>
      <trkpt lat="40.13282" lon="-3.80663">
        <ele>567.4</ele>
        <time>2022-12-31 08:10:57</time>
      </trkpt>
      <trkpt lat="40.13278" lon="-3.80663">
        <ele>568</ele>
        <time>2022-12-31 08:10:58</time>
      </trkpt>
      <trkpt lat="40.13274" lon="-3.80662">
        <ele>568.6</ele>
        <time>2022-12-31 08:10:59</time>
      </trkpt>
      <trkpt lat="40.1327" lon="-3.80662">
        <ele>569</ele>
        <time>2022-12-31 08:11:00</time>
      </trkpt>
      <trkpt lat="40.13266" lon="-3.80662">
        <ele>569.6</ele>
        <time>2022-12-31 08:11:01</time>
      </trkpt>
      <trkpt lat="40.13262" lon="-3.80661">
        <ele>570.2</ele>
        <time>2022-12-31 08:11:02</time>
      </trkpt>
      <trkpt lat="40.13258" lon="-3.8066">
        <ele>571</ele>
        <time>2022-12-31 08:11:03</time>
      </trkpt>
      <trkpt lat="40.13254" lon="-3.80659">
        <ele>571.2</ele>
        <time>2022-12-31 08:11:04</time>
      </trkpt>
      <trkpt lat="40.13251" lon="-3.80658">
        <ele>571.2</ele>
        <time>2022-12-31 08:11:05</time>
      </trkpt>
      <trkpt lat="40.13247" lon="-3.80656">
        <ele>571.8</ele>
        <time>2022-12-31 08:11:06</time>
      </trkpt>
      <trkpt lat="40.13243" lon="-3.80654">
        <ele>572.2</ele>
        <time>2022-12-31 08:11:07</time>
      </trkpt>
      <trkpt lat="40.1324" lon="-3.80651">
        <ele>572.8</ele>
        <time>2022-12-31 08:11:08</time>
      </trkpt>
      <trkpt lat="40.13236" lon="-3.80648">
        <ele>573.2</ele>
        <time>2022-12-31 08:11:09</time>
      </trkpt>
      <trkpt lat="40.13233" lon="-3.80646">
        <ele>573.6</ele>
        <time>2022-12-31 08:11:10</time>
      </trkpt>
      <trkpt lat="40.1323" lon="-3.80643">
        <ele>574</ele>
        <time>2022-12-31 08:11:11</time>
      </trkpt>
      <trkpt lat="40.13226" lon="-3.80639">
        <ele>574.2</ele>
        <time>2022-12-31 08:11:12</time>
      </trkpt>
      <trkpt lat="40.13223" lon="-3.80637">
        <ele>574.6</ele>
        <time>2022-12-31 08:11:13</time>
      </trkpt>
      <trkpt lat="40.13219" lon="-3.80634">
        <ele>574.8</ele>
        <time>2022-12-31 08:11:14</time>
      </trkpt>
      <trkpt lat="40.13216" lon="-3.80631">
        <ele>575</ele>
        <time>2022-12-31 08:11:15</time>
      </trkpt>
      <trkpt lat="40.13212" lon="-3.80629">
        <ele>575.4</ele>
        <time>2022-12-31 08:11:16</time>
      </trkpt>
      <trkpt lat="40.13209" lon="-3.80627">
        <ele>575.4</ele>
        <time>2022-12-31 08:11:17</time>
      </trkpt>
      <trkpt lat="40.13205" lon="-3.80625">
        <ele>575.6</ele>
        <time>2022-12-31 08:11:18</time>
      </trkpt>
      <trkpt lat="40.13202" lon="-3.80623">
        <ele>575.6</ele>
        <time>2022-12-31 08:11:19</time>
      </trkpt>
      <trkpt lat="40.13198" lon="-3.80622">
        <ele>575.8</ele>
        <time>2022-12-31 08:11:20</time>
      </trkpt>
      <trkpt lat="40.13194" lon="-3.80622">
        <ele>576</ele>
        <time>2022-12-31 08:11:21</time>
      </trkpt>
      <trkpt lat="40.1319" lon="-3.80621">
        <ele>576</ele>
        <time>2022-12-31 08:11:22</time>
      </trkpt>
      <trkpt lat="40.13186" lon="-3.8062">
        <ele>576</ele>
        <time>2022-12-31 08:11:23</time>
      </trkpt>
      <trkpt lat="40.13182" lon="-3.80619">
        <ele>576</ele>
        <time>2022-12-31 08:11:24</time>
      </trkpt>
      <trkpt lat="40.13177" lon="-3.80618">
        <ele>576</ele>
        <time>2022-12-31 08:11:25</time>
      </trkpt>
      <trkpt lat="40.13173" lon="-3.80618">
        <ele>576.2</ele>
        <time>2022-12-31 08:11:26</time>
      </trkpt>
      <trkpt lat="40.13169" lon="-3.80617">
        <ele>576.2</ele>
        <time>2022-12-31 08:11:27</time>
      </trkpt>
      <trkpt lat="40.13165" lon="-3.80617">
        <ele>576.2</ele>
        <time>2022-12-31 08:11:28</time>
      </trkpt>
      <trkpt lat="40.13161" lon="-3.80616">
        <ele>576.4</ele>
        <time>2022-12-31 08:11:29</time>
      </trkpt>
      <trkpt lat="40.13157" lon="-3.80616">
        <ele>576.4</ele>
        <time>2022-12-31 08:11:30</time>
      </trkpt>
      <trkpt lat="40.13152" lon="-3.80616">
        <ele>576.4</ele>
        <time>2022-12-31 08:11:31</time>
      </trkpt>
      <trkpt lat="40.13149" lon="-3.80615">
        <ele>576.4</ele>
        <time>2022-12-31 08:11:32</time>
      </trkpt>
      <trkpt lat="40.13145" lon="-3.80615">
        <ele>576.4</ele>
        <time>2022-12-31 08:11:33</time>
      </trkpt>
      <trkpt lat="40.13141" lon="-3.80615">
        <ele>576.6</ele>
        <time>2022-12-31 08:11:34</time>
      </trkpt>
      <trkpt lat="40.13137" lon="-3.80614">
        <ele>576.6</ele>
        <time>2022-12-31 08:11:35</time>
      </trkpt>
      <trkpt lat="40.13133" lon="-3.80614">
        <ele>576.8</ele>
        <time>2022-12-31 08:11:36</time>
      </trkpt>
      <trkpt lat="40.13129" lon="-3.80614">
        <ele>576.8</ele>
        <time>2022-12-31 08:11:37</time>
      </trkpt>
      <trkpt lat="40.13125" lon="-3.80613">
        <ele>577</ele>
        <time>2022-12-31 08:11:38</time>
      </trkpt>
      <trkpt lat="40.1312" lon="-3.80612">
        <ele>577</ele>
        <time>2022-12-31 08:11:39</time>
      </trkpt>
      <trkpt lat="40.13116" lon="-3.80612">
        <ele>577.2</ele>
        <time>2022-12-31 08:11:40</time>
      </trkpt>
      <trkpt lat="40.13112" lon="-3.80611">
        <ele>577.4</ele>
        <time>2022-12-31 08:11:41</time>
      </trkpt>
      <trkpt lat="40.13107" lon="-3.80609">
        <ele>577.4</ele>
        <time>2022-12-31 08:11:42</time>
      </trkpt>
      <trkpt lat="40.13102" lon="-3.80608">
        <ele>577.6</ele>
        <time>2022-12-31 08:11:43</time>
      </trkpt>
      <trkpt lat="40.13098" lon="-3.80606">
        <ele>577.6</ele>
        <time>2022-12-31 08:11:44</time>
      </trkpt>
      <trkpt lat="40.13093" lon="-3.80604">
        <ele>577.6</ele>
        <time>2022-12-31 08:11:45</time>
      </trkpt>
      <trkpt lat="40.13088" lon="-3.80602">
        <ele>577.6</ele>
        <time>2022-12-31 08:11:46</time>
      </trkpt>
      <trkpt lat="40.13084" lon="-3.806">
        <ele>578</ele>
        <time>2022-12-31 08:11:47</time>
      </trkpt>
      <trkpt lat="40.13079" lon="-3.80598">
        <ele>578.2</ele>
        <time>2022-12-31 08:11:48</time>
      </trkpt>
      <trkpt lat="40.13075" lon="-3.80595">
        <ele>578.2</ele>
        <time>2022-12-31 08:11:49</time>
      </trkpt>
      <trkpt lat="40.1307" lon="-3.80592">
        <ele>578.2</ele>
        <time>2022-12-31 08:11:50</time>
      </trkpt>
      <trkpt lat="40.13065" lon="-3.8059">
        <ele>578.2</ele>
        <time>2022-12-31 08:11:51</time>
      </trkpt>
      <trkpt lat="40.13061" lon="-3.80587">
        <ele>578.4</ele>
        <time>2022-12-31 08:11:52</time>
      </trkpt>
      <trkpt lat="40.13056" lon="-3.80584">
        <ele>578.4</ele>
        <time>2022-12-31 08:11:53</time>
      </trkpt>
      <trkpt lat="40.13051" lon="-3.80582">
        <ele>578.2</ele>
        <time>2022-12-31 08:11:54</time>
      </trkpt>
      <trkpt lat="40.13046" lon="-3.8058">
        <ele>578.2</ele>
        <time>2022-12-31 08:11:55</time>
      </trkpt>
      <trkpt lat="40.13041" lon="-3.80577">
        <ele>578.4</ele>
        <time>2022-12-31 08:11:56</time>
      </trkpt>
      <trkpt lat="40.13036" lon="-3.80575">
        <ele>578.4</ele>
        <time>2022-12-31 08:11:57</time>
      </trkpt>
      <trkpt lat="40.13031" lon="-3.80573">
        <ele>578.4</ele>
        <time>2022-12-31 08:11:58</time>
      </trkpt>
      <trkpt lat="40.13025" lon="-3.80572">
        <ele>578.2</ele>
        <time>2022-12-31 08:11:59</time>
      </trkpt>
      <trkpt lat="40.1302" lon="-3.8057">
        <ele>578.2</ele>
        <time>2022-12-31 08:12:00</time>
      </trkpt>
      <trkpt lat="40.13014" lon="-3.80569">
        <ele>578.2</ele>
        <time>2022-12-31 08:12:01</time>
      </trkpt>
      <trkpt lat="40.13009" lon="-3.80567">
        <ele>578.2</ele>
        <time>2022-12-31 08:12:02</time>
      </trkpt>
      <trkpt lat="40.13003" lon="-3.80566">
        <ele>578.2</ele>
        <time>2022-12-31 08:12:03</time>
      </trkpt>
      <trkpt lat="40.12997" lon="-3.80564">
        <ele>578.2</ele>
        <time>2022-12-31 08:12:04</time>
      </trkpt>
      <trkpt lat="40.1299" lon="-3.80563">
        <ele>578.2</ele>
        <time>2022-12-31 08:12:05</time>
      </trkpt>
      <trkpt lat="40.12984" lon="-3.80561">
        <ele>578.2</ele>
        <time>2022-12-31 08:12:06</time>
      </trkpt>
      <trkpt lat="40.12976" lon="-3.8056">
        <ele>578</ele>
        <time>2022-12-31 08:12:07</time>
      </trkpt>
      <trkpt lat="40.12969" lon="-3.80558">
        <ele>578.2</ele>
        <time>2022-12-31 08:12:08</time>
      </trkpt>
      <trkpt lat="40.12962" lon="-3.80556">
        <ele>578</ele>
        <time>2022-12-31 08:12:09</time>
      </trkpt>
      <trkpt lat="40.12954" lon="-3.80554">
        <ele>577.8</ele>
        <time>2022-12-31 08:12:10</time>
      </trkpt>
      <trkpt lat="40.12946" lon="-3.80553">
        <ele>577.6</ele>
        <time>2022-12-31 08:12:11</time>
      </trkpt>
      <trkpt lat="40.12938" lon="-3.80551">
        <ele>577.2</ele>
        <time>2022-12-31 08:12:12</time>
      </trkpt>
      <trkpt lat="40.1293" lon="-3.80551">
        <ele>577.2</ele>
        <time>2022-12-31 08:12:13</time>
      </trkpt>
      <trkpt lat="40.12922" lon="-3.80551">
        <ele>577</ele>
        <time>2022-12-31 08:12:14</time>
      </trkpt>
      <trkpt lat="40.12914" lon="-3.80553">
        <ele>576.4</ele>
        <time>2022-12-31 08:12:15</time>
      </trkpt>
      <trkpt lat="40.12907" lon="-3.80555">
        <ele>575.8</ele>
        <time>2022-12-31 08:12:16</time>
      </trkpt>
      <trkpt lat="40.129" lon="-3.80557">
        <ele>575.2</ele>
        <time>2022-12-31 08:12:17</time>
      </trkpt>
      <trkpt lat="40.12892" lon="-3.80558">
        <ele>574.6</ele>
        <time>2022-12-31 08:12:18</time>
      </trkpt>
      <trkpt lat="40.12885" lon="-3.80559">
        <ele>573.8</ele>
        <time>2022-12-31 08:12:19</time>
      </trkpt>
      <trkpt lat="40.12877" lon="-3.8056">
        <ele>573.2</ele>
        <time>2022-12-31 08:12:20</time>
      </trkpt>
      <trkpt lat="40.12869" lon="-3.80561">
        <ele>572.8</ele>
        <time>2022-12-31 08:12:21</time>
      </trkpt>
      <trkpt lat="40.12861" lon="-3.80562">
        <ele>572.4</ele>
        <time>2022-12-31 08:12:22</time>
      </trkpt>
      <trkpt lat="40.12853" lon="-3.80564">
        <ele>572.4</ele>
        <time>2022-12-31 08:12:23</time>
      </trkpt>
      <trkpt lat="40.12845" lon="-3.80564">
        <ele>572.2</ele>
        <time>2022-12-31 08:12:24</time>
      </trkpt>
      <trkpt lat="40.12836" lon="-3.80563">
        <ele>572.2</ele>
        <time>2022-12-31 08:12:25</time>
      </trkpt>
      <trkpt lat="40.12828" lon="-3.80561">
        <ele>572</ele>
        <time>2022-12-31 08:12:26</time>
      </trkpt>
      <trkpt lat="40.12821" lon="-3.80559">
        <ele>572.2</ele>
        <time>2022-12-31 08:12:27</time>
      </trkpt>
      <trkpt lat="40.12814" lon="-3.80556">
        <ele>572</ele>
        <time>2022-12-31 08:12:28</time>
      </trkpt>
      <trkpt lat="40.12807" lon="-3.80554">
        <ele>572.2</ele>
        <time>2022-12-31 08:12:29</time>
      </trkpt>
      <trkpt lat="40.12801" lon="-3.80554">
        <ele>572</ele>
        <time>2022-12-31 08:12:30</time>
      </trkpt>
      <trkpt lat="40.12796" lon="-3.80556">
        <ele>572</ele>
        <time>2022-12-31 08:12:31</time>
      </trkpt>
      <trkpt lat="40.12791" lon="-3.80558">
        <ele>572</ele>
        <time>2022-12-31 08:12:32</time>
      </trkpt>
      <trkpt lat="40.12786" lon="-3.80563">
        <ele>572</ele>
        <time>2022-12-31 08:12:33</time>
      </trkpt>
      <trkpt lat="40.12782" lon="-3.80568">
        <ele>572</ele>
        <time>2022-12-31 08:12:34</time>
      </trkpt>
      <trkpt lat="40.12779" lon="-3.80574">
        <ele>572</ele>
        <time>2022-12-31 08:12:35</time>
      </trkpt>
      <trkpt lat="40.12775" lon="-3.80581">
        <ele>572.2</ele>
        <time>2022-12-31 08:12:36</time>
      </trkpt>
      <trkpt lat="40.12772" lon="-3.80588">
        <ele>571.8</ele>
        <time>2022-12-31 08:12:37</time>
      </trkpt>
      <trkpt lat="40.12768" lon="-3.80595">
        <ele>571.6</ele>
        <time>2022-12-31 08:12:38</time>
      </trkpt>
      <trkpt lat="40.12765" lon="-3.80603">
        <ele>571.4</ele>
        <time>2022-12-31 08:12:39</time>
      </trkpt>
      <trkpt lat="40.12761" lon="-3.80611">
        <ele>571.2</ele>
        <time>2022-12-31 08:12:40</time>
      </trkpt>
      <trkpt lat="40.12757" lon="-3.8062">
        <ele>570.8</ele>
        <time>2022-12-31 08:12:41</time>
      </trkpt>
      <trkpt lat="40.12753" lon="-3.80628">
        <ele>570.8</ele>
        <time>2022-12-31 08:12:42</time>
      </trkpt>
      <trkpt lat="40.12748" lon="-3.80637">
        <ele>570.8</ele>
        <time>2022-12-31 08:12:43</time>
      </trkpt>
      <trkpt lat="40.12743" lon="-3.80644">
        <ele>570.8</ele>
        <time>2022-12-31 08:12:44</time>
      </trkpt>
      <trkpt lat="40.12737" lon="-3.80651">
        <ele>570.8</ele>
        <time>2022-12-31 08:12:45</time>
      </trkpt>
      <trkpt lat="40.1273" lon="-3.80658">
        <ele>570.8</ele>
        <time>2022-12-31 08:12:46</time>
      </trkpt>
      <trkpt lat="40.12724" lon="-3.80665">
        <ele>570.8</ele>
        <time>2022-12-31 08:12:47</time>
      </trkpt>
      <trkpt lat="40.12718" lon="-3.80671">
        <ele>570.8</ele>
        <time>2022-12-31 08:12:48</time>
      </trkpt>
      <trkpt lat="40.12711" lon="-3.80678">
        <ele>570.4</ele>
        <time>2022-12-31 08:12:49</time>
      </trkpt>
      <trkpt lat="40.12704" lon="-3.80684">
        <ele>569.6</ele>
        <time>2022-12-31 08:12:50</time>
      </trkpt>
      <trkpt lat="40.12698" lon="-3.80691">
        <ele>569</ele>
        <time>2022-12-31 08:12:51</time>
      </trkpt>
      <trkpt lat="40.1269" lon="-3.80696">
        <ele>568.6</ele>
        <time>2022-12-31 08:12:52</time>
      </trkpt>
      <trkpt lat="40.12682" lon="-3.80699">
        <ele>567.6</ele>
        <time>2022-12-31 08:12:53</time>
      </trkpt>
      <trkpt lat="40.12673" lon="-3.80701">
        <ele>567.2</ele>
        <time>2022-12-31 08:12:54</time>
      </trkpt>
      <trkpt lat="40.12664" lon="-3.80702">
        <ele>566.6</ele>
        <time>2022-12-31 08:12:55</time>
      </trkpt>
      <trkpt lat="40.12655" lon="-3.80702">
        <ele>566.4</ele>
        <time>2022-12-31 08:12:56</time>
      </trkpt>
      <trkpt lat="40.12646" lon="-3.80702">
        <ele>566</ele>
        <time>2022-12-31 08:12:57</time>
      </trkpt>
      <trkpt lat="40.12637" lon="-3.80702">
        <ele>565.6</ele>
        <time>2022-12-31 08:12:58</time>
      </trkpt>
      <trkpt lat="40.12628" lon="-3.80702">
        <ele>564.8</ele>
        <time>2022-12-31 08:12:59</time>
      </trkpt>
      <trkpt lat="40.1262" lon="-3.80701">
        <ele>564.2</ele>
        <time>2022-12-31 08:13:00</time>
      </trkpt>
      <trkpt lat="40.12611" lon="-3.80699">
        <ele>563.8</ele>
        <time>2022-12-31 08:13:01</time>
      </trkpt>
      <trkpt lat="40.12603" lon="-3.80697">
        <ele>563.2</ele>
        <time>2022-12-31 08:13:02</time>
      </trkpt>
      <trkpt lat="40.12594" lon="-3.80694">
        <ele>562.6</ele>
        <time>2022-12-31 08:13:03</time>
      </trkpt>
      <trkpt lat="40.12586" lon="-3.80691">
        <ele>562.6</ele>
        <time>2022-12-31 08:13:04</time>
      </trkpt>
      <trkpt lat="40.12577" lon="-3.80687">
        <ele>562</ele>
        <time>2022-12-31 08:13:05</time>
      </trkpt>
      <trkpt lat="40.1257" lon="-3.80683">
        <ele>561.2</ele>
        <time>2022-12-31 08:13:06</time>
      </trkpt>
      <trkpt lat="40.12565" lon="-3.8068">
        <ele>560.8</ele>
        <time>2022-12-31 08:13:07</time>
      </trkpt>
      <trkpt lat="40.12559" lon="-3.80675">
        <ele>560.2</ele>
        <time>2022-12-31 08:13:08</time>
      </trkpt>
      <trkpt lat="40.12552" lon="-3.80668">
        <ele>559.8</ele>
        <time>2022-12-31 08:13:09</time>
      </trkpt>
      <trkpt lat="40.12547" lon="-3.80661">
        <ele>559.4</ele>
        <time>2022-12-31 08:13:10</time>
      </trkpt>
      <trkpt lat="40.12543" lon="-3.80652">
        <ele>559</ele>
        <time>2022-12-31 08:13:11</time>
      </trkpt>
      <trkpt lat="40.1254" lon="-3.80642">
        <ele>558.2</ele>
        <time>2022-12-31 08:13:12</time>
      </trkpt>
      <trkpt lat="40.12538" lon="-3.80632">
        <ele>557.6</ele>
        <time>2022-12-31 08:13:13</time>
      </trkpt>
      <trkpt lat="40.12535" lon="-3.80622">
        <ele>557</ele>
        <time>2022-12-31 08:13:14</time>
      </trkpt>
      <trkpt lat="40.12532" lon="-3.80613">
        <ele>556.8</ele>
        <time>2022-12-31 08:13:15</time>
      </trkpt>
      <trkpt lat="40.12528" lon="-3.80603">
        <ele>556.4</ele>
        <time>2022-12-31 08:13:16</time>
      </trkpt>
      <trkpt lat="40.12524" lon="-3.80594">
        <ele>556</ele>
        <time>2022-12-31 08:13:17</time>
      </trkpt>
      <trkpt lat="40.12519" lon="-3.80586">
        <ele>555.6</ele>
        <time>2022-12-31 08:13:18</time>
      </trkpt>
      <trkpt lat="40.12514" lon="-3.80578">
        <ele>555</ele>
        <time>2022-12-31 08:13:19</time>
      </trkpt>
      <trkpt lat="40.12509" lon="-3.80572">
        <ele>554.4</ele>
        <time>2022-12-31 08:13:20</time>
      </trkpt>
      <trkpt lat="40.12502" lon="-3.80567">
        <ele>553.8</ele>
        <time>2022-12-31 08:13:21</time>
      </trkpt>
      <trkpt lat="40.12495" lon="-3.80563">
        <ele>553.2</ele>
        <time>2022-12-31 08:13:22</time>
      </trkpt>
      <trkpt lat="40.12488" lon="-3.80561">
        <ele>552.6</ele>
        <time>2022-12-31 08:13:23</time>
      </trkpt>
      <trkpt lat="40.12481" lon="-3.8056">
        <ele>552.6</ele>
        <time>2022-12-31 08:13:24</time>
      </trkpt>
      <trkpt lat="40.12473" lon="-3.80559">
        <ele>552</ele>
        <time>2022-12-31 08:13:25</time>
      </trkpt>
      <trkpt lat="40.12466" lon="-3.80559">
        <ele>551.6</ele>
        <time>2022-12-31 08:13:26</time>
      </trkpt>
      <trkpt lat="40.12459" lon="-3.80559">
        <ele>551.2</ele>
        <time>2022-12-31 08:13:27</time>
      </trkpt>
      <trkpt lat="40.12451" lon="-3.80559">
        <ele>551</ele>
        <time>2022-12-31 08:13:28</time>
      </trkpt>
      <trkpt lat="40.12444" lon="-3.8056">
        <ele>550.8</ele>
        <time>2022-12-31 08:13:29</time>
      </trkpt>
      <trkpt lat="40.12436" lon="-3.80561">
        <ele>550.6</ele>
        <time>2022-12-31 08:13:30</time>
      </trkpt>
      <trkpt lat="40.12429" lon="-3.80562">
        <ele>550.4</ele>
        <time>2022-12-31 08:13:31</time>
      </trkpt>
      <trkpt lat="40.12422" lon="-3.80563">
        <ele>550.2</ele>
        <time>2022-12-31 08:13:32</time>
      </trkpt>
      <trkpt lat="40.12414" lon="-3.80564">
        <ele>550.2</ele>
        <time>2022-12-31 08:13:33</time>
      </trkpt>
      <trkpt lat="40.12407" lon="-3.80565">
        <ele>550</ele>
        <time>2022-12-31 08:13:34</time>
      </trkpt>
      <trkpt lat="40.124" lon="-3.80567">
        <ele>550</ele>
        <time>2022-12-31 08:13:35</time>
      </trkpt>
      <trkpt lat="40.12393" lon="-3.80568">
        <ele>549.8</ele>
        <time>2022-12-31 08:13:36</time>
      </trkpt>
      <trkpt lat="40.12386" lon="-3.80569">
        <ele>549.8</ele>
        <time>2022-12-31 08:13:37</time>
      </trkpt>
      <trkpt lat="40.1238" lon="-3.80569">
        <ele>549.8</ele>
        <time>2022-12-31 08:13:38</time>
      </trkpt>
      <trkpt lat="40.12373" lon="-3.8057">
        <ele>549.8</ele>
        <time>2022-12-31 08:13:39</time>
      </trkpt>
      <trkpt lat="40.12366" lon="-3.80569">
        <ele>549.6</ele>
        <time>2022-12-31 08:13:40</time>
      </trkpt>
      <trkpt lat="40.12359" lon="-3.80568">
        <ele>549.6</ele>
        <time>2022-12-31 08:13:41</time>
      </trkpt>
      <trkpt lat="40.12352" lon="-3.80567">
        <ele>549.8</ele>
        <time>2022-12-31 08:13:42</time>
      </trkpt>
      <trkpt lat="40.12346" lon="-3.80565">
        <ele>549.6</ele>
        <time>2022-12-31 08:13:43</time>
      </trkpt>
      <trkpt lat="40.12339" lon="-3.80563">
        <ele>549.6</ele>
        <time>2022-12-31 08:13:44</time>
      </trkpt>
      <trkpt lat="40.12333" lon="-3.80561">
        <ele>549.6</ele>
        <time>2022-12-31 08:13:45</time>
      </trkpt>
      <trkpt lat="40.12326" lon="-3.80559">
        <ele>549.6</ele>
        <time>2022-12-31 08:13:46</time>
      </trkpt>
      <trkpt lat="40.1232" lon="-3.80557">
        <ele>549.6</ele>
        <time>2022-12-31 08:13:47</time>
      </trkpt>
      <trkpt lat="40.12314" lon="-3.80556">
        <ele>549.6</ele>
        <time>2022-12-31 08:13:48</time>
      </trkpt>
      <trkpt lat="40.12308" lon="-3.80554">
        <ele>549.6</ele>
        <time>2022-12-31 08:13:49</time>
      </trkpt>
      <trkpt lat="40.12302" lon="-3.80552">
        <ele>549.6</ele>
        <time>2022-12-31 08:13:50</time>
      </trkpt>
      <trkpt lat="40.12295" lon="-3.8055">
        <ele>549.4</ele>
        <time>2022-12-31 08:13:51</time>
      </trkpt>
      <trkpt lat="40.12289" lon="-3.80549">
        <ele>549.6</ele>
        <time>2022-12-31 08:13:52</time>
      </trkpt>
      <trkpt lat="40.12284" lon="-3.80547">
        <ele>549.6</ele>
        <time>2022-12-31 08:13:53</time>
      </trkpt>
      <trkpt lat="40.12278" lon="-3.80545">
        <ele>549.6</ele>
        <time>2022-12-31 08:13:54</time>
      </trkpt>
      <trkpt lat="40.12273" lon="-3.80542">
        <ele>549.4</ele>
        <time>2022-12-31 08:13:55</time>
      </trkpt>
      <trkpt lat="40.12268" lon="-3.80539">
        <ele>549.6</ele>
        <time>2022-12-31 08:13:56</time>
      </trkpt>
      <trkpt lat="40.12263" lon="-3.80537">
        <ele>549.4</ele>
        <time>2022-12-31 08:13:57</time>
      </trkpt>
      <trkpt lat="40.12258" lon="-3.80535">
        <ele>549.4</ele>
        <time>2022-12-31 08:13:58</time>
      </trkpt>
      <trkpt lat="40.12254" lon="-3.80534">
        <ele>549.6</ele>
        <time>2022-12-31 08:13:59</time>
      </trkpt>
      <trkpt lat="40.12249" lon="-3.80533">
        <ele>549.6</ele>
        <time>2022-12-31 08:14:00</time>
      </trkpt>
      <trkpt lat="40.12244" lon="-3.80532">
        <ele>549.6</ele>
        <time>2022-12-31 08:14:01</time>
      </trkpt>
      <trkpt lat="40.1224" lon="-3.8053">
        <ele>549.8</ele>
        <time>2022-12-31 08:14:02</time>
      </trkpt>
      <trkpt lat="40.12235" lon="-3.80527">
        <ele>549.8</ele>
        <time>2022-12-31 08:14:03</time>
      </trkpt>
      <trkpt lat="40.12231" lon="-3.80524">
        <ele>549.6</ele>
        <time>2022-12-31 08:14:04</time>
      </trkpt>
      <trkpt lat="40.12226" lon="-3.80519">
        <ele>549.6</ele>
        <time>2022-12-31 08:14:05</time>
      </trkpt>
      <trkpt lat="40.12221" lon="-3.80515">
        <ele>549.8</ele>
        <time>2022-12-31 08:14:06</time>
      </trkpt>
      <trkpt lat="40.12216" lon="-3.8051">
        <ele>549.8</ele>
        <time>2022-12-31 08:14:07</time>
      </trkpt>
      <trkpt lat="40.1221" lon="-3.80506">
        <ele>549.8</ele>
        <time>2022-12-31 08:14:08</time>
      </trkpt>
      <trkpt lat="40.12205" lon="-3.80503">
        <ele>549.8</ele>
        <time>2022-12-31 08:14:09</time>
      </trkpt>
      <trkpt lat="40.12199" lon="-3.80499">
        <ele>549.6</ele>
        <time>2022-12-31 08:14:10</time>
      </trkpt>
      <trkpt lat="40.12193" lon="-3.80495">
        <ele>549.8</ele>
        <time>2022-12-31 08:14:11</time>
      </trkpt>
      <trkpt lat="40.12187" lon="-3.80492">
        <ele>549.8</ele>
        <time>2022-12-31 08:14:12</time>
      </trkpt>
      <trkpt lat="40.12181" lon="-3.80488">
        <ele>549.8</ele>
        <time>2022-12-31 08:14:13</time>
      </trkpt>
      <trkpt lat="40.12175" lon="-3.80485">
        <ele>549.8</ele>
        <time>2022-12-31 08:14:14</time>
      </trkpt>
      <trkpt lat="40.1217" lon="-3.80482">
        <ele>549.6</ele>
        <time>2022-12-31 08:14:15</time>
      </trkpt>
      <trkpt lat="40.12163" lon="-3.80481">
        <ele>549.4</ele>
        <time>2022-12-31 08:14:16</time>
      </trkpt>
      <trkpt lat="40.12157" lon="-3.80479">
        <ele>549.2</ele>
        <time>2022-12-31 08:14:17</time>
      </trkpt>
      <trkpt lat="40.1215" lon="-3.80478">
        <ele>548.8</ele>
        <time>2022-12-31 08:14:18</time>
      </trkpt>
      <trkpt lat="40.12143" lon="-3.80476">
        <ele>548.6</ele>
        <time>2022-12-31 08:14:19</time>
      </trkpt>
      <trkpt lat="40.12137" lon="-3.80475">
        <ele>548.4</ele>
        <time>2022-12-31 08:14:20</time>
      </trkpt>
      <trkpt lat="40.12131" lon="-3.80473">
        <ele>548</ele>
        <time>2022-12-31 08:14:21</time>
      </trkpt>
      <trkpt lat="40.12124" lon="-3.80471">
        <ele>548</ele>
        <time>2022-12-31 08:14:22</time>
      </trkpt>
      <trkpt lat="40.12118" lon="-3.80469">
        <ele>548</ele>
        <time>2022-12-31 08:14:23</time>
      </trkpt>
      <trkpt lat="40.12112" lon="-3.80466">
        <ele>547.8</ele>
        <time>2022-12-31 08:14:24</time>
      </trkpt>
      <trkpt lat="40.12106" lon="-3.80462">
        <ele>547.8</ele>
        <time>2022-12-31 08:14:25</time>
      </trkpt>
      <trkpt lat="40.12101" lon="-3.80457">
        <ele>547.8</ele>
        <time>2022-12-31 08:14:26</time>
      </trkpt>
      <trkpt lat="40.12096" lon="-3.80452">
        <ele>547.8</ele>
        <time>2022-12-31 08:14:27</time>
      </trkpt>
      <trkpt lat="40.12091" lon="-3.80447">
        <ele>547.6</ele>
        <time>2022-12-31 08:14:28</time>
      </trkpt>
      <trkpt lat="40.12086" lon="-3.80442">
        <ele>547.8</ele>
        <time>2022-12-31 08:14:29</time>
      </trkpt>
      <trkpt lat="40.12082" lon="-3.80436">
        <ele>547.8</ele>
        <time>2022-12-31 08:14:30</time>
      </trkpt>
      <trkpt lat="40.12078" lon="-3.80432">
        <ele>547.6</ele>
        <time>2022-12-31 08:14:31</time>
      </trkpt>
      <trkpt lat="40.12075" lon="-3.80427">
        <ele>547.6</ele>
        <time>2022-12-31 08:14:32</time>
      </trkpt>
      <trkpt lat="40.12072" lon="-3.80423">
        <ele>547.6</ele>
        <time>2022-12-31 08:14:33</time>
      </trkpt>
      <trkpt lat="40.12069" lon="-3.8042">
        <ele>547.6</ele>
        <time>2022-12-31 08:14:34</time>
      </trkpt>
      <trkpt lat="40.12066" lon="-3.80418">
        <ele>547.6</ele>
        <time>2022-12-31 08:14:35</time>
      </trkpt>
      <trkpt lat="40.12063" lon="-3.80417">
        <ele>547.6</ele>
        <time>2022-12-31 08:14:36</time>
      </trkpt>
      <trkpt lat="40.1206" lon="-3.80417">
        <ele>547.8</ele>
        <time>2022-12-31 08:14:37</time>
      </trkpt>
      <trkpt lat="40.12057" lon="-3.80417">
        <ele>547.8</ele>
        <time>2022-12-31 08:14:38</time>
      </trkpt>
      <trkpt lat="40.12053" lon="-3.80419">
        <ele>547.8</ele>
        <time>2022-12-31 08:14:39</time>
      </trkpt>
      <trkpt lat="40.12049" lon="-3.8042">
        <ele>547.8</ele>
        <time>2022-12-31 08:14:40</time>
      </trkpt>
      <trkpt lat="40.12045" lon="-3.80423">
        <ele>547.8</ele>
        <time>2022-12-31 08:14:41</time>
      </trkpt>
      <trkpt lat="40.12041" lon="-3.80426">
        <ele>547.6</ele>
        <time>2022-12-31 08:14:42</time>
      </trkpt>
      <trkpt lat="40.12037" lon="-3.80429">
        <ele>547.6</ele>
        <time>2022-12-31 08:14:43</time>
      </trkpt>
      <trkpt lat="40.12032" lon="-3.80431">
        <ele>547.8</ele>
        <time>2022-12-31 08:14:44</time>
      </trkpt>
      <trkpt lat="40.12027" lon="-3.80434">
        <ele>547.6</ele>
        <time>2022-12-31 08:14:45</time>
      </trkpt>
      <trkpt lat="40.12023" lon="-3.80438">
        <ele>547.6</ele>
        <time>2022-12-31 08:14:46</time>
      </trkpt>
      <trkpt lat="40.12018" lon="-3.80442">
        <ele>547.6</ele>
        <time>2022-12-31 08:14:47</time>
      </trkpt>
      <trkpt lat="40.12013" lon="-3.80447">
        <ele>547.6</ele>
        <time>2022-12-31 08:14:48</time>
      </trkpt>
      <trkpt lat="40.12008" lon="-3.80451">
        <ele>547.6</ele>
        <time>2022-12-31 08:14:49</time>
      </trkpt>
      <trkpt lat="40.12002" lon="-3.80455">
        <ele>547.6</ele>
        <time>2022-12-31 08:14:50</time>
      </trkpt>
      <trkpt lat="40.11997" lon="-3.80458">
        <ele>547.4</ele>
        <time>2022-12-31 08:14:51</time>
      </trkpt>
      <trkpt lat="40.11991" lon="-3.80462">
        <ele>547.6</ele>
        <time>2022-12-31 08:14:52</time>
      </trkpt>
      <trkpt lat="40.11985" lon="-3.80465">
        <ele>547.4</ele>
        <time>2022-12-31 08:14:53</time>
      </trkpt>
      <trkpt lat="40.11979" lon="-3.80468">
        <ele>547.2</ele>
        <time>2022-12-31 08:14:54</time>
      </trkpt>
      <trkpt lat="40.11972" lon="-3.80472">
        <ele>547.2</ele>
        <time>2022-12-31 08:14:55</time>
      </trkpt>
      <trkpt lat="40.11965" lon="-3.80475">
        <ele>547.2</ele>
        <time>2022-12-31 08:14:56</time>
      </trkpt>
      <trkpt lat="40.11959" lon="-3.80479">
        <ele>547.2</ele>
        <time>2022-12-31 08:14:57</time>
      </trkpt>
      <trkpt lat="40.11952" lon="-3.80482">
        <ele>547</ele>
        <time>2022-12-31 08:14:58</time>
      </trkpt>
      <trkpt lat="40.11946" lon="-3.80486">
        <ele>546.8</ele>
        <time>2022-12-31 08:14:59</time>
      </trkpt>
      <trkpt lat="40.1194" lon="-3.80489">
        <ele>547</ele>
        <time>2022-12-31 08:15:00</time>
      </trkpt>
      <trkpt lat="40.11934" lon="-3.80492">
        <ele>546.8</ele>
        <time>2022-12-31 08:15:01</time>
      </trkpt>
      <trkpt lat="40.11927" lon="-3.80495">
        <ele>546.8</ele>
        <time>2022-12-31 08:15:02</time>
      </trkpt>
      <trkpt lat="40.11921" lon="-3.80498">
        <ele>546.8</ele>
        <time>2022-12-31 08:15:03</time>
      </trkpt>
      <trkpt lat="40.11915" lon="-3.80501">
        <ele>546.8</ele>
        <time>2022-12-31 08:15:04</time>
      </trkpt>
      <trkpt lat="40.11909" lon="-3.80504">
        <ele>546.6</ele>
        <time>2022-12-31 08:15:05</time>
      </trkpt>
      <trkpt lat="40.11903" lon="-3.80507">
        <ele>546.6</ele>
        <time>2022-12-31 08:15:06</time>
      </trkpt>
      <trkpt lat="40.11896" lon="-3.80511">
        <ele>546.6</ele>
        <time>2022-12-31 08:15:07</time>
      </trkpt>
      <trkpt lat="40.1189" lon="-3.80514">
        <ele>546.6</ele>
        <time>2022-12-31 08:15:08</time>
      </trkpt>
      <trkpt lat="40.11883" lon="-3.80517">
        <ele>546.8</ele>
        <time>2022-12-31 08:15:09</time>
      </trkpt>
      <trkpt lat="40.11877" lon="-3.80521">
        <ele>546.6</ele>
        <time>2022-12-31 08:15:10</time>
      </trkpt>
      <trkpt lat="40.11872" lon="-3.80524">
        <ele>546.6</ele>
        <time>2022-12-31 08:15:11</time>
      </trkpt>
      <trkpt lat="40.11866" lon="-3.80526">
        <ele>546.6</ele>
        <time>2022-12-31 08:15:12</time>
      </trkpt>
      <trkpt lat="40.11859" lon="-3.80528">
        <ele>546.6</ele>
        <time>2022-12-31 08:15:13</time>
      </trkpt>
      <trkpt lat="40.11853" lon="-3.80529">
        <ele>546.6</ele>
        <time>2022-12-31 08:15:14</time>
      </trkpt>
      <trkpt lat="40.11847" lon="-3.8053">
        <ele>546.6</ele>
        <time>2022-12-31 08:15:15</time>
      </trkpt>
      <trkpt lat="40.1184" lon="-3.8053">
        <ele>546.6</ele>
        <time>2022-12-31 08:15:16</time>
      </trkpt>
      <trkpt lat="40.11833" lon="-3.8053">
        <ele>546.6</ele>
        <time>2022-12-31 08:15:17</time>
      </trkpt>
      <trkpt lat="40.11826" lon="-3.80529">
        <ele>546.6</ele>
        <time>2022-12-31 08:15:18</time>
      </trkpt>
      <trkpt lat="40.11819" lon="-3.80528">
        <ele>546.6</ele>
        <time>2022-12-31 08:15:19</time>
      </trkpt>
      <trkpt lat="40.11812" lon="-3.80527">
        <ele>546.6</ele>
        <time>2022-12-31 08:15:20</time>
      </trkpt>
      <trkpt lat="40.11805" lon="-3.80526">
        <ele>546.6</ele>
        <time>2022-12-31 08:15:21</time>
      </trkpt>
      <trkpt lat="40.11798" lon="-3.80524">
        <ele>546.4</ele>
        <time>2022-12-31 08:15:22</time>
      </trkpt>
      <trkpt lat="40.11791" lon="-3.80523">
        <ele>546.4</ele>
        <time>2022-12-31 08:15:23</time>
      </trkpt>
      <trkpt lat="40.11784" lon="-3.80522">
        <ele>546.4</ele>
        <time>2022-12-31 08:15:24</time>
      </trkpt>
      <trkpt lat="40.11777" lon="-3.80521">
        <ele>546.4</ele>
        <time>2022-12-31 08:15:25</time>
      </trkpt>
      <trkpt lat="40.1177" lon="-3.80519">
        <ele>546.6</ele>
        <time>2022-12-31 08:15:26</time>
      </trkpt>
      <trkpt lat="40.11763" lon="-3.80517">
        <ele>546.4</ele>
        <time>2022-12-31 08:15:27</time>
      </trkpt>
      <trkpt lat="40.11756" lon="-3.80515">
        <ele>546.6</ele>
        <time>2022-12-31 08:15:28</time>
      </trkpt>
      <trkpt lat="40.11749" lon="-3.80513">
        <ele>546.6</ele>
        <time>2022-12-31 08:15:29</time>
      </trkpt>
      <trkpt lat="40.11742" lon="-3.80512">
        <ele>546.4</ele>
        <time>2022-12-31 08:15:30</time>
      </trkpt>
      <trkpt lat="40.11736" lon="-3.80511">
        <ele>546.4</ele>
        <time>2022-12-31 08:15:31</time>
      </trkpt>
      <trkpt lat="40.11729" lon="-3.80509">
        <ele>546.4</ele>
        <time>2022-12-31 08:15:32</time>
      </trkpt>
      <trkpt lat="40.11722" lon="-3.80507">
        <ele>546.4</ele>
        <time>2022-12-31 08:15:33</time>
      </trkpt>
      <trkpt lat="40.11715" lon="-3.80506">
        <ele>546.4</ele>
        <time>2022-12-31 08:15:34</time>
      </trkpt>
      <trkpt lat="40.11709" lon="-3.80504">
        <ele>546.4</ele>
        <time>2022-12-31 08:15:35</time>
      </trkpt>
      <trkpt lat="40.11702" lon="-3.80503">
        <ele>546.2</ele>
        <time>2022-12-31 08:15:36</time>
      </trkpt>
      <trkpt lat="40.11695" lon="-3.80502">
        <ele>546.2</ele>
        <time>2022-12-31 08:15:37</time>
      </trkpt>
      <trkpt lat="40.11688" lon="-3.80501">
        <ele>546.2</ele>
        <time>2022-12-31 08:15:38</time>
      </trkpt>
      <trkpt lat="40.11681" lon="-3.805">
        <ele>546.4</ele>
        <time>2022-12-31 08:15:39</time>
      </trkpt>
      <trkpt lat="40.11675" lon="-3.80499">
        <ele>546.4</ele>
        <time>2022-12-31 08:15:40</time>
      </trkpt>
      <trkpt lat="40.11668" lon="-3.80499">
        <ele>546.2</ele>
        <time>2022-12-31 08:15:41</time>
      </trkpt>
      <trkpt lat="40.11661" lon="-3.80498">
        <ele>546.2</ele>
        <time>2022-12-31 08:15:42</time>
      </trkpt>
      <trkpt lat="40.11654" lon="-3.80498">
        <ele>546.2</ele>
        <time>2022-12-31 08:15:43</time>
      </trkpt>
      <trkpt lat="40.11647" lon="-3.80497">
        <ele>545.8</ele>
        <time>2022-12-31 08:15:44</time>
      </trkpt>
      <trkpt lat="40.1164" lon="-3.80496">
        <ele>545.8</ele>
        <time>2022-12-31 08:15:45</time>
      </trkpt>
      <trkpt lat="40.11633" lon="-3.80495">
        <ele>545.6</ele>
        <time>2022-12-31 08:15:46</time>
      </trkpt>
      <trkpt lat="40.11625" lon="-3.80495">
        <ele>545.4</ele>
        <time>2022-12-31 08:15:47</time>
      </trkpt>
      <trkpt lat="40.11618" lon="-3.80495">
        <ele>545.4</ele>
        <time>2022-12-31 08:15:48</time>
      </trkpt>
      <trkpt lat="40.11611" lon="-3.80495">
        <ele>545.2</ele>
        <time>2022-12-31 08:15:49</time>
      </trkpt>
      <trkpt lat="40.11603" lon="-3.80495">
        <ele>545.2</ele>
        <time>2022-12-31 08:15:50</time>
      </trkpt>
      <trkpt lat="40.11596" lon="-3.80495">
        <ele>545</ele>
        <time>2022-12-31 08:15:51</time>
      </trkpt>
      <trkpt lat="40.11589" lon="-3.80495">
        <ele>545</ele>
        <time>2022-12-31 08:15:52</time>
      </trkpt>
      <trkpt lat="40.11582" lon="-3.80495">
        <ele>545</ele>
        <time>2022-12-31 08:15:53</time>
      </trkpt>
      <trkpt lat="40.11575" lon="-3.80495">
        <ele>544.8</ele>
        <time>2022-12-31 08:15:54</time>
      </trkpt>
      <trkpt lat="40.11567" lon="-3.80495">
        <ele>544.8</ele>
        <time>2022-12-31 08:15:55</time>
      </trkpt>
      <trkpt lat="40.1156" lon="-3.80495">
        <ele>544.8</ele>
        <time>2022-12-31 08:15:56</time>
      </trkpt>
      <trkpt lat="40.11552" lon="-3.80496">
        <ele>544.6</ele>
        <time>2022-12-31 08:15:57</time>
      </trkpt>
      <trkpt lat="40.11545" lon="-3.80496">
        <ele>544.6</ele>
        <time>2022-12-31 08:15:58</time>
      </trkpt>
      <trkpt lat="40.11537" lon="-3.80496">
        <ele>544.6</ele>
        <time>2022-12-31 08:15:59</time>
      </trkpt>
      <trkpt lat="40.1153" lon="-3.80495">
        <ele>544.4</ele>
        <time>2022-12-31 08:16:00</time>
      </trkpt>
      <trkpt lat="40.11523" lon="-3.80496">
        <ele>544.4</ele>
        <time>2022-12-31 08:16:01</time>
      </trkpt>
      <trkpt lat="40.11515" lon="-3.80495">
        <ele>544.4</ele>
        <time>2022-12-31 08:16:02</time>
      </trkpt>
      <trkpt lat="40.11508" lon="-3.80495">
        <ele>544.4</ele>
        <time>2022-12-31 08:16:03</time>
      </trkpt>
      <trkpt lat="40.115" lon="-3.80495">
        <ele>544.2</ele>
        <time>2022-12-31 08:16:04</time>
      </trkpt>
      <trkpt lat="40.11493" lon="-3.80495">
        <ele>544.2</ele>
        <time>2022-12-31 08:16:05</time>
      </trkpt>
      <trkpt lat="40.11485" lon="-3.80496">
        <ele>544.2</ele>
        <time>2022-12-31 08:16:06</time>
      </trkpt>
      <trkpt lat="40.11478" lon="-3.80496">
        <ele>544.2</ele>
        <time>2022-12-31 08:16:07</time>
      </trkpt>
      <trkpt lat="40.11471" lon="-3.80496">
        <ele>544.2</ele>
        <time>2022-12-31 08:16:08</time>
      </trkpt>
      <trkpt lat="40.11463" lon="-3.80496">
        <ele>544</ele>
        <time>2022-12-31 08:16:09</time>
      </trkpt>
      <trkpt lat="40.11456" lon="-3.80496">
        <ele>544.2</ele>
        <time>2022-12-31 08:16:10</time>
      </trkpt>
      <trkpt lat="40.11449" lon="-3.80496">
        <ele>544.2</ele>
        <time>2022-12-31 08:16:11</time>
      </trkpt>
      <trkpt lat="40.11441" lon="-3.80496">
        <ele>544.2</ele>
        <time>2022-12-31 08:16:12</time>
      </trkpt>
      <trkpt lat="40.11434" lon="-3.80496">
        <ele>544.2</ele>
        <time>2022-12-31 08:16:13</time>
      </trkpt>
      <trkpt lat="40.11427" lon="-3.80496">
        <ele>544.2</ele>
        <time>2022-12-31 08:16:14</time>
      </trkpt>
      <trkpt lat="40.11421" lon="-3.80496">
        <ele>544.2</ele>
        <time>2022-12-31 08:16:15</time>
      </trkpt>
      <trkpt lat="40.11414" lon="-3.80496">
        <ele>544.2</ele>
        <time>2022-12-31 08:16:16</time>
      </trkpt>
      <trkpt lat="40.11407" lon="-3.80495">
        <ele>544.2</ele>
        <time>2022-12-31 08:16:17</time>
      </trkpt>
      <trkpt lat="40.11401" lon="-3.80495">
        <ele>544.2</ele>
        <time>2022-12-31 08:16:18</time>
      </trkpt>
      <trkpt lat="40.11395" lon="-3.80495">
        <ele>544.4</ele>
        <time>2022-12-31 08:16:19</time>
      </trkpt>
      <trkpt lat="40.11388" lon="-3.80495">
        <ele>544.2</ele>
        <time>2022-12-31 08:16:20</time>
      </trkpt>
      <trkpt lat="40.11382" lon="-3.80495">
        <ele>544.2</ele>
        <time>2022-12-31 08:16:21</time>
      </trkpt>
      <trkpt lat="40.11375" lon="-3.80494">
        <ele>544.4</ele>
        <time>2022-12-31 08:16:22</time>
      </trkpt>
      <trkpt lat="40.11369" lon="-3.80494">
        <ele>544.6</ele>
        <time>2022-12-31 08:16:23</time>
      </trkpt>
      <trkpt lat="40.11362" lon="-3.80494">
        <ele>544.6</ele>
        <time>2022-12-31 08:16:24</time>
      </trkpt>
      <trkpt lat="40.11355" lon="-3.80495">
        <ele>544.8</ele>
        <time>2022-12-31 08:16:25</time>
      </trkpt>
      <trkpt lat="40.11348" lon="-3.80495">
        <ele>544.8</ele>
        <time>2022-12-31 08:16:26</time>
      </trkpt>
      <trkpt lat="40.11342" lon="-3.80496">
        <ele>545.2</ele>
        <time>2022-12-31 08:16:27</time>
      </trkpt>
      <trkpt lat="40.11335" lon="-3.80497">
        <ele>545</ele>
        <time>2022-12-31 08:16:28</time>
      </trkpt>
      <trkpt lat="40.11328" lon="-3.80499">
        <ele>545</ele>
        <time>2022-12-31 08:16:29</time>
      </trkpt>
      <trkpt lat="40.11321" lon="-3.80501">
        <ele>545</ele>
        <time>2022-12-31 08:16:30</time>
      </trkpt>
      <trkpt lat="40.11314" lon="-3.80504">
        <ele>545.2</ele>
        <time>2022-12-31 08:16:31</time>
      </trkpt>
      <trkpt lat="40.11307" lon="-3.80506">
        <ele>545</ele>
        <time>2022-12-31 08:16:32</time>
      </trkpt>
      <trkpt lat="40.113" lon="-3.80509">
        <ele>545.2</ele>
        <time>2022-12-31 08:16:33</time>
      </trkpt>
      <trkpt lat="40.11292" lon="-3.80512">
        <ele>545</ele>
        <time>2022-12-31 08:16:34</time>
      </trkpt>
      <trkpt lat="40.11285" lon="-3.80515">
        <ele>545</ele>
        <time>2022-12-31 08:16:35</time>
      </trkpt>
      <trkpt lat="40.11278" lon="-3.80519">
        <ele>545.2</ele>
        <time>2022-12-31 08:16:36</time>
      </trkpt>
      <trkpt lat="40.11271" lon="-3.80522">
        <ele>545</ele>
        <time>2022-12-31 08:16:37</time>
      </trkpt>
      <trkpt lat="40.11264" lon="-3.80526">
        <ele>544.8</ele>
        <time>2022-12-31 08:16:38</time>
      </trkpt>
      <trkpt lat="40.11257" lon="-3.80529">
        <ele>545</ele>
        <time>2022-12-31 08:16:39</time>
      </trkpt>
      <trkpt lat="40.1125" lon="-3.80533">
        <ele>545</ele>
        <time>2022-12-31 08:16:40</time>
      </trkpt>
      <trkpt lat="40.11243" lon="-3.80537">
        <ele>544.6</ele>
        <time>2022-12-31 08:16:41</time>
      </trkpt>
      <trkpt lat="40.11236" lon="-3.8054">
        <ele>544.6</ele>
        <time>2022-12-31 08:16:42</time>
      </trkpt>
      <trkpt lat="40.11229" lon="-3.80543">
        <ele>544.4</ele>
        <time>2022-12-31 08:16:43</time>
      </trkpt>
      <trkpt lat="40.11222" lon="-3.80546">
        <ele>544.4</ele>
        <time>2022-12-31 08:16:44</time>
      </trkpt>
      <trkpt lat="40.11214" lon="-3.80548">
        <ele>544.4</ele>
        <time>2022-12-31 08:16:45</time>
      </trkpt>
      <trkpt lat="40.11207" lon="-3.80551">
        <ele>544.4</ele>
        <time>2022-12-31 08:16:46</time>
      </trkpt>
      <trkpt lat="40.112" lon="-3.80553">
        <ele>544.2</ele>
        <time>2022-12-31 08:16:47</time>
      </trkpt>
      <trkpt lat="40.11192" lon="-3.80555">
        <ele>544.2</ele>
        <time>2022-12-31 08:16:48</time>
      </trkpt>
      <trkpt lat="40.11185" lon="-3.80558">
        <ele>544</ele>
        <time>2022-12-31 08:16:49</time>
      </trkpt>
      <trkpt lat="40.11177" lon="-3.8056">
        <ele>544.2</ele>
        <time>2022-12-31 08:16:50</time>
      </trkpt>
      <trkpt lat="40.1117" lon="-3.80563">
        <ele>544.2</ele>
        <time>2022-12-31 08:16:51</time>
      </trkpt>
      <trkpt lat="40.11163" lon="-3.80565">
        <ele>544.2</ele>
        <time>2022-12-31 08:16:52</time>
      </trkpt>
      <trkpt lat="40.11156" lon="-3.80567">
        <ele>544.2</ele>
        <time>2022-12-31 08:16:53</time>
      </trkpt>
      <trkpt lat="40.11148" lon="-3.80569">
        <ele>544</ele>
        <time>2022-12-31 08:16:54</time>
      </trkpt>
      <trkpt lat="40.11141" lon="-3.80571">
        <ele>544</ele>
        <time>2022-12-31 08:16:55</time>
      </trkpt>
      <trkpt lat="40.11134" lon="-3.80573">
        <ele>544</ele>
        <time>2022-12-31 08:16:56</time>
      </trkpt>
      <trkpt lat="40.11126" lon="-3.80574">
        <ele>543.8</ele>
        <time>2022-12-31 08:16:57</time>
      </trkpt>
      <trkpt lat="40.11119" lon="-3.80576">
        <ele>543.8</ele>
        <time>2022-12-31 08:16:58</time>
      </trkpt>
      <trkpt lat="40.11112" lon="-3.80578">
        <ele>543.8</ele>
        <time>2022-12-31 08:16:59</time>
      </trkpt>
      <trkpt lat="40.11104" lon="-3.80579">
        <ele>543.6</ele>
        <time>2022-12-31 08:17:00</time>
      </trkpt>
      <trkpt lat="40.11097" lon="-3.8058">
        <ele>543.8</ele>
        <time>2022-12-31 08:17:01</time>
      </trkpt>
      <trkpt lat="40.1109" lon="-3.8058">
        <ele>543.8</ele>
        <time>2022-12-31 08:17:02</time>
      </trkpt>
      <trkpt lat="40.11082" lon="-3.80581">
        <ele>543.6</ele>
        <time>2022-12-31 08:17:03</time>
      </trkpt>
      <trkpt lat="40.11075" lon="-3.80582">
        <ele>543.6</ele>
        <time>2022-12-31 08:17:04</time>
      </trkpt>
      <trkpt lat="40.11067" lon="-3.80583">
        <ele>543.6</ele>
        <time>2022-12-31 08:17:05</time>
      </trkpt>
      <trkpt lat="40.1106" lon="-3.80584">
        <ele>543.6</ele>
        <time>2022-12-31 08:17:06</time>
      </trkpt>
      <trkpt lat="40.11053" lon="-3.80585">
        <ele>543.6</ele>
        <time>2022-12-31 08:17:07</time>
      </trkpt>
      <trkpt lat="40.11045" lon="-3.80586">
        <ele>543.6</ele>
        <time>2022-12-31 08:17:08</time>
      </trkpt>
      <trkpt lat="40.11038" lon="-3.80586">
        <ele>543.6</ele>
        <time>2022-12-31 08:17:09</time>
      </trkpt>
      <trkpt lat="40.11031" lon="-3.80587">
        <ele>543.6</ele>
        <time>2022-12-31 08:17:10</time>
      </trkpt>
      <trkpt lat="40.11024" lon="-3.80588">
        <ele>543.6</ele>
        <time>2022-12-31 08:17:11</time>
      </trkpt>
      <trkpt lat="40.11017" lon="-3.80589">
        <ele>543.8</ele>
        <time>2022-12-31 08:17:12</time>
      </trkpt>
      <trkpt lat="40.1101" lon="-3.8059">
        <ele>543.6</ele>
        <time>2022-12-31 08:17:13</time>
      </trkpt>
      <trkpt lat="40.11003" lon="-3.80591">
        <ele>543.6</ele>
        <time>2022-12-31 08:17:14</time>
      </trkpt>
      <trkpt lat="40.10996" lon="-3.80593">
        <ele>543.8</ele>
        <time>2022-12-31 08:17:15</time>
      </trkpt>
      <trkpt lat="40.10989" lon="-3.80594">
        <ele>543.6</ele>
        <time>2022-12-31 08:17:16</time>
      </trkpt>
      <trkpt lat="40.10981" lon="-3.80595">
        <ele>543.8</ele>
        <time>2022-12-31 08:17:17</time>
      </trkpt>
      <trkpt lat="40.10974" lon="-3.80597">
        <ele>543.8</ele>
        <time>2022-12-31 08:17:18</time>
      </trkpt>
      <trkpt lat="40.10967" lon="-3.80599">
        <ele>543.8</ele>
        <time>2022-12-31 08:17:19</time>
      </trkpt>
      <trkpt lat="40.1096" lon="-3.80601">
        <ele>543.8</ele>
        <time>2022-12-31 08:17:20</time>
      </trkpt>
      <trkpt lat="40.10953" lon="-3.80603">
        <ele>543.8</ele>
        <time>2022-12-31 08:17:21</time>
      </trkpt>
      <trkpt lat="40.10947" lon="-3.80605">
        <ele>543.8</ele>
        <time>2022-12-31 08:17:22</time>
      </trkpt>
      <trkpt lat="40.1094" lon="-3.80607">
        <ele>543.8</ele>
        <time>2022-12-31 08:17:23</time>
      </trkpt>
      <trkpt lat="40.10933" lon="-3.80609">
        <ele>543.8</ele>
        <time>2022-12-31 08:17:24</time>
      </trkpt>
      <trkpt lat="40.10926" lon="-3.80611">
        <ele>543.8</ele>
        <time>2022-12-31 08:17:25</time>
      </trkpt>
      <trkpt lat="40.1092" lon="-3.80614">
        <ele>543.8</ele>
        <time>2022-12-31 08:17:26</time>
      </trkpt>
      <trkpt lat="40.10913" lon="-3.80616">
        <ele>543.6</ele>
        <time>2022-12-31 08:17:27</time>
      </trkpt>
      <trkpt lat="40.10906" lon="-3.80617">
        <ele>543.8</ele>
        <time>2022-12-31 08:17:28</time>
      </trkpt>
      <trkpt lat="40.10899" lon="-3.80619">
        <ele>543.8</ele>
        <time>2022-12-31 08:17:29</time>
      </trkpt>
      <trkpt lat="40.10893" lon="-3.8062">
        <ele>543.8</ele>
        <time>2022-12-31 08:17:30</time>
      </trkpt>
      <trkpt lat="40.10886" lon="-3.80621">
        <ele>543.8</ele>
        <time>2022-12-31 08:17:31</time>
      </trkpt>
      <trkpt lat="40.10879" lon="-3.80623">
        <ele>543.6</ele>
        <time>2022-12-31 08:17:32</time>
      </trkpt>
      <trkpt lat="40.10873" lon="-3.80624">
        <ele>543.6</ele>
        <time>2022-12-31 08:17:33</time>
      </trkpt>
      <trkpt lat="40.10866" lon="-3.80625">
        <ele>543.8</ele>
        <time>2022-12-31 08:17:34</time>
      </trkpt>
      <trkpt lat="40.10859" lon="-3.80626">
        <ele>543.8</ele>
        <time>2022-12-31 08:17:35</time>
      </trkpt>
      <trkpt lat="40.10852" lon="-3.80627">
        <ele>543.8</ele>
        <time>2022-12-31 08:17:36</time>
      </trkpt>
      <trkpt lat="40.10846" lon="-3.80628">
        <ele>543.8</ele>
        <time>2022-12-31 08:17:37</time>
      </trkpt>
      <trkpt lat="40.10839" lon="-3.8063">
        <ele>543.8</ele>
        <time>2022-12-31 08:17:38</time>
      </trkpt>
      <trkpt lat="40.10833" lon="-3.80631">
        <ele>543.6</ele>
        <time>2022-12-31 08:17:39</time>
      </trkpt>
      <trkpt lat="40.10826" lon="-3.80632">
        <ele>543.8</ele>
        <time>2022-12-31 08:17:40</time>
      </trkpt>
      <trkpt lat="40.10819" lon="-3.80633">
        <ele>543.8</ele>
        <time>2022-12-31 08:17:41</time>
      </trkpt>
      <trkpt lat="40.10812" lon="-3.80635">
        <ele>543.8</ele>
        <time>2022-12-31 08:17:42</time>
      </trkpt>
      <trkpt lat="40.10806" lon="-3.80636">
        <ele>543.6</ele>
        <time>2022-12-31 08:17:43</time>
      </trkpt>
      <trkpt lat="40.10799" lon="-3.80638">
        <ele>543.8</ele>
        <time>2022-12-31 08:17:44</time>
      </trkpt>
      <trkpt lat="40.10792" lon="-3.80639">
        <ele>543.8</ele>
        <time>2022-12-31 08:17:45</time>
      </trkpt>
      <trkpt lat="40.10786" lon="-3.80641">
        <ele>543.8</ele>
        <time>2022-12-31 08:17:46</time>
      </trkpt>
      <trkpt lat="40.10779" lon="-3.80642">
        <ele>543.8</ele>
        <time>2022-12-31 08:17:47</time>
      </trkpt>
      <trkpt lat="40.10773" lon="-3.80645">
        <ele>543.6</ele>
        <time>2022-12-31 08:17:48</time>
      </trkpt>
      <trkpt lat="40.10766" lon="-3.80647">
        <ele>543.6</ele>
        <time>2022-12-31 08:17:49</time>
      </trkpt>
      <trkpt lat="40.1076" lon="-3.80651">
        <ele>543.6</ele>
        <time>2022-12-31 08:17:50</time>
      </trkpt>
      <trkpt lat="40.10754" lon="-3.80655">
        <ele>543.6</ele>
        <time>2022-12-31 08:17:51</time>
      </trkpt>
      <trkpt lat="40.10748" lon="-3.8066">
        <ele>543.6</ele>
        <time>2022-12-31 08:17:52</time>
      </trkpt>
      <trkpt lat="40.10743" lon="-3.80665">
        <ele>543.6</ele>
        <time>2022-12-31 08:17:53</time>
      </trkpt>
      <trkpt lat="40.10737" lon="-3.8067">
        <ele>543.4</ele>
        <time>2022-12-31 08:17:54</time>
      </trkpt>
      <trkpt lat="40.10731" lon="-3.80675">
        <ele>543.4</ele>
        <time>2022-12-31 08:17:55</time>
      </trkpt>
      <trkpt lat="40.10725" lon="-3.8068">
        <ele>543.4</ele>
        <time>2022-12-31 08:17:56</time>
      </trkpt>
      <trkpt lat="40.1072" lon="-3.80686">
        <ele>543.2</ele>
        <time>2022-12-31 08:17:57</time>
      </trkpt>
      <trkpt lat="40.10714" lon="-3.80691">
        <ele>543</ele>
        <time>2022-12-31 08:17:58</time>
      </trkpt>
      <trkpt lat="40.10708" lon="-3.80697">
        <ele>543</ele>
        <time>2022-12-31 08:17:59</time>
      </trkpt>
      <trkpt lat="40.10703" lon="-3.80702">
        <ele>543</ele>
        <time>2022-12-31 08:18:00</time>
      </trkpt>
      <trkpt lat="40.10697" lon="-3.80708">
        <ele>542.8</ele>
        <time>2022-12-31 08:18:01</time>
      </trkpt>
      <trkpt lat="40.10691" lon="-3.80713">
        <ele>542.8</ele>
        <time>2022-12-31 08:18:02</time>
      </trkpt>
      <trkpt lat="40.10686" lon="-3.80719">
        <ele>542.8</ele>
        <time>2022-12-31 08:18:03</time>
      </trkpt>
      <trkpt lat="40.1068" lon="-3.80724">
        <ele>542.6</ele>
        <time>2022-12-31 08:18:04</time>
      </trkpt>
      <trkpt lat="40.10675" lon="-3.8073">
        <ele>542.6</ele>
        <time>2022-12-31 08:18:05</time>
      </trkpt>
      <trkpt lat="40.10669" lon="-3.80735">
        <ele>542.4</ele>
        <time>2022-12-31 08:18:06</time>
      </trkpt>
      <trkpt lat="40.10664" lon="-3.80741">
        <ele>542.2</ele>
        <time>2022-12-31 08:18:07</time>
      </trkpt>
      <trkpt lat="40.10659" lon="-3.80747">
        <ele>542.2</ele>
        <time>2022-12-31 08:18:08</time>
      </trkpt>
      <trkpt lat="40.10654" lon="-3.80753">
        <ele>542.2</ele>
        <time>2022-12-31 08:18:09</time>
      </trkpt>
      <trkpt lat="40.10649" lon="-3.80758">
        <ele>542.2</ele>
        <time>2022-12-31 08:18:10</time>
      </trkpt>
      <trkpt lat="40.10645" lon="-3.80763">
        <ele>542</ele>
        <time>2022-12-31 08:18:11</time>
      </trkpt>
      <trkpt lat="40.10641" lon="-3.80768">
        <ele>541.8</ele>
        <time>2022-12-31 08:18:12</time>
      </trkpt>
      <trkpt lat="40.10637" lon="-3.80772">
        <ele>541.8</ele>
        <time>2022-12-31 08:18:13</time>
      </trkpt>
      <trkpt lat="40.10634" lon="-3.80775">
        <ele>541.8</ele>
        <time>2022-12-31 08:18:14</time>
      </trkpt>
      <trkpt lat="40.10632" lon="-3.80778">
        <ele>541.8</ele>
        <time>2022-12-31 08:18:15</time>
      </trkpt>
      <trkpt lat="40.10631" lon="-3.80779">
        <ele>541.6</ele>
        <time>2022-12-31 08:18:16</time>
      </trkpt>
      <trkpt lat="40.10631" lon="-3.80779">
        <ele>541.6</ele>
        <time>2022-12-31 08:18:17</time>
      </trkpt>
    </trkseg>
  </trk>
</gpx>
